<?xml version="1.0" encoding="UTF-8" standalone="no" ?><gpx xmlns="http://www.topografix.com/GPX/1/1" xmlns:gpxx="http://www.garmin.com/xmlschemas/GpxExtensions/v3" xmlns:wptx1="http://www.garmin.com/xmlschemas/WaypointExtension/v1" xmlns:gpxtpx="http://www.garmin.com/xmlschemas/TrackPointExtension/v1" creator="GuideVTT.com" version="1.1" xmlns:xsi="http://www.w3.org/2001/XMLSchema-instance" xsi:schemaLocation="http://www.topografix.com/GPX/1/1 http://www.topografix.com/GPX/1/1/gpx.xsd http://www.garmin.com/xmlschemas/GpxExtensions/v3 http://www8.garmin.com/xmlschemas/GpxExtensionsv3.xsd http://www.garmin.com/xmlschemas/WaypointExtension/v1 http://www8.garmin.com/xmlschemas/WaypointExtensionv1.xsd http://www.garmin.com/xmlschemas/TrackPointExtension/v1 http://www.garmin.com/xmlschemas/TrackPointExtensionv1.xsd">
<metadata><link href="http://www.garmin.com"><text>Garmin International</text></link><time>2013-06-22T15:13:50Z</time></metadata>
<trk><name>visp-bex_20160806-1524.gpx</name><extensions><gpxx:TrackExtension><gpxx:DisplayColor>Cyan</gpxx:DisplayColor></gpxx:TrackExtension></extensions><trkseg>
<trkpt lat="46.29608" lon="7.86685"><ele>651.2</ele><time>2016-08-06T14:24:07Z</time></trkpt>
<trkpt lat="46.29607" lon="7.86667"><ele>649.6</ele><time>2016-08-06T14:24:09Z</time></trkpt>
<trkpt lat="46.29603" lon="7.86627"><ele>648.2</ele><time>2016-08-06T14:24:10Z</time></trkpt>
<trkpt lat="46.29605" lon="7.86627"><ele>645.2</ele><time>2016-08-06T14:24:12Z</time></trkpt>
<trkpt lat="46.29605" lon="7.86626"><ele>644.2</ele><time>2016-08-06T14:24:13Z</time></trkpt>
<trkpt lat="46.29603" lon="7.86625"><ele>644.2</ele><time>2016-08-06T14:24:14Z</time></trkpt>
<trkpt lat="46.29602" lon="7.86622"><ele>644.2</ele><time>2016-08-06T14:24:15Z</time></trkpt>
<trkpt lat="46.29602" lon="7.86619"><ele>644.2</ele><time>2016-08-06T14:24:16Z</time></trkpt>
<trkpt lat="46.29599" lon="7.86618"><ele>644.2</ele><time>2016-08-06T14:24:18Z</time></trkpt>
<trkpt lat="46.29595" lon="7.86618"><ele>644.2</ele><time>2016-08-06T14:24:20Z</time></trkpt>
<trkpt lat="46.29592" lon="7.86618"><ele>644.2</ele><time>2016-08-06T14:24:22Z</time></trkpt>
<trkpt lat="46.29589" lon="7.86618"><ele>644.2</ele><time>2016-08-06T14:24:24Z</time></trkpt>
<trkpt lat="46.2959" lon="7.86625"><ele>644.2</ele><time>2016-08-06T14:24:26Z</time></trkpt>
<trkpt lat="46.2959" lon="7.86631"><ele>644.2</ele><time>2016-08-06T14:24:28Z</time></trkpt>
<trkpt lat="46.29591" lon="7.86634"><ele>644.2</ele><time>2016-08-06T14:24:29Z</time></trkpt>
<trkpt lat="46.29591" lon="7.86637"><ele>644.2</ele><time>2016-08-06T14:24:30Z</time></trkpt>
<trkpt lat="46.29592" lon="7.86644"><ele>644.2</ele><time>2016-08-06T14:24:32Z</time></trkpt>
<trkpt lat="46.29593" lon="7.86646"><ele>644.2</ele><time>2016-08-06T14:24:33Z</time></trkpt>
<trkpt lat="46.29596" lon="7.86647"><ele>644.2</ele><time>2016-08-06T14:24:34Z</time></trkpt>
<trkpt lat="46.29602" lon="7.86648"><ele>644.2</ele><time>2016-08-06T14:24:36Z</time></trkpt>
<trkpt lat="46.29608" lon="7.86648"><ele>644</ele><time>2016-08-06T14:24:38Z</time></trkpt>
<trkpt lat="46.29614" lon="7.86649"><ele>644</ele><time>2016-08-06T14:24:40Z</time></trkpt>
<trkpt lat="46.2962" lon="7.8665"><ele>643.8</ele><time>2016-08-06T14:24:42Z</time></trkpt>
<trkpt lat="46.29625" lon="7.86652"><ele>643.6</ele><time>2016-08-06T14:24:44Z</time></trkpt>
<trkpt lat="46.29628" lon="7.86662"><ele>643.6</ele><time>2016-08-06T14:24:46Z</time></trkpt>
<trkpt lat="46.29631" lon="7.86671"><ele>643.4</ele><time>2016-08-06T14:24:48Z</time></trkpt>
<trkpt lat="46.29635" lon="7.8668"><ele>643.4</ele><time>2016-08-06T14:24:50Z</time></trkpt>
<trkpt lat="46.29639" lon="7.86682"><ele>643.2</ele><time>2016-08-06T14:24:51Z</time></trkpt>
<trkpt lat="46.29645" lon="7.86681"><ele>643.2</ele><time>2016-08-06T14:24:52Z</time></trkpt>
<trkpt lat="46.29656" lon="7.86681"><ele>643.2</ele><time>2016-08-06T14:24:54Z</time></trkpt>
<trkpt lat="46.29668" lon="7.8668"><ele>643</ele><time>2016-08-06T14:24:56Z</time></trkpt>
<trkpt lat="46.2968" lon="7.8668"><ele>642.8</ele><time>2016-08-06T14:24:58Z</time></trkpt>
<trkpt lat="46.29686" lon="7.86679"><ele>642.8</ele><time>2016-08-06T14:24:59Z</time></trkpt>
<trkpt lat="46.29693" lon="7.86679"><ele>642.8</ele><time>2016-08-06T14:25:00Z</time></trkpt>
<trkpt lat="46.29707" lon="7.86678"><ele>642.6</ele><time>2016-08-06T14:25:02Z</time></trkpt>
<trkpt lat="46.29721" lon="7.86677"><ele>642.6</ele><time>2016-08-06T14:25:04Z</time></trkpt>
<trkpt lat="46.29728" lon="7.86676"><ele>642.4</ele><time>2016-08-06T14:25:05Z</time></trkpt>
<trkpt lat="46.29736" lon="7.86675"><ele>642.4</ele><time>2016-08-06T14:25:06Z</time></trkpt>
<trkpt lat="46.29753" lon="7.86672"><ele>642.4</ele><time>2016-08-06T14:25:08Z</time></trkpt>
<trkpt lat="46.2977" lon="7.86669"><ele>642.2</ele><time>2016-08-06T14:25:10Z</time></trkpt>
<trkpt lat="46.29779" lon="7.86668"><ele>642.2</ele><time>2016-08-06T14:25:11Z</time></trkpt>
<trkpt lat="46.29788" lon="7.86667"><ele>642</ele><time>2016-08-06T14:25:12Z</time></trkpt>
<trkpt lat="46.29797" lon="7.86667"><ele>641.8</ele><time>2016-08-06T14:25:13Z</time></trkpt>
<trkpt lat="46.29806" lon="7.86666"><ele>641.4</ele><time>2016-08-06T14:25:14Z</time></trkpt>
<trkpt lat="46.29825" lon="7.86665"><ele>640.4</ele><time>2016-08-06T14:25:16Z</time></trkpt>
<trkpt lat="46.29843" lon="7.86669"><ele>639.4</ele><time>2016-08-06T14:25:18Z</time></trkpt>
<trkpt lat="46.2985" lon="7.86667"><ele>639.2</ele><time>2016-08-06T14:25:19Z</time></trkpt>
<trkpt lat="46.29856" lon="7.86666"><ele>639.4</ele><time>2016-08-06T14:25:20Z</time></trkpt>
<trkpt lat="46.29869" lon="7.86662"><ele>640</ele><time>2016-08-06T14:25:22Z</time></trkpt>
<trkpt lat="46.29882" lon="7.86659"><ele>640.6</ele><time>2016-08-06T14:25:24Z</time></trkpt>
<trkpt lat="46.29888" lon="7.86658"><ele>641</ele><time>2016-08-06T14:25:25Z</time></trkpt>
<trkpt lat="46.29893" lon="7.86658"><ele>641.4</ele><time>2016-08-06T14:25:26Z</time></trkpt>
<trkpt lat="46.29904" lon="7.86657"><ele>642</ele><time>2016-08-06T14:25:28Z</time></trkpt>
<trkpt lat="46.29914" lon="7.86657"><ele>642.6</ele><time>2016-08-06T14:25:30Z</time></trkpt>
<trkpt lat="46.29925" lon="7.86656"><ele>642.6</ele><time>2016-08-06T14:25:32Z</time></trkpt>
<trkpt lat="46.29935" lon="7.86656"><ele>642.6</ele><time>2016-08-06T14:25:34Z</time></trkpt>
<trkpt lat="46.29945" lon="7.86653"><ele>642.6</ele><time>2016-08-06T14:25:36Z</time></trkpt>
<trkpt lat="46.29955" lon="7.86651"><ele>642.6</ele><time>2016-08-06T14:25:38Z</time></trkpt>
<trkpt lat="46.29965" lon="7.86649"><ele>642.6</ele><time>2016-08-06T14:25:40Z</time></trkpt>
<trkpt lat="46.2997" lon="7.86648"><ele>642.6</ele><time>2016-08-06T14:25:41Z</time></trkpt>
<trkpt lat="46.29975" lon="7.86648"><ele>642.2</ele><time>2016-08-06T14:25:42Z</time></trkpt>
<trkpt lat="46.29985" lon="7.86648"><ele>641.4</ele><time>2016-08-06T14:25:44Z</time></trkpt>
<trkpt lat="46.29994" lon="7.86648"><ele>640.4</ele><time>2016-08-06T14:25:46Z</time></trkpt>
<trkpt lat="46.29999" lon="7.86647"><ele>640.2</ele><time>2016-08-06T14:25:47Z</time></trkpt>
<trkpt lat="46.30004" lon="7.86647"><ele>640.4</ele><time>2016-08-06T14:25:48Z</time></trkpt>
<trkpt lat="46.30008" lon="7.86648"><ele>640.4</ele><time>2016-08-06T14:25:49Z</time></trkpt>
<trkpt lat="46.30012" lon="7.86652"><ele>640.6</ele><time>2016-08-06T14:25:50Z</time></trkpt>
<trkpt lat="46.30019" lon="7.86659"><ele>640.8</ele><time>2016-08-06T14:25:52Z</time></trkpt>
<trkpt lat="46.30023" lon="7.86662"><ele>641</ele><time>2016-08-06T14:25:53Z</time></trkpt>
<trkpt lat="46.30028" lon="7.86661"><ele>641.4</ele><time>2016-08-06T14:25:54Z</time></trkpt>
<trkpt lat="46.30038" lon="7.86658"><ele>642</ele><time>2016-08-06T14:25:56Z</time></trkpt>
<trkpt lat="46.30046" lon="7.86652"><ele>642.4</ele><time>2016-08-06T14:25:58Z</time></trkpt>
<trkpt lat="46.30051" lon="7.8665"><ele>642.8</ele><time>2016-08-06T14:25:59Z</time></trkpt>
<trkpt lat="46.30056" lon="7.8665"><ele>643</ele><time>2016-08-06T14:26:00Z</time></trkpt>
<trkpt lat="46.30066" lon="7.86649"><ele>643.6</ele><time>2016-08-06T14:26:02Z</time></trkpt>
<trkpt lat="46.30071" lon="7.86649"><ele>643.8</ele><time>2016-08-06T14:26:03Z</time></trkpt>
<trkpt lat="46.30076" lon="7.86648"><ele>643.6</ele><time>2016-08-06T14:26:04Z</time></trkpt>
<trkpt lat="46.30086" lon="7.86647"><ele>643</ele><time>2016-08-06T14:26:06Z</time></trkpt>
<trkpt lat="46.30096" lon="7.86647"><ele>642.6</ele><time>2016-08-06T14:26:08Z</time></trkpt>
<trkpt lat="46.30101" lon="7.86646"><ele>642.4</ele><time>2016-08-06T14:26:09Z</time></trkpt>
<trkpt lat="46.30105" lon="7.86646"><ele>642.2</ele><time>2016-08-06T14:26:10Z</time></trkpt>
<trkpt lat="46.30114" lon="7.86645"><ele>641.8</ele><time>2016-08-06T14:26:12Z</time></trkpt>
<trkpt lat="46.30123" lon="7.86644"><ele>641.4</ele><time>2016-08-06T14:26:14Z</time></trkpt>
<trkpt lat="46.30133" lon="7.86643"><ele>641.4</ele><time>2016-08-06T14:26:16Z</time></trkpt>
<trkpt lat="46.30142" lon="7.86642"><ele>641.2</ele><time>2016-08-06T14:26:18Z</time></trkpt>
<trkpt lat="46.30146" lon="7.86642"><ele>641.2</ele><time>2016-08-06T14:26:19Z</time></trkpt>
<trkpt lat="46.3015" lon="7.86642"><ele>641.2</ele><time>2016-08-06T14:26:20Z</time></trkpt>
<trkpt lat="46.30158" lon="7.86644"><ele>640.8</ele><time>2016-08-06T14:26:22Z</time></trkpt>
<trkpt lat="46.30162" lon="7.86646"><ele>640.8</ele><time>2016-08-06T14:26:23Z</time></trkpt>
<trkpt lat="46.30163" lon="7.86652"><ele>640.6</ele><time>2016-08-06T14:26:24Z</time></trkpt>
<trkpt lat="46.30165" lon="7.86665"><ele>640.4</ele><time>2016-08-06T14:26:26Z</time></trkpt>
<trkpt lat="46.30162" lon="7.86682"><ele>640.6</ele><time>2016-08-06T14:26:28Z</time></trkpt>
<trkpt lat="46.30159" lon="7.867"><ele>640.8</ele><time>2016-08-06T14:26:30Z</time></trkpt>
<trkpt lat="46.30157" lon="7.86717"><ele>641</ele><time>2016-08-06T14:26:32Z</time></trkpt>
<trkpt lat="46.30154" lon="7.86735"><ele>641.2</ele><time>2016-08-06T14:26:34Z</time></trkpt>
<trkpt lat="46.30152" lon="7.86754"><ele>641.4</ele><time>2016-08-06T14:26:36Z</time></trkpt>
<trkpt lat="46.30149" lon="7.86774"><ele>641.6</ele><time>2016-08-06T14:26:38Z</time></trkpt>
<trkpt lat="46.30147" lon="7.86793"><ele>641.8</ele><time>2016-08-06T14:26:40Z</time></trkpt>
<trkpt lat="46.30145" lon="7.86803"><ele>641.8</ele><time>2016-08-06T14:26:41Z</time></trkpt>
<trkpt lat="46.30144" lon="7.86812"><ele>642</ele><time>2016-08-06T14:26:42Z</time></trkpt>
<trkpt lat="46.30142" lon="7.86829"><ele>642.2</ele><time>2016-08-06T14:26:44Z</time></trkpt>
<trkpt lat="46.3014" lon="7.86846"><ele>642.4</ele><time>2016-08-06T14:26:46Z</time></trkpt>
<trkpt lat="46.30137" lon="7.86863"><ele>642.6</ele><time>2016-08-06T14:26:48Z</time></trkpt>
<trkpt lat="46.30133" lon="7.8688"><ele>642.8</ele><time>2016-08-06T14:26:50Z</time></trkpt>
<trkpt lat="46.3013" lon="7.86896"><ele>642.8</ele><time>2016-08-06T14:26:52Z</time></trkpt>
<trkpt lat="46.30127" lon="7.86913"><ele>643</ele><time>2016-08-06T14:26:54Z</time></trkpt>
<trkpt lat="46.30126" lon="7.86927"><ele>643.2</ele><time>2016-08-06T14:26:56Z</time></trkpt>
<trkpt lat="46.30124" lon="7.86942"><ele>643.4</ele><time>2016-08-06T14:26:58Z</time></trkpt>
<trkpt lat="46.30123" lon="7.86956"><ele>643.6</ele><time>2016-08-06T14:27:00Z</time></trkpt>
<trkpt lat="46.30121" lon="7.86971"><ele>643.8</ele><time>2016-08-06T14:27:02Z</time></trkpt>
<trkpt lat="46.30121" lon="7.86978"><ele>644</ele><time>2016-08-06T14:27:03Z</time></trkpt>
<trkpt lat="46.30121" lon="7.86985"><ele>644</ele><time>2016-08-06T14:27:04Z</time></trkpt>
<trkpt lat="46.30123" lon="7.86998"><ele>644.2</ele><time>2016-08-06T14:27:06Z</time></trkpt>
<trkpt lat="46.30124" lon="7.87011"><ele>644.4</ele><time>2016-08-06T14:27:08Z</time></trkpt>
<trkpt lat="46.30124" lon="7.87018"><ele>644.6</ele><time>2016-08-06T14:27:09Z</time></trkpt>
<trkpt lat="46.30125" lon="7.87024"><ele>644.8</ele><time>2016-08-06T14:27:10Z</time></trkpt>
<trkpt lat="46.30126" lon="7.87036"><ele>645.2</ele><time>2016-08-06T14:27:12Z</time></trkpt>
<trkpt lat="46.30124" lon="7.87043"><ele>645.4</ele><time>2016-08-06T14:27:14Z</time></trkpt>
<trkpt lat="46.30125" lon="7.87046"><ele>645.6</ele><time>2016-08-06T14:27:15Z</time></trkpt>
<trkpt lat="46.30128" lon="7.87048"><ele>645.8</ele><time>2016-08-06T14:27:16Z</time></trkpt>
<trkpt lat="46.30134" lon="7.87051"><ele>646.2</ele><time>2016-08-06T14:27:18Z</time></trkpt>
<trkpt lat="46.30137" lon="7.87054"><ele>646.4</ele><time>2016-08-06T14:27:19Z</time></trkpt>
<trkpt lat="46.3014" lon="7.8706"><ele>646.6</ele><time>2016-08-06T14:27:20Z</time></trkpt>
<trkpt lat="46.30147" lon="7.87071"><ele>647</ele><time>2016-08-06T14:27:22Z</time></trkpt>
<trkpt lat="46.30154" lon="7.87082"><ele>647.4</ele><time>2016-08-06T14:27:24Z</time></trkpt>
<trkpt lat="46.3016" lon="7.87093"><ele>647.6</ele><time>2016-08-06T14:27:26Z</time></trkpt>
<trkpt lat="46.30167" lon="7.87104"><ele>647.6</ele><time>2016-08-06T14:27:28Z</time></trkpt>
<trkpt lat="46.30174" lon="7.87114"><ele>647.6</ele><time>2016-08-06T14:27:30Z</time></trkpt>
<trkpt lat="46.30181" lon="7.87124"><ele>647.6</ele><time>2016-08-06T14:27:32Z</time></trkpt>
<trkpt lat="46.30184" lon="7.8713"><ele>647.8</ele><time>2016-08-06T14:27:33Z</time></trkpt>
<trkpt lat="46.30187" lon="7.87136"><ele>647.8</ele><time>2016-08-06T14:27:34Z</time></trkpt>
<trkpt lat="46.30194" lon="7.87147"><ele>648.2</ele><time>2016-08-06T14:27:36Z</time></trkpt>
<trkpt lat="46.302" lon="7.87147"><ele>648.2</ele><time>2016-08-06T14:27:37Z</time></trkpt>
<trkpt lat="46.30204" lon="7.87144"><ele>648.4</ele><time>2016-08-06T14:27:38Z</time></trkpt>
<trkpt lat="46.30214" lon="7.87138"><ele>648.6</ele><time>2016-08-06T14:27:40Z</time></trkpt>
<trkpt lat="46.30224" lon="7.87132"><ele>648.8</ele><time>2016-08-06T14:27:42Z</time></trkpt>
<trkpt lat="46.30229" lon="7.8713"><ele>648.4</ele><time>2016-08-06T14:27:43Z</time></trkpt>
<trkpt lat="46.30235" lon="7.87129"><ele>648.2</ele><time>2016-08-06T14:27:44Z</time></trkpt>
<trkpt lat="46.30247" lon="7.87127"><ele>647.8</ele><time>2016-08-06T14:27:46Z</time></trkpt>
<trkpt lat="46.30253" lon="7.87126"><ele>647.4</ele><time>2016-08-06T14:27:47Z</time></trkpt>
<trkpt lat="46.30259" lon="7.87124"><ele>647.4</ele><time>2016-08-06T14:27:48Z</time></trkpt>
<trkpt lat="46.30271" lon="7.87122"><ele>647</ele><time>2016-08-06T14:27:50Z</time></trkpt>
<trkpt lat="46.30277" lon="7.87121"><ele>647</ele><time>2016-08-06T14:27:51Z</time></trkpt>
<trkpt lat="46.30283" lon="7.87122"><ele>646.8</ele><time>2016-08-06T14:27:52Z</time></trkpt>
<trkpt lat="46.30296" lon="7.87123"><ele>646.6</ele><time>2016-08-06T14:27:54Z</time></trkpt>
<trkpt lat="46.30302" lon="7.87121"><ele>646.4</ele><time>2016-08-06T14:27:55Z</time></trkpt>
<trkpt lat="46.30305" lon="7.87116"><ele>646.4</ele><time>2016-08-06T14:27:56Z</time></trkpt>
<trkpt lat="46.3031" lon="7.87105"><ele>646</ele><time>2016-08-06T14:27:58Z</time></trkpt>
<trkpt lat="46.30307" lon="7.87098"><ele>645.8</ele><time>2016-08-06T14:28:00Z</time></trkpt>
<trkpt lat="46.30304" lon="7.87091"><ele>645.6</ele><time>2016-08-06T14:28:02Z</time></trkpt>
<trkpt lat="46.30301" lon="7.87084"><ele>645.2</ele><time>2016-08-06T14:28:04Z</time></trkpt>
<trkpt lat="46.30297" lon="7.87077"><ele>645</ele><time>2016-08-06T14:28:06Z</time></trkpt>
<trkpt lat="46.30294" lon="7.87071"><ele>644.8</ele><time>2016-08-06T14:28:08Z</time></trkpt>
<trkpt lat="46.30291" lon="7.87064"><ele>644.6</ele><time>2016-08-06T14:28:10Z</time></trkpt>
<trkpt lat="46.30288" lon="7.87057"><ele>644.4</ele><time>2016-08-06T14:28:12Z</time></trkpt>
<trkpt lat="46.30287" lon="7.87054"><ele>644.2</ele><time>2016-08-06T14:28:13Z</time></trkpt>
<trkpt lat="46.30286" lon="7.87053"><ele>644.2</ele><time>2016-08-06T14:28:14Z</time></trkpt>
<trkpt lat="46.30285" lon="7.87052"><ele>644</ele><time>2016-08-06T14:28:16Z</time></trkpt>
<trkpt lat="46.30285" lon="7.8705"><ele>643.8</ele><time>2016-08-06T14:28:18Z</time></trkpt>
<trkpt lat="46.30284" lon="7.87048"><ele>643.6</ele><time>2016-08-06T14:28:20Z</time></trkpt>
<trkpt lat="46.30283" lon="7.87047"><ele>643.4</ele><time>2016-08-06T14:28:22Z</time></trkpt>
<trkpt lat="46.30282" lon="7.87045"><ele>643.2</ele><time>2016-08-06T14:28:24Z</time></trkpt>
<trkpt lat="46.30282" lon="7.87043"><ele>643.2</ele><time>2016-08-06T14:28:26Z</time></trkpt>
<trkpt lat="46.30281" lon="7.8704"><ele>643.2</ele><time>2016-08-06T14:28:28Z</time></trkpt>
<trkpt lat="46.30282" lon="7.87026"><ele>643</ele><time>2016-08-06T14:28:30Z</time></trkpt>
<trkpt lat="46.30282" lon="7.87011"><ele>643</ele><time>2016-08-06T14:28:32Z</time></trkpt>
<trkpt lat="46.30283" lon="7.86997"><ele>643</ele><time>2016-08-06T14:28:34Z</time></trkpt>
<trkpt lat="46.30283" lon="7.86983"><ele>642.8</ele><time>2016-08-06T14:28:36Z</time></trkpt>
<trkpt lat="46.30284" lon="7.86968"><ele>642.8</ele><time>2016-08-06T14:28:38Z</time></trkpt>
<trkpt lat="46.30285" lon="7.86952"><ele>642.6</ele><time>2016-08-06T14:28:40Z</time></trkpt>
<trkpt lat="46.30286" lon="7.86937"><ele>642.6</ele><time>2016-08-06T14:28:42Z</time></trkpt>
<trkpt lat="46.30287" lon="7.86921"><ele>642.6</ele><time>2016-08-06T14:28:44Z</time></trkpt>
<trkpt lat="46.30288" lon="7.86906"><ele>642.4</ele><time>2016-08-06T14:28:46Z</time></trkpt>
<trkpt lat="46.30288" lon="7.86898"><ele>642.4</ele><time>2016-08-06T14:28:47Z</time></trkpt>
<trkpt lat="46.30288" lon="7.86892"><ele>642.4</ele><time>2016-08-06T14:28:48Z</time></trkpt>
<trkpt lat="46.30288" lon="7.86878"><ele>642.4</ele><time>2016-08-06T14:28:50Z</time></trkpt>
<trkpt lat="46.3029" lon="7.86835"><ele>643.8</ele><time>2016-08-06T14:28:53Z</time></trkpt>
<trkpt lat="46.3029" lon="7.86835"><ele>643.8</ele><time>2016-08-06T14:32:15Z</time></trkpt>
<trkpt lat="46.30293" lon="7.86804"><ele>645.4</ele><time>2016-08-06T14:32:16Z</time></trkpt>
<trkpt lat="46.30293" lon="7.86804"><ele>645.4</ele><time>2016-08-06T14:32:18Z</time></trkpt>
<trkpt lat="46.30293" lon="7.86802"><ele>645.4</ele><time>2016-08-06T14:32:20Z</time></trkpt>
<trkpt lat="46.30294" lon="7.86787"><ele>645.4</ele><time>2016-08-06T14:32:22Z</time></trkpt>
<trkpt lat="46.30294" lon="7.86772"><ele>645.6</ele><time>2016-08-06T14:32:24Z</time></trkpt>
<trkpt lat="46.30294" lon="7.86758"><ele>645.6</ele><time>2016-08-06T14:32:26Z</time></trkpt>
<trkpt lat="46.30295" lon="7.86743"><ele>645.6</ele><time>2016-08-06T14:32:28Z</time></trkpt>
<trkpt lat="46.30295" lon="7.86728"><ele>645.6</ele><time>2016-08-06T14:32:30Z</time></trkpt>
<trkpt lat="46.30294" lon="7.86711"><ele>645.6</ele><time>2016-08-06T14:32:32Z</time></trkpt>
<trkpt lat="46.30294" lon="7.86694"><ele>645.6</ele><time>2016-08-06T14:32:34Z</time></trkpt>
<trkpt lat="46.30293" lon="7.86677"><ele>645.6</ele><time>2016-08-06T14:32:36Z</time></trkpt>
<trkpt lat="46.30293" lon="7.86661"><ele>645.4</ele><time>2016-08-06T14:32:38Z</time></trkpt>
<trkpt lat="46.30292" lon="7.86645"><ele>645.2</ele><time>2016-08-06T14:32:40Z</time></trkpt>
<trkpt lat="46.30292" lon="7.8663"><ele>645</ele><time>2016-08-06T14:32:42Z</time></trkpt>
<trkpt lat="46.30291" lon="7.86614"><ele>645</ele><time>2016-08-06T14:32:44Z</time></trkpt>
<trkpt lat="46.30291" lon="7.86599"><ele>644.8</ele><time>2016-08-06T14:32:46Z</time></trkpt>
<trkpt lat="46.30291" lon="7.86591"><ele>644.8</ele><time>2016-08-06T14:32:47Z</time></trkpt>
<trkpt lat="46.30291" lon="7.86585"><ele>644.6</ele><time>2016-08-06T14:32:48Z</time></trkpt>
<trkpt lat="46.30292" lon="7.86573"><ele>644.6</ele><time>2016-08-06T14:32:50Z</time></trkpt>
<trkpt lat="46.30293" lon="7.8656"><ele>644.4</ele><time>2016-08-06T14:32:52Z</time></trkpt>
<trkpt lat="46.30294" lon="7.86548"><ele>644.2</ele><time>2016-08-06T14:32:54Z</time></trkpt>
<trkpt lat="46.30295" lon="7.86536"><ele>644</ele><time>2016-08-06T14:32:56Z</time></trkpt>
<trkpt lat="46.30297" lon="7.86531"><ele>644</ele><time>2016-08-06T14:32:57Z</time></trkpt>
<trkpt lat="46.303" lon="7.86532"><ele>644</ele><time>2016-08-06T14:32:58Z</time></trkpt>
<trkpt lat="46.30306" lon="7.86533"><ele>643.8</ele><time>2016-08-06T14:33:00Z</time></trkpt>
<trkpt lat="46.30313" lon="7.86534"><ele>643.6</ele><time>2016-08-06T14:33:02Z</time></trkpt>
<trkpt lat="46.30319" lon="7.86535"><ele>643.4</ele><time>2016-08-06T14:33:04Z</time></trkpt>
<trkpt lat="46.30325" lon="7.86536"><ele>643.4</ele><time>2016-08-06T14:33:06Z</time></trkpt>
<trkpt lat="46.30332" lon="7.86538"><ele>643.2</ele><time>2016-08-06T14:33:08Z</time></trkpt>
<trkpt lat="46.30338" lon="7.86539"><ele>643</ele><time>2016-08-06T14:33:10Z</time></trkpt>
<trkpt lat="46.30345" lon="7.8654"><ele>643</ele><time>2016-08-06T14:33:12Z</time></trkpt>
<trkpt lat="46.30354" lon="7.86541"><ele>642.8</ele><time>2016-08-06T14:33:14Z</time></trkpt>
<trkpt lat="46.30363" lon="7.86543"><ele>642.6</ele><time>2016-08-06T14:33:16Z</time></trkpt>
<trkpt lat="46.30372" lon="7.86544"><ele>642.4</ele><time>2016-08-06T14:33:18Z</time></trkpt>
<trkpt lat="46.30381" lon="7.86546"><ele>642.4</ele><time>2016-08-06T14:33:20Z</time></trkpt>
<trkpt lat="46.3039" lon="7.86547"><ele>642.2</ele><time>2016-08-06T14:33:22Z</time></trkpt>
<trkpt lat="46.30399" lon="7.86545"><ele>642</ele><time>2016-08-06T14:33:24Z</time></trkpt>
<trkpt lat="46.30403" lon="7.86544"><ele>642</ele><time>2016-08-06T14:33:25Z</time></trkpt>
<trkpt lat="46.30406" lon="7.8654"><ele>641.8</ele><time>2016-08-06T14:33:26Z</time></trkpt>
<trkpt lat="46.30409" lon="7.86535"><ele>641.8</ele><time>2016-08-06T14:33:27Z</time></trkpt>
<trkpt lat="46.30411" lon="7.86528"><ele>641.8</ele><time>2016-08-06T14:33:28Z</time></trkpt>
<trkpt lat="46.30415" lon="7.86515"><ele>641.6</ele><time>2016-08-06T14:33:30Z</time></trkpt>
<trkpt lat="46.30416" lon="7.86508"><ele>641.6</ele><time>2016-08-06T14:33:31Z</time></trkpt>
<trkpt lat="46.30416" lon="7.86501"><ele>641.4</ele><time>2016-08-06T14:33:32Z</time></trkpt>
<trkpt lat="46.30417" lon="7.86487"><ele>641.4</ele><time>2016-08-06T14:33:34Z</time></trkpt>
<trkpt lat="46.30418" lon="7.86473"><ele>641.2</ele><time>2016-08-06T14:33:36Z</time></trkpt>
<trkpt lat="46.30419" lon="7.8646"><ele>641</ele><time>2016-08-06T14:33:38Z</time></trkpt>
<trkpt lat="46.30419" lon="7.86446"><ele>640.8</ele><time>2016-08-06T14:33:40Z</time></trkpt>
<trkpt lat="46.3042" lon="7.86439"><ele>640.8</ele><time>2016-08-06T14:33:41Z</time></trkpt>
<trkpt lat="46.3042" lon="7.86431"><ele>641</ele><time>2016-08-06T14:33:42Z</time></trkpt>
<trkpt lat="46.3042" lon="7.86416"><ele>641.4</ele><time>2016-08-06T14:33:44Z</time></trkpt>
<trkpt lat="46.3042" lon="7.864"><ele>641.8</ele><time>2016-08-06T14:33:46Z</time></trkpt>
<trkpt lat="46.3042" lon="7.86393"><ele>642</ele><time>2016-08-06T14:33:47Z</time></trkpt>
<trkpt lat="46.3042" lon="7.86385"><ele>642</ele><time>2016-08-06T14:33:48Z</time></trkpt>
<trkpt lat="46.3042" lon="7.86369"><ele>641.8</ele><time>2016-08-06T14:33:50Z</time></trkpt>
<trkpt lat="46.3042" lon="7.86352"><ele>641.8</ele><time>2016-08-06T14:33:52Z</time></trkpt>
<trkpt lat="46.30419" lon="7.86335"><ele>641.8</ele><time>2016-08-06T14:33:54Z</time></trkpt>
<trkpt lat="46.30419" lon="7.86318"><ele>641.8</ele><time>2016-08-06T14:33:56Z</time></trkpt>
<trkpt lat="46.30419" lon="7.863"><ele>641.8</ele><time>2016-08-06T14:33:58Z</time></trkpt>
<trkpt lat="46.30419" lon="7.86283"><ele>641.6</ele><time>2016-08-06T14:34:00Z</time></trkpt>
<trkpt lat="46.30419" lon="7.86267"><ele>641.6</ele><time>2016-08-06T14:34:02Z</time></trkpt>
<trkpt lat="46.30418" lon="7.8625"><ele>641.4</ele><time>2016-08-06T14:34:04Z</time></trkpt>
<trkpt lat="46.30419" lon="7.86233"><ele>641.4</ele><time>2016-08-06T14:34:06Z</time></trkpt>
<trkpt lat="46.30424" lon="7.86219"><ele>641.2</ele><time>2016-08-06T14:34:08Z</time></trkpt>
<trkpt lat="46.30426" lon="7.86212"><ele>641.2</ele><time>2016-08-06T14:34:09Z</time></trkpt>
<trkpt lat="46.30423" lon="7.86205"><ele>641.2</ele><time>2016-08-06T14:34:10Z</time></trkpt>
<trkpt lat="46.30417" lon="7.86192"><ele>641</ele><time>2016-08-06T14:34:12Z</time></trkpt>
<trkpt lat="46.30411" lon="7.86178"><ele>640.8</ele><time>2016-08-06T14:34:14Z</time></trkpt>
<trkpt lat="46.30405" lon="7.86165"><ele>640.8</ele><time>2016-08-06T14:34:16Z</time></trkpt>
<trkpt lat="46.30399" lon="7.86151"><ele>640.6</ele><time>2016-08-06T14:34:18Z</time></trkpt>
<trkpt lat="46.30393" lon="7.86136"><ele>640.6</ele><time>2016-08-06T14:34:20Z</time></trkpt>
<trkpt lat="46.30387" lon="7.8612"><ele>640.4</ele><time>2016-08-06T14:34:22Z</time></trkpt>
<trkpt lat="46.30381" lon="7.86104"><ele>640.4</ele><time>2016-08-06T14:34:24Z</time></trkpt>
<trkpt lat="46.30376" lon="7.86088"><ele>640.2</ele><time>2016-08-06T14:34:26Z</time></trkpt>
<trkpt lat="46.30375" lon="7.86071"><ele>640.6</ele><time>2016-08-06T14:34:28Z</time></trkpt>
<trkpt lat="46.30373" lon="7.86054"><ele>641</ele><time>2016-08-06T14:34:30Z</time></trkpt>
<trkpt lat="46.30372" lon="7.86037"><ele>641.4</ele><time>2016-08-06T14:34:32Z</time></trkpt>
<trkpt lat="46.3037" lon="7.8602"><ele>641.4</ele><time>2016-08-06T14:34:34Z</time></trkpt>
<trkpt lat="46.30369" lon="7.86003"><ele>641.4</ele><time>2016-08-06T14:34:36Z</time></trkpt>
<trkpt lat="46.30367" lon="7.85987"><ele>641.4</ele><time>2016-08-06T14:34:38Z</time></trkpt>
<trkpt lat="46.30366" lon="7.8597"><ele>641.4</ele><time>2016-08-06T14:34:40Z</time></trkpt>
<trkpt lat="46.30364" lon="7.85954"><ele>641.4</ele><time>2016-08-06T14:34:42Z</time></trkpt>
<trkpt lat="46.30363" lon="7.85938"><ele>641.4</ele><time>2016-08-06T14:34:44Z</time></trkpt>
<trkpt lat="46.30362" lon="7.85922"><ele>641.4</ele><time>2016-08-06T14:34:46Z</time></trkpt>
<trkpt lat="46.30361" lon="7.85906"><ele>641.4</ele><time>2016-08-06T14:34:48Z</time></trkpt>
<trkpt lat="46.3036" lon="7.85891"><ele>641.4</ele><time>2016-08-06T14:34:50Z</time></trkpt>
<trkpt lat="46.3036" lon="7.85884"><ele>641.4</ele><time>2016-08-06T14:34:51Z</time></trkpt>
<trkpt lat="46.30358" lon="7.85879"><ele>641.4</ele><time>2016-08-06T14:34:52Z</time></trkpt>
<trkpt lat="46.30354" lon="7.8587"><ele>641.4</ele><time>2016-08-06T14:34:54Z</time></trkpt>
<trkpt lat="46.30349" lon="7.85866"><ele>641.4</ele><time>2016-08-06T14:34:56Z</time></trkpt>
<trkpt lat="46.30344" lon="7.85863"><ele>641.4</ele><time>2016-08-06T14:34:58Z</time></trkpt>
<trkpt lat="46.30339" lon="7.85859"><ele>641.4</ele><time>2016-08-06T14:35:00Z</time></trkpt>
<trkpt lat="46.30334" lon="7.85855"><ele>641.4</ele><time>2016-08-06T14:35:02Z</time></trkpt>
<trkpt lat="46.30329" lon="7.85852"><ele>641.4</ele><time>2016-08-06T14:35:04Z</time></trkpt>
<trkpt lat="46.30324" lon="7.85848"><ele>641.4</ele><time>2016-08-06T14:35:06Z</time></trkpt>
<trkpt lat="46.30319" lon="7.85845"><ele>641.4</ele><time>2016-08-06T14:35:08Z</time></trkpt>
<trkpt lat="46.30313" lon="7.85841"><ele>641.4</ele><time>2016-08-06T14:35:10Z</time></trkpt>
<trkpt lat="46.30311" lon="7.8584"><ele>641.4</ele><time>2016-08-06T14:35:11Z</time></trkpt>
<trkpt lat="46.30309" lon="7.85838"><ele>641.4</ele><time>2016-08-06T14:35:12Z</time></trkpt>
<trkpt lat="46.30304" lon="7.85835"><ele>641.6</ele><time>2016-08-06T14:35:14Z</time></trkpt>
<trkpt lat="46.303" lon="7.85833"><ele>641.6</ele><time>2016-08-06T14:35:16Z</time></trkpt>
<trkpt lat="46.30296" lon="7.85831"><ele>641.6</ele><time>2016-08-06T14:35:18Z</time></trkpt>
<trkpt lat="46.303" lon="7.85833"><ele>641.6</ele><time>2016-08-06T14:35:20Z</time></trkpt>
<trkpt lat="46.30304" lon="7.85835"><ele>641.6</ele><time>2016-08-06T14:35:22Z</time></trkpt>
<trkpt lat="46.30308" lon="7.85837"><ele>641.6</ele><time>2016-08-06T14:35:24Z</time></trkpt>
<trkpt lat="46.30312" lon="7.85839"><ele>641.6</ele><time>2016-08-06T14:35:26Z</time></trkpt>
<trkpt lat="46.30316" lon="7.85842"><ele>641.6</ele><time>2016-08-06T14:35:28Z</time></trkpt>
<trkpt lat="46.30319" lon="7.85844"><ele>641.6</ele><time>2016-08-06T14:35:30Z</time></trkpt>
<trkpt lat="46.30323" lon="7.85846"><ele>641.6</ele><time>2016-08-06T14:35:32Z</time></trkpt>
<trkpt lat="46.30327" lon="7.85848"><ele>641.6</ele><time>2016-08-06T14:35:34Z</time></trkpt>
<trkpt lat="46.30331" lon="7.8585"><ele>641.6</ele><time>2016-08-06T14:35:36Z</time></trkpt>
<trkpt lat="46.30335" lon="7.85852"><ele>641.6</ele><time>2016-08-06T14:35:38Z</time></trkpt>
<trkpt lat="46.30339" lon="7.85855"><ele>641.6</ele><time>2016-08-06T14:35:40Z</time></trkpt>
<trkpt lat="46.30345" lon="7.85857"><ele>641.6</ele><time>2016-08-06T14:35:42Z</time></trkpt>
<trkpt lat="46.30349" lon="7.85857"><ele>641.6</ele><time>2016-08-06T14:35:43Z</time></trkpt>
<trkpt lat="46.30352" lon="7.85852"><ele>641.6</ele><time>2016-08-06T14:35:44Z</time></trkpt>
<trkpt lat="46.30359" lon="7.85843"><ele>641.6</ele><time>2016-08-06T14:35:46Z</time></trkpt>
<trkpt lat="46.30362" lon="7.85838"><ele>641.6</ele><time>2016-08-06T14:35:47Z</time></trkpt>
<trkpt lat="46.30364" lon="7.85832"><ele>641.6</ele><time>2016-08-06T14:35:48Z</time></trkpt>
<trkpt lat="46.30368" lon="7.85819"><ele>641.6</ele><time>2016-08-06T14:35:50Z</time></trkpt>
<trkpt lat="46.30371" lon="7.85807"><ele>641.6</ele><time>2016-08-06T14:35:52Z</time></trkpt>
<trkpt lat="46.30375" lon="7.85794"><ele>641.6</ele><time>2016-08-06T14:35:54Z</time></trkpt>
<trkpt lat="46.30379" lon="7.85782"><ele>641.6</ele><time>2016-08-06T14:35:56Z</time></trkpt>
<trkpt lat="46.30381" lon="7.85775"><ele>641.6</ele><time>2016-08-06T14:35:57Z</time></trkpt>
<trkpt lat="46.30383" lon="7.85767"><ele>641.6</ele><time>2016-08-06T14:35:58Z</time></trkpt>
<trkpt lat="46.30388" lon="7.85752"><ele>641.6</ele><time>2016-08-06T14:36:00Z</time></trkpt>
<trkpt lat="46.30393" lon="7.85737"><ele>641.6</ele><time>2016-08-06T14:36:02Z</time></trkpt>
<trkpt lat="46.30398" lon="7.85721"><ele>641.6</ele><time>2016-08-06T14:36:04Z</time></trkpt>
<trkpt lat="46.304" lon="7.85713"><ele>641.8</ele><time>2016-08-06T14:36:05Z</time></trkpt>
<trkpt lat="46.30403" lon="7.85706"><ele>641.8</ele><time>2016-08-06T14:36:06Z</time></trkpt>
<trkpt lat="46.30408" lon="7.85691"><ele>641.8</ele><time>2016-08-06T14:36:08Z</time></trkpt>
<trkpt lat="46.30414" lon="7.85676"><ele>641.8</ele><time>2016-08-06T14:36:10Z</time></trkpt>
<trkpt lat="46.30419" lon="7.8566"><ele>641.8</ele><time>2016-08-06T14:36:12Z</time></trkpt>
<trkpt lat="46.30422" lon="7.85653"><ele>641.8</ele><time>2016-08-06T14:36:13Z</time></trkpt>
<trkpt lat="46.30424" lon="7.85645"><ele>641.8</ele><time>2016-08-06T14:36:14Z</time></trkpt>
<trkpt lat="46.3043" lon="7.85629"><ele>641.8</ele><time>2016-08-06T14:36:16Z</time></trkpt>
<trkpt lat="46.30435" lon="7.85613"><ele>641.8</ele><time>2016-08-06T14:36:18Z</time></trkpt>
<trkpt lat="46.30441" lon="7.85597"><ele>641.8</ele><time>2016-08-06T14:36:20Z</time></trkpt>
<trkpt lat="46.30443" lon="7.85588"><ele>641.8</ele><time>2016-08-06T14:36:21Z</time></trkpt>
<trkpt lat="46.30446" lon="7.8558"><ele>641.8</ele><time>2016-08-06T14:36:22Z</time></trkpt>
<trkpt lat="46.30452" lon="7.85563"><ele>641.8</ele><time>2016-08-06T14:36:24Z</time></trkpt>
<trkpt lat="46.30457" lon="7.85546"><ele>641.8</ele><time>2016-08-06T14:36:26Z</time></trkpt>
<trkpt lat="46.30463" lon="7.8553"><ele>641.8</ele><time>2016-08-06T14:36:28Z</time></trkpt>
<trkpt lat="46.30468" lon="7.85513"><ele>641.8</ele><time>2016-08-06T14:36:30Z</time></trkpt>
<trkpt lat="46.30473" lon="7.85497"><ele>641.8</ele><time>2016-08-06T14:36:32Z</time></trkpt>
<trkpt lat="46.30478" lon="7.85481"><ele>641.8</ele><time>2016-08-06T14:36:34Z</time></trkpt>
<trkpt lat="46.30483" lon="7.85465"><ele>641.8</ele><time>2016-08-06T14:36:36Z</time></trkpt>
<trkpt lat="46.30488" lon="7.85448"><ele>641.8</ele><time>2016-08-06T14:36:38Z</time></trkpt>
<trkpt lat="46.30494" lon="7.85432"><ele>641.8</ele><time>2016-08-06T14:36:40Z</time></trkpt>
<trkpt lat="46.30499" lon="7.85416"><ele>641.8</ele><time>2016-08-06T14:36:42Z</time></trkpt>
<trkpt lat="46.30505" lon="7.85399"><ele>641.8</ele><time>2016-08-06T14:36:44Z</time></trkpt>
<trkpt lat="46.30511" lon="7.85383"><ele>641.8</ele><time>2016-08-06T14:36:46Z</time></trkpt>
<trkpt lat="46.30517" lon="7.85366"><ele>641.8</ele><time>2016-08-06T14:36:48Z</time></trkpt>
<trkpt lat="46.30522" lon="7.8535"><ele>641.8</ele><time>2016-08-06T14:36:50Z</time></trkpt>
<trkpt lat="46.30525" lon="7.85342"><ele>641.8</ele><time>2016-08-06T14:36:51Z</time></trkpt>
<trkpt lat="46.30528" lon="7.85333"><ele>641.8</ele><time>2016-08-06T14:36:52Z</time></trkpt>
<trkpt lat="46.30533" lon="7.85317"><ele>641.8</ele><time>2016-08-06T14:36:54Z</time></trkpt>
<trkpt lat="46.30539" lon="7.85301"><ele>641.8</ele><time>2016-08-06T14:36:56Z</time></trkpt>
<trkpt lat="46.30544" lon="7.85284"><ele>642</ele><time>2016-08-06T14:36:58Z</time></trkpt>
<trkpt lat="46.30546" lon="7.85276"><ele>642</ele><time>2016-08-06T14:36:59Z</time></trkpt>
<trkpt lat="46.30549" lon="7.85268"><ele>642</ele><time>2016-08-06T14:37:00Z</time></trkpt>
<trkpt lat="46.30554" lon="7.85252"><ele>642</ele><time>2016-08-06T14:37:02Z</time></trkpt>
<trkpt lat="46.30559" lon="7.85235"><ele>642</ele><time>2016-08-06T14:37:04Z</time></trkpt>
<trkpt lat="46.30564" lon="7.85219"><ele>642</ele><time>2016-08-06T14:37:06Z</time></trkpt>
<trkpt lat="46.30567" lon="7.85211"><ele>642</ele><time>2016-08-06T14:37:07Z</time></trkpt>
<trkpt lat="46.30569" lon="7.85203"><ele>642</ele><time>2016-08-06T14:37:08Z</time></trkpt>
<trkpt lat="46.30575" lon="7.85186"><ele>642</ele><time>2016-08-06T14:37:10Z</time></trkpt>
<trkpt lat="46.3058" lon="7.8517"><ele>642</ele><time>2016-08-06T14:37:12Z</time></trkpt>
<trkpt lat="46.30585" lon="7.85153"><ele>642</ele><time>2016-08-06T14:37:14Z</time></trkpt>
<trkpt lat="46.30588" lon="7.85145"><ele>642</ele><time>2016-08-06T14:37:15Z</time></trkpt>
<trkpt lat="46.3059" lon="7.85136"><ele>642</ele><time>2016-08-06T14:37:16Z</time></trkpt>
<trkpt lat="46.30596" lon="7.85119"><ele>642</ele><time>2016-08-06T14:37:18Z</time></trkpt>
<trkpt lat="46.30602" lon="7.85101"><ele>642</ele><time>2016-08-06T14:37:20Z</time></trkpt>
<trkpt lat="46.30607" lon="7.85084"><ele>642</ele><time>2016-08-06T14:37:22Z</time></trkpt>
<trkpt lat="46.30612" lon="7.85066"><ele>642</ele><time>2016-08-06T14:37:24Z</time></trkpt>
<trkpt lat="46.30617" lon="7.85048"><ele>642</ele><time>2016-08-06T14:37:26Z</time></trkpt>
<trkpt lat="46.30623" lon="7.85029"><ele>642</ele><time>2016-08-06T14:37:28Z</time></trkpt>
<trkpt lat="46.30625" lon="7.85021"><ele>642</ele><time>2016-08-06T14:37:29Z</time></trkpt>
<trkpt lat="46.30627" lon="7.85013"><ele>642</ele><time>2016-08-06T14:37:30Z</time></trkpt>
<trkpt lat="46.30631" lon="7.84996"><ele>642</ele><time>2016-08-06T14:37:32Z</time></trkpt>
<trkpt lat="46.30635" lon="7.8498"><ele>642</ele><time>2016-08-06T14:37:34Z</time></trkpt>
<trkpt lat="46.30639" lon="7.84964"><ele>642</ele><time>2016-08-06T14:37:36Z</time></trkpt>
<trkpt lat="46.30642" lon="7.84956"><ele>642</ele><time>2016-08-06T14:37:37Z</time></trkpt>
<trkpt lat="46.30643" lon="7.84948"><ele>642</ele><time>2016-08-06T14:37:38Z</time></trkpt>
<trkpt lat="46.30647" lon="7.84931"><ele>642</ele><time>2016-08-06T14:37:40Z</time></trkpt>
<trkpt lat="46.30651" lon="7.84914"><ele>642</ele><time>2016-08-06T14:37:42Z</time></trkpt>
<trkpt lat="46.30655" lon="7.84897"><ele>642</ele><time>2016-08-06T14:37:44Z</time></trkpt>
<trkpt lat="46.30657" lon="7.84888"><ele>642</ele><time>2016-08-06T14:37:45Z</time></trkpt>
<trkpt lat="46.30659" lon="7.84879"><ele>642</ele><time>2016-08-06T14:37:46Z</time></trkpt>
<trkpt lat="46.30663" lon="7.84862"><ele>642</ele><time>2016-08-06T14:37:48Z</time></trkpt>
<trkpt lat="46.30667" lon="7.84844"><ele>642.2</ele><time>2016-08-06T14:37:50Z</time></trkpt>
<trkpt lat="46.3067" lon="7.84826"><ele>642.2</ele><time>2016-08-06T14:37:52Z</time></trkpt>
<trkpt lat="46.30673" lon="7.84809"><ele>642.2</ele><time>2016-08-06T14:37:54Z</time></trkpt>
<trkpt lat="46.30675" lon="7.84792"><ele>642.2</ele><time>2016-08-06T14:37:56Z</time></trkpt>
<trkpt lat="46.30678" lon="7.84776"><ele>642.2</ele><time>2016-08-06T14:37:58Z</time></trkpt>
<trkpt lat="46.3068" lon="7.84759"><ele>642.2</ele><time>2016-08-06T14:38:00Z</time></trkpt>
<trkpt lat="46.30683" lon="7.84742"><ele>642.2</ele><time>2016-08-06T14:38:02Z</time></trkpt>
<trkpt lat="46.30686" lon="7.84725"><ele>642.2</ele><time>2016-08-06T14:38:04Z</time></trkpt>
<trkpt lat="46.30688" lon="7.84709"><ele>642.2</ele><time>2016-08-06T14:38:06Z</time></trkpt>
<trkpt lat="46.30691" lon="7.84692"><ele>642.2</ele><time>2016-08-06T14:38:08Z</time></trkpt>
<trkpt lat="46.30693" lon="7.84674"><ele>642.2</ele><time>2016-08-06T14:38:10Z</time></trkpt>
<trkpt lat="46.30696" lon="7.84657"><ele>642.2</ele><time>2016-08-06T14:38:12Z</time></trkpt>
<trkpt lat="46.30698" lon="7.84639"><ele>642.2</ele><time>2016-08-06T14:38:14Z</time></trkpt>
<trkpt lat="46.30701" lon="7.84622"><ele>642.2</ele><time>2016-08-06T14:38:16Z</time></trkpt>
<trkpt lat="46.30702" lon="7.84605"><ele>642.2</ele><time>2016-08-06T14:38:18Z</time></trkpt>
<trkpt lat="46.30703" lon="7.84588"><ele>642.2</ele><time>2016-08-06T14:38:20Z</time></trkpt>
<trkpt lat="46.30705" lon="7.84571"><ele>642.2</ele><time>2016-08-06T14:38:22Z</time></trkpt>
<trkpt lat="46.30706" lon="7.84554"><ele>642.2</ele><time>2016-08-06T14:38:24Z</time></trkpt>
<trkpt lat="46.30707" lon="7.84538"><ele>642.2</ele><time>2016-08-06T14:38:26Z</time></trkpt>
<trkpt lat="46.30709" lon="7.84523"><ele>642.2</ele><time>2016-08-06T14:38:28Z</time></trkpt>
<trkpt lat="46.3071" lon="7.84507"><ele>642.2</ele><time>2016-08-06T14:38:30Z</time></trkpt>
<trkpt lat="46.30712" lon="7.84492"><ele>642.2</ele><time>2016-08-06T14:38:32Z</time></trkpt>
<trkpt lat="46.30712" lon="7.84484"><ele>642.2</ele><time>2016-08-06T14:38:33Z</time></trkpt>
<trkpt lat="46.30712" lon="7.84476"><ele>642.2</ele><time>2016-08-06T14:38:34Z</time></trkpt>
<trkpt lat="46.30713" lon="7.8446"><ele>642.2</ele><time>2016-08-06T14:38:36Z</time></trkpt>
<trkpt lat="46.30713" lon="7.84447"><ele>642.2</ele><time>2016-08-06T14:38:38Z</time></trkpt>
<trkpt lat="46.30713" lon="7.84446"><ele>642.2</ele><time>2016-08-06T14:38:40Z</time></trkpt>
<trkpt lat="46.30713" lon="7.84446"><ele>642.4</ele><time>2016-08-06T14:38:42Z</time></trkpt>
<trkpt lat="46.30713" lon="7.84446"><ele>642.4</ele><time>2016-08-06T14:38:44Z</time></trkpt>
<trkpt lat="46.30712" lon="7.84445"><ele>642.4</ele><time>2016-08-06T14:38:46Z</time></trkpt>
<trkpt lat="46.30712" lon="7.84445"><ele>642.4</ele><time>2016-08-06T14:38:48Z</time></trkpt>
<trkpt lat="46.30712" lon="7.84444"><ele>642.4</ele><time>2016-08-06T14:38:50Z</time></trkpt>
<trkpt lat="46.30712" lon="7.84444"><ele>642.4</ele><time>2016-08-06T14:38:52Z</time></trkpt>
<trkpt lat="46.30712" lon="7.84445"><ele>642.4</ele><time>2016-08-06T14:38:53Z</time></trkpt>
<trkpt lat="46.30712" lon="7.8445"><ele>642.4</ele><time>2016-08-06T14:38:54Z</time></trkpt>
<trkpt lat="46.30711" lon="7.84461"><ele>642.4</ele><time>2016-08-06T14:38:56Z</time></trkpt>
<trkpt lat="46.30711" lon="7.84471"><ele>642.4</ele><time>2016-08-06T14:38:58Z</time></trkpt>
<trkpt lat="46.30711" lon="7.84481"><ele>642.4</ele><time>2016-08-06T14:39:00Z</time></trkpt>
<trkpt lat="46.3071" lon="7.84491"><ele>642.4</ele><time>2016-08-06T14:39:02Z</time></trkpt>
<trkpt lat="46.3071" lon="7.84501"><ele>642.4</ele><time>2016-08-06T14:39:04Z</time></trkpt>
<trkpt lat="46.30709" lon="7.84512"><ele>642.4</ele><time>2016-08-06T14:39:06Z</time></trkpt>
<trkpt lat="46.30709" lon="7.84522"><ele>642.4</ele><time>2016-08-06T14:39:08Z</time></trkpt>
<trkpt lat="46.30708" lon="7.84533"><ele>642.4</ele><time>2016-08-06T14:39:10Z</time></trkpt>
<trkpt lat="46.30708" lon="7.84544"><ele>642.4</ele><time>2016-08-06T14:39:12Z</time></trkpt>
<trkpt lat="46.30708" lon="7.84555"><ele>642.4</ele><time>2016-08-06T14:39:14Z</time></trkpt>
<trkpt lat="46.30707" lon="7.84566"><ele>642.4</ele><time>2016-08-06T14:39:16Z</time></trkpt>
<trkpt lat="46.30707" lon="7.84576"><ele>642.4</ele><time>2016-08-06T14:39:18Z</time></trkpt>
<trkpt lat="46.30706" lon="7.84581"><ele>642.4</ele><time>2016-08-06T14:39:20Z</time></trkpt>
<trkpt lat="46.30706" lon="7.84586"><ele>642.4</ele><time>2016-08-06T14:39:22Z</time></trkpt>
<trkpt lat="46.30705" lon="7.84592"><ele>642.4</ele><time>2016-08-06T14:39:24Z</time></trkpt>
<trkpt lat="46.30705" lon="7.84597"><ele>642.4</ele><time>2016-08-06T14:39:26Z</time></trkpt>
<trkpt lat="46.30704" lon="7.84602"><ele>642.4</ele><time>2016-08-06T14:39:28Z</time></trkpt>
<trkpt lat="46.30704" lon="7.84607"><ele>642.4</ele><time>2016-08-06T14:39:30Z</time></trkpt>
<trkpt lat="46.30703" lon="7.84612"><ele>642.4</ele><time>2016-08-06T14:39:32Z</time></trkpt>
<trkpt lat="46.30703" lon="7.84617"><ele>642.6</ele><time>2016-08-06T14:39:34Z</time></trkpt>
<trkpt lat="46.30702" lon="7.84623"><ele>642.6</ele><time>2016-08-06T14:39:36Z</time></trkpt>
<trkpt lat="46.30702" lon="7.84628"><ele>642.6</ele><time>2016-08-06T14:39:38Z</time></trkpt>
<trkpt lat="46.30701" lon="7.84633"><ele>642.6</ele><time>2016-08-06T14:39:40Z</time></trkpt>
<trkpt lat="46.307" lon="7.84638"><ele>642.6</ele><time>2016-08-06T14:39:42Z</time></trkpt>
<trkpt lat="46.307" lon="7.84644"><ele>642.6</ele><time>2016-08-06T14:39:44Z</time></trkpt>
<trkpt lat="46.30699" lon="7.84651"><ele>642.6</ele><time>2016-08-06T14:39:46Z</time></trkpt>
<trkpt lat="46.30697" lon="7.84659"><ele>642.6</ele><time>2016-08-06T14:39:48Z</time></trkpt>
<trkpt lat="46.30696" lon="7.84666"><ele>642.6</ele><time>2016-08-06T14:39:50Z</time></trkpt>
<trkpt lat="46.30695" lon="7.84674"><ele>642.6</ele><time>2016-08-06T14:39:52Z</time></trkpt>
<trkpt lat="46.30694" lon="7.84681"><ele>642.6</ele><time>2016-08-06T14:39:54Z</time></trkpt>
<trkpt lat="46.30693" lon="7.84688"><ele>642.6</ele><time>2016-08-06T14:39:56Z</time></trkpt>
<trkpt lat="46.30691" lon="7.84696"><ele>642.6</ele><time>2016-08-06T14:39:58Z</time></trkpt>
<trkpt lat="46.3069" lon="7.84703"><ele>642.6</ele><time>2016-08-06T14:40:00Z</time></trkpt>
<trkpt lat="46.30689" lon="7.84708"><ele>642.6</ele><time>2016-08-06T14:40:01Z</time></trkpt>
<trkpt lat="46.30688" lon="7.84714"><ele>642.6</ele><time>2016-08-06T14:40:02Z</time></trkpt>
<trkpt lat="46.30686" lon="7.84727"><ele>642.6</ele><time>2016-08-06T14:40:04Z</time></trkpt>
<trkpt lat="46.30683" lon="7.84739"><ele>642.6</ele><time>2016-08-06T14:40:06Z</time></trkpt>
<trkpt lat="46.30681" lon="7.84751"><ele>642.6</ele><time>2016-08-06T14:40:08Z</time></trkpt>
<trkpt lat="46.30678" lon="7.84764"><ele>642.6</ele><time>2016-08-06T14:40:10Z</time></trkpt>
<trkpt lat="46.30676" lon="7.84776"><ele>642.6</ele><time>2016-08-06T14:40:12Z</time></trkpt>
<trkpt lat="46.30674" lon="7.84786"><ele>642.6</ele><time>2016-08-06T14:40:14Z</time></trkpt>
<trkpt lat="46.30673" lon="7.84796"><ele>642.6</ele><time>2016-08-06T14:40:16Z</time></trkpt>
<trkpt lat="46.30671" lon="7.84806"><ele>642.6</ele><time>2016-08-06T14:40:18Z</time></trkpt>
<trkpt lat="46.30669" lon="7.84815"><ele>642.6</ele><time>2016-08-06T14:40:20Z</time></trkpt>
<trkpt lat="46.30668" lon="7.84825"><ele>642.6</ele><time>2016-08-06T14:40:22Z</time></trkpt>
<trkpt lat="46.30666" lon="7.84835"><ele>642.6</ele><time>2016-08-06T14:40:24Z</time></trkpt>
<trkpt lat="46.30665" lon="7.8484"><ele>642.8</ele><time>2016-08-06T14:40:25Z</time></trkpt>
<trkpt lat="46.30663" lon="7.84847"><ele>642.8</ele><time>2016-08-06T14:40:26Z</time></trkpt>
<trkpt lat="46.30661" lon="7.84859"><ele>642.8</ele><time>2016-08-06T14:40:28Z</time></trkpt>
<trkpt lat="46.30658" lon="7.84871"><ele>642.8</ele><time>2016-08-06T14:40:30Z</time></trkpt>
<trkpt lat="46.30655" lon="7.84884"><ele>642.8</ele><time>2016-08-06T14:40:32Z</time></trkpt>
<trkpt lat="46.30653" lon="7.84896"><ele>642.8</ele><time>2016-08-06T14:40:34Z</time></trkpt>
<trkpt lat="46.30651" lon="7.84903"><ele>642.8</ele><time>2016-08-06T14:40:35Z</time></trkpt>
<trkpt lat="46.3065" lon="7.84909"><ele>642.8</ele><time>2016-08-06T14:40:36Z</time></trkpt>
<trkpt lat="46.30646" lon="7.84922"><ele>642.8</ele><time>2016-08-06T14:40:38Z</time></trkpt>
<trkpt lat="46.30643" lon="7.84934"><ele>642.8</ele><time>2016-08-06T14:40:40Z</time></trkpt>
<trkpt lat="46.3064" lon="7.84947"><ele>642.8</ele><time>2016-08-06T14:40:42Z</time></trkpt>
<trkpt lat="46.30636" lon="7.8496"><ele>642.8</ele><time>2016-08-06T14:40:44Z</time></trkpt>
<trkpt lat="46.30635" lon="7.84966"><ele>642.8</ele><time>2016-08-06T14:40:45Z</time></trkpt>
<trkpt lat="46.30634" lon="7.84972"><ele>642.8</ele><time>2016-08-06T14:40:46Z</time></trkpt>
<trkpt lat="46.30631" lon="7.84985"><ele>642.8</ele><time>2016-08-06T14:40:48Z</time></trkpt>
<trkpt lat="46.30628" lon="7.84998"><ele>642.8</ele><time>2016-08-06T14:40:50Z</time></trkpt>
<trkpt lat="46.30627" lon="7.85004"><ele>642.8</ele><time>2016-08-06T14:40:51Z</time></trkpt>
<trkpt lat="46.30626" lon="7.8501"><ele>642.8</ele><time>2016-08-06T14:40:52Z</time></trkpt>
<trkpt lat="46.30623" lon="7.85022"><ele>642.8</ele><time>2016-08-06T14:40:54Z</time></trkpt>
<trkpt lat="46.3062" lon="7.85034"><ele>642.8</ele><time>2016-08-06T14:40:56Z</time></trkpt>
<trkpt lat="46.30618" lon="7.85045"><ele>642.8</ele><time>2016-08-06T14:40:58Z</time></trkpt>
<trkpt lat="46.30615" lon="7.85057"><ele>642.8</ele><time>2016-08-06T14:41:00Z</time></trkpt>
<trkpt lat="46.30612" lon="7.85069"><ele>642.8</ele><time>2016-08-06T14:41:02Z</time></trkpt>
<trkpt lat="46.30609" lon="7.85079"><ele>642.8</ele><time>2016-08-06T14:41:04Z</time></trkpt>
<trkpt lat="46.30605" lon="7.8509"><ele>642.8</ele><time>2016-08-06T14:41:06Z</time></trkpt>
<trkpt lat="46.30602" lon="7.851"><ele>642.8</ele><time>2016-08-06T14:41:08Z</time></trkpt>
<trkpt lat="46.30599" lon="7.85111"><ele>642.8</ele><time>2016-08-06T14:41:10Z</time></trkpt>
<trkpt lat="46.30595" lon="7.85121"><ele>642.8</ele><time>2016-08-06T14:41:12Z</time></trkpt>
<trkpt lat="46.30592" lon="7.85132"><ele>642.8</ele><time>2016-08-06T14:41:14Z</time></trkpt>
<trkpt lat="46.30588" lon="7.85143"><ele>642.8</ele><time>2016-08-06T14:41:16Z</time></trkpt>
<trkpt lat="46.30585" lon="7.85154"><ele>643</ele><time>2016-08-06T14:41:18Z</time></trkpt>
<trkpt lat="46.30581" lon="7.85165"><ele>643</ele><time>2016-08-06T14:41:20Z</time></trkpt>
<trkpt lat="46.30578" lon="7.85177"><ele>643</ele><time>2016-08-06T14:41:22Z</time></trkpt>
<trkpt lat="46.30574" lon="7.85188"><ele>643</ele><time>2016-08-06T14:41:24Z</time></trkpt>
<trkpt lat="46.30571" lon="7.85199"><ele>643</ele><time>2016-08-06T14:41:26Z</time></trkpt>
<trkpt lat="46.30567" lon="7.85209"><ele>643</ele><time>2016-08-06T14:41:28Z</time></trkpt>
<trkpt lat="46.30563" lon="7.8522"><ele>643</ele><time>2016-08-06T14:41:30Z</time></trkpt>
<trkpt lat="46.3056" lon="7.85231"><ele>643</ele><time>2016-08-06T14:41:32Z</time></trkpt>
<trkpt lat="46.30556" lon="7.85241"><ele>643</ele><time>2016-08-06T14:41:34Z</time></trkpt>
<trkpt lat="46.30552" lon="7.85246"><ele>643</ele><time>2016-08-06T14:41:35Z</time></trkpt>
<trkpt lat="46.3055" lon="7.85252"><ele>643</ele><time>2016-08-06T14:41:36Z</time></trkpt>
<trkpt lat="46.30547" lon="7.85262"><ele>643</ele><time>2016-08-06T14:41:38Z</time></trkpt>
<trkpt lat="46.30544" lon="7.85273"><ele>643</ele><time>2016-08-06T14:41:40Z</time></trkpt>
<trkpt lat="46.3054" lon="7.85284"><ele>643</ele><time>2016-08-06T14:41:42Z</time></trkpt>
<trkpt lat="46.30537" lon="7.85295"><ele>643</ele><time>2016-08-06T14:41:44Z</time></trkpt>
<trkpt lat="46.30533" lon="7.85305"><ele>643</ele><time>2016-08-06T14:41:46Z</time></trkpt>
<trkpt lat="46.30532" lon="7.85311"><ele>643</ele><time>2016-08-06T14:41:47Z</time></trkpt>
<trkpt lat="46.3053" lon="7.85316"><ele>643</ele><time>2016-08-06T14:41:48Z</time></trkpt>
<trkpt lat="46.30526" lon="7.85327"><ele>643</ele><time>2016-08-06T14:41:50Z</time></trkpt>
<trkpt lat="46.30523" lon="7.85337"><ele>643</ele><time>2016-08-06T14:41:52Z</time></trkpt>
<trkpt lat="46.30519" lon="7.85348"><ele>643</ele><time>2016-08-06T14:41:54Z</time></trkpt>
<trkpt lat="46.30515" lon="7.85359"><ele>643</ele><time>2016-08-06T14:41:56Z</time></trkpt>
<trkpt lat="46.30512" lon="7.85369"><ele>643</ele><time>2016-08-06T14:41:58Z</time></trkpt>
<trkpt lat="46.30509" lon="7.85379"><ele>643</ele><time>2016-08-06T14:42:00Z</time></trkpt>
<trkpt lat="46.30506" lon="7.85389"><ele>643</ele><time>2016-08-06T14:42:02Z</time></trkpt>
<trkpt lat="46.30503" lon="7.85398"><ele>643</ele><time>2016-08-06T14:42:04Z</time></trkpt>
<trkpt lat="46.305" lon="7.85408"><ele>643</ele><time>2016-08-06T14:42:06Z</time></trkpt>
<trkpt lat="46.30497" lon="7.85418"><ele>643</ele><time>2016-08-06T14:42:08Z</time></trkpt>
<trkpt lat="46.30494" lon="7.85428"><ele>643.2</ele><time>2016-08-06T14:42:10Z</time></trkpt>
<trkpt lat="46.30492" lon="7.85432"><ele>643.2</ele><time>2016-08-06T14:42:11Z</time></trkpt>
<trkpt lat="46.30491" lon="7.85437"><ele>643.2</ele><time>2016-08-06T14:42:12Z</time></trkpt>
<trkpt lat="46.30488" lon="7.85446"><ele>643.2</ele><time>2016-08-06T14:42:14Z</time></trkpt>
<trkpt lat="46.30484" lon="7.85454"><ele>643.2</ele><time>2016-08-06T14:42:16Z</time></trkpt>
<trkpt lat="46.30481" lon="7.85463"><ele>643.2</ele><time>2016-08-06T14:42:18Z</time></trkpt>
<trkpt lat="46.30478" lon="7.85472"><ele>643.2</ele><time>2016-08-06T14:42:20Z</time></trkpt>
<trkpt lat="46.30475" lon="7.85481"><ele>643.2</ele><time>2016-08-06T14:42:22Z</time></trkpt>
<trkpt lat="46.30472" lon="7.85489"><ele>643.2</ele><time>2016-08-06T14:42:24Z</time></trkpt>
<trkpt lat="46.3047" lon="7.85494"><ele>643.2</ele><time>2016-08-06T14:42:25Z</time></trkpt>
<trkpt lat="46.30469" lon="7.85499"><ele>643.2</ele><time>2016-08-06T14:42:26Z</time></trkpt>
<trkpt lat="46.30466" lon="7.85508"><ele>643.2</ele><time>2016-08-06T14:42:28Z</time></trkpt>
<trkpt lat="46.30462" lon="7.85518"><ele>643.2</ele><time>2016-08-06T14:42:30Z</time></trkpt>
<trkpt lat="46.30459" lon="7.85527"><ele>643.2</ele><time>2016-08-06T14:42:32Z</time></trkpt>
<trkpt lat="46.30456" lon="7.85537"><ele>643.2</ele><time>2016-08-06T14:42:34Z</time></trkpt>
<trkpt lat="46.30453" lon="7.85546"><ele>643.2</ele><time>2016-08-06T14:42:36Z</time></trkpt>
<trkpt lat="46.30451" lon="7.85551"><ele>643.2</ele><time>2016-08-06T14:42:37Z</time></trkpt>
<trkpt lat="46.3045" lon="7.85555"><ele>643.2</ele><time>2016-08-06T14:42:38Z</time></trkpt>
<trkpt lat="46.30447" lon="7.85564"><ele>643.2</ele><time>2016-08-06T14:42:40Z</time></trkpt>
<trkpt lat="46.30444" lon="7.85572"><ele>643.2</ele><time>2016-08-06T14:42:42Z</time></trkpt>
<trkpt lat="46.30441" lon="7.85581"><ele>643.2</ele><time>2016-08-06T14:42:44Z</time></trkpt>
<trkpt lat="46.30438" lon="7.85589"><ele>643.2</ele><time>2016-08-06T14:42:46Z</time></trkpt>
<trkpt lat="46.30436" lon="7.85598"><ele>643.2</ele><time>2016-08-06T14:42:48Z</time></trkpt>
<trkpt lat="46.30433" lon="7.85606"><ele>643.2</ele><time>2016-08-06T14:42:50Z</time></trkpt>
<trkpt lat="46.3043" lon="7.85614"><ele>643.2</ele><time>2016-08-06T14:42:52Z</time></trkpt>
<trkpt lat="46.30428" lon="7.85623"><ele>643.2</ele><time>2016-08-06T14:42:54Z</time></trkpt>
<trkpt lat="46.30426" lon="7.85632"><ele>643.2</ele><time>2016-08-06T14:42:56Z</time></trkpt>
<trkpt lat="46.30424" lon="7.85641"><ele>643.2</ele><time>2016-08-06T14:42:58Z</time></trkpt>
<trkpt lat="46.30422" lon="7.8565"><ele>643.2</ele><time>2016-08-06T14:43:00Z</time></trkpt>
<trkpt lat="46.3042" lon="7.85659"><ele>643.4</ele><time>2016-08-06T14:43:02Z</time></trkpt>
<trkpt lat="46.30418" lon="7.85668"><ele>643.4</ele><time>2016-08-06T14:43:04Z</time></trkpt>
<trkpt lat="46.30416" lon="7.85677"><ele>643.4</ele><time>2016-08-06T14:43:06Z</time></trkpt>
<trkpt lat="46.30413" lon="7.85687"><ele>643.4</ele><time>2016-08-06T14:43:08Z</time></trkpt>
<trkpt lat="46.30411" lon="7.85697"><ele>643.4</ele><time>2016-08-06T14:43:10Z</time></trkpt>
<trkpt lat="46.30408" lon="7.85706"><ele>643.4</ele><time>2016-08-06T14:43:12Z</time></trkpt>
<trkpt lat="46.30406" lon="7.85716"><ele>643.4</ele><time>2016-08-06T14:43:14Z</time></trkpt>
<trkpt lat="46.30403" lon="7.85725"><ele>643.4</ele><time>2016-08-06T14:43:16Z</time></trkpt>
<trkpt lat="46.304" lon="7.85735"><ele>643.4</ele><time>2016-08-06T14:43:18Z</time></trkpt>
<trkpt lat="46.30399" lon="7.85739"><ele>643.4</ele><time>2016-08-06T14:43:19Z</time></trkpt>
<trkpt lat="46.30398" lon="7.85744"><ele>643.4</ele><time>2016-08-06T14:43:20Z</time></trkpt>
<trkpt lat="46.30395" lon="7.85752"><ele>643.4</ele><time>2016-08-06T14:43:22Z</time></trkpt>
<trkpt lat="46.30392" lon="7.8576"><ele>643.4</ele><time>2016-08-06T14:43:24Z</time></trkpt>
<trkpt lat="46.30389" lon="7.85768"><ele>643.4</ele><time>2016-08-06T14:43:26Z</time></trkpt>
<trkpt lat="46.30386" lon="7.85777"><ele>643.4</ele><time>2016-08-06T14:43:28Z</time></trkpt>
<trkpt lat="46.30383" lon="7.85785"><ele>643.4</ele><time>2016-08-06T14:43:30Z</time></trkpt>
<trkpt lat="46.30381" lon="7.85793"><ele>643.4</ele><time>2016-08-06T14:43:32Z</time></trkpt>
<trkpt lat="46.30378" lon="7.85801"><ele>643.4</ele><time>2016-08-06T14:43:34Z</time></trkpt>
<trkpt lat="46.30375" lon="7.85807"><ele>643.4</ele><time>2016-08-06T14:43:36Z</time></trkpt>
<trkpt lat="46.30373" lon="7.85813"><ele>643.4</ele><time>2016-08-06T14:43:38Z</time></trkpt>
<trkpt lat="46.30371" lon="7.85819"><ele>643.4</ele><time>2016-08-06T14:43:40Z</time></trkpt>
<trkpt lat="46.30368" lon="7.85824"><ele>643.4</ele><time>2016-08-06T14:43:42Z</time></trkpt>
<trkpt lat="46.30366" lon="7.8583"><ele>643.4</ele><time>2016-08-06T14:43:44Z</time></trkpt>
<trkpt lat="46.30363" lon="7.85836"><ele>643.4</ele><time>2016-08-06T14:43:46Z</time></trkpt>
<trkpt lat="46.30347" lon="7.85844"><ele>643.6</ele><time>2016-08-06T14:43:48Z</time></trkpt>
<trkpt lat="46.30347" lon="7.85844"><ele>643.6</ele><time>2016-08-06T14:45:04Z</time></trkpt>
<trkpt lat="46.30333" lon="7.85845"><ele>643.8</ele><time>2016-08-06T14:45:06Z</time></trkpt>
<trkpt lat="46.30327" lon="7.85842"><ele>643.8</ele><time>2016-08-06T14:45:08Z</time></trkpt>
<trkpt lat="46.30322" lon="7.85839"><ele>643.8</ele><time>2016-08-06T14:45:10Z</time></trkpt>
<trkpt lat="46.30317" lon="7.85835"><ele>643.8</ele><time>2016-08-06T14:45:12Z</time></trkpt>
<trkpt lat="46.30311" lon="7.85832"><ele>643.8</ele><time>2016-08-06T14:45:14Z</time></trkpt>
<trkpt lat="46.30306" lon="7.85829"><ele>643.8</ele><time>2016-08-06T14:45:16Z</time></trkpt>
<trkpt lat="46.30302" lon="7.85828"><ele>643.8</ele><time>2016-08-06T14:45:18Z</time></trkpt>
<trkpt lat="46.30299" lon="7.85827"><ele>643.8</ele><time>2016-08-06T14:45:20Z</time></trkpt>
<trkpt lat="46.30295" lon="7.85826"><ele>643.8</ele><time>2016-08-06T14:45:22Z</time></trkpt>
<trkpt lat="46.30293" lon="7.85827"><ele>643.8</ele><time>2016-08-06T14:45:23Z</time></trkpt>
<trkpt lat="46.30292" lon="7.8583"><ele>643.8</ele><time>2016-08-06T14:45:24Z</time></trkpt>
<trkpt lat="46.30289" lon="7.85838"><ele>643.8</ele><time>2016-08-06T14:45:26Z</time></trkpt>
<trkpt lat="46.30287" lon="7.85845"><ele>643.8</ele><time>2016-08-06T14:45:28Z</time></trkpt>
<trkpt lat="46.30284" lon="7.85852"><ele>643.8</ele><time>2016-08-06T14:45:30Z</time></trkpt>
<trkpt lat="46.30281" lon="7.8586"><ele>643.8</ele><time>2016-08-06T14:45:32Z</time></trkpt>
<trkpt lat="46.30279" lon="7.85867"><ele>643.8</ele><time>2016-08-06T14:45:34Z</time></trkpt>
<trkpt lat="46.30276" lon="7.85874"><ele>644</ele><time>2016-08-06T14:45:36Z</time></trkpt>
<trkpt lat="46.30273" lon="7.85882"><ele>644</ele><time>2016-08-06T14:45:38Z</time></trkpt>
<trkpt lat="46.30272" lon="7.85884"><ele>644</ele><time>2016-08-06T14:45:39Z</time></trkpt>
<trkpt lat="46.30272" lon="7.85885"><ele>644</ele><time>2016-08-06T14:45:40Z</time></trkpt>
<trkpt lat="46.30271" lon="7.85885"><ele>644</ele><time>2016-08-06T14:45:42Z</time></trkpt>
<trkpt lat="46.30271" lon="7.85885"><ele>644</ele><time>2016-08-06T14:45:44Z</time></trkpt>
<trkpt lat="46.3027" lon="7.85886"><ele>644</ele><time>2016-08-06T14:45:46Z</time></trkpt>
<trkpt lat="46.3027" lon="7.85886"><ele>644</ele><time>2016-08-06T14:45:48Z</time></trkpt>
<trkpt lat="46.30269" lon="7.85886"><ele>644</ele><time>2016-08-06T14:45:50Z</time></trkpt>
<trkpt lat="46.30272" lon="7.85879"><ele>644</ele><time>2016-08-06T14:45:52Z</time></trkpt>
<trkpt lat="46.30274" lon="7.85873"><ele>644</ele><time>2016-08-06T14:45:54Z</time></trkpt>
<trkpt lat="46.30276" lon="7.85867"><ele>644</ele><time>2016-08-06T14:45:56Z</time></trkpt>
<trkpt lat="46.30278" lon="7.85861"><ele>644</ele><time>2016-08-06T14:45:58Z</time></trkpt>
<trkpt lat="46.3028" lon="7.85855"><ele>644</ele><time>2016-08-06T14:46:00Z</time></trkpt>
<trkpt lat="46.30282" lon="7.85849"><ele>644</ele><time>2016-08-06T14:46:02Z</time></trkpt>
<trkpt lat="46.30284" lon="7.85843"><ele>644</ele><time>2016-08-06T14:46:04Z</time></trkpt>
<trkpt lat="46.30287" lon="7.85837"><ele>644</ele><time>2016-08-06T14:46:06Z</time></trkpt>
<trkpt lat="46.30289" lon="7.85831"><ele>644</ele><time>2016-08-06T14:46:08Z</time></trkpt>
<trkpt lat="46.30291" lon="7.85825"><ele>644</ele><time>2016-08-06T14:46:10Z</time></trkpt>
<trkpt lat="46.30295" lon="7.85823"><ele>644</ele><time>2016-08-06T14:46:12Z</time></trkpt>
<trkpt lat="46.30297" lon="7.85822"><ele>644</ele><time>2016-08-06T14:46:13Z</time></trkpt>
<trkpt lat="46.303" lon="7.85824"><ele>644</ele><time>2016-08-06T14:46:14Z</time></trkpt>
<trkpt lat="46.30304" lon="7.85828"><ele>644</ele><time>2016-08-06T14:46:16Z</time></trkpt>
<trkpt lat="46.30309" lon="7.85832"><ele>644</ele><time>2016-08-06T14:46:18Z</time></trkpt>
<trkpt lat="46.30314" lon="7.85835"><ele>644</ele><time>2016-08-06T14:46:20Z</time></trkpt>
<trkpt lat="46.30318" lon="7.85839"><ele>644</ele><time>2016-08-06T14:46:22Z</time></trkpt>
<trkpt lat="46.30323" lon="7.85842"><ele>644</ele><time>2016-08-06T14:46:24Z</time></trkpt>
<trkpt lat="46.30327" lon="7.85846"><ele>644</ele><time>2016-08-06T14:46:26Z</time></trkpt>
<trkpt lat="46.30332" lon="7.8585"><ele>644.2</ele><time>2016-08-06T14:46:28Z</time></trkpt>
<trkpt lat="46.30337" lon="7.85854"><ele>644.2</ele><time>2016-08-06T14:46:30Z</time></trkpt>
<trkpt lat="46.30343" lon="7.85862"><ele>644.2</ele><time>2016-08-06T14:46:32Z</time></trkpt>
<trkpt lat="46.3034" lon="7.85875"><ele>644.2</ele><time>2016-08-06T14:46:34Z</time></trkpt>
<trkpt lat="46.30338" lon="7.85888"><ele>644.2</ele><time>2016-08-06T14:46:36Z</time></trkpt>
<trkpt lat="46.30336" lon="7.85901"><ele>644.2</ele><time>2016-08-06T14:46:38Z</time></trkpt>
<trkpt lat="46.30333" lon="7.85915"><ele>644.2</ele><time>2016-08-06T14:46:40Z</time></trkpt>
<trkpt lat="46.30331" lon="7.85928"><ele>644.2</ele><time>2016-08-06T14:46:42Z</time></trkpt>
<trkpt lat="46.30328" lon="7.8594"><ele>644.2</ele><time>2016-08-06T14:46:44Z</time></trkpt>
<trkpt lat="46.30325" lon="7.85953"><ele>644.2</ele><time>2016-08-06T14:46:46Z</time></trkpt>
<trkpt lat="46.30323" lon="7.85965"><ele>644.2</ele><time>2016-08-06T14:46:48Z</time></trkpt>
<trkpt lat="46.3032" lon="7.85978"><ele>644.2</ele><time>2016-08-06T14:46:50Z</time></trkpt>
<trkpt lat="46.30318" lon="7.8599"><ele>644.2</ele><time>2016-08-06T14:46:52Z</time></trkpt>
<trkpt lat="46.30316" lon="7.85997"><ele>644.2</ele><time>2016-08-06T14:46:53Z</time></trkpt>
<trkpt lat="46.30314" lon="7.86004"><ele>644.2</ele><time>2016-08-06T14:46:54Z</time></trkpt>
<trkpt lat="46.30311" lon="7.86018"><ele>644.2</ele><time>2016-08-06T14:46:56Z</time></trkpt>
<trkpt lat="46.30307" lon="7.86032"><ele>644.2</ele><time>2016-08-06T14:46:58Z</time></trkpt>
<trkpt lat="46.30306" lon="7.86039"><ele>644.2</ele><time>2016-08-06T14:46:59Z</time></trkpt>
<trkpt lat="46.30305" lon="7.86046"><ele>644.2</ele><time>2016-08-06T14:47:00Z</time></trkpt>
<trkpt lat="46.30304" lon="7.8606"><ele>644.2</ele><time>2016-08-06T14:47:02Z</time></trkpt>
<trkpt lat="46.30303" lon="7.86074"><ele>644.2</ele><time>2016-08-06T14:47:04Z</time></trkpt>
<trkpt lat="46.30301" lon="7.86088"><ele>644.2</ele><time>2016-08-06T14:47:06Z</time></trkpt>
<trkpt lat="46.30295" lon="7.86107"><ele>644.2</ele><time>2016-08-06T14:47:08Z</time></trkpt>
<trkpt lat="46.30297" lon="7.8612"><ele>644.2</ele><time>2016-08-06T14:47:10Z</time></trkpt>
<trkpt lat="46.30297" lon="7.86127"><ele>644.2</ele><time>2016-08-06T14:47:11Z</time></trkpt>
<trkpt lat="46.30297" lon="7.86134"><ele>644.2</ele><time>2016-08-06T14:47:12Z</time></trkpt>
<trkpt lat="46.30298" lon="7.86147"><ele>644.2</ele><time>2016-08-06T14:47:14Z</time></trkpt>
<trkpt lat="46.30301" lon="7.86153"><ele>644.2</ele><time>2016-08-06T14:47:15Z</time></trkpt>
<trkpt lat="46.303" lon="7.8616"><ele>644.2</ele><time>2016-08-06T14:47:16Z</time></trkpt>
<trkpt lat="46.30298" lon="7.86175"><ele>644.2</ele><time>2016-08-06T14:47:18Z</time></trkpt>
<trkpt lat="46.30297" lon="7.86189"><ele>644.4</ele><time>2016-08-06T14:47:20Z</time></trkpt>
<trkpt lat="46.30295" lon="7.86203"><ele>644.4</ele><time>2016-08-06T14:47:22Z</time></trkpt>
<trkpt lat="46.30295" lon="7.86211"><ele>644.4</ele><time>2016-08-06T14:47:23Z</time></trkpt>
<trkpt lat="46.30295" lon="7.8622"><ele>644.4</ele><time>2016-08-06T14:47:24Z</time></trkpt>
<trkpt lat="46.30295" lon="7.86229"><ele>644.4</ele><time>2016-08-06T14:47:25Z</time></trkpt>
<trkpt lat="46.30294" lon="7.86237"><ele>644.4</ele><time>2016-08-06T14:47:26Z</time></trkpt>
<trkpt lat="46.30292" lon="7.86252"><ele>644.4</ele><time>2016-08-06T14:47:28Z</time></trkpt>
<trkpt lat="46.30291" lon="7.86268"><ele>644.4</ele><time>2016-08-06T14:47:30Z</time></trkpt>
<trkpt lat="46.3029" lon="7.86275"><ele>644.4</ele><time>2016-08-06T14:47:31Z</time></trkpt>
<trkpt lat="46.3029" lon="7.86282"><ele>644.4</ele><time>2016-08-06T14:47:32Z</time></trkpt>
<trkpt lat="46.30291" lon="7.86296"><ele>644.4</ele><time>2016-08-06T14:47:34Z</time></trkpt>
<trkpt lat="46.30291" lon="7.8631"><ele>644.4</ele><time>2016-08-06T14:47:36Z</time></trkpt>
<trkpt lat="46.30292" lon="7.86324"><ele>644.4</ele><time>2016-08-06T14:47:38Z</time></trkpt>
<trkpt lat="46.30292" lon="7.86338"><ele>644.4</ele><time>2016-08-06T14:47:40Z</time></trkpt>
<trkpt lat="46.30292" lon="7.86344"><ele>644.4</ele><time>2016-08-06T14:47:41Z</time></trkpt>
<trkpt lat="46.30292" lon="7.86352"><ele>644.4</ele><time>2016-08-06T14:47:42Z</time></trkpt>
<trkpt lat="46.30294" lon="7.86369"><ele>644.4</ele><time>2016-08-06T14:47:44Z</time></trkpt>
<trkpt lat="46.30293" lon="7.86382"><ele>644.4</ele><time>2016-08-06T14:47:46Z</time></trkpt>
<trkpt lat="46.30293" lon="7.86395"><ele>644.4</ele><time>2016-08-06T14:47:48Z</time></trkpt>
<trkpt lat="46.30292" lon="7.86408"><ele>644.4</ele><time>2016-08-06T14:47:50Z</time></trkpt>
<trkpt lat="46.30292" lon="7.86414"><ele>644.4</ele><time>2016-08-06T14:47:51Z</time></trkpt>
<trkpt lat="46.30292" lon="7.86422"><ele>644.4</ele><time>2016-08-06T14:47:52Z</time></trkpt>
<trkpt lat="46.30292" lon="7.86438"><ele>644.4</ele><time>2016-08-06T14:47:54Z</time></trkpt>
<trkpt lat="46.30293" lon="7.86454"><ele>644.4</ele><time>2016-08-06T14:47:56Z</time></trkpt>
<trkpt lat="46.30293" lon="7.8647"><ele>644.4</ele><time>2016-08-06T14:47:58Z</time></trkpt>
<trkpt lat="46.30293" lon="7.86486"><ele>644.4</ele><time>2016-08-06T14:48:00Z</time></trkpt>
<trkpt lat="46.30292" lon="7.86503"><ele>644.4</ele><time>2016-08-06T14:48:02Z</time></trkpt>
<trkpt lat="46.30291" lon="7.86519"><ele>644.4</ele><time>2016-08-06T14:48:04Z</time></trkpt>
<trkpt lat="46.3029" lon="7.86536"><ele>644.4</ele><time>2016-08-06T14:48:06Z</time></trkpt>
<trkpt lat="46.30289" lon="7.86553"><ele>644.4</ele><time>2016-08-06T14:48:08Z</time></trkpt>
<trkpt lat="46.30289" lon="7.86572"><ele>644.4</ele><time>2016-08-06T14:48:10Z</time></trkpt>
<trkpt lat="46.30288" lon="7.86592"><ele>644.4</ele><time>2016-08-06T14:48:12Z</time></trkpt>
<trkpt lat="46.30287" lon="7.86611"><ele>644.4</ele><time>2016-08-06T14:48:14Z</time></trkpt>
<trkpt lat="46.30287" lon="7.86621"><ele>644.4</ele><time>2016-08-06T14:48:15Z</time></trkpt>
<trkpt lat="46.30287" lon="7.86629"><ele>644.4</ele><time>2016-08-06T14:48:16Z</time></trkpt>
<trkpt lat="46.30287" lon="7.86647"><ele>644.4</ele><time>2016-08-06T14:48:18Z</time></trkpt>
<trkpt lat="46.30288" lon="7.86665"><ele>644.4</ele><time>2016-08-06T14:48:20Z</time></trkpt>
<trkpt lat="46.30288" lon="7.86683"><ele>644.4</ele><time>2016-08-06T14:48:22Z</time></trkpt>
<trkpt lat="46.30289" lon="7.86692"><ele>644.4</ele><time>2016-08-06T14:48:23Z</time></trkpt>
<trkpt lat="46.3029" lon="7.86701"><ele>644.4</ele><time>2016-08-06T14:48:24Z</time></trkpt>
<trkpt lat="46.30291" lon="7.86718"><ele>644.4</ele><time>2016-08-06T14:48:26Z</time></trkpt>
<trkpt lat="46.30291" lon="7.86736"><ele>644.4</ele><time>2016-08-06T14:48:28Z</time></trkpt>
<trkpt lat="46.30292" lon="7.86754"><ele>644.4</ele><time>2016-08-06T14:48:30Z</time></trkpt>
<trkpt lat="46.30292" lon="7.86772"><ele>644.4</ele><time>2016-08-06T14:48:32Z</time></trkpt>
<trkpt lat="46.30291" lon="7.8679"><ele>644.4</ele><time>2016-08-06T14:48:34Z</time></trkpt>
<trkpt lat="46.30291" lon="7.86808"><ele>644.2</ele><time>2016-08-06T14:48:36Z</time></trkpt>
<trkpt lat="46.3029" lon="7.86826"><ele>644.2</ele><time>2016-08-06T14:48:38Z</time></trkpt>
<trkpt lat="46.3029" lon="7.86844"><ele>644.2</ele><time>2016-08-06T14:48:40Z</time></trkpt>
<trkpt lat="46.30289" lon="7.86861"><ele>644.2</ele><time>2016-08-06T14:48:42Z</time></trkpt>
<trkpt lat="46.30289" lon="7.86877"><ele>644.2</ele><time>2016-08-06T14:48:44Z</time></trkpt>
<trkpt lat="46.30288" lon="7.86894"><ele>644.2</ele><time>2016-08-06T14:48:46Z</time></trkpt>
<trkpt lat="46.30288" lon="7.86911"><ele>644.2</ele><time>2016-08-06T14:48:48Z</time></trkpt>
<trkpt lat="46.30288" lon="7.86929"><ele>644.2</ele><time>2016-08-06T14:48:50Z</time></trkpt>
<trkpt lat="46.30288" lon="7.86938"><ele>644.2</ele><time>2016-08-06T14:48:51Z</time></trkpt>
<trkpt lat="46.30287" lon="7.86948"><ele>644.2</ele><time>2016-08-06T14:48:52Z</time></trkpt>
<trkpt lat="46.30285" lon="7.86967"><ele>644.2</ele><time>2016-08-06T14:48:54Z</time></trkpt>
<trkpt lat="46.30283" lon="7.86986"><ele>644.2</ele><time>2016-08-06T14:48:56Z</time></trkpt>
<trkpt lat="46.30281" lon="7.87002"><ele>644.2</ele><time>2016-08-06T14:48:58Z</time></trkpt>
<trkpt lat="46.30281" lon="7.87007"><ele>644.2</ele><time>2016-08-06T14:49:00Z</time></trkpt>
<trkpt lat="46.30282" lon="7.87012"><ele>644</ele><time>2016-08-06T14:49:02Z</time></trkpt>
<trkpt lat="46.30282" lon="7.87016"><ele>644</ele><time>2016-08-06T14:49:04Z</time></trkpt>
<trkpt lat="46.30286" lon="7.87056"><ele>643.8</ele><time>2016-08-06T14:49:06Z</time></trkpt>
<trkpt lat="46.30286" lon="7.87056"><ele>643.8</ele><time>2016-08-06T14:50:21Z</time></trkpt>
<trkpt lat="46.30289" lon="7.87091"><ele>643.4</ele><time>2016-08-06T14:50:22Z</time></trkpt>
<trkpt lat="46.30286" lon="7.87097"><ele>643.4</ele><time>2016-08-06T14:50:24Z</time></trkpt>
<trkpt lat="46.30282" lon="7.87102"><ele>643.4</ele><time>2016-08-06T14:50:26Z</time></trkpt>
<trkpt lat="46.30275" lon="7.87103"><ele>643.4</ele><time>2016-08-06T14:50:28Z</time></trkpt>
<trkpt lat="46.30268" lon="7.87104"><ele>643.4</ele><time>2016-08-06T14:50:30Z</time></trkpt>
<trkpt lat="46.30261" lon="7.87106"><ele>643.4</ele><time>2016-08-06T14:50:32Z</time></trkpt>
<trkpt lat="46.30254" lon="7.87107"><ele>643.4</ele><time>2016-08-06T14:50:34Z</time></trkpt>
<trkpt lat="46.30247" lon="7.87108"><ele>643.4</ele><time>2016-08-06T14:50:36Z</time></trkpt>
<trkpt lat="46.3024" lon="7.8711"><ele>643.4</ele><time>2016-08-06T14:50:38Z</time></trkpt>
<trkpt lat="46.30237" lon="7.8711"><ele>643.4</ele><time>2016-08-06T14:50:39Z</time></trkpt>
<trkpt lat="46.30234" lon="7.8711"><ele>643.4</ele><time>2016-08-06T14:50:40Z</time></trkpt>
<trkpt lat="46.30228" lon="7.87111"><ele>643.4</ele><time>2016-08-06T14:50:42Z</time></trkpt>
<trkpt lat="46.30222" lon="7.87111"><ele>643.4</ele><time>2016-08-06T14:50:44Z</time></trkpt>
<trkpt lat="46.30216" lon="7.87111"><ele>643.4</ele><time>2016-08-06T14:50:46Z</time></trkpt>
<trkpt lat="46.30209" lon="7.87111"><ele>643.2</ele><time>2016-08-06T14:50:48Z</time></trkpt>
<trkpt lat="46.30204" lon="7.87111"><ele>643.2</ele><time>2016-08-06T14:50:50Z</time></trkpt>
<trkpt lat="46.30203" lon="7.87105"><ele>643.2</ele><time>2016-08-06T14:50:52Z</time></trkpt>
<trkpt lat="46.30203" lon="7.87102"><ele>643.2</ele><time>2016-08-06T14:50:53Z</time></trkpt>
<trkpt lat="46.30205" lon="7.87098"><ele>643.2</ele><time>2016-08-06T14:50:54Z</time></trkpt>
<trkpt lat="46.30208" lon="7.87089"><ele>643.2</ele><time>2016-08-06T14:50:56Z</time></trkpt>
<trkpt lat="46.30206" lon="7.87086"><ele>643.2</ele><time>2016-08-06T14:50:57Z</time></trkpt>
<trkpt lat="46.30201" lon="7.8709"><ele>643.2</ele><time>2016-08-06T14:50:58Z</time></trkpt>
<trkpt lat="46.30191" lon="7.87098"><ele>643.2</ele><time>2016-08-06T14:51:00Z</time></trkpt>
<trkpt lat="46.30184" lon="7.87113"><ele>643.2</ele><time>2016-08-06T14:51:02Z</time></trkpt>
<trkpt lat="46.30182" lon="7.87124"><ele>643.2</ele><time>2016-08-06T14:51:03Z</time></trkpt>
<trkpt lat="46.30178" lon="7.87129"><ele>643.2</ele><time>2016-08-06T14:51:04Z</time></trkpt>
<trkpt lat="46.3017" lon="7.8714"><ele>643.2</ele><time>2016-08-06T14:51:06Z</time></trkpt>
<trkpt lat="46.30163" lon="7.87151"><ele>643.2</ele><time>2016-08-06T14:51:08Z</time></trkpt>
<trkpt lat="46.30155" lon="7.87162"><ele>643.2</ele><time>2016-08-06T14:51:10Z</time></trkpt>
<trkpt lat="46.30148" lon="7.87173"><ele>643.2</ele><time>2016-08-06T14:51:12Z</time></trkpt>
<trkpt lat="46.30142" lon="7.87182"><ele>643</ele><time>2016-08-06T14:51:14Z</time></trkpt>
<trkpt lat="46.30136" lon="7.87192"><ele>643</ele><time>2016-08-06T14:51:16Z</time></trkpt>
<trkpt lat="46.3013" lon="7.87201"><ele>643</ele><time>2016-08-06T14:51:18Z</time></trkpt>
<trkpt lat="46.30125" lon="7.87209"><ele>643</ele><time>2016-08-06T14:51:20Z</time></trkpt>
<trkpt lat="46.30118" lon="7.87208"><ele>643</ele><time>2016-08-06T14:51:22Z</time></trkpt>
<trkpt lat="46.30113" lon="7.872"><ele>643</ele><time>2016-08-06T14:51:24Z</time></trkpt>
<trkpt lat="46.30109" lon="7.87191"><ele>643</ele><time>2016-08-06T14:51:26Z</time></trkpt>
<trkpt lat="46.30104" lon="7.87183"><ele>643</ele><time>2016-08-06T14:51:28Z</time></trkpt>
<trkpt lat="46.30099" lon="7.87175"><ele>643</ele><time>2016-08-06T14:51:30Z</time></trkpt>
<trkpt lat="46.30094" lon="7.87167"><ele>643</ele><time>2016-08-06T14:51:32Z</time></trkpt>
<trkpt lat="46.30089" lon="7.87159"><ele>643</ele><time>2016-08-06T14:51:34Z</time></trkpt>
<trkpt lat="46.30087" lon="7.87155"><ele>643</ele><time>2016-08-06T14:51:35Z</time></trkpt>
<trkpt lat="46.30085" lon="7.87148"><ele>643</ele><time>2016-08-06T14:51:36Z</time></trkpt>
<trkpt lat="46.30084" lon="7.87132"><ele>643</ele><time>2016-08-06T14:51:38Z</time></trkpt>
<trkpt lat="46.30084" lon="7.87124"><ele>643</ele><time>2016-08-06T14:51:39Z</time></trkpt>
<trkpt lat="46.30086" lon="7.87118"><ele>643</ele><time>2016-08-06T14:51:40Z</time></trkpt>
<trkpt lat="46.30088" lon="7.87104"><ele>642.8</ele><time>2016-08-06T14:51:42Z</time></trkpt>
<trkpt lat="46.3009" lon="7.8709"><ele>642.8</ele><time>2016-08-06T14:51:44Z</time></trkpt>
<trkpt lat="46.30093" lon="7.87077"><ele>642.8</ele><time>2016-08-06T14:51:46Z</time></trkpt>
<trkpt lat="46.30093" lon="7.8707"><ele>642.8</ele><time>2016-08-06T14:51:47Z</time></trkpt>
<trkpt lat="46.30093" lon="7.87066"><ele>642.8</ele><time>2016-08-06T14:51:48Z</time></trkpt>
<trkpt lat="46.30093" lon="7.87062"><ele>642.8</ele><time>2016-08-06T14:51:49Z</time></trkpt>
<trkpt lat="46.30096" lon="7.87058"><ele>642.8</ele><time>2016-08-06T14:51:50Z</time></trkpt>
<trkpt lat="46.30103" lon="7.87051"><ele>642.8</ele><time>2016-08-06T14:51:52Z</time></trkpt>
<trkpt lat="46.30109" lon="7.87044"><ele>642.8</ele><time>2016-08-06T14:51:54Z</time></trkpt>
<trkpt lat="46.30111" lon="7.87039"><ele>642.8</ele><time>2016-08-06T14:51:55Z</time></trkpt>
<trkpt lat="46.30111" lon="7.87033"><ele>642.8</ele><time>2016-08-06T14:51:56Z</time></trkpt>
<trkpt lat="46.30111" lon="7.87019"><ele>642.8</ele><time>2016-08-06T14:51:58Z</time></trkpt>
<trkpt lat="46.3011" lon="7.87005"><ele>642.8</ele><time>2016-08-06T14:52:00Z</time></trkpt>
<trkpt lat="46.3011" lon="7.86991"><ele>642.8</ele><time>2016-08-06T14:52:02Z</time></trkpt>
<trkpt lat="46.3011" lon="7.86977"><ele>642.8</ele><time>2016-08-06T14:52:04Z</time></trkpt>
<trkpt lat="46.3011" lon="7.8697"><ele>642.8</ele><time>2016-08-06T14:52:05Z</time></trkpt>
<trkpt lat="46.30112" lon="7.86961"><ele>642.8</ele><time>2016-08-06T14:52:06Z</time></trkpt>
<trkpt lat="46.30115" lon="7.86944"><ele>642.6</ele><time>2016-08-06T14:52:08Z</time></trkpt>
<trkpt lat="46.30117" lon="7.86928"><ele>642.6</ele><time>2016-08-06T14:52:10Z</time></trkpt>
<trkpt lat="46.3012" lon="7.86911"><ele>642.6</ele><time>2016-08-06T14:52:12Z</time></trkpt>
<trkpt lat="46.30122" lon="7.86902"><ele>642.6</ele><time>2016-08-06T14:52:13Z</time></trkpt>
<trkpt lat="46.30123" lon="7.86893"><ele>642.6</ele><time>2016-08-06T14:52:14Z</time></trkpt>
<trkpt lat="46.30126" lon="7.86876"><ele>642.6</ele><time>2016-08-06T14:52:16Z</time></trkpt>
<trkpt lat="46.30128" lon="7.86859"><ele>642.6</ele><time>2016-08-06T14:52:18Z</time></trkpt>
<trkpt lat="46.30131" lon="7.86841"><ele>642.6</ele><time>2016-08-06T14:52:20Z</time></trkpt>
<trkpt lat="46.30133" lon="7.86833"><ele>642.6</ele><time>2016-08-06T14:52:21Z</time></trkpt>
<trkpt lat="46.30134" lon="7.86825"><ele>642.6</ele><time>2016-08-06T14:52:22Z</time></trkpt>
<trkpt lat="46.30136" lon="7.86809"><ele>642.6</ele><time>2016-08-06T14:52:24Z</time></trkpt>
<trkpt lat="46.30138" lon="7.86793"><ele>642.6</ele><time>2016-08-06T14:52:26Z</time></trkpt>
<trkpt lat="46.3014" lon="7.86777"><ele>642.6</ele><time>2016-08-06T14:52:28Z</time></trkpt>
<trkpt lat="46.30141" lon="7.86769"><ele>642.6</ele><time>2016-08-06T14:52:29Z</time></trkpt>
<trkpt lat="46.30142" lon="7.86761"><ele>642.6</ele><time>2016-08-06T14:52:30Z</time></trkpt>
<trkpt lat="46.30143" lon="7.86745"><ele>642.6</ele><time>2016-08-06T14:52:32Z</time></trkpt>
<trkpt lat="46.30145" lon="7.8673"><ele>642.4</ele><time>2016-08-06T14:52:34Z</time></trkpt>
<trkpt lat="46.30147" lon="7.86714"><ele>642.4</ele><time>2016-08-06T14:52:36Z</time></trkpt>
<trkpt lat="46.30149" lon="7.86699"><ele>642.4</ele><time>2016-08-06T14:52:38Z</time></trkpt>
<trkpt lat="46.30149" lon="7.86687"><ele>642.4</ele><time>2016-08-06T14:52:40Z</time></trkpt>
<trkpt lat="46.3015" lon="7.86674"><ele>642.4</ele><time>2016-08-06T14:52:42Z</time></trkpt>
<trkpt lat="46.30151" lon="7.86662"><ele>642.4</ele><time>2016-08-06T14:52:44Z</time></trkpt>
<trkpt lat="46.30151" lon="7.8665"><ele>642.4</ele><time>2016-08-06T14:52:46Z</time></trkpt>
<trkpt lat="46.30146" lon="7.86645"><ele>642.4</ele><time>2016-08-06T14:52:48Z</time></trkpt>
<trkpt lat="46.30143" lon="7.86643"><ele>642.4</ele><time>2016-08-06T14:52:49Z</time></trkpt>
<trkpt lat="46.30139" lon="7.86644"><ele>642.2</ele><time>2016-08-06T14:52:50Z</time></trkpt>
<trkpt lat="46.3013" lon="7.86645"><ele>642</ele><time>2016-08-06T14:52:52Z</time></trkpt>
<trkpt lat="46.3012" lon="7.86646"><ele>642</ele><time>2016-08-06T14:52:54Z</time></trkpt>
<trkpt lat="46.30116" lon="7.86647"><ele>641.8</ele><time>2016-08-06T14:52:55Z</time></trkpt>
<trkpt lat="46.30111" lon="7.86648"><ele>641.8</ele><time>2016-08-06T14:52:56Z</time></trkpt>
<trkpt lat="46.30102" lon="7.86649"><ele>641.6</ele><time>2016-08-06T14:52:58Z</time></trkpt>
<trkpt lat="46.30097" lon="7.86649"><ele>641.6</ele><time>2016-08-06T14:52:59Z</time></trkpt>
<trkpt lat="46.30092" lon="7.86649"><ele>641.6</ele><time>2016-08-06T14:53:00Z</time></trkpt>
<trkpt lat="46.3008" lon="7.86648"><ele>641.4</ele><time>2016-08-06T14:53:02Z</time></trkpt>
<trkpt lat="46.30069" lon="7.86648"><ele>641.4</ele><time>2016-08-06T14:53:04Z</time></trkpt>
<trkpt lat="46.30058" lon="7.86647"><ele>641.2</ele><time>2016-08-06T14:53:06Z</time></trkpt>
<trkpt lat="46.30052" lon="7.86646"><ele>641.2</ele><time>2016-08-06T14:53:07Z</time></trkpt>
<trkpt lat="46.30046" lon="7.86644"><ele>641</ele><time>2016-08-06T14:53:08Z</time></trkpt>
<trkpt lat="46.30034" lon="7.86641"><ele>641</ele><time>2016-08-06T14:53:10Z</time></trkpt>
<trkpt lat="46.30021" lon="7.86643"><ele>640.8</ele><time>2016-08-06T14:53:12Z</time></trkpt>
<trkpt lat="46.30008" lon="7.86646"><ele>640.8</ele><time>2016-08-06T14:53:14Z</time></trkpt>
<trkpt lat="46.29995" lon="7.86648"><ele>640.6</ele><time>2016-08-06T14:53:16Z</time></trkpt>
<trkpt lat="46.29989" lon="7.86649"><ele>640.6</ele><time>2016-08-06T14:53:17Z</time></trkpt>
<trkpt lat="46.29981" lon="7.8665"><ele>640.4</ele><time>2016-08-06T14:53:18Z</time></trkpt>
<trkpt lat="46.29967" lon="7.8665"><ele>640.4</ele><time>2016-08-06T14:53:20Z</time></trkpt>
<trkpt lat="46.29952" lon="7.8665"><ele>640.2</ele><time>2016-08-06T14:53:22Z</time></trkpt>
<trkpt lat="46.29937" lon="7.8665"><ele>640.2</ele><time>2016-08-06T14:53:24Z</time></trkpt>
<trkpt lat="46.2992" lon="7.86651"><ele>640</ele><time>2016-08-06T14:53:26Z</time></trkpt>
<trkpt lat="46.29903" lon="7.86652"><ele>640</ele><time>2016-08-06T14:53:28Z</time></trkpt>
<trkpt lat="46.29886" lon="7.86653"><ele>639.8</ele><time>2016-08-06T14:53:30Z</time></trkpt>
<trkpt lat="46.29867" lon="7.86654"><ele>639.6</ele><time>2016-08-06T14:53:32Z</time></trkpt>
<trkpt lat="46.29848" lon="7.86656"><ele>639.6</ele><time>2016-08-06T14:53:34Z</time></trkpt>
<trkpt lat="46.29839" lon="7.86656"><ele>640</ele><time>2016-08-06T14:53:35Z</time></trkpt>
<trkpt lat="46.29829" lon="7.86657"><ele>640.4</ele><time>2016-08-06T14:53:36Z</time></trkpt>
<trkpt lat="46.2981" lon="7.86659"><ele>641</ele><time>2016-08-06T14:53:38Z</time></trkpt>
<trkpt lat="46.298" lon="7.8666"><ele>641.2</ele><time>2016-08-06T14:53:39Z</time></trkpt>
<trkpt lat="46.29791" lon="7.8666"><ele>641.4</ele><time>2016-08-06T14:53:40Z</time></trkpt>
<trkpt lat="46.29776" lon="7.86661"><ele>641.6</ele><time>2016-08-06T14:53:42Z</time></trkpt>
<trkpt lat="46.29761" lon="7.86662"><ele>641.8</ele><time>2016-08-06T14:53:44Z</time></trkpt>
<trkpt lat="46.29747" lon="7.86662"><ele>642.2</ele><time>2016-08-06T14:53:46Z</time></trkpt>
<trkpt lat="46.29735" lon="7.86663"><ele>642.4</ele><time>2016-08-06T14:53:48Z</time></trkpt>
<trkpt lat="46.29723" lon="7.86663"><ele>642.6</ele><time>2016-08-06T14:53:50Z</time></trkpt>
<trkpt lat="46.29711" lon="7.86664"><ele>642.8</ele><time>2016-08-06T14:53:52Z</time></trkpt>
<trkpt lat="46.29701" lon="7.86665"><ele>643.2</ele><time>2016-08-06T14:53:54Z</time></trkpt>
<trkpt lat="46.29692" lon="7.86666"><ele>643.4</ele><time>2016-08-06T14:53:56Z</time></trkpt>
<trkpt lat="46.29682" lon="7.86668"><ele>643.6</ele><time>2016-08-06T14:53:58Z</time></trkpt>
<trkpt lat="46.29678" lon="7.86667"><ele>643.8</ele><time>2016-08-06T14:53:59Z</time></trkpt>
<trkpt lat="46.29675" lon="7.86664"><ele>643.8</ele><time>2016-08-06T14:54:00Z</time></trkpt>
<trkpt lat="46.29673" lon="7.8666"><ele>644</ele><time>2016-08-06T14:54:01Z</time></trkpt>
<trkpt lat="46.29675" lon="7.86652"><ele>644.2</ele><time>2016-08-06T14:54:02Z</time></trkpt>
<trkpt lat="46.29677" lon="7.86636"><ele>644.4</ele><time>2016-08-06T14:54:04Z</time></trkpt>
<trkpt lat="46.29679" lon="7.8662"><ele>644.6</ele><time>2016-08-06T14:54:06Z</time></trkpt>
<trkpt lat="46.29682" lon="7.86604"><ele>644.8</ele><time>2016-08-06T14:54:08Z</time></trkpt>
<trkpt lat="46.29684" lon="7.86587"><ele>645.2</ele><time>2016-08-06T14:54:10Z</time></trkpt>
<trkpt lat="46.29688" lon="7.86569"><ele>645.4</ele><time>2016-08-06T14:54:12Z</time></trkpt>
<trkpt lat="46.29692" lon="7.86551"><ele>645.6</ele><time>2016-08-06T14:54:14Z</time></trkpt>
<trkpt lat="46.29695" lon="7.86532"><ele>645.8</ele><time>2016-08-06T14:54:16Z</time></trkpt>
<trkpt lat="46.29697" lon="7.86523"><ele>646</ele><time>2016-08-06T14:54:17Z</time></trkpt>
<trkpt lat="46.29699" lon="7.86513"><ele>646</ele><time>2016-08-06T14:54:18Z</time></trkpt>
<trkpt lat="46.29702" lon="7.86494"><ele>646</ele><time>2016-08-06T14:54:20Z</time></trkpt>
<trkpt lat="46.29705" lon="7.86475"><ele>646</ele><time>2016-08-06T14:54:22Z</time></trkpt>
<trkpt lat="46.29709" lon="7.86456"><ele>646.2</ele><time>2016-08-06T14:54:24Z</time></trkpt>
<trkpt lat="46.29712" lon="7.86436"><ele>646.2</ele><time>2016-08-06T14:54:26Z</time></trkpt>
<trkpt lat="46.29715" lon="7.86416"><ele>646.2</ele><time>2016-08-06T14:54:28Z</time></trkpt>
<trkpt lat="46.29719" lon="7.86396"><ele>646.2</ele><time>2016-08-06T14:54:30Z</time></trkpt>
<trkpt lat="46.29721" lon="7.86386"><ele>646.2</ele><time>2016-08-06T14:54:31Z</time></trkpt>
<trkpt lat="46.29722" lon="7.86377"><ele>646.2</ele><time>2016-08-06T14:54:32Z</time></trkpt>
<trkpt lat="46.29725" lon="7.86357"><ele>646.4</ele><time>2016-08-06T14:54:34Z</time></trkpt>
<trkpt lat="46.29726" lon="7.86347"><ele>646.4</ele><time>2016-08-06T14:54:35Z</time></trkpt>
<trkpt lat="46.29725" lon="7.86337"><ele>646.4</ele><time>2016-08-06T14:54:36Z</time></trkpt>
<trkpt lat="46.29723" lon="7.86317"><ele>646.4</ele><time>2016-08-06T14:54:38Z</time></trkpt>
<trkpt lat="46.29721" lon="7.86296"><ele>646.4</ele><time>2016-08-06T14:54:40Z</time></trkpt>
<trkpt lat="46.29723" lon="7.86287"><ele>646.4</ele><time>2016-08-06T14:54:41Z</time></trkpt>
<trkpt lat="46.29728" lon="7.86279"><ele>646.4</ele><time>2016-08-06T14:54:42Z</time></trkpt>
<trkpt lat="46.29734" lon="7.86272"><ele>646.4</ele><time>2016-08-06T14:54:43Z</time></trkpt>
<trkpt lat="46.29741" lon="7.86266"><ele>646.6</ele><time>2016-08-06T14:54:44Z</time></trkpt>
<trkpt lat="46.29754" lon="7.86253"><ele>646.6</ele><time>2016-08-06T14:54:46Z</time></trkpt>
<trkpt lat="46.29763" lon="7.86238"><ele>646.6</ele><time>2016-08-06T14:54:48Z</time></trkpt>
<trkpt lat="46.29771" lon="7.86223"><ele>646.6</ele><time>2016-08-06T14:54:50Z</time></trkpt>
<trkpt lat="46.2978" lon="7.86208"><ele>646.6</ele><time>2016-08-06T14:54:52Z</time></trkpt>
<trkpt lat="46.29792" lon="7.86198"><ele>646.8</ele><time>2016-08-06T14:54:54Z</time></trkpt>
<trkpt lat="46.29798" lon="7.86193"><ele>646.6</ele><time>2016-08-06T14:54:55Z</time></trkpt>
<trkpt lat="46.29805" lon="7.8619"><ele>646.6</ele><time>2016-08-06T14:54:56Z</time></trkpt>
<trkpt lat="46.29812" lon="7.86188"><ele>646.4</ele><time>2016-08-06T14:54:57Z</time></trkpt>
<trkpt lat="46.29819" lon="7.86187"><ele>646.2</ele><time>2016-08-06T14:54:58Z</time></trkpt>
<trkpt lat="46.29833" lon="7.86184"><ele>646</ele><time>2016-08-06T14:55:00Z</time></trkpt>
<trkpt lat="46.2984" lon="7.86182"><ele>645.8</ele><time>2016-08-06T14:55:01Z</time></trkpt>
<trkpt lat="46.29847" lon="7.86181"><ele>645.8</ele><time>2016-08-06T14:55:02Z</time></trkpt>
<trkpt lat="46.29861" lon="7.86178"><ele>645.6</ele><time>2016-08-06T14:55:04Z</time></trkpt>
<trkpt lat="46.29874" lon="7.86174"><ele>645.4</ele><time>2016-08-06T14:55:06Z</time></trkpt>
<trkpt lat="46.2988" lon="7.86171"><ele>645.4</ele><time>2016-08-06T14:55:07Z</time></trkpt>
<trkpt lat="46.29882" lon="7.86169"><ele>645.4</ele><time>2016-08-06T14:55:08Z</time></trkpt>
<trkpt lat="46.29885" lon="7.86167"><ele>645.2</ele><time>2016-08-06T14:55:09Z</time></trkpt>
<trkpt lat="46.29892" lon="7.86165"><ele>645.2</ele><time>2016-08-06T14:55:10Z</time></trkpt>
<trkpt lat="46.29908" lon="7.86161"><ele>645</ele><time>2016-08-06T14:55:12Z</time></trkpt>
<trkpt lat="46.29924" lon="7.86157"><ele>645</ele><time>2016-08-06T14:55:14Z</time></trkpt>
<trkpt lat="46.29931" lon="7.86155"><ele>644.8</ele><time>2016-08-06T14:55:15Z</time></trkpt>
<trkpt lat="46.29937" lon="7.86153"><ele>644.8</ele><time>2016-08-06T14:55:16Z</time></trkpt>
<trkpt lat="46.2995" lon="7.86149"><ele>644.6</ele><time>2016-08-06T14:55:18Z</time></trkpt>
<trkpt lat="46.29963" lon="7.86145"><ele>644.4</ele><time>2016-08-06T14:55:20Z</time></trkpt>
<trkpt lat="46.29976" lon="7.8614"><ele>644.4</ele><time>2016-08-06T14:55:22Z</time></trkpt>
<trkpt lat="46.29989" lon="7.86134"><ele>644.2</ele><time>2016-08-06T14:55:24Z</time></trkpt>
<trkpt lat="46.30001" lon="7.86127"><ele>644</ele><time>2016-08-06T14:55:26Z</time></trkpt>
<trkpt lat="46.30014" lon="7.8612"><ele>644</ele><time>2016-08-06T14:55:28Z</time></trkpt>
<trkpt lat="46.30021" lon="7.86117"><ele>643.8</ele><time>2016-08-06T14:55:29Z</time></trkpt>
<trkpt lat="46.30026" lon="7.86112"><ele>643.8</ele><time>2016-08-06T14:55:30Z</time></trkpt>
<trkpt lat="46.3003" lon="7.86107"><ele>643.6</ele><time>2016-08-06T14:55:31Z</time></trkpt>
<trkpt lat="46.30031" lon="7.86099"><ele>643.6</ele><time>2016-08-06T14:55:32Z</time></trkpt>
<trkpt lat="46.3003" lon="7.86091"><ele>643.6</ele><time>2016-08-06T14:55:33Z</time></trkpt>
<trkpt lat="46.30027" lon="7.86082"><ele>643.4</ele><time>2016-08-06T14:55:34Z</time></trkpt>
<trkpt lat="46.30021" lon="7.86065"><ele>643.6</ele><time>2016-08-06T14:55:36Z</time></trkpt>
<trkpt lat="46.30015" lon="7.86047"><ele>643.6</ele><time>2016-08-06T14:55:38Z</time></trkpt>
<trkpt lat="46.3001" lon="7.8603"><ele>643.6</ele><time>2016-08-06T14:55:40Z</time></trkpt>
<trkpt lat="46.30003" lon="7.86012"><ele>643.4</ele><time>2016-08-06T14:55:42Z</time></trkpt>
<trkpt lat="46.29997" lon="7.85994"><ele>643.4</ele><time>2016-08-06T14:55:44Z</time></trkpt>
<trkpt lat="46.2999" lon="7.85975"><ele>643.4</ele><time>2016-08-06T14:55:46Z</time></trkpt>
<trkpt lat="46.29987" lon="7.85966"><ele>643.2</ele><time>2016-08-06T14:55:47Z</time></trkpt>
<trkpt lat="46.29984" lon="7.85957"><ele>643.2</ele><time>2016-08-06T14:55:48Z</time></trkpt>
<trkpt lat="46.29977" lon="7.85939"><ele>643.2</ele><time>2016-08-06T14:55:50Z</time></trkpt>
<trkpt lat="46.29971" lon="7.85921"><ele>643</ele><time>2016-08-06T14:55:52Z</time></trkpt>
<trkpt lat="46.29965" lon="7.85902"><ele>643</ele><time>2016-08-06T14:55:54Z</time></trkpt>
<trkpt lat="46.29963" lon="7.85883"><ele>643</ele><time>2016-08-06T14:55:56Z</time></trkpt>
<trkpt lat="46.29962" lon="7.85873"><ele>643</ele><time>2016-08-06T14:55:57Z</time></trkpt>
<trkpt lat="46.29964" lon="7.85864"><ele>642.8</ele><time>2016-08-06T14:55:58Z</time></trkpt>
<trkpt lat="46.29966" lon="7.85844"><ele>642.8</ele><time>2016-08-06T14:56:00Z</time></trkpt>
<trkpt lat="46.29969" lon="7.85824"><ele>642.8</ele><time>2016-08-06T14:56:02Z</time></trkpt>
<trkpt lat="46.29973" lon="7.85804"><ele>642.6</ele><time>2016-08-06T14:56:04Z</time></trkpt>
<trkpt lat="46.2998" lon="7.85788"><ele>642.6</ele><time>2016-08-06T14:56:06Z</time></trkpt>
<trkpt lat="46.29984" lon="7.85781"><ele>642.6</ele><time>2016-08-06T14:56:07Z</time></trkpt>
<trkpt lat="46.29991" lon="7.85781"><ele>642.6</ele><time>2016-08-06T14:56:08Z</time></trkpt>
<trkpt lat="46.30005" lon="7.85779"><ele>642.4</ele><time>2016-08-06T14:56:10Z</time></trkpt>
<trkpt lat="46.30018" lon="7.85777"><ele>642.4</ele><time>2016-08-06T14:56:12Z</time></trkpt>
<trkpt lat="46.30032" lon="7.85776"><ele>642.4</ele><time>2016-08-06T14:56:14Z</time></trkpt>
<trkpt lat="46.30046" lon="7.85776"><ele>642.2</ele><time>2016-08-06T14:56:16Z</time></trkpt>
<trkpt lat="46.3006" lon="7.85775"><ele>642.2</ele><time>2016-08-06T14:56:18Z</time></trkpt>
<trkpt lat="46.30075" lon="7.85775"><ele>642.2</ele><time>2016-08-06T14:56:20Z</time></trkpt>
<trkpt lat="46.30082" lon="7.85775"><ele>642</ele><time>2016-08-06T14:56:21Z</time></trkpt>
<trkpt lat="46.30089" lon="7.85775"><ele>642</ele><time>2016-08-06T14:56:22Z</time></trkpt>
<trkpt lat="46.30102" lon="7.85775"><ele>642</ele><time>2016-08-06T14:56:24Z</time></trkpt>
<trkpt lat="46.30116" lon="7.85775"><ele>642</ele><time>2016-08-06T14:56:26Z</time></trkpt>
<trkpt lat="46.30123" lon="7.85775"><ele>641.8</ele><time>2016-08-06T14:56:27Z</time></trkpt>
<trkpt lat="46.3013" lon="7.85772"><ele>641.8</ele><time>2016-08-06T14:56:28Z</time></trkpt>
<trkpt lat="46.30144" lon="7.85768"><ele>641.8</ele><time>2016-08-06T14:56:30Z</time></trkpt>
<trkpt lat="46.30158" lon="7.85763"><ele>641.8</ele><time>2016-08-06T14:56:32Z</time></trkpt>
<trkpt lat="46.30172" lon="7.85758"><ele>641.6</ele><time>2016-08-06T14:56:34Z</time></trkpt>
<trkpt lat="46.30185" lon="7.85752"><ele>641.6</ele><time>2016-08-06T14:56:36Z</time></trkpt>
<trkpt lat="46.30199" lon="7.85746"><ele>641.4</ele><time>2016-08-06T14:56:38Z</time></trkpt>
<trkpt lat="46.30205" lon="7.85743"><ele>641.4</ele><time>2016-08-06T14:56:39Z</time></trkpt>
<trkpt lat="46.30211" lon="7.85737"><ele>641.4</ele><time>2016-08-06T14:56:40Z</time></trkpt>
<trkpt lat="46.30222" lon="7.85726"><ele>641.4</ele><time>2016-08-06T14:56:42Z</time></trkpt>
<trkpt lat="46.30229" lon="7.85709"><ele>641.2</ele><time>2016-08-06T14:56:44Z</time></trkpt>
<trkpt lat="46.30236" lon="7.85692"><ele>641.2</ele><time>2016-08-06T14:56:46Z</time></trkpt>
<trkpt lat="46.30243" lon="7.85675"><ele>641.2</ele><time>2016-08-06T14:56:48Z</time></trkpt>
<trkpt lat="46.30246" lon="7.85666"><ele>641.2</ele><time>2016-08-06T14:56:49Z</time></trkpt>
<trkpt lat="46.30249" lon="7.85658"><ele>641</ele><time>2016-08-06T14:56:50Z</time></trkpt>
<trkpt lat="46.30252" lon="7.8565"><ele>641</ele><time>2016-08-06T14:56:51Z</time></trkpt>
<trkpt lat="46.30255" lon="7.85641"><ele>641</ele><time>2016-08-06T14:56:52Z</time></trkpt>
<trkpt lat="46.3026" lon="7.85625"><ele>641</ele><time>2016-08-06T14:56:54Z</time></trkpt>
<trkpt lat="46.30266" lon="7.85609"><ele>640.8</ele><time>2016-08-06T14:56:56Z</time></trkpt>
<trkpt lat="46.30269" lon="7.856"><ele>640.8</ele><time>2016-08-06T14:56:57Z</time></trkpt>
<trkpt lat="46.30272" lon="7.85592"><ele>640.8</ele><time>2016-08-06T14:56:58Z</time></trkpt>
<trkpt lat="46.30277" lon="7.85577"><ele>640.8</ele><time>2016-08-06T14:57:00Z</time></trkpt>
<trkpt lat="46.30283" lon="7.85561"><ele>640.6</ele><time>2016-08-06T14:57:02Z</time></trkpt>
<trkpt lat="46.30288" lon="7.85545"><ele>640.6</ele><time>2016-08-06T14:57:04Z</time></trkpt>
<trkpt lat="46.3029" lon="7.85537"><ele>640.6</ele><time>2016-08-06T14:57:05Z</time></trkpt>
<trkpt lat="46.3029" lon="7.85528"><ele>640.6</ele><time>2016-08-06T14:57:06Z</time></trkpt>
<trkpt lat="46.30289" lon="7.85509"><ele>640.4</ele><time>2016-08-06T14:57:08Z</time></trkpt>
<trkpt lat="46.30288" lon="7.85491"><ele>640.4</ele><time>2016-08-06T14:57:10Z</time></trkpt>
<trkpt lat="46.30288" lon="7.85473"><ele>640.4</ele><time>2016-08-06T14:57:12Z</time></trkpt>
<trkpt lat="46.30287" lon="7.85464"><ele>640.2</ele><time>2016-08-06T14:57:13Z</time></trkpt>
<trkpt lat="46.30286" lon="7.85455"><ele>640.2</ele><time>2016-08-06T14:57:14Z</time></trkpt>
<trkpt lat="46.30285" lon="7.85436"><ele>640.2</ele><time>2016-08-06T14:57:16Z</time></trkpt>
<trkpt lat="46.30283" lon="7.85417"><ele>640.2</ele><time>2016-08-06T14:57:18Z</time></trkpt>
<trkpt lat="46.30281" lon="7.85409"><ele>640</ele><time>2016-08-06T14:57:19Z</time></trkpt>
<trkpt lat="46.30278" lon="7.85406"><ele>640</ele><time>2016-08-06T14:57:20Z</time></trkpt>
<trkpt lat="46.30264" lon="7.85408"><ele>640</ele><time>2016-08-06T14:57:22Z</time></trkpt>
<trkpt lat="46.30251" lon="7.85409"><ele>639.8</ele><time>2016-08-06T14:57:24Z</time></trkpt>
<trkpt lat="46.30244" lon="7.8541"><ele>639.8</ele><time>2016-08-06T14:57:25Z</time></trkpt>
<trkpt lat="46.30238" lon="7.8541"><ele>639.8</ele><time>2016-08-06T14:57:26Z</time></trkpt>
<trkpt lat="46.30231" lon="7.85411"><ele>639.8</ele><time>2016-08-06T14:57:27Z</time></trkpt>
<trkpt lat="46.30225" lon="7.85412"><ele>639.8</ele><time>2016-08-06T14:57:28Z</time></trkpt>
<trkpt lat="46.30213" lon="7.85414"><ele>639.8</ele><time>2016-08-06T14:57:30Z</time></trkpt>
<trkpt lat="46.30208" lon="7.85414"><ele>639.8</ele><time>2016-08-06T14:57:31Z</time></trkpt>
<trkpt lat="46.30203" lon="7.85411"><ele>639.8</ele><time>2016-08-06T14:57:32Z</time></trkpt>
<trkpt lat="46.30197" lon="7.85395"><ele>639.8</ele><time>2016-08-06T14:57:34Z</time></trkpt>
<trkpt lat="46.30194" lon="7.85374"><ele>639.8</ele><time>2016-08-06T14:57:36Z</time></trkpt>
<trkpt lat="46.30192" lon="7.85365"><ele>639.8</ele><time>2016-08-06T14:57:37Z</time></trkpt>
<trkpt lat="46.30188" lon="7.85357"><ele>639.8</ele><time>2016-08-06T14:57:38Z</time></trkpt>
<trkpt lat="46.3018" lon="7.85341"><ele>639.8</ele><time>2016-08-06T14:57:40Z</time></trkpt>
<trkpt lat="46.30173" lon="7.85325"><ele>639.8</ele><time>2016-08-06T14:57:42Z</time></trkpt>
<trkpt lat="46.30169" lon="7.85317"><ele>639.6</ele><time>2016-08-06T14:57:43Z</time></trkpt>
<trkpt lat="46.30167" lon="7.85309"><ele>639.6</ele><time>2016-08-06T14:57:44Z</time></trkpt>
<trkpt lat="46.30162" lon="7.85292"><ele>639.6</ele><time>2016-08-06T14:57:46Z</time></trkpt>
<trkpt lat="46.30158" lon="7.85284"><ele>639.6</ele><time>2016-08-06T14:57:47Z</time></trkpt>
<trkpt lat="46.30154" lon="7.85276"><ele>639.6</ele><time>2016-08-06T14:57:48Z</time></trkpt>
<trkpt lat="46.30149" lon="7.85268"><ele>639.6</ele><time>2016-08-06T14:57:49Z</time></trkpt>
<trkpt lat="46.30143" lon="7.85263"><ele>639.6</ele><time>2016-08-06T14:57:50Z</time></trkpt>
<trkpt lat="46.3013" lon="7.85253"><ele>639.6</ele><time>2016-08-06T14:57:52Z</time></trkpt>
<trkpt lat="46.30118" lon="7.85242"><ele>639.6</ele><time>2016-08-06T14:57:54Z</time></trkpt>
<trkpt lat="46.30106" lon="7.85231"><ele>639.6</ele><time>2016-08-06T14:57:56Z</time></trkpt>
<trkpt lat="46.30093" lon="7.85221"><ele>639.6</ele><time>2016-08-06T14:57:58Z</time></trkpt>
<trkpt lat="46.30081" lon="7.85211"><ele>639.4</ele><time>2016-08-06T14:58:00Z</time></trkpt>
<trkpt lat="46.30069" lon="7.85201"><ele>639.4</ele><time>2016-08-06T14:58:02Z</time></trkpt>
<trkpt lat="46.30062" lon="7.85196"><ele>639.4</ele><time>2016-08-06T14:58:03Z</time></trkpt>
<trkpt lat="46.30056" lon="7.8519"><ele>639.4</ele><time>2016-08-06T14:58:04Z</time></trkpt>
<trkpt lat="46.30043" lon="7.85177"><ele>639.4</ele><time>2016-08-06T14:58:06Z</time></trkpt>
<trkpt lat="46.3003" lon="7.85165"><ele>639.4</ele><time>2016-08-06T14:58:08Z</time></trkpt>
<trkpt lat="46.30024" lon="7.85159"><ele>639.4</ele><time>2016-08-06T14:58:09Z</time></trkpt>
<trkpt lat="46.30018" lon="7.85153"><ele>639.4</ele><time>2016-08-06T14:58:10Z</time></trkpt>
<trkpt lat="46.30005" lon="7.85142"><ele>639.4</ele><time>2016-08-06T14:58:12Z</time></trkpt>
<trkpt lat="46.29992" lon="7.8513"><ele>639.4</ele><time>2016-08-06T14:58:14Z</time></trkpt>
<trkpt lat="46.2998" lon="7.85119"><ele>639.4</ele><time>2016-08-06T14:58:16Z</time></trkpt>
<trkpt lat="46.29972" lon="7.85107"><ele>639.2</ele><time>2016-08-06T14:58:18Z</time></trkpt>
<trkpt lat="46.29968" lon="7.85101"><ele>639.2</ele><time>2016-08-06T14:58:19Z</time></trkpt>
<trkpt lat="46.29962" lon="7.85094"><ele>639.2</ele><time>2016-08-06T14:58:20Z</time></trkpt>
<trkpt lat="46.2995" lon="7.85081"><ele>639.2</ele><time>2016-08-06T14:58:22Z</time></trkpt>
<trkpt lat="46.29938" lon="7.85068"><ele>639.2</ele><time>2016-08-06T14:58:24Z</time></trkpt>
<trkpt lat="46.29926" lon="7.85055"><ele>639.2</ele><time>2016-08-06T14:58:26Z</time></trkpt>
<trkpt lat="46.29915" lon="7.85042"><ele>639.2</ele><time>2016-08-06T14:58:28Z</time></trkpt>
<trkpt lat="46.29904" lon="7.85028"><ele>639.2</ele><time>2016-08-06T14:58:30Z</time></trkpt>
<trkpt lat="46.29892" lon="7.85015"><ele>639.2</ele><time>2016-08-06T14:58:32Z</time></trkpt>
<trkpt lat="46.29887" lon="7.85008"><ele>639.2</ele><time>2016-08-06T14:58:33Z</time></trkpt>
<trkpt lat="46.29881" lon="7.85003"><ele>639.2</ele><time>2016-08-06T14:58:34Z</time></trkpt>
<trkpt lat="46.29869" lon="7.84992"><ele>639</ele><time>2016-08-06T14:58:36Z</time></trkpt>
<trkpt lat="46.29858" lon="7.8498"><ele>639</ele><time>2016-08-06T14:58:38Z</time></trkpt>
<trkpt lat="46.29846" lon="7.84969"><ele>639</ele><time>2016-08-06T14:58:40Z</time></trkpt>
<trkpt lat="46.29838" lon="7.84951"><ele>639</ele><time>2016-08-06T14:58:42Z</time></trkpt>
<trkpt lat="46.29836" lon="7.8493"><ele>639</ele><time>2016-08-06T14:58:44Z</time></trkpt>
<trkpt lat="46.29835" lon="7.84919"><ele>639</ele><time>2016-08-06T14:58:45Z</time></trkpt>
<trkpt lat="46.29836" lon="7.8491"><ele>639</ele><time>2016-08-06T14:58:46Z</time></trkpt>
<trkpt lat="46.29839" lon="7.84891"><ele>639</ele><time>2016-08-06T14:58:48Z</time></trkpt>
<trkpt lat="46.29841" lon="7.84872"><ele>639</ele><time>2016-08-06T14:58:50Z</time></trkpt>
<trkpt lat="46.29843" lon="7.84853"><ele>639</ele><time>2016-08-06T14:58:52Z</time></trkpt>
<trkpt lat="46.29845" lon="7.84835"><ele>638.8</ele><time>2016-08-06T14:58:54Z</time></trkpt>
<trkpt lat="46.29847" lon="7.84816"><ele>638.8</ele><time>2016-08-06T14:58:56Z</time></trkpt>
<trkpt lat="46.29849" lon="7.84797"><ele>638.8</ele><time>2016-08-06T14:58:58Z</time></trkpt>
<trkpt lat="46.2985" lon="7.84788"><ele>638.8</ele><time>2016-08-06T14:58:59Z</time></trkpt>
<trkpt lat="46.29851" lon="7.84778"><ele>638.8</ele><time>2016-08-06T14:59:00Z</time></trkpt>
<trkpt lat="46.29852" lon="7.8476"><ele>638.8</ele><time>2016-08-06T14:59:02Z</time></trkpt>
<trkpt lat="46.29853" lon="7.84741"><ele>638.8</ele><time>2016-08-06T14:59:04Z</time></trkpt>
<trkpt lat="46.29855" lon="7.84722"><ele>638.8</ele><time>2016-08-06T14:59:06Z</time></trkpt>
<trkpt lat="46.29855" lon="7.84705"><ele>638.8</ele><time>2016-08-06T14:59:08Z</time></trkpt>
<trkpt lat="46.29856" lon="7.84687"><ele>638.6</ele><time>2016-08-06T14:59:10Z</time></trkpt>
<trkpt lat="46.29857" lon="7.8467"><ele>638.6</ele><time>2016-08-06T14:59:12Z</time></trkpt>
<trkpt lat="46.29858" lon="7.84653"><ele>638.6</ele><time>2016-08-06T14:59:14Z</time></trkpt>
<trkpt lat="46.2986" lon="7.84635"><ele>638.6</ele><time>2016-08-06T14:59:16Z</time></trkpt>
<trkpt lat="46.29861" lon="7.84618"><ele>638.6</ele><time>2016-08-06T14:59:18Z</time></trkpt>
<trkpt lat="46.29862" lon="7.84601"><ele>638.6</ele><time>2016-08-06T14:59:20Z</time></trkpt>
<trkpt lat="46.29864" lon="7.84583"><ele>638.6</ele><time>2016-08-06T14:59:22Z</time></trkpt>
<trkpt lat="46.29865" lon="7.84566"><ele>638.6</ele><time>2016-08-06T14:59:24Z</time></trkpt>
<trkpt lat="46.29866" lon="7.84548"><ele>638.6</ele><time>2016-08-06T14:59:26Z</time></trkpt>
<trkpt lat="46.29868" lon="7.84531"><ele>638.4</ele><time>2016-08-06T14:59:28Z</time></trkpt>
<trkpt lat="46.29869" lon="7.84511"><ele>638.4</ele><time>2016-08-06T14:59:30Z</time></trkpt>
<trkpt lat="46.2987" lon="7.84492"><ele>638.4</ele><time>2016-08-06T14:59:32Z</time></trkpt>
<trkpt lat="46.29871" lon="7.84473"><ele>638.4</ele><time>2016-08-06T14:59:34Z</time></trkpt>
<trkpt lat="46.29873" lon="7.84455"><ele>638.4</ele><time>2016-08-06T14:59:36Z</time></trkpt>
<trkpt lat="46.29875" lon="7.84437"><ele>638.4</ele><time>2016-08-06T14:59:38Z</time></trkpt>
<trkpt lat="46.29877" lon="7.8442"><ele>638.4</ele><time>2016-08-06T14:59:40Z</time></trkpt>
<trkpt lat="46.29878" lon="7.84401"><ele>638.4</ele><time>2016-08-06T14:59:42Z</time></trkpt>
<trkpt lat="46.29879" lon="7.84382"><ele>638.4</ele><time>2016-08-06T14:59:44Z</time></trkpt>
<trkpt lat="46.29879" lon="7.84363"><ele>638.2</ele><time>2016-08-06T14:59:46Z</time></trkpt>
<trkpt lat="46.2988" lon="7.84344"><ele>638.2</ele><time>2016-08-06T14:59:48Z</time></trkpt>
<trkpt lat="46.2988" lon="7.84334"><ele>638.2</ele><time>2016-08-06T14:59:49Z</time></trkpt>
<trkpt lat="46.29881" lon="7.84324"><ele>638.2</ele><time>2016-08-06T14:59:50Z</time></trkpt>
<trkpt lat="46.29882" lon="7.84305"><ele>638.2</ele><time>2016-08-06T14:59:52Z</time></trkpt>
<trkpt lat="46.29884" lon="7.84286"><ele>638.2</ele><time>2016-08-06T14:59:54Z</time></trkpt>
<trkpt lat="46.29885" lon="7.84267"><ele>638.2</ele><time>2016-08-06T14:59:56Z</time></trkpt>
<trkpt lat="46.29887" lon="7.84249"><ele>638.2</ele><time>2016-08-06T14:59:58Z</time></trkpt>
<trkpt lat="46.29889" lon="7.84231"><ele>638.2</ele><time>2016-08-06T15:00:00Z</time></trkpt>
<trkpt lat="46.29891" lon="7.84213"><ele>638</ele><time>2016-08-06T15:00:02Z</time></trkpt>
<trkpt lat="46.29893" lon="7.84194"><ele>638</ele><time>2016-08-06T15:00:04Z</time></trkpt>
<trkpt lat="46.29894" lon="7.84176"><ele>638</ele><time>2016-08-06T15:00:06Z</time></trkpt>
<trkpt lat="46.29895" lon="7.84157"><ele>638</ele><time>2016-08-06T15:00:08Z</time></trkpt>
<trkpt lat="46.29896" lon="7.84138"><ele>638</ele><time>2016-08-06T15:00:10Z</time></trkpt>
<trkpt lat="46.29897" lon="7.84128"><ele>638</ele><time>2016-08-06T15:00:11Z</time></trkpt>
<trkpt lat="46.29897" lon="7.84119"><ele>638</ele><time>2016-08-06T15:00:12Z</time></trkpt>
<trkpt lat="46.29898" lon="7.841"><ele>638</ele><time>2016-08-06T15:00:14Z</time></trkpt>
<trkpt lat="46.29899" lon="7.84081"><ele>638</ele><time>2016-08-06T15:00:16Z</time></trkpt>
<trkpt lat="46.299" lon="7.84062"><ele>638</ele><time>2016-08-06T15:00:18Z</time></trkpt>
<trkpt lat="46.29902" lon="7.84044"><ele>637.8</ele><time>2016-08-06T15:00:20Z</time></trkpt>
<trkpt lat="46.29903" lon="7.84025"><ele>637.8</ele><time>2016-08-06T15:00:22Z</time></trkpt>
<trkpt lat="46.29904" lon="7.84007"><ele>637.8</ele><time>2016-08-06T15:00:24Z</time></trkpt>
<trkpt lat="46.29905" lon="7.83988"><ele>637.8</ele><time>2016-08-06T15:00:26Z</time></trkpt>
<trkpt lat="46.29907" lon="7.83969"><ele>637.8</ele><time>2016-08-06T15:00:28Z</time></trkpt>
<trkpt lat="46.29908" lon="7.83949"><ele>637.8</ele><time>2016-08-06T15:00:30Z</time></trkpt>
<trkpt lat="46.2991" lon="7.8393"><ele>637.8</ele><time>2016-08-06T15:00:32Z</time></trkpt>
<trkpt lat="46.29911" lon="7.8392"><ele>637.8</ele><time>2016-08-06T15:00:33Z</time></trkpt>
<trkpt lat="46.29911" lon="7.83911"><ele>637.8</ele><time>2016-08-06T15:00:34Z</time></trkpt>
<trkpt lat="46.29912" lon="7.83892"><ele>637.8</ele><time>2016-08-06T15:00:36Z</time></trkpt>
<trkpt lat="46.29912" lon="7.83873"><ele>637.6</ele><time>2016-08-06T15:00:38Z</time></trkpt>
<trkpt lat="46.29913" lon="7.83854"><ele>637.6</ele><time>2016-08-06T15:00:40Z</time></trkpt>
<trkpt lat="46.29915" lon="7.83836"><ele>637.6</ele><time>2016-08-06T15:00:42Z</time></trkpt>
<trkpt lat="46.29916" lon="7.83817"><ele>637.6</ele><time>2016-08-06T15:00:44Z</time></trkpt>
<trkpt lat="46.29917" lon="7.83799"><ele>637.6</ele><time>2016-08-06T15:00:46Z</time></trkpt>
<trkpt lat="46.29918" lon="7.8379"><ele>637.6</ele><time>2016-08-06T15:00:47Z</time></trkpt>
<trkpt lat="46.29919" lon="7.8378"><ele>637.6</ele><time>2016-08-06T15:00:48Z</time></trkpt>
<trkpt lat="46.29921" lon="7.83762"><ele>637.6</ele><time>2016-08-06T15:00:50Z</time></trkpt>
<trkpt lat="46.29922" lon="7.83743"><ele>637.6</ele><time>2016-08-06T15:00:52Z</time></trkpt>
<trkpt lat="46.29924" lon="7.83724"><ele>637.4</ele><time>2016-08-06T15:00:54Z</time></trkpt>
<trkpt lat="46.29925" lon="7.83705"><ele>637.4</ele><time>2016-08-06T15:00:56Z</time></trkpt>
<trkpt lat="46.29927" lon="7.83685"><ele>637.4</ele><time>2016-08-06T15:00:58Z</time></trkpt>
<trkpt lat="46.29928" lon="7.83666"><ele>637.4</ele><time>2016-08-06T15:01:00Z</time></trkpt>
<trkpt lat="46.29929" lon="7.83656"><ele>637.4</ele><time>2016-08-06T15:01:01Z</time></trkpt>
<trkpt lat="46.2993" lon="7.83648"><ele>637.4</ele><time>2016-08-06T15:01:02Z</time></trkpt>
<trkpt lat="46.29932" lon="7.83631"><ele>637.4</ele><time>2016-08-06T15:01:04Z</time></trkpt>
<trkpt lat="46.29933" lon="7.83615"><ele>637.4</ele><time>2016-08-06T15:01:06Z</time></trkpt>
<trkpt lat="46.29935" lon="7.83598"><ele>637.4</ele><time>2016-08-06T15:01:08Z</time></trkpt>
<trkpt lat="46.29936" lon="7.83589"><ele>637.4</ele><time>2016-08-06T15:01:09Z</time></trkpt>
<trkpt lat="46.29937" lon="7.83577"><ele>637.4</ele><time>2016-08-06T15:01:10Z</time></trkpt>
<trkpt lat="46.29938" lon="7.83554"><ele>637.2</ele><time>2016-08-06T15:01:12Z</time></trkpt>
<trkpt lat="46.2994" lon="7.83531"><ele>637.2</ele><time>2016-08-06T15:01:14Z</time></trkpt>
<trkpt lat="46.29941" lon="7.8352"><ele>637.2</ele><time>2016-08-06T15:01:15Z</time></trkpt>
<trkpt lat="46.29942" lon="7.8351"><ele>637.2</ele><time>2016-08-06T15:01:16Z</time></trkpt>
<trkpt lat="46.29944" lon="7.8349"><ele>637.2</ele><time>2016-08-06T15:01:18Z</time></trkpt>
<trkpt lat="46.29945" lon="7.8347"><ele>637.2</ele><time>2016-08-06T15:01:20Z</time></trkpt>
<trkpt lat="46.29947" lon="7.8345"><ele>637.2</ele><time>2016-08-06T15:01:22Z</time></trkpt>
<trkpt lat="46.29949" lon="7.83431"><ele>637.2</ele><time>2016-08-06T15:01:24Z</time></trkpt>
<trkpt lat="46.29951" lon="7.83411"><ele>637.2</ele><time>2016-08-06T15:01:26Z</time></trkpt>
<trkpt lat="46.29953" lon="7.83392"><ele>637.2</ele><time>2016-08-06T15:01:28Z</time></trkpt>
<trkpt lat="46.29953" lon="7.83383"><ele>637</ele><time>2016-08-06T15:01:29Z</time></trkpt>
<trkpt lat="46.29954" lon="7.83373"><ele>637</ele><time>2016-08-06T15:01:30Z</time></trkpt>
<trkpt lat="46.29955" lon="7.83353"><ele>637</ele><time>2016-08-06T15:01:32Z</time></trkpt>
<trkpt lat="46.29956" lon="7.83334"><ele>637</ele><time>2016-08-06T15:01:34Z</time></trkpt>
<trkpt lat="46.29957" lon="7.83314"><ele>637</ele><time>2016-08-06T15:01:36Z</time></trkpt>
<trkpt lat="46.29959" lon="7.83294"><ele>637</ele><time>2016-08-06T15:01:38Z</time></trkpt>
<trkpt lat="46.2996" lon="7.83275"><ele>637</ele><time>2016-08-06T15:01:40Z</time></trkpt>
<trkpt lat="46.29961" lon="7.83255"><ele>637</ele><time>2016-08-06T15:01:42Z</time></trkpt>
<trkpt lat="46.29962" lon="7.83245"><ele>637</ele><time>2016-08-06T15:01:43Z</time></trkpt>
<trkpt lat="46.29963" lon="7.83235"><ele>637</ele><time>2016-08-06T15:01:44Z</time></trkpt>
<trkpt lat="46.29966" lon="7.83217"><ele>636.8</ele><time>2016-08-06T15:01:46Z</time></trkpt>
<trkpt lat="46.2997" lon="7.83199"><ele>636.8</ele><time>2016-08-06T15:01:48Z</time></trkpt>
<trkpt lat="46.2998" lon="7.83191"><ele>636.8</ele><time>2016-08-06T15:01:50Z</time></trkpt>
<trkpt lat="46.29992" lon="7.83193"><ele>636.8</ele><time>2016-08-06T15:01:52Z</time></trkpt>
<trkpt lat="46.30004" lon="7.83195"><ele>636.8</ele><time>2016-08-06T15:01:54Z</time></trkpt>
<trkpt lat="46.30015" lon="7.83198"><ele>636.8</ele><time>2016-08-06T15:01:56Z</time></trkpt>
<trkpt lat="46.30027" lon="7.832"><ele>636.8</ele><time>2016-08-06T15:01:58Z</time></trkpt>
<trkpt lat="46.3004" lon="7.83203"><ele>636.8</ele><time>2016-08-06T15:02:00Z</time></trkpt>
<trkpt lat="46.30053" lon="7.83206"><ele>636.8</ele><time>2016-08-06T15:02:02Z</time></trkpt>
<trkpt lat="46.30059" lon="7.83207"><ele>636.6</ele><time>2016-08-06T15:02:03Z</time></trkpt>
<trkpt lat="46.30066" lon="7.83208"><ele>636.4</ele><time>2016-08-06T15:02:04Z</time></trkpt>
<trkpt lat="46.30072" lon="7.83209"><ele>636.2</ele><time>2016-08-06T15:02:05Z</time></trkpt>
<trkpt lat="46.30078" lon="7.83211"><ele>636</ele><time>2016-08-06T15:02:06Z</time></trkpt>
<trkpt lat="46.3009" lon="7.83218"><ele>635.6</ele><time>2016-08-06T15:02:08Z</time></trkpt>
<trkpt lat="46.30096" lon="7.83218"><ele>635.4</ele><time>2016-08-06T15:02:09Z</time></trkpt>
<trkpt lat="46.30101" lon="7.83218"><ele>635.6</ele><time>2016-08-06T15:02:10Z</time></trkpt>
<trkpt lat="46.30112" lon="7.83218"><ele>635.6</ele><time>2016-08-06T15:02:12Z</time></trkpt>
<trkpt lat="46.30122" lon="7.83218"><ele>635.8</ele><time>2016-08-06T15:02:14Z</time></trkpt>
<trkpt lat="46.30133" lon="7.83218"><ele>635.8</ele><time>2016-08-06T15:02:16Z</time></trkpt>
<trkpt lat="46.30138" lon="7.83218"><ele>636</ele><time>2016-08-06T15:02:17Z</time></trkpt>
<trkpt lat="46.30143" lon="7.83219"><ele>636</ele><time>2016-08-06T15:02:18Z</time></trkpt>
<trkpt lat="46.30152" lon="7.83221"><ele>636</ele><time>2016-08-06T15:02:20Z</time></trkpt>
<trkpt lat="46.30161" lon="7.83223"><ele>636.2</ele><time>2016-08-06T15:02:22Z</time></trkpt>
<trkpt lat="46.3017" lon="7.83225"><ele>636.4</ele><time>2016-08-06T15:02:24Z</time></trkpt>
<trkpt lat="46.30179" lon="7.83227"><ele>636.4</ele><time>2016-08-06T15:02:26Z</time></trkpt>
<trkpt lat="46.30183" lon="7.83227"><ele>636.6</ele><time>2016-08-06T15:02:27Z</time></trkpt>
<trkpt lat="46.30186" lon="7.83228"><ele>636.6</ele><time>2016-08-06T15:02:28Z</time></trkpt>
<trkpt lat="46.30193" lon="7.83229"><ele>636.8</ele><time>2016-08-06T15:02:30Z</time></trkpt>
<trkpt lat="46.30198" lon="7.83232"><ele>636.8</ele><time>2016-08-06T15:02:32Z</time></trkpt>
<trkpt lat="46.30201" lon="7.83233"><ele>637</ele><time>2016-08-06T15:02:33Z</time></trkpt>
<trkpt lat="46.30201" lon="7.83229"><ele>637</ele><time>2016-08-06T15:02:34Z</time></trkpt>
<trkpt lat="46.30194" lon="7.83227"><ele>637.2</ele><time>2016-08-06T15:02:36Z</time></trkpt>
<trkpt lat="46.30186" lon="7.83225"><ele>637.2</ele><time>2016-08-06T15:02:38Z</time></trkpt>
<trkpt lat="46.30178" lon="7.83223"><ele>637.4</ele><time>2016-08-06T15:02:40Z</time></trkpt>
<trkpt lat="46.3017" lon="7.83221"><ele>637.6</ele><time>2016-08-06T15:02:42Z</time></trkpt>
<trkpt lat="46.30159" lon="7.8322"><ele>637.6</ele><time>2016-08-06T15:02:44Z</time></trkpt>
<trkpt lat="46.30148" lon="7.83218"><ele>637.8</ele><time>2016-08-06T15:02:46Z</time></trkpt>
<trkpt lat="46.30137" lon="7.83217"><ele>638</ele><time>2016-08-06T15:02:48Z</time></trkpt>
<trkpt lat="46.30132" lon="7.83215"><ele>638</ele><time>2016-08-06T15:02:49Z</time></trkpt>
<trkpt lat="46.30127" lon="7.83211"><ele>638</ele><time>2016-08-06T15:02:50Z</time></trkpt>
<trkpt lat="46.30123" lon="7.83205"><ele>638.2</ele><time>2016-08-06T15:02:51Z</time></trkpt>
<trkpt lat="46.30122" lon="7.83197"><ele>638.2</ele><time>2016-08-06T15:02:52Z</time></trkpt>
<trkpt lat="46.3012" lon="7.83181"><ele>638.4</ele><time>2016-08-06T15:02:54Z</time></trkpt>
<trkpt lat="46.30122" lon="7.83163"><ele>638.4</ele><time>2016-08-06T15:02:56Z</time></trkpt>
<trkpt lat="46.30124" lon="7.83145"><ele>638.6</ele><time>2016-08-06T15:02:58Z</time></trkpt>
<trkpt lat="46.30125" lon="7.83126"><ele>638.8</ele><time>2016-08-06T15:03:00Z</time></trkpt>
<trkpt lat="46.30127" lon="7.83108"><ele>638.8</ele><time>2016-08-06T15:03:02Z</time></trkpt>
<trkpt lat="46.30128" lon="7.83089"><ele>639</ele><time>2016-08-06T15:03:04Z</time></trkpt>
<trkpt lat="46.30128" lon="7.83069"><ele>639</ele><time>2016-08-06T15:03:06Z</time></trkpt>
<trkpt lat="46.30129" lon="7.8305"><ele>639.2</ele><time>2016-08-06T15:03:08Z</time></trkpt>
<trkpt lat="46.3013" lon="7.8304"><ele>639.2</ele><time>2016-08-06T15:03:09Z</time></trkpt>
<trkpt lat="46.3013" lon="7.8303"><ele>639.4</ele><time>2016-08-06T15:03:10Z</time></trkpt>
<trkpt lat="46.30132" lon="7.83011"><ele>639.4</ele><time>2016-08-06T15:03:12Z</time></trkpt>
<trkpt lat="46.30132" lon="7.83001"><ele>639.6</ele><time>2016-08-06T15:03:13Z</time></trkpt>
<trkpt lat="46.30133" lon="7.82992"><ele>639.4</ele><time>2016-08-06T15:03:14Z</time></trkpt>
<trkpt lat="46.30134" lon="7.82973"><ele>639.2</ele><time>2016-08-06T15:03:16Z</time></trkpt>
<trkpt lat="46.30136" lon="7.82954"><ele>639.2</ele><time>2016-08-06T15:03:18Z</time></trkpt>
<trkpt lat="46.30137" lon="7.82936"><ele>639.2</ele><time>2016-08-06T15:03:20Z</time></trkpt>
<trkpt lat="46.30138" lon="7.82917"><ele>639.4</ele><time>2016-08-06T15:03:22Z</time></trkpt>
<trkpt lat="46.30139" lon="7.82899"><ele>639.4</ele><time>2016-08-06T15:03:24Z</time></trkpt>
<trkpt lat="46.30141" lon="7.8288"><ele>639.6</ele><time>2016-08-06T15:03:26Z</time></trkpt>
<trkpt lat="46.30142" lon="7.82861"><ele>639.6</ele><time>2016-08-06T15:03:28Z</time></trkpt>
<trkpt lat="46.30143" lon="7.82842"><ele>639.8</ele><time>2016-08-06T15:03:30Z</time></trkpt>
<trkpt lat="46.30144" lon="7.82833"><ele>639.8</ele><time>2016-08-06T15:03:31Z</time></trkpt>
<trkpt lat="46.30144" lon="7.82824"><ele>639.8</ele><time>2016-08-06T15:03:32Z</time></trkpt>
<trkpt lat="46.30145" lon="7.82805"><ele>640</ele><time>2016-08-06T15:03:34Z</time></trkpt>
<trkpt lat="46.30145" lon="7.82786"><ele>640</ele><time>2016-08-06T15:03:36Z</time></trkpt>
<trkpt lat="46.30146" lon="7.82768"><ele>640.2</ele><time>2016-08-06T15:03:38Z</time></trkpt>
<trkpt lat="46.30147" lon="7.82749"><ele>640.2</ele><time>2016-08-06T15:03:40Z</time></trkpt>
<trkpt lat="46.30147" lon="7.8273"><ele>640.4</ele><time>2016-08-06T15:03:42Z</time></trkpt>
<trkpt lat="46.30148" lon="7.82711"><ele>640.4</ele><time>2016-08-06T15:03:44Z</time></trkpt>
<trkpt lat="46.30148" lon="7.82702"><ele>640.6</ele><time>2016-08-06T15:03:45Z</time></trkpt>
<trkpt lat="46.30149" lon="7.82693"><ele>640.6</ele><time>2016-08-06T15:03:46Z</time></trkpt>
<trkpt lat="46.3015" lon="7.82675"><ele>640.6</ele><time>2016-08-06T15:03:48Z</time></trkpt>
<trkpt lat="46.3015" lon="7.82657"><ele>640.8</ele><time>2016-08-06T15:03:50Z</time></trkpt>
<trkpt lat="46.30151" lon="7.82639"><ele>641</ele><time>2016-08-06T15:03:52Z</time></trkpt>
<trkpt lat="46.30152" lon="7.82631"><ele>641</ele><time>2016-08-06T15:03:53Z</time></trkpt>
<trkpt lat="46.30153" lon="7.82622"><ele>641</ele><time>2016-08-06T15:03:54Z</time></trkpt>
<trkpt lat="46.30154" lon="7.82605"><ele>641.2</ele><time>2016-08-06T15:03:56Z</time></trkpt>
<trkpt lat="46.30156" lon="7.82588"><ele>641.2</ele><time>2016-08-06T15:03:58Z</time></trkpt>
<trkpt lat="46.30157" lon="7.82571"><ele>641.4</ele><time>2016-08-06T15:04:00Z</time></trkpt>
<trkpt lat="46.30158" lon="7.82563"><ele>641.4</ele><time>2016-08-06T15:04:01Z</time></trkpt>
<trkpt lat="46.30159" lon="7.82555"><ele>641.4</ele><time>2016-08-06T15:04:02Z</time></trkpt>
<trkpt lat="46.30161" lon="7.82538"><ele>641.6</ele><time>2016-08-06T15:04:04Z</time></trkpt>
<trkpt lat="46.30162" lon="7.82522"><ele>641.6</ele><time>2016-08-06T15:04:06Z</time></trkpt>
<trkpt lat="46.30164" lon="7.82506"><ele>641.8</ele><time>2016-08-06T15:04:08Z</time></trkpt>
<trkpt lat="46.30165" lon="7.82498"><ele>641.8</ele><time>2016-08-06T15:04:09Z</time></trkpt>
<trkpt lat="46.30166" lon="7.82492"><ele>641.8</ele><time>2016-08-06T15:04:10Z</time></trkpt>
<trkpt lat="46.30168" lon="7.82478"><ele>642</ele><time>2016-08-06T15:04:12Z</time></trkpt>
<trkpt lat="46.30169" lon="7.82465"><ele>642</ele><time>2016-08-06T15:04:14Z</time></trkpt>
<trkpt lat="46.3017" lon="7.82458"><ele>642</ele><time>2016-08-06T15:04:15Z</time></trkpt>
<trkpt lat="46.30171" lon="7.82451"><ele>641.2</ele><time>2016-08-06T15:04:16Z</time></trkpt>
<trkpt lat="46.30173" lon="7.82438"><ele>639.8</ele><time>2016-08-06T15:04:18Z</time></trkpt>
<trkpt lat="46.30173" lon="7.82432"><ele>639</ele><time>2016-08-06T15:04:19Z</time></trkpt>
<trkpt lat="46.30173" lon="7.82429"><ele>638.4</ele><time>2016-08-06T15:04:20Z</time></trkpt>
<trkpt lat="46.30167" lon="7.82426"><ele>637.2</ele><time>2016-08-06T15:04:22Z</time></trkpt>
<trkpt lat="46.30161" lon="7.82423"><ele>636</ele><time>2016-08-06T15:04:24Z</time></trkpt>
<trkpt lat="46.30158" lon="7.82423"><ele>635.4</ele><time>2016-08-06T15:04:25Z</time></trkpt>
<trkpt lat="46.30157" lon="7.82426"><ele>635.2</ele><time>2016-08-06T15:04:26Z</time></trkpt>
<trkpt lat="46.30157" lon="7.82429"><ele>635.2</ele><time>2016-08-06T15:04:27Z</time></trkpt>
<trkpt lat="46.30161" lon="7.8243"><ele>635</ele><time>2016-08-06T15:04:28Z</time></trkpt>
<trkpt lat="46.30168" lon="7.82432"><ele>634.6</ele><time>2016-08-06T15:04:30Z</time></trkpt>
<trkpt lat="46.30172" lon="7.82433"><ele>634.6</ele><time>2016-08-06T15:04:31Z</time></trkpt>
<trkpt lat="46.30177" lon="7.82435"><ele>634.6</ele><time>2016-08-06T15:04:32Z</time></trkpt>
<trkpt lat="46.30188" lon="7.82437"><ele>634.6</ele><time>2016-08-06T15:04:34Z</time></trkpt>
<trkpt lat="46.30199" lon="7.8244"><ele>634.8</ele><time>2016-08-06T15:04:36Z</time></trkpt>
<trkpt lat="46.30209" lon="7.82443"><ele>635</ele><time>2016-08-06T15:04:38Z</time></trkpt>
<trkpt lat="46.3022" lon="7.82446"><ele>635</ele><time>2016-08-06T15:04:40Z</time></trkpt>
<trkpt lat="46.30233" lon="7.82449"><ele>635.2</ele><time>2016-08-06T15:04:42Z</time></trkpt>
<trkpt lat="46.30245" lon="7.82452"><ele>635.6</ele><time>2016-08-06T15:04:44Z</time></trkpt>
<trkpt lat="46.30257" lon="7.82456"><ele>636.2</ele><time>2016-08-06T15:04:46Z</time></trkpt>
<trkpt lat="46.30264" lon="7.82457"><ele>636.4</ele><time>2016-08-06T15:04:47Z</time></trkpt>
<trkpt lat="46.3027" lon="7.82459"><ele>636.4</ele><time>2016-08-06T15:04:48Z</time></trkpt>
<trkpt lat="46.30282" lon="7.82464"><ele>636.4</ele><time>2016-08-06T15:04:50Z</time></trkpt>
<trkpt lat="46.30295" lon="7.82468"><ele>636.6</ele><time>2016-08-06T15:04:52Z</time></trkpt>
<trkpt lat="46.30308" lon="7.82472"><ele>636.6</ele><time>2016-08-06T15:04:54Z</time></trkpt>
<trkpt lat="46.30314" lon="7.82474"><ele>636.6</ele><time>2016-08-06T15:04:55Z</time></trkpt>
<trkpt lat="46.30321" lon="7.82476"><ele>636.6</ele><time>2016-08-06T15:04:56Z</time></trkpt>
<trkpt lat="46.30334" lon="7.82479"><ele>636.8</ele><time>2016-08-06T15:04:58Z</time></trkpt>
<trkpt lat="46.3034" lon="7.8248"><ele>636.8</ele><time>2016-08-06T15:04:59Z</time></trkpt>
<trkpt lat="46.30346" lon="7.8248"><ele>636.8</ele><time>2016-08-06T15:05:00Z</time></trkpt>
<trkpt lat="46.30358" lon="7.82481"><ele>637</ele><time>2016-08-06T15:05:02Z</time></trkpt>
<trkpt lat="46.30365" lon="7.82482"><ele>637</ele><time>2016-08-06T15:05:03Z</time></trkpt>
<trkpt lat="46.30371" lon="7.82485"><ele>637</ele><time>2016-08-06T15:05:04Z</time></trkpt>
<trkpt lat="46.30383" lon="7.82491"><ele>637</ele><time>2016-08-06T15:05:06Z</time></trkpt>
<trkpt lat="46.30395" lon="7.82496"><ele>637.2</ele><time>2016-08-06T15:05:08Z</time></trkpt>
<trkpt lat="46.30407" lon="7.82502"><ele>637.2</ele><time>2016-08-06T15:05:10Z</time></trkpt>
<trkpt lat="46.30413" lon="7.82504"><ele>637.2</ele><time>2016-08-06T15:05:11Z</time></trkpt>
<trkpt lat="46.30419" lon="7.82506"><ele>637.4</ele><time>2016-08-06T15:05:12Z</time></trkpt>
<trkpt lat="46.30431" lon="7.8251"><ele>637.4</ele><time>2016-08-06T15:05:14Z</time></trkpt>
<trkpt lat="46.30443" lon="7.82513"><ele>637.4</ele><time>2016-08-06T15:05:16Z</time></trkpt>
<trkpt lat="46.30455" lon="7.82517"><ele>637.6</ele><time>2016-08-06T15:05:18Z</time></trkpt>
<trkpt lat="46.30461" lon="7.82518"><ele>637.6</ele><time>2016-08-06T15:05:19Z</time></trkpt>
<trkpt lat="46.30468" lon="7.8252"><ele>637.6</ele><time>2016-08-06T15:05:20Z</time></trkpt>
<trkpt lat="46.30482" lon="7.82524"><ele>637.8</ele><time>2016-08-06T15:05:22Z</time></trkpt>
<trkpt lat="46.30495" lon="7.82527"><ele>637.8</ele><time>2016-08-06T15:05:24Z</time></trkpt>
<trkpt lat="46.30508" lon="7.8253"><ele>637.8</ele><time>2016-08-06T15:05:26Z</time></trkpt>
<trkpt lat="46.30522" lon="7.82531"><ele>638</ele><time>2016-08-06T15:05:28Z</time></trkpt>
<trkpt lat="46.30535" lon="7.82532"><ele>638</ele><time>2016-08-06T15:05:30Z</time></trkpt>
<trkpt lat="46.30548" lon="7.82533"><ele>638.2</ele><time>2016-08-06T15:05:32Z</time></trkpt>
<trkpt lat="46.30555" lon="7.82534"><ele>638.2</ele><time>2016-08-06T15:05:33Z</time></trkpt>
<trkpt lat="46.30562" lon="7.82534"><ele>638.2</ele><time>2016-08-06T15:05:34Z</time></trkpt>
<trkpt lat="46.30575" lon="7.82533"><ele>638.2</ele><time>2016-08-06T15:05:36Z</time></trkpt>
<trkpt lat="46.30588" lon="7.82533"><ele>638.4</ele><time>2016-08-06T15:05:38Z</time></trkpt>
<trkpt lat="46.30601" lon="7.82533"><ele>638.4</ele><time>2016-08-06T15:05:40Z</time></trkpt>
<trkpt lat="46.30613" lon="7.82532"><ele>638.6</ele><time>2016-08-06T15:05:42Z</time></trkpt>
<trkpt lat="46.30625" lon="7.82532"><ele>638.6</ele><time>2016-08-06T15:05:44Z</time></trkpt>
<trkpt lat="46.30637" lon="7.82532"><ele>638.6</ele><time>2016-08-06T15:05:46Z</time></trkpt>
<trkpt lat="46.30648" lon="7.82532"><ele>638.8</ele><time>2016-08-06T15:05:48Z</time></trkpt>
<trkpt lat="46.30661" lon="7.82534"><ele>638.8</ele><time>2016-08-06T15:05:50Z</time></trkpt>
<trkpt lat="46.30673" lon="7.82535"><ele>639</ele><time>2016-08-06T15:05:52Z</time></trkpt>
<trkpt lat="46.30685" lon="7.82538"><ele>639</ele><time>2016-08-06T15:05:54Z</time></trkpt>
<trkpt lat="46.30696" lon="7.82546"><ele>639</ele><time>2016-08-06T15:05:56Z</time></trkpt>
<trkpt lat="46.30707" lon="7.82554"><ele>639.2</ele><time>2016-08-06T15:05:58Z</time></trkpt>
<trkpt lat="46.30718" lon="7.82562"><ele>639.2</ele><time>2016-08-06T15:06:00Z</time></trkpt>
<trkpt lat="46.30729" lon="7.82571"><ele>639.4</ele><time>2016-08-06T15:06:02Z</time></trkpt>
<trkpt lat="46.30743" lon="7.82578"><ele>639.4</ele><time>2016-08-06T15:06:04Z</time></trkpt>
<trkpt lat="46.30758" lon="7.82586"><ele>639.4</ele><time>2016-08-06T15:06:06Z</time></trkpt>
<trkpt lat="46.30772" lon="7.82594"><ele>639.6</ele><time>2016-08-06T15:06:08Z</time></trkpt>
<trkpt lat="46.30779" lon="7.82598"><ele>639.6</ele><time>2016-08-06T15:06:09Z</time></trkpt>
<trkpt lat="46.30787" lon="7.82602"><ele>639.6</ele><time>2016-08-06T15:06:10Z</time></trkpt>
<trkpt lat="46.30801" lon="7.82612"><ele>639.8</ele><time>2016-08-06T15:06:12Z</time></trkpt>
<trkpt lat="46.30809" lon="7.82634"><ele>639.8</ele><time>2016-08-06T15:06:14Z</time></trkpt>
<trkpt lat="46.30808" lon="7.82645"><ele>639.8</ele><time>2016-08-06T15:06:15Z</time></trkpt>
<trkpt lat="46.30803" lon="7.82655"><ele>639.8</ele><time>2016-08-06T15:06:16Z</time></trkpt>
<trkpt lat="46.30803" lon="7.8267"><ele>640</ele><time>2016-08-06T15:06:18Z</time></trkpt>
<trkpt lat="46.30803" lon="7.82686"><ele>640</ele><time>2016-08-06T15:06:20Z</time></trkpt>
<trkpt lat="46.30803" lon="7.82701"><ele>640.2</ele><time>2016-08-06T15:06:22Z</time></trkpt>
<trkpt lat="46.30804" lon="7.82714"><ele>640.2</ele><time>2016-08-06T15:06:24Z</time></trkpt>
<trkpt lat="46.30805" lon="7.82727"><ele>640.2</ele><time>2016-08-06T15:06:26Z</time></trkpt>
<trkpt lat="46.30806" lon="7.82732"><ele>640.4</ele><time>2016-08-06T15:06:27Z</time></trkpt>
<trkpt lat="46.30809" lon="7.82735"><ele>640.4</ele><time>2016-08-06T15:06:28Z</time></trkpt>
<trkpt lat="46.30812" lon="7.82739"><ele>640.4</ele><time>2016-08-06T15:06:29Z</time></trkpt>
<trkpt lat="46.30816" lon="7.82741"><ele>640.8</ele><time>2016-08-06T15:06:30Z</time></trkpt>
<trkpt lat="46.30827" lon="7.82742"><ele>641.4</ele><time>2016-08-06T15:06:32Z</time></trkpt>
<trkpt lat="46.30838" lon="7.82742"><ele>642</ele><time>2016-08-06T15:06:34Z</time></trkpt>
<trkpt lat="46.30849" lon="7.82742"><ele>642.2</ele><time>2016-08-06T15:06:36Z</time></trkpt>
<trkpt lat="46.30859" lon="7.82743"><ele>642.4</ele><time>2016-08-06T15:06:38Z</time></trkpt>
<trkpt lat="46.30865" lon="7.82743"><ele>642.4</ele><time>2016-08-06T15:06:39Z</time></trkpt>
<trkpt lat="46.3087" lon="7.82741"><ele>642.6</ele><time>2016-08-06T15:06:40Z</time></trkpt>
<trkpt lat="46.30875" lon="7.82738"><ele>642.6</ele><time>2016-08-06T15:06:41Z</time></trkpt>
<trkpt lat="46.30877" lon="7.82731"><ele>642.8</ele><time>2016-08-06T15:06:42Z</time></trkpt>
<trkpt lat="46.3088" lon="7.82717"><ele>643</ele><time>2016-08-06T15:06:44Z</time></trkpt>
<trkpt lat="46.30878" lon="7.82699"><ele>643.2</ele><time>2016-08-06T15:06:46Z</time></trkpt>
<trkpt lat="46.30876" lon="7.8268"><ele>643</ele><time>2016-08-06T15:06:48Z</time></trkpt>
<trkpt lat="46.30874" lon="7.82661"><ele>642.8</ele><time>2016-08-06T15:06:50Z</time></trkpt>
<trkpt lat="46.30873" lon="7.82652"><ele>642.8</ele><time>2016-08-06T15:06:51Z</time></trkpt>
<trkpt lat="46.30872" lon="7.82644"><ele>642.8</ele><time>2016-08-06T15:06:52Z</time></trkpt>
<trkpt lat="46.30871" lon="7.82626"><ele>642.8</ele><time>2016-08-06T15:06:54Z</time></trkpt>
<trkpt lat="46.30869" lon="7.82608"><ele>642.6</ele><time>2016-08-06T15:06:56Z</time></trkpt>
<trkpt lat="46.30867" lon="7.82591"><ele>642.6</ele><time>2016-08-06T15:06:58Z</time></trkpt>
<trkpt lat="46.30867" lon="7.82582"><ele>642.6</ele><time>2016-08-06T15:06:59Z</time></trkpt>
<trkpt lat="46.30866" lon="7.82573"><ele>642.6</ele><time>2016-08-06T15:07:00Z</time></trkpt>
<trkpt lat="46.30864" lon="7.82556"><ele>642.4</ele><time>2016-08-06T15:07:02Z</time></trkpt>
<trkpt lat="46.30863" lon="7.82539"><ele>642.4</ele><time>2016-08-06T15:07:04Z</time></trkpt>
<trkpt lat="46.30861" lon="7.82522"><ele>642.4</ele><time>2016-08-06T15:07:06Z</time></trkpt>
<trkpt lat="46.3086" lon="7.82513"><ele>642.4</ele><time>2016-08-06T15:07:07Z</time></trkpt>
<trkpt lat="46.3086" lon="7.82504"><ele>642.4</ele><time>2016-08-06T15:07:08Z</time></trkpt>
<trkpt lat="46.30859" lon="7.82484"><ele>642.2</ele><time>2016-08-06T15:07:10Z</time></trkpt>
<trkpt lat="46.30857" lon="7.82465"><ele>642.2</ele><time>2016-08-06T15:07:12Z</time></trkpt>
<trkpt lat="46.30856" lon="7.82446"><ele>642.2</ele><time>2016-08-06T15:07:14Z</time></trkpt>
<trkpt lat="46.30857" lon="7.82437"><ele>642.2</ele><time>2016-08-06T15:07:15Z</time></trkpt>
<trkpt lat="46.30855" lon="7.82427"><ele>642.2</ele><time>2016-08-06T15:07:16Z</time></trkpt>
<trkpt lat="46.30853" lon="7.82409"><ele>642</ele><time>2016-08-06T15:07:18Z</time></trkpt>
<trkpt lat="46.30851" lon="7.8239"><ele>642</ele><time>2016-08-06T15:07:20Z</time></trkpt>
<trkpt lat="46.30848" lon="7.82371"><ele>642</ele><time>2016-08-06T15:07:22Z</time></trkpt>
<trkpt lat="46.30846" lon="7.82353"><ele>642</ele><time>2016-08-06T15:07:24Z</time></trkpt>
<trkpt lat="46.30844" lon="7.82334"><ele>641.8</ele><time>2016-08-06T15:07:26Z</time></trkpt>
<trkpt lat="46.30842" lon="7.82316"><ele>641.8</ele><time>2016-08-06T15:07:28Z</time></trkpt>
<trkpt lat="46.30842" lon="7.82307"><ele>641.8</ele><time>2016-08-06T15:07:29Z</time></trkpt>
<trkpt lat="46.30841" lon="7.82297"><ele>641.8</ele><time>2016-08-06T15:07:30Z</time></trkpt>
<trkpt lat="46.30839" lon="7.82278"><ele>641.8</ele><time>2016-08-06T15:07:32Z</time></trkpt>
<trkpt lat="46.30838" lon="7.8226"><ele>641.6</ele><time>2016-08-06T15:07:34Z</time></trkpt>
<trkpt lat="46.30837" lon="7.8225"><ele>641.6</ele><time>2016-08-06T15:07:35Z</time></trkpt>
<trkpt lat="46.30836" lon="7.82242"><ele>641.6</ele><time>2016-08-06T15:07:36Z</time></trkpt>
<trkpt lat="46.30834" lon="7.82224"><ele>641.6</ele><time>2016-08-06T15:07:38Z</time></trkpt>
<trkpt lat="46.30832" lon="7.82207"><ele>641.6</ele><time>2016-08-06T15:07:40Z</time></trkpt>
<trkpt lat="46.3083" lon="7.82189"><ele>641.4</ele><time>2016-08-06T15:07:42Z</time></trkpt>
<trkpt lat="46.30829" lon="7.8218"><ele>641.4</ele><time>2016-08-06T15:07:43Z</time></trkpt>
<trkpt lat="46.30828" lon="7.82172"><ele>641.4</ele><time>2016-08-06T15:07:44Z</time></trkpt>
<trkpt lat="46.30827" lon="7.82154"><ele>641.4</ele><time>2016-08-06T15:07:46Z</time></trkpt>
<trkpt lat="46.30826" lon="7.82137"><ele>641.4</ele><time>2016-08-06T15:07:48Z</time></trkpt>
<trkpt lat="46.30826" lon="7.82128"><ele>641.4</ele><time>2016-08-06T15:07:49Z</time></trkpt>
<trkpt lat="46.30825" lon="7.8212"><ele>641.2</ele><time>2016-08-06T15:07:50Z</time></trkpt>
<trkpt lat="46.30823" lon="7.82103"><ele>641.2</ele><time>2016-08-06T15:07:52Z</time></trkpt>
<trkpt lat="46.30821" lon="7.82086"><ele>641.2</ele><time>2016-08-06T15:07:54Z</time></trkpt>
<trkpt lat="46.3082" lon="7.82069"><ele>641.2</ele><time>2016-08-06T15:07:56Z</time></trkpt>
<trkpt lat="46.30819" lon="7.8206"><ele>641.2</ele><time>2016-08-06T15:07:57Z</time></trkpt>
<trkpt lat="46.30818" lon="7.8205"><ele>641</ele><time>2016-08-06T15:07:58Z</time></trkpt>
<trkpt lat="46.30817" lon="7.8203"><ele>641</ele><time>2016-08-06T15:08:00Z</time></trkpt>
<trkpt lat="46.30816" lon="7.82011"><ele>641</ele><time>2016-08-06T15:08:02Z</time></trkpt>
<trkpt lat="46.30814" lon="7.81991"><ele>641</ele><time>2016-08-06T15:08:04Z</time></trkpt>
<trkpt lat="46.30813" lon="7.81972"><ele>640.8</ele><time>2016-08-06T15:08:06Z</time></trkpt>
<trkpt lat="46.30811" lon="7.81953"><ele>640.8</ele><time>2016-08-06T15:08:08Z</time></trkpt>
<trkpt lat="46.3081" lon="7.81934"><ele>641</ele><time>2016-08-06T15:08:10Z</time></trkpt>
<trkpt lat="46.30809" lon="7.81925"><ele>641</ele><time>2016-08-06T15:08:11Z</time></trkpt>
<trkpt lat="46.30808" lon="7.81915"><ele>641</ele><time>2016-08-06T15:08:12Z</time></trkpt>
<trkpt lat="46.30807" lon="7.81896"><ele>641.2</ele><time>2016-08-06T15:08:14Z</time></trkpt>
<trkpt lat="46.30805" lon="7.81877"><ele>641.2</ele><time>2016-08-06T15:08:16Z</time></trkpt>
<trkpt lat="46.30803" lon="7.81857"><ele>641.4</ele><time>2016-08-06T15:08:18Z</time></trkpt>
<trkpt lat="46.30801" lon="7.81839"><ele>641.4</ele><time>2016-08-06T15:08:20Z</time></trkpt>
<trkpt lat="46.308" lon="7.81821"><ele>641.4</ele><time>2016-08-06T15:08:22Z</time></trkpt>
<trkpt lat="46.30798" lon="7.81802"><ele>641.6</ele><time>2016-08-06T15:08:24Z</time></trkpt>
<trkpt lat="46.30797" lon="7.81793"><ele>641.6</ele><time>2016-08-06T15:08:25Z</time></trkpt>
<trkpt lat="46.30796" lon="7.81784"><ele>641.6</ele><time>2016-08-06T15:08:26Z</time></trkpt>
<trkpt lat="46.30794" lon="7.81764"><ele>641.8</ele><time>2016-08-06T15:08:28Z</time></trkpt>
<trkpt lat="46.30793" lon="7.81745"><ele>641.8</ele><time>2016-08-06T15:08:30Z</time></trkpt>
<trkpt lat="46.30791" lon="7.81726"><ele>642</ele><time>2016-08-06T15:08:32Z</time></trkpt>
<trkpt lat="46.3079" lon="7.81707"><ele>642</ele><time>2016-08-06T15:08:34Z</time></trkpt>
<trkpt lat="46.30788" lon="7.81689"><ele>642</ele><time>2016-08-06T15:08:36Z</time></trkpt>
<trkpt lat="46.30787" lon="7.8167"><ele>642.2</ele><time>2016-08-06T15:08:38Z</time></trkpt>
<trkpt lat="46.30786" lon="7.8166"><ele>642.2</ele><time>2016-08-06T15:08:39Z</time></trkpt>
<trkpt lat="46.30786" lon="7.8165"><ele>642.2</ele><time>2016-08-06T15:08:40Z</time></trkpt>
<trkpt lat="46.30785" lon="7.8163"><ele>642.4</ele><time>2016-08-06T15:08:42Z</time></trkpt>
<trkpt lat="46.30784" lon="7.8161"><ele>642.4</ele><time>2016-08-06T15:08:44Z</time></trkpt>
<trkpt lat="46.30782" lon="7.8159"><ele>642.6</ele><time>2016-08-06T15:08:46Z</time></trkpt>
<trkpt lat="46.30781" lon="7.81569"><ele>642.6</ele><time>2016-08-06T15:08:48Z</time></trkpt>
<trkpt lat="46.30779" lon="7.81549"><ele>642.6</ele><time>2016-08-06T15:08:50Z</time></trkpt>
<trkpt lat="46.30777" lon="7.81528"><ele>642.8</ele><time>2016-08-06T15:08:52Z</time></trkpt>
<trkpt lat="46.30776" lon="7.81518"><ele>642.8</ele><time>2016-08-06T15:08:53Z</time></trkpt>
<trkpt lat="46.30775" lon="7.81508"><ele>642.8</ele><time>2016-08-06T15:08:54Z</time></trkpt>
<trkpt lat="46.30773" lon="7.81487"><ele>643</ele><time>2016-08-06T15:08:56Z</time></trkpt>
<trkpt lat="46.30772" lon="7.81466"><ele>643</ele><time>2016-08-06T15:08:58Z</time></trkpt>
<trkpt lat="46.3077" lon="7.81446"><ele>643.2</ele><time>2016-08-06T15:09:00Z</time></trkpt>
<trkpt lat="46.30768" lon="7.81427"><ele>643.2</ele><time>2016-08-06T15:09:02Z</time></trkpt>
<trkpt lat="46.30768" lon="7.81418"><ele>643.2</ele><time>2016-08-06T15:09:03Z</time></trkpt>
<trkpt lat="46.30767" lon="7.81408"><ele>643.2</ele><time>2016-08-06T15:09:04Z</time></trkpt>
<trkpt lat="46.30766" lon="7.8139"><ele>643</ele><time>2016-08-06T15:09:06Z</time></trkpt>
<trkpt lat="46.30765" lon="7.8138"><ele>643</ele><time>2016-08-06T15:09:07Z</time></trkpt>
<trkpt lat="46.30764" lon="7.81372"><ele>642.8</ele><time>2016-08-06T15:09:08Z</time></trkpt>
<trkpt lat="46.30762" lon="7.81355"><ele>642.8</ele><time>2016-08-06T15:09:10Z</time></trkpt>
<trkpt lat="46.3076" lon="7.81338"><ele>642.6</ele><time>2016-08-06T15:09:12Z</time></trkpt>
<trkpt lat="46.30759" lon="7.81321"><ele>642.4</ele><time>2016-08-06T15:09:14Z</time></trkpt>
<trkpt lat="46.30758" lon="7.81312"><ele>642.4</ele><time>2016-08-06T15:09:15Z</time></trkpt>
<trkpt lat="46.30757" lon="7.81302"><ele>642.4</ele><time>2016-08-06T15:09:16Z</time></trkpt>
<trkpt lat="46.30756" lon="7.81283"><ele>642.2</ele><time>2016-08-06T15:09:18Z</time></trkpt>
<trkpt lat="46.30755" lon="7.81263"><ele>642</ele><time>2016-08-06T15:09:20Z</time></trkpt>
<trkpt lat="46.30754" lon="7.81244"><ele>642</ele><time>2016-08-06T15:09:22Z</time></trkpt>
<trkpt lat="46.30751" lon="7.81225"><ele>642</ele><time>2016-08-06T15:09:24Z</time></trkpt>
<trkpt lat="46.30749" lon="7.81206"><ele>641.8</ele><time>2016-08-06T15:09:26Z</time></trkpt>
<trkpt lat="46.30747" lon="7.81188"><ele>641.8</ele><time>2016-08-06T15:09:28Z</time></trkpt>
<trkpt lat="46.30746" lon="7.81178"><ele>641.8</ele><time>2016-08-06T15:09:29Z</time></trkpt>
<trkpt lat="46.30745" lon="7.81169"><ele>641.8</ele><time>2016-08-06T15:09:30Z</time></trkpt>
<trkpt lat="46.30744" lon="7.81149"><ele>641.6</ele><time>2016-08-06T15:09:32Z</time></trkpt>
<trkpt lat="46.30742" lon="7.8113"><ele>641.6</ele><time>2016-08-06T15:09:34Z</time></trkpt>
<trkpt lat="46.3074" lon="7.81111"><ele>641.6</ele><time>2016-08-06T15:09:36Z</time></trkpt>
<trkpt lat="46.3074" lon="7.81091"><ele>641.4</ele><time>2016-08-06T15:09:38Z</time></trkpt>
<trkpt lat="46.30739" lon="7.81072"><ele>641.4</ele><time>2016-08-06T15:09:40Z</time></trkpt>
<trkpt lat="46.30738" lon="7.81052"><ele>641.4</ele><time>2016-08-06T15:09:42Z</time></trkpt>
<trkpt lat="46.30738" lon="7.81043"><ele>641.4</ele><time>2016-08-06T15:09:43Z</time></trkpt>
<trkpt lat="46.30738" lon="7.81033"><ele>641.2</ele><time>2016-08-06T15:09:44Z</time></trkpt>
<trkpt lat="46.30737" lon="7.81015"><ele>641.2</ele><time>2016-08-06T15:09:46Z</time></trkpt>
<trkpt lat="46.30736" lon="7.80996"><ele>641.2</ele><time>2016-08-06T15:09:48Z</time></trkpt>
<trkpt lat="46.30736" lon="7.80978"><ele>641</ele><time>2016-08-06T15:09:50Z</time></trkpt>
<trkpt lat="46.30735" lon="7.80968"><ele>641</ele><time>2016-08-06T15:09:51Z</time></trkpt>
<trkpt lat="46.30735" lon="7.80959"><ele>641</ele><time>2016-08-06T15:09:52Z</time></trkpt>
<trkpt lat="46.30735" lon="7.80941"><ele>641</ele><time>2016-08-06T15:09:54Z</time></trkpt>
<trkpt lat="46.30735" lon="7.80923"><ele>641</ele><time>2016-08-06T15:09:56Z</time></trkpt>
<trkpt lat="46.30734" lon="7.80905"><ele>640.8</ele><time>2016-08-06T15:09:58Z</time></trkpt>
<trkpt lat="46.30734" lon="7.80896"><ele>640.8</ele><time>2016-08-06T15:09:59Z</time></trkpt>
<trkpt lat="46.30734" lon="7.80886"><ele>640.8</ele><time>2016-08-06T15:10:00Z</time></trkpt>
<trkpt lat="46.30734" lon="7.80867"><ele>640.8</ele><time>2016-08-06T15:10:02Z</time></trkpt>
<trkpt lat="46.30733" lon="7.80848"><ele>640.6</ele><time>2016-08-06T15:10:04Z</time></trkpt>
<trkpt lat="46.30733" lon="7.80829"><ele>640.6</ele><time>2016-08-06T15:10:06Z</time></trkpt>
<trkpt lat="46.30732" lon="7.80812"><ele>640.6</ele><time>2016-08-06T15:10:08Z</time></trkpt>
<trkpt lat="46.30732" lon="7.80795"><ele>640.4</ele><time>2016-08-06T15:10:10Z</time></trkpt>
<trkpt lat="46.30731" lon="7.80778"><ele>640.4</ele><time>2016-08-06T15:10:12Z</time></trkpt>
<trkpt lat="46.3073" lon="7.80761"><ele>640.4</ele><time>2016-08-06T15:10:14Z</time></trkpt>
<trkpt lat="46.3073" lon="7.80741"><ele>640.2</ele><time>2016-08-06T15:10:16Z</time></trkpt>
<trkpt lat="46.3073" lon="7.80722"><ele>640.2</ele><time>2016-08-06T15:10:18Z</time></trkpt>
<trkpt lat="46.3073" lon="7.80702"><ele>640.2</ele><time>2016-08-06T15:10:20Z</time></trkpt>
<trkpt lat="46.3073" lon="7.80693"><ele>640.2</ele><time>2016-08-06T15:10:21Z</time></trkpt>
<trkpt lat="46.3073" lon="7.80683"><ele>640.4</ele><time>2016-08-06T15:10:22Z</time></trkpt>
<trkpt lat="46.3073" lon="7.80664"><ele>640.8</ele><time>2016-08-06T15:10:24Z</time></trkpt>
<trkpt lat="46.3073" lon="7.80645"><ele>641.2</ele><time>2016-08-06T15:10:26Z</time></trkpt>
<trkpt lat="46.3073" lon="7.80635"><ele>641.4</ele><time>2016-08-06T15:10:27Z</time></trkpt>
<trkpt lat="46.3073" lon="7.80626"><ele>641.4</ele><time>2016-08-06T15:10:28Z</time></trkpt>
<trkpt lat="46.30729" lon="7.80608"><ele>641.2</ele><time>2016-08-06T15:10:30Z</time></trkpt>
<trkpt lat="46.30728" lon="7.8059"><ele>641.2</ele><time>2016-08-06T15:10:32Z</time></trkpt>
<trkpt lat="46.30727" lon="7.80572"><ele>641.2</ele><time>2016-08-06T15:10:34Z</time></trkpt>
<trkpt lat="46.30727" lon="7.80553"><ele>641</ele><time>2016-08-06T15:10:36Z</time></trkpt>
<trkpt lat="46.30726" lon="7.80536"><ele>641</ele><time>2016-08-06T15:10:38Z</time></trkpt>
<trkpt lat="46.30726" lon="7.80518"><ele>640.8</ele><time>2016-08-06T15:10:40Z</time></trkpt>
<trkpt lat="46.30725" lon="7.805"><ele>640.8</ele><time>2016-08-06T15:10:42Z</time></trkpt>
<trkpt lat="46.30725" lon="7.80482"><ele>640.6</ele><time>2016-08-06T15:10:44Z</time></trkpt>
<trkpt lat="46.30725" lon="7.80463"><ele>640.6</ele><time>2016-08-06T15:10:46Z</time></trkpt>
<trkpt lat="46.30726" lon="7.80445"><ele>640.4</ele><time>2016-08-06T15:10:48Z</time></trkpt>
<trkpt lat="46.30726" lon="7.80426"><ele>640.4</ele><time>2016-08-06T15:10:50Z</time></trkpt>
<trkpt lat="46.30726" lon="7.80417"><ele>640.2</ele><time>2016-08-06T15:10:51Z</time></trkpt>
<trkpt lat="46.30726" lon="7.80407"><ele>640.2</ele><time>2016-08-06T15:10:52Z</time></trkpt>
<trkpt lat="46.30726" lon="7.80388"><ele>640.2</ele><time>2016-08-06T15:10:54Z</time></trkpt>
<trkpt lat="46.30726" lon="7.8037"><ele>640</ele><time>2016-08-06T15:10:56Z</time></trkpt>
<trkpt lat="46.30726" lon="7.80351"><ele>640</ele><time>2016-08-06T15:10:58Z</time></trkpt>
<trkpt lat="46.30726" lon="7.80332"><ele>639.8</ele><time>2016-08-06T15:11:00Z</time></trkpt>
<trkpt lat="46.30726" lon="7.80314"><ele>639.8</ele><time>2016-08-06T15:11:02Z</time></trkpt>
<trkpt lat="46.30726" lon="7.80295"><ele>639.6</ele><time>2016-08-06T15:11:04Z</time></trkpt>
<trkpt lat="46.30726" lon="7.80286"><ele>639.6</ele><time>2016-08-06T15:11:05Z</time></trkpt>
<trkpt lat="46.30726" lon="7.80276"><ele>639.6</ele><time>2016-08-06T15:11:06Z</time></trkpt>
<trkpt lat="46.30727" lon="7.80256"><ele>639.4</ele><time>2016-08-06T15:11:08Z</time></trkpt>
<trkpt lat="46.30728" lon="7.80237"><ele>639.4</ele><time>2016-08-06T15:11:10Z</time></trkpt>
<trkpt lat="46.30728" lon="7.80217"><ele>639.2</ele><time>2016-08-06T15:11:12Z</time></trkpt>
<trkpt lat="46.30728" lon="7.80198"><ele>639.2</ele><time>2016-08-06T15:11:14Z</time></trkpt>
<trkpt lat="46.30728" lon="7.80179"><ele>639.2</ele><time>2016-08-06T15:11:16Z</time></trkpt>
<trkpt lat="46.30728" lon="7.80159"><ele>639</ele><time>2016-08-06T15:11:18Z</time></trkpt>
<trkpt lat="46.30727" lon="7.80141"><ele>639</ele><time>2016-08-06T15:11:20Z</time></trkpt>
<trkpt lat="46.30727" lon="7.80123"><ele>638.8</ele><time>2016-08-06T15:11:22Z</time></trkpt>
<trkpt lat="46.30726" lon="7.80105"><ele>638.8</ele><time>2016-08-06T15:11:24Z</time></trkpt>
<trkpt lat="46.30726" lon="7.80087"><ele>638.6</ele><time>2016-08-06T15:11:26Z</time></trkpt>
<trkpt lat="46.30727" lon="7.80072"><ele>638.6</ele><time>2016-08-06T15:11:28Z</time></trkpt>
<trkpt lat="46.30729" lon="7.80056"><ele>638.4</ele><time>2016-08-06T15:11:30Z</time></trkpt>
<trkpt lat="46.30731" lon="7.80042"><ele>638.4</ele><time>2016-08-06T15:11:32Z</time></trkpt>
<trkpt lat="46.30741" lon="7.80036"><ele>638.2</ele><time>2016-08-06T15:11:34Z</time></trkpt>
<trkpt lat="46.30753" lon="7.80034"><ele>638.2</ele><time>2016-08-06T15:11:36Z</time></trkpt>
<trkpt lat="46.30766" lon="7.80033"><ele>638</ele><time>2016-08-06T15:11:38Z</time></trkpt>
<trkpt lat="46.30772" lon="7.80032"><ele>638</ele><time>2016-08-06T15:11:39Z</time></trkpt>
<trkpt lat="46.30778" lon="7.80031"><ele>637.8</ele><time>2016-08-06T15:11:40Z</time></trkpt>
<trkpt lat="46.3079" lon="7.80029"><ele>637.4</ele><time>2016-08-06T15:11:42Z</time></trkpt>
<trkpt lat="46.30803" lon="7.80027"><ele>636.8</ele><time>2016-08-06T15:11:44Z</time></trkpt>
<trkpt lat="46.3081" lon="7.80026"><ele>636.8</ele><time>2016-08-06T15:11:45Z</time></trkpt>
<trkpt lat="46.30816" lon="7.80025"><ele>637</ele><time>2016-08-06T15:11:46Z</time></trkpt>
<trkpt lat="46.30822" lon="7.80025"><ele>637.2</ele><time>2016-08-06T15:11:47Z</time></trkpt>
<trkpt lat="46.30826" lon="7.80026"><ele>637.6</ele><time>2016-08-06T15:11:48Z</time></trkpt>
<trkpt lat="46.30835" lon="7.80028"><ele>638</ele><time>2016-08-06T15:11:50Z</time></trkpt>
<trkpt lat="46.30839" lon="7.80029"><ele>638</ele><time>2016-08-06T15:11:51Z</time></trkpt>
<trkpt lat="46.30842" lon="7.80029"><ele>637</ele><time>2016-08-06T15:11:52Z</time></trkpt>
<trkpt lat="46.30843" lon="7.80029"><ele>635.2</ele><time>2016-08-06T15:11:54Z</time></trkpt>
<trkpt lat="46.30843" lon="7.80029"><ele>634.2</ele><time>2016-08-06T15:11:55Z</time></trkpt>
<trkpt lat="46.30841" lon="7.8003"><ele>633.6</ele><time>2016-08-06T15:11:56Z</time></trkpt>
<trkpt lat="46.30836" lon="7.80031"><ele>633.8</ele><time>2016-08-06T15:11:58Z</time></trkpt>
<trkpt lat="46.30832" lon="7.8003"><ele>634</ele><time>2016-08-06T15:12:00Z</time></trkpt>
<trkpt lat="46.30833" lon="7.80023"><ele>634</ele><time>2016-08-06T15:12:01Z</time></trkpt>
<trkpt lat="46.30837" lon="7.80022"><ele>634.2</ele><time>2016-08-06T15:12:02Z</time></trkpt>
<trkpt lat="46.30844" lon="7.8002"><ele>634.4</ele><time>2016-08-06T15:12:04Z</time></trkpt>
<trkpt lat="46.30851" lon="7.80018"><ele>634.6</ele><time>2016-08-06T15:12:06Z</time></trkpt>
<trkpt lat="46.30855" lon="7.80017"><ele>634.6</ele><time>2016-08-06T15:12:07Z</time></trkpt>
<trkpt lat="46.30858" lon="7.80016"><ele>634.6</ele><time>2016-08-06T15:12:08Z</time></trkpt>
<trkpt lat="46.30866" lon="7.80014"><ele>634.4</ele><time>2016-08-06T15:12:10Z</time></trkpt>
<trkpt lat="46.30873" lon="7.80011"><ele>634.4</ele><time>2016-08-06T15:12:12Z</time></trkpt>
<trkpt lat="46.3088" lon="7.80009"><ele>634</ele><time>2016-08-06T15:12:14Z</time></trkpt>
<trkpt lat="46.30888" lon="7.8001"><ele>633.8</ele><time>2016-08-06T15:12:16Z</time></trkpt>
<trkpt lat="46.30896" lon="7.8001"><ele>633.6</ele><time>2016-08-06T15:12:18Z</time></trkpt>
<trkpt lat="46.30904" lon="7.8001"><ele>634</ele><time>2016-08-06T15:12:20Z</time></trkpt>
<trkpt lat="46.3091" lon="7.80011"><ele>634.4</ele><time>2016-08-06T15:12:22Z</time></trkpt>
<trkpt lat="46.30911" lon="7.80013"><ele>634.6</ele><time>2016-08-06T15:12:23Z</time></trkpt>
<trkpt lat="46.30916" lon="7.80012"><ele>634.8</ele><time>2016-08-06T15:12:24Z</time></trkpt>
<trkpt lat="46.30925" lon="7.80012"><ele>635</ele><time>2016-08-06T15:12:26Z</time></trkpt>
<trkpt lat="46.30934" lon="7.80012"><ele>635.4</ele><time>2016-08-06T15:12:28Z</time></trkpt>
<trkpt lat="46.30943" lon="7.80012"><ele>635.8</ele><time>2016-08-06T15:12:30Z</time></trkpt>
<trkpt lat="46.30953" lon="7.80011"><ele>636.2</ele><time>2016-08-06T15:12:32Z</time></trkpt>
<trkpt lat="46.30957" lon="7.80011"><ele>636.4</ele><time>2016-08-06T15:12:33Z</time></trkpt>
<trkpt lat="46.30962" lon="7.8001"><ele>636.6</ele><time>2016-08-06T15:12:34Z</time></trkpt>
<trkpt lat="46.30972" lon="7.80008"><ele>636.8</ele><time>2016-08-06T15:12:36Z</time></trkpt>
<trkpt lat="46.30982" lon="7.80006"><ele>636.8</ele><time>2016-08-06T15:12:38Z</time></trkpt>
<trkpt lat="46.30992" lon="7.80004"><ele>636.8</ele><time>2016-08-06T15:12:40Z</time></trkpt>
<trkpt lat="46.31002" lon="7.80002"><ele>636.8</ele><time>2016-08-06T15:12:42Z</time></trkpt>
<trkpt lat="46.31013" lon="7.80001"><ele>636.8</ele><time>2016-08-06T15:12:44Z</time></trkpt>
<trkpt lat="46.31023" lon="7.8"><ele>636.8</ele><time>2016-08-06T15:12:46Z</time></trkpt>
<trkpt lat="46.31028" lon="7.8"><ele>636.8</ele><time>2016-08-06T15:12:47Z</time></trkpt>
<trkpt lat="46.31033" lon="7.8"><ele>637</ele><time>2016-08-06T15:12:48Z</time></trkpt>
<trkpt lat="46.31044" lon="7.80001"><ele>637</ele><time>2016-08-06T15:12:50Z</time></trkpt>
<trkpt lat="46.31049" lon="7.80001"><ele>637</ele><time>2016-08-06T15:12:51Z</time></trkpt>
<trkpt lat="46.31054" lon="7.80003"><ele>637</ele><time>2016-08-06T15:12:52Z</time></trkpt>
<trkpt lat="46.31059" lon="7.80006"><ele>637.2</ele><time>2016-08-06T15:12:53Z</time></trkpt>
<trkpt lat="46.31064" lon="7.80004"><ele>637.2</ele><time>2016-08-06T15:12:54Z</time></trkpt>
<trkpt lat="46.31075" lon="7.80001"><ele>637.2</ele><time>2016-08-06T15:12:56Z</time></trkpt>
<trkpt lat="46.31086" lon="7.79997"><ele>637.2</ele><time>2016-08-06T15:12:58Z</time></trkpt>
<trkpt lat="46.31096" lon="7.79995"><ele>637.4</ele><time>2016-08-06T15:13:00Z</time></trkpt>
<trkpt lat="46.31106" lon="7.79996"><ele>637.4</ele><time>2016-08-06T15:13:02Z</time></trkpt>
<trkpt lat="46.31116" lon="7.79997"><ele>637.6</ele><time>2016-08-06T15:13:04Z</time></trkpt>
<trkpt lat="46.3112" lon="7.79996"><ele>637.6</ele><time>2016-08-06T15:13:05Z</time></trkpt>
<trkpt lat="46.31124" lon="7.79994"><ele>637.6</ele><time>2016-08-06T15:13:06Z</time></trkpt>
<trkpt lat="46.31126" lon="7.7999"><ele>637.6</ele><time>2016-08-06T15:13:07Z</time></trkpt>
<trkpt lat="46.31127" lon="7.79985"><ele>637.6</ele><time>2016-08-06T15:13:08Z</time></trkpt>
<trkpt lat="46.31127" lon="7.79975"><ele>637.8</ele><time>2016-08-06T15:13:10Z</time></trkpt>
<trkpt lat="46.31128" lon="7.79964"><ele>637.8</ele><time>2016-08-06T15:13:12Z</time></trkpt>
<trkpt lat="46.31129" lon="7.79954"><ele>638</ele><time>2016-08-06T15:13:14Z</time></trkpt>
<trkpt lat="46.31129" lon="7.79949"><ele>638</ele><time>2016-08-06T15:13:15Z</time></trkpt>
<trkpt lat="46.31127" lon="7.79945"><ele>638</ele><time>2016-08-06T15:13:16Z</time></trkpt>
<trkpt lat="46.31125" lon="7.79938"><ele>638</ele><time>2016-08-06T15:13:18Z</time></trkpt>
<trkpt lat="46.31122" lon="7.7993"><ele>638.2</ele><time>2016-08-06T15:13:20Z</time></trkpt>
<trkpt lat="46.3112" lon="7.79922"><ele>638.2</ele><time>2016-08-06T15:13:22Z</time></trkpt>
<trkpt lat="46.3112" lon="7.7991"><ele>638.2</ele><time>2016-08-06T15:13:24Z</time></trkpt>
<trkpt lat="46.3112" lon="7.79898"><ele>638.4</ele><time>2016-08-06T15:13:26Z</time></trkpt>
<trkpt lat="46.3112" lon="7.79886"><ele>638.4</ele><time>2016-08-06T15:13:28Z</time></trkpt>
<trkpt lat="46.3112" lon="7.79873"><ele>638.6</ele><time>2016-08-06T15:13:30Z</time></trkpt>
<trkpt lat="46.3112" lon="7.79861"><ele>638.6</ele><time>2016-08-06T15:13:32Z</time></trkpt>
<trkpt lat="46.3112" lon="7.79855"><ele>638.6</ele><time>2016-08-06T15:13:33Z</time></trkpt>
<trkpt lat="46.3112" lon="7.79848"><ele>638.6</ele><time>2016-08-06T15:13:34Z</time></trkpt>
<trkpt lat="46.31119" lon="7.79834"><ele>638.8</ele><time>2016-08-06T15:13:36Z</time></trkpt>
<trkpt lat="46.31119" lon="7.7982"><ele>639.2</ele><time>2016-08-06T15:13:38Z</time></trkpt>
<trkpt lat="46.31118" lon="7.79806"><ele>639.6</ele><time>2016-08-06T15:13:40Z</time></trkpt>
<trkpt lat="46.31118" lon="7.79791"><ele>640</ele><time>2016-08-06T15:13:42Z</time></trkpt>
<trkpt lat="46.31118" lon="7.79784"><ele>640</ele><time>2016-08-06T15:13:43Z</time></trkpt>
<trkpt lat="46.31117" lon="7.79777"><ele>640.2</ele><time>2016-08-06T15:13:44Z</time></trkpt>
<trkpt lat="46.31116" lon="7.79763"><ele>640.6</ele><time>2016-08-06T15:13:46Z</time></trkpt>
<trkpt lat="46.31115" lon="7.79748"><ele>641</ele><time>2016-08-06T15:13:48Z</time></trkpt>
<trkpt lat="46.31114" lon="7.79734"><ele>641.4</ele><time>2016-08-06T15:13:50Z</time></trkpt>
<trkpt lat="46.31113" lon="7.7972"><ele>641.8</ele><time>2016-08-06T15:13:52Z</time></trkpt>
<trkpt lat="46.31113" lon="7.79713"><ele>642</ele><time>2016-08-06T15:13:53Z</time></trkpt>
<trkpt lat="46.31112" lon="7.79707"><ele>642.2</ele><time>2016-08-06T15:13:54Z</time></trkpt>
<trkpt lat="46.31112" lon="7.79696"><ele>642.8</ele><time>2016-08-06T15:13:56Z</time></trkpt>
<trkpt lat="46.31111" lon="7.79685"><ele>643.4</ele><time>2016-08-06T15:13:58Z</time></trkpt>
<trkpt lat="46.31111" lon="7.79674"><ele>644</ele><time>2016-08-06T15:14:00Z</time></trkpt>
<trkpt lat="46.3111" lon="7.79663"><ele>644.4</ele><time>2016-08-06T15:14:02Z</time></trkpt>
<trkpt lat="46.3111" lon="7.79658"><ele>644.8</ele><time>2016-08-06T15:14:03Z</time></trkpt>
<trkpt lat="46.31112" lon="7.79651"><ele>645</ele><time>2016-08-06T15:14:04Z</time></trkpt>
<trkpt lat="46.31114" lon="7.79644"><ele>645.2</ele><time>2016-08-06T15:14:05Z</time></trkpt>
<trkpt lat="46.31115" lon="7.79637"><ele>645.2</ele><time>2016-08-06T15:14:06Z</time></trkpt>
<trkpt lat="46.31119" lon="7.79623"><ele>645.4</ele><time>2016-08-06T15:14:08Z</time></trkpt>
<trkpt lat="46.31122" lon="7.79609"><ele>645.6</ele><time>2016-08-06T15:14:10Z</time></trkpt>
<trkpt lat="46.31124" lon="7.79595"><ele>645.6</ele><time>2016-08-06T15:14:12Z</time></trkpt>
<trkpt lat="46.31123" lon="7.7958"><ele>645.8</ele><time>2016-08-06T15:14:14Z</time></trkpt>
<trkpt lat="46.31121" lon="7.79564"><ele>645.8</ele><time>2016-08-06T15:14:16Z</time></trkpt>
<trkpt lat="46.3112" lon="7.79548"><ele>646</ele><time>2016-08-06T15:14:18Z</time></trkpt>
<trkpt lat="46.31118" lon="7.79533"><ele>646</ele><time>2016-08-06T15:14:20Z</time></trkpt>
<trkpt lat="46.31117" lon="7.79525"><ele>646.2</ele><time>2016-08-06T15:14:21Z</time></trkpt>
<trkpt lat="46.31115" lon="7.79517"><ele>646.2</ele><time>2016-08-06T15:14:22Z</time></trkpt>
<trkpt lat="46.31112" lon="7.79501"><ele>646</ele><time>2016-08-06T15:14:24Z</time></trkpt>
<trkpt lat="46.31109" lon="7.79485"><ele>645.8</ele><time>2016-08-06T15:14:26Z</time></trkpt>
<trkpt lat="46.31106" lon="7.79469"><ele>645.6</ele><time>2016-08-06T15:14:28Z</time></trkpt>
<trkpt lat="46.31105" lon="7.7946"><ele>645.4</ele><time>2016-08-06T15:14:29Z</time></trkpt>
<trkpt lat="46.31104" lon="7.79451"><ele>645.2</ele><time>2016-08-06T15:14:30Z</time></trkpt>
<trkpt lat="46.31101" lon="7.79433"><ele>645</ele><time>2016-08-06T15:14:32Z</time></trkpt>
<trkpt lat="46.31099" lon="7.79415"><ele>644.8</ele><time>2016-08-06T15:14:34Z</time></trkpt>
<trkpt lat="46.31097" lon="7.79397"><ele>644.6</ele><time>2016-08-06T15:14:36Z</time></trkpt>
<trkpt lat="46.31096" lon="7.7938"><ele>644.4</ele><time>2016-08-06T15:14:38Z</time></trkpt>
<trkpt lat="46.31095" lon="7.79363"><ele>644.2</ele><time>2016-08-06T15:14:40Z</time></trkpt>
<trkpt lat="46.31094" lon="7.79346"><ele>644</ele><time>2016-08-06T15:14:42Z</time></trkpt>
<trkpt lat="46.31094" lon="7.79337"><ele>643.8</ele><time>2016-08-06T15:14:43Z</time></trkpt>
<trkpt lat="46.31095" lon="7.79327"><ele>643.8</ele><time>2016-08-06T15:14:44Z</time></trkpt>
<trkpt lat="46.31096" lon="7.79309"><ele>643.6</ele><time>2016-08-06T15:14:46Z</time></trkpt>
<trkpt lat="46.31097" lon="7.7929"><ele>643.4</ele><time>2016-08-06T15:14:48Z</time></trkpt>
<trkpt lat="46.31098" lon="7.79271"><ele>643</ele><time>2016-08-06T15:14:50Z</time></trkpt>
<trkpt lat="46.31098" lon="7.79253"><ele>642.8</ele><time>2016-08-06T15:14:52Z</time></trkpt>
<trkpt lat="46.31099" lon="7.79234"><ele>642.6</ele><time>2016-08-06T15:14:54Z</time></trkpt>
<trkpt lat="46.311" lon="7.79216"><ele>642.4</ele><time>2016-08-06T15:14:56Z</time></trkpt>
<trkpt lat="46.31102" lon="7.79208"><ele>642.2</ele><time>2016-08-06T15:14:57Z</time></trkpt>
<trkpt lat="46.31105" lon="7.792"><ele>641.8</ele><time>2016-08-06T15:14:58Z</time></trkpt>
<trkpt lat="46.3111" lon="7.79184"><ele>641</ele><time>2016-08-06T15:15:00Z</time></trkpt>
<trkpt lat="46.31117" lon="7.7917"><ele>640</ele><time>2016-08-06T15:15:02Z</time></trkpt>
<trkpt lat="46.31125" lon="7.79155"><ele>639.6</ele><time>2016-08-06T15:15:04Z</time></trkpt>
<trkpt lat="46.31133" lon="7.79141"><ele>639.2</ele><time>2016-08-06T15:15:06Z</time></trkpt>
<trkpt lat="46.31135" lon="7.79134"><ele>638.8</ele><time>2016-08-06T15:15:07Z</time></trkpt>
<trkpt lat="46.31134" lon="7.79128"><ele>638.6</ele><time>2016-08-06T15:15:08Z</time></trkpt>
<trkpt lat="46.31132" lon="7.79123"><ele>637.6</ele><time>2016-08-06T15:15:09Z</time></trkpt>
<trkpt lat="46.31127" lon="7.7912"><ele>636.8</ele><time>2016-08-06T15:15:10Z</time></trkpt>
<trkpt lat="46.31116" lon="7.79116"><ele>635.2</ele><time>2016-08-06T15:15:12Z</time></trkpt>
<trkpt lat="46.3111" lon="7.79114"><ele>634.6</ele><time>2016-08-06T15:15:13Z</time></trkpt>
<trkpt lat="46.31105" lon="7.79112"><ele>634.8</ele><time>2016-08-06T15:15:14Z</time></trkpt>
<trkpt lat="46.31094" lon="7.79108"><ele>635.2</ele><time>2016-08-06T15:15:16Z</time></trkpt>
<trkpt lat="46.31083" lon="7.79104"><ele>635.6</ele><time>2016-08-06T15:15:18Z</time></trkpt>
<trkpt lat="46.31072" lon="7.79095"><ele>635.8</ele><time>2016-08-06T15:15:20Z</time></trkpt>
<trkpt lat="46.31065" lon="7.7908"><ele>636.2</ele><time>2016-08-06T15:15:22Z</time></trkpt>
<trkpt lat="46.31068" lon="7.79061"><ele>636.6</ele><time>2016-08-06T15:15:24Z</time></trkpt>
<trkpt lat="46.31072" lon="7.79053"><ele>636.8</ele><time>2016-08-06T15:15:25Z</time></trkpt>
<trkpt lat="46.31076" lon="7.79045"><ele>637</ele><time>2016-08-06T15:15:26Z</time></trkpt>
<trkpt lat="46.31083" lon="7.79029"><ele>637.6</ele><time>2016-08-06T15:15:28Z</time></trkpt>
<trkpt lat="46.31091" lon="7.79013"><ele>638.2</ele><time>2016-08-06T15:15:30Z</time></trkpt>
<trkpt lat="46.31094" lon="7.79005"><ele>638.4</ele><time>2016-08-06T15:15:31Z</time></trkpt>
<trkpt lat="46.31097" lon="7.78997"><ele>638.8</ele><time>2016-08-06T15:15:32Z</time></trkpt>
<trkpt lat="46.31103" lon="7.78982"><ele>639.4</ele><time>2016-08-06T15:15:34Z</time></trkpt>
<trkpt lat="46.31108" lon="7.78967"><ele>639.8</ele><time>2016-08-06T15:15:36Z</time></trkpt>
<trkpt lat="46.31114" lon="7.78951"><ele>638.8</ele><time>2016-08-06T15:15:38Z</time></trkpt>
<trkpt lat="46.31116" lon="7.78944"><ele>638.4</ele><time>2016-08-06T15:15:39Z</time></trkpt>
<trkpt lat="46.31119" lon="7.78936"><ele>637.8</ele><time>2016-08-06T15:15:40Z</time></trkpt>
<trkpt lat="46.31123" lon="7.7892"><ele>637</ele><time>2016-08-06T15:15:42Z</time></trkpt>
<trkpt lat="46.31128" lon="7.78904"><ele>637</ele><time>2016-08-06T15:15:44Z</time></trkpt>
<trkpt lat="46.31133" lon="7.78888"><ele>637</ele><time>2016-08-06T15:15:46Z</time></trkpt>
<trkpt lat="46.31135" lon="7.7888"><ele>636.8</ele><time>2016-08-06T15:15:47Z</time></trkpt>
<trkpt lat="46.31137" lon="7.78871"><ele>636.8</ele><time>2016-08-06T15:15:48Z</time></trkpt>
<trkpt lat="46.3114" lon="7.78855"><ele>636.8</ele><time>2016-08-06T15:15:50Z</time></trkpt>
<trkpt lat="46.31144" lon="7.78839"><ele>636.8</ele><time>2016-08-06T15:15:52Z</time></trkpt>
<trkpt lat="46.31147" lon="7.78823"><ele>636.6</ele><time>2016-08-06T15:15:54Z</time></trkpt>
<trkpt lat="46.31149" lon="7.78815"><ele>636.6</ele><time>2016-08-06T15:15:55Z</time></trkpt>
<trkpt lat="46.3115" lon="7.78807"><ele>636.6</ele><time>2016-08-06T15:15:56Z</time></trkpt>
<trkpt lat="46.31153" lon="7.78791"><ele>636.6</ele><time>2016-08-06T15:15:58Z</time></trkpt>
<trkpt lat="46.31155" lon="7.78774"><ele>636.4</ele><time>2016-08-06T15:16:00Z</time></trkpt>
<trkpt lat="46.31157" lon="7.78758"><ele>636.4</ele><time>2016-08-06T15:16:02Z</time></trkpt>
<trkpt lat="46.31158" lon="7.7875"><ele>636.4</ele><time>2016-08-06T15:16:03Z</time></trkpt>
<trkpt lat="46.31159" lon="7.78741"><ele>636.4</ele><time>2016-08-06T15:16:04Z</time></trkpt>
<trkpt lat="46.3116" lon="7.78723"><ele>636.4</ele><time>2016-08-06T15:16:06Z</time></trkpt>
<trkpt lat="46.31162" lon="7.78706"><ele>636.2</ele><time>2016-08-06T15:16:08Z</time></trkpt>
<trkpt lat="46.31163" lon="7.78688"><ele>636.2</ele><time>2016-08-06T15:16:10Z</time></trkpt>
<trkpt lat="46.31164" lon="7.78679"><ele>636.2</ele><time>2016-08-06T15:16:11Z</time></trkpt>
<trkpt lat="46.31164" lon="7.78671"><ele>636.2</ele><time>2016-08-06T15:16:12Z</time></trkpt>
<trkpt lat="46.31165" lon="7.78654"><ele>636</ele><time>2016-08-06T15:16:14Z</time></trkpt>
<trkpt lat="46.31166" lon="7.78636"><ele>636</ele><time>2016-08-06T15:16:16Z</time></trkpt>
<trkpt lat="46.31166" lon="7.78619"><ele>636</ele><time>2016-08-06T15:16:18Z</time></trkpt>
<trkpt lat="46.31167" lon="7.78611"><ele>636</ele><time>2016-08-06T15:16:19Z</time></trkpt>
<trkpt lat="46.31167" lon="7.78602"><ele>635.8</ele><time>2016-08-06T15:16:20Z</time></trkpt>
<trkpt lat="46.31168" lon="7.78584"><ele>635.8</ele><time>2016-08-06T15:16:22Z</time></trkpt>
<trkpt lat="46.31169" lon="7.78566"><ele>635.8</ele><time>2016-08-06T15:16:24Z</time></trkpt>
<trkpt lat="46.3117" lon="7.78548"><ele>635.8</ele><time>2016-08-06T15:16:26Z</time></trkpt>
<trkpt lat="46.3117" lon="7.78539"><ele>635.6</ele><time>2016-08-06T15:16:27Z</time></trkpt>
<trkpt lat="46.31171" lon="7.78531"><ele>635.6</ele><time>2016-08-06T15:16:28Z</time></trkpt>
<trkpt lat="46.31173" lon="7.78513"><ele>635.6</ele><time>2016-08-06T15:16:30Z</time></trkpt>
<trkpt lat="46.31175" lon="7.78496"><ele>635.6</ele><time>2016-08-06T15:16:32Z</time></trkpt>
<trkpt lat="46.31177" lon="7.78479"><ele>635.4</ele><time>2016-08-06T15:16:34Z</time></trkpt>
<trkpt lat="46.31177" lon="7.7847"><ele>635.4</ele><time>2016-08-06T15:16:35Z</time></trkpt>
<trkpt lat="46.31177" lon="7.78461"><ele>635.4</ele><time>2016-08-06T15:16:36Z</time></trkpt>
<trkpt lat="46.31178" lon="7.78444"><ele>635.4</ele><time>2016-08-06T15:16:38Z</time></trkpt>
<trkpt lat="46.31178" lon="7.78426"><ele>635.2</ele><time>2016-08-06T15:16:40Z</time></trkpt>
<trkpt lat="46.31179" lon="7.78408"><ele>635.2</ele><time>2016-08-06T15:16:42Z</time></trkpt>
<trkpt lat="46.3118" lon="7.7839"><ele>635.2</ele><time>2016-08-06T15:16:44Z</time></trkpt>
<trkpt lat="46.31181" lon="7.78372"><ele>635</ele><time>2016-08-06T15:16:46Z</time></trkpt>
<trkpt lat="46.31182" lon="7.78354"><ele>635</ele><time>2016-08-06T15:16:48Z</time></trkpt>
<trkpt lat="46.31184" lon="7.78336"><ele>635</ele><time>2016-08-06T15:16:50Z</time></trkpt>
<trkpt lat="46.31185" lon="7.78318"><ele>635</ele><time>2016-08-06T15:16:52Z</time></trkpt>
<trkpt lat="46.31186" lon="7.783"><ele>634.8</ele><time>2016-08-06T15:16:54Z</time></trkpt>
<trkpt lat="46.31186" lon="7.78284"><ele>634.8</ele><time>2016-08-06T15:16:56Z</time></trkpt>
<trkpt lat="46.31185" lon="7.78268"><ele>634.8</ele><time>2016-08-06T15:16:58Z</time></trkpt>
<trkpt lat="46.31185" lon="7.78251"><ele>634.6</ele><time>2016-08-06T15:17:00Z</time></trkpt>
<trkpt lat="46.31185" lon="7.78235"><ele>634.6</ele><time>2016-08-06T15:17:02Z</time></trkpt>
<trkpt lat="46.31186" lon="7.7822"><ele>634.6</ele><time>2016-08-06T15:17:04Z</time></trkpt>
<trkpt lat="46.31186" lon="7.78205"><ele>634.4</ele><time>2016-08-06T15:17:06Z</time></trkpt>
<trkpt lat="46.31186" lon="7.78191"><ele>634.4</ele><time>2016-08-06T15:17:08Z</time></trkpt>
<trkpt lat="46.31186" lon="7.78176"><ele>634.4</ele><time>2016-08-06T15:17:10Z</time></trkpt>
<trkpt lat="46.31187" lon="7.78169"><ele>634.4</ele><time>2016-08-06T15:17:11Z</time></trkpt>
<trkpt lat="46.31187" lon="7.78162"><ele>634.4</ele><time>2016-08-06T15:17:12Z</time></trkpt>
<trkpt lat="46.31188" lon="7.78148"><ele>634.2</ele><time>2016-08-06T15:17:14Z</time></trkpt>
<trkpt lat="46.31188" lon="7.78135"><ele>634.2</ele><time>2016-08-06T15:17:16Z</time></trkpt>
<trkpt lat="46.31188" lon="7.78122"><ele>634.2</ele><time>2016-08-06T15:17:18Z</time></trkpt>
<trkpt lat="46.31181" lon="7.78114"><ele>634</ele><time>2016-08-06T15:17:20Z</time></trkpt>
<trkpt lat="46.31177" lon="7.78111"><ele>634</ele><time>2016-08-06T15:17:21Z</time></trkpt>
<trkpt lat="46.31171" lon="7.78109"><ele>634</ele><time>2016-08-06T15:17:22Z</time></trkpt>
<trkpt lat="46.3116" lon="7.78104"><ele>634</ele><time>2016-08-06T15:17:24Z</time></trkpt>
<trkpt lat="46.31149" lon="7.781"><ele>633.8</ele><time>2016-08-06T15:17:26Z</time></trkpt>
<trkpt lat="46.31137" lon="7.78096"><ele>633.8</ele><time>2016-08-06T15:17:28Z</time></trkpt>
<trkpt lat="46.31131" lon="7.78094"><ele>633.8</ele><time>2016-08-06T15:17:29Z</time></trkpt>
<trkpt lat="46.31124" lon="7.78094"><ele>633.6</ele><time>2016-08-06T15:17:30Z</time></trkpt>
<trkpt lat="46.31118" lon="7.78093"><ele>633.6</ele><time>2016-08-06T15:17:31Z</time></trkpt>
<trkpt lat="46.31112" lon="7.78089"><ele>633.8</ele><time>2016-08-06T15:17:32Z</time></trkpt>
<trkpt lat="46.311" lon="7.78082"><ele>633.8</ele><time>2016-08-06T15:17:34Z</time></trkpt>
<trkpt lat="46.31089" lon="7.78075"><ele>634</ele><time>2016-08-06T15:17:36Z</time></trkpt>
<trkpt lat="46.31077" lon="7.78068"><ele>634</ele><time>2016-08-06T15:17:38Z</time></trkpt>
<trkpt lat="46.31072" lon="7.78064"><ele>634.2</ele><time>2016-08-06T15:17:39Z</time></trkpt>
<trkpt lat="46.31066" lon="7.78061"><ele>634.2</ele><time>2016-08-06T15:17:40Z</time></trkpt>
<trkpt lat="46.31054" lon="7.78055"><ele>634.2</ele><time>2016-08-06T15:17:42Z</time></trkpt>
<trkpt lat="46.31042" lon="7.78048"><ele>634.4</ele><time>2016-08-06T15:17:44Z</time></trkpt>
<trkpt lat="46.3103" lon="7.78042"><ele>634.6</ele><time>2016-08-06T15:17:46Z</time></trkpt>
<trkpt lat="46.31024" lon="7.78038"><ele>634.6</ele><time>2016-08-06T15:17:47Z</time></trkpt>
<trkpt lat="46.31018" lon="7.78036"><ele>634.6</ele><time>2016-08-06T15:17:48Z</time></trkpt>
<trkpt lat="46.31007" lon="7.7803"><ele>634.8</ele><time>2016-08-06T15:17:50Z</time></trkpt>
<trkpt lat="46.30995" lon="7.78025"><ele>634.8</ele><time>2016-08-06T15:17:52Z</time></trkpt>
<trkpt lat="46.30983" lon="7.78019"><ele>635</ele><time>2016-08-06T15:17:54Z</time></trkpt>
<trkpt lat="46.30977" lon="7.78016"><ele>635</ele><time>2016-08-06T15:17:55Z</time></trkpt>
<trkpt lat="46.30971" lon="7.78014"><ele>635</ele><time>2016-08-06T15:17:56Z</time></trkpt>
<trkpt lat="46.30959" lon="7.78008"><ele>635.2</ele><time>2016-08-06T15:17:58Z</time></trkpt>
<trkpt lat="46.30947" lon="7.78003"><ele>635.4</ele><time>2016-08-06T15:18:00Z</time></trkpt>
<trkpt lat="46.30935" lon="7.77998"><ele>635.4</ele><time>2016-08-06T15:18:02Z</time></trkpt>
<trkpt lat="46.30929" lon="7.77994"><ele>635.4</ele><time>2016-08-06T15:18:03Z</time></trkpt>
<trkpt lat="46.30923" lon="7.77991"><ele>635.6</ele><time>2016-08-06T15:18:04Z</time></trkpt>
<trkpt lat="46.3091" lon="7.77983"><ele>635.6</ele><time>2016-08-06T15:18:06Z</time></trkpt>
<trkpt lat="46.30898" lon="7.77974"><ele>635.8</ele><time>2016-08-06T15:18:08Z</time></trkpt>
<trkpt lat="46.30894" lon="7.77966"><ele>635.8</ele><time>2016-08-06T15:18:09Z</time></trkpt>
<trkpt lat="46.30888" lon="7.77963"><ele>635.8</ele><time>2016-08-06T15:18:10Z</time></trkpt>
<trkpt lat="46.30876" lon="7.77956"><ele>636</ele><time>2016-08-06T15:18:12Z</time></trkpt>
<trkpt lat="46.30865" lon="7.77949"><ele>636.2</ele><time>2016-08-06T15:18:14Z</time></trkpt>
<trkpt lat="46.30853" lon="7.77942"><ele>636.2</ele><time>2016-08-06T15:18:16Z</time></trkpt>
<trkpt lat="46.3084" lon="7.77936"><ele>636.4</ele><time>2016-08-06T15:18:18Z</time></trkpt>
<trkpt lat="46.30828" lon="7.7793"><ele>636.4</ele><time>2016-08-06T15:18:20Z</time></trkpt>
<trkpt lat="46.30816" lon="7.77925"><ele>636.6</ele><time>2016-08-06T15:18:22Z</time></trkpt>
<trkpt lat="46.3081" lon="7.77921"><ele>636.6</ele><time>2016-08-06T15:18:23Z</time></trkpt>
<trkpt lat="46.30805" lon="7.77916"><ele>636.6</ele><time>2016-08-06T15:18:24Z</time></trkpt>
<trkpt lat="46.30792" lon="7.7791"><ele>636.8</ele><time>2016-08-06T15:18:26Z</time></trkpt>
<trkpt lat="46.3078" lon="7.77904"><ele>637</ele><time>2016-08-06T15:18:28Z</time></trkpt>
<trkpt lat="46.30768" lon="7.77898"><ele>637</ele><time>2016-08-06T15:18:30Z</time></trkpt>
<trkpt lat="46.30762" lon="7.77896"><ele>637</ele><time>2016-08-06T15:18:31Z</time></trkpt>
<trkpt lat="46.30756" lon="7.77895"><ele>637.2</ele><time>2016-08-06T15:18:32Z</time></trkpt>
<trkpt lat="46.30744" lon="7.77892"><ele>637.2</ele><time>2016-08-06T15:18:34Z</time></trkpt>
<trkpt lat="46.30733" lon="7.77886"><ele>637.4</ele><time>2016-08-06T15:18:36Z</time></trkpt>
<trkpt lat="46.30723" lon="7.7788"><ele>637.4</ele><time>2016-08-06T15:18:38Z</time></trkpt>
<trkpt lat="46.30718" lon="7.77877"><ele>637.6</ele><time>2016-08-06T15:18:39Z</time></trkpt>
<trkpt lat="46.30713" lon="7.77874"><ele>637.6</ele><time>2016-08-06T15:18:40Z</time></trkpt>
<trkpt lat="46.30703" lon="7.77869"><ele>637.4</ele><time>2016-08-06T15:18:42Z</time></trkpt>
<trkpt lat="46.30692" lon="7.77864"><ele>637.4</ele><time>2016-08-06T15:18:44Z</time></trkpt>
<trkpt lat="46.30681" lon="7.77859"><ele>637.4</ele><time>2016-08-06T15:18:46Z</time></trkpt>
<trkpt lat="46.30675" lon="7.7785"><ele>637.4</ele><time>2016-08-06T15:18:48Z</time></trkpt>
<trkpt lat="46.30679" lon="7.77833"><ele>637.4</ele><time>2016-08-06T15:18:50Z</time></trkpt>
<trkpt lat="46.30685" lon="7.77814"><ele>637.2</ele><time>2016-08-06T15:18:52Z</time></trkpt>
<trkpt lat="46.3069" lon="7.77803"><ele>637.2</ele><time>2016-08-06T15:18:53Z</time></trkpt>
<trkpt lat="46.30691" lon="7.77794"><ele>637.2</ele><time>2016-08-06T15:18:54Z</time></trkpt>
<trkpt lat="46.30694" lon="7.77775"><ele>637.2</ele><time>2016-08-06T15:18:56Z</time></trkpt>
<trkpt lat="46.30697" lon="7.77756"><ele>637.2</ele><time>2016-08-06T15:18:58Z</time></trkpt>
<trkpt lat="46.307" lon="7.77737"><ele>637.2</ele><time>2016-08-06T15:19:00Z</time></trkpt>
<trkpt lat="46.30702" lon="7.77719"><ele>637.2</ele><time>2016-08-06T15:19:02Z</time></trkpt>
<trkpt lat="46.30705" lon="7.77701"><ele>637</ele><time>2016-08-06T15:19:04Z</time></trkpt>
<trkpt lat="46.30707" lon="7.77682"><ele>637</ele><time>2016-08-06T15:19:06Z</time></trkpt>
<trkpt lat="46.30708" lon="7.77673"><ele>637</ele><time>2016-08-06T15:19:07Z</time></trkpt>
<trkpt lat="46.3071" lon="7.77663"><ele>637</ele><time>2016-08-06T15:19:08Z</time></trkpt>
<trkpt lat="46.30712" lon="7.77644"><ele>637</ele><time>2016-08-06T15:19:10Z</time></trkpt>
<trkpt lat="46.30714" lon="7.77625"><ele>637</ele><time>2016-08-06T15:19:12Z</time></trkpt>
<trkpt lat="46.30717" lon="7.77606"><ele>636.8</ele><time>2016-08-06T15:19:14Z</time></trkpt>
<trkpt lat="46.3072" lon="7.77589"><ele>636.8</ele><time>2016-08-06T15:19:16Z</time></trkpt>
<trkpt lat="46.30723" lon="7.77572"><ele>636.8</ele><time>2016-08-06T15:19:18Z</time></trkpt>
<trkpt lat="46.30726" lon="7.77554"><ele>636.8</ele><time>2016-08-06T15:19:20Z</time></trkpt>
<trkpt lat="46.30727" lon="7.77546"><ele>636.8</ele><time>2016-08-06T15:19:21Z</time></trkpt>
<trkpt lat="46.30728" lon="7.77536"><ele>636.8</ele><time>2016-08-06T15:19:22Z</time></trkpt>
<trkpt lat="46.3073" lon="7.77518"><ele>636.8</ele><time>2016-08-06T15:19:24Z</time></trkpt>
<trkpt lat="46.30732" lon="7.77499"><ele>636.6</ele><time>2016-08-06T15:19:26Z</time></trkpt>
<trkpt lat="46.30734" lon="7.77481"><ele>636.6</ele><time>2016-08-06T15:19:28Z</time></trkpt>
<trkpt lat="46.30736" lon="7.77463"><ele>636.6</ele><time>2016-08-06T15:19:30Z</time></trkpt>
<trkpt lat="46.30739" lon="7.77446"><ele>636.6</ele><time>2016-08-06T15:19:32Z</time></trkpt>
<trkpt lat="46.30742" lon="7.77428"><ele>636.6</ele><time>2016-08-06T15:19:34Z</time></trkpt>
<trkpt lat="46.30745" lon="7.77411"><ele>636.6</ele><time>2016-08-06T15:19:36Z</time></trkpt>
<trkpt lat="46.30748" lon="7.77395"><ele>636.4</ele><time>2016-08-06T15:19:38Z</time></trkpt>
<trkpt lat="46.30749" lon="7.77386"><ele>636.4</ele><time>2016-08-06T15:19:39Z</time></trkpt>
<trkpt lat="46.3075" lon="7.77377"><ele>636.4</ele><time>2016-08-06T15:19:40Z</time></trkpt>
<trkpt lat="46.30752" lon="7.77359"><ele>636.4</ele><time>2016-08-06T15:19:42Z</time></trkpt>
<trkpt lat="46.30754" lon="7.77342"><ele>636.4</ele><time>2016-08-06T15:19:44Z</time></trkpt>
<trkpt lat="46.30756" lon="7.77324"><ele>636.4</ele><time>2016-08-06T15:19:46Z</time></trkpt>
<trkpt lat="46.30757" lon="7.77315"><ele>636.4</ele><time>2016-08-06T15:19:47Z</time></trkpt>
<trkpt lat="46.30758" lon="7.77305"><ele>636.2</ele><time>2016-08-06T15:19:48Z</time></trkpt>
<trkpt lat="46.3076" lon="7.77285"><ele>636.2</ele><time>2016-08-06T15:19:50Z</time></trkpt>
<trkpt lat="46.30762" lon="7.77265"><ele>636.2</ele><time>2016-08-06T15:19:52Z</time></trkpt>
<trkpt lat="46.30765" lon="7.77245"><ele>636.2</ele><time>2016-08-06T15:19:54Z</time></trkpt>
<trkpt lat="46.30767" lon="7.77227"><ele>636.2</ele><time>2016-08-06T15:19:56Z</time></trkpt>
<trkpt lat="46.3077" lon="7.77208"><ele>636.2</ele><time>2016-08-06T15:19:58Z</time></trkpt>
<trkpt lat="46.30773" lon="7.7719"><ele>636</ele><time>2016-08-06T15:20:00Z</time></trkpt>
<trkpt lat="46.30774" lon="7.7718"><ele>636</ele><time>2016-08-06T15:20:01Z</time></trkpt>
<trkpt lat="46.30775" lon="7.7717"><ele>636</ele><time>2016-08-06T15:20:02Z</time></trkpt>
<trkpt lat="46.30778" lon="7.7715"><ele>636</ele><time>2016-08-06T15:20:04Z</time></trkpt>
<trkpt lat="46.3078" lon="7.7713"><ele>636</ele><time>2016-08-06T15:20:06Z</time></trkpt>
<trkpt lat="46.30781" lon="7.7712"><ele>636</ele><time>2016-08-06T15:20:07Z</time></trkpt>
<trkpt lat="46.30783" lon="7.7711"><ele>636</ele><time>2016-08-06T15:20:08Z</time></trkpt>
<trkpt lat="46.30786" lon="7.7709"><ele>635.8</ele><time>2016-08-06T15:20:10Z</time></trkpt>
<trkpt lat="46.3079" lon="7.77071"><ele>635.8</ele><time>2016-08-06T15:20:12Z</time></trkpt>
<trkpt lat="46.30793" lon="7.77051"><ele>635.8</ele><time>2016-08-06T15:20:14Z</time></trkpt>
<trkpt lat="46.30795" lon="7.77031"><ele>635.8</ele><time>2016-08-06T15:20:16Z</time></trkpt>
<trkpt lat="46.30798" lon="7.77011"><ele>635.8</ele><time>2016-08-06T15:20:18Z</time></trkpt>
<trkpt lat="46.308" lon="7.76992"><ele>635.8</ele><time>2016-08-06T15:20:20Z</time></trkpt>
<trkpt lat="46.30802" lon="7.76982"><ele>635.6</ele><time>2016-08-06T15:20:21Z</time></trkpt>
<trkpt lat="46.30803" lon="7.76973"><ele>635.6</ele><time>2016-08-06T15:20:22Z</time></trkpt>
<trkpt lat="46.30804" lon="7.76952"><ele>635.6</ele><time>2016-08-06T15:20:24Z</time></trkpt>
<trkpt lat="46.30805" lon="7.76932"><ele>635.6</ele><time>2016-08-06T15:20:26Z</time></trkpt>
<trkpt lat="46.30808" lon="7.76917"><ele>635.6</ele><time>2016-08-06T15:20:28Z</time></trkpt>
<trkpt lat="46.30809" lon="7.76899"><ele>635.6</ele><time>2016-08-06T15:20:30Z</time></trkpt>
<trkpt lat="46.30809" lon="7.76889"><ele>635.6</ele><time>2016-08-06T15:20:31Z</time></trkpt>
<trkpt lat="46.3081" lon="7.76879"><ele>635.6</ele><time>2016-08-06T15:20:32Z</time></trkpt>
<trkpt lat="46.30813" lon="7.76859"><ele>635.4</ele><time>2016-08-06T15:20:34Z</time></trkpt>
<trkpt lat="46.30815" lon="7.76839"><ele>635.4</ele><time>2016-08-06T15:20:36Z</time></trkpt>
<trkpt lat="46.30817" lon="7.76819"><ele>635.4</ele><time>2016-08-06T15:20:38Z</time></trkpt>
<trkpt lat="46.30819" lon="7.76799"><ele>635.4</ele><time>2016-08-06T15:20:40Z</time></trkpt>
<trkpt lat="46.30823" lon="7.76781"><ele>635.4</ele><time>2016-08-06T15:20:42Z</time></trkpt>
<trkpt lat="46.30826" lon="7.76774"><ele>635.4</ele><time>2016-08-06T15:20:43Z</time></trkpt>
<trkpt lat="46.30828" lon="7.76766"><ele>635.2</ele><time>2016-08-06T15:20:44Z</time></trkpt>
<trkpt lat="46.3083" lon="7.76758"><ele>635.2</ele><time>2016-08-06T15:20:45Z</time></trkpt>
<trkpt lat="46.30831" lon="7.76747"><ele>635.2</ele><time>2016-08-06T15:20:46Z</time></trkpt>
<trkpt lat="46.30834" lon="7.76726"><ele>635.2</ele><time>2016-08-06T15:20:48Z</time></trkpt>
<trkpt lat="46.30838" lon="7.76706"><ele>635.2</ele><time>2016-08-06T15:20:50Z</time></trkpt>
<trkpt lat="46.30838" lon="7.76695"><ele>635.2</ele><time>2016-08-06T15:20:51Z</time></trkpt>
<trkpt lat="46.30838" lon="7.76685"><ele>635.2</ele><time>2016-08-06T15:20:52Z</time></trkpt>
<trkpt lat="46.30841" lon="7.76667"><ele>635.2</ele><time>2016-08-06T15:20:54Z</time></trkpt>
<trkpt lat="46.30844" lon="7.76649"><ele>635</ele><time>2016-08-06T15:20:56Z</time></trkpt>
<trkpt lat="46.30847" lon="7.76631"><ele>635</ele><time>2016-08-06T15:20:58Z</time></trkpt>
<trkpt lat="46.30849" lon="7.76622"><ele>635</ele><time>2016-08-06T15:20:59Z</time></trkpt>
<trkpt lat="46.30851" lon="7.76612"><ele>635</ele><time>2016-08-06T15:21:00Z</time></trkpt>
<trkpt lat="46.30854" lon="7.76592"><ele>635</ele><time>2016-08-06T15:21:02Z</time></trkpt>
<trkpt lat="46.30852" lon="7.76581"><ele>635</ele><time>2016-08-06T15:21:03Z</time></trkpt>
<trkpt lat="46.30853" lon="7.7657"><ele>635</ele><time>2016-08-06T15:21:04Z</time></trkpt>
<trkpt lat="46.30856" lon="7.76549"><ele>634.8</ele><time>2016-08-06T15:21:06Z</time></trkpt>
<trkpt lat="46.30857" lon="7.76539"><ele>634.8</ele><time>2016-08-06T15:21:07Z</time></trkpt>
<trkpt lat="46.30859" lon="7.76528"><ele>634.8</ele><time>2016-08-06T15:21:08Z</time></trkpt>
<trkpt lat="46.30863" lon="7.76507"><ele>634.8</ele><time>2016-08-06T15:21:10Z</time></trkpt>
<trkpt lat="46.30865" lon="7.76487"><ele>634.8</ele><time>2016-08-06T15:21:12Z</time></trkpt>
<trkpt lat="46.30866" lon="7.76467"><ele>634.8</ele><time>2016-08-06T15:21:14Z</time></trkpt>
<trkpt lat="46.30868" lon="7.76447"><ele>634.8</ele><time>2016-08-06T15:21:16Z</time></trkpt>
<trkpt lat="46.30869" lon="7.76437"><ele>634.6</ele><time>2016-08-06T15:21:17Z</time></trkpt>
<trkpt lat="46.3087" lon="7.76429"><ele>634.6</ele><time>2016-08-06T15:21:18Z</time></trkpt>
<trkpt lat="46.30873" lon="7.76411"><ele>634.6</ele><time>2016-08-06T15:21:20Z</time></trkpt>
<trkpt lat="46.30875" lon="7.76393"><ele>634.6</ele><time>2016-08-06T15:21:22Z</time></trkpt>
<trkpt lat="46.30877" lon="7.76376"><ele>634.6</ele><time>2016-08-06T15:21:24Z</time></trkpt>
<trkpt lat="46.30879" lon="7.76367"><ele>634.6</ele><time>2016-08-06T15:21:25Z</time></trkpt>
<trkpt lat="46.3088" lon="7.76356"><ele>634.6</ele><time>2016-08-06T15:21:26Z</time></trkpt>
<trkpt lat="46.30883" lon="7.76334"><ele>634.6</ele><time>2016-08-06T15:21:28Z</time></trkpt>
<trkpt lat="46.30886" lon="7.76313"><ele>634.4</ele><time>2016-08-06T15:21:30Z</time></trkpt>
<trkpt lat="46.30888" lon="7.76302"><ele>634.4</ele><time>2016-08-06T15:21:31Z</time></trkpt>
<trkpt lat="46.30889" lon="7.76292"><ele>634.4</ele><time>2016-08-06T15:21:32Z</time></trkpt>
<trkpt lat="46.30892" lon="7.76271"><ele>634.4</ele><time>2016-08-06T15:21:34Z</time></trkpt>
<trkpt lat="46.30893" lon="7.76251"><ele>634.4</ele><time>2016-08-06T15:21:36Z</time></trkpt>
<trkpt lat="46.30895" lon="7.76231"><ele>634.4</ele><time>2016-08-06T15:21:38Z</time></trkpt>
<trkpt lat="46.30896" lon="7.76221"><ele>634.4</ele><time>2016-08-06T15:21:39Z</time></trkpt>
<trkpt lat="46.309" lon="7.76208"><ele>634.2</ele><time>2016-08-06T15:21:40Z</time></trkpt>
<trkpt lat="46.30902" lon="7.76197"><ele>634.2</ele><time>2016-08-06T15:21:41Z</time></trkpt>
<trkpt lat="46.30902" lon="7.76191"><ele>634.2</ele><time>2016-08-06T15:21:42Z</time></trkpt>
<trkpt lat="46.30902" lon="7.76183"><ele>634.2</ele><time>2016-08-06T15:21:43Z</time></trkpt>
<trkpt lat="46.30904" lon="7.76174"><ele>634.2</ele><time>2016-08-06T15:21:44Z</time></trkpt>
<trkpt lat="46.30907" lon="7.76154"><ele>634.2</ele><time>2016-08-06T15:21:46Z</time></trkpt>
<trkpt lat="46.3091" lon="7.76135"><ele>634.2</ele><time>2016-08-06T15:21:48Z</time></trkpt>
<trkpt lat="46.30913" lon="7.76115"><ele>634.2</ele><time>2016-08-06T15:21:50Z</time></trkpt>
<trkpt lat="46.30916" lon="7.76097"><ele>634</ele><time>2016-08-06T15:21:52Z</time></trkpt>
<trkpt lat="46.30915" lon="7.76086"><ele>634</ele><time>2016-08-06T15:21:53Z</time></trkpt>
<trkpt lat="46.30917" lon="7.76077"><ele>634</ele><time>2016-08-06T15:21:54Z</time></trkpt>
<trkpt lat="46.30919" lon="7.76059"><ele>634</ele><time>2016-08-06T15:21:56Z</time></trkpt>
<trkpt lat="46.30922" lon="7.7604"><ele>634</ele><time>2016-08-06T15:21:58Z</time></trkpt>
<trkpt lat="46.30924" lon="7.76022"><ele>634</ele><time>2016-08-06T15:22:00Z</time></trkpt>
<trkpt lat="46.30926" lon="7.76004"><ele>633.8</ele><time>2016-08-06T15:22:02Z</time></trkpt>
<trkpt lat="46.30928" lon="7.75987"><ele>633.8</ele><time>2016-08-06T15:22:04Z</time></trkpt>
<trkpt lat="46.3093" lon="7.75969"><ele>633.8</ele><time>2016-08-06T15:22:06Z</time></trkpt>
<trkpt lat="46.30933" lon="7.75952"><ele>633.8</ele><time>2016-08-06T15:22:08Z</time></trkpt>
<trkpt lat="46.30936" lon="7.75932"><ele>633.8</ele><time>2016-08-06T15:22:10Z</time></trkpt>
<trkpt lat="46.30939" lon="7.75912"><ele>633.8</ele><time>2016-08-06T15:22:12Z</time></trkpt>
<trkpt lat="46.30942" lon="7.75892"><ele>633.6</ele><time>2016-08-06T15:22:14Z</time></trkpt>
<trkpt lat="46.30943" lon="7.75882"><ele>633.6</ele><time>2016-08-06T15:22:15Z</time></trkpt>
<trkpt lat="46.30944" lon="7.75873"><ele>633.6</ele><time>2016-08-06T15:22:16Z</time></trkpt>
<trkpt lat="46.30945" lon="7.75854"><ele>633.6</ele><time>2016-08-06T15:22:18Z</time></trkpt>
<trkpt lat="46.30945" lon="7.75835"><ele>633.6</ele><time>2016-08-06T15:22:20Z</time></trkpt>
<trkpt lat="46.30946" lon="7.75826"><ele>633.6</ele><time>2016-08-06T15:22:21Z</time></trkpt>
<trkpt lat="46.30946" lon="7.75816"><ele>633.6</ele><time>2016-08-06T15:22:22Z</time></trkpt>
<trkpt lat="46.30947" lon="7.75797"><ele>633.4</ele><time>2016-08-06T15:22:24Z</time></trkpt>
<trkpt lat="46.30948" lon="7.75778"><ele>633.4</ele><time>2016-08-06T15:22:26Z</time></trkpt>
<trkpt lat="46.30949" lon="7.75758"><ele>633.4</ele><time>2016-08-06T15:22:28Z</time></trkpt>
<trkpt lat="46.30949" lon="7.75749"><ele>633.4</ele><time>2016-08-06T15:22:29Z</time></trkpt>
<trkpt lat="46.30949" lon="7.75739"><ele>633.4</ele><time>2016-08-06T15:22:30Z</time></trkpt>
<trkpt lat="46.30949" lon="7.75719"><ele>633.4</ele><time>2016-08-06T15:22:32Z</time></trkpt>
<trkpt lat="46.30949" lon="7.757"><ele>633.2</ele><time>2016-08-06T15:22:34Z</time></trkpt>
<trkpt lat="46.30949" lon="7.7569"><ele>633.2</ele><time>2016-08-06T15:22:35Z</time></trkpt>
<trkpt lat="46.30947" lon="7.7568"><ele>633.2</ele><time>2016-08-06T15:22:36Z</time></trkpt>
<trkpt lat="46.30945" lon="7.7566"><ele>633.2</ele><time>2016-08-06T15:22:38Z</time></trkpt>
<trkpt lat="46.30943" lon="7.7564"><ele>633.2</ele><time>2016-08-06T15:22:40Z</time></trkpt>
<trkpt lat="46.3094" lon="7.75621"><ele>633.2</ele><time>2016-08-06T15:22:42Z</time></trkpt>
<trkpt lat="46.30938" lon="7.75602"><ele>633</ele><time>2016-08-06T15:22:44Z</time></trkpt>
<trkpt lat="46.30935" lon="7.75583"><ele>633</ele><time>2016-08-06T15:22:46Z</time></trkpt>
<trkpt lat="46.30933" lon="7.75564"><ele>633</ele><time>2016-08-06T15:22:48Z</time></trkpt>
<trkpt lat="46.30931" lon="7.75554"><ele>633</ele><time>2016-08-06T15:22:49Z</time></trkpt>
<trkpt lat="46.30929" lon="7.75546"><ele>633</ele><time>2016-08-06T15:22:50Z</time></trkpt>
<trkpt lat="46.30926" lon="7.75529"><ele>633</ele><time>2016-08-06T15:22:52Z</time></trkpt>
<trkpt lat="46.30926" lon="7.75517"><ele>633</ele><time>2016-08-06T15:22:54Z</time></trkpt>
<trkpt lat="46.30926" lon="7.75504"><ele>632.8</ele><time>2016-08-06T15:22:56Z</time></trkpt>
<trkpt lat="46.30925" lon="7.75492"><ele>632.8</ele><time>2016-08-06T15:22:58Z</time></trkpt>
<trkpt lat="46.30925" lon="7.7548"><ele>632.8</ele><time>2016-08-06T15:23:00Z</time></trkpt>
<trkpt lat="46.30925" lon="7.75467"><ele>632.8</ele><time>2016-08-06T15:23:02Z</time></trkpt>
<trkpt lat="46.30924" lon="7.75461"><ele>632.8</ele><time>2016-08-06T15:23:03Z</time></trkpt>
<trkpt lat="46.30921" lon="7.75453"><ele>632.8</ele><time>2016-08-06T15:23:04Z</time></trkpt>
<trkpt lat="46.30916" lon="7.75437"><ele>632.6</ele><time>2016-08-06T15:23:06Z</time></trkpt>
<trkpt lat="46.3091" lon="7.75421"><ele>632.6</ele><time>2016-08-06T15:23:08Z</time></trkpt>
<trkpt lat="46.30905" lon="7.75405"><ele>632.6</ele><time>2016-08-06T15:23:10Z</time></trkpt>
<trkpt lat="46.30902" lon="7.75397"><ele>632.6</ele><time>2016-08-06T15:23:11Z</time></trkpt>
<trkpt lat="46.30899" lon="7.75388"><ele>632.6</ele><time>2016-08-06T15:23:12Z</time></trkpt>
<trkpt lat="46.30894" lon="7.75371"><ele>632.6</ele><time>2016-08-06T15:23:14Z</time></trkpt>
<trkpt lat="46.30889" lon="7.75353"><ele>632.4</ele><time>2016-08-06T15:23:16Z</time></trkpt>
<trkpt lat="46.30884" lon="7.75336"><ele>632.4</ele><time>2016-08-06T15:23:18Z</time></trkpt>
<trkpt lat="46.3088" lon="7.75318"><ele>632.4</ele><time>2016-08-06T15:23:20Z</time></trkpt>
<trkpt lat="46.30876" lon="7.75301"><ele>632.4</ele><time>2016-08-06T15:23:22Z</time></trkpt>
<trkpt lat="46.30872" lon="7.75283"><ele>632.4</ele><time>2016-08-06T15:23:24Z</time></trkpt>
<trkpt lat="46.30869" lon="7.75266"><ele>632.2</ele><time>2016-08-06T15:23:26Z</time></trkpt>
<trkpt lat="46.30865" lon="7.75249"><ele>632.2</ele><time>2016-08-06T15:23:28Z</time></trkpt>
<trkpt lat="46.30862" lon="7.75232"><ele>632.2</ele><time>2016-08-06T15:23:30Z</time></trkpt>
<trkpt lat="46.30858" lon="7.75216"><ele>632.2</ele><time>2016-08-06T15:23:32Z</time></trkpt>
<trkpt lat="46.30857" lon="7.75207"><ele>632.2</ele><time>2016-08-06T15:23:33Z</time></trkpt>
<trkpt lat="46.30856" lon="7.75197"><ele>632.2</ele><time>2016-08-06T15:23:34Z</time></trkpt>
<trkpt lat="46.30855" lon="7.75188"><ele>632</ele><time>2016-08-06T15:23:35Z</time></trkpt>
<trkpt lat="46.30853" lon="7.75179"><ele>632</ele><time>2016-08-06T15:23:36Z</time></trkpt>
<trkpt lat="46.30847" lon="7.75161"><ele>632</ele><time>2016-08-06T15:23:38Z</time></trkpt>
<trkpt lat="46.30841" lon="7.75143"><ele>632</ele><time>2016-08-06T15:23:40Z</time></trkpt>
<trkpt lat="46.30838" lon="7.75134"><ele>632</ele><time>2016-08-06T15:23:41Z</time></trkpt>
<trkpt lat="46.30837" lon="7.75125"><ele>632</ele><time>2016-08-06T15:23:42Z</time></trkpt>
<trkpt lat="46.30833" lon="7.75107"><ele>632</ele><time>2016-08-06T15:23:44Z</time></trkpt>
<trkpt lat="46.30829" lon="7.75089"><ele>631.8</ele><time>2016-08-06T15:23:46Z</time></trkpt>
<trkpt lat="46.30825" lon="7.75071"><ele>631.8</ele><time>2016-08-06T15:23:48Z</time></trkpt>
<trkpt lat="46.30822" lon="7.75052"><ele>631.8</ele><time>2016-08-06T15:23:50Z</time></trkpt>
<trkpt lat="46.30819" lon="7.75033"><ele>631.8</ele><time>2016-08-06T15:23:52Z</time></trkpt>
<trkpt lat="46.30816" lon="7.75014"><ele>631.8</ele><time>2016-08-06T15:23:54Z</time></trkpt>
<trkpt lat="46.30811" lon="7.74995"><ele>631.6</ele><time>2016-08-06T15:23:56Z</time></trkpt>
<trkpt lat="46.30806" lon="7.74977"><ele>631.6</ele><time>2016-08-06T15:23:58Z</time></trkpt>
<trkpt lat="46.30801" lon="7.74958"><ele>631.6</ele><time>2016-08-06T15:24:00Z</time></trkpt>
<trkpt lat="46.30798" lon="7.74949"><ele>631.6</ele><time>2016-08-06T15:24:01Z</time></trkpt>
<trkpt lat="46.30796" lon="7.74939"><ele>631.6</ele><time>2016-08-06T15:24:02Z</time></trkpt>
<trkpt lat="46.30792" lon="7.7492"><ele>631.6</ele><time>2016-08-06T15:24:04Z</time></trkpt>
<trkpt lat="46.30789" lon="7.74901"><ele>631.4</ele><time>2016-08-06T15:24:06Z</time></trkpt>
<trkpt lat="46.30785" lon="7.74882"><ele>631.4</ele><time>2016-08-06T15:24:08Z</time></trkpt>
<trkpt lat="46.3078" lon="7.74864"><ele>631.4</ele><time>2016-08-06T15:24:10Z</time></trkpt>
<trkpt lat="46.30775" lon="7.74845"><ele>631.4</ele><time>2016-08-06T15:24:12Z</time></trkpt>
<trkpt lat="46.3077" lon="7.74826"><ele>631.4</ele><time>2016-08-06T15:24:14Z</time></trkpt>
<trkpt lat="46.30767" lon="7.74817"><ele>631.4</ele><time>2016-08-06T15:24:15Z</time></trkpt>
<trkpt lat="46.30765" lon="7.74808"><ele>631.2</ele><time>2016-08-06T15:24:16Z</time></trkpt>
<trkpt lat="46.3076" lon="7.74789"><ele>631.2</ele><time>2016-08-06T15:24:18Z</time></trkpt>
<trkpt lat="46.30756" lon="7.74771"><ele>631.2</ele><time>2016-08-06T15:24:20Z</time></trkpt>
<trkpt lat="46.30752" lon="7.74753"><ele>631.2</ele><time>2016-08-06T15:24:22Z</time></trkpt>
<trkpt lat="46.30747" lon="7.74734"><ele>631.2</ele><time>2016-08-06T15:24:24Z</time></trkpt>
<trkpt lat="46.30743" lon="7.74715"><ele>631</ele><time>2016-08-06T15:24:26Z</time></trkpt>
<trkpt lat="46.30738" lon="7.74697"><ele>631</ele><time>2016-08-06T15:24:28Z</time></trkpt>
<trkpt lat="46.30736" lon="7.74688"><ele>631</ele><time>2016-08-06T15:24:29Z</time></trkpt>
<trkpt lat="46.30734" lon="7.74678"><ele>631</ele><time>2016-08-06T15:24:30Z</time></trkpt>
<trkpt lat="46.30731" lon="7.7466"><ele>631</ele><time>2016-08-06T15:24:32Z</time></trkpt>
<trkpt lat="46.30727" lon="7.74642"><ele>631</ele><time>2016-08-06T15:24:34Z</time></trkpt>
<trkpt lat="46.30723" lon="7.74624"><ele>630.8</ele><time>2016-08-06T15:24:36Z</time></trkpt>
<trkpt lat="46.30719" lon="7.74607"><ele>630.8</ele><time>2016-08-06T15:24:38Z</time></trkpt>
<trkpt lat="46.30714" lon="7.7459"><ele>630.8</ele><time>2016-08-06T15:24:40Z</time></trkpt>
<trkpt lat="46.3071" lon="7.74574"><ele>630.8</ele><time>2016-08-06T15:24:42Z</time></trkpt>
<trkpt lat="46.30706" lon="7.74557"><ele>630.8</ele><time>2016-08-06T15:24:44Z</time></trkpt>
<trkpt lat="46.30705" lon="7.74543"><ele>630.6</ele><time>2016-08-06T15:24:46Z</time></trkpt>
<trkpt lat="46.30704" lon="7.7453"><ele>630.6</ele><time>2016-08-06T15:24:48Z</time></trkpt>
<trkpt lat="46.30703" lon="7.74516"><ele>630.6</ele><time>2016-08-06T15:24:50Z</time></trkpt>
<trkpt lat="46.30701" lon="7.74503"><ele>630.6</ele><time>2016-08-06T15:24:52Z</time></trkpt>
<trkpt lat="46.30697" lon="7.7449"><ele>630.6</ele><time>2016-08-06T15:24:54Z</time></trkpt>
<trkpt lat="46.30695" lon="7.74484"><ele>630.6</ele><time>2016-08-06T15:24:55Z</time></trkpt>
<trkpt lat="46.30693" lon="7.74478"><ele>630.8</ele><time>2016-08-06T15:24:56Z</time></trkpt>
<trkpt lat="46.30688" lon="7.74466"><ele>631.2</ele><time>2016-08-06T15:24:58Z</time></trkpt>
<trkpt lat="46.30684" lon="7.74454"><ele>631.6</ele><time>2016-08-06T15:25:00Z</time></trkpt>
<trkpt lat="46.30683" lon="7.74447"><ele>631.6</ele><time>2016-08-06T15:25:01Z</time></trkpt>
<trkpt lat="46.30683" lon="7.7444"><ele>631.6</ele><time>2016-08-06T15:25:02Z</time></trkpt>
<trkpt lat="46.30681" lon="7.74426"><ele>631.4</ele><time>2016-08-06T15:25:04Z</time></trkpt>
<trkpt lat="46.30679" lon="7.74412"><ele>631.2</ele><time>2016-08-06T15:25:06Z</time></trkpt>
<trkpt lat="46.30678" lon="7.74399"><ele>631</ele><time>2016-08-06T15:25:08Z</time></trkpt>
<trkpt lat="46.30678" lon="7.74393"><ele>631</ele><time>2016-08-06T15:25:09Z</time></trkpt>
<trkpt lat="46.30681" lon="7.74392"><ele>631</ele><time>2016-08-06T15:25:10Z</time></trkpt>
<trkpt lat="46.30688" lon="7.74388"><ele>630.8</ele><time>2016-08-06T15:25:12Z</time></trkpt>
<trkpt lat="46.3069" lon="7.74386"><ele>630.6</ele><time>2016-08-06T15:25:13Z</time></trkpt>
<trkpt lat="46.3069" lon="7.74381"><ele>630.6</ele><time>2016-08-06T15:25:14Z</time></trkpt>
<trkpt lat="46.30691" lon="7.74373"><ele>630.4</ele><time>2016-08-06T15:25:16Z</time></trkpt>
<trkpt lat="46.30688" lon="7.74364"><ele>630.2</ele><time>2016-08-06T15:25:18Z</time></trkpt>
<trkpt lat="46.30686" lon="7.74356"><ele>630.2</ele><time>2016-08-06T15:25:20Z</time></trkpt>
<trkpt lat="46.30686" lon="7.74352"><ele>630</ele><time>2016-08-06T15:25:21Z</time></trkpt>
<trkpt lat="46.30687" lon="7.74347"><ele>630</ele><time>2016-08-06T15:25:22Z</time></trkpt>
<trkpt lat="46.30689" lon="7.74337"><ele>629.8</ele><time>2016-08-06T15:25:24Z</time></trkpt>
<trkpt lat="46.3069" lon="7.74327"><ele>629.6</ele><time>2016-08-06T15:25:26Z</time></trkpt>
<trkpt lat="46.30684" lon="7.74321"><ele>629.4</ele><time>2016-08-06T15:25:28Z</time></trkpt>
<trkpt lat="46.30681" lon="7.74318"><ele>629.4</ele><time>2016-08-06T15:25:29Z</time></trkpt>
<trkpt lat="46.30677" lon="7.74315"><ele>629.8</ele><time>2016-08-06T15:25:30Z</time></trkpt>
<trkpt lat="46.30671" lon="7.74308"><ele>630.2</ele><time>2016-08-06T15:25:32Z</time></trkpt>
<trkpt lat="46.30668" lon="7.74304"><ele>630.4</ele><time>2016-08-06T15:25:33Z</time></trkpt>
<trkpt lat="46.30666" lon="7.74297"><ele>630.4</ele><time>2016-08-06T15:25:34Z</time></trkpt>
<trkpt lat="46.30662" lon="7.74282"><ele>630.4</ele><time>2016-08-06T15:25:36Z</time></trkpt>
<trkpt lat="46.30659" lon="7.74267"><ele>630.4</ele><time>2016-08-06T15:25:38Z</time></trkpt>
<trkpt lat="46.30658" lon="7.74251"><ele>630.2</ele><time>2016-08-06T15:25:40Z</time></trkpt>
<trkpt lat="46.30657" lon="7.74235"><ele>630.2</ele><time>2016-08-06T15:25:42Z</time></trkpt>
<trkpt lat="46.30656" lon="7.74218"><ele>630</ele><time>2016-08-06T15:25:44Z</time></trkpt>
<trkpt lat="46.30655" lon="7.74202"><ele>630</ele><time>2016-08-06T15:25:46Z</time></trkpt>
<trkpt lat="46.30653" lon="7.74186"><ele>630</ele><time>2016-08-06T15:25:48Z</time></trkpt>
<trkpt lat="46.30651" lon="7.74171"><ele>629.8</ele><time>2016-08-06T15:25:50Z</time></trkpt>
<trkpt lat="46.30649" lon="7.74155"><ele>629.8</ele><time>2016-08-06T15:25:52Z</time></trkpt>
<trkpt lat="46.30647" lon="7.74139"><ele>629.6</ele><time>2016-08-06T15:25:54Z</time></trkpt>
<trkpt lat="46.30646" lon="7.74131"><ele>629.6</ele><time>2016-08-06T15:25:55Z</time></trkpt>
<trkpt lat="46.30646" lon="7.74122"><ele>629.6</ele><time>2016-08-06T15:25:56Z</time></trkpt>
<trkpt lat="46.30646" lon="7.74106"><ele>629.6</ele><time>2016-08-06T15:25:58Z</time></trkpt>
<trkpt lat="46.30646" lon="7.74089"><ele>629.4</ele><time>2016-08-06T15:26:00Z</time></trkpt>
<trkpt lat="46.30646" lon="7.74072"><ele>629.4</ele><time>2016-08-06T15:26:02Z</time></trkpt>
<trkpt lat="46.30646" lon="7.74064"><ele>629.4</ele><time>2016-08-06T15:26:03Z</time></trkpt>
<trkpt lat="46.30646" lon="7.74055"><ele>629.2</ele><time>2016-08-06T15:26:04Z</time></trkpt>
<trkpt lat="46.30647" lon="7.74036"><ele>629.2</ele><time>2016-08-06T15:26:06Z</time></trkpt>
<trkpt lat="46.30647" lon="7.74018"><ele>629.2</ele><time>2016-08-06T15:26:08Z</time></trkpt>
<trkpt lat="46.30648" lon="7.74"><ele>629</ele><time>2016-08-06T15:26:10Z</time></trkpt>
<trkpt lat="46.30648" lon="7.73991"><ele>629</ele><time>2016-08-06T15:26:11Z</time></trkpt>
<trkpt lat="46.30649" lon="7.73982"><ele>629</ele><time>2016-08-06T15:26:12Z</time></trkpt>
<trkpt lat="46.30651" lon="7.73963"><ele>629</ele><time>2016-08-06T15:26:14Z</time></trkpt>
<trkpt lat="46.30653" lon="7.73944"><ele>628.8</ele><time>2016-08-06T15:26:16Z</time></trkpt>
<trkpt lat="46.30654" lon="7.73925"><ele>628.8</ele><time>2016-08-06T15:26:18Z</time></trkpt>
<trkpt lat="46.30657" lon="7.73907"><ele>628.6</ele><time>2016-08-06T15:26:20Z</time></trkpt>
<trkpt lat="46.30659" lon="7.73889"><ele>628.6</ele><time>2016-08-06T15:26:22Z</time></trkpt>
<trkpt lat="46.30661" lon="7.7387"><ele>628.6</ele><time>2016-08-06T15:26:24Z</time></trkpt>
<trkpt lat="46.30662" lon="7.73861"><ele>628.4</ele><time>2016-08-06T15:26:25Z</time></trkpt>
<trkpt lat="46.30663" lon="7.73852"><ele>628.4</ele><time>2016-08-06T15:26:26Z</time></trkpt>
<trkpt lat="46.30666" lon="7.73833"><ele>628.4</ele><time>2016-08-06T15:26:28Z</time></trkpt>
<trkpt lat="46.30668" lon="7.73815"><ele>628.2</ele><time>2016-08-06T15:26:30Z</time></trkpt>
<trkpt lat="46.30671" lon="7.73797"><ele>628.2</ele><time>2016-08-06T15:26:32Z</time></trkpt>
<trkpt lat="46.30673" lon="7.73777"><ele>628.2</ele><time>2016-08-06T15:26:34Z</time></trkpt>
<trkpt lat="46.30675" lon="7.73757"><ele>628</ele><time>2016-08-06T15:26:36Z</time></trkpt>
<trkpt lat="46.30677" lon="7.73737"><ele>628</ele><time>2016-08-06T15:26:38Z</time></trkpt>
<trkpt lat="46.30678" lon="7.73727"><ele>628</ele><time>2016-08-06T15:26:39Z</time></trkpt>
<trkpt lat="46.3068" lon="7.73718"><ele>627.8</ele><time>2016-08-06T15:26:40Z</time></trkpt>
<trkpt lat="46.30683" lon="7.737"><ele>627.8</ele><time>2016-08-06T15:26:42Z</time></trkpt>
<trkpt lat="46.30686" lon="7.73682"><ele>627.8</ele><time>2016-08-06T15:26:44Z</time></trkpt>
<trkpt lat="46.3069" lon="7.73664"><ele>627.6</ele><time>2016-08-06T15:26:46Z</time></trkpt>
<trkpt lat="46.30692" lon="7.73655"><ele>627.6</ele><time>2016-08-06T15:26:47Z</time></trkpt>
<trkpt lat="46.30695" lon="7.73648"><ele>627.6</ele><time>2016-08-06T15:26:48Z</time></trkpt>
<trkpt lat="46.30701" lon="7.73635"><ele>627.4</ele><time>2016-08-06T15:26:50Z</time></trkpt>
<trkpt lat="46.30712" lon="7.73633"><ele>627.4</ele><time>2016-08-06T15:26:52Z</time></trkpt>
<trkpt lat="46.30718" lon="7.73636"><ele>627.4</ele><time>2016-08-06T15:26:53Z</time></trkpt>
<trkpt lat="46.30723" lon="7.73641"><ele>627.4</ele><time>2016-08-06T15:26:54Z</time></trkpt>
<trkpt lat="46.30729" lon="7.73645"><ele>627.2</ele><time>2016-08-06T15:26:55Z</time></trkpt>
<trkpt lat="46.30735" lon="7.73648"><ele>627</ele><time>2016-08-06T15:26:56Z</time></trkpt>
<trkpt lat="46.30747" lon="7.73652"><ele>626.4</ele><time>2016-08-06T15:26:58Z</time></trkpt>
<trkpt lat="46.30753" lon="7.73653"><ele>626.2</ele><time>2016-08-06T15:26:59Z</time></trkpt>
<trkpt lat="46.30757" lon="7.73651"><ele>625.8</ele><time>2016-08-06T15:27:00Z</time></trkpt>
<trkpt lat="46.30761" lon="7.73648"><ele>625.8</ele><time>2016-08-06T15:27:01Z</time></trkpt>
<trkpt lat="46.30762" lon="7.7364"><ele>626</ele><time>2016-08-06T15:27:02Z</time></trkpt>
<trkpt lat="46.30765" lon="7.73625"><ele>626.8</ele><time>2016-08-06T15:27:04Z</time></trkpt>
<trkpt lat="46.30768" lon="7.73609"><ele>627.4</ele><time>2016-08-06T15:27:06Z</time></trkpt>
<trkpt lat="46.3077" lon="7.73594"><ele>627.8</ele><time>2016-08-06T15:27:08Z</time></trkpt>
<trkpt lat="46.30773" lon="7.73578"><ele>628.4</ele><time>2016-08-06T15:27:10Z</time></trkpt>
<trkpt lat="46.30773" lon="7.73561"><ele>628.8</ele><time>2016-08-06T15:27:12Z</time></trkpt>
<trkpt lat="46.30774" lon="7.73544"><ele>628.8</ele><time>2016-08-06T15:27:14Z</time></trkpt>
<trkpt lat="46.30775" lon="7.73527"><ele>628.8</ele><time>2016-08-06T15:27:16Z</time></trkpt>
<trkpt lat="46.30776" lon="7.73509"><ele>628.6</ele><time>2016-08-06T15:27:18Z</time></trkpt>
<trkpt lat="46.30779" lon="7.73493"><ele>628.6</ele><time>2016-08-06T15:27:20Z</time></trkpt>
<trkpt lat="46.30782" lon="7.73476"><ele>628.6</ele><time>2016-08-06T15:27:22Z</time></trkpt>
<trkpt lat="46.30784" lon="7.73467"><ele>628.6</ele><time>2016-08-06T15:27:23Z</time></trkpt>
<trkpt lat="46.30786" lon="7.73459"><ele>628.4</ele><time>2016-08-06T15:27:24Z</time></trkpt>
<trkpt lat="46.30789" lon="7.73442"><ele>628.4</ele><time>2016-08-06T15:27:26Z</time></trkpt>
<trkpt lat="46.3079" lon="7.73425"><ele>628.2</ele><time>2016-08-06T15:27:28Z</time></trkpt>
<trkpt lat="46.30792" lon="7.73407"><ele>628.2</ele><time>2016-08-06T15:27:30Z</time></trkpt>
<trkpt lat="46.30793" lon="7.7339"><ele>628</ele><time>2016-08-06T15:27:32Z</time></trkpt>
<trkpt lat="46.30795" lon="7.73372"><ele>628</ele><time>2016-08-06T15:27:34Z</time></trkpt>
<trkpt lat="46.30797" lon="7.73355"><ele>628</ele><time>2016-08-06T15:27:36Z</time></trkpt>
<trkpt lat="46.308" lon="7.73338"><ele>628</ele><time>2016-08-06T15:27:38Z</time></trkpt>
<trkpt lat="46.30802" lon="7.73321"><ele>628</ele><time>2016-08-06T15:27:40Z</time></trkpt>
<trkpt lat="46.30804" lon="7.73304"><ele>627.8</ele><time>2016-08-06T15:27:42Z</time></trkpt>
<trkpt lat="46.308" lon="7.73287"><ele>627.8</ele><time>2016-08-06T15:27:44Z</time></trkpt>
<trkpt lat="46.30797" lon="7.7327"><ele>627.8</ele><time>2016-08-06T15:27:46Z</time></trkpt>
<trkpt lat="46.30796" lon="7.73262"><ele>627.8</ele><time>2016-08-06T15:27:47Z</time></trkpt>
<trkpt lat="46.30797" lon="7.73254"><ele>627.8</ele><time>2016-08-06T15:27:48Z</time></trkpt>
<trkpt lat="46.30799" lon="7.73237"><ele>627.8</ele><time>2016-08-06T15:27:50Z</time></trkpt>
<trkpt lat="46.30802" lon="7.7322"><ele>627.8</ele><time>2016-08-06T15:27:52Z</time></trkpt>
<trkpt lat="46.30806" lon="7.73203"><ele>627.6</ele><time>2016-08-06T15:27:54Z</time></trkpt>
<trkpt lat="46.30809" lon="7.73185"><ele>627.6</ele><time>2016-08-06T15:27:56Z</time></trkpt>
<trkpt lat="46.3081" lon="7.73168"><ele>627.6</ele><time>2016-08-06T15:27:58Z</time></trkpt>
<trkpt lat="46.30812" lon="7.7315"><ele>627.6</ele><time>2016-08-06T15:28:00Z</time></trkpt>
<trkpt lat="46.30814" lon="7.73133"><ele>627.6</ele><time>2016-08-06T15:28:02Z</time></trkpt>
<trkpt lat="46.30822" lon="7.73121"><ele>627.4</ele><time>2016-08-06T15:28:04Z</time></trkpt>
<trkpt lat="46.30829" lon="7.73109"><ele>627.4</ele><time>2016-08-06T15:28:06Z</time></trkpt>
<trkpt lat="46.30832" lon="7.73102"><ele>627.4</ele><time>2016-08-06T15:28:07Z</time></trkpt>
<trkpt lat="46.30832" lon="7.73094"><ele>627.4</ele><time>2016-08-06T15:28:08Z</time></trkpt>
<trkpt lat="46.3083" lon="7.73079"><ele>627.4</ele><time>2016-08-06T15:28:10Z</time></trkpt>
<trkpt lat="46.30828" lon="7.73063"><ele>627.4</ele><time>2016-08-06T15:28:12Z</time></trkpt>
<trkpt lat="46.30825" lon="7.73048"><ele>627.2</ele><time>2016-08-06T15:28:14Z</time></trkpt>
<trkpt lat="46.30823" lon="7.73032"><ele>627.2</ele><time>2016-08-06T15:28:16Z</time></trkpt>
<trkpt lat="46.30825" lon="7.73015"><ele>627.2</ele><time>2016-08-06T15:28:18Z</time></trkpt>
<trkpt lat="46.30827" lon="7.72999"><ele>627.2</ele><time>2016-08-06T15:28:20Z</time></trkpt>
<trkpt lat="46.3083" lon="7.72982"><ele>627.2</ele><time>2016-08-06T15:28:22Z</time></trkpt>
<trkpt lat="46.30832" lon="7.72966"><ele>627.2</ele><time>2016-08-06T15:28:24Z</time></trkpt>
<trkpt lat="46.30836" lon="7.7295"><ele>627</ele><time>2016-08-06T15:28:26Z</time></trkpt>
<trkpt lat="46.3084" lon="7.72934"><ele>627</ele><time>2016-08-06T15:28:28Z</time></trkpt>
<trkpt lat="46.30843" lon="7.72918"><ele>627</ele><time>2016-08-06T15:28:30Z</time></trkpt>
<trkpt lat="46.30847" lon="7.72902"><ele>627</ele><time>2016-08-06T15:28:32Z</time></trkpt>
<trkpt lat="46.30852" lon="7.72885"><ele>627</ele><time>2016-08-06T15:28:34Z</time></trkpt>
<trkpt lat="46.30856" lon="7.72869"><ele>626.8</ele><time>2016-08-06T15:28:36Z</time></trkpt>
<trkpt lat="46.30861" lon="7.72853"><ele>626.8</ele><time>2016-08-06T15:28:38Z</time></trkpt>
<trkpt lat="46.30865" lon="7.72837"><ele>626.8</ele><time>2016-08-06T15:28:40Z</time></trkpt>
<trkpt lat="46.30871" lon="7.72823"><ele>626.8</ele><time>2016-08-06T15:28:42Z</time></trkpt>
<trkpt lat="46.30877" lon="7.72808"><ele>626.8</ele><time>2016-08-06T15:28:44Z</time></trkpt>
<trkpt lat="46.30883" lon="7.72793"><ele>626.6</ele><time>2016-08-06T15:28:46Z</time></trkpt>
<trkpt lat="46.30889" lon="7.72779"><ele>626.6</ele><time>2016-08-06T15:28:48Z</time></trkpt>
<trkpt lat="46.30895" lon="7.72766"><ele>626.6</ele><time>2016-08-06T15:28:50Z</time></trkpt>
<trkpt lat="46.30899" lon="7.7276"><ele>626.6</ele><time>2016-08-06T15:28:51Z</time></trkpt>
<trkpt lat="46.30902" lon="7.72754"><ele>626.6</ele><time>2016-08-06T15:28:52Z</time></trkpt>
<trkpt lat="46.30909" lon="7.72741"><ele>626.6</ele><time>2016-08-06T15:28:54Z</time></trkpt>
<trkpt lat="46.30915" lon="7.72728"><ele>626.6</ele><time>2016-08-06T15:28:56Z</time></trkpt>
<trkpt lat="46.30919" lon="7.72722"><ele>626.4</ele><time>2016-08-06T15:28:57Z</time></trkpt>
<trkpt lat="46.30924" lon="7.72717"><ele>626.4</ele><time>2016-08-06T15:28:58Z</time></trkpt>
<trkpt lat="46.30928" lon="7.72713"><ele>626.4</ele><time>2016-08-06T15:28:59Z</time></trkpt>
<trkpt lat="46.30933" lon="7.7271"><ele>626.4</ele><time>2016-08-06T15:29:00Z</time></trkpt>
<trkpt lat="46.30944" lon="7.72713"><ele>626.2</ele><time>2016-08-06T15:29:02Z</time></trkpt>
<trkpt lat="46.30955" lon="7.72717"><ele>626</ele><time>2016-08-06T15:29:04Z</time></trkpt>
<trkpt lat="46.30965" lon="7.7272"><ele>625.8</ele><time>2016-08-06T15:29:06Z</time></trkpt>
<trkpt lat="46.30976" lon="7.72723"><ele>625.6</ele><time>2016-08-06T15:29:08Z</time></trkpt>
<trkpt lat="46.30989" lon="7.72728"><ele>625.4</ele><time>2016-08-06T15:29:10Z</time></trkpt>
<trkpt lat="46.30996" lon="7.72731"><ele>625.2</ele><time>2016-08-06T15:29:11Z</time></trkpt>
<trkpt lat="46.31002" lon="7.72733"><ele>625</ele><time>2016-08-06T15:29:12Z</time></trkpt>
<trkpt lat="46.31015" lon="7.72738"><ele>624.6</ele><time>2016-08-06T15:29:14Z</time></trkpt>
<trkpt lat="46.31022" lon="7.7274"><ele>624.4</ele><time>2016-08-06T15:29:15Z</time></trkpt>
<trkpt lat="46.31028" lon="7.72742"><ele>624.2</ele><time>2016-08-06T15:29:16Z</time></trkpt>
<trkpt lat="46.31034" lon="7.72744"><ele>624.2</ele><time>2016-08-06T15:29:17Z</time></trkpt>
<trkpt lat="46.31041" lon="7.72746"><ele>624.4</ele><time>2016-08-06T15:29:18Z</time></trkpt>
<trkpt lat="46.31053" lon="7.72749"><ele>625</ele><time>2016-08-06T15:29:20Z</time></trkpt>
<trkpt lat="46.31066" lon="7.72747"><ele>625.4</ele><time>2016-08-06T15:29:22Z</time></trkpt>
<trkpt lat="46.31079" lon="7.72745"><ele>625.6</ele><time>2016-08-06T15:29:24Z</time></trkpt>
<trkpt lat="46.31093" lon="7.72744"><ele>625.8</ele><time>2016-08-06T15:29:26Z</time></trkpt>
<trkpt lat="46.31099" lon="7.72743"><ele>626</ele><time>2016-08-06T15:29:27Z</time></trkpt>
<trkpt lat="46.31106" lon="7.72741"><ele>626</ele><time>2016-08-06T15:29:28Z</time></trkpt>
<trkpt lat="46.31119" lon="7.72739"><ele>626.2</ele><time>2016-08-06T15:29:30Z</time></trkpt>
<trkpt lat="46.31132" lon="7.72736"><ele>626.4</ele><time>2016-08-06T15:29:32Z</time></trkpt>
<trkpt lat="46.31146" lon="7.72734"><ele>626.6</ele><time>2016-08-06T15:29:34Z</time></trkpt>
<trkpt lat="46.31159" lon="7.72732"><ele>626.8</ele><time>2016-08-06T15:29:36Z</time></trkpt>
<trkpt lat="46.31172" lon="7.72729"><ele>627</ele><time>2016-08-06T15:29:38Z</time></trkpt>
<trkpt lat="46.31185" lon="7.72727"><ele>627.2</ele><time>2016-08-06T15:29:40Z</time></trkpt>
<trkpt lat="46.31192" lon="7.72726"><ele>627.4</ele><time>2016-08-06T15:29:41Z</time></trkpt>
<trkpt lat="46.31198" lon="7.72724"><ele>627.4</ele><time>2016-08-06T15:29:42Z</time></trkpt>
<trkpt lat="46.31211" lon="7.72722"><ele>627.6</ele><time>2016-08-06T15:29:44Z</time></trkpt>
<trkpt lat="46.31223" lon="7.7272"><ele>627.8</ele><time>2016-08-06T15:29:46Z</time></trkpt>
<trkpt lat="46.31236" lon="7.72718"><ele>628</ele><time>2016-08-06T15:29:48Z</time></trkpt>
<trkpt lat="46.31242" lon="7.72717"><ele>628.2</ele><time>2016-08-06T15:29:49Z</time></trkpt>
<trkpt lat="46.31249" lon="7.72718"><ele>628.2</ele><time>2016-08-06T15:29:50Z</time></trkpt>
<trkpt lat="46.31262" lon="7.7272"><ele>628.4</ele><time>2016-08-06T15:29:52Z</time></trkpt>
<trkpt lat="46.31274" lon="7.72726"><ele>628.6</ele><time>2016-08-06T15:29:54Z</time></trkpt>
<trkpt lat="46.3128" lon="7.72727"><ele>628.8</ele><time>2016-08-06T15:29:55Z</time></trkpt>
<trkpt lat="46.31285" lon="7.72725"><ele>628.8</ele><time>2016-08-06T15:29:56Z</time></trkpt>
<trkpt lat="46.31293" lon="7.72719"><ele>629</ele><time>2016-08-06T15:29:58Z</time></trkpt>
<trkpt lat="46.31296" lon="7.72707"><ele>629.2</ele><time>2016-08-06T15:30:00Z</time></trkpt>
<trkpt lat="46.31295" lon="7.72693"><ele>629.4</ele><time>2016-08-06T15:30:02Z</time></trkpt>
<trkpt lat="46.31293" lon="7.72679"><ele>629.6</ele><time>2016-08-06T15:30:04Z</time></trkpt>
<trkpt lat="46.31292" lon="7.72665"><ele>629.8</ele><time>2016-08-06T15:30:06Z</time></trkpt>
<trkpt lat="46.31291" lon="7.72658"><ele>629.6</ele><time>2016-08-06T15:30:07Z</time></trkpt>
<trkpt lat="46.31291" lon="7.72651"><ele>629.4</ele><time>2016-08-06T15:30:08Z</time></trkpt>
<trkpt lat="46.3129" lon="7.72637"><ele>629.2</ele><time>2016-08-06T15:30:10Z</time></trkpt>
<trkpt lat="46.31288" lon="7.72624"><ele>629</ele><time>2016-08-06T15:30:12Z</time></trkpt>
<trkpt lat="46.31287" lon="7.7261"><ele>628.8</ele><time>2016-08-06T15:30:14Z</time></trkpt>
<trkpt lat="46.31286" lon="7.72597"><ele>628.6</ele><time>2016-08-06T15:30:16Z</time></trkpt>
<trkpt lat="46.31286" lon="7.72589"><ele>628.4</ele><time>2016-08-06T15:30:17Z</time></trkpt>
<trkpt lat="46.31285" lon="7.72582"><ele>628.6</ele><time>2016-08-06T15:30:18Z</time></trkpt>
<trkpt lat="46.31285" lon="7.72566"><ele>629</ele><time>2016-08-06T15:30:20Z</time></trkpt>
<trkpt lat="46.31285" lon="7.72551"><ele>629.2</ele><time>2016-08-06T15:30:22Z</time></trkpt>
<trkpt lat="46.31284" lon="7.72543"><ele>629.4</ele><time>2016-08-06T15:30:23Z</time></trkpt>
<trkpt lat="46.31284" lon="7.72535"><ele>629.4</ele><time>2016-08-06T15:30:24Z</time></trkpt>
<trkpt lat="46.31284" lon="7.7252"><ele>629.4</ele><time>2016-08-06T15:30:26Z</time></trkpt>
<trkpt lat="46.31284" lon="7.72505"><ele>629.6</ele><time>2016-08-06T15:30:28Z</time></trkpt>
<trkpt lat="46.31284" lon="7.7249"><ele>629.6</ele><time>2016-08-06T15:30:30Z</time></trkpt>
<trkpt lat="46.31284" lon="7.72474"><ele>629.8</ele><time>2016-08-06T15:30:32Z</time></trkpt>
<trkpt lat="46.31284" lon="7.72459"><ele>629.8</ele><time>2016-08-06T15:30:34Z</time></trkpt>
<trkpt lat="46.31284" lon="7.72452"><ele>629.8</ele><time>2016-08-06T15:30:35Z</time></trkpt>
<trkpt lat="46.31283" lon="7.72444"><ele>629.8</ele><time>2016-08-06T15:30:36Z</time></trkpt>
<trkpt lat="46.31283" lon="7.72428"><ele>630</ele><time>2016-08-06T15:30:38Z</time></trkpt>
<trkpt lat="46.31282" lon="7.72413"><ele>630</ele><time>2016-08-06T15:30:40Z</time></trkpt>
<trkpt lat="46.31282" lon="7.72397"><ele>630</ele><time>2016-08-06T15:30:42Z</time></trkpt>
<trkpt lat="46.31281" lon="7.72382"><ele>630.2</ele><time>2016-08-06T15:30:44Z</time></trkpt>
<trkpt lat="46.31281" lon="7.72365"><ele>630.2</ele><time>2016-08-06T15:30:46Z</time></trkpt>
<trkpt lat="46.31281" lon="7.72349"><ele>630.4</ele><time>2016-08-06T15:30:48Z</time></trkpt>
<trkpt lat="46.3128" lon="7.72332"><ele>630.4</ele><time>2016-08-06T15:30:50Z</time></trkpt>
<trkpt lat="46.3128" lon="7.72316"><ele>630.4</ele><time>2016-08-06T15:30:52Z</time></trkpt>
<trkpt lat="46.31279" lon="7.723"><ele>630.6</ele><time>2016-08-06T15:30:54Z</time></trkpt>
<trkpt lat="46.31279" lon="7.72283"><ele>630.6</ele><time>2016-08-06T15:30:56Z</time></trkpt>
<trkpt lat="46.31278" lon="7.72267"><ele>630.8</ele><time>2016-08-06T15:30:58Z</time></trkpt>
<trkpt lat="46.31277" lon="7.72252"><ele>630.8</ele><time>2016-08-06T15:31:00Z</time></trkpt>
<trkpt lat="46.31276" lon="7.72236"><ele>630.8</ele><time>2016-08-06T15:31:02Z</time></trkpt>
<trkpt lat="46.31275" lon="7.72221"><ele>631</ele><time>2016-08-06T15:31:04Z</time></trkpt>
<trkpt lat="46.31274" lon="7.72206"><ele>631</ele><time>2016-08-06T15:31:06Z</time></trkpt>
<trkpt lat="46.31273" lon="7.72198"><ele>631</ele><time>2016-08-06T15:31:07Z</time></trkpt>
<trkpt lat="46.31273" lon="7.7219"><ele>631</ele><time>2016-08-06T15:31:08Z</time></trkpt>
<trkpt lat="46.31272" lon="7.72174"><ele>631.2</ele><time>2016-08-06T15:31:10Z</time></trkpt>
<trkpt lat="46.31272" lon="7.72158"><ele>631.2</ele><time>2016-08-06T15:31:12Z</time></trkpt>
<trkpt lat="46.31271" lon="7.72141"><ele>631.4</ele><time>2016-08-06T15:31:14Z</time></trkpt>
<trkpt lat="46.31271" lon="7.72125"><ele>631.2</ele><time>2016-08-06T15:31:16Z</time></trkpt>
<trkpt lat="46.31272" lon="7.7211"><ele>630.2</ele><time>2016-08-06T15:31:18Z</time></trkpt>
<trkpt lat="46.31272" lon="7.72095"><ele>629</ele><time>2016-08-06T15:31:20Z</time></trkpt>
<trkpt lat="46.31273" lon="7.72087"><ele>628.6</ele><time>2016-08-06T15:31:21Z</time></trkpt>
<trkpt lat="46.31273" lon="7.7208"><ele>628.6</ele><time>2016-08-06T15:31:22Z</time></trkpt>
<trkpt lat="46.31274" lon="7.72065"><ele>628.4</ele><time>2016-08-06T15:31:24Z</time></trkpt>
<trkpt lat="46.31274" lon="7.72057"><ele>628.4</ele><time>2016-08-06T15:31:25Z</time></trkpt>
<trkpt lat="46.31276" lon="7.7205"><ele>628.2</ele><time>2016-08-06T15:31:26Z</time></trkpt>
<trkpt lat="46.31279" lon="7.72035"><ele>628.2</ele><time>2016-08-06T15:31:28Z</time></trkpt>
<trkpt lat="46.31282" lon="7.7202"><ele>628</ele><time>2016-08-06T15:31:30Z</time></trkpt>
<trkpt lat="46.31285" lon="7.72005"><ele>627.8</ele><time>2016-08-06T15:31:32Z</time></trkpt>
<trkpt lat="46.31288" lon="7.71989"><ele>627.8</ele><time>2016-08-06T15:31:34Z</time></trkpt>
<trkpt lat="46.3129" lon="7.71973"><ele>627.6</ele><time>2016-08-06T15:31:36Z</time></trkpt>
<trkpt lat="46.31291" lon="7.71965"><ele>627.6</ele><time>2016-08-06T15:31:37Z</time></trkpt>
<trkpt lat="46.31292" lon="7.71957"><ele>627.6</ele><time>2016-08-06T15:31:38Z</time></trkpt>
<trkpt lat="46.31294" lon="7.71941"><ele>627.4</ele><time>2016-08-06T15:31:40Z</time></trkpt>
<trkpt lat="46.31296" lon="7.71925"><ele>627.4</ele><time>2016-08-06T15:31:42Z</time></trkpt>
<trkpt lat="46.31298" lon="7.71909"><ele>627.6</ele><time>2016-08-06T15:31:44Z</time></trkpt>
<trkpt lat="46.31301" lon="7.71893"><ele>627.6</ele><time>2016-08-06T15:31:46Z</time></trkpt>
<trkpt lat="46.31303" lon="7.71877"><ele>627.6</ele><time>2016-08-06T15:31:48Z</time></trkpt>
<trkpt lat="46.31305" lon="7.71861"><ele>627.6</ele><time>2016-08-06T15:31:50Z</time></trkpt>
<trkpt lat="46.31307" lon="7.71845"><ele>627.8</ele><time>2016-08-06T15:31:52Z</time></trkpt>
<trkpt lat="46.3131" lon="7.71829"><ele>627.8</ele><time>2016-08-06T15:31:54Z</time></trkpt>
<trkpt lat="46.31312" lon="7.71813"><ele>627.8</ele><time>2016-08-06T15:31:56Z</time></trkpt>
<trkpt lat="46.31314" lon="7.71797"><ele>628</ele><time>2016-08-06T15:31:58Z</time></trkpt>
<trkpt lat="46.31315" lon="7.71789"><ele>628</ele><time>2016-08-06T15:31:59Z</time></trkpt>
<trkpt lat="46.31316" lon="7.71781"><ele>628</ele><time>2016-08-06T15:32:00Z</time></trkpt>
<trkpt lat="46.31318" lon="7.71765"><ele>628</ele><time>2016-08-06T15:32:02Z</time></trkpt>
<trkpt lat="46.3132" lon="7.71749"><ele>628</ele><time>2016-08-06T15:32:04Z</time></trkpt>
<trkpt lat="46.31322" lon="7.71732"><ele>628.2</ele><time>2016-08-06T15:32:06Z</time></trkpt>
<trkpt lat="46.31322" lon="7.71725"><ele>628.2</ele><time>2016-08-06T15:32:07Z</time></trkpt>
<trkpt lat="46.31322" lon="7.71718"><ele>628.2</ele><time>2016-08-06T15:32:08Z</time></trkpt>
<trkpt lat="46.31321" lon="7.71704"><ele>628.2</ele><time>2016-08-06T15:32:10Z</time></trkpt>
<trkpt lat="46.31319" lon="7.71691"><ele>628.4</ele><time>2016-08-06T15:32:12Z</time></trkpt>
<trkpt lat="46.31318" lon="7.71677"><ele>628.4</ele><time>2016-08-06T15:32:14Z</time></trkpt>
<trkpt lat="46.31317" lon="7.71664"><ele>628.4</ele><time>2016-08-06T15:32:16Z</time></trkpt>
<trkpt lat="46.31316" lon="7.71657"><ele>628.4</ele><time>2016-08-06T15:32:17Z</time></trkpt>
<trkpt lat="46.31315" lon="7.71652"><ele>628.6</ele><time>2016-08-06T15:32:18Z</time></trkpt>
<trkpt lat="46.31312" lon="7.71642"><ele>628.6</ele><time>2016-08-06T15:32:20Z</time></trkpt>
<trkpt lat="46.31309" lon="7.71633"><ele>628.6</ele><time>2016-08-06T15:32:22Z</time></trkpt>
<trkpt lat="46.31306" lon="7.71623"><ele>628.6</ele><time>2016-08-06T15:32:24Z</time></trkpt>
<trkpt lat="46.31304" lon="7.71613"><ele>628.8</ele><time>2016-08-06T15:32:26Z</time></trkpt>
<trkpt lat="46.31301" lon="7.71603"><ele>628.8</ele><time>2016-08-06T15:32:28Z</time></trkpt>
<trkpt lat="46.31298" lon="7.71593"><ele>628.8</ele><time>2016-08-06T15:32:30Z</time></trkpt>
<trkpt lat="46.31294" lon="7.71585"><ele>629</ele><time>2016-08-06T15:32:32Z</time></trkpt>
<trkpt lat="46.31291" lon="7.71576"><ele>629</ele><time>2016-08-06T15:32:34Z</time></trkpt>
<trkpt lat="46.31287" lon="7.71567"><ele>629</ele><time>2016-08-06T15:32:36Z</time></trkpt>
<trkpt lat="46.31284" lon="7.71559"><ele>629.2</ele><time>2016-08-06T15:32:38Z</time></trkpt>
<trkpt lat="46.3128" lon="7.7155"><ele>629.8</ele><time>2016-08-06T15:32:40Z</time></trkpt>
<trkpt lat="46.31277" lon="7.71541"><ele>630.4</ele><time>2016-08-06T15:32:42Z</time></trkpt>
<trkpt lat="46.31275" lon="7.71537"><ele>630.6</ele><time>2016-08-06T15:32:43Z</time></trkpt>
<trkpt lat="46.31273" lon="7.71533"><ele>631</ele><time>2016-08-06T15:32:44Z</time></trkpt>
<trkpt lat="46.3127" lon="7.71524"><ele>631.6</ele><time>2016-08-06T15:32:46Z</time></trkpt>
<trkpt lat="46.31266" lon="7.71516"><ele>632.2</ele><time>2016-08-06T15:32:48Z</time></trkpt>
<trkpt lat="46.31264" lon="7.71512"><ele>632.4</ele><time>2016-08-06T15:32:49Z</time></trkpt>
<trkpt lat="46.31262" lon="7.71507"><ele>632.6</ele><time>2016-08-06T15:32:50Z</time></trkpt>
<trkpt lat="46.31259" lon="7.71499"><ele>632.6</ele><time>2016-08-06T15:32:52Z</time></trkpt>
<trkpt lat="46.31255" lon="7.7149"><ele>632.8</ele><time>2016-08-06T15:32:54Z</time></trkpt>
<trkpt lat="46.31252" lon="7.71482"><ele>632.8</ele><time>2016-08-06T15:32:56Z</time></trkpt>
<trkpt lat="46.3125" lon="7.71477"><ele>632.8</ele><time>2016-08-06T15:32:57Z</time></trkpt>
<trkpt lat="46.31248" lon="7.71472"><ele>633</ele><time>2016-08-06T15:32:58Z</time></trkpt>
<trkpt lat="46.31245" lon="7.7146"><ele>633</ele><time>2016-08-06T15:33:00Z</time></trkpt>
<trkpt lat="46.31242" lon="7.71448"><ele>633.2</ele><time>2016-08-06T15:33:02Z</time></trkpt>
<trkpt lat="46.31239" lon="7.71437"><ele>633.2</ele><time>2016-08-06T15:33:04Z</time></trkpt>
<trkpt lat="46.31236" lon="7.71425"><ele>633.4</ele><time>2016-08-06T15:33:06Z</time></trkpt>
<trkpt lat="46.31233" lon="7.71413"><ele>633.4</ele><time>2016-08-06T15:33:08Z</time></trkpt>
<trkpt lat="46.31228" lon="7.71396"><ele>633.6</ele><time>2016-08-06T15:33:10Z</time></trkpt>
<trkpt lat="46.31223" lon="7.71379"><ele>633.8</ele><time>2016-08-06T15:33:12Z</time></trkpt>
<trkpt lat="46.31218" lon="7.71362"><ele>633.8</ele><time>2016-08-06T15:33:14Z</time></trkpt>
<trkpt lat="46.31213" lon="7.71345"><ele>634</ele><time>2016-08-06T15:33:16Z</time></trkpt>
<trkpt lat="46.31208" lon="7.71323"><ele>633.8</ele><time>2016-08-06T15:33:18Z</time></trkpt>
<trkpt lat="46.31207" lon="7.71312"><ele>633</ele><time>2016-08-06T15:33:19Z</time></trkpt>
<trkpt lat="46.31207" lon="7.713"><ele>632.2</ele><time>2016-08-06T15:33:20Z</time></trkpt>
<trkpt lat="46.31208" lon="7.71276"><ele>630.8</ele><time>2016-08-06T15:33:22Z</time></trkpt>
<trkpt lat="46.31208" lon="7.71264"><ele>630.2</ele><time>2016-08-06T15:33:23Z</time></trkpt>
<trkpt lat="46.31209" lon="7.71252"><ele>630</ele><time>2016-08-06T15:33:24Z</time></trkpt>
<trkpt lat="46.31209" lon="7.7124"><ele>629.8</ele><time>2016-08-06T15:33:25Z</time></trkpt>
<trkpt lat="46.31209" lon="7.71229"><ele>629.6</ele><time>2016-08-06T15:33:26Z</time></trkpt>
<trkpt lat="46.3121" lon="7.71206"><ele>629.2</ele><time>2016-08-06T15:33:28Z</time></trkpt>
<trkpt lat="46.3121" lon="7.71184"><ele>628.8</ele><time>2016-08-06T15:33:30Z</time></trkpt>
<trkpt lat="46.31211" lon="7.71173"><ele>628.6</ele><time>2016-08-06T15:33:31Z</time></trkpt>
<trkpt lat="46.3121" lon="7.71162"><ele>628.4</ele><time>2016-08-06T15:33:32Z</time></trkpt>
<trkpt lat="46.3121" lon="7.71152"><ele>628.2</ele><time>2016-08-06T15:33:33Z</time></trkpt>
<trkpt lat="46.3121" lon="7.71141"><ele>628</ele><time>2016-08-06T15:33:34Z</time></trkpt>
<trkpt lat="46.31209" lon="7.7112"><ele>627.8</ele><time>2016-08-06T15:33:36Z</time></trkpt>
<trkpt lat="46.31208" lon="7.71099"><ele>627.4</ele><time>2016-08-06T15:33:38Z</time></trkpt>
<trkpt lat="46.31207" lon="7.7108"><ele>627.2</ele><time>2016-08-06T15:33:40Z</time></trkpt>
<trkpt lat="46.31206" lon="7.71061"><ele>626.8</ele><time>2016-08-06T15:33:42Z</time></trkpt>
<trkpt lat="46.31205" lon="7.71041"><ele>626.6</ele><time>2016-08-06T15:33:44Z</time></trkpt>
<trkpt lat="46.31205" lon="7.71032"><ele>626.8</ele><time>2016-08-06T15:33:45Z</time></trkpt>
<trkpt lat="46.31205" lon="7.71022"><ele>626.8</ele><time>2016-08-06T15:33:46Z</time></trkpt>
<trkpt lat="46.31204" lon="7.71003"><ele>626.8</ele><time>2016-08-06T15:33:48Z</time></trkpt>
<trkpt lat="46.31204" lon="7.70993"><ele>626.8</ele><time>2016-08-06T15:33:49Z</time></trkpt>
<trkpt lat="46.31204" lon="7.70984"><ele>626.4</ele><time>2016-08-06T15:33:50Z</time></trkpt>
<trkpt lat="46.31204" lon="7.70964"><ele>625.8</ele><time>2016-08-06T15:33:52Z</time></trkpt>
<trkpt lat="46.31203" lon="7.70946"><ele>625.4</ele><time>2016-08-06T15:33:54Z</time></trkpt>
<trkpt lat="46.31202" lon="7.70927"><ele>626</ele><time>2016-08-06T15:33:56Z</time></trkpt>
<trkpt lat="46.31201" lon="7.70908"><ele>626.6</ele><time>2016-08-06T15:33:58Z</time></trkpt>
<trkpt lat="46.312" lon="7.70899"><ele>627</ele><time>2016-08-06T15:33:59Z</time></trkpt>
<trkpt lat="46.312" lon="7.70891"><ele>626.8</ele><time>2016-08-06T15:34:00Z</time></trkpt>
<trkpt lat="46.31198" lon="7.70874"><ele>626.6</ele><time>2016-08-06T15:34:02Z</time></trkpt>
<trkpt lat="46.31196" lon="7.70857"><ele>626.4</ele><time>2016-08-06T15:34:04Z</time></trkpt>
<trkpt lat="46.31195" lon="7.7084"><ele>626.2</ele><time>2016-08-06T15:34:06Z</time></trkpt>
<trkpt lat="46.31194" lon="7.70832"><ele>626.2</ele><time>2016-08-06T15:34:07Z</time></trkpt>
<trkpt lat="46.31193" lon="7.70824"><ele>626</ele><time>2016-08-06T15:34:08Z</time></trkpt>
<trkpt lat="46.31191" lon="7.70809"><ele>626</ele><time>2016-08-06T15:34:10Z</time></trkpt>
<trkpt lat="46.31189" lon="7.70793"><ele>625.8</ele><time>2016-08-06T15:34:12Z</time></trkpt>
<trkpt lat="46.31187" lon="7.70777"><ele>625.6</ele><time>2016-08-06T15:34:14Z</time></trkpt>
<trkpt lat="46.31186" lon="7.70762"><ele>625.4</ele><time>2016-08-06T15:34:16Z</time></trkpt>
<trkpt lat="46.31183" lon="7.70748"><ele>625.2</ele><time>2016-08-06T15:34:18Z</time></trkpt>
<trkpt lat="46.31181" lon="7.70734"><ele>625</ele><time>2016-08-06T15:34:20Z</time></trkpt>
<trkpt lat="46.31178" lon="7.7072"><ele>624.8</ele><time>2016-08-06T15:34:22Z</time></trkpt>
<trkpt lat="46.31173" lon="7.70706"><ele>624.6</ele><time>2016-08-06T15:34:24Z</time></trkpt>
<trkpt lat="46.31168" lon="7.70692"><ele>624.4</ele><time>2016-08-06T15:34:26Z</time></trkpt>
<trkpt lat="46.31164" lon="7.70678"><ele>624.2</ele><time>2016-08-06T15:34:28Z</time></trkpt>
<trkpt lat="46.31159" lon="7.70664"><ele>624.6</ele><time>2016-08-06T15:34:30Z</time></trkpt>
<trkpt lat="46.31157" lon="7.70657"><ele>624.8</ele><time>2016-08-06T15:34:31Z</time></trkpt>
<trkpt lat="46.31156" lon="7.70649"><ele>624.8</ele><time>2016-08-06T15:34:32Z</time></trkpt>
<trkpt lat="46.31154" lon="7.70642"><ele>625</ele><time>2016-08-06T15:34:33Z</time></trkpt>
<trkpt lat="46.31153" lon="7.70634"><ele>625.2</ele><time>2016-08-06T15:34:34Z</time></trkpt>
<trkpt lat="46.31152" lon="7.70619"><ele>625.4</ele><time>2016-08-06T15:34:36Z</time></trkpt>
<trkpt lat="46.31153" lon="7.70604"><ele>625.6</ele><time>2016-08-06T15:34:38Z</time></trkpt>
<trkpt lat="46.31155" lon="7.70588"><ele>625.8</ele><time>2016-08-06T15:34:40Z</time></trkpt>
<trkpt lat="46.31157" lon="7.70573"><ele>626</ele><time>2016-08-06T15:34:42Z</time></trkpt>
<trkpt lat="46.31159" lon="7.70557"><ele>626.4</ele><time>2016-08-06T15:34:44Z</time></trkpt>
<trkpt lat="46.3116" lon="7.7055"><ele>626.4</ele><time>2016-08-06T15:34:45Z</time></trkpt>
<trkpt lat="46.31161" lon="7.70542"><ele>626.6</ele><time>2016-08-06T15:34:46Z</time></trkpt>
<trkpt lat="46.31162" lon="7.70527"><ele>626.8</ele><time>2016-08-06T15:34:48Z</time></trkpt>
<trkpt lat="46.31163" lon="7.70512"><ele>627</ele><time>2016-08-06T15:34:50Z</time></trkpt>
<trkpt lat="46.31164" lon="7.70505"><ele>626.6</ele><time>2016-08-06T15:34:51Z</time></trkpt>
<trkpt lat="46.31167" lon="7.70498"><ele>626.4</ele><time>2016-08-06T15:34:52Z</time></trkpt>
<trkpt lat="46.31171" lon="7.70485"><ele>625.8</ele><time>2016-08-06T15:34:54Z</time></trkpt>
<trkpt lat="46.31176" lon="7.70471"><ele>625.2</ele><time>2016-08-06T15:34:56Z</time></trkpt>
<trkpt lat="46.31181" lon="7.70458"><ele>624.6</ele><time>2016-08-06T15:34:58Z</time></trkpt>
<trkpt lat="46.31186" lon="7.70445"><ele>623.8</ele><time>2016-08-06T15:35:00Z</time></trkpt>
<trkpt lat="46.3119" lon="7.7043"><ele>623.2</ele><time>2016-08-06T15:35:02Z</time></trkpt>
<trkpt lat="46.31194" lon="7.70416"><ele>623.4</ele><time>2016-08-06T15:35:04Z</time></trkpt>
<trkpt lat="46.31192" lon="7.704"><ele>623.6</ele><time>2016-08-06T15:35:06Z</time></trkpt>
<trkpt lat="46.31191" lon="7.70391"><ele>623.6</ele><time>2016-08-06T15:35:07Z</time></trkpt>
<trkpt lat="46.3119" lon="7.70383"><ele>623.8</ele><time>2016-08-06T15:35:08Z</time></trkpt>
<trkpt lat="46.31188" lon="7.70367"><ele>624</ele><time>2016-08-06T15:35:10Z</time></trkpt>
<trkpt lat="46.31185" lon="7.70351"><ele>624.4</ele><time>2016-08-06T15:35:12Z</time></trkpt>
<trkpt lat="46.31182" lon="7.70335"><ele>624.6</ele><time>2016-08-06T15:35:14Z</time></trkpt>
<trkpt lat="46.31178" lon="7.70318"><ele>625</ele><time>2016-08-06T15:35:16Z</time></trkpt>
<trkpt lat="46.31174" lon="7.70302"><ele>625.2</ele><time>2016-08-06T15:35:18Z</time></trkpt>
<trkpt lat="46.31171" lon="7.70286"><ele>625.6</ele><time>2016-08-06T15:35:20Z</time></trkpt>
<trkpt lat="46.31167" lon="7.7027"><ele>625.8</ele><time>2016-08-06T15:35:22Z</time></trkpt>
<trkpt lat="46.31165" lon="7.70253"><ele>626</ele><time>2016-08-06T15:35:24Z</time></trkpt>
<trkpt lat="46.31162" lon="7.70237"><ele>625.6</ele><time>2016-08-06T15:35:26Z</time></trkpt>
<trkpt lat="46.3116" lon="7.70221"><ele>625.4</ele><time>2016-08-06T15:35:28Z</time></trkpt>
<trkpt lat="46.31159" lon="7.70213"><ele>625.4</ele><time>2016-08-06T15:35:29Z</time></trkpt>
<trkpt lat="46.31157" lon="7.70205"><ele>625.4</ele><time>2016-08-06T15:35:30Z</time></trkpt>
<trkpt lat="46.31154" lon="7.7019"><ele>625.8</ele><time>2016-08-06T15:35:32Z</time></trkpt>
<trkpt lat="46.31151" lon="7.70176"><ele>626</ele><time>2016-08-06T15:35:34Z</time></trkpt>
<trkpt lat="46.31148" lon="7.70161"><ele>626.4</ele><time>2016-08-06T15:35:36Z</time></trkpt>
<trkpt lat="46.31145" lon="7.70146"><ele>626.6</ele><time>2016-08-06T15:35:38Z</time></trkpt>
<trkpt lat="46.31144" lon="7.7014"><ele>626.8</ele><time>2016-08-06T15:35:39Z</time></trkpt>
<trkpt lat="46.31143" lon="7.70134"><ele>627</ele><time>2016-08-06T15:35:40Z</time></trkpt>
<trkpt lat="46.31142" lon="7.70123"><ele>627.2</ele><time>2016-08-06T15:35:42Z</time></trkpt>
<trkpt lat="46.3114" lon="7.70112"><ele>627.6</ele><time>2016-08-06T15:35:44Z</time></trkpt>
<trkpt lat="46.31138" lon="7.70102"><ele>627.8</ele><time>2016-08-06T15:35:46Z</time></trkpt>
<trkpt lat="46.31135" lon="7.70099"><ele>627.8</ele><time>2016-08-06T15:35:47Z</time></trkpt>
<trkpt lat="46.31135" lon="7.70093"><ele>627.6</ele><time>2016-08-06T15:35:48Z</time></trkpt>
<trkpt lat="46.31136" lon="7.70082"><ele>627.2</ele><time>2016-08-06T15:35:50Z</time></trkpt>
<trkpt lat="46.31136" lon="7.7007"><ele>626.8</ele><time>2016-08-06T15:35:52Z</time></trkpt>
<trkpt lat="46.31136" lon="7.70065"><ele>626.6</ele><time>2016-08-06T15:35:53Z</time></trkpt>
<trkpt lat="46.31137" lon="7.70059"><ele>626.4</ele><time>2016-08-06T15:35:54Z</time></trkpt>
<trkpt lat="46.31137" lon="7.70048"><ele>626.2</ele><time>2016-08-06T15:35:56Z</time></trkpt>
<trkpt lat="46.31137" lon="7.70036"><ele>626</ele><time>2016-08-06T15:35:58Z</time></trkpt>
<trkpt lat="46.31138" lon="7.7003"><ele>625.8</ele><time>2016-08-06T15:35:59Z</time></trkpt>
<trkpt lat="46.31138" lon="7.70022"><ele>625.8</ele><time>2016-08-06T15:36:00Z</time></trkpt>
<trkpt lat="46.3114" lon="7.70006"><ele>625.6</ele><time>2016-08-06T15:36:02Z</time></trkpt>
<trkpt lat="46.31141" lon="7.6999"><ele>625.4</ele><time>2016-08-06T15:36:04Z</time></trkpt>
<trkpt lat="46.31142" lon="7.69974"><ele>625.2</ele><time>2016-08-06T15:36:06Z</time></trkpt>
<trkpt lat="46.31143" lon="7.69965"><ele>625</ele><time>2016-08-06T15:36:07Z</time></trkpt>
<trkpt lat="46.31144" lon="7.69955"><ele>625</ele><time>2016-08-06T15:36:08Z</time></trkpt>
<trkpt lat="46.31145" lon="7.69935"><ele>624.8</ele><time>2016-08-06T15:36:10Z</time></trkpt>
<trkpt lat="46.31147" lon="7.69915"><ele>624.4</ele><time>2016-08-06T15:36:12Z</time></trkpt>
<trkpt lat="46.31149" lon="7.69895"><ele>624.2</ele><time>2016-08-06T15:36:14Z</time></trkpt>
<trkpt lat="46.3115" lon="7.69885"><ele>624.2</ele><time>2016-08-06T15:36:15Z</time></trkpt>
<trkpt lat="46.31151" lon="7.69875"><ele>624.2</ele><time>2016-08-06T15:36:16Z</time></trkpt>
<trkpt lat="46.31152" lon="7.69855"><ele>624.4</ele><time>2016-08-06T15:36:18Z</time></trkpt>
<trkpt lat="46.31154" lon="7.69836"><ele>624.4</ele><time>2016-08-06T15:36:20Z</time></trkpt>
<trkpt lat="46.31154" lon="7.69826"><ele>624.4</ele><time>2016-08-06T15:36:21Z</time></trkpt>
<trkpt lat="46.31154" lon="7.69816"><ele>624.4</ele><time>2016-08-06T15:36:22Z</time></trkpt>
<trkpt lat="46.31153" lon="7.69797"><ele>624.6</ele><time>2016-08-06T15:36:24Z</time></trkpt>
<trkpt lat="46.31153" lon="7.69777"><ele>624.6</ele><time>2016-08-06T15:36:26Z</time></trkpt>
<trkpt lat="46.31152" lon="7.69768"><ele>624.6</ele><time>2016-08-06T15:36:27Z</time></trkpt>
<trkpt lat="46.31152" lon="7.69758"><ele>624.6</ele><time>2016-08-06T15:36:28Z</time></trkpt>
<trkpt lat="46.31152" lon="7.69741"><ele>624.4</ele><time>2016-08-06T15:36:30Z</time></trkpt>
<trkpt lat="46.31152" lon="7.69723"><ele>624.2</ele><time>2016-08-06T15:36:32Z</time></trkpt>
<trkpt lat="46.31152" lon="7.69705"><ele>624</ele><time>2016-08-06T15:36:34Z</time></trkpt>
<trkpt lat="46.31152" lon="7.69688"><ele>623.8</ele><time>2016-08-06T15:36:36Z</time></trkpt>
<trkpt lat="46.31151" lon="7.69671"><ele>623.6</ele><time>2016-08-06T15:36:38Z</time></trkpt>
<trkpt lat="46.31151" lon="7.69654"><ele>623.4</ele><time>2016-08-06T15:36:40Z</time></trkpt>
<trkpt lat="46.31151" lon="7.69637"><ele>623.2</ele><time>2016-08-06T15:36:42Z</time></trkpt>
<trkpt lat="46.3115" lon="7.69628"><ele>623.2</ele><time>2016-08-06T15:36:43Z</time></trkpt>
<trkpt lat="46.3115" lon="7.6962"><ele>623.2</ele><time>2016-08-06T15:36:44Z</time></trkpt>
<trkpt lat="46.31148" lon="7.69603"><ele>623.4</ele><time>2016-08-06T15:36:46Z</time></trkpt>
<trkpt lat="46.31145" lon="7.69587"><ele>623.4</ele><time>2016-08-06T15:36:48Z</time></trkpt>
<trkpt lat="46.31144" lon="7.69578"><ele>623.4</ele><time>2016-08-06T15:36:49Z</time></trkpt>
<trkpt lat="46.31143" lon="7.6957"><ele>623.2</ele><time>2016-08-06T15:36:50Z</time></trkpt>
<trkpt lat="46.31141" lon="7.69554"><ele>623</ele><time>2016-08-06T15:36:52Z</time></trkpt>
<trkpt lat="46.31141" lon="7.69536"><ele>622.8</ele><time>2016-08-06T15:36:54Z</time></trkpt>
<trkpt lat="46.3114" lon="7.69518"><ele>622.6</ele><time>2016-08-06T15:36:56Z</time></trkpt>
<trkpt lat="46.3114" lon="7.695"><ele>622.4</ele><time>2016-08-06T15:36:58Z</time></trkpt>
<trkpt lat="46.31139" lon="7.69482"><ele>622.2</ele><time>2016-08-06T15:37:00Z</time></trkpt>
<trkpt lat="46.3114" lon="7.69467"><ele>621.8</ele><time>2016-08-06T15:37:02Z</time></trkpt>
<trkpt lat="46.3114" lon="7.69452"><ele>621.6</ele><time>2016-08-06T15:37:04Z</time></trkpt>
<trkpt lat="46.31141" lon="7.69437"><ele>621.4</ele><time>2016-08-06T15:37:06Z</time></trkpt>
<trkpt lat="46.31141" lon="7.69422"><ele>621.2</ele><time>2016-08-06T15:37:08Z</time></trkpt>
<trkpt lat="46.31141" lon="7.69414"><ele>621</ele><time>2016-08-06T15:37:09Z</time></trkpt>
<trkpt lat="46.3114" lon="7.69405"><ele>621</ele><time>2016-08-06T15:37:10Z</time></trkpt>
<trkpt lat="46.31138" lon="7.69386"><ele>620.8</ele><time>2016-08-06T15:37:12Z</time></trkpt>
<trkpt lat="46.31135" lon="7.69368"><ele>620.6</ele><time>2016-08-06T15:37:14Z</time></trkpt>
<trkpt lat="46.31133" lon="7.69349"><ele>620.2</ele><time>2016-08-06T15:37:16Z</time></trkpt>
<trkpt lat="46.31132" lon="7.69341"><ele>620.4</ele><time>2016-08-06T15:37:17Z</time></trkpt>
<trkpt lat="46.3113" lon="7.69332"><ele>621</ele><time>2016-08-06T15:37:18Z</time></trkpt>
<trkpt lat="46.31127" lon="7.69314"><ele>622.2</ele><time>2016-08-06T15:37:20Z</time></trkpt>
<trkpt lat="46.31124" lon="7.69297"><ele>623.4</ele><time>2016-08-06T15:37:22Z</time></trkpt>
<trkpt lat="46.31122" lon="7.69288"><ele>623.8</ele><time>2016-08-06T15:37:23Z</time></trkpt>
<trkpt lat="46.31121" lon="7.6928"><ele>623.4</ele><time>2016-08-06T15:37:24Z</time></trkpt>
<trkpt lat="46.31119" lon="7.69267"><ele>622.8</ele><time>2016-08-06T15:37:26Z</time></trkpt>
<trkpt lat="46.31116" lon="7.69254"><ele>622</ele><time>2016-08-06T15:37:28Z</time></trkpt>
<trkpt lat="46.31114" lon="7.69241"><ele>621.4</ele><time>2016-08-06T15:37:30Z</time></trkpt>
<trkpt lat="46.31112" lon="7.69228"><ele>620.6</ele><time>2016-08-06T15:37:32Z</time></trkpt>
<trkpt lat="46.31109" lon="7.69216"><ele>620</ele><time>2016-08-06T15:37:34Z</time></trkpt>
<trkpt lat="46.31106" lon="7.69202"><ele>620</ele><time>2016-08-06T15:37:36Z</time></trkpt>
<trkpt lat="46.31104" lon="7.69188"><ele>619.8</ele><time>2016-08-06T15:37:38Z</time></trkpt>
<trkpt lat="46.31102" lon="7.69181"><ele>620</ele><time>2016-08-06T15:37:39Z</time></trkpt>
<trkpt lat="46.31101" lon="7.69174"><ele>620.8</ele><time>2016-08-06T15:37:40Z</time></trkpt>
<trkpt lat="46.31098" lon="7.6916"><ele>622.2</ele><time>2016-08-06T15:37:42Z</time></trkpt>
<trkpt lat="46.31097" lon="7.69153"><ele>622.8</ele><time>2016-08-06T15:37:43Z</time></trkpt>
<trkpt lat="46.31095" lon="7.69146"><ele>623.4</ele><time>2016-08-06T15:37:44Z</time></trkpt>
<trkpt lat="46.31094" lon="7.69139"><ele>624</ele><time>2016-08-06T15:37:45Z</time></trkpt>
<trkpt lat="46.31093" lon="7.69132"><ele>624</ele><time>2016-08-06T15:37:46Z</time></trkpt>
<trkpt lat="46.31091" lon="7.69118"><ele>623.8</ele><time>2016-08-06T15:37:48Z</time></trkpt>
<trkpt lat="46.31088" lon="7.69104"><ele>623.8</ele><time>2016-08-06T15:37:50Z</time></trkpt>
<trkpt lat="46.31086" lon="7.6909"><ele>623.6</ele><time>2016-08-06T15:37:52Z</time></trkpt>
<trkpt lat="46.31083" lon="7.69077"><ele>623.6</ele><time>2016-08-06T15:37:54Z</time></trkpt>
<trkpt lat="46.3108" lon="7.69064"><ele>623.4</ele><time>2016-08-06T15:37:56Z</time></trkpt>
<trkpt lat="46.31078" lon="7.69052"><ele>623</ele><time>2016-08-06T15:37:58Z</time></trkpt>
<trkpt lat="46.31075" lon="7.69039"><ele>622.6</ele><time>2016-08-06T15:38:00Z</time></trkpt>
<trkpt lat="46.31072" lon="7.69026"><ele>622.2</ele><time>2016-08-06T15:38:02Z</time></trkpt>
<trkpt lat="46.31071" lon="7.69014"><ele>622.2</ele><time>2016-08-06T15:38:04Z</time></trkpt>
<trkpt lat="46.31069" lon="7.69001"><ele>622</ele><time>2016-08-06T15:38:06Z</time></trkpt>
<trkpt lat="46.31067" lon="7.68989"><ele>622</ele><time>2016-08-06T15:38:08Z</time></trkpt>
<trkpt lat="46.31065" lon="7.68977"><ele>621.8</ele><time>2016-08-06T15:38:10Z</time></trkpt>
<trkpt lat="46.31063" lon="7.68965"><ele>621.8</ele><time>2016-08-06T15:38:12Z</time></trkpt>
<trkpt lat="46.31062" lon="7.68958"><ele>621.6</ele><time>2016-08-06T15:38:13Z</time></trkpt>
<trkpt lat="46.31061" lon="7.68952"><ele>621.6</ele><time>2016-08-06T15:38:14Z</time></trkpt>
<trkpt lat="46.31059" lon="7.68938"><ele>621.4</ele><time>2016-08-06T15:38:16Z</time></trkpt>
<trkpt lat="46.31058" lon="7.68925"><ele>621.4</ele><time>2016-08-06T15:38:18Z</time></trkpt>
<trkpt lat="46.31056" lon="7.68912"><ele>621.2</ele><time>2016-08-06T15:38:20Z</time></trkpt>
<trkpt lat="46.31054" lon="7.68899"><ele>621.2</ele><time>2016-08-06T15:38:22Z</time></trkpt>
<trkpt lat="46.31053" lon="7.68892"><ele>621.2</ele><time>2016-08-06T15:38:23Z</time></trkpt>
<trkpt lat="46.31052" lon="7.68886"><ele>621</ele><time>2016-08-06T15:38:24Z</time></trkpt>
<trkpt lat="46.31049" lon="7.68874"><ele>621</ele><time>2016-08-06T15:38:26Z</time></trkpt>
<trkpt lat="46.31047" lon="7.68861"><ele>620.8</ele><time>2016-08-06T15:38:28Z</time></trkpt>
<trkpt lat="46.31045" lon="7.68849"><ele>620.8</ele><time>2016-08-06T15:38:30Z</time></trkpt>
<trkpt lat="46.31043" lon="7.68837"><ele>620.6</ele><time>2016-08-06T15:38:32Z</time></trkpt>
<trkpt lat="46.3104" lon="7.68824"><ele>620.6</ele><time>2016-08-06T15:38:34Z</time></trkpt>
<trkpt lat="46.31038" lon="7.68811"><ele>620.4</ele><time>2016-08-06T15:38:36Z</time></trkpt>
<trkpt lat="46.31037" lon="7.68797"><ele>620.4</ele><time>2016-08-06T15:38:38Z</time></trkpt>
<trkpt lat="46.31035" lon="7.6879"><ele>620.4</ele><time>2016-08-06T15:38:39Z</time></trkpt>
<trkpt lat="46.31031" lon="7.68786"><ele>620.2</ele><time>2016-08-06T15:38:40Z</time></trkpt>
<trkpt lat="46.31027" lon="7.68782"><ele>620.2</ele><time>2016-08-06T15:38:41Z</time></trkpt>
<trkpt lat="46.31022" lon="7.68784"><ele>620.2</ele><time>2016-08-06T15:38:42Z</time></trkpt>
<trkpt lat="46.31011" lon="7.68787"><ele>620</ele><time>2016-08-06T15:38:44Z</time></trkpt>
<trkpt lat="46.31" lon="7.6879"><ele>619.8</ele><time>2016-08-06T15:38:46Z</time></trkpt>
<trkpt lat="46.3099" lon="7.68793"><ele>619.6</ele><time>2016-08-06T15:38:48Z</time></trkpt>
<trkpt lat="46.30979" lon="7.68797"><ele>619.4</ele><time>2016-08-06T15:38:50Z</time></trkpt>
<trkpt lat="46.30969" lon="7.68802"><ele>619.2</ele><time>2016-08-06T15:38:52Z</time></trkpt>
<trkpt lat="46.30959" lon="7.68806"><ele>619.2</ele><time>2016-08-06T15:38:54Z</time></trkpt>
<trkpt lat="46.30949" lon="7.68811"><ele>619</ele><time>2016-08-06T15:38:56Z</time></trkpt>
<trkpt lat="46.30939" lon="7.68816"><ele>618.8</ele><time>2016-08-06T15:38:58Z</time></trkpt>
<trkpt lat="46.30934" lon="7.68819"><ele>618.8</ele><time>2016-08-06T15:38:59Z</time></trkpt>
<trkpt lat="46.30928" lon="7.68821"><ele>618.6</ele><time>2016-08-06T15:39:00Z</time></trkpt>
<trkpt lat="46.30917" lon="7.68825"><ele>618.4</ele><time>2016-08-06T15:39:02Z</time></trkpt>
<trkpt lat="46.30906" lon="7.6883"><ele>618.4</ele><time>2016-08-06T15:39:04Z</time></trkpt>
<trkpt lat="46.30895" lon="7.68834"><ele>618.8</ele><time>2016-08-06T15:39:06Z</time></trkpt>
<trkpt lat="46.3089" lon="7.68836"><ele>619</ele><time>2016-08-06T15:39:07Z</time></trkpt>
<trkpt lat="46.30885" lon="7.68839"><ele>619.4</ele><time>2016-08-06T15:39:08Z</time></trkpt>
<trkpt lat="46.30874" lon="7.68843"><ele>619.8</ele><time>2016-08-06T15:39:10Z</time></trkpt>
<trkpt lat="46.30864" lon="7.68848"><ele>620.2</ele><time>2016-08-06T15:39:12Z</time></trkpt>
<trkpt lat="46.30854" lon="7.68852"><ele>620.8</ele><time>2016-08-06T15:39:14Z</time></trkpt>
<trkpt lat="46.30844" lon="7.68856"><ele>621.2</ele><time>2016-08-06T15:39:16Z</time></trkpt>
<trkpt lat="46.30833" lon="7.68857"><ele>621.6</ele><time>2016-08-06T15:39:18Z</time></trkpt>
<trkpt lat="46.30829" lon="7.68856"><ele>621.8</ele><time>2016-08-06T15:39:19Z</time></trkpt>
<trkpt lat="46.30826" lon="7.6885"><ele>622.2</ele><time>2016-08-06T15:39:20Z</time></trkpt>
<trkpt lat="46.30822" lon="7.68838"><ele>622.6</ele><time>2016-08-06T15:39:22Z</time></trkpt>
<trkpt lat="46.3082" lon="7.68832"><ele>622.8</ele><time>2016-08-06T15:39:23Z</time></trkpt>
<trkpt lat="46.3082" lon="7.68825"><ele>623</ele><time>2016-08-06T15:39:24Z</time></trkpt>
<trkpt lat="46.30816" lon="7.6881"><ele>623.4</ele><time>2016-08-06T15:39:26Z</time></trkpt>
<trkpt lat="46.30812" lon="7.68796"><ele>623.4</ele><time>2016-08-06T15:39:28Z</time></trkpt>
<trkpt lat="46.30808" lon="7.68781"><ele>623.4</ele><time>2016-08-06T15:39:30Z</time></trkpt>
<trkpt lat="46.30804" lon="7.68767"><ele>623.4</ele><time>2016-08-06T15:39:32Z</time></trkpt>
<trkpt lat="46.30802" lon="7.68751"><ele>623.4</ele><time>2016-08-06T15:39:34Z</time></trkpt>
<trkpt lat="46.30799" lon="7.68735"><ele>623.4</ele><time>2016-08-06T15:39:36Z</time></trkpt>
<trkpt lat="46.30797" lon="7.6872"><ele>623.4</ele><time>2016-08-06T15:39:38Z</time></trkpt>
<trkpt lat="46.30794" lon="7.68704"><ele>623.6</ele><time>2016-08-06T15:39:40Z</time></trkpt>
<trkpt lat="46.3079" lon="7.68689"><ele>623.6</ele><time>2016-08-06T15:39:42Z</time></trkpt>
<trkpt lat="46.30786" lon="7.68674"><ele>623.6</ele><time>2016-08-06T15:39:44Z</time></trkpt>
<trkpt lat="46.30782" lon="7.68658"><ele>623.6</ele><time>2016-08-06T15:39:46Z</time></trkpt>
<trkpt lat="46.3078" lon="7.6865"><ele>623.6</ele><time>2016-08-06T15:39:47Z</time></trkpt>
<trkpt lat="46.30779" lon="7.68642"><ele>623.4</ele><time>2016-08-06T15:39:48Z</time></trkpt>
<trkpt lat="46.30776" lon="7.68626"><ele>623.4</ele><time>2016-08-06T15:39:50Z</time></trkpt>
<trkpt lat="46.30774" lon="7.6861"><ele>623.2</ele><time>2016-08-06T15:39:52Z</time></trkpt>
<trkpt lat="46.30771" lon="7.68594"><ele>623.2</ele><time>2016-08-06T15:39:54Z</time></trkpt>
<trkpt lat="46.30768" lon="7.68578"><ele>623</ele><time>2016-08-06T15:39:56Z</time></trkpt>
<trkpt lat="46.30765" lon="7.68563"><ele>622.8</ele><time>2016-08-06T15:39:58Z</time></trkpt>
<trkpt lat="46.30762" lon="7.68548"><ele>622.8</ele><time>2016-08-06T15:40:00Z</time></trkpt>
<trkpt lat="46.30758" lon="7.68532"><ele>622.6</ele><time>2016-08-06T15:40:02Z</time></trkpt>
<trkpt lat="46.30756" lon="7.68516"><ele>622.6</ele><time>2016-08-06T15:40:04Z</time></trkpt>
<trkpt lat="46.30753" lon="7.685"><ele>622.4</ele><time>2016-08-06T15:40:06Z</time></trkpt>
<trkpt lat="46.3075" lon="7.68484"><ele>622.2</ele><time>2016-08-06T15:40:08Z</time></trkpt>
<trkpt lat="46.30749" lon="7.68476"><ele>622.2</ele><time>2016-08-06T15:40:09Z</time></trkpt>
<trkpt lat="46.30747" lon="7.68468"><ele>622.2</ele><time>2016-08-06T15:40:10Z</time></trkpt>
<trkpt lat="46.30743" lon="7.68452"><ele>622</ele><time>2016-08-06T15:40:12Z</time></trkpt>
<trkpt lat="46.3074" lon="7.68435"><ele>622</ele><time>2016-08-06T15:40:14Z</time></trkpt>
<trkpt lat="46.30737" lon="7.68419"><ele>621.8</ele><time>2016-08-06T15:40:16Z</time></trkpt>
<trkpt lat="46.30737" lon="7.68405"><ele>621.6</ele><time>2016-08-06T15:40:18Z</time></trkpt>
<trkpt lat="46.30734" lon="7.68388"><ele>621.6</ele><time>2016-08-06T15:40:20Z</time></trkpt>
<trkpt lat="46.3073" lon="7.68372"><ele>621.4</ele><time>2016-08-06T15:40:22Z</time></trkpt>
<trkpt lat="46.30727" lon="7.68356"><ele>621.4</ele><time>2016-08-06T15:40:24Z</time></trkpt>
<trkpt lat="46.30724" lon="7.6834"><ele>621.2</ele><time>2016-08-06T15:40:26Z</time></trkpt>
<trkpt lat="46.3072" lon="7.68324"><ele>621.2</ele><time>2016-08-06T15:40:28Z</time></trkpt>
<trkpt lat="46.30716" lon="7.68308"><ele>621</ele><time>2016-08-06T15:40:30Z</time></trkpt>
<trkpt lat="46.30713" lon="7.68292"><ele>620.8</ele><time>2016-08-06T15:40:32Z</time></trkpt>
<trkpt lat="46.30709" lon="7.68276"><ele>620.8</ele><time>2016-08-06T15:40:34Z</time></trkpt>
<trkpt lat="46.30706" lon="7.6826"><ele>620.6</ele><time>2016-08-06T15:40:36Z</time></trkpt>
<trkpt lat="46.30704" lon="7.68243"><ele>620.6</ele><time>2016-08-06T15:40:38Z</time></trkpt>
<trkpt lat="46.30701" lon="7.68227"><ele>620.4</ele><time>2016-08-06T15:40:40Z</time></trkpt>
<trkpt lat="46.30698" lon="7.6821"><ele>620.2</ele><time>2016-08-06T15:40:42Z</time></trkpt>
<trkpt lat="46.30695" lon="7.68193"><ele>620.2</ele><time>2016-08-06T15:40:44Z</time></trkpt>
<trkpt lat="46.30692" lon="7.68176"><ele>620</ele><time>2016-08-06T15:40:46Z</time></trkpt>
<trkpt lat="46.30689" lon="7.6816"><ele>620</ele><time>2016-08-06T15:40:48Z</time></trkpt>
<trkpt lat="46.30687" lon="7.68151"><ele>620</ele><time>2016-08-06T15:40:49Z</time></trkpt>
<trkpt lat="46.30686" lon="7.68143"><ele>620</ele><time>2016-08-06T15:40:50Z</time></trkpt>
<trkpt lat="46.30683" lon="7.68126"><ele>620.2</ele><time>2016-08-06T15:40:52Z</time></trkpt>
<trkpt lat="46.3068" lon="7.68108"><ele>620.2</ele><time>2016-08-06T15:40:54Z</time></trkpt>
<trkpt lat="46.30677" lon="7.68091"><ele>620.4</ele><time>2016-08-06T15:40:56Z</time></trkpt>
<trkpt lat="46.30675" lon="7.68074"><ele>620.6</ele><time>2016-08-06T15:40:58Z</time></trkpt>
<trkpt lat="46.30672" lon="7.68056"><ele>620.6</ele><time>2016-08-06T15:41:00Z</time></trkpt>
<trkpt lat="46.3067" lon="7.68038"><ele>620.8</ele><time>2016-08-06T15:41:02Z</time></trkpt>
<trkpt lat="46.30667" lon="7.68021"><ele>620.8</ele><time>2016-08-06T15:41:04Z</time></trkpt>
<trkpt lat="46.30665" lon="7.68003"><ele>621</ele><time>2016-08-06T15:41:06Z</time></trkpt>
<trkpt lat="46.30662" lon="7.67985"><ele>621.2</ele><time>2016-08-06T15:41:08Z</time></trkpt>
<trkpt lat="46.3066" lon="7.67967"><ele>621.2</ele><time>2016-08-06T15:41:10Z</time></trkpt>
<trkpt lat="46.30658" lon="7.67949"><ele>621.4</ele><time>2016-08-06T15:41:12Z</time></trkpt>
<trkpt lat="46.30655" lon="7.67931"><ele>621.6</ele><time>2016-08-06T15:41:14Z</time></trkpt>
<trkpt lat="46.30653" lon="7.67912"><ele>621.6</ele><time>2016-08-06T15:41:16Z</time></trkpt>
<trkpt lat="46.30652" lon="7.67894"><ele>621.8</ele><time>2016-08-06T15:41:18Z</time></trkpt>
<trkpt lat="46.3065" lon="7.67875"><ele>622</ele><time>2016-08-06T15:41:20Z</time></trkpt>
<trkpt lat="46.30649" lon="7.67866"><ele>622</ele><time>2016-08-06T15:41:21Z</time></trkpt>
<trkpt lat="46.30648" lon="7.67857"><ele>622</ele><time>2016-08-06T15:41:22Z</time></trkpt>
<trkpt lat="46.30646" lon="7.6784"><ele>622.2</ele><time>2016-08-06T15:41:24Z</time></trkpt>
<trkpt lat="46.30644" lon="7.67822"><ele>622.4</ele><time>2016-08-06T15:41:26Z</time></trkpt>
<trkpt lat="46.30642" lon="7.67805"><ele>622.4</ele><time>2016-08-06T15:41:28Z</time></trkpt>
<trkpt lat="46.30641" lon="7.67796"><ele>622.6</ele><time>2016-08-06T15:41:29Z</time></trkpt>
<trkpt lat="46.30641" lon="7.67788"><ele>622.6</ele><time>2016-08-06T15:41:30Z</time></trkpt>
<trkpt lat="46.3064" lon="7.67771"><ele>622.8</ele><time>2016-08-06T15:41:32Z</time></trkpt>
<trkpt lat="46.30639" lon="7.67754"><ele>622.8</ele><time>2016-08-06T15:41:34Z</time></trkpt>
<trkpt lat="46.30638" lon="7.67738"><ele>623</ele><time>2016-08-06T15:41:36Z</time></trkpt>
<trkpt lat="46.30638" lon="7.67729"><ele>622.6</ele><time>2016-08-06T15:41:37Z</time></trkpt>
<trkpt lat="46.30637" lon="7.67721"><ele>622.4</ele><time>2016-08-06T15:41:38Z</time></trkpt>
<trkpt lat="46.30636" lon="7.67704"><ele>621.8</ele><time>2016-08-06T15:41:40Z</time></trkpt>
<trkpt lat="46.30636" lon="7.67695"><ele>621.6</ele><time>2016-08-06T15:41:41Z</time></trkpt>
<trkpt lat="46.30635" lon="7.67687"><ele>621.8</ele><time>2016-08-06T15:41:42Z</time></trkpt>
<trkpt lat="46.30635" lon="7.6767"><ele>621.8</ele><time>2016-08-06T15:41:44Z</time></trkpt>
<trkpt lat="46.30634" lon="7.67662"><ele>621.8</ele><time>2016-08-06T15:41:45Z</time></trkpt>
<trkpt lat="46.30633" lon="7.67654"><ele>621.8</ele><time>2016-08-06T15:41:46Z</time></trkpt>
<trkpt lat="46.30634" lon="7.67646"><ele>622</ele><time>2016-08-06T15:41:47Z</time></trkpt>
<trkpt lat="46.30634" lon="7.67638"><ele>622</ele><time>2016-08-06T15:41:48Z</time></trkpt>
<trkpt lat="46.30633" lon="7.67622"><ele>622</ele><time>2016-08-06T15:41:50Z</time></trkpt>
<trkpt lat="46.30632" lon="7.67606"><ele>622</ele><time>2016-08-06T15:41:52Z</time></trkpt>
<trkpt lat="46.30632" lon="7.67597"><ele>622.2</ele><time>2016-08-06T15:41:53Z</time></trkpt>
<trkpt lat="46.30633" lon="7.67588"><ele>622.2</ele><time>2016-08-06T15:41:54Z</time></trkpt>
<trkpt lat="46.30631" lon="7.6757"><ele>622.2</ele><time>2016-08-06T15:41:56Z</time></trkpt>
<trkpt lat="46.30631" lon="7.67561"><ele>622.2</ele><time>2016-08-06T15:41:57Z</time></trkpt>
<trkpt lat="46.3063" lon="7.67552"><ele>622.2</ele><time>2016-08-06T15:41:58Z</time></trkpt>
<trkpt lat="46.3063" lon="7.67534"><ele>622.4</ele><time>2016-08-06T15:42:00Z</time></trkpt>
<trkpt lat="46.30629" lon="7.67515"><ele>622.4</ele><time>2016-08-06T15:42:02Z</time></trkpt>
<trkpt lat="46.3063" lon="7.67507"><ele>622.4</ele><time>2016-08-06T15:42:03Z</time></trkpt>
<trkpt lat="46.30632" lon="7.67498"><ele>622.4</ele><time>2016-08-06T15:42:04Z</time></trkpt>
<trkpt lat="46.30632" lon="7.67481"><ele>622.6</ele><time>2016-08-06T15:42:06Z</time></trkpt>
<trkpt lat="46.30631" lon="7.67464"><ele>622.6</ele><time>2016-08-06T15:42:08Z</time></trkpt>
<trkpt lat="46.3063" lon="7.67447"><ele>622.8</ele><time>2016-08-06T15:42:10Z</time></trkpt>
<trkpt lat="46.30629" lon="7.6743"><ele>622.8</ele><time>2016-08-06T15:42:12Z</time></trkpt>
<trkpt lat="46.30626" lon="7.67415"><ele>622.8</ele><time>2016-08-06T15:42:14Z</time></trkpt>
<trkpt lat="46.30625" lon="7.67408"><ele>622.8</ele><time>2016-08-06T15:42:15Z</time></trkpt>
<trkpt lat="46.30626" lon="7.674"><ele>623</ele><time>2016-08-06T15:42:16Z</time></trkpt>
<trkpt lat="46.30628" lon="7.67383"><ele>623</ele><time>2016-08-06T15:42:18Z</time></trkpt>
<trkpt lat="46.30629" lon="7.67367"><ele>623</ele><time>2016-08-06T15:42:20Z</time></trkpt>
<trkpt lat="46.30631" lon="7.6735"><ele>623.2</ele><time>2016-08-06T15:42:22Z</time></trkpt>
<trkpt lat="46.30631" lon="7.67342"><ele>623.2</ele><time>2016-08-06T15:42:23Z</time></trkpt>
<trkpt lat="46.3063" lon="7.67333"><ele>623.2</ele><time>2016-08-06T15:42:24Z</time></trkpt>
<trkpt lat="46.30629" lon="7.67317"><ele>623.2</ele><time>2016-08-06T15:42:26Z</time></trkpt>
<trkpt lat="46.30627" lon="7.673"><ele>623.4</ele><time>2016-08-06T15:42:28Z</time></trkpt>
<trkpt lat="46.30625" lon="7.67283"><ele>623.4</ele><time>2016-08-06T15:42:30Z</time></trkpt>
<trkpt lat="46.30625" lon="7.67275"><ele>623.4</ele><time>2016-08-06T15:42:31Z</time></trkpt>
<trkpt lat="46.30626" lon="7.67267"><ele>623.4</ele><time>2016-08-06T15:42:32Z</time></trkpt>
<trkpt lat="46.30627" lon="7.67251"><ele>623.6</ele><time>2016-08-06T15:42:34Z</time></trkpt>
<trkpt lat="46.30629" lon="7.67236"><ele>623.6</ele><time>2016-08-06T15:42:36Z</time></trkpt>
<trkpt lat="46.30631" lon="7.6722"><ele>623.6</ele><time>2016-08-06T15:42:38Z</time></trkpt>
<trkpt lat="46.30633" lon="7.67204"><ele>623.8</ele><time>2016-08-06T15:42:40Z</time></trkpt>
<trkpt lat="46.30634" lon="7.67188"><ele>623.8</ele><time>2016-08-06T15:42:42Z</time></trkpt>
<trkpt lat="46.30635" lon="7.67171"><ele>623.8</ele><time>2016-08-06T15:42:44Z</time></trkpt>
<trkpt lat="46.30636" lon="7.67154"><ele>624</ele><time>2016-08-06T15:42:46Z</time></trkpt>
<trkpt lat="46.30637" lon="7.67146"><ele>624</ele><time>2016-08-06T15:42:47Z</time></trkpt>
<trkpt lat="46.30638" lon="7.67139"><ele>624</ele><time>2016-08-06T15:42:48Z</time></trkpt>
<trkpt lat="46.30639" lon="7.67131"><ele>624</ele><time>2016-08-06T15:42:49Z</time></trkpt>
<trkpt lat="46.3064" lon="7.67123"><ele>624</ele><time>2016-08-06T15:42:50Z</time></trkpt>
<trkpt lat="46.30641" lon="7.67108"><ele>624.2</ele><time>2016-08-06T15:42:52Z</time></trkpt>
<trkpt lat="46.30644" lon="7.67099"><ele>624.2</ele><time>2016-08-06T15:42:53Z</time></trkpt>
<trkpt lat="46.30645" lon="7.67092"><ele>624.2</ele><time>2016-08-06T15:42:54Z</time></trkpt>
<trkpt lat="46.30646" lon="7.67077"><ele>624.2</ele><time>2016-08-06T15:42:56Z</time></trkpt>
<trkpt lat="46.30647" lon="7.6707"><ele>624.4</ele><time>2016-08-06T15:42:57Z</time></trkpt>
<trkpt lat="46.30649" lon="7.67063"><ele>624.4</ele><time>2016-08-06T15:42:58Z</time></trkpt>
<trkpt lat="46.30652" lon="7.6705"><ele>624.4</ele><time>2016-08-06T15:43:00Z</time></trkpt>
<trkpt lat="46.30647" lon="7.67042"><ele>624.6</ele><time>2016-08-06T15:43:02Z</time></trkpt>
<trkpt lat="46.30642" lon="7.67034"><ele>624.6</ele><time>2016-08-06T15:43:04Z</time></trkpt>
<trkpt lat="46.30636" lon="7.67033"><ele>624.6</ele><time>2016-08-06T15:43:06Z</time></trkpt>
<trkpt lat="46.30629" lon="7.67033"><ele>624.8</ele><time>2016-08-06T15:43:08Z</time></trkpt>
<trkpt lat="46.30623" lon="7.67032"><ele>624.8</ele><time>2016-08-06T15:43:10Z</time></trkpt>
<trkpt lat="46.30617" lon="7.67031"><ele>624.8</ele><time>2016-08-06T15:43:12Z</time></trkpt>
<trkpt lat="46.30611" lon="7.67031"><ele>625</ele><time>2016-08-06T15:43:14Z</time></trkpt>
<trkpt lat="46.30605" lon="7.6703"><ele>625</ele><time>2016-08-06T15:43:16Z</time></trkpt>
<trkpt lat="46.30598" lon="7.6703"><ele>625</ele><time>2016-08-06T15:43:18Z</time></trkpt>
<trkpt lat="46.30595" lon="7.67029"><ele>625.2</ele><time>2016-08-06T15:43:19Z</time></trkpt>
<trkpt lat="46.30591" lon="7.67029"><ele>625.2</ele><time>2016-08-06T15:43:20Z</time></trkpt>
<trkpt lat="46.30582" lon="7.67028"><ele>625.2</ele><time>2016-08-06T15:43:22Z</time></trkpt>
<trkpt lat="46.30574" lon="7.67028"><ele>625.4</ele><time>2016-08-06T15:43:24Z</time></trkpt>
<trkpt lat="46.30565" lon="7.67027"><ele>625.4</ele><time>2016-08-06T15:43:26Z</time></trkpt>
<trkpt lat="46.30557" lon="7.67026"><ele>625.4</ele><time>2016-08-06T15:43:28Z</time></trkpt>
<trkpt lat="46.30548" lon="7.67026"><ele>625.6</ele><time>2016-08-06T15:43:30Z</time></trkpt>
<trkpt lat="46.30535" lon="7.67025"><ele>625.6</ele><time>2016-08-06T15:43:32Z</time></trkpt>
<trkpt lat="46.30522" lon="7.67024"><ele>625.8</ele><time>2016-08-06T15:43:34Z</time></trkpt>
<trkpt lat="46.3051" lon="7.67023"><ele>625.8</ele><time>2016-08-06T15:43:36Z</time></trkpt>
<trkpt lat="46.30496" lon="7.67022"><ele>625.8</ele><time>2016-08-06T15:43:38Z</time></trkpt>
<trkpt lat="46.30475" lon="7.67019"><ele>624.8</ele><time>2016-08-06T15:43:40Z</time></trkpt>
<trkpt lat="46.30455" lon="7.67015"><ele>623.6</ele><time>2016-08-06T15:43:42Z</time></trkpt>
<trkpt lat="46.30445" lon="7.67013"><ele>623.2</ele><time>2016-08-06T15:43:43Z</time></trkpt>
<trkpt lat="46.30435" lon="7.6701"><ele>622.8</ele><time>2016-08-06T15:43:44Z</time></trkpt>
<trkpt lat="46.30416" lon="7.67002"><ele>622.6</ele><time>2016-08-06T15:43:46Z</time></trkpt>
<trkpt lat="46.30407" lon="7.66981"><ele>622.4</ele><time>2016-08-06T15:43:48Z</time></trkpt>
<trkpt lat="46.30406" lon="7.66958"><ele>622.2</ele><time>2016-08-06T15:43:50Z</time></trkpt>
<trkpt lat="46.30405" lon="7.66935"><ele>622</ele><time>2016-08-06T15:43:52Z</time></trkpt>
<trkpt lat="46.30404" lon="7.66912"><ele>621.8</ele><time>2016-08-06T15:43:54Z</time></trkpt>
<trkpt lat="46.30402" lon="7.66892"><ele>621.6</ele><time>2016-08-06T15:43:56Z</time></trkpt>
<trkpt lat="46.304" lon="7.66872"><ele>621.4</ele><time>2016-08-06T15:43:58Z</time></trkpt>
<trkpt lat="46.30398" lon="7.66852"><ele>621.2</ele><time>2016-08-06T15:44:00Z</time></trkpt>
<trkpt lat="46.30397" lon="7.66842"><ele>621.2</ele><time>2016-08-06T15:44:01Z</time></trkpt>
<trkpt lat="46.30396" lon="7.66833"><ele>621</ele><time>2016-08-06T15:44:02Z</time></trkpt>
<trkpt lat="46.30395" lon="7.66814"><ele>620.8</ele><time>2016-08-06T15:44:04Z</time></trkpt>
<trkpt lat="46.30393" lon="7.66795"><ele>620.8</ele><time>2016-08-06T15:44:06Z</time></trkpt>
<trkpt lat="46.30392" lon="7.66776"><ele>620.6</ele><time>2016-08-06T15:44:08Z</time></trkpt>
<trkpt lat="46.30389" lon="7.66758"><ele>620.6</ele><time>2016-08-06T15:44:10Z</time></trkpt>
<trkpt lat="46.30388" lon="7.66748"><ele>620.6</ele><time>2016-08-06T15:44:11Z</time></trkpt>
<trkpt lat="46.30387" lon="7.66739"><ele>620.6</ele><time>2016-08-06T15:44:12Z</time></trkpt>
<trkpt lat="46.30384" lon="7.66721"><ele>620.8</ele><time>2016-08-06T15:44:14Z</time></trkpt>
<trkpt lat="46.30384" lon="7.66711"><ele>620.8</ele><time>2016-08-06T15:44:15Z</time></trkpt>
<trkpt lat="46.30384" lon="7.66702"><ele>620.8</ele><time>2016-08-06T15:44:16Z</time></trkpt>
<trkpt lat="46.30384" lon="7.66684"><ele>620.8</ele><time>2016-08-06T15:44:18Z</time></trkpt>
<trkpt lat="46.30385" lon="7.66665"><ele>620.8</ele><time>2016-08-06T15:44:20Z</time></trkpt>
<trkpt lat="46.30386" lon="7.66647"><ele>620.8</ele><time>2016-08-06T15:44:22Z</time></trkpt>
<trkpt lat="46.3039" lon="7.66629"><ele>620.8</ele><time>2016-08-06T15:44:24Z</time></trkpt>
<trkpt lat="46.30395" lon="7.66612"><ele>620.6</ele><time>2016-08-06T15:44:26Z</time></trkpt>
<trkpt lat="46.30399" lon="7.66594"><ele>620.6</ele><time>2016-08-06T15:44:28Z</time></trkpt>
<trkpt lat="46.30401" lon="7.66586"><ele>620.6</ele><time>2016-08-06T15:44:29Z</time></trkpt>
<trkpt lat="46.30401" lon="7.66576"><ele>620.4</ele><time>2016-08-06T15:44:30Z</time></trkpt>
<trkpt lat="46.30402" lon="7.66558"><ele>620.4</ele><time>2016-08-06T15:44:32Z</time></trkpt>
<trkpt lat="46.30402" lon="7.6654"><ele>620.2</ele><time>2016-08-06T15:44:34Z</time></trkpt>
<trkpt lat="46.30403" lon="7.66521"><ele>620.2</ele><time>2016-08-06T15:44:36Z</time></trkpt>
<trkpt lat="46.30403" lon="7.66512"><ele>620.2</ele><time>2016-08-06T15:44:37Z</time></trkpt>
<trkpt lat="46.30402" lon="7.66503"><ele>620.2</ele><time>2016-08-06T15:44:38Z</time></trkpt>
<trkpt lat="46.304" lon="7.66483"><ele>620</ele><time>2016-08-06T15:44:40Z</time></trkpt>
<trkpt lat="46.30398" lon="7.66464"><ele>620</ele><time>2016-08-06T15:44:42Z</time></trkpt>
<trkpt lat="46.30397" lon="7.66444"><ele>619.8</ele><time>2016-08-06T15:44:44Z</time></trkpt>
<trkpt lat="46.30395" lon="7.66425"><ele>619.8</ele><time>2016-08-06T15:44:46Z</time></trkpt>
<trkpt lat="46.30393" lon="7.66405"><ele>619.6</ele><time>2016-08-06T15:44:48Z</time></trkpt>
<trkpt lat="46.30391" lon="7.66386"><ele>619.6</ele><time>2016-08-06T15:44:50Z</time></trkpt>
<trkpt lat="46.3039" lon="7.66376"><ele>619.6</ele><time>2016-08-06T15:44:51Z</time></trkpt>
<trkpt lat="46.3039" lon="7.66366"><ele>619.6</ele><time>2016-08-06T15:44:52Z</time></trkpt>
<trkpt lat="46.30388" lon="7.66346"><ele>619.4</ele><time>2016-08-06T15:44:54Z</time></trkpt>
<trkpt lat="46.30387" lon="7.66325"><ele>619.4</ele><time>2016-08-06T15:44:56Z</time></trkpt>
<trkpt lat="46.30385" lon="7.66305"><ele>619.2</ele><time>2016-08-06T15:44:58Z</time></trkpt>
<trkpt lat="46.30384" lon="7.66285"><ele>619.2</ele><time>2016-08-06T15:45:00Z</time></trkpt>
<trkpt lat="46.30382" lon="7.66264"><ele>619</ele><time>2016-08-06T15:45:02Z</time></trkpt>
<trkpt lat="46.3038" lon="7.66244"><ele>619</ele><time>2016-08-06T15:45:04Z</time></trkpt>
<trkpt lat="46.30379" lon="7.66234"><ele>619</ele><time>2016-08-06T15:45:05Z</time></trkpt>
<trkpt lat="46.30379" lon="7.66224"><ele>618.8</ele><time>2016-08-06T15:45:06Z</time></trkpt>
<trkpt lat="46.30379" lon="7.66204"><ele>618.8</ele><time>2016-08-06T15:45:08Z</time></trkpt>
<trkpt lat="46.30378" lon="7.66184"><ele>618.8</ele><time>2016-08-06T15:45:10Z</time></trkpt>
<trkpt lat="46.30379" lon="7.66165"><ele>618.6</ele><time>2016-08-06T15:45:12Z</time></trkpt>
<trkpt lat="46.30386" lon="7.66147"><ele>618.8</ele><time>2016-08-06T15:45:14Z</time></trkpt>
<trkpt lat="46.30393" lon="7.66129"><ele>618.8</ele><time>2016-08-06T15:45:16Z</time></trkpt>
<trkpt lat="46.30397" lon="7.66122"><ele>618.8</ele><time>2016-08-06T15:45:17Z</time></trkpt>
<trkpt lat="46.30403" lon="7.66116"><ele>618.8</ele><time>2016-08-06T15:45:18Z</time></trkpt>
<trkpt lat="46.30414" lon="7.66106"><ele>618.8</ele><time>2016-08-06T15:45:20Z</time></trkpt>
<trkpt lat="46.30426" lon="7.66097"><ele>618.8</ele><time>2016-08-06T15:45:22Z</time></trkpt>
<trkpt lat="46.30439" lon="7.66095"><ele>618.8</ele><time>2016-08-06T15:45:24Z</time></trkpt>
<trkpt lat="46.30452" lon="7.66093"><ele>618.6</ele><time>2016-08-06T15:45:26Z</time></trkpt>
<trkpt lat="46.30466" lon="7.66091"><ele>618.6</ele><time>2016-08-06T15:45:28Z</time></trkpt>
<trkpt lat="46.30472" lon="7.66091"><ele>618.6</ele><time>2016-08-06T15:45:29Z</time></trkpt>
<trkpt lat="46.30478" lon="7.66091"><ele>618.6</ele><time>2016-08-06T15:45:30Z</time></trkpt>
<trkpt lat="46.3049" lon="7.66092"><ele>618.6</ele><time>2016-08-06T15:45:32Z</time></trkpt>
<trkpt lat="46.30502" lon="7.66093"><ele>618.6</ele><time>2016-08-06T15:45:34Z</time></trkpt>
<trkpt lat="46.30514" lon="7.66094"><ele>618.4</ele><time>2016-08-06T15:45:36Z</time></trkpt>
<trkpt lat="46.3052" lon="7.66094"><ele>618.4</ele><time>2016-08-06T15:45:37Z</time></trkpt>
<trkpt lat="46.30526" lon="7.66094"><ele>618.4</ele><time>2016-08-06T15:45:38Z</time></trkpt>
<trkpt lat="46.30537" lon="7.66092"><ele>618.4</ele><time>2016-08-06T15:45:40Z</time></trkpt>
<trkpt lat="46.30548" lon="7.66091"><ele>618.4</ele><time>2016-08-06T15:45:42Z</time></trkpt>
<trkpt lat="46.3056" lon="7.66089"><ele>618.2</ele><time>2016-08-06T15:45:44Z</time></trkpt>
<trkpt lat="46.30565" lon="7.66089"><ele>618.2</ele><time>2016-08-06T15:45:45Z</time></trkpt>
<trkpt lat="46.3057" lon="7.66089"><ele>618.2</ele><time>2016-08-06T15:45:46Z</time></trkpt>
<trkpt lat="46.30581" lon="7.66082"><ele>618.2</ele><time>2016-08-06T15:45:48Z</time></trkpt>
<trkpt lat="46.30592" lon="7.66076"><ele>618.2</ele><time>2016-08-06T15:45:50Z</time></trkpt>
<trkpt lat="46.30597" lon="7.66072"><ele>618</ele><time>2016-08-06T15:45:51Z</time></trkpt>
<trkpt lat="46.30602" lon="7.66065"><ele>618</ele><time>2016-08-06T15:45:52Z</time></trkpt>
<trkpt lat="46.30611" lon="7.66052"><ele>618</ele><time>2016-08-06T15:45:54Z</time></trkpt>
<trkpt lat="46.30621" lon="7.66039"><ele>618</ele><time>2016-08-06T15:45:56Z</time></trkpt>
<trkpt lat="46.3063" lon="7.66026"><ele>618</ele><time>2016-08-06T15:45:58Z</time></trkpt>
<trkpt lat="46.30637" lon="7.66012"><ele>617.8</ele><time>2016-08-06T15:46:00Z</time></trkpt>
<trkpt lat="46.30641" lon="7.66005"><ele>617.8</ele><time>2016-08-06T15:46:01Z</time></trkpt>
<trkpt lat="46.30644" lon="7.66001"><ele>617.8</ele><time>2016-08-06T15:46:02Z</time></trkpt>
<trkpt lat="46.30652" lon="7.65991"><ele>617.8</ele><time>2016-08-06T15:46:04Z</time></trkpt>
<trkpt lat="46.30659" lon="7.65982"><ele>617.8</ele><time>2016-08-06T15:46:06Z</time></trkpt>
<trkpt lat="46.30666" lon="7.65972"><ele>617.6</ele><time>2016-08-06T15:46:08Z</time></trkpt>
<trkpt lat="46.30673" lon="7.65963"><ele>617.6</ele><time>2016-08-06T15:46:10Z</time></trkpt>
<trkpt lat="46.30677" lon="7.65958"><ele>617.6</ele><time>2016-08-06T15:46:11Z</time></trkpt>
<trkpt lat="46.30681" lon="7.65953"><ele>617.6</ele><time>2016-08-06T15:46:12Z</time></trkpt>
<trkpt lat="46.30689" lon="7.65942"><ele>617.6</ele><time>2016-08-06T15:46:14Z</time></trkpt>
<trkpt lat="46.30696" lon="7.65932"><ele>617.4</ele><time>2016-08-06T15:46:16Z</time></trkpt>
<trkpt lat="46.30704" lon="7.65921"><ele>617.4</ele><time>2016-08-06T15:46:18Z</time></trkpt>
<trkpt lat="46.30711" lon="7.6591"><ele>617.4</ele><time>2016-08-06T15:46:20Z</time></trkpt>
<trkpt lat="46.30716" lon="7.65897"><ele>617.4</ele><time>2016-08-06T15:46:22Z</time></trkpt>
<trkpt lat="46.3072" lon="7.65884"><ele>617.2</ele><time>2016-08-06T15:46:24Z</time></trkpt>
<trkpt lat="46.30725" lon="7.65871"><ele>617.2</ele><time>2016-08-06T15:46:26Z</time></trkpt>
<trkpt lat="46.3073" lon="7.65859"><ele>617.2</ele><time>2016-08-06T15:46:28Z</time></trkpt>
<trkpt lat="46.30732" lon="7.65852"><ele>617.2</ele><time>2016-08-06T15:46:29Z</time></trkpt>
<trkpt lat="46.30733" lon="7.65845"><ele>617.2</ele><time>2016-08-06T15:46:30Z</time></trkpt>
<trkpt lat="46.30735" lon="7.65831"><ele>617.2</ele><time>2016-08-06T15:46:32Z</time></trkpt>
<trkpt lat="46.30737" lon="7.65816"><ele>617</ele><time>2016-08-06T15:46:34Z</time></trkpt>
<trkpt lat="46.30739" lon="7.65802"><ele>617</ele><time>2016-08-06T15:46:36Z</time></trkpt>
<trkpt lat="46.30741" lon="7.65788"><ele>617</ele><time>2016-08-06T15:46:38Z</time></trkpt>
<trkpt lat="46.30744" lon="7.65774"><ele>617</ele><time>2016-08-06T15:46:40Z</time></trkpt>
<trkpt lat="46.30747" lon="7.6576"><ele>616.8</ele><time>2016-08-06T15:46:42Z</time></trkpt>
<trkpt lat="46.30749" lon="7.65746"><ele>616.8</ele><time>2016-08-06T15:46:44Z</time></trkpt>
<trkpt lat="46.30752" lon="7.65732"><ele>616.8</ele><time>2016-08-06T15:46:46Z</time></trkpt>
<trkpt lat="46.30754" lon="7.65718"><ele>616.8</ele><time>2016-08-06T15:46:48Z</time></trkpt>
<trkpt lat="46.30757" lon="7.65702"><ele>616.6</ele><time>2016-08-06T15:46:50Z</time></trkpt>
<trkpt lat="46.30759" lon="7.65685"><ele>616.6</ele><time>2016-08-06T15:46:52Z</time></trkpt>
<trkpt lat="46.30761" lon="7.65677"><ele>616.6</ele><time>2016-08-06T15:46:53Z</time></trkpt>
<trkpt lat="46.30762" lon="7.65669"><ele>616.8</ele><time>2016-08-06T15:46:54Z</time></trkpt>
<trkpt lat="46.30765" lon="7.65653"><ele>617</ele><time>2016-08-06T15:46:56Z</time></trkpt>
<trkpt lat="46.30767" lon="7.65638"><ele>617.2</ele><time>2016-08-06T15:46:58Z</time></trkpt>
<trkpt lat="46.30769" lon="7.65623"><ele>617.4</ele><time>2016-08-06T15:47:00Z</time></trkpt>
<trkpt lat="46.30772" lon="7.65607"><ele>617.8</ele><time>2016-08-06T15:47:02Z</time></trkpt>
<trkpt lat="46.30774" lon="7.65592"><ele>618</ele><time>2016-08-06T15:47:04Z</time></trkpt>
<trkpt lat="46.30775" lon="7.65585"><ele>618</ele><time>2016-08-06T15:47:05Z</time></trkpt>
<trkpt lat="46.30776" lon="7.65578"><ele>618.2</ele><time>2016-08-06T15:47:06Z</time></trkpt>
<trkpt lat="46.30778" lon="7.65565"><ele>618.2</ele><time>2016-08-06T15:47:08Z</time></trkpt>
<trkpt lat="46.3078" lon="7.65552"><ele>618.4</ele><time>2016-08-06T15:47:10Z</time></trkpt>
<trkpt lat="46.30781" lon="7.6554"><ele>618.6</ele><time>2016-08-06T15:47:12Z</time></trkpt>
<trkpt lat="46.30779" lon="7.65529"><ele>618.8</ele><time>2016-08-06T15:47:14Z</time></trkpt>
<trkpt lat="46.30781" lon="7.65517"><ele>618.8</ele><time>2016-08-06T15:47:16Z</time></trkpt>
<trkpt lat="46.30782" lon="7.65505"><ele>619</ele><time>2016-08-06T15:47:18Z</time></trkpt>
<trkpt lat="46.30783" lon="7.65498"><ele>619</ele><time>2016-08-06T15:47:19Z</time></trkpt>
<trkpt lat="46.30784" lon="7.65492"><ele>619.2</ele><time>2016-08-06T15:47:20Z</time></trkpt>
<trkpt lat="46.30785" lon="7.6548"><ele>619.2</ele><time>2016-08-06T15:47:22Z</time></trkpt>
<trkpt lat="46.30786" lon="7.65467"><ele>619.4</ele><time>2016-08-06T15:47:24Z</time></trkpt>
<trkpt lat="46.30787" lon="7.65455"><ele>619.6</ele><time>2016-08-06T15:47:26Z</time></trkpt>
<trkpt lat="46.30788" lon="7.65442"><ele>619.6</ele><time>2016-08-06T15:47:28Z</time></trkpt>
<trkpt lat="46.30789" lon="7.6543"><ele>619.8</ele><time>2016-08-06T15:47:30Z</time></trkpt>
<trkpt lat="46.30785" lon="7.6542"><ele>620</ele><time>2016-08-06T15:47:32Z</time></trkpt>
<trkpt lat="46.30782" lon="7.65409"><ele>620</ele><time>2016-08-06T15:47:34Z</time></trkpt>
<trkpt lat="46.30778" lon="7.65399"><ele>619.8</ele><time>2016-08-06T15:47:36Z</time></trkpt>
<trkpt lat="46.30775" lon="7.65389"><ele>619.8</ele><time>2016-08-06T15:47:38Z</time></trkpt>
<trkpt lat="46.30771" lon="7.65378"><ele>619.6</ele><time>2016-08-06T15:47:40Z</time></trkpt>
<trkpt lat="46.30768" lon="7.65368"><ele>620.2</ele><time>2016-08-06T15:47:42Z</time></trkpt>
<trkpt lat="46.30764" lon="7.6536"><ele>620.6</ele><time>2016-08-06T15:47:44Z</time></trkpt>
<trkpt lat="46.30761" lon="7.65352"><ele>621.2</ele><time>2016-08-06T15:47:46Z</time></trkpt>
<trkpt lat="46.30757" lon="7.65344"><ele>621.6</ele><time>2016-08-06T15:47:48Z</time></trkpt>
<trkpt lat="46.30753" lon="7.65336"><ele>622.2</ele><time>2016-08-06T15:47:50Z</time></trkpt>
<trkpt lat="46.3075" lon="7.65328"><ele>622.6</ele><time>2016-08-06T15:47:52Z</time></trkpt>
<trkpt lat="46.30746" lon="7.6532"><ele>623.2</ele><time>2016-08-06T15:47:54Z</time></trkpt>
<trkpt lat="46.30742" lon="7.65311"><ele>623.6</ele><time>2016-08-06T15:47:56Z</time></trkpt>
<trkpt lat="46.30741" lon="7.65302"><ele>623.6</ele><time>2016-08-06T15:47:58Z</time></trkpt>
<trkpt lat="46.3074" lon="7.65292"><ele>623.8</ele><time>2016-08-06T15:48:00Z</time></trkpt>
<trkpt lat="46.30738" lon="7.65282"><ele>623.8</ele><time>2016-08-06T15:48:02Z</time></trkpt>
<trkpt lat="46.30738" lon="7.65277"><ele>623.8</ele><time>2016-08-06T15:48:03Z</time></trkpt>
<trkpt lat="46.30741" lon="7.65273"><ele>623.8</ele><time>2016-08-06T15:48:04Z</time></trkpt>
<trkpt lat="46.30745" lon="7.65263"><ele>623.8</ele><time>2016-08-06T15:48:06Z</time></trkpt>
<trkpt lat="46.30753" lon="7.65256"><ele>624</ele><time>2016-08-06T15:48:08Z</time></trkpt>
<trkpt lat="46.30761" lon="7.65249"><ele>624</ele><time>2016-08-06T15:48:10Z</time></trkpt>
<trkpt lat="46.3077" lon="7.65241"><ele>624</ele><time>2016-08-06T15:48:12Z</time></trkpt>
<trkpt lat="46.30778" lon="7.65234"><ele>624.2</ele><time>2016-08-06T15:48:14Z</time></trkpt>
<trkpt lat="46.30786" lon="7.65227"><ele>624.2</ele><time>2016-08-06T15:48:16Z</time></trkpt>
<trkpt lat="46.30793" lon="7.65217"><ele>624.2</ele><time>2016-08-06T15:48:18Z</time></trkpt>
<trkpt lat="46.308" lon="7.65208"><ele>624.6</ele><time>2016-08-06T15:48:20Z</time></trkpt>
<trkpt lat="46.30807" lon="7.65198"><ele>624.8</ele><time>2016-08-06T15:48:22Z</time></trkpt>
<trkpt lat="46.30815" lon="7.65189"><ele>625.2</ele><time>2016-08-06T15:48:24Z</time></trkpt>
<trkpt lat="46.30822" lon="7.65179"><ele>625.4</ele><time>2016-08-06T15:48:26Z</time></trkpt>
<trkpt lat="46.30829" lon="7.6517"><ele>625.8</ele><time>2016-08-06T15:48:28Z</time></trkpt>
<trkpt lat="46.30836" lon="7.6516"><ele>626</ele><time>2016-08-06T15:48:30Z</time></trkpt>
<trkpt lat="46.30843" lon="7.6515"><ele>626.4</ele><time>2016-08-06T15:48:32Z</time></trkpt>
<trkpt lat="46.30849" lon="7.6514"><ele>626.8</ele><time>2016-08-06T15:48:34Z</time></trkpt>
<trkpt lat="46.30856" lon="7.6513"><ele>627</ele><time>2016-08-06T15:48:36Z</time></trkpt>
<trkpt lat="46.30861" lon="7.65117"><ele>627.4</ele><time>2016-08-06T15:48:38Z</time></trkpt>
<trkpt lat="46.30863" lon="7.65111"><ele>627.4</ele><time>2016-08-06T15:48:39Z</time></trkpt>
<trkpt lat="46.30865" lon="7.65104"><ele>627.2</ele><time>2016-08-06T15:48:40Z</time></trkpt>
<trkpt lat="46.3087" lon="7.65091"><ele>626.8</ele><time>2016-08-06T15:48:42Z</time></trkpt>
<trkpt lat="46.30873" lon="7.65085"><ele>626.6</ele><time>2016-08-06T15:48:43Z</time></trkpt>
<trkpt lat="46.30877" lon="7.65081"><ele>626.4</ele><time>2016-08-06T15:48:44Z</time></trkpt>
<trkpt lat="46.30882" lon="7.65077"><ele>626.2</ele><time>2016-08-06T15:48:45Z</time></trkpt>
<trkpt lat="46.30886" lon="7.65073"><ele>626</ele><time>2016-08-06T15:48:46Z</time></trkpt>
<trkpt lat="46.30894" lon="7.65064"><ele>625.8</ele><time>2016-08-06T15:48:48Z</time></trkpt>
<trkpt lat="46.30903" lon="7.65056"><ele>625.4</ele><time>2016-08-06T15:48:50Z</time></trkpt>
<trkpt lat="46.30909" lon="7.65044"><ele>625.2</ele><time>2016-08-06T15:48:52Z</time></trkpt>
<trkpt lat="46.30916" lon="7.65032"><ele>625</ele><time>2016-08-06T15:48:54Z</time></trkpt>
<trkpt lat="46.30923" lon="7.6502"><ele>624.6</ele><time>2016-08-06T15:48:56Z</time></trkpt>
<trkpt lat="46.30929" lon="7.65007"><ele>624.4</ele><time>2016-08-06T15:48:58Z</time></trkpt>
<trkpt lat="46.30933" lon="7.65001"><ele>624.2</ele><time>2016-08-06T15:48:59Z</time></trkpt>
<trkpt lat="46.30936" lon="7.64994"><ele>624</ele><time>2016-08-06T15:49:00Z</time></trkpt>
<trkpt lat="46.30943" lon="7.6498"><ele>623.8</ele><time>2016-08-06T15:49:02Z</time></trkpt>
<trkpt lat="46.30949" lon="7.64966"><ele>623.8</ele><time>2016-08-06T15:49:04Z</time></trkpt>
<trkpt lat="46.30956" lon="7.64952"><ele>623.6</ele><time>2016-08-06T15:49:06Z</time></trkpt>
<trkpt lat="46.30959" lon="7.64945"><ele>623.6</ele><time>2016-08-06T15:49:07Z</time></trkpt>
<trkpt lat="46.30961" lon="7.64938"><ele>623.6</ele><time>2016-08-06T15:49:08Z</time></trkpt>
<trkpt lat="46.30964" lon="7.64931"><ele>623.6</ele><time>2016-08-06T15:49:09Z</time></trkpt>
<trkpt lat="46.30967" lon="7.64925"><ele>623.6</ele><time>2016-08-06T15:49:10Z</time></trkpt>
<trkpt lat="46.30972" lon="7.64911"><ele>623.6</ele><time>2016-08-06T15:49:12Z</time></trkpt>
<trkpt lat="46.30978" lon="7.64898"><ele>623.8</ele><time>2016-08-06T15:49:14Z</time></trkpt>
<trkpt lat="46.30983" lon="7.64884"><ele>623.8</ele><time>2016-08-06T15:49:16Z</time></trkpt>
<trkpt lat="46.30989" lon="7.64869"><ele>624</ele><time>2016-08-06T15:49:18Z</time></trkpt>
<trkpt lat="46.30996" lon="7.64855"><ele>624</ele><time>2016-08-06T15:49:20Z</time></trkpt>
<trkpt lat="46.31002" lon="7.64841"><ele>624.2</ele><time>2016-08-06T15:49:22Z</time></trkpt>
<trkpt lat="46.31008" lon="7.64826"><ele>624.2</ele><time>2016-08-06T15:49:24Z</time></trkpt>
<trkpt lat="46.31015" lon="7.64811"><ele>624.4</ele><time>2016-08-06T15:49:26Z</time></trkpt>
<trkpt lat="46.31021" lon="7.64797"><ele>624.4</ele><time>2016-08-06T15:49:28Z</time></trkpt>
<trkpt lat="46.31027" lon="7.64782"><ele>624.6</ele><time>2016-08-06T15:49:30Z</time></trkpt>
<trkpt lat="46.31034" lon="7.64767"><ele>624.8</ele><time>2016-08-06T15:49:32Z</time></trkpt>
<trkpt lat="46.31038" lon="7.64753"><ele>624.8</ele><time>2016-08-06T15:49:34Z</time></trkpt>
<trkpt lat="46.31042" lon="7.64739"><ele>625</ele><time>2016-08-06T15:49:36Z</time></trkpt>
<trkpt lat="46.31046" lon="7.64725"><ele>625</ele><time>2016-08-06T15:49:38Z</time></trkpt>
<trkpt lat="46.3105" lon="7.64711"><ele>625.2</ele><time>2016-08-06T15:49:40Z</time></trkpt>
<trkpt lat="46.31052" lon="7.64704"><ele>625.2</ele><time>2016-08-06T15:49:41Z</time></trkpt>
<trkpt lat="46.31053" lon="7.64697"><ele>625.2</ele><time>2016-08-06T15:49:42Z</time></trkpt>
<trkpt lat="46.31055" lon="7.64684"><ele>625.4</ele><time>2016-08-06T15:49:44Z</time></trkpt>
<trkpt lat="46.31058" lon="7.64671"><ele>625.4</ele><time>2016-08-06T15:49:46Z</time></trkpt>
<trkpt lat="46.3106" lon="7.64658"><ele>625.6</ele><time>2016-08-06T15:49:48Z</time></trkpt>
<trkpt lat="46.31063" lon="7.64645"><ele>625.6</ele><time>2016-08-06T15:49:50Z</time></trkpt>
<trkpt lat="46.31064" lon="7.64639"><ele>625.6</ele><time>2016-08-06T15:49:51Z</time></trkpt>
<trkpt lat="46.31065" lon="7.64633"><ele>625.8</ele><time>2016-08-06T15:49:52Z</time></trkpt>
<trkpt lat="46.31066" lon="7.64622"><ele>625.8</ele><time>2016-08-06T15:49:54Z</time></trkpt>
<trkpt lat="46.31067" lon="7.64611"><ele>626</ele><time>2016-08-06T15:49:56Z</time></trkpt>
<trkpt lat="46.31068" lon="7.64599"><ele>626</ele><time>2016-08-06T15:49:58Z</time></trkpt>
<trkpt lat="46.3107" lon="7.64588"><ele>626.2</ele><time>2016-08-06T15:50:00Z</time></trkpt>
<trkpt lat="46.31071" lon="7.64577"><ele>626.2</ele><time>2016-08-06T15:50:02Z</time></trkpt>
<trkpt lat="46.31071" lon="7.64571"><ele>626.2</ele><time>2016-08-06T15:50:03Z</time></trkpt>
<trkpt lat="46.31071" lon="7.64566"><ele>626.4</ele><time>2016-08-06T15:50:04Z</time></trkpt>
<trkpt lat="46.31072" lon="7.64556"><ele>626.4</ele><time>2016-08-06T15:50:06Z</time></trkpt>
<trkpt lat="46.31072" lon="7.64546"><ele>626.6</ele><time>2016-08-06T15:50:08Z</time></trkpt>
<trkpt lat="46.31072" lon="7.64536"><ele>626.6</ele><time>2016-08-06T15:50:10Z</time></trkpt>
<trkpt lat="46.31072" lon="7.64526"><ele>626.8</ele><time>2016-08-06T15:50:12Z</time></trkpt>
<trkpt lat="46.31073" lon="7.64516"><ele>626.8</ele><time>2016-08-06T15:50:14Z</time></trkpt>
<trkpt lat="46.31073" lon="7.64511"><ele>626.8</ele><time>2016-08-06T15:50:15Z</time></trkpt>
<trkpt lat="46.31073" lon="7.64505"><ele>626.8</ele><time>2016-08-06T15:50:16Z</time></trkpt>
<trkpt lat="46.31073" lon="7.64493"><ele>626.6</ele><time>2016-08-06T15:50:18Z</time></trkpt>
<trkpt lat="46.31073" lon="7.64481"><ele>626.4</ele><time>2016-08-06T15:50:20Z</time></trkpt>
<trkpt lat="46.31072" lon="7.64468"><ele>626.2</ele><time>2016-08-06T15:50:22Z</time></trkpt>
<trkpt lat="46.31072" lon="7.64456"><ele>626</ele><time>2016-08-06T15:50:24Z</time></trkpt>
<trkpt lat="46.31072" lon="7.64444"><ele>625.8</ele><time>2016-08-06T15:50:26Z</time></trkpt>
<trkpt lat="46.31072" lon="7.64438"><ele>625.8</ele><time>2016-08-06T15:50:27Z</time></trkpt>
<trkpt lat="46.31073" lon="7.64432"><ele>625.6</ele><time>2016-08-06T15:50:28Z</time></trkpt>
<trkpt lat="46.31074" lon="7.6442"><ele>625.6</ele><time>2016-08-06T15:50:30Z</time></trkpt>
<trkpt lat="46.31075" lon="7.64409"><ele>625.4</ele><time>2016-08-06T15:50:32Z</time></trkpt>
<trkpt lat="46.31075" lon="7.644"><ele>625.2</ele><time>2016-08-06T15:50:34Z</time></trkpt>
<trkpt lat="46.31076" lon="7.64391"><ele>625</ele><time>2016-08-06T15:50:36Z</time></trkpt>
<trkpt lat="46.31076" lon="7.64381"><ele>624.8</ele><time>2016-08-06T15:50:38Z</time></trkpt>
<trkpt lat="46.31077" lon="7.64372"><ele>624.6</ele><time>2016-08-06T15:50:40Z</time></trkpt>
<trkpt lat="46.31077" lon="7.64363"><ele>624.4</ele><time>2016-08-06T15:50:42Z</time></trkpt>
<trkpt lat="46.31078" lon="7.64354"><ele>624.2</ele><time>2016-08-06T15:50:44Z</time></trkpt>
<trkpt lat="46.31078" lon="7.64344"><ele>624</ele><time>2016-08-06T15:50:46Z</time></trkpt>
<trkpt lat="46.31079" lon="7.6434"><ele>624</ele><time>2016-08-06T15:50:47Z</time></trkpt>
<trkpt lat="46.31083" lon="7.64338"><ele>623.8</ele><time>2016-08-06T15:50:48Z</time></trkpt>
<trkpt lat="46.31093" lon="7.64345"><ele>623.6</ele><time>2016-08-06T15:50:50Z</time></trkpt>
<trkpt lat="46.31099" lon="7.64347"><ele>623.6</ele><time>2016-08-06T15:50:51Z</time></trkpt>
<trkpt lat="46.31105" lon="7.64346"><ele>623.4</ele><time>2016-08-06T15:50:52Z</time></trkpt>
<trkpt lat="46.31117" lon="7.64345"><ele>623.4</ele><time>2016-08-06T15:50:54Z</time></trkpt>
<trkpt lat="46.3113" lon="7.64344"><ele>623.2</ele><time>2016-08-06T15:50:56Z</time></trkpt>
<trkpt lat="46.31142" lon="7.64342"><ele>623</ele><time>2016-08-06T15:50:58Z</time></trkpt>
<trkpt lat="46.31148" lon="7.64342"><ele>622.8</ele><time>2016-08-06T15:50:59Z</time></trkpt>
<trkpt lat="46.31152" lon="7.64343"><ele>622.6</ele><time>2016-08-06T15:51:00Z</time></trkpt>
<trkpt lat="46.31159" lon="7.64344"><ele>621.6</ele><time>2016-08-06T15:51:02Z</time></trkpt>
<trkpt lat="46.31167" lon="7.64345"><ele>620.6</ele><time>2016-08-06T15:51:04Z</time></trkpt>
<trkpt lat="46.31171" lon="7.64346"><ele>620.2</ele><time>2016-08-06T15:51:05Z</time></trkpt>
<trkpt lat="46.31174" lon="7.64346"><ele>620.2</ele><time>2016-08-06T15:51:06Z</time></trkpt>
<trkpt lat="46.31182" lon="7.64348"><ele>620</ele><time>2016-08-06T15:51:08Z</time></trkpt>
<trkpt lat="46.31189" lon="7.64349"><ele>619.8</ele><time>2016-08-06T15:51:10Z</time></trkpt>
<trkpt lat="46.31192" lon="7.64349"><ele>619.6</ele><time>2016-08-06T15:51:11Z</time></trkpt>
<trkpt lat="46.31189" lon="7.64337"><ele>620.6</ele><time>2016-08-06T15:51:13Z</time></trkpt>
<trkpt lat="46.31189" lon="7.64337"><ele>620.6</ele><time>2016-08-06T15:55:28Z</time></trkpt>
<trkpt lat="46.31187" lon="7.64324"><ele>621.8</ele><time>2016-08-06T15:55:30Z</time></trkpt>
<trkpt lat="46.31185" lon="7.64325"><ele>621.8</ele><time>2016-08-06T15:55:32Z</time></trkpt>
<trkpt lat="46.31183" lon="7.64325"><ele>621.8</ele><time>2016-08-06T15:55:34Z</time></trkpt>
<trkpt lat="46.31182" lon="7.64325"><ele>621.8</ele><time>2016-08-06T15:55:36Z</time></trkpt>
<trkpt lat="46.3118" lon="7.64326"><ele>621.8</ele><time>2016-08-06T15:55:38Z</time></trkpt>
<trkpt lat="46.31179" lon="7.64326"><ele>622</ele><time>2016-08-06T15:55:40Z</time></trkpt>
<trkpt lat="46.31177" lon="7.64326"><ele>622</ele><time>2016-08-06T15:55:42Z</time></trkpt>
<trkpt lat="46.31176" lon="7.64326"><ele>622</ele><time>2016-08-06T15:55:44Z</time></trkpt>
<trkpt lat="46.31178" lon="7.64319"><ele>622</ele><time>2016-08-06T15:55:46Z</time></trkpt>
<trkpt lat="46.3118" lon="7.64313"><ele>622</ele><time>2016-08-06T15:55:48Z</time></trkpt>
<trkpt lat="46.31181" lon="7.64306"><ele>622</ele><time>2016-08-06T15:55:50Z</time></trkpt>
<trkpt lat="46.31182" lon="7.64296"><ele>622</ele><time>2016-08-06T15:55:52Z</time></trkpt>
<trkpt lat="46.31182" lon="7.6429"><ele>622</ele><time>2016-08-06T15:55:53Z</time></trkpt>
<trkpt lat="46.31183" lon="7.64285"><ele>622</ele><time>2016-08-06T15:55:54Z</time></trkpt>
<trkpt lat="46.31183" lon="7.64275"><ele>622</ele><time>2016-08-06T15:55:56Z</time></trkpt>
<trkpt lat="46.31184" lon="7.64265"><ele>622</ele><time>2016-08-06T15:55:58Z</time></trkpt>
<trkpt lat="46.31184" lon="7.64254"><ele>622</ele><time>2016-08-06T15:56:00Z</time></trkpt>
<trkpt lat="46.31185" lon="7.64244"><ele>622</ele><time>2016-08-06T15:56:02Z</time></trkpt>
<trkpt lat="46.31185" lon="7.64239"><ele>622</ele><time>2016-08-06T15:56:03Z</time></trkpt>
<trkpt lat="46.31185" lon="7.64234"><ele>622</ele><time>2016-08-06T15:56:04Z</time></trkpt>
<trkpt lat="46.31185" lon="7.64223"><ele>622</ele><time>2016-08-06T15:56:06Z</time></trkpt>
<trkpt lat="46.31184" lon="7.64213"><ele>621.8</ele><time>2016-08-06T15:56:08Z</time></trkpt>
<trkpt lat="46.31184" lon="7.64203"><ele>621.8</ele><time>2016-08-06T15:56:10Z</time></trkpt>
<trkpt lat="46.31184" lon="7.64192"><ele>621.8</ele><time>2016-08-06T15:56:12Z</time></trkpt>
<trkpt lat="46.31184" lon="7.64182"><ele>622</ele><time>2016-08-06T15:56:14Z</time></trkpt>
<trkpt lat="46.31183" lon="7.64172"><ele>622</ele><time>2016-08-06T15:56:16Z</time></trkpt>
<trkpt lat="46.31181" lon="7.64165"><ele>622</ele><time>2016-08-06T15:56:18Z</time></trkpt>
<trkpt lat="46.31178" lon="7.64158"><ele>622</ele><time>2016-08-06T15:56:20Z</time></trkpt>
<trkpt lat="46.31178" lon="7.64155"><ele>622</ele><time>2016-08-06T15:56:21Z</time></trkpt>
<trkpt lat="46.3118" lon="7.64149"><ele>622</ele><time>2016-08-06T15:56:22Z</time></trkpt>
<trkpt lat="46.31184" lon="7.64139"><ele>622</ele><time>2016-08-06T15:56:24Z</time></trkpt>
<trkpt lat="46.31188" lon="7.64128"><ele>622.2</ele><time>2016-08-06T15:56:26Z</time></trkpt>
<trkpt lat="46.31192" lon="7.64117"><ele>622.2</ele><time>2016-08-06T15:56:28Z</time></trkpt>
<trkpt lat="46.31194" lon="7.64111"><ele>622.2</ele><time>2016-08-06T15:56:29Z</time></trkpt>
<trkpt lat="46.31194" lon="7.64105"><ele>622.2</ele><time>2016-08-06T15:56:30Z</time></trkpt>
<trkpt lat="46.31194" lon="7.64091"><ele>622.2</ele><time>2016-08-06T15:56:32Z</time></trkpt>
<trkpt lat="46.31194" lon="7.64078"><ele>622.2</ele><time>2016-08-06T15:56:34Z</time></trkpt>
<trkpt lat="46.31194" lon="7.64064"><ele>622.2</ele><time>2016-08-06T15:56:36Z</time></trkpt>
<trkpt lat="46.31194" lon="7.64058"><ele>622.2</ele><time>2016-08-06T15:56:37Z</time></trkpt>
<trkpt lat="46.31195" lon="7.64052"><ele>622.4</ele><time>2016-08-06T15:56:38Z</time></trkpt>
<trkpt lat="46.31198" lon="7.64041"><ele>622.4</ele><time>2016-08-06T15:56:40Z</time></trkpt>
<trkpt lat="46.312" lon="7.64029"><ele>622.4</ele><time>2016-08-06T15:56:42Z</time></trkpt>
<trkpt lat="46.31199" lon="7.64018"><ele>622.4</ele><time>2016-08-06T15:56:44Z</time></trkpt>
<trkpt lat="46.31199" lon="7.64013"><ele>622.4</ele><time>2016-08-06T15:56:45Z</time></trkpt>
<trkpt lat="46.31201" lon="7.64008"><ele>622.4</ele><time>2016-08-06T15:56:46Z</time></trkpt>
<trkpt lat="46.31205" lon="7.63997"><ele>622.4</ele><time>2016-08-06T15:56:48Z</time></trkpt>
<trkpt lat="46.31212" lon="7.63987"><ele>622.4</ele><time>2016-08-06T15:56:50Z</time></trkpt>
<trkpt lat="46.31215" lon="7.63981"><ele>622.6</ele><time>2016-08-06T15:56:51Z</time></trkpt>
<trkpt lat="46.31216" lon="7.63975"><ele>622.6</ele><time>2016-08-06T15:56:52Z</time></trkpt>
<trkpt lat="46.31216" lon="7.63968"><ele>622.6</ele><time>2016-08-06T15:56:53Z</time></trkpt>
<trkpt lat="46.31214" lon="7.63961"><ele>622.6</ele><time>2016-08-06T15:56:54Z</time></trkpt>
<trkpt lat="46.31211" lon="7.63955"><ele>622.6</ele><time>2016-08-06T15:56:55Z</time></trkpt>
<trkpt lat="46.31205" lon="7.63952"><ele>622.6</ele><time>2016-08-06T15:56:56Z</time></trkpt>
<trkpt lat="46.31201" lon="7.63947"><ele>622.6</ele><time>2016-08-06T15:56:57Z</time></trkpt>
<trkpt lat="46.31198" lon="7.63941"><ele>622.6</ele><time>2016-08-06T15:56:58Z</time></trkpt>
<trkpt lat="46.31193" lon="7.63927"><ele>622.6</ele><time>2016-08-06T15:57:00Z</time></trkpt>
<trkpt lat="46.31193" lon="7.63911"><ele>622.6</ele><time>2016-08-06T15:57:02Z</time></trkpt>
<trkpt lat="46.31193" lon="7.63903"><ele>622.6</ele><time>2016-08-06T15:57:03Z</time></trkpt>
<trkpt lat="46.31195" lon="7.63896"><ele>622.8</ele><time>2016-08-06T15:57:04Z</time></trkpt>
<trkpt lat="46.31197" lon="7.63881"><ele>622.8</ele><time>2016-08-06T15:57:06Z</time></trkpt>
<trkpt lat="46.312" lon="7.63866"><ele>622.8</ele><time>2016-08-06T15:57:08Z</time></trkpt>
<trkpt lat="46.31203" lon="7.63852"><ele>622.8</ele><time>2016-08-06T15:57:10Z</time></trkpt>
<trkpt lat="46.31206" lon="7.63838"><ele>622.8</ele><time>2016-08-06T15:57:12Z</time></trkpt>
<trkpt lat="46.31209" lon="7.6383"><ele>622.8</ele><time>2016-08-06T15:57:14Z</time></trkpt>
<trkpt lat="46.31213" lon="7.63822"><ele>622.8</ele><time>2016-08-06T15:57:16Z</time></trkpt>
<trkpt lat="46.31217" lon="7.63814"><ele>623</ele><time>2016-08-06T15:57:18Z</time></trkpt>
<trkpt lat="46.3122" lon="7.63806"><ele>623</ele><time>2016-08-06T15:57:20Z</time></trkpt>
<trkpt lat="46.31224" lon="7.63799"><ele>623</ele><time>2016-08-06T15:57:22Z</time></trkpt>
<trkpt lat="46.31228" lon="7.63791"><ele>623</ele><time>2016-08-06T15:57:24Z</time></trkpt>
<trkpt lat="46.31231" lon="7.63783"><ele>623</ele><time>2016-08-06T15:57:26Z</time></trkpt>
<trkpt lat="46.31234" lon="7.63777"><ele>623</ele><time>2016-08-06T15:57:28Z</time></trkpt>
<trkpt lat="46.31237" lon="7.63771"><ele>623.2</ele><time>2016-08-06T15:57:30Z</time></trkpt>
<trkpt lat="46.3124" lon="7.63765"><ele>623.2</ele><time>2016-08-06T15:57:32Z</time></trkpt>
<trkpt lat="46.31243" lon="7.6376"><ele>623.2</ele><time>2016-08-06T15:57:34Z</time></trkpt>
<trkpt lat="46.31246" lon="7.63754"><ele>623.2</ele><time>2016-08-06T15:57:36Z</time></trkpt>
<trkpt lat="46.31249" lon="7.63748"><ele>623.2</ele><time>2016-08-06T15:57:38Z</time></trkpt>
<trkpt lat="46.31252" lon="7.63742"><ele>623.4</ele><time>2016-08-06T15:57:40Z</time></trkpt>
<trkpt lat="46.31255" lon="7.63736"><ele>623.6</ele><time>2016-08-06T15:57:42Z</time></trkpt>
<trkpt lat="46.31257" lon="7.6373"><ele>623.8</ele><time>2016-08-06T15:57:44Z</time></trkpt>
<trkpt lat="46.3126" lon="7.63726"><ele>624.2</ele><time>2016-08-06T15:57:46Z</time></trkpt>
<trkpt lat="46.31262" lon="7.63721"><ele>624.4</ele><time>2016-08-06T15:57:48Z</time></trkpt>
<trkpt lat="46.31264" lon="7.63716"><ele>624.8</ele><time>2016-08-06T15:57:50Z</time></trkpt>
<trkpt lat="46.31265" lon="7.63714"><ele>624.8</ele><time>2016-08-06T15:57:51Z</time></trkpt>
<trkpt lat="46.31266" lon="7.63712"><ele>625.2</ele><time>2016-08-06T15:57:52Z</time></trkpt>
<trkpt lat="46.31268" lon="7.63707"><ele>625.6</ele><time>2016-08-06T15:57:54Z</time></trkpt>
<trkpt lat="46.3127" lon="7.63702"><ele>626</ele><time>2016-08-06T15:57:56Z</time></trkpt>
<trkpt lat="46.31271" lon="7.637"><ele>626.2</ele><time>2016-08-06T15:57:57Z</time></trkpt>
<trkpt lat="46.31272" lon="7.63698"><ele>626.4</ele><time>2016-08-06T15:57:58Z</time></trkpt>
<trkpt lat="46.31274" lon="7.63693"><ele>626.8</ele><time>2016-08-06T15:58:00Z</time></trkpt>
<trkpt lat="46.31277" lon="7.63688"><ele>627.2</ele><time>2016-08-06T15:58:02Z</time></trkpt>
<trkpt lat="46.31279" lon="7.63684"><ele>627.6</ele><time>2016-08-06T15:58:04Z</time></trkpt>
<trkpt lat="46.31281" lon="7.63679"><ele>628</ele><time>2016-08-06T15:58:06Z</time></trkpt>
<trkpt lat="46.31283" lon="7.63674"><ele>628.2</ele><time>2016-08-06T15:58:08Z</time></trkpt>
<trkpt lat="46.31284" lon="7.63668"><ele>628.6</ele><time>2016-08-06T15:58:10Z</time></trkpt>
<trkpt lat="46.31285" lon="7.63662"><ele>629</ele><time>2016-08-06T15:58:12Z</time></trkpt>
<trkpt lat="46.31286" lon="7.63656"><ele>629.4</ele><time>2016-08-06T15:58:14Z</time></trkpt>
<trkpt lat="46.31287" lon="7.63654"><ele>629.6</ele><time>2016-08-06T15:58:15Z</time></trkpt>
<trkpt lat="46.31287" lon="7.63651"><ele>629.6</ele><time>2016-08-06T15:58:16Z</time></trkpt>
<trkpt lat="46.31288" lon="7.63645"><ele>630</ele><time>2016-08-06T15:58:18Z</time></trkpt>
<trkpt lat="46.31289" lon="7.63639"><ele>630.4</ele><time>2016-08-06T15:58:20Z</time></trkpt>
<trkpt lat="46.3129" lon="7.63633"><ele>630.8</ele><time>2016-08-06T15:58:22Z</time></trkpt>
<trkpt lat="46.31291" lon="7.63627"><ele>631</ele><time>2016-08-06T15:58:24Z</time></trkpt>
<trkpt lat="46.31292" lon="7.63621"><ele>631.4</ele><time>2016-08-06T15:58:26Z</time></trkpt>
<trkpt lat="46.31293" lon="7.63615"><ele>631.8</ele><time>2016-08-06T15:58:28Z</time></trkpt>
<trkpt lat="46.31294" lon="7.63609"><ele>632.2</ele><time>2016-08-06T15:58:30Z</time></trkpt>
<trkpt lat="46.31294" lon="7.63603"><ele>632.4</ele><time>2016-08-06T15:58:32Z</time></trkpt>
<trkpt lat="46.31294" lon="7.63597"><ele>632.8</ele><time>2016-08-06T15:58:34Z</time></trkpt>
<trkpt lat="46.31293" lon="7.63591"><ele>633.2</ele><time>2016-08-06T15:58:36Z</time></trkpt>
<trkpt lat="46.31293" lon="7.63585"><ele>633.6</ele><time>2016-08-06T15:58:38Z</time></trkpt>
<trkpt lat="46.31293" lon="7.63579"><ele>634.2</ele><time>2016-08-06T15:58:40Z</time></trkpt>
<trkpt lat="46.31292" lon="7.63573"><ele>634.8</ele><time>2016-08-06T15:58:42Z</time></trkpt>
<trkpt lat="46.31292" lon="7.63567"><ele>635.4</ele><time>2016-08-06T15:58:44Z</time></trkpt>
<trkpt lat="46.31292" lon="7.6356"><ele>636</ele><time>2016-08-06T15:58:46Z</time></trkpt>
<trkpt lat="46.31291" lon="7.63554"><ele>636.6</ele><time>2016-08-06T15:58:48Z</time></trkpt>
<trkpt lat="46.31291" lon="7.63548"><ele>637.2</ele><time>2016-08-06T15:58:50Z</time></trkpt>
<trkpt lat="46.31291" lon="7.63542"><ele>637.6</ele><time>2016-08-06T15:58:52Z</time></trkpt>
<trkpt lat="46.3129" lon="7.63536"><ele>638.2</ele><time>2016-08-06T15:58:54Z</time></trkpt>
<trkpt lat="46.31287" lon="7.6349"><ele>641.2</ele><time>2016-08-06T15:59:10Z</time></trkpt>
<trkpt lat="46.31286" lon="7.63478"><ele>642.4</ele><time>2016-08-06T15:59:14Z</time></trkpt>
<trkpt lat="46.31286" lon="7.63475"><ele>642.6</ele><time>2016-08-06T15:59:15Z</time></trkpt>
<trkpt lat="46.31286" lon="7.63473"><ele>642.8</ele><time>2016-08-06T15:59:16Z</time></trkpt>
<trkpt lat="46.31287" lon="7.63467"><ele>643.4</ele><time>2016-08-06T15:59:18Z</time></trkpt>
<trkpt lat="46.31288" lon="7.63462"><ele>644</ele><time>2016-08-06T15:59:20Z</time></trkpt>
<trkpt lat="46.31289" lon="7.63456"><ele>644.6</ele><time>2016-08-06T15:59:22Z</time></trkpt>
<trkpt lat="46.31289" lon="7.63451"><ele>645.2</ele><time>2016-08-06T15:59:24Z</time></trkpt>
<trkpt lat="46.3129" lon="7.63445"><ele>645.8</ele><time>2016-08-06T15:59:26Z</time></trkpt>
<trkpt lat="46.31291" lon="7.6344"><ele>646.4</ele><time>2016-08-06T15:59:28Z</time></trkpt>
<trkpt lat="46.31292" lon="7.63435"><ele>647</ele><time>2016-08-06T15:59:30Z</time></trkpt>
<trkpt lat="46.31296" lon="7.63433"><ele>647.6</ele><time>2016-08-06T15:59:32Z</time></trkpt>
<trkpt lat="46.313" lon="7.63431"><ele>647.6</ele><time>2016-08-06T15:59:34Z</time></trkpt>
<trkpt lat="46.31304" lon="7.63429"><ele>647.6</ele><time>2016-08-06T15:59:36Z</time></trkpt>
<trkpt lat="46.31308" lon="7.63427"><ele>647.6</ele><time>2016-08-06T15:59:38Z</time></trkpt>
<trkpt lat="46.31312" lon="7.63425"><ele>647.8</ele><time>2016-08-06T15:59:40Z</time></trkpt>
<trkpt lat="46.31316" lon="7.63424"><ele>648</ele><time>2016-08-06T15:59:42Z</time></trkpt>
<trkpt lat="46.3132" lon="7.63422"><ele>648.4</ele><time>2016-08-06T15:59:44Z</time></trkpt>
<trkpt lat="46.31324" lon="7.6342"><ele>648.6</ele><time>2016-08-06T15:59:46Z</time></trkpt>
<trkpt lat="46.31328" lon="7.63418"><ele>648.8</ele><time>2016-08-06T15:59:48Z</time></trkpt>
<trkpt lat="46.31332" lon="7.63416"><ele>649.2</ele><time>2016-08-06T15:59:50Z</time></trkpt>
<trkpt lat="46.31336" lon="7.63414"><ele>649.4</ele><time>2016-08-06T15:59:52Z</time></trkpt>
<trkpt lat="46.31339" lon="7.63412"><ele>649.6</ele><time>2016-08-06T15:59:54Z</time></trkpt>
<trkpt lat="46.31343" lon="7.63411"><ele>649.8</ele><time>2016-08-06T15:59:56Z</time></trkpt>
<trkpt lat="46.31346" lon="7.63409"><ele>650</ele><time>2016-08-06T15:59:58Z</time></trkpt>
<trkpt lat="46.3135" lon="7.63408"><ele>650.2</ele><time>2016-08-06T16:00:00Z</time></trkpt>
<trkpt lat="46.31354" lon="7.63406"><ele>650.4</ele><time>2016-08-06T16:00:02Z</time></trkpt>
<trkpt lat="46.31357" lon="7.63405"><ele>650.6</ele><time>2016-08-06T16:00:04Z</time></trkpt>
<trkpt lat="46.31361" lon="7.63403"><ele>651</ele><time>2016-08-06T16:00:06Z</time></trkpt>
<trkpt lat="46.31364" lon="7.63402"><ele>651.2</ele><time>2016-08-06T16:00:08Z</time></trkpt>
<trkpt lat="46.31368" lon="7.634"><ele>651.4</ele><time>2016-08-06T16:00:10Z</time></trkpt>
<trkpt lat="46.31372" lon="7.63399"><ele>651.8</ele><time>2016-08-06T16:00:12Z</time></trkpt>
<trkpt lat="46.31375" lon="7.63397"><ele>652</ele><time>2016-08-06T16:00:14Z</time></trkpt>
<trkpt lat="46.31379" lon="7.63396"><ele>652.2</ele><time>2016-08-06T16:00:16Z</time></trkpt>
<trkpt lat="46.31382" lon="7.63392"><ele>652.6</ele><time>2016-08-06T16:00:18Z</time></trkpt>
<trkpt lat="46.31385" lon="7.63388"><ele>652.8</ele><time>2016-08-06T16:00:20Z</time></trkpt>
<trkpt lat="46.31388" lon="7.63384"><ele>653.2</ele><time>2016-08-06T16:00:22Z</time></trkpt>
<trkpt lat="46.3139" lon="7.6338"><ele>653.6</ele><time>2016-08-06T16:00:24Z</time></trkpt>
<trkpt lat="46.31393" lon="7.63376"><ele>654</ele><time>2016-08-06T16:00:26Z</time></trkpt>
<trkpt lat="46.31395" lon="7.63374"><ele>654.2</ele><time>2016-08-06T16:00:27Z</time></trkpt>
<trkpt lat="46.31396" lon="7.63372"><ele>654.4</ele><time>2016-08-06T16:00:28Z</time></trkpt>
<trkpt lat="46.31399" lon="7.63368"><ele>655</ele><time>2016-08-06T16:00:30Z</time></trkpt>
<trkpt lat="46.31402" lon="7.63364"><ele>655.6</ele><time>2016-08-06T16:00:32Z</time></trkpt>
<trkpt lat="46.31405" lon="7.6336"><ele>656.2</ele><time>2016-08-06T16:00:34Z</time></trkpt>
<trkpt lat="46.31408" lon="7.63357"><ele>656.8</ele><time>2016-08-06T16:00:36Z</time></trkpt>
<trkpt lat="46.31411" lon="7.63353"><ele>657.4</ele><time>2016-08-06T16:00:38Z</time></trkpt>
<trkpt lat="46.31412" lon="7.6335"><ele>657.4</ele><time>2016-08-06T16:00:39Z</time></trkpt>
<trkpt lat="46.31412" lon="7.63348"><ele>657.6</ele><time>2016-08-06T16:00:40Z</time></trkpt>
<trkpt lat="46.31412" lon="7.63342"><ele>658</ele><time>2016-08-06T16:00:42Z</time></trkpt>
<trkpt lat="46.31413" lon="7.63336"><ele>658.4</ele><time>2016-08-06T16:00:44Z</time></trkpt>
<trkpt lat="46.31413" lon="7.6333"><ele>658.6</ele><time>2016-08-06T16:00:46Z</time></trkpt>
<trkpt lat="46.31413" lon="7.63324"><ele>659</ele><time>2016-08-06T16:00:48Z</time></trkpt>
<trkpt lat="46.31414" lon="7.63315"><ele>659.4</ele><time>2016-08-06T16:00:51Z</time></trkpt>
<trkpt lat="46.31415" lon="7.63289"><ele>661</ele><time>2016-08-06T16:01:00Z</time></trkpt>
<trkpt lat="46.31415" lon="7.63284"><ele>661.6</ele><time>2016-08-06T16:01:02Z</time></trkpt>
<trkpt lat="46.31425" lon="7.63262"><ele>664</ele><time>2016-08-06T16:01:12Z</time></trkpt>
<trkpt lat="46.31427" lon="7.63258"><ele>664.6</ele><time>2016-08-06T16:01:14Z</time></trkpt>
<trkpt lat="46.31428" lon="7.63254"><ele>665.2</ele><time>2016-08-06T16:01:16Z</time></trkpt>
<trkpt lat="46.3143" lon="7.6325"><ele>665.6</ele><time>2016-08-06T16:01:18Z</time></trkpt>
<trkpt lat="46.31432" lon="7.63245"><ele>666.2</ele><time>2016-08-06T16:01:20Z</time></trkpt>
<trkpt lat="46.31433" lon="7.63243"><ele>666.4</ele><time>2016-08-06T16:01:21Z</time></trkpt>
<trkpt lat="46.31434" lon="7.63241"><ele>666.4</ele><time>2016-08-06T16:01:22Z</time></trkpt>
<trkpt lat="46.31436" lon="7.63237"><ele>666.6</ele><time>2016-08-06T16:01:24Z</time></trkpt>
<trkpt lat="46.31437" lon="7.63236"><ele>666.8</ele><time>2016-08-06T16:01:25Z</time></trkpt>
<trkpt lat="46.31439" lon="7.63236"><ele>666.8</ele><time>2016-08-06T16:01:26Z</time></trkpt>
<trkpt lat="46.31443" lon="7.63238"><ele>667.2</ele><time>2016-08-06T16:01:28Z</time></trkpt>
<trkpt lat="46.31447" lon="7.6324"><ele>667.4</ele><time>2016-08-06T16:01:30Z</time></trkpt>
<trkpt lat="46.31451" lon="7.63242"><ele>667.6</ele><time>2016-08-06T16:01:32Z</time></trkpt>
<trkpt lat="46.31455" lon="7.63244"><ele>667.8</ele><time>2016-08-06T16:01:34Z</time></trkpt>
<trkpt lat="46.31459" lon="7.63246"><ele>668</ele><time>2016-08-06T16:01:36Z</time></trkpt>
<trkpt lat="46.31461" lon="7.63247"><ele>668.2</ele><time>2016-08-06T16:01:37Z</time></trkpt>
<trkpt lat="46.31463" lon="7.63248"><ele>668.4</ele><time>2016-08-06T16:01:38Z</time></trkpt>
<trkpt lat="46.31467" lon="7.6325"><ele>669</ele><time>2016-08-06T16:01:40Z</time></trkpt>
<trkpt lat="46.31471" lon="7.63252"><ele>669.6</ele><time>2016-08-06T16:01:42Z</time></trkpt>
<trkpt lat="46.31473" lon="7.63253"><ele>669.8</ele><time>2016-08-06T16:01:43Z</time></trkpt>
<trkpt lat="46.31475" lon="7.63254"><ele>670</ele><time>2016-08-06T16:01:44Z</time></trkpt>
<trkpt lat="46.31479" lon="7.63256"><ele>670.4</ele><time>2016-08-06T16:01:46Z</time></trkpt>
<trkpt lat="46.31481" lon="7.63257"><ele>670.6</ele><time>2016-08-06T16:01:47Z</time></trkpt>
<trkpt lat="46.31483" lon="7.63257"><ele>670.8</ele><time>2016-08-06T16:01:48Z</time></trkpt>
<trkpt lat="46.31487" lon="7.63259"><ele>671</ele><time>2016-08-06T16:01:50Z</time></trkpt>
<trkpt lat="46.31492" lon="7.63261"><ele>671.4</ele><time>2016-08-06T16:01:52Z</time></trkpt>
<trkpt lat="46.31496" lon="7.63262"><ele>671.8</ele><time>2016-08-06T16:01:54Z</time></trkpt>
<trkpt lat="46.315" lon="7.63264"><ele>672.2</ele><time>2016-08-06T16:01:56Z</time></trkpt>
<trkpt lat="46.31504" lon="7.63266"><ele>672.6</ele><time>2016-08-06T16:01:58Z</time></trkpt>
<trkpt lat="46.31506" lon="7.63267"><ele>672.8</ele><time>2016-08-06T16:01:59Z</time></trkpt>
<trkpt lat="46.31508" lon="7.63267"><ele>672.8</ele><time>2016-08-06T16:02:00Z</time></trkpt>
<trkpt lat="46.31512" lon="7.63269"><ele>673</ele><time>2016-08-06T16:02:02Z</time></trkpt>
<trkpt lat="46.31516" lon="7.63271"><ele>673.2</ele><time>2016-08-06T16:02:04Z</time></trkpt>
<trkpt lat="46.3152" lon="7.63272"><ele>673.4</ele><time>2016-08-06T16:02:06Z</time></trkpt>
<trkpt lat="46.31525" lon="7.63274"><ele>673.6</ele><time>2016-08-06T16:02:08Z</time></trkpt>
<trkpt lat="46.31527" lon="7.63275"><ele>673.6</ele><time>2016-08-06T16:02:09Z</time></trkpt>
<trkpt lat="46.31529" lon="7.63274"><ele>673.8</ele><time>2016-08-06T16:02:10Z</time></trkpt>
<trkpt lat="46.31532" lon="7.63273"><ele>674</ele><time>2016-08-06T16:02:12Z</time></trkpt>
<trkpt lat="46.31536" lon="7.63272"><ele>674.2</ele><time>2016-08-06T16:02:14Z</time></trkpt>
<trkpt lat="46.3154" lon="7.6327"><ele>674.4</ele><time>2016-08-06T16:02:16Z</time></trkpt>
<trkpt lat="46.31544" lon="7.63269"><ele>674.8</ele><time>2016-08-06T16:02:18Z</time></trkpt>
<trkpt lat="46.31548" lon="7.63268"><ele>675.2</ele><time>2016-08-06T16:02:20Z</time></trkpt>
<trkpt lat="46.31552" lon="7.63267"><ele>675.6</ele><time>2016-08-06T16:02:22Z</time></trkpt>
<trkpt lat="46.31556" lon="7.63266"><ele>676</ele><time>2016-08-06T16:02:24Z</time></trkpt>
<trkpt lat="46.3156" lon="7.63264"><ele>676.4</ele><time>2016-08-06T16:02:26Z</time></trkpt>
<trkpt lat="46.31564" lon="7.63263"><ele>676.8</ele><time>2016-08-06T16:02:28Z</time></trkpt>
<trkpt lat="46.31567" lon="7.63262"><ele>677.8</ele><time>2016-08-06T16:02:30Z</time></trkpt>
<trkpt lat="46.31571" lon="7.63261"><ele>678.6</ele><time>2016-08-06T16:02:32Z</time></trkpt>
<trkpt lat="46.31573" lon="7.6326"><ele>679</ele><time>2016-08-06T16:02:33Z</time></trkpt>
<trkpt lat="46.31575" lon="7.6326"><ele>679</ele><time>2016-08-06T16:02:34Z</time></trkpt>
<trkpt lat="46.31579" lon="7.63259"><ele>678.8</ele><time>2016-08-06T16:02:36Z</time></trkpt>
<trkpt lat="46.31583" lon="7.63257"><ele>678.4</ele><time>2016-08-06T16:02:38Z</time></trkpt>
<trkpt lat="46.31585" lon="7.63257"><ele>678.4</ele><time>2016-08-06T16:02:39Z</time></trkpt>
<trkpt lat="46.31587" lon="7.63256"><ele>678.4</ele><time>2016-08-06T16:02:40Z</time></trkpt>
<trkpt lat="46.3159" lon="7.63255"><ele>678.4</ele><time>2016-08-06T16:02:42Z</time></trkpt>
<trkpt lat="46.31594" lon="7.63254"><ele>678.4</ele><time>2016-08-06T16:02:44Z</time></trkpt>
<trkpt lat="46.31617" lon="7.63247"><ele>680.8</ele><time>2016-08-06T16:02:56Z</time></trkpt>
<trkpt lat="46.31626" lon="7.63242"><ele>681.8</ele><time>2016-08-06T16:03:01Z</time></trkpt>
<trkpt lat="46.31628" lon="7.63241"><ele>681.8</ele><time>2016-08-06T16:03:02Z</time></trkpt>
<trkpt lat="46.31632" lon="7.63239"><ele>681.8</ele><time>2016-08-06T16:03:04Z</time></trkpt>
<trkpt lat="46.31636" lon="7.63236"><ele>682</ele><time>2016-08-06T16:03:06Z</time></trkpt>
<trkpt lat="46.3164" lon="7.63234"><ele>682</ele><time>2016-08-06T16:03:08Z</time></trkpt>
<trkpt lat="46.31644" lon="7.63232"><ele>682.2</ele><time>2016-08-06T16:03:10Z</time></trkpt>
<trkpt lat="46.31646" lon="7.63231"><ele>682.2</ele><time>2016-08-06T16:03:11Z</time></trkpt>
<trkpt lat="46.31648" lon="7.6323"><ele>682.4</ele><time>2016-08-06T16:03:12Z</time></trkpt>
<trkpt lat="46.31651" lon="7.63228"><ele>683</ele><time>2016-08-06T16:03:14Z</time></trkpt>
<trkpt lat="46.31655" lon="7.63225"><ele>683.4</ele><time>2016-08-06T16:03:16Z</time></trkpt>
<trkpt lat="46.31657" lon="7.63224"><ele>683.6</ele><time>2016-08-06T16:03:17Z</time></trkpt>
<trkpt lat="46.31659" lon="7.63223"><ele>683.8</ele><time>2016-08-06T16:03:18Z</time></trkpt>
<trkpt lat="46.31662" lon="7.63219"><ele>684.4</ele><time>2016-08-06T16:03:20Z</time></trkpt>
<trkpt lat="46.31666" lon="7.63215"><ele>684.8</ele><time>2016-08-06T16:03:22Z</time></trkpt>
<trkpt lat="46.31669" lon="7.63211"><ele>685.2</ele><time>2016-08-06T16:03:24Z</time></trkpt>
<trkpt lat="46.31673" lon="7.63207"><ele>685.6</ele><time>2016-08-06T16:03:26Z</time></trkpt>
<trkpt lat="46.31676" lon="7.63203"><ele>686</ele><time>2016-08-06T16:03:28Z</time></trkpt>
<trkpt lat="46.3168" lon="7.63199"><ele>686.4</ele><time>2016-08-06T16:03:30Z</time></trkpt>
<trkpt lat="46.31683" lon="7.63195"><ele>687</ele><time>2016-08-06T16:03:32Z</time></trkpt>
<trkpt lat="46.31687" lon="7.63192"><ele>687.4</ele><time>2016-08-06T16:03:34Z</time></trkpt>
<trkpt lat="46.3169" lon="7.63188"><ele>687.6</ele><time>2016-08-06T16:03:36Z</time></trkpt>
<trkpt lat="46.31693" lon="7.63184"><ele>687.8</ele><time>2016-08-06T16:03:38Z</time></trkpt>
<trkpt lat="46.31695" lon="7.63182"><ele>688</ele><time>2016-08-06T16:03:39Z</time></trkpt>
<trkpt lat="46.31697" lon="7.6318"><ele>688.2</ele><time>2016-08-06T16:03:40Z</time></trkpt>
<trkpt lat="46.317" lon="7.63178"><ele>688.4</ele><time>2016-08-06T16:03:42Z</time></trkpt>
<trkpt lat="46.31704" lon="7.63175"><ele>688.6</ele><time>2016-08-06T16:03:44Z</time></trkpt>
<trkpt lat="46.31707" lon="7.63172"><ele>688.8</ele><time>2016-08-06T16:03:46Z</time></trkpt>
<trkpt lat="46.31711" lon="7.63169"><ele>689.2</ele><time>2016-08-06T16:03:48Z</time></trkpt>
<trkpt lat="46.31715" lon="7.63166"><ele>689.4</ele><time>2016-08-06T16:03:50Z</time></trkpt>
<trkpt lat="46.31718" lon="7.63163"><ele>689.6</ele><time>2016-08-06T16:03:52Z</time></trkpt>
<trkpt lat="46.31722" lon="7.6316"><ele>690</ele><time>2016-08-06T16:03:54Z</time></trkpt>
<trkpt lat="46.31725" lon="7.63157"><ele>690.2</ele><time>2016-08-06T16:03:56Z</time></trkpt>
<trkpt lat="46.31729" lon="7.63154"><ele>690.6</ele><time>2016-08-06T16:03:58Z</time></trkpt>
<trkpt lat="46.31732" lon="7.63151"><ele>691</ele><time>2016-08-06T16:04:00Z</time></trkpt>
<trkpt lat="46.31736" lon="7.63148"><ele>691.2</ele><time>2016-08-06T16:04:02Z</time></trkpt>
<trkpt lat="46.3174" lon="7.63147"><ele>691.6</ele><time>2016-08-06T16:04:04Z</time></trkpt>
<trkpt lat="46.31743" lon="7.63145"><ele>692</ele><time>2016-08-06T16:04:06Z</time></trkpt>
<trkpt lat="46.31747" lon="7.63143"><ele>692.4</ele><time>2016-08-06T16:04:08Z</time></trkpt>
<trkpt lat="46.31751" lon="7.63142"><ele>692.8</ele><time>2016-08-06T16:04:10Z</time></trkpt>
<trkpt lat="46.31755" lon="7.6314"><ele>693.2</ele><time>2016-08-06T16:04:12Z</time></trkpt>
<trkpt lat="46.31758" lon="7.63138"><ele>693.8</ele><time>2016-08-06T16:04:14Z</time></trkpt>
<trkpt lat="46.31762" lon="7.63137"><ele>694.6</ele><time>2016-08-06T16:04:16Z</time></trkpt>
<trkpt lat="46.31766" lon="7.63135"><ele>695.2</ele><time>2016-08-06T16:04:18Z</time></trkpt>
<trkpt lat="46.3177" lon="7.63133"><ele>695.4</ele><time>2016-08-06T16:04:20Z</time></trkpt>
<trkpt lat="46.31773" lon="7.63132"><ele>695.4</ele><time>2016-08-06T16:04:22Z</time></trkpt>
<trkpt lat="46.31777" lon="7.6313"><ele>695.6</ele><time>2016-08-06T16:04:24Z</time></trkpt>
<trkpt lat="46.31779" lon="7.63129"><ele>695.8</ele><time>2016-08-06T16:04:25Z</time></trkpt>
<trkpt lat="46.31781" lon="7.63128"><ele>696</ele><time>2016-08-06T16:04:26Z</time></trkpt>
<trkpt lat="46.31785" lon="7.63126"><ele>696.2</ele><time>2016-08-06T16:04:28Z</time></trkpt>
<trkpt lat="46.31788" lon="7.63123"><ele>696.6</ele><time>2016-08-06T16:04:30Z</time></trkpt>
<trkpt lat="46.31792" lon="7.63121"><ele>696.8</ele><time>2016-08-06T16:04:32Z</time></trkpt>
<trkpt lat="46.31796" lon="7.63119"><ele>697.2</ele><time>2016-08-06T16:04:34Z</time></trkpt>
<trkpt lat="46.31799" lon="7.63116"><ele>697.4</ele><time>2016-08-06T16:04:36Z</time></trkpt>
<trkpt lat="46.31803" lon="7.63114"><ele>697.8</ele><time>2016-08-06T16:04:38Z</time></trkpt>
<trkpt lat="46.31818" lon="7.63105"><ele>699</ele><time>2016-08-06T16:04:46Z</time></trkpt>
<trkpt lat="46.31821" lon="7.63102"><ele>699.4</ele><time>2016-08-06T16:04:48Z</time></trkpt>
<trkpt lat="46.31838" lon="7.63085"><ele>701.4</ele><time>2016-08-06T16:04:58Z</time></trkpt>
<trkpt lat="46.31842" lon="7.63082"><ele>701.8</ele><time>2016-08-06T16:05:00Z</time></trkpt>
<trkpt lat="46.31845" lon="7.63079"><ele>702.2</ele><time>2016-08-06T16:05:02Z</time></trkpt>
<trkpt lat="46.31848" lon="7.63075"><ele>702.4</ele><time>2016-08-06T16:05:04Z</time></trkpt>
<trkpt lat="46.31852" lon="7.63072"><ele>702.8</ele><time>2016-08-06T16:05:06Z</time></trkpt>
<trkpt lat="46.31855" lon="7.63069"><ele>703</ele><time>2016-08-06T16:05:08Z</time></trkpt>
<trkpt lat="46.31859" lon="7.63065"><ele>703.2</ele><time>2016-08-06T16:05:10Z</time></trkpt>
<trkpt lat="46.31861" lon="7.6306"><ele>703.6</ele><time>2016-08-06T16:05:12Z</time></trkpt>
<trkpt lat="46.31863" lon="7.63054"><ele>703.8</ele><time>2016-08-06T16:05:14Z</time></trkpt>
<trkpt lat="46.31866" lon="7.63048"><ele>704.2</ele><time>2016-08-06T16:05:16Z</time></trkpt>
<trkpt lat="46.31868" lon="7.63043"><ele>704.4</ele><time>2016-08-06T16:05:18Z</time></trkpt>
<trkpt lat="46.3187" lon="7.63037"><ele>704.8</ele><time>2016-08-06T16:05:20Z</time></trkpt>
<trkpt lat="46.31873" lon="7.63032"><ele>705</ele><time>2016-08-06T16:05:22Z</time></trkpt>
<trkpt lat="46.31874" lon="7.63029"><ele>705.2</ele><time>2016-08-06T16:05:23Z</time></trkpt>
<trkpt lat="46.31875" lon="7.63026"><ele>705.4</ele><time>2016-08-06T16:05:24Z</time></trkpt>
<trkpt lat="46.31878" lon="7.6302"><ele>705.8</ele><time>2016-08-06T16:05:26Z</time></trkpt>
<trkpt lat="46.3188" lon="7.63015"><ele>706</ele><time>2016-08-06T16:05:28Z</time></trkpt>
<trkpt lat="46.31882" lon="7.63009"><ele>706.4</ele><time>2016-08-06T16:05:30Z</time></trkpt>
<trkpt lat="46.31883" lon="7.63003"><ele>706.8</ele><time>2016-08-06T16:05:32Z</time></trkpt>
<trkpt lat="46.31883" lon="7.62997"><ele>707.2</ele><time>2016-08-06T16:05:34Z</time></trkpt>
<trkpt lat="46.31884" lon="7.62992"><ele>707.6</ele><time>2016-08-06T16:05:36Z</time></trkpt>
<trkpt lat="46.31884" lon="7.62986"><ele>707.8</ele><time>2016-08-06T16:05:38Z</time></trkpt>
<trkpt lat="46.31885" lon="7.6298"><ele>708.2</ele><time>2016-08-06T16:05:40Z</time></trkpt>
<trkpt lat="46.31885" lon="7.62974"><ele>708.6</ele><time>2016-08-06T16:05:42Z</time></trkpt>
<trkpt lat="46.31886" lon="7.62968"><ele>708.8</ele><time>2016-08-06T16:05:44Z</time></trkpt>
<trkpt lat="46.31886" lon="7.62962"><ele>709.2</ele><time>2016-08-06T16:05:46Z</time></trkpt>
<trkpt lat="46.31887" lon="7.62956"><ele>709.6</ele><time>2016-08-06T16:05:48Z</time></trkpt>
<trkpt lat="46.31887" lon="7.62951"><ele>709.8</ele><time>2016-08-06T16:05:50Z</time></trkpt>
<trkpt lat="46.31888" lon="7.62945"><ele>710.2</ele><time>2016-08-06T16:05:52Z</time></trkpt>
<trkpt lat="46.31887" lon="7.62939"><ele>710.4</ele><time>2016-08-06T16:05:54Z</time></trkpt>
<trkpt lat="46.31886" lon="7.62932"><ele>710.8</ele><time>2016-08-06T16:05:56Z</time></trkpt>
<trkpt lat="46.31885" lon="7.62926"><ele>711.2</ele><time>2016-08-06T16:05:58Z</time></trkpt>
<trkpt lat="46.31884" lon="7.6292"><ele>711.4</ele><time>2016-08-06T16:06:00Z</time></trkpt>
<trkpt lat="46.31884" lon="7.62917"><ele>711.6</ele><time>2016-08-06T16:06:01Z</time></trkpt>
<trkpt lat="46.31883" lon="7.62914"><ele>711.8</ele><time>2016-08-06T16:06:02Z</time></trkpt>
<trkpt lat="46.31882" lon="7.62908"><ele>712</ele><time>2016-08-06T16:06:04Z</time></trkpt>
<trkpt lat="46.31881" lon="7.62902"><ele>712.2</ele><time>2016-08-06T16:06:06Z</time></trkpt>
<trkpt lat="46.31881" lon="7.62896"><ele>712.4</ele><time>2016-08-06T16:06:08Z</time></trkpt>
<trkpt lat="46.3188" lon="7.6289"><ele>712.6</ele><time>2016-08-06T16:06:10Z</time></trkpt>
<trkpt lat="46.31879" lon="7.62884"><ele>713</ele><time>2016-08-06T16:06:12Z</time></trkpt>
<trkpt lat="46.31879" lon="7.62881"><ele>713</ele><time>2016-08-06T16:06:13Z</time></trkpt>
<trkpt lat="46.3188" lon="7.62878"><ele>713.2</ele><time>2016-08-06T16:06:14Z</time></trkpt>
<trkpt lat="46.31884" lon="7.62873"><ele>713.4</ele><time>2016-08-06T16:06:16Z</time></trkpt>
<trkpt lat="46.31887" lon="7.62868"><ele>713.8</ele><time>2016-08-06T16:06:18Z</time></trkpt>
<trkpt lat="46.3189" lon="7.62863"><ele>714.4</ele><time>2016-08-06T16:06:20Z</time></trkpt>
<trkpt lat="46.31892" lon="7.62857"><ele>715.2</ele><time>2016-08-06T16:06:22Z</time></trkpt>
<trkpt lat="46.31891" lon="7.62846"><ele>715.8</ele><time>2016-08-06T16:06:24Z</time></trkpt>
<trkpt lat="46.31889" lon="7.62835"><ele>716</ele><time>2016-08-06T16:06:26Z</time></trkpt>
<trkpt lat="46.31887" lon="7.62825"><ele>716.2</ele><time>2016-08-06T16:06:28Z</time></trkpt>
<trkpt lat="46.31885" lon="7.62814"><ele>716.4</ele><time>2016-08-06T16:06:30Z</time></trkpt>
<trkpt lat="46.31883" lon="7.62803"><ele>716.6</ele><time>2016-08-06T16:06:32Z</time></trkpt>
<trkpt lat="46.31882" lon="7.62793"><ele>716.8</ele><time>2016-08-06T16:06:34Z</time></trkpt>
<trkpt lat="46.31883" lon="7.6278"><ele>717</ele><time>2016-08-06T16:06:36Z</time></trkpt>
<trkpt lat="46.31884" lon="7.62768"><ele>717.2</ele><time>2016-08-06T16:06:38Z</time></trkpt>
<trkpt lat="46.31885" lon="7.62755"><ele>717.2</ele><time>2016-08-06T16:06:40Z</time></trkpt>
<trkpt lat="46.31885" lon="7.62743"><ele>717.4</ele><time>2016-08-06T16:06:42Z</time></trkpt>
<trkpt lat="46.31886" lon="7.6273"><ele>717.6</ele><time>2016-08-06T16:06:44Z</time></trkpt>
<trkpt lat="46.31887" lon="7.62724"><ele>717.8</ele><time>2016-08-06T16:06:45Z</time></trkpt>
<trkpt lat="46.31887" lon="7.62717"><ele>717.8</ele><time>2016-08-06T16:06:46Z</time></trkpt>
<trkpt lat="46.31889" lon="7.62704"><ele>718</ele><time>2016-08-06T16:06:48Z</time></trkpt>
<trkpt lat="46.3189" lon="7.6269"><ele>718</ele><time>2016-08-06T16:06:50Z</time></trkpt>
<trkpt lat="46.31887" lon="7.62678"><ele>718</ele><time>2016-08-06T16:06:52Z</time></trkpt>
<trkpt lat="46.31886" lon="7.62671"><ele>718</ele><time>2016-08-06T16:06:53Z</time></trkpt>
<trkpt lat="46.31888" lon="7.62664"><ele>718</ele><time>2016-08-06T16:06:54Z</time></trkpt>
<trkpt lat="46.3189" lon="7.62649"><ele>718.2</ele><time>2016-08-06T16:06:56Z</time></trkpt>
<trkpt lat="46.31892" lon="7.62633"><ele>718.2</ele><time>2016-08-06T16:06:58Z</time></trkpt>
<trkpt lat="46.31895" lon="7.62618"><ele>718.2</ele><time>2016-08-06T16:07:00Z</time></trkpt>
<trkpt lat="46.31897" lon="7.62603"><ele>718.4</ele><time>2016-08-06T16:07:02Z</time></trkpt>
<trkpt lat="46.31898" lon="7.62588"><ele>718.4</ele><time>2016-08-06T16:07:04Z</time></trkpt>
<trkpt lat="46.319" lon="7.62573"><ele>718.4</ele><time>2016-08-06T16:07:06Z</time></trkpt>
<trkpt lat="46.31902" lon="7.62561"><ele>718.4</ele><time>2016-08-06T16:07:08Z</time></trkpt>
<trkpt lat="46.31904" lon="7.62549"><ele>718.6</ele><time>2016-08-06T16:07:10Z</time></trkpt>
<trkpt lat="46.31906" lon="7.62536"><ele>718.6</ele><time>2016-08-06T16:07:12Z</time></trkpt>
<trkpt lat="46.31908" lon="7.62524"><ele>718.6</ele><time>2016-08-06T16:07:14Z</time></trkpt>
<trkpt lat="46.31911" lon="7.62512"><ele>718.8</ele><time>2016-08-06T16:07:16Z</time></trkpt>
<trkpt lat="46.31911" lon="7.62507"><ele>718.8</ele><time>2016-08-06T16:07:17Z</time></trkpt>
<trkpt lat="46.31912" lon="7.62503"><ele>718.8</ele><time>2016-08-06T16:07:18Z</time></trkpt>
<trkpt lat="46.31912" lon="7.62497"><ele>718.8</ele><time>2016-08-06T16:07:20Z</time></trkpt>
<trkpt lat="46.31913" lon="7.62491"><ele>718.8</ele><time>2016-08-06T16:07:22Z</time></trkpt>
<trkpt lat="46.31913" lon="7.62485"><ele>719</ele><time>2016-08-06T16:07:24Z</time></trkpt>
<trkpt lat="46.31914" lon="7.62479"><ele>719</ele><time>2016-08-06T16:07:26Z</time></trkpt>
<trkpt lat="46.31914" lon="7.62472"><ele>719</ele><time>2016-08-06T16:07:28Z</time></trkpt>
<trkpt lat="46.31915" lon="7.62466"><ele>719.2</ele><time>2016-08-06T16:07:30Z</time></trkpt>
<trkpt lat="46.31915" lon="7.6246"><ele>719.2</ele><time>2016-08-06T16:07:32Z</time></trkpt>
<trkpt lat="46.31916" lon="7.62454"><ele>719.2</ele><time>2016-08-06T16:07:34Z</time></trkpt>
<trkpt lat="46.31916" lon="7.62447"><ele>719.4</ele><time>2016-08-06T16:07:36Z</time></trkpt>
<trkpt lat="46.31917" lon="7.62441"><ele>719.4</ele><time>2016-08-06T16:07:38Z</time></trkpt>
<trkpt lat="46.31918" lon="7.62432"><ele>719.4</ele><time>2016-08-06T16:07:40Z</time></trkpt>
<trkpt lat="46.31918" lon="7.62423"><ele>719.4</ele><time>2016-08-06T16:07:42Z</time></trkpt>
<trkpt lat="46.31919" lon="7.62414"><ele>719.6</ele><time>2016-08-06T16:07:44Z</time></trkpt>
<trkpt lat="46.3192" lon="7.62406"><ele>719.6</ele><time>2016-08-06T16:07:46Z</time></trkpt>
<trkpt lat="46.31921" lon="7.62397"><ele>719.6</ele><time>2016-08-06T16:07:48Z</time></trkpt>
<trkpt lat="46.31921" lon="7.62388"><ele>720</ele><time>2016-08-06T16:07:50Z</time></trkpt>
<trkpt lat="46.31922" lon="7.62379"><ele>720.4</ele><time>2016-08-06T16:07:52Z</time></trkpt>
<trkpt lat="46.31923" lon="7.62375"><ele>720.6</ele><time>2016-08-06T16:07:53Z</time></trkpt>
<trkpt lat="46.31923" lon="7.6237"><ele>720.8</ele><time>2016-08-06T16:07:54Z</time></trkpt>
<trkpt lat="46.31924" lon="7.62361"><ele>721.2</ele><time>2016-08-06T16:07:56Z</time></trkpt>
<trkpt lat="46.31925" lon="7.62353"><ele>721.6</ele><time>2016-08-06T16:07:58Z</time></trkpt>
<trkpt lat="46.31927" lon="7.62344"><ele>722</ele><time>2016-08-06T16:08:00Z</time></trkpt>
<trkpt lat="46.31928" lon="7.62335"><ele>722.4</ele><time>2016-08-06T16:08:02Z</time></trkpt>
<trkpt lat="46.31929" lon="7.62326"><ele>722.8</ele><time>2016-08-06T16:08:04Z</time></trkpt>
<trkpt lat="46.3193" lon="7.62317"><ele>723.2</ele><time>2016-08-06T16:08:06Z</time></trkpt>
<trkpt lat="46.31931" lon="7.62308"><ele>723.6</ele><time>2016-08-06T16:08:08Z</time></trkpt>
<trkpt lat="46.31932" lon="7.62299"><ele>724</ele><time>2016-08-06T16:08:10Z</time></trkpt>
<trkpt lat="46.31932" lon="7.6229"><ele>724.4</ele><time>2016-08-06T16:08:12Z</time></trkpt>
<trkpt lat="46.31933" lon="7.62282"><ele>724.8</ele><time>2016-08-06T16:08:14Z</time></trkpt>
<trkpt lat="46.31934" lon="7.62273"><ele>725</ele><time>2016-08-06T16:08:16Z</time></trkpt>
<trkpt lat="46.31934" lon="7.62264"><ele>725.4</ele><time>2016-08-06T16:08:18Z</time></trkpt>
<trkpt lat="46.31935" lon="7.62255"><ele>725.8</ele><time>2016-08-06T16:08:20Z</time></trkpt>
<trkpt lat="46.31936" lon="7.62246"><ele>726</ele><time>2016-08-06T16:08:22Z</time></trkpt>
<trkpt lat="46.31936" lon="7.62242"><ele>726.2</ele><time>2016-08-06T16:08:23Z</time></trkpt>
<trkpt lat="46.31937" lon="7.62237"><ele>726.4</ele><time>2016-08-06T16:08:24Z</time></trkpt>
<trkpt lat="46.31937" lon="7.62228"><ele>726.8</ele><time>2016-08-06T16:08:26Z</time></trkpt>
<trkpt lat="46.31938" lon="7.6222"><ele>727.2</ele><time>2016-08-06T16:08:28Z</time></trkpt>
<trkpt lat="46.31939" lon="7.62211"><ele>727.4</ele><time>2016-08-06T16:08:30Z</time></trkpt>
<trkpt lat="46.3194" lon="7.62202"><ele>727.8</ele><time>2016-08-06T16:08:32Z</time></trkpt>
<trkpt lat="46.31941" lon="7.62193"><ele>728.2</ele><time>2016-08-06T16:08:34Z</time></trkpt>
<trkpt lat="46.31942" lon="7.62184"><ele>728.4</ele><time>2016-08-06T16:08:36Z</time></trkpt>
<trkpt lat="46.31943" lon="7.62175"><ele>728.6</ele><time>2016-08-06T16:08:38Z</time></trkpt>
<trkpt lat="46.31944" lon="7.62166"><ele>728.8</ele><time>2016-08-06T16:08:40Z</time></trkpt>
<trkpt lat="46.31946" lon="7.62157"><ele>728.8</ele><time>2016-08-06T16:08:42Z</time></trkpt>
<trkpt lat="46.31948" lon="7.62148"><ele>729</ele><time>2016-08-06T16:08:44Z</time></trkpt>
<trkpt lat="46.3195" lon="7.62139"><ele>729.2</ele><time>2016-08-06T16:08:46Z</time></trkpt>
<trkpt lat="46.31951" lon="7.6213"><ele>729.2</ele><time>2016-08-06T16:08:48Z</time></trkpt>
<trkpt lat="46.31953" lon="7.62121"><ele>729.4</ele><time>2016-08-06T16:08:50Z</time></trkpt>
<trkpt lat="46.31955" lon="7.62112"><ele>729.6</ele><time>2016-08-06T16:08:52Z</time></trkpt>
<trkpt lat="46.31957" lon="7.62107"><ele>729.6</ele><time>2016-08-06T16:08:53Z</time></trkpt>
<trkpt lat="46.31958" lon="7.62102"><ele>729.8</ele><time>2016-08-06T16:08:54Z</time></trkpt>
<trkpt lat="46.31961" lon="7.62093"><ele>730.4</ele><time>2016-08-06T16:08:56Z</time></trkpt>
<trkpt lat="46.31965" lon="7.62083"><ele>730.8</ele><time>2016-08-06T16:08:58Z</time></trkpt>
<trkpt lat="46.31968" lon="7.62074"><ele>731.2</ele><time>2016-08-06T16:09:00Z</time></trkpt>
<trkpt lat="46.31971" lon="7.62064"><ele>731.8</ele><time>2016-08-06T16:09:02Z</time></trkpt>
<trkpt lat="46.31974" lon="7.62054"><ele>732.2</ele><time>2016-08-06T16:09:04Z</time></trkpt>
<trkpt lat="46.31976" lon="7.6205"><ele>732.4</ele><time>2016-08-06T16:09:05Z</time></trkpt>
<trkpt lat="46.31978" lon="7.62045"><ele>732.4</ele><time>2016-08-06T16:09:06Z</time></trkpt>
<trkpt lat="46.31982" lon="7.62035"><ele>732.2</ele><time>2016-08-06T16:09:08Z</time></trkpt>
<trkpt lat="46.31985" lon="7.62026"><ele>732.2</ele><time>2016-08-06T16:09:10Z</time></trkpt>
<trkpt lat="46.31989" lon="7.62016"><ele>732</ele><time>2016-08-06T16:09:12Z</time></trkpt>
<trkpt lat="46.31993" lon="7.62007"><ele>732</ele><time>2016-08-06T16:09:14Z</time></trkpt>
<trkpt lat="46.31995" lon="7.62002"><ele>731.8</ele><time>2016-08-06T16:09:15Z</time></trkpt>
<trkpt lat="46.31997" lon="7.61997"><ele>732</ele><time>2016-08-06T16:09:16Z</time></trkpt>
<trkpt lat="46.32" lon="7.61988"><ele>732</ele><time>2016-08-06T16:09:18Z</time></trkpt>
<trkpt lat="46.32005" lon="7.61976"><ele>732.2</ele><time>2016-08-06T16:09:20Z</time></trkpt>
<trkpt lat="46.3201" lon="7.61964"><ele>732.4</ele><time>2016-08-06T16:09:22Z</time></trkpt>
<trkpt lat="46.32015" lon="7.61952"><ele>732.4</ele><time>2016-08-06T16:09:24Z</time></trkpt>
<trkpt lat="46.3202" lon="7.61941"><ele>732.6</ele><time>2016-08-06T16:09:26Z</time></trkpt>
<trkpt lat="46.32024" lon="7.61929"><ele>732.6</ele><time>2016-08-06T16:09:28Z</time></trkpt>
<trkpt lat="46.32029" lon="7.61915"><ele>732.8</ele><time>2016-08-06T16:09:30Z</time></trkpt>
<trkpt lat="46.32034" lon="7.61902"><ele>733</ele><time>2016-08-06T16:09:32Z</time></trkpt>
<trkpt lat="46.32039" lon="7.61889"><ele>733</ele><time>2016-08-06T16:09:34Z</time></trkpt>
<trkpt lat="46.32043" lon="7.61876"><ele>733.2</ele><time>2016-08-06T16:09:36Z</time></trkpt>
<trkpt lat="46.32045" lon="7.61869"><ele>733.2</ele><time>2016-08-06T16:09:37Z</time></trkpt>
<trkpt lat="46.32047" lon="7.61863"><ele>733.4</ele><time>2016-08-06T16:09:38Z</time></trkpt>
<trkpt lat="46.3205" lon="7.6185"><ele>733.4</ele><time>2016-08-06T16:09:40Z</time></trkpt>
<trkpt lat="46.32053" lon="7.61837"><ele>733.6</ele><time>2016-08-06T16:09:42Z</time></trkpt>
<trkpt lat="46.32057" lon="7.61824"><ele>733.6</ele><time>2016-08-06T16:09:44Z</time></trkpt>
<trkpt lat="46.3206" lon="7.61811"><ele>733.8</ele><time>2016-08-06T16:09:46Z</time></trkpt>
<trkpt lat="46.32061" lon="7.61804"><ele>733.8</ele><time>2016-08-06T16:09:47Z</time></trkpt>
<trkpt lat="46.32063" lon="7.61799"><ele>734</ele><time>2016-08-06T16:09:48Z</time></trkpt>
<trkpt lat="46.32065" lon="7.61787"><ele>734</ele><time>2016-08-06T16:09:50Z</time></trkpt>
<trkpt lat="46.32068" lon="7.61775"><ele>734.2</ele><time>2016-08-06T16:09:52Z</time></trkpt>
<trkpt lat="46.3207" lon="7.61764"><ele>734.2</ele><time>2016-08-06T16:09:54Z</time></trkpt>
<trkpt lat="46.32072" lon="7.61752"><ele>734.4</ele><time>2016-08-06T16:09:56Z</time></trkpt>
<trkpt lat="46.32075" lon="7.61741"><ele>734.6</ele><time>2016-08-06T16:09:58Z</time></trkpt>
<trkpt lat="46.32075" lon="7.61731"><ele>734.6</ele><time>2016-08-06T16:10:00Z</time></trkpt>
<trkpt lat="46.32076" lon="7.61721"><ele>734.8</ele><time>2016-08-06T16:10:02Z</time></trkpt>
<trkpt lat="46.32077" lon="7.61712"><ele>735</ele><time>2016-08-06T16:10:04Z</time></trkpt>
<trkpt lat="46.32078" lon="7.61702"><ele>735</ele><time>2016-08-06T16:10:06Z</time></trkpt>
<trkpt lat="46.32079" lon="7.61692"><ele>735.2</ele><time>2016-08-06T16:10:08Z</time></trkpt>
<trkpt lat="46.32079" lon="7.61683"><ele>735.2</ele><time>2016-08-06T16:10:10Z</time></trkpt>
<trkpt lat="46.3208" lon="7.61678"><ele>735.4</ele><time>2016-08-06T16:10:11Z</time></trkpt>
<trkpt lat="46.3208" lon="7.61673"><ele>735.6</ele><time>2016-08-06T16:10:12Z</time></trkpt>
<trkpt lat="46.3208" lon="7.61665"><ele>736</ele><time>2016-08-06T16:10:14Z</time></trkpt>
<trkpt lat="46.3208" lon="7.61656"><ele>736.4</ele><time>2016-08-06T16:10:16Z</time></trkpt>
<trkpt lat="46.3208" lon="7.61647"><ele>736.8</ele><time>2016-08-06T16:10:18Z</time></trkpt>
<trkpt lat="46.3208" lon="7.61639"><ele>737.2</ele><time>2016-08-06T16:10:20Z</time></trkpt>
<trkpt lat="46.3208" lon="7.6163"><ele>737.6</ele><time>2016-08-06T16:10:22Z</time></trkpt>
<trkpt lat="46.3208" lon="7.61622"><ele>738</ele><time>2016-08-06T16:10:24Z</time></trkpt>
<trkpt lat="46.3208" lon="7.61613"><ele>738.4</ele><time>2016-08-06T16:10:26Z</time></trkpt>
<trkpt lat="46.3208" lon="7.61605"><ele>738.6</ele><time>2016-08-06T16:10:28Z</time></trkpt>
<trkpt lat="46.32079" lon="7.61598"><ele>739</ele><time>2016-08-06T16:10:30Z</time></trkpt>
<trkpt lat="46.32079" lon="7.61592"><ele>739.4</ele><time>2016-08-06T16:10:32Z</time></trkpt>
<trkpt lat="46.32078" lon="7.61589"><ele>739.6</ele><time>2016-08-06T16:10:33Z</time></trkpt>
<trkpt lat="46.32078" lon="7.61585"><ele>739.8</ele><time>2016-08-06T16:10:34Z</time></trkpt>
<trkpt lat="46.32077" lon="7.61579"><ele>740</ele><time>2016-08-06T16:10:36Z</time></trkpt>
<trkpt lat="46.32076" lon="7.61572"><ele>740.4</ele><time>2016-08-06T16:10:38Z</time></trkpt>
<trkpt lat="46.32075" lon="7.61566"><ele>740.6</ele><time>2016-08-06T16:10:40Z</time></trkpt>
<trkpt lat="46.32075" lon="7.6156"><ele>741</ele><time>2016-08-06T16:10:42Z</time></trkpt>
<trkpt lat="46.32074" lon="7.61553"><ele>741.2</ele><time>2016-08-06T16:10:44Z</time></trkpt>
<trkpt lat="46.32073" lon="7.61547"><ele>741.6</ele><time>2016-08-06T16:10:46Z</time></trkpt>
<trkpt lat="46.32072" lon="7.6154"><ele>741.8</ele><time>2016-08-06T16:10:48Z</time></trkpt>
<trkpt lat="46.32071" lon="7.61534"><ele>742.2</ele><time>2016-08-06T16:10:50Z</time></trkpt>
<trkpt lat="46.3207" lon="7.61527"><ele>742.4</ele><time>2016-08-06T16:10:52Z</time></trkpt>
<trkpt lat="46.32069" lon="7.61521"><ele>742.6</ele><time>2016-08-06T16:10:54Z</time></trkpt>
<trkpt lat="46.32067" lon="7.61514"><ele>743</ele><time>2016-08-06T16:10:56Z</time></trkpt>
<trkpt lat="46.32066" lon="7.61508"><ele>743.2</ele><time>2016-08-06T16:10:58Z</time></trkpt>
<trkpt lat="46.32065" lon="7.61501"><ele>743.6</ele><time>2016-08-06T16:11:00Z</time></trkpt>
<trkpt lat="46.32063" lon="7.61495"><ele>744</ele><time>2016-08-06T16:11:02Z</time></trkpt>
<trkpt lat="46.32062" lon="7.61488"><ele>744.4</ele><time>2016-08-06T16:11:04Z</time></trkpt>
<trkpt lat="46.32061" lon="7.61482"><ele>744.8</ele><time>2016-08-06T16:11:06Z</time></trkpt>
<trkpt lat="46.3206" lon="7.61475"><ele>745.2</ele><time>2016-08-06T16:11:08Z</time></trkpt>
<trkpt lat="46.32058" lon="7.61468"><ele>745.6</ele><time>2016-08-06T16:11:10Z</time></trkpt>
<trkpt lat="46.32056" lon="7.61461"><ele>746</ele><time>2016-08-06T16:11:12Z</time></trkpt>
<trkpt lat="46.32054" lon="7.61453"><ele>746.4</ele><time>2016-08-06T16:11:14Z</time></trkpt>
<trkpt lat="46.32053" lon="7.61446"><ele>746.8</ele><time>2016-08-06T16:11:16Z</time></trkpt>
<trkpt lat="46.32052" lon="7.61442"><ele>747</ele><time>2016-08-06T16:11:17Z</time></trkpt>
<trkpt lat="46.32051" lon="7.61439"><ele>747.2</ele><time>2016-08-06T16:11:18Z</time></trkpt>
<trkpt lat="46.32049" lon="7.61431"><ele>747.4</ele><time>2016-08-06T16:11:20Z</time></trkpt>
<trkpt lat="46.32047" lon="7.61424"><ele>747.6</ele><time>2016-08-06T16:11:22Z</time></trkpt>
<trkpt lat="46.32046" lon="7.61417"><ele>747.8</ele><time>2016-08-06T16:11:24Z</time></trkpt>
<trkpt lat="46.32044" lon="7.61409"><ele>748.2</ele><time>2016-08-06T16:11:26Z</time></trkpt>
<trkpt lat="46.32042" lon="7.61398"><ele>748.4</ele><time>2016-08-06T16:11:28Z</time></trkpt>
<trkpt lat="46.3204" lon="7.61387"><ele>748.6</ele><time>2016-08-06T16:11:30Z</time></trkpt>
<trkpt lat="46.32037" lon="7.61377"><ele>748.8</ele><time>2016-08-06T16:11:32Z</time></trkpt>
<trkpt lat="46.32035" lon="7.61366"><ele>749</ele><time>2016-08-06T16:11:34Z</time></trkpt>
<trkpt lat="46.32033" lon="7.61355"><ele>749.4</ele><time>2016-08-06T16:11:36Z</time></trkpt>
<trkpt lat="46.32031" lon="7.61344"><ele>749.6</ele><time>2016-08-06T16:11:38Z</time></trkpt>
<trkpt lat="46.32029" lon="7.61336"><ele>749.6</ele><time>2016-08-06T16:11:39Z</time></trkpt>
<trkpt lat="46.32027" lon="7.61328"><ele>749.4</ele><time>2016-08-06T16:11:40Z</time></trkpt>
<trkpt lat="46.32022" lon="7.61311"><ele>748.8</ele><time>2016-08-06T16:11:42Z</time></trkpt>
<trkpt lat="46.32018" lon="7.61295"><ele>748.4</ele><time>2016-08-06T16:11:44Z</time></trkpt>
<trkpt lat="46.32013" lon="7.61278"><ele>748</ele><time>2016-08-06T16:11:46Z</time></trkpt>
<trkpt lat="46.32007" lon="7.61257"><ele>747.4</ele><time>2016-08-06T16:11:48Z</time></trkpt>
<trkpt lat="46.32001" lon="7.61237"><ele>747</ele><time>2016-08-06T16:11:50Z</time></trkpt>
<trkpt lat="46.31995" lon="7.61216"><ele>746.6</ele><time>2016-08-06T16:11:52Z</time></trkpt>
<trkpt lat="46.31985" lon="7.61196"><ele>746</ele><time>2016-08-06T16:11:54Z</time></trkpt>
<trkpt lat="46.3198" lon="7.61186"><ele>745.8</ele><time>2016-08-06T16:11:55Z</time></trkpt>
<trkpt lat="46.31973" lon="7.61177"><ele>745.6</ele><time>2016-08-06T16:11:56Z</time></trkpt>
<trkpt lat="46.3196" lon="7.61159"><ele>745.2</ele><time>2016-08-06T16:11:58Z</time></trkpt>
<trkpt lat="46.31946" lon="7.61141"><ele>744.8</ele><time>2016-08-06T16:12:00Z</time></trkpt>
<trkpt lat="46.31939" lon="7.6113"><ele>744.4</ele><time>2016-08-06T16:12:01Z</time></trkpt>
<trkpt lat="46.31932" lon="7.61119"><ele>743.8</ele><time>2016-08-06T16:12:02Z</time></trkpt>
<trkpt lat="46.31919" lon="7.61097"><ele>742.4</ele><time>2016-08-06T16:12:04Z</time></trkpt>
<trkpt lat="46.31912" lon="7.61086"><ele>741.8</ele><time>2016-08-06T16:12:05Z</time></trkpt>
<trkpt lat="46.31906" lon="7.61074"><ele>741</ele><time>2016-08-06T16:12:06Z</time></trkpt>
<trkpt lat="46.31894" lon="7.61051"><ele>739.8</ele><time>2016-08-06T16:12:08Z</time></trkpt>
<trkpt lat="46.31882" lon="7.61028"><ele>738.4</ele><time>2016-08-06T16:12:10Z</time></trkpt>
<trkpt lat="46.3187" lon="7.61007"><ele>737.4</ele><time>2016-08-06T16:12:12Z</time></trkpt>
<trkpt lat="46.31858" lon="7.60986"><ele>737.2</ele><time>2016-08-06T16:12:14Z</time></trkpt>
<trkpt lat="46.31843" lon="7.60973"><ele>737</ele><time>2016-08-06T16:12:16Z</time></trkpt>
<trkpt lat="46.31828" lon="7.60959"><ele>736.8</ele><time>2016-08-06T16:12:18Z</time></trkpt>
<trkpt lat="46.31813" lon="7.60947"><ele>736.6</ele><time>2016-08-06T16:12:20Z</time></trkpt>
<trkpt lat="46.31798" lon="7.60938"><ele>736.4</ele><time>2016-08-06T16:12:22Z</time></trkpt>
<trkpt lat="46.31782" lon="7.6093"><ele>736.2</ele><time>2016-08-06T16:12:24Z</time></trkpt>
<trkpt lat="46.31767" lon="7.60921"><ele>736</ele><time>2016-08-06T16:12:26Z</time></trkpt>
<trkpt lat="46.31752" lon="7.60913"><ele>735.8</ele><time>2016-08-06T16:12:28Z</time></trkpt>
<trkpt lat="46.31745" lon="7.60908"><ele>735.8</ele><time>2016-08-06T16:12:29Z</time></trkpt>
<trkpt lat="46.31739" lon="7.60902"><ele>735.8</ele><time>2016-08-06T16:12:30Z</time></trkpt>
<trkpt lat="46.31727" lon="7.60889"><ele>735.8</ele><time>2016-08-06T16:12:32Z</time></trkpt>
<trkpt lat="46.31721" lon="7.60882"><ele>735.8</ele><time>2016-08-06T16:12:33Z</time></trkpt>
<trkpt lat="46.31718" lon="7.60873"><ele>735.8</ele><time>2016-08-06T16:12:34Z</time></trkpt>
<trkpt lat="46.31715" lon="7.60863"><ele>735.6</ele><time>2016-08-06T16:12:35Z</time></trkpt>
<trkpt lat="46.31712" lon="7.60853"><ele>735.6</ele><time>2016-08-06T16:12:36Z</time></trkpt>
<trkpt lat="46.31706" lon="7.60834"><ele>735.2</ele><time>2016-08-06T16:12:38Z</time></trkpt>
<trkpt lat="46.31705" lon="7.60814"><ele>735</ele><time>2016-08-06T16:12:40Z</time></trkpt>
<trkpt lat="46.31704" lon="7.60794"><ele>734.8</ele><time>2016-08-06T16:12:42Z</time></trkpt>
<trkpt lat="46.31703" lon="7.60774"><ele>734.6</ele><time>2016-08-06T16:12:44Z</time></trkpt>
<trkpt lat="46.31703" lon="7.60764"><ele>734.4</ele><time>2016-08-06T16:12:45Z</time></trkpt>
<trkpt lat="46.31703" lon="7.60754"><ele>734.2</ele><time>2016-08-06T16:12:46Z</time></trkpt>
<trkpt lat="46.31702" lon="7.60734"><ele>734</ele><time>2016-08-06T16:12:48Z</time></trkpt>
<trkpt lat="46.31702" lon="7.60714"><ele>733.8</ele><time>2016-08-06T16:12:50Z</time></trkpt>
<trkpt lat="46.31702" lon="7.60694"><ele>733.6</ele><time>2016-08-06T16:12:52Z</time></trkpt>
<trkpt lat="46.31709" lon="7.60677"><ele>733.2</ele><time>2016-08-06T16:12:54Z</time></trkpt>
<trkpt lat="46.31717" lon="7.60659"><ele>733</ele><time>2016-08-06T16:12:56Z</time></trkpt>
<trkpt lat="46.31724" lon="7.60642"><ele>732.8</ele><time>2016-08-06T16:12:58Z</time></trkpt>
<trkpt lat="46.31729" lon="7.60634"><ele>732.6</ele><time>2016-08-06T16:12:59Z</time></trkpt>
<trkpt lat="46.31735" lon="7.60627"><ele>732.4</ele><time>2016-08-06T16:13:00Z</time></trkpt>
<trkpt lat="46.31747" lon="7.60613"><ele>732.2</ele><time>2016-08-06T16:13:02Z</time></trkpt>
<trkpt lat="46.31759" lon="7.606"><ele>732</ele><time>2016-08-06T16:13:04Z</time></trkpt>
<trkpt lat="46.31765" lon="7.60594"><ele>731.8</ele><time>2016-08-06T16:13:05Z</time></trkpt>
<trkpt lat="46.31768" lon="7.6059"><ele>731.8</ele><time>2016-08-06T16:13:06Z</time></trkpt>
<trkpt lat="46.31775" lon="7.60581"><ele>731.4</ele><time>2016-08-06T16:13:08Z</time></trkpt>
<trkpt lat="46.31779" lon="7.60576"><ele>731.4</ele><time>2016-08-06T16:13:09Z</time></trkpt>
<trkpt lat="46.31783" lon="7.60566"><ele>731.4</ele><time>2016-08-06T16:13:10Z</time></trkpt>
<trkpt lat="46.31792" lon="7.60543"><ele>731.6</ele><time>2016-08-06T16:13:12Z</time></trkpt>
<trkpt lat="46.31801" lon="7.6052"><ele>731.8</ele><time>2016-08-06T16:13:14Z</time></trkpt>
<trkpt lat="46.31805" lon="7.60509"><ele>731.8</ele><time>2016-08-06T16:13:15Z</time></trkpt>
<trkpt lat="46.3181" lon="7.60503"><ele>731.8</ele><time>2016-08-06T16:13:16Z</time></trkpt>
<trkpt lat="46.3182" lon="7.6049"><ele>732</ele><time>2016-08-06T16:13:18Z</time></trkpt>
<trkpt lat="46.31829" lon="7.60478"><ele>732.2</ele><time>2016-08-06T16:13:20Z</time></trkpt>
<trkpt lat="46.31838" lon="7.60465"><ele>732</ele><time>2016-08-06T16:13:22Z</time></trkpt>
<trkpt lat="46.31843" lon="7.60451"><ele>732</ele><time>2016-08-06T16:13:24Z</time></trkpt>
<trkpt lat="46.31847" lon="7.60436"><ele>731.8</ele><time>2016-08-06T16:13:26Z</time></trkpt>
<trkpt lat="46.31851" lon="7.60422"><ele>731.8</ele><time>2016-08-06T16:13:28Z</time></trkpt>
<trkpt lat="46.31854" lon="7.60408"><ele>731.6</ele><time>2016-08-06T16:13:30Z</time></trkpt>
<trkpt lat="46.31852" lon="7.60391"><ele>731.6</ele><time>2016-08-06T16:13:32Z</time></trkpt>
<trkpt lat="46.3185" lon="7.60374"><ele>731.4</ele><time>2016-08-06T16:13:34Z</time></trkpt>
<trkpt lat="46.31848" lon="7.60357"><ele>731.4</ele><time>2016-08-06T16:13:36Z</time></trkpt>
<trkpt lat="46.31846" lon="7.60348"><ele>731.4</ele><time>2016-08-06T16:13:37Z</time></trkpt>
<trkpt lat="46.31842" lon="7.60339"><ele>731.4</ele><time>2016-08-06T16:13:38Z</time></trkpt>
<trkpt lat="46.31836" lon="7.6032"><ele>731.2</ele><time>2016-08-06T16:13:40Z</time></trkpt>
<trkpt lat="46.31829" lon="7.60302"><ele>731.2</ele><time>2016-08-06T16:13:42Z</time></trkpt>
<trkpt lat="46.31822" lon="7.60283"><ele>731</ele><time>2016-08-06T16:13:44Z</time></trkpt>
<trkpt lat="46.31813" lon="7.60265"><ele>731</ele><time>2016-08-06T16:13:46Z</time></trkpt>
<trkpt lat="46.31804" lon="7.60247"><ele>730.8</ele><time>2016-08-06T16:13:48Z</time></trkpt>
<trkpt lat="46.31795" lon="7.60229"><ele>730.8</ele><time>2016-08-06T16:13:50Z</time></trkpt>
<trkpt lat="46.31787" lon="7.6021"><ele>730.6</ele><time>2016-08-06T16:13:52Z</time></trkpt>
<trkpt lat="46.31779" lon="7.60191"><ele>730.6</ele><time>2016-08-06T16:13:54Z</time></trkpt>
<trkpt lat="46.31774" lon="7.60169"><ele>730.4</ele><time>2016-08-06T16:13:56Z</time></trkpt>
<trkpt lat="46.31768" lon="7.60147"><ele>730.4</ele><time>2016-08-06T16:13:58Z</time></trkpt>
<trkpt lat="46.31763" lon="7.60124"><ele>730.2</ele><time>2016-08-06T16:14:00Z</time></trkpt>
<trkpt lat="46.3176" lon="7.601"><ele>730.2</ele><time>2016-08-06T16:14:02Z</time></trkpt>
<trkpt lat="46.31758" lon="7.60089"><ele>730</ele><time>2016-08-06T16:14:03Z</time></trkpt>
<trkpt lat="46.31756" lon="7.60077"><ele>729.8</ele><time>2016-08-06T16:14:04Z</time></trkpt>
<trkpt lat="46.31752" lon="7.60053"><ele>729.2</ele><time>2016-08-06T16:14:06Z</time></trkpt>
<trkpt lat="46.31744" lon="7.6003"><ele>728.6</ele><time>2016-08-06T16:14:08Z</time></trkpt>
<trkpt lat="46.31735" lon="7.60006"><ele>728</ele><time>2016-08-06T16:14:10Z</time></trkpt>
<trkpt lat="46.31731" lon="7.59995"><ele>727.6</ele><time>2016-08-06T16:14:11Z</time></trkpt>
<trkpt lat="46.31727" lon="7.59984"><ele>727.4</ele><time>2016-08-06T16:14:12Z</time></trkpt>
<trkpt lat="46.31717" lon="7.59963"><ele>726.8</ele><time>2016-08-06T16:14:14Z</time></trkpt>
<trkpt lat="46.31712" lon="7.59954"><ele>726.8</ele><time>2016-08-06T16:14:15Z</time></trkpt>
<trkpt lat="46.31706" lon="7.59946"><ele>726.6</ele><time>2016-08-06T16:14:16Z</time></trkpt>
<trkpt lat="46.31693" lon="7.59931"><ele>726.6</ele><time>2016-08-06T16:14:18Z</time></trkpt>
<trkpt lat="46.3168" lon="7.59916"><ele>726.4</ele><time>2016-08-06T16:14:20Z</time></trkpt>
<trkpt lat="46.31674" lon="7.59908"><ele>726.4</ele><time>2016-08-06T16:14:21Z</time></trkpt>
<trkpt lat="46.31668" lon="7.59901"><ele>726.4</ele><time>2016-08-06T16:14:22Z</time></trkpt>
<trkpt lat="46.31657" lon="7.59885"><ele>726.2</ele><time>2016-08-06T16:14:24Z</time></trkpt>
<trkpt lat="46.31651" lon="7.59877"><ele>726.2</ele><time>2016-08-06T16:14:25Z</time></trkpt>
<trkpt lat="46.31645" lon="7.59869"><ele>726.4</ele><time>2016-08-06T16:14:26Z</time></trkpt>
<trkpt lat="46.3164" lon="7.5986"><ele>726.6</ele><time>2016-08-06T16:14:27Z</time></trkpt>
<trkpt lat="46.31637" lon="7.59851"><ele>726.8</ele><time>2016-08-06T16:14:28Z</time></trkpt>
<trkpt lat="46.31631" lon="7.59832"><ele>727.2</ele><time>2016-08-06T16:14:30Z</time></trkpt>
<trkpt lat="46.31628" lon="7.59822"><ele>727.4</ele><time>2016-08-06T16:14:31Z</time></trkpt>
<trkpt lat="46.31625" lon="7.59812"><ele>727</ele><time>2016-08-06T16:14:32Z</time></trkpt>
<trkpt lat="46.31619" lon="7.59793"><ele>726.4</ele><time>2016-08-06T16:14:34Z</time></trkpt>
<trkpt lat="46.31612" lon="7.59773"><ele>725.8</ele><time>2016-08-06T16:14:36Z</time></trkpt>
<trkpt lat="46.31606" lon="7.59753"><ele>725</ele><time>2016-08-06T16:14:38Z</time></trkpt>
<trkpt lat="46.316" lon="7.59733"><ele>724.4</ele><time>2016-08-06T16:14:40Z</time></trkpt>
<trkpt lat="46.31596" lon="7.59722"><ele>724</ele><time>2016-08-06T16:14:41Z</time></trkpt>
<trkpt lat="46.31593" lon="7.59712"><ele>723.8</ele><time>2016-08-06T16:14:42Z</time></trkpt>
<trkpt lat="46.31586" lon="7.59692"><ele>723</ele><time>2016-08-06T16:14:44Z</time></trkpt>
<trkpt lat="46.3158" lon="7.59672"><ele>722.4</ele><time>2016-08-06T16:14:46Z</time></trkpt>
<trkpt lat="46.31573" lon="7.59651"><ele>722</ele><time>2016-08-06T16:14:48Z</time></trkpt>
<trkpt lat="46.31567" lon="7.5963"><ele>721.8</ele><time>2016-08-06T16:14:50Z</time></trkpt>
<trkpt lat="46.31561" lon="7.59609"><ele>721.4</ele><time>2016-08-06T16:14:52Z</time></trkpt>
<trkpt lat="46.31556" lon="7.59586"><ele>720.6</ele><time>2016-08-06T16:14:54Z</time></trkpt>
<trkpt lat="46.3155" lon="7.59563"><ele>720</ele><time>2016-08-06T16:14:56Z</time></trkpt>
<trkpt lat="46.31547" lon="7.59551"><ele>719.6</ele><time>2016-08-06T16:14:57Z</time></trkpt>
<trkpt lat="46.31545" lon="7.59539"><ele>719.2</ele><time>2016-08-06T16:14:58Z</time></trkpt>
<trkpt lat="46.31542" lon="7.59514"><ele>718.2</ele><time>2016-08-06T16:15:00Z</time></trkpt>
<trkpt lat="46.3154" lon="7.59489"><ele>717.2</ele><time>2016-08-06T16:15:02Z</time></trkpt>
<trkpt lat="46.3154" lon="7.59476"><ele>716.8</ele><time>2016-08-06T16:15:03Z</time></trkpt>
<trkpt lat="46.3154" lon="7.59463"><ele>716.4</ele><time>2016-08-06T16:15:04Z</time></trkpt>
<trkpt lat="46.31541" lon="7.59437"><ele>715.2</ele><time>2016-08-06T16:15:06Z</time></trkpt>
<trkpt lat="46.31541" lon="7.59424"><ele>714.8</ele><time>2016-08-06T16:15:07Z</time></trkpt>
<trkpt lat="46.31542" lon="7.5941"><ele>714.2</ele><time>2016-08-06T16:15:08Z</time></trkpt>
<trkpt lat="46.31542" lon="7.59396"><ele>713.8</ele><time>2016-08-06T16:15:09Z</time></trkpt>
<trkpt lat="46.31543" lon="7.59382"><ele>713.2</ele><time>2016-08-06T16:15:10Z</time></trkpt>
<trkpt lat="46.31544" lon="7.59355"><ele>711.8</ele><time>2016-08-06T16:15:12Z</time></trkpt>
<trkpt lat="46.31543" lon="7.59327"><ele>710.6</ele><time>2016-08-06T16:15:14Z</time></trkpt>
<trkpt lat="46.31542" lon="7.59313"><ele>710</ele><time>2016-08-06T16:15:15Z</time></trkpt>
<trkpt lat="46.31539" lon="7.593"><ele>709.2</ele><time>2016-08-06T16:15:16Z</time></trkpt>
<trkpt lat="46.31535" lon="7.59274"><ele>708</ele><time>2016-08-06T16:15:18Z</time></trkpt>
<trkpt lat="46.3153" lon="7.59248"><ele>706.6</ele><time>2016-08-06T16:15:20Z</time></trkpt>
<trkpt lat="46.31525" lon="7.59221"><ele>705.6</ele><time>2016-08-06T16:15:22Z</time></trkpt>
<trkpt lat="46.3152" lon="7.59195"><ele>704.6</ele><time>2016-08-06T16:15:24Z</time></trkpt>
<trkpt lat="46.31517" lon="7.59183"><ele>704.2</ele><time>2016-08-06T16:15:25Z</time></trkpt>
<trkpt lat="46.31513" lon="7.59171"><ele>703.6</ele><time>2016-08-06T16:15:26Z</time></trkpt>
<trkpt lat="46.31506" lon="7.59149"><ele>702.6</ele><time>2016-08-06T16:15:28Z</time></trkpt>
<trkpt lat="46.31499" lon="7.59126"><ele>701.6</ele><time>2016-08-06T16:15:30Z</time></trkpt>
<trkpt lat="46.31496" lon="7.59115"><ele>701.2</ele><time>2016-08-06T16:15:31Z</time></trkpt>
<trkpt lat="46.31494" lon="7.59103"><ele>700.6</ele><time>2016-08-06T16:15:32Z</time></trkpt>
<trkpt lat="46.31489" lon="7.5908"><ele>699.8</ele><time>2016-08-06T16:15:34Z</time></trkpt>
<trkpt lat="46.31487" lon="7.59069"><ele>699.4</ele><time>2016-08-06T16:15:35Z</time></trkpt>
<trkpt lat="46.31488" lon="7.59056"><ele>699</ele><time>2016-08-06T16:15:36Z</time></trkpt>
<trkpt lat="46.3149" lon="7.59044"><ele>698.6</ele><time>2016-08-06T16:15:37Z</time></trkpt>
<trkpt lat="46.31494" lon="7.59033"><ele>698</ele><time>2016-08-06T16:15:38Z</time></trkpt>
<trkpt lat="46.31504" lon="7.59016"><ele>697.2</ele><time>2016-08-06T16:15:40Z</time></trkpt>
<trkpt lat="46.31506" lon="7.59005"><ele>696.8</ele><time>2016-08-06T16:15:41Z</time></trkpt>
<trkpt lat="46.31502" lon="7.58997"><ele>696.4</ele><time>2016-08-06T16:15:42Z</time></trkpt>
<trkpt lat="46.31494" lon="7.58991"><ele>695.8</ele><time>2016-08-06T16:15:43Z</time></trkpt>
<trkpt lat="46.31486" lon="7.58986"><ele>694.8</ele><time>2016-08-06T16:15:44Z</time></trkpt>
<trkpt lat="46.3147" lon="7.58974"><ele>693</ele><time>2016-08-06T16:15:46Z</time></trkpt>
<trkpt lat="46.31454" lon="7.58961"><ele>691.2</ele><time>2016-08-06T16:15:48Z</time></trkpt>
<trkpt lat="46.31438" lon="7.58944"><ele>690</ele><time>2016-08-06T16:15:50Z</time></trkpt>
<trkpt lat="46.31431" lon="7.58935"><ele>689.4</ele><time>2016-08-06T16:15:51Z</time></trkpt>
<trkpt lat="46.31425" lon="7.58923"><ele>688.8</ele><time>2016-08-06T16:15:52Z</time></trkpt>
<trkpt lat="46.31421" lon="7.58911"><ele>688.2</ele><time>2016-08-06T16:15:53Z</time></trkpt>
<trkpt lat="46.31418" lon="7.58897"><ele>687.6</ele><time>2016-08-06T16:15:54Z</time></trkpt>
<trkpt lat="46.31413" lon="7.58867"><ele>686.8</ele><time>2016-08-06T16:15:56Z</time></trkpt>
<trkpt lat="46.31407" lon="7.58838"><ele>686</ele><time>2016-08-06T16:15:58Z</time></trkpt>
<trkpt lat="46.31399" lon="7.58809"><ele>685.4</ele><time>2016-08-06T16:16:00Z</time></trkpt>
<trkpt lat="46.31395" lon="7.58794"><ele>685</ele><time>2016-08-06T16:16:01Z</time></trkpt>
<trkpt lat="46.31391" lon="7.58781"><ele>684.6</ele><time>2016-08-06T16:16:02Z</time></trkpt>
<trkpt lat="46.31384" lon="7.58754"><ele>683.8</ele><time>2016-08-06T16:16:04Z</time></trkpt>
<trkpt lat="46.31382" lon="7.58725"><ele>683</ele><time>2016-08-06T16:16:06Z</time></trkpt>
<trkpt lat="46.3138" lon="7.58696"><ele>682.2</ele><time>2016-08-06T16:16:08Z</time></trkpt>
<trkpt lat="46.31379" lon="7.58682"><ele>681.8</ele><time>2016-08-06T16:16:09Z</time></trkpt>
<trkpt lat="46.31378" lon="7.58667"><ele>681.4</ele><time>2016-08-06T16:16:10Z</time></trkpt>
<trkpt lat="46.31377" lon="7.58652"><ele>681</ele><time>2016-08-06T16:16:11Z</time></trkpt>
<trkpt lat="46.31377" lon="7.58638"><ele>680.4</ele><time>2016-08-06T16:16:12Z</time></trkpt>
<trkpt lat="46.31382" lon="7.58609"><ele>679.2</ele><time>2016-08-06T16:16:14Z</time></trkpt>
<trkpt lat="46.31386" lon="7.5858"><ele>678</ele><time>2016-08-06T16:16:16Z</time></trkpt>
<trkpt lat="46.31385" lon="7.58552"><ele>676.8</ele><time>2016-08-06T16:16:18Z</time></trkpt>
<trkpt lat="46.31384" lon="7.58538"><ele>676.2</ele><time>2016-08-06T16:16:19Z</time></trkpt>
<trkpt lat="46.31381" lon="7.58524"><ele>675.6</ele><time>2016-08-06T16:16:20Z</time></trkpt>
<trkpt lat="46.31379" lon="7.58511"><ele>675</ele><time>2016-08-06T16:16:21Z</time></trkpt>
<trkpt lat="46.31379" lon="7.58498"><ele>674.4</ele><time>2016-08-06T16:16:22Z</time></trkpt>
<trkpt lat="46.31379" lon="7.58486"><ele>673.4</ele><time>2016-08-06T16:16:23Z</time></trkpt>
<trkpt lat="46.31381" lon="7.58474"><ele>672.6</ele><time>2016-08-06T16:16:24Z</time></trkpt>
<trkpt lat="46.31384" lon="7.58451"><ele>670.6</ele><time>2016-08-06T16:16:26Z</time></trkpt>
<trkpt lat="46.31382" lon="7.58445"><ele>669.8</ele><time>2016-08-06T16:16:27Z</time></trkpt>
<trkpt lat="46.31378" lon="7.58442"><ele>668.8</ele><time>2016-08-06T16:16:28Z</time></trkpt>
<trkpt lat="46.31374" lon="7.58446"><ele>667.6</ele><time>2016-08-06T16:16:29Z</time></trkpt>
<trkpt lat="46.31372" lon="7.58453"><ele>666.4</ele><time>2016-08-06T16:16:30Z</time></trkpt>
<trkpt lat="46.3137" lon="7.58462"><ele>665.2</ele><time>2016-08-06T16:16:31Z</time></trkpt>
<trkpt lat="46.3137" lon="7.58474"><ele>664</ele><time>2016-08-06T16:16:32Z</time></trkpt>
<trkpt lat="46.31371" lon="7.58487"><ele>663</ele><time>2016-08-06T16:16:33Z</time></trkpt>
<trkpt lat="46.31371" lon="7.58499"><ele>662.4</ele><time>2016-08-06T16:16:34Z</time></trkpt>
<trkpt lat="46.31372" lon="7.58524"><ele>661.6</ele><time>2016-08-06T16:16:36Z</time></trkpt>
<trkpt lat="46.31372" lon="7.58536"><ele>661</ele><time>2016-08-06T16:16:37Z</time></trkpt>
<trkpt lat="46.31372" lon="7.5855"><ele>660.6</ele><time>2016-08-06T16:16:38Z</time></trkpt>
<trkpt lat="46.3137" lon="7.58578"><ele>659.6</ele><time>2016-08-06T16:16:40Z</time></trkpt>
<trkpt lat="46.31359" lon="7.58604"><ele>658.8</ele><time>2016-08-06T16:16:42Z</time></trkpt>
<trkpt lat="46.31349" lon="7.5863"><ele>657.8</ele><time>2016-08-06T16:16:44Z</time></trkpt>
<trkpt lat="46.31346" lon="7.58644"><ele>657.2</ele><time>2016-08-06T16:16:45Z</time></trkpt>
<trkpt lat="46.31343" lon="7.5866"><ele>656.8</ele><time>2016-08-06T16:16:46Z</time></trkpt>
<trkpt lat="46.31341" lon="7.58695"><ele>655.8</ele><time>2016-08-06T16:16:48Z</time></trkpt>
<trkpt lat="46.31339" lon="7.58712"><ele>655.2</ele><time>2016-08-06T16:16:49Z</time></trkpt>
<trkpt lat="46.31336" lon="7.5873"><ele>654.8</ele><time>2016-08-06T16:16:50Z</time></trkpt>
<trkpt lat="46.31334" lon="7.58747"><ele>654.2</ele><time>2016-08-06T16:16:51Z</time></trkpt>
<trkpt lat="46.31331" lon="7.58764"><ele>653.6</ele><time>2016-08-06T16:16:52Z</time></trkpt>
<trkpt lat="46.31328" lon="7.58781"><ele>653.2</ele><time>2016-08-06T16:16:53Z</time></trkpt>
<trkpt lat="46.31326" lon="7.58796"><ele>652.6</ele><time>2016-08-06T16:16:54Z</time></trkpt>
<trkpt lat="46.31322" lon="7.58823"><ele>651.4</ele><time>2016-08-06T16:16:56Z</time></trkpt>
<trkpt lat="46.31318" lon="7.5883"><ele>650.2</ele><time>2016-08-06T16:16:57Z</time></trkpt>
<trkpt lat="46.31314" lon="7.5883"><ele>649</ele><time>2016-08-06T16:16:58Z</time></trkpt>
<trkpt lat="46.3131" lon="7.58819"><ele>646.6</ele><time>2016-08-06T16:17:00Z</time></trkpt>
<trkpt lat="46.31313" lon="7.58798"><ele>644.6</ele><time>2016-08-06T16:17:02Z</time></trkpt>
<trkpt lat="46.31316" lon="7.58778"><ele>644.2</ele><time>2016-08-06T16:17:04Z</time></trkpt>
<trkpt lat="46.31319" lon="7.58758"><ele>643.8</ele><time>2016-08-06T16:17:06Z</time></trkpt>
<trkpt lat="46.3132" lon="7.58747"><ele>643.6</ele><time>2016-08-06T16:17:07Z</time></trkpt>
<trkpt lat="46.31321" lon="7.58736"><ele>643.2</ele><time>2016-08-06T16:17:08Z</time></trkpt>
<trkpt lat="46.31322" lon="7.58712"><ele>642.8</ele><time>2016-08-06T16:17:10Z</time></trkpt>
<trkpt lat="46.3132" lon="7.58686"><ele>642.4</ele><time>2016-08-06T16:17:12Z</time></trkpt>
<trkpt lat="46.31318" lon="7.58659"><ele>642</ele><time>2016-08-06T16:17:14Z</time></trkpt>
<trkpt lat="46.31318" lon="7.58646"><ele>641.8</ele><time>2016-08-06T16:17:15Z</time></trkpt>
<trkpt lat="46.31319" lon="7.58632"><ele>641.6</ele><time>2016-08-06T16:17:16Z</time></trkpt>
<trkpt lat="46.31321" lon="7.58604"><ele>641</ele><time>2016-08-06T16:17:18Z</time></trkpt>
<trkpt lat="46.31322" lon="7.58576"><ele>640.6</ele><time>2016-08-06T16:17:20Z</time></trkpt>
<trkpt lat="46.31319" lon="7.58546"><ele>639.2</ele><time>2016-08-06T16:17:22Z</time></trkpt>
<trkpt lat="46.31316" lon="7.58517"><ele>638</ele><time>2016-08-06T16:17:24Z</time></trkpt>
<trkpt lat="46.31315" lon="7.58502"><ele>637.2</ele><time>2016-08-06T16:17:25Z</time></trkpt>
<trkpt lat="46.31314" lon="7.58487"><ele>636.4</ele><time>2016-08-06T16:17:26Z</time></trkpt>
<trkpt lat="46.31313" lon="7.58471"><ele>635.6</ele><time>2016-08-06T16:17:27Z</time></trkpt>
<trkpt lat="46.31314" lon="7.58456"><ele>634.8</ele><time>2016-08-06T16:17:28Z</time></trkpt>
<trkpt lat="46.31316" lon="7.58424"><ele>633.2</ele><time>2016-08-06T16:17:30Z</time></trkpt>
<trkpt lat="46.31317" lon="7.58393"><ele>631.4</ele><time>2016-08-06T16:17:32Z</time></trkpt>
<trkpt lat="46.31313" lon="7.5836"><ele>629.8</ele><time>2016-08-06T16:17:34Z</time></trkpt>
<trkpt lat="46.31305" lon="7.58328"><ele>628.2</ele><time>2016-08-06T16:17:36Z</time></trkpt>
<trkpt lat="46.31298" lon="7.58296"><ele>627.2</ele><time>2016-08-06T16:17:38Z</time></trkpt>
<trkpt lat="46.31296" lon="7.58281"><ele>626.8</ele><time>2016-08-06T16:17:39Z</time></trkpt>
<trkpt lat="46.31298" lon="7.58266"><ele>626.2</ele><time>2016-08-06T16:17:40Z</time></trkpt>
<trkpt lat="46.313" lon="7.58252"><ele>625.8</ele><time>2016-08-06T16:17:41Z</time></trkpt>
<trkpt lat="46.31306" lon="7.58239"><ele>625.2</ele><time>2016-08-06T16:17:42Z</time></trkpt>
<trkpt lat="46.31317" lon="7.58213"><ele>624.4</ele><time>2016-08-06T16:17:44Z</time></trkpt>
<trkpt lat="46.31327" lon="7.58186"><ele>623</ele><time>2016-08-06T16:17:46Z</time></trkpt>
<trkpt lat="46.31331" lon="7.58171"><ele>621.4</ele><time>2016-08-06T16:17:47Z</time></trkpt>
<trkpt lat="46.31331" lon="7.58155"><ele>619.8</ele><time>2016-08-06T16:17:48Z</time></trkpt>
<trkpt lat="46.31331" lon="7.58139"><ele>618.2</ele><time>2016-08-06T16:17:49Z</time></trkpt>
<trkpt lat="46.31329" lon="7.58124"><ele>616.6</ele><time>2016-08-06T16:17:50Z</time></trkpt>
<trkpt lat="46.31325" lon="7.5811"><ele>614.8</ele><time>2016-08-06T16:17:51Z</time></trkpt>
<trkpt lat="46.31319" lon="7.58096"><ele>613.4</ele><time>2016-08-06T16:17:52Z</time></trkpt>
<trkpt lat="46.31307" lon="7.58069"><ele>612.2</ele><time>2016-08-06T16:17:54Z</time></trkpt>
<trkpt lat="46.31301" lon="7.58055"><ele>611.6</ele><time>2016-08-06T16:17:55Z</time></trkpt>
<trkpt lat="46.31296" lon="7.58041"><ele>611</ele><time>2016-08-06T16:17:56Z</time></trkpt>
<trkpt lat="46.31291" lon="7.58027"><ele>610.2</ele><time>2016-08-06T16:17:57Z</time></trkpt>
<trkpt lat="46.31286" lon="7.58012"><ele>609.6</ele><time>2016-08-06T16:17:58Z</time></trkpt>
<trkpt lat="46.31276" lon="7.57984"><ele>608</ele><time>2016-08-06T16:18:00Z</time></trkpt>
<trkpt lat="46.31271" lon="7.57954"><ele>606.6</ele><time>2016-08-06T16:18:02Z</time></trkpt>
<trkpt lat="46.31269" lon="7.57939"><ele>606</ele><time>2016-08-06T16:18:03Z</time></trkpt>
<trkpt lat="46.31271" lon="7.57923"><ele>605.2</ele><time>2016-08-06T16:18:04Z</time></trkpt>
<trkpt lat="46.31273" lon="7.57908"><ele>604.4</ele><time>2016-08-06T16:18:05Z</time></trkpt>
<trkpt lat="46.31277" lon="7.57895"><ele>603.8</ele><time>2016-08-06T16:18:06Z</time></trkpt>
<trkpt lat="46.31285" lon="7.57868"><ele>602.4</ele><time>2016-08-06T16:18:08Z</time></trkpt>
<trkpt lat="46.31292" lon="7.57841"><ele>601.8</ele><time>2016-08-06T16:18:10Z</time></trkpt>
<trkpt lat="46.31296" lon="7.57815"><ele>601.4</ele><time>2016-08-06T16:18:12Z</time></trkpt>
<trkpt lat="46.31299" lon="7.57789"><ele>600.8</ele><time>2016-08-06T16:18:14Z</time></trkpt>
<trkpt lat="46.31301" lon="7.57776"><ele>600.6</ele><time>2016-08-06T16:18:15Z</time></trkpt>
<trkpt lat="46.31302" lon="7.57764"><ele>600.4</ele><time>2016-08-06T16:18:16Z</time></trkpt>
<trkpt lat="46.31303" lon="7.57739"><ele>599.8</ele><time>2016-08-06T16:18:18Z</time></trkpt>
<trkpt lat="46.31305" lon="7.57715"><ele>599.4</ele><time>2016-08-06T16:18:20Z</time></trkpt>
<trkpt lat="46.31302" lon="7.57691"><ele>598.8</ele><time>2016-08-06T16:18:22Z</time></trkpt>
<trkpt lat="46.313" lon="7.57668"><ele>598.4</ele><time>2016-08-06T16:18:24Z</time></trkpt>
<trkpt lat="46.31299" lon="7.57656"><ele>598</ele><time>2016-08-06T16:18:25Z</time></trkpt>
<trkpt lat="46.31297" lon="7.57644"><ele>598</ele><time>2016-08-06T16:18:26Z</time></trkpt>
<trkpt lat="46.31294" lon="7.57621"><ele>597.8</ele><time>2016-08-06T16:18:28Z</time></trkpt>
<trkpt lat="46.31291" lon="7.57599"><ele>597.6</ele><time>2016-08-06T16:18:30Z</time></trkpt>
<trkpt lat="46.31288" lon="7.57576"><ele>597.4</ele><time>2016-08-06T16:18:32Z</time></trkpt>
<trkpt lat="46.31283" lon="7.57553"><ele>597.4</ele><time>2016-08-06T16:18:34Z</time></trkpt>
<trkpt lat="46.31278" lon="7.57531"><ele>597.2</ele><time>2016-08-06T16:18:36Z</time></trkpt>
<trkpt lat="46.31273" lon="7.57509"><ele>597.2</ele><time>2016-08-06T16:18:38Z</time></trkpt>
<trkpt lat="46.31267" lon="7.57488"><ele>597</ele><time>2016-08-06T16:18:40Z</time></trkpt>
<trkpt lat="46.31262" lon="7.57466"><ele>596.8</ele><time>2016-08-06T16:18:42Z</time></trkpt>
<trkpt lat="46.31256" lon="7.57445"><ele>596.2</ele><time>2016-08-06T16:18:44Z</time></trkpt>
<trkpt lat="46.31251" lon="7.57423"><ele>595.4</ele><time>2016-08-06T16:18:46Z</time></trkpt>
<trkpt lat="46.31245" lon="7.57401"><ele>594.8</ele><time>2016-08-06T16:18:48Z</time></trkpt>
<trkpt lat="46.3124" lon="7.57379"><ele>594</ele><time>2016-08-06T16:18:50Z</time></trkpt>
<trkpt lat="46.31236" lon="7.57356"><ele>593.4</ele><time>2016-08-06T16:18:52Z</time></trkpt>
<trkpt lat="46.31235" lon="7.57345"><ele>593</ele><time>2016-08-06T16:18:53Z</time></trkpt>
<trkpt lat="46.31233" lon="7.57334"><ele>592.4</ele><time>2016-08-06T16:18:54Z</time></trkpt>
<trkpt lat="46.3123" lon="7.57311"><ele>591.4</ele><time>2016-08-06T16:18:56Z</time></trkpt>
<trkpt lat="46.31228" lon="7.57287"><ele>590.6</ele><time>2016-08-06T16:18:58Z</time></trkpt>
<trkpt lat="46.31225" lon="7.57263"><ele>590.2</ele><time>2016-08-06T16:19:00Z</time></trkpt>
<trkpt lat="46.31223" lon="7.57239"><ele>590</ele><time>2016-08-06T16:19:02Z</time></trkpt>
<trkpt lat="46.31217" lon="7.57215"><ele>589.8</ele><time>2016-08-06T16:19:04Z</time></trkpt>
<trkpt lat="46.31211" lon="7.5719"><ele>589.6</ele><time>2016-08-06T16:19:06Z</time></trkpt>
<trkpt lat="46.31208" lon="7.57177"><ele>589.4</ele><time>2016-08-06T16:19:07Z</time></trkpt>
<trkpt lat="46.31205" lon="7.57165"><ele>589.2</ele><time>2016-08-06T16:19:08Z</time></trkpt>
<trkpt lat="46.31202" lon="7.57152"><ele>589.2</ele><time>2016-08-06T16:19:09Z</time></trkpt>
<trkpt lat="46.31199" lon="7.57139"><ele>588.8</ele><time>2016-08-06T16:19:10Z</time></trkpt>
<trkpt lat="46.31194" lon="7.57113"><ele>588</ele><time>2016-08-06T16:19:12Z</time></trkpt>
<trkpt lat="46.31189" lon="7.57087"><ele>587.4</ele><time>2016-08-06T16:19:14Z</time></trkpt>
<trkpt lat="46.31186" lon="7.57075"><ele>586.8</ele><time>2016-08-06T16:19:15Z</time></trkpt>
<trkpt lat="46.31182" lon="7.57065"><ele>586</ele><time>2016-08-06T16:19:16Z</time></trkpt>
<trkpt lat="46.31177" lon="7.57055"><ele>585.2</ele><time>2016-08-06T16:19:17Z</time></trkpt>
<trkpt lat="46.31172" lon="7.57048"><ele>584.4</ele><time>2016-08-06T16:19:18Z</time></trkpt>
<trkpt lat="46.31161" lon="7.57032"><ele>582.6</ele><time>2016-08-06T16:19:20Z</time></trkpt>
<trkpt lat="46.31159" lon="7.57022"><ele>582</ele><time>2016-08-06T16:19:21Z</time></trkpt>
<trkpt lat="46.31156" lon="7.57013"><ele>582</ele><time>2016-08-06T16:19:22Z</time></trkpt>
<trkpt lat="46.31151" lon="7.56994"><ele>581.8</ele><time>2016-08-06T16:19:24Z</time></trkpt>
<trkpt lat="46.31145" lon="7.56976"><ele>581.6</ele><time>2016-08-06T16:19:26Z</time></trkpt>
<trkpt lat="46.31136" lon="7.56966"><ele>581.2</ele><time>2016-08-06T16:19:28Z</time></trkpt>
<trkpt lat="46.31121" lon="7.56972"><ele>581</ele><time>2016-08-06T16:19:30Z</time></trkpt>
<trkpt lat="46.31113" lon="7.56973"><ele>581</ele><time>2016-08-06T16:19:31Z</time></trkpt>
<trkpt lat="46.31106" lon="7.56971"><ele>580.8</ele><time>2016-08-06T16:19:32Z</time></trkpt>
<trkpt lat="46.31094" lon="7.56959"><ele>580.6</ele><time>2016-08-06T16:19:34Z</time></trkpt>
<trkpt lat="46.31082" lon="7.56948"><ele>580.4</ele><time>2016-08-06T16:19:36Z</time></trkpt>
<trkpt lat="46.3107" lon="7.56937"><ele>580.2</ele><time>2016-08-06T16:19:38Z</time></trkpt>
<trkpt lat="46.31057" lon="7.56931"><ele>580.2</ele><time>2016-08-06T16:19:40Z</time></trkpt>
<trkpt lat="46.31043" lon="7.56925"><ele>580.2</ele><time>2016-08-06T16:19:42Z</time></trkpt>
<trkpt lat="46.3103" lon="7.56919"><ele>580</ele><time>2016-08-06T16:19:44Z</time></trkpt>
<trkpt lat="46.31014" lon="7.56916"><ele>579.6</ele><time>2016-08-06T16:19:46Z</time></trkpt>
<trkpt lat="46.30999" lon="7.56914"><ele>579.2</ele><time>2016-08-06T16:19:48Z</time></trkpt>
<trkpt lat="46.30983" lon="7.56911"><ele>578.6</ele><time>2016-08-06T16:19:50Z</time></trkpt>
<trkpt lat="46.30966" lon="7.56906"><ele>578.2</ele><time>2016-08-06T16:19:52Z</time></trkpt>
<trkpt lat="46.3095" lon="7.56901"><ele>577.8</ele><time>2016-08-06T16:19:54Z</time></trkpt>
<trkpt lat="46.30941" lon="7.56898"><ele>577.6</ele><time>2016-08-06T16:19:55Z</time></trkpt>
<trkpt lat="46.30934" lon="7.56891"><ele>577.4</ele><time>2016-08-06T16:19:56Z</time></trkpt>
<trkpt lat="46.30926" lon="7.56884"><ele>577</ele><time>2016-08-06T16:19:57Z</time></trkpt>
<trkpt lat="46.30919" lon="7.56873"><ele>576.8</ele><time>2016-08-06T16:19:58Z</time></trkpt>
<trkpt lat="46.30914" lon="7.56861"><ele>576.6</ele><time>2016-08-06T16:19:59Z</time></trkpt>
<trkpt lat="46.30911" lon="7.56848"><ele>576.4</ele><time>2016-08-06T16:20:00Z</time></trkpt>
<trkpt lat="46.30908" lon="7.56835"><ele>576.2</ele><time>2016-08-06T16:20:01Z</time></trkpt>
<trkpt lat="46.30905" lon="7.56821"><ele>575.6</ele><time>2016-08-06T16:20:02Z</time></trkpt>
<trkpt lat="46.30906" lon="7.56791"><ele>574.4</ele><time>2016-08-06T16:20:04Z</time></trkpt>
<trkpt lat="46.30907" lon="7.56761"><ele>573.4</ele><time>2016-08-06T16:20:06Z</time></trkpt>
<trkpt lat="46.30907" lon="7.56746"><ele>572.8</ele><time>2016-08-06T16:20:07Z</time></trkpt>
<trkpt lat="46.30903" lon="7.56732"><ele>572.4</ele><time>2016-08-06T16:20:08Z</time></trkpt>
<trkpt lat="46.30895" lon="7.56704"><ele>571.8</ele><time>2016-08-06T16:20:10Z</time></trkpt>
<trkpt lat="46.3088" lon="7.56686"><ele>571</ele><time>2016-08-06T16:20:12Z</time></trkpt>
<trkpt lat="46.30859" lon="7.56676"><ele>570.4</ele><time>2016-08-06T16:20:14Z</time></trkpt>
<trkpt lat="46.30838" lon="7.56667"><ele>569.6</ele><time>2016-08-06T16:20:16Z</time></trkpt>
<trkpt lat="46.30827" lon="7.56663"><ele>569.2</ele><time>2016-08-06T16:20:17Z</time></trkpt>
<trkpt lat="46.30817" lon="7.5666"><ele>569</ele><time>2016-08-06T16:20:18Z</time></trkpt>
<trkpt lat="46.30807" lon="7.56658"><ele>568.4</ele><time>2016-08-06T16:20:19Z</time></trkpt>
<trkpt lat="46.30797" lon="7.56655"><ele>567.8</ele><time>2016-08-06T16:20:20Z</time></trkpt>
<trkpt lat="46.30776" lon="7.5665"><ele>566.2</ele><time>2016-08-06T16:20:22Z</time></trkpt>
<trkpt lat="46.30754" lon="7.56647"><ele>564.8</ele><time>2016-08-06T16:20:24Z</time></trkpt>
<trkpt lat="46.30731" lon="7.56644"><ele>563.4</ele><time>2016-08-06T16:20:26Z</time></trkpt>
<trkpt lat="46.30709" lon="7.56646"><ele>561.8</ele><time>2016-08-06T16:20:28Z</time></trkpt>
<trkpt lat="46.30687" lon="7.56648"><ele>560.4</ele><time>2016-08-06T16:20:30Z</time></trkpt>
<trkpt lat="46.30677" lon="7.5665"><ele>559.8</ele><time>2016-08-06T16:20:31Z</time></trkpt>
<trkpt lat="46.30666" lon="7.56651"><ele>559.4</ele><time>2016-08-06T16:20:32Z</time></trkpt>
<trkpt lat="46.30644" lon="7.56655"><ele>558.4</ele><time>2016-08-06T16:20:34Z</time></trkpt>
<trkpt lat="46.30623" lon="7.56658"><ele>557.6</ele><time>2016-08-06T16:20:36Z</time></trkpt>
<trkpt lat="46.30603" lon="7.56664"><ele>556.6</ele><time>2016-08-06T16:20:38Z</time></trkpt>
<trkpt lat="46.30582" lon="7.56669"><ele>555.8</ele><time>2016-08-06T16:20:40Z</time></trkpt>
<trkpt lat="46.30572" lon="7.56671"><ele>555.2</ele><time>2016-08-06T16:20:41Z</time></trkpt>
<trkpt lat="46.30562" lon="7.56673"><ele>554.6</ele><time>2016-08-06T16:20:42Z</time></trkpt>
<trkpt lat="46.30543" lon="7.56677"><ele>551.4</ele><time>2016-08-06T16:20:44Z</time></trkpt>
<trkpt lat="46.30524" lon="7.5668"><ele>548</ele><time>2016-08-06T16:20:46Z</time></trkpt>
<trkpt lat="46.30515" lon="7.56682"><ele>546.8</ele><time>2016-08-06T16:20:47Z</time></trkpt>
<trkpt lat="46.30506" lon="7.56683"><ele>546.6</ele><time>2016-08-06T16:20:48Z</time></trkpt>
<trkpt lat="46.30488" lon="7.56685"><ele>546.4</ele><time>2016-08-06T16:20:50Z</time></trkpt>
<trkpt lat="46.30479" lon="7.56685"><ele>546.2</ele><time>2016-08-06T16:20:51Z</time></trkpt>
<trkpt lat="46.3047" lon="7.56683"><ele>546.2</ele><time>2016-08-06T16:20:52Z</time></trkpt>
<trkpt lat="46.30453" lon="7.56678"><ele>545.8</ele><time>2016-08-06T16:20:54Z</time></trkpt>
<trkpt lat="46.30435" lon="7.56673"><ele>545.6</ele><time>2016-08-06T16:20:56Z</time></trkpt>
<trkpt lat="46.30427" lon="7.5667"><ele>545.4</ele><time>2016-08-06T16:20:57Z</time></trkpt>
<trkpt lat="46.30419" lon="7.56669"><ele>545.2</ele><time>2016-08-06T16:20:58Z</time></trkpt>
<trkpt lat="46.30405" lon="7.56665"><ele>545</ele><time>2016-08-06T16:21:00Z</time></trkpt>
<trkpt lat="46.30389" lon="7.56655"><ele>544.8</ele><time>2016-08-06T16:21:02Z</time></trkpt>
<trkpt lat="46.30374" lon="7.56645"><ele>544.4</ele><time>2016-08-06T16:21:04Z</time></trkpt>
<trkpt lat="46.30358" lon="7.56634"><ele>544.4</ele><time>2016-08-06T16:21:06Z</time></trkpt>
<trkpt lat="46.30346" lon="7.56619"><ele>544.2</ele><time>2016-08-06T16:21:08Z</time></trkpt>
<trkpt lat="46.30333" lon="7.56604"><ele>544.2</ele><time>2016-08-06T16:21:10Z</time></trkpt>
<trkpt lat="46.3032" lon="7.56589"><ele>544.2</ele><time>2016-08-06T16:21:12Z</time></trkpt>
<trkpt lat="46.30309" lon="7.56576"><ele>544</ele><time>2016-08-06T16:21:14Z</time></trkpt>
<trkpt lat="46.30298" lon="7.56562"><ele>544</ele><time>2016-08-06T16:21:16Z</time></trkpt>
<trkpt lat="46.30287" lon="7.56548"><ele>543.8</ele><time>2016-08-06T16:21:18Z</time></trkpt>
<trkpt lat="46.30279" lon="7.56533"><ele>543.8</ele><time>2016-08-06T16:21:20Z</time></trkpt>
<trkpt lat="46.30275" lon="7.56525"><ele>543.8</ele><time>2016-08-06T16:21:21Z</time></trkpt>
<trkpt lat="46.30271" lon="7.56518"><ele>543.8</ele><time>2016-08-06T16:21:22Z</time></trkpt>
<trkpt lat="46.30263" lon="7.56503"><ele>543.6</ele><time>2016-08-06T16:21:24Z</time></trkpt>
<trkpt lat="46.30259" lon="7.56495"><ele>543.6</ele><time>2016-08-06T16:21:25Z</time></trkpt>
<trkpt lat="46.30255" lon="7.56487"><ele>543.6</ele><time>2016-08-06T16:21:26Z</time></trkpt>
<trkpt lat="46.30249" lon="7.56471"><ele>543.6</ele><time>2016-08-06T16:21:28Z</time></trkpt>
<trkpt lat="46.30242" lon="7.56454"><ele>543.4</ele><time>2016-08-06T16:21:30Z</time></trkpt>
<trkpt lat="46.30235" lon="7.56438"><ele>543.4</ele><time>2016-08-06T16:21:32Z</time></trkpt>
<trkpt lat="46.30228" lon="7.56423"><ele>543.2</ele><time>2016-08-06T16:21:34Z</time></trkpt>
<trkpt lat="46.30221" lon="7.56407"><ele>543.2</ele><time>2016-08-06T16:21:36Z</time></trkpt>
<trkpt lat="46.30214" lon="7.56392"><ele>543.2</ele><time>2016-08-06T16:21:38Z</time></trkpt>
<trkpt lat="46.30211" lon="7.56384"><ele>543</ele><time>2016-08-06T16:21:39Z</time></trkpt>
<trkpt lat="46.30207" lon="7.56376"><ele>543</ele><time>2016-08-06T16:21:40Z</time></trkpt>
<trkpt lat="46.302" lon="7.56361"><ele>543</ele><time>2016-08-06T16:21:42Z</time></trkpt>
<trkpt lat="46.30193" lon="7.56345"><ele>543</ele><time>2016-08-06T16:21:44Z</time></trkpt>
<trkpt lat="46.30186" lon="7.5633"><ele>542.8</ele><time>2016-08-06T16:21:46Z</time></trkpt>
<trkpt lat="46.30183" lon="7.56322"><ele>542.8</ele><time>2016-08-06T16:21:47Z</time></trkpt>
<trkpt lat="46.3018" lon="7.56315"><ele>542.8</ele><time>2016-08-06T16:21:48Z</time></trkpt>
<trkpt lat="46.30175" lon="7.563"><ele>542.6</ele><time>2016-08-06T16:21:50Z</time></trkpt>
<trkpt lat="46.3017" lon="7.56285"><ele>542.6</ele><time>2016-08-06T16:21:52Z</time></trkpt>
<trkpt lat="46.30164" lon="7.5627"><ele>542.6</ele><time>2016-08-06T16:21:54Z</time></trkpt>
<trkpt lat="46.30162" lon="7.56263"><ele>542.6</ele><time>2016-08-06T16:21:55Z</time></trkpt>
<trkpt lat="46.30159" lon="7.56256"><ele>542.4</ele><time>2016-08-06T16:21:56Z</time></trkpt>
<trkpt lat="46.30153" lon="7.56242"><ele>542.4</ele><time>2016-08-06T16:21:58Z</time></trkpt>
<trkpt lat="46.30148" lon="7.56229"><ele>542.4</ele><time>2016-08-06T16:22:00Z</time></trkpt>
<trkpt lat="46.30145" lon="7.56214"><ele>542.2</ele><time>2016-08-06T16:22:02Z</time></trkpt>
<trkpt lat="46.30137" lon="7.56201"><ele>542.2</ele><time>2016-08-06T16:22:04Z</time></trkpt>
<trkpt lat="46.3013" lon="7.56188"><ele>542.2</ele><time>2016-08-06T16:22:06Z</time></trkpt>
<trkpt lat="46.30123" lon="7.56175"><ele>542</ele><time>2016-08-06T16:22:08Z</time></trkpt>
<trkpt lat="46.30115" lon="7.56162"><ele>542</ele><time>2016-08-06T16:22:10Z</time></trkpt>
<trkpt lat="46.30109" lon="7.56147"><ele>541.8</ele><time>2016-08-06T16:22:12Z</time></trkpt>
<trkpt lat="46.30103" lon="7.56132"><ele>541.8</ele><time>2016-08-06T16:22:14Z</time></trkpt>
<trkpt lat="46.30097" lon="7.56117"><ele>541.8</ele><time>2016-08-06T16:22:16Z</time></trkpt>
<trkpt lat="46.30091" lon="7.56102"><ele>541.6</ele><time>2016-08-06T16:22:18Z</time></trkpt>
<trkpt lat="46.30086" lon="7.56087"><ele>541.6</ele><time>2016-08-06T16:22:20Z</time></trkpt>
<trkpt lat="46.3008" lon="7.56073"><ele>541.6</ele><time>2016-08-06T16:22:22Z</time></trkpt>
<trkpt lat="46.30074" lon="7.56059"><ele>541.4</ele><time>2016-08-06T16:22:24Z</time></trkpt>
<trkpt lat="46.30069" lon="7.56044"><ele>541.4</ele><time>2016-08-06T16:22:26Z</time></trkpt>
<trkpt lat="46.30062" lon="7.56029"><ele>541.2</ele><time>2016-08-06T16:22:28Z</time></trkpt>
<trkpt lat="46.30056" lon="7.56014"><ele>541.2</ele><time>2016-08-06T16:22:30Z</time></trkpt>
<trkpt lat="46.30049" lon="7.55999"><ele>541.2</ele><time>2016-08-06T16:22:32Z</time></trkpt>
<trkpt lat="46.30043" lon="7.55984"><ele>541</ele><time>2016-08-06T16:22:34Z</time></trkpt>
<trkpt lat="46.30037" lon="7.55969"><ele>541</ele><time>2016-08-06T16:22:36Z</time></trkpt>
<trkpt lat="46.30031" lon="7.55954"><ele>541</ele><time>2016-08-06T16:22:38Z</time></trkpt>
<trkpt lat="46.30025" lon="7.55939"><ele>540.8</ele><time>2016-08-06T16:22:40Z</time></trkpt>
<trkpt lat="46.30019" lon="7.55924"><ele>540.8</ele><time>2016-08-06T16:22:42Z</time></trkpt>
<trkpt lat="46.30013" lon="7.55909"><ele>540.8</ele><time>2016-08-06T16:22:44Z</time></trkpt>
<trkpt lat="46.30006" lon="7.55894"><ele>540.6</ele><time>2016-08-06T16:22:46Z</time></trkpt>
<trkpt lat="46.3" lon="7.55879"><ele>540.6</ele><time>2016-08-06T16:22:48Z</time></trkpt>
<trkpt lat="46.29993" lon="7.55864"><ele>540.4</ele><time>2016-08-06T16:22:50Z</time></trkpt>
<trkpt lat="46.29987" lon="7.55849"><ele>540.4</ele><time>2016-08-06T16:22:52Z</time></trkpt>
<trkpt lat="46.29981" lon="7.55833"><ele>540.4</ele><time>2016-08-06T16:22:54Z</time></trkpt>
<trkpt lat="46.29974" lon="7.55818"><ele>540.2</ele><time>2016-08-06T16:22:56Z</time></trkpt>
<trkpt lat="46.29968" lon="7.55803"><ele>540.2</ele><time>2016-08-06T16:22:58Z</time></trkpt>
<trkpt lat="46.29961" lon="7.55787"><ele>540.2</ele><time>2016-08-06T16:23:00Z</time></trkpt>
<trkpt lat="46.29954" lon="7.55772"><ele>540</ele><time>2016-08-06T16:23:02Z</time></trkpt>
<trkpt lat="46.29948" lon="7.55756"><ele>540</ele><time>2016-08-06T16:23:04Z</time></trkpt>
<trkpt lat="46.29941" lon="7.5574"><ele>539.8</ele><time>2016-08-06T16:23:06Z</time></trkpt>
<trkpt lat="46.29937" lon="7.55733"><ele>539.8</ele><time>2016-08-06T16:23:07Z</time></trkpt>
<trkpt lat="46.29934" lon="7.55725"><ele>539.8</ele><time>2016-08-06T16:23:08Z</time></trkpt>
<trkpt lat="46.29927" lon="7.5571"><ele>539.8</ele><time>2016-08-06T16:23:10Z</time></trkpt>
<trkpt lat="46.2992" lon="7.55694"><ele>540</ele><time>2016-08-06T16:23:12Z</time></trkpt>
<trkpt lat="46.29914" lon="7.55679"><ele>540</ele><time>2016-08-06T16:23:14Z</time></trkpt>
<trkpt lat="46.29906" lon="7.55662"><ele>540</ele><time>2016-08-06T16:23:16Z</time></trkpt>
<trkpt lat="46.29899" lon="7.55646"><ele>540</ele><time>2016-08-06T16:23:18Z</time></trkpt>
<trkpt lat="46.29892" lon="7.55629"><ele>540</ele><time>2016-08-06T16:23:20Z</time></trkpt>
<trkpt lat="46.29888" lon="7.55621"><ele>540</ele><time>2016-08-06T16:23:21Z</time></trkpt>
<trkpt lat="46.29885" lon="7.55612"><ele>540</ele><time>2016-08-06T16:23:22Z</time></trkpt>
<trkpt lat="46.29878" lon="7.55595"><ele>540</ele><time>2016-08-06T16:23:24Z</time></trkpt>
<trkpt lat="46.29872" lon="7.55578"><ele>540</ele><time>2016-08-06T16:23:26Z</time></trkpt>
<trkpt lat="46.29865" lon="7.55561"><ele>540</ele><time>2016-08-06T16:23:28Z</time></trkpt>
<trkpt lat="46.29858" lon="7.55544"><ele>540</ele><time>2016-08-06T16:23:30Z</time></trkpt>
<trkpt lat="46.2985" lon="7.55527"><ele>540</ele><time>2016-08-06T16:23:32Z</time></trkpt>
<trkpt lat="46.29843" lon="7.55511"><ele>540.2</ele><time>2016-08-06T16:23:34Z</time></trkpt>
<trkpt lat="46.29839" lon="7.55502"><ele>540.2</ele><time>2016-08-06T16:23:35Z</time></trkpt>
<trkpt lat="46.29836" lon="7.55494"><ele>540.2</ele><time>2016-08-06T16:23:36Z</time></trkpt>
<trkpt lat="46.29829" lon="7.55476"><ele>540.2</ele><time>2016-08-06T16:23:38Z</time></trkpt>
<trkpt lat="46.29822" lon="7.55458"><ele>540.2</ele><time>2016-08-06T16:23:40Z</time></trkpt>
<trkpt lat="46.29815" lon="7.5544"><ele>540.2</ele><time>2016-08-06T16:23:42Z</time></trkpt>
<trkpt lat="46.29808" lon="7.55422"><ele>540.2</ele><time>2016-08-06T16:23:44Z</time></trkpt>
<trkpt lat="46.29801" lon="7.55404"><ele>540.2</ele><time>2016-08-06T16:23:46Z</time></trkpt>
<trkpt lat="46.29794" lon="7.55386"><ele>540.2</ele><time>2016-08-06T16:23:48Z</time></trkpt>
<trkpt lat="46.29791" lon="7.55378"><ele>540.2</ele><time>2016-08-06T16:23:49Z</time></trkpt>
<trkpt lat="46.29788" lon="7.5537"><ele>540.2</ele><time>2016-08-06T16:23:50Z</time></trkpt>
<trkpt lat="46.29782" lon="7.55356"><ele>540.2</ele><time>2016-08-06T16:23:52Z</time></trkpt>
<trkpt lat="46.29776" lon="7.55341"><ele>540.2</ele><time>2016-08-06T16:23:54Z</time></trkpt>
<trkpt lat="46.2977" lon="7.55326"><ele>540.4</ele><time>2016-08-06T16:23:56Z</time></trkpt>
<trkpt lat="46.29767" lon="7.55319"><ele>540.4</ele><time>2016-08-06T16:23:57Z</time></trkpt>
<trkpt lat="46.29764" lon="7.55313"><ele>540.4</ele><time>2016-08-06T16:23:58Z</time></trkpt>
<trkpt lat="46.29758" lon="7.553"><ele>540.4</ele><time>2016-08-06T16:24:00Z</time></trkpt>
<trkpt lat="46.29753" lon="7.55287"><ele>540.4</ele><time>2016-08-06T16:24:02Z</time></trkpt>
<trkpt lat="46.29748" lon="7.55273"><ele>540.4</ele><time>2016-08-06T16:24:04Z</time></trkpt>
<trkpt lat="46.29743" lon="7.55261"><ele>540.4</ele><time>2016-08-06T16:24:06Z</time></trkpt>
<trkpt lat="46.29739" lon="7.55248"><ele>540.4</ele><time>2016-08-06T16:24:08Z</time></trkpt>
<trkpt lat="46.29736" lon="7.55236"><ele>540.4</ele><time>2016-08-06T16:24:10Z</time></trkpt>
<trkpt lat="46.29732" lon="7.55223"><ele>540.4</ele><time>2016-08-06T16:24:12Z</time></trkpt>
<trkpt lat="46.29729" lon="7.55211"><ele>540.4</ele><time>2016-08-06T16:24:14Z</time></trkpt>
<trkpt lat="46.29725" lon="7.55198"><ele>540.4</ele><time>2016-08-06T16:24:16Z</time></trkpt>
<trkpt lat="46.29722" lon="7.55186"><ele>540.6</ele><time>2016-08-06T16:24:18Z</time></trkpt>
<trkpt lat="46.29719" lon="7.55174"><ele>540.6</ele><time>2016-08-06T16:24:20Z</time></trkpt>
<trkpt lat="46.29716" lon="7.55161"><ele>540.6</ele><time>2016-08-06T16:24:22Z</time></trkpt>
<trkpt lat="46.29714" lon="7.55155"><ele>540.6</ele><time>2016-08-06T16:24:23Z</time></trkpt>
<trkpt lat="46.29713" lon="7.55149"><ele>540.6</ele><time>2016-08-06T16:24:24Z</time></trkpt>
<trkpt lat="46.29709" lon="7.55137"><ele>540.6</ele><time>2016-08-06T16:24:26Z</time></trkpt>
<trkpt lat="46.29706" lon="7.55126"><ele>540.4</ele><time>2016-08-06T16:24:28Z</time></trkpt>
<trkpt lat="46.29703" lon="7.55114"><ele>540.4</ele><time>2016-08-06T16:24:30Z</time></trkpt>
<trkpt lat="46.297" lon="7.55103"><ele>540.4</ele><time>2016-08-06T16:24:32Z</time></trkpt>
<trkpt lat="46.29697" lon="7.55092"><ele>540.4</ele><time>2016-08-06T16:24:34Z</time></trkpt>
<trkpt lat="46.29693" lon="7.55081"><ele>540.4</ele><time>2016-08-06T16:24:36Z</time></trkpt>
<trkpt lat="46.29692" lon="7.55075"><ele>540.4</ele><time>2016-08-06T16:24:37Z</time></trkpt>
<trkpt lat="46.29691" lon="7.55068"><ele>540.4</ele><time>2016-08-06T16:24:38Z</time></trkpt>
<trkpt lat="46.29689" lon="7.55056"><ele>540.4</ele><time>2016-08-06T16:24:40Z</time></trkpt>
<trkpt lat="46.29688" lon="7.5505"><ele>540.4</ele><time>2016-08-06T16:24:41Z</time></trkpt>
<trkpt lat="46.29687" lon="7.55043"><ele>540.4</ele><time>2016-08-06T16:24:42Z</time></trkpt>
<trkpt lat="46.29685" lon="7.55031"><ele>540.6</ele><time>2016-08-06T16:24:44Z</time></trkpt>
<trkpt lat="46.29684" lon="7.55025"><ele>540.6</ele><time>2016-08-06T16:24:45Z</time></trkpt>
<trkpt lat="46.29685" lon="7.55018"><ele>540.6</ele><time>2016-08-06T16:24:46Z</time></trkpt>
<trkpt lat="46.29685" lon="7.55005"><ele>540.8</ele><time>2016-08-06T16:24:48Z</time></trkpt>
<trkpt lat="46.29679" lon="7.54994"><ele>540.8</ele><time>2016-08-06T16:24:50Z</time></trkpt>
<trkpt lat="46.29669" lon="7.54989"><ele>541</ele><time>2016-08-06T16:24:52Z</time></trkpt>
<trkpt lat="46.29658" lon="7.54983"><ele>541</ele><time>2016-08-06T16:24:54Z</time></trkpt>
<trkpt lat="46.29648" lon="7.54977"><ele>541.2</ele><time>2016-08-06T16:24:56Z</time></trkpt>
<trkpt lat="46.29639" lon="7.54964"><ele>541.2</ele><time>2016-08-06T16:24:58Z</time></trkpt>
<trkpt lat="46.2963" lon="7.54951"><ele>541.4</ele><time>2016-08-06T16:25:00Z</time></trkpt>
<trkpt lat="46.29621" lon="7.54937"><ele>541.4</ele><time>2016-08-06T16:25:02Z</time></trkpt>
<trkpt lat="46.29612" lon="7.54925"><ele>541.6</ele><time>2016-08-06T16:25:04Z</time></trkpt>
<trkpt lat="46.29605" lon="7.54916"><ele>541.6</ele><time>2016-08-06T16:25:06Z</time></trkpt>
<trkpt lat="46.29599" lon="7.54908"><ele>541.8</ele><time>2016-08-06T16:25:08Z</time></trkpt>
<trkpt lat="46.29594" lon="7.54896"><ele>541.8</ele><time>2016-08-06T16:25:09Z</time></trkpt>
<trkpt lat="46.29589" lon="7.54893"><ele>541.8</ele><time>2016-08-06T16:25:10Z</time></trkpt>
<trkpt lat="46.29584" lon="7.54891"><ele>541.8</ele><time>2016-08-06T16:25:11Z</time></trkpt>
<trkpt lat="46.2958" lon="7.5489"><ele>542</ele><time>2016-08-06T16:25:12Z</time></trkpt>
<trkpt lat="46.29576" lon="7.54889"><ele>542</ele><time>2016-08-06T16:25:13Z</time></trkpt>
<trkpt lat="46.2957" lon="7.54885"><ele>542</ele><time>2016-08-06T16:25:14Z</time></trkpt>
<trkpt lat="46.29558" lon="7.54877"><ele>542.2</ele><time>2016-08-06T16:25:16Z</time></trkpt>
<trkpt lat="46.29546" lon="7.54869"><ele>542.2</ele><time>2016-08-06T16:25:18Z</time></trkpt>
<trkpt lat="46.29535" lon="7.54861"><ele>542.4</ele><time>2016-08-06T16:25:20Z</time></trkpt>
<trkpt lat="46.29525" lon="7.54854"><ele>542.4</ele><time>2016-08-06T16:25:22Z</time></trkpt>
<trkpt lat="46.29516" lon="7.54847"><ele>542.6</ele><time>2016-08-06T16:25:24Z</time></trkpt>
<trkpt lat="46.2951" lon="7.54843"><ele>542.4</ele><time>2016-08-06T16:25:25Z</time></trkpt>
<trkpt lat="46.29505" lon="7.54839"><ele>542.2</ele><time>2016-08-06T16:25:26Z</time></trkpt>
<trkpt lat="46.29494" lon="7.54831"><ele>541.6</ele><time>2016-08-06T16:25:28Z</time></trkpt>
<trkpt lat="46.29483" lon="7.54823"><ele>541.2</ele><time>2016-08-06T16:25:30Z</time></trkpt>
<trkpt lat="46.29472" lon="7.54815"><ele>541</ele><time>2016-08-06T16:25:32Z</time></trkpt>
<trkpt lat="46.29461" lon="7.54806"><ele>540.8</ele><time>2016-08-06T16:25:34Z</time></trkpt>
<trkpt lat="46.29449" lon="7.54798"><ele>540.6</ele><time>2016-08-06T16:25:36Z</time></trkpt>
<trkpt lat="46.29438" lon="7.54789"><ele>540.4</ele><time>2016-08-06T16:25:38Z</time></trkpt>
<trkpt lat="46.29426" lon="7.54781"><ele>540.2</ele><time>2016-08-06T16:25:40Z</time></trkpt>
<trkpt lat="46.29414" lon="7.54772"><ele>540.2</ele><time>2016-08-06T16:25:42Z</time></trkpt>
<trkpt lat="46.29401" lon="7.54763"><ele>540</ele><time>2016-08-06T16:25:44Z</time></trkpt>
<trkpt lat="46.29389" lon="7.54755"><ele>539.8</ele><time>2016-08-06T16:25:46Z</time></trkpt>
<trkpt lat="46.29377" lon="7.54746"><ele>539.6</ele><time>2016-08-06T16:25:48Z</time></trkpt>
<trkpt lat="46.29365" lon="7.54736"><ele>539.4</ele><time>2016-08-06T16:25:50Z</time></trkpt>
<trkpt lat="46.29354" lon="7.54725"><ele>539.2</ele><time>2016-08-06T16:25:52Z</time></trkpt>
<trkpt lat="46.29342" lon="7.54715"><ele>538.8</ele><time>2016-08-06T16:25:54Z</time></trkpt>
<trkpt lat="46.29337" lon="7.5471"><ele>538.6</ele><time>2016-08-06T16:25:55Z</time></trkpt>
<trkpt lat="46.29333" lon="7.54702"><ele>538.4</ele><time>2016-08-06T16:25:56Z</time></trkpt>
<trkpt lat="46.29325" lon="7.54686"><ele>538</ele><time>2016-08-06T16:25:58Z</time></trkpt>
<trkpt lat="46.29318" lon="7.5467"><ele>537.6</ele><time>2016-08-06T16:26:00Z</time></trkpt>
<trkpt lat="46.2931" lon="7.54654"><ele>537.2</ele><time>2016-08-06T16:26:02Z</time></trkpt>
<trkpt lat="46.29307" lon="7.54646"><ele>537.2</ele><time>2016-08-06T16:26:03Z</time></trkpt>
<trkpt lat="46.29304" lon="7.54637"><ele>537.2</ele><time>2016-08-06T16:26:04Z</time></trkpt>
<trkpt lat="46.29297" lon="7.5462"><ele>537.2</ele><time>2016-08-06T16:26:06Z</time></trkpt>
<trkpt lat="46.29291" lon="7.54603"><ele>537.4</ele><time>2016-08-06T16:26:08Z</time></trkpt>
<trkpt lat="46.29288" lon="7.54596"><ele>537.4</ele><time>2016-08-06T16:26:09Z</time></trkpt>
<trkpt lat="46.29285" lon="7.54592"><ele>537.6</ele><time>2016-08-06T16:26:10Z</time></trkpt>
<trkpt lat="46.29281" lon="7.54584"><ele>537.6</ele><time>2016-08-06T16:26:12Z</time></trkpt>
<trkpt lat="46.29279" lon="7.54584"><ele>537.8</ele><time>2016-08-06T16:26:14Z</time></trkpt>
<trkpt lat="46.29273" lon="7.54579"><ele>537.8</ele><time>2016-08-06T16:26:15Z</time></trkpt>
<trkpt lat="46.29268" lon="7.54574"><ele>538</ele><time>2016-08-06T16:26:16Z</time></trkpt>
<trkpt lat="46.29257" lon="7.54563"><ele>538.2</ele><time>2016-08-06T16:26:18Z</time></trkpt>
<trkpt lat="46.29246" lon="7.54552"><ele>538.6</ele><time>2016-08-06T16:26:20Z</time></trkpt>
<trkpt lat="46.29241" lon="7.54548"><ele>538.8</ele><time>2016-08-06T16:26:21Z</time></trkpt>
<trkpt lat="46.29237" lon="7.54545"><ele>538.8</ele><time>2016-08-06T16:26:22Z</time></trkpt>
<trkpt lat="46.2923" lon="7.54541"><ele>539.2</ele><time>2016-08-06T16:26:24Z</time></trkpt>
<trkpt lat="46.29223" lon="7.54536"><ele>539.4</ele><time>2016-08-06T16:26:26Z</time></trkpt>
<trkpt lat="46.29216" lon="7.54532"><ele>539.8</ele><time>2016-08-06T16:26:28Z</time></trkpt>
<trkpt lat="46.2921" lon="7.54527"><ele>540</ele><time>2016-08-06T16:26:30Z</time></trkpt>
<trkpt lat="46.29203" lon="7.54522"><ele>540.4</ele><time>2016-08-06T16:26:32Z</time></trkpt>
<trkpt lat="46.29199" lon="7.5452"><ele>540.4</ele><time>2016-08-06T16:26:33Z</time></trkpt>
<trkpt lat="46.29195" lon="7.54518"><ele>540.4</ele><time>2016-08-06T16:26:34Z</time></trkpt>
<trkpt lat="46.29188" lon="7.54514"><ele>540.4</ele><time>2016-08-06T16:26:36Z</time></trkpt>
<trkpt lat="46.2918" lon="7.5451"><ele>540.4</ele><time>2016-08-06T16:26:38Z</time></trkpt>
<trkpt lat="46.29172" lon="7.54506"><ele>540.6</ele><time>2016-08-06T16:26:40Z</time></trkpt>
<trkpt lat="46.29165" lon="7.54502"><ele>540.8</ele><time>2016-08-06T16:26:42Z</time></trkpt>
<trkpt lat="46.29157" lon="7.54498"><ele>541</ele><time>2016-08-06T16:26:44Z</time></trkpt>
<trkpt lat="46.29146" lon="7.54496"><ele>541.4</ele><time>2016-08-06T16:26:46Z</time></trkpt>
<trkpt lat="46.29136" lon="7.54494"><ele>541.8</ele><time>2016-08-06T16:26:48Z</time></trkpt>
<trkpt lat="46.29135" lon="7.54492"><ele>542.2</ele><time>2016-08-06T16:26:50Z</time></trkpt>
<trkpt lat="46.29133" lon="7.5449"><ele>542.2</ele><time>2016-08-06T16:26:52Z</time></trkpt>
<trkpt lat="46.29131" lon="7.54488"><ele>542.2</ele><time>2016-08-06T16:26:53Z</time></trkpt>
<trkpt lat="46.29125" lon="7.54487"><ele>542</ele><time>2016-08-06T16:26:54Z</time></trkpt>
<trkpt lat="46.29114" lon="7.54485"><ele>542</ele><time>2016-08-06T16:26:56Z</time></trkpt>
<trkpt lat="46.29102" lon="7.54483"><ele>542</ele><time>2016-08-06T16:26:58Z</time></trkpt>
<trkpt lat="46.29091" lon="7.54481"><ele>541.8</ele><time>2016-08-06T16:27:00Z</time></trkpt>
<trkpt lat="46.29081" lon="7.54483"><ele>541.8</ele><time>2016-08-06T16:27:02Z</time></trkpt>
<trkpt lat="46.29077" lon="7.54483"><ele>541.8</ele><time>2016-08-06T16:27:03Z</time></trkpt>
<trkpt lat="46.29072" lon="7.54482"><ele>541.8</ele><time>2016-08-06T16:27:04Z</time></trkpt>
<trkpt lat="46.29064" lon="7.54479"><ele>541.6</ele><time>2016-08-06T16:27:06Z</time></trkpt>
<trkpt lat="46.29055" lon="7.54477"><ele>541.6</ele><time>2016-08-06T16:27:08Z</time></trkpt>
<trkpt lat="46.29046" lon="7.54474"><ele>541.6</ele><time>2016-08-06T16:27:10Z</time></trkpt>
<trkpt lat="46.29037" lon="7.54472"><ele>541.4</ele><time>2016-08-06T16:27:12Z</time></trkpt>
<trkpt lat="46.29028" lon="7.54469"><ele>541.4</ele><time>2016-08-06T16:27:14Z</time></trkpt>
<trkpt lat="46.29018" lon="7.54467"><ele>541.2</ele><time>2016-08-06T16:27:16Z</time></trkpt>
<trkpt lat="46.29008" lon="7.54464"><ele>541.2</ele><time>2016-08-06T16:27:18Z</time></trkpt>
<trkpt lat="46.28998" lon="7.54462"><ele>541.2</ele><time>2016-08-06T16:27:20Z</time></trkpt>
<trkpt lat="46.28987" lon="7.54459"><ele>541</ele><time>2016-08-06T16:27:22Z</time></trkpt>
<trkpt lat="46.28982" lon="7.54458"><ele>541</ele><time>2016-08-06T16:27:23Z</time></trkpt>
<trkpt lat="46.28977" lon="7.54458"><ele>541</ele><time>2016-08-06T16:27:24Z</time></trkpt>
<trkpt lat="46.28966" lon="7.54456"><ele>541</ele><time>2016-08-06T16:27:26Z</time></trkpt>
<trkpt lat="46.28956" lon="7.54455"><ele>540.8</ele><time>2016-08-06T16:27:28Z</time></trkpt>
<trkpt lat="46.28945" lon="7.54454"><ele>540.8</ele><time>2016-08-06T16:27:30Z</time></trkpt>
<trkpt lat="46.28934" lon="7.54452"><ele>540.8</ele><time>2016-08-06T16:27:32Z</time></trkpt>
<trkpt lat="46.28922" lon="7.54445"><ele>540.6</ele><time>2016-08-06T16:27:34Z</time></trkpt>
<trkpt lat="46.2891" lon="7.54437"><ele>540.6</ele><time>2016-08-06T16:27:36Z</time></trkpt>
<trkpt lat="46.28898" lon="7.54429"><ele>540.6</ele><time>2016-08-06T16:27:38Z</time></trkpt>
<trkpt lat="46.28892" lon="7.54426"><ele>540.6</ele><time>2016-08-06T16:27:39Z</time></trkpt>
<trkpt lat="46.28885" lon="7.54423"><ele>540.6</ele><time>2016-08-06T16:27:40Z</time></trkpt>
<trkpt lat="46.28871" lon="7.54418"><ele>540.4</ele><time>2016-08-06T16:27:42Z</time></trkpt>
<trkpt lat="46.28856" lon="7.54413"><ele>539.4</ele><time>2016-08-06T16:27:44Z</time></trkpt>
<trkpt lat="46.28842" lon="7.54407"><ele>538.6</ele><time>2016-08-06T16:27:46Z</time></trkpt>
<trkpt lat="46.28834" lon="7.54403"><ele>538.4</ele><time>2016-08-06T16:27:47Z</time></trkpt>
<trkpt lat="46.28827" lon="7.54399"><ele>538.2</ele><time>2016-08-06T16:27:48Z</time></trkpt>
<trkpt lat="46.28811" lon="7.54391"><ele>538.2</ele><time>2016-08-06T16:27:50Z</time></trkpt>
<trkpt lat="46.28796" lon="7.54383"><ele>538.2</ele><time>2016-08-06T16:27:52Z</time></trkpt>
<trkpt lat="46.28789" lon="7.54378"><ele>538.2</ele><time>2016-08-06T16:27:53Z</time></trkpt>
<trkpt lat="46.28782" lon="7.54373"><ele>537.8</ele><time>2016-08-06T16:27:54Z</time></trkpt>
<trkpt lat="46.28768" lon="7.54363"><ele>537.2</ele><time>2016-08-06T16:27:56Z</time></trkpt>
<trkpt lat="46.28754" lon="7.54353"><ele>536.8</ele><time>2016-08-06T16:27:58Z</time></trkpt>
<trkpt lat="46.28742" lon="7.54342"><ele>536.4</ele><time>2016-08-06T16:28:00Z</time></trkpt>
<trkpt lat="46.28729" lon="7.54331"><ele>536.2</ele><time>2016-08-06T16:28:02Z</time></trkpt>
<trkpt lat="46.28716" lon="7.5432"><ele>536</ele><time>2016-08-06T16:28:04Z</time></trkpt>
<trkpt lat="46.2871" lon="7.54314"><ele>535.8</ele><time>2016-08-06T16:28:05Z</time></trkpt>
<trkpt lat="46.28705" lon="7.54307"><ele>535.6</ele><time>2016-08-06T16:28:06Z</time></trkpt>
<trkpt lat="46.28695" lon="7.54293"><ele>535.4</ele><time>2016-08-06T16:28:08Z</time></trkpt>
<trkpt lat="46.2869" lon="7.54285"><ele>535.2</ele><time>2016-08-06T16:28:09Z</time></trkpt>
<trkpt lat="46.28685" lon="7.54278"><ele>534.8</ele><time>2016-08-06T16:28:10Z</time></trkpt>
<trkpt lat="46.28674" lon="7.54265"><ele>534.2</ele><time>2016-08-06T16:28:12Z</time></trkpt>
<trkpt lat="46.28663" lon="7.54256"><ele>533.6</ele><time>2016-08-06T16:28:14Z</time></trkpt>
<trkpt lat="46.28652" lon="7.54248"><ele>532.8</ele><time>2016-08-06T16:28:16Z</time></trkpt>
<trkpt lat="46.28639" lon="7.54244"><ele>532.2</ele><time>2016-08-06T16:28:18Z</time></trkpt>
<trkpt lat="46.28625" lon="7.54241"><ele>531.4</ele><time>2016-08-06T16:28:20Z</time></trkpt>
<trkpt lat="46.28612" lon="7.5424"><ele>530.8</ele><time>2016-08-06T16:28:22Z</time></trkpt>
<trkpt lat="46.28598" lon="7.54238"><ele>530</ele><time>2016-08-06T16:28:24Z</time></trkpt>
<trkpt lat="46.28592" lon="7.54236"><ele>529.8</ele><time>2016-08-06T16:28:25Z</time></trkpt>
<trkpt lat="46.28586" lon="7.54233"><ele>529.6</ele><time>2016-08-06T16:28:26Z</time></trkpt>
<trkpt lat="46.28574" lon="7.54227"><ele>529.2</ele><time>2016-08-06T16:28:28Z</time></trkpt>
<trkpt lat="46.28568" lon="7.54223"><ele>529</ele><time>2016-08-06T16:28:29Z</time></trkpt>
<trkpt lat="46.28563" lon="7.54218"><ele>528.6</ele><time>2016-08-06T16:28:30Z</time></trkpt>
<trkpt lat="46.28551" lon="7.54206"><ele>528.2</ele><time>2016-08-06T16:28:32Z</time></trkpt>
<trkpt lat="46.2854" lon="7.54195"><ele>527.8</ele><time>2016-08-06T16:28:34Z</time></trkpt>
<trkpt lat="46.28529" lon="7.54183"><ele>527.4</ele><time>2016-08-06T16:28:36Z</time></trkpt>
<trkpt lat="46.2852" lon="7.54167"><ele>527</ele><time>2016-08-06T16:28:38Z</time></trkpt>
<trkpt lat="46.28511" lon="7.54151"><ele>526.4</ele><time>2016-08-06T16:28:40Z</time></trkpt>
<trkpt lat="46.28507" lon="7.54142"><ele>526.2</ele><time>2016-08-06T16:28:41Z</time></trkpt>
<trkpt lat="46.28504" lon="7.54131"><ele>526</ele><time>2016-08-06T16:28:42Z</time></trkpt>
<trkpt lat="46.28497" lon="7.5411"><ele>525.6</ele><time>2016-08-06T16:28:44Z</time></trkpt>
<trkpt lat="46.2849" lon="7.54088"><ele>525.2</ele><time>2016-08-06T16:28:46Z</time></trkpt>
<trkpt lat="46.28488" lon="7.54078"><ele>525</ele><time>2016-08-06T16:28:47Z</time></trkpt>
<trkpt lat="46.28487" lon="7.5407"><ele>524.8</ele><time>2016-08-06T16:28:48Z</time></trkpt>
<trkpt lat="46.28486" lon="7.54062"><ele>524.6</ele><time>2016-08-06T16:28:49Z</time></trkpt>
<trkpt lat="46.28485" lon="7.54054"><ele>524.6</ele><time>2016-08-06T16:28:50Z</time></trkpt>
<trkpt lat="46.28482" lon="7.54038"><ele>524.6</ele><time>2016-08-06T16:28:52Z</time></trkpt>
<trkpt lat="46.2848" lon="7.54022"><ele>524.6</ele><time>2016-08-06T16:28:54Z</time></trkpt>
<trkpt lat="46.28479" lon="7.54014"><ele>525</ele><time>2016-08-06T16:28:55Z</time></trkpt>
<trkpt lat="46.28478" lon="7.54006"><ele>525.2</ele><time>2016-08-06T16:28:56Z</time></trkpt>
<trkpt lat="46.28475" lon="7.5399"><ele>526</ele><time>2016-08-06T16:28:58Z</time></trkpt>
<trkpt lat="46.28473" lon="7.53974"><ele>526.4</ele><time>2016-08-06T16:29:00Z</time></trkpt>
<trkpt lat="46.2847" lon="7.53959"><ele>525.4</ele><time>2016-08-06T16:29:02Z</time></trkpt>
<trkpt lat="46.28469" lon="7.53952"><ele>524.8</ele><time>2016-08-06T16:29:03Z</time></trkpt>
<trkpt lat="46.28468" lon="7.53948"><ele>524.2</ele><time>2016-08-06T16:29:04Z</time></trkpt>
<trkpt lat="46.28465" lon="7.53941"><ele>523.4</ele><time>2016-08-06T16:29:06Z</time></trkpt>
<trkpt lat="46.28462" lon="7.53935"><ele>523.8</ele><time>2016-08-06T16:29:08Z</time></trkpt>
<trkpt lat="46.2846" lon="7.53933"><ele>524</ele><time>2016-08-06T16:29:09Z</time></trkpt>
<trkpt lat="46.28455" lon="7.53938"><ele>524.2</ele><time>2016-08-06T16:29:10Z</time></trkpt>
<trkpt lat="46.2845" lon="7.53941"><ele>524.2</ele><time>2016-08-06T16:29:11Z</time></trkpt>
<trkpt lat="46.28444" lon="7.53944"><ele>524.4</ele><time>2016-08-06T16:29:12Z</time></trkpt>
<trkpt lat="46.28432" lon="7.53949"><ele>524.4</ele><time>2016-08-06T16:29:14Z</time></trkpt>
<trkpt lat="46.2842" lon="7.53954"><ele>524.6</ele><time>2016-08-06T16:29:16Z</time></trkpt>
<trkpt lat="46.28408" lon="7.5396"><ele>524.6</ele><time>2016-08-06T16:29:18Z</time></trkpt>
<trkpt lat="46.28402" lon="7.53963"><ele>524.6</ele><time>2016-08-06T16:29:19Z</time></trkpt>
<trkpt lat="46.28396" lon="7.53966"><ele>524.8</ele><time>2016-08-06T16:29:20Z</time></trkpt>
<trkpt lat="46.28384" lon="7.53973"><ele>524.8</ele><time>2016-08-06T16:29:22Z</time></trkpt>
<trkpt lat="46.28372" lon="7.5398"><ele>525</ele><time>2016-08-06T16:29:24Z</time></trkpt>
<trkpt lat="46.2836" lon="7.53987"><ele>525</ele><time>2016-08-06T16:29:26Z</time></trkpt>
<trkpt lat="46.28349" lon="7.53992"><ele>525</ele><time>2016-08-06T16:29:28Z</time></trkpt>
<trkpt lat="46.28338" lon="7.53998"><ele>525.2</ele><time>2016-08-06T16:29:30Z</time></trkpt>
<trkpt lat="46.28327" lon="7.54004"><ele>525.2</ele><time>2016-08-06T16:29:32Z</time></trkpt>
<trkpt lat="46.28317" lon="7.54009"><ele>525.4</ele><time>2016-08-06T16:29:34Z</time></trkpt>
<trkpt lat="46.28308" lon="7.54014"><ele>525.4</ele><time>2016-08-06T16:29:36Z</time></trkpt>
<trkpt lat="46.28299" lon="7.54019"><ele>525.6</ele><time>2016-08-06T16:29:38Z</time></trkpt>
<trkpt lat="46.28289" lon="7.54024"><ele>525.6</ele><time>2016-08-06T16:29:40Z</time></trkpt>
<trkpt lat="46.28286" lon="7.54025"><ele>525.8</ele><time>2016-08-06T16:29:41Z</time></trkpt>
<trkpt lat="46.28286" lon="7.54024"><ele>525.8</ele><time>2016-08-06T16:29:42Z</time></trkpt>
<trkpt lat="46.28284" lon="7.54024"><ele>525.8</ele><time>2016-08-06T16:29:43Z</time></trkpt>
<trkpt lat="46.28279" lon="7.54026"><ele>525.8</ele><time>2016-08-06T16:29:44Z</time></trkpt>
<trkpt lat="46.28267" lon="7.54031"><ele>526</ele><time>2016-08-06T16:29:46Z</time></trkpt>
<trkpt lat="46.28256" lon="7.54035"><ele>526</ele><time>2016-08-06T16:29:48Z</time></trkpt>
<trkpt lat="46.28252" lon="7.54037"><ele>526.2</ele><time>2016-08-06T16:29:49Z</time></trkpt>
<trkpt lat="46.28249" lon="7.54039"><ele>526.2</ele><time>2016-08-06T16:29:50Z</time></trkpt>
<trkpt lat="46.28245" lon="7.54042"><ele>526.2</ele><time>2016-08-06T16:29:52Z</time></trkpt>
<trkpt lat="46.2824" lon="7.54046"><ele>526.4</ele><time>2016-08-06T16:29:54Z</time></trkpt>
<trkpt lat="46.28236" lon="7.5405"><ele>526.4</ele><time>2016-08-06T16:29:56Z</time></trkpt>
<trkpt lat="46.28231" lon="7.54053"><ele>526.6</ele><time>2016-08-06T16:29:58Z</time></trkpt>
<trkpt lat="46.28226" lon="7.54057"><ele>526.6</ele><time>2016-08-06T16:30:00Z</time></trkpt>
<trkpt lat="46.28222" lon="7.5406"><ele>526.8</ele><time>2016-08-06T16:30:02Z</time></trkpt>
<trkpt lat="46.28217" lon="7.54063"><ele>526.8</ele><time>2016-08-06T16:30:04Z</time></trkpt>
<trkpt lat="46.28215" lon="7.54064"><ele>527</ele><time>2016-08-06T16:30:06Z</time></trkpt>
<trkpt lat="46.2821" lon="7.54063"><ele>527</ele><time>2016-08-06T16:30:07Z</time></trkpt>
<trkpt lat="46.28199" lon="7.54055"><ele>527</ele><time>2016-08-06T16:30:08Z</time></trkpt>
<trkpt lat="46.28196" lon="7.54042"><ele>527.2</ele><time>2016-08-06T16:30:10Z</time></trkpt>
<trkpt lat="46.28194" lon="7.54029"><ele>527.2</ele><time>2016-08-06T16:30:12Z</time></trkpt>
<trkpt lat="46.28191" lon="7.54016"><ele>527.4</ele><time>2016-08-06T16:30:14Z</time></trkpt>
<trkpt lat="46.28189" lon="7.54003"><ele>527.4</ele><time>2016-08-06T16:30:16Z</time></trkpt>
<trkpt lat="46.28186" lon="7.53991"><ele>527.4</ele><time>2016-08-06T16:30:18Z</time></trkpt>
<trkpt lat="46.28185" lon="7.53984"><ele>527.6</ele><time>2016-08-06T16:30:19Z</time></trkpt>
<trkpt lat="46.28184" lon="7.53975"><ele>527.6</ele><time>2016-08-06T16:30:20Z</time></trkpt>
<trkpt lat="46.28181" lon="7.53959"><ele>527.6</ele><time>2016-08-06T16:30:22Z</time></trkpt>
<trkpt lat="46.28178" lon="7.53943"><ele>527.8</ele><time>2016-08-06T16:30:24Z</time></trkpt>
<trkpt lat="46.28175" lon="7.53926"><ele>527.8</ele><time>2016-08-06T16:30:26Z</time></trkpt>
<trkpt lat="46.28173" lon="7.53918"><ele>528</ele><time>2016-08-06T16:30:27Z</time></trkpt>
<trkpt lat="46.28172" lon="7.53909"><ele>528</ele><time>2016-08-06T16:30:28Z</time></trkpt>
<trkpt lat="46.28169" lon="7.53892"><ele>528</ele><time>2016-08-06T16:30:30Z</time></trkpt>
<trkpt lat="46.28167" lon="7.53883"><ele>528</ele><time>2016-08-06T16:30:31Z</time></trkpt>
<trkpt lat="46.28166" lon="7.53874"><ele>528</ele><time>2016-08-06T16:30:32Z</time></trkpt>
<trkpt lat="46.28162" lon="7.53857"><ele>527.8</ele><time>2016-08-06T16:30:34Z</time></trkpt>
<trkpt lat="46.28161" lon="7.53848"><ele>527.8</ele><time>2016-08-06T16:30:35Z</time></trkpt>
<trkpt lat="46.28159" lon="7.5384"><ele>527.6</ele><time>2016-08-06T16:30:36Z</time></trkpt>
<trkpt lat="46.28157" lon="7.53824"><ele>527.6</ele><time>2016-08-06T16:30:38Z</time></trkpt>
<trkpt lat="46.28154" lon="7.53808"><ele>527.4</ele><time>2016-08-06T16:30:40Z</time></trkpt>
<trkpt lat="46.28151" lon="7.53792"><ele>527.2</ele><time>2016-08-06T16:30:42Z</time></trkpt>
<trkpt lat="46.28149" lon="7.53784"><ele>527.2</ele><time>2016-08-06T16:30:43Z</time></trkpt>
<trkpt lat="46.28148" lon="7.53776"><ele>527</ele><time>2016-08-06T16:30:44Z</time></trkpt>
<trkpt lat="46.28145" lon="7.53758"><ele>526.8</ele><time>2016-08-06T16:30:46Z</time></trkpt>
<trkpt lat="46.28142" lon="7.53741"><ele>526.8</ele><time>2016-08-06T16:30:48Z</time></trkpt>
<trkpt lat="46.28139" lon="7.53723"><ele>526.6</ele><time>2016-08-06T16:30:50Z</time></trkpt>
<trkpt lat="46.28137" lon="7.53714"><ele>526.6</ele><time>2016-08-06T16:30:51Z</time></trkpt>
<trkpt lat="46.28135" lon="7.53706"><ele>526.4</ele><time>2016-08-06T16:30:52Z</time></trkpt>
<trkpt lat="46.28132" lon="7.53688"><ele>526.2</ele><time>2016-08-06T16:30:54Z</time></trkpt>
<trkpt lat="46.28128" lon="7.5367"><ele>526.2</ele><time>2016-08-06T16:30:56Z</time></trkpt>
<trkpt lat="46.28125" lon="7.53653"><ele>526</ele><time>2016-08-06T16:30:58Z</time></trkpt>
<trkpt lat="46.28123" lon="7.53644"><ele>525.8</ele><time>2016-08-06T16:30:59Z</time></trkpt>
<trkpt lat="46.28122" lon="7.53635"><ele>525.8</ele><time>2016-08-06T16:31:00Z</time></trkpt>
<trkpt lat="46.28118" lon="7.53617"><ele>525.6</ele><time>2016-08-06T16:31:02Z</time></trkpt>
<trkpt lat="46.28115" lon="7.53599"><ele>525.4</ele><time>2016-08-06T16:31:04Z</time></trkpt>
<trkpt lat="46.28112" lon="7.53581"><ele>525.4</ele><time>2016-08-06T16:31:06Z</time></trkpt>
<trkpt lat="46.28109" lon="7.53563"><ele>525.2</ele><time>2016-08-06T16:31:08Z</time></trkpt>
<trkpt lat="46.28105" lon="7.53545"><ele>525</ele><time>2016-08-06T16:31:10Z</time></trkpt>
<trkpt lat="46.28104" lon="7.53536"><ele>525</ele><time>2016-08-06T16:31:11Z</time></trkpt>
<trkpt lat="46.281" lon="7.53518"><ele>525</ele><time>2016-08-06T16:31:13Z</time></trkpt>
<trkpt lat="46.28099" lon="7.53509"><ele>525</ele><time>2016-08-06T16:31:14Z</time></trkpt>
<trkpt lat="46.28096" lon="7.53491"><ele>524.8</ele><time>2016-08-06T16:31:16Z</time></trkpt>
<trkpt lat="46.28092" lon="7.53473"><ele>524.8</ele><time>2016-08-06T16:31:18Z</time></trkpt>
<trkpt lat="46.28089" lon="7.53456"><ele>524.8</ele><time>2016-08-06T16:31:20Z</time></trkpt>
<trkpt lat="46.28088" lon="7.53447"><ele>524.8</ele><time>2016-08-06T16:31:21Z</time></trkpt>
<trkpt lat="46.28086" lon="7.53438"><ele>524.8</ele><time>2016-08-06T16:31:22Z</time></trkpt>
<trkpt lat="46.28085" lon="7.5343"><ele>524.8</ele><time>2016-08-06T16:31:23Z</time></trkpt>
<trkpt lat="46.28082" lon="7.53412"><ele>524.8</ele><time>2016-08-06T16:31:25Z</time></trkpt>
<trkpt lat="46.28077" lon="7.53386"><ele>524.6</ele><time>2016-08-06T16:31:28Z</time></trkpt>
<trkpt lat="46.28076" lon="7.53378"><ele>524.6</ele><time>2016-08-06T16:31:29Z</time></trkpt>
<trkpt lat="46.28072" lon="7.53352"><ele>524.6</ele><time>2016-08-06T16:31:32Z</time></trkpt>
<trkpt lat="46.28069" lon="7.53334"><ele>524.6</ele><time>2016-08-06T16:31:34Z</time></trkpt>
<trkpt lat="46.28067" lon="7.53326"><ele>524.6</ele><time>2016-08-06T16:31:35Z</time></trkpt>
<trkpt lat="46.28065" lon="7.53308"><ele>524.4</ele><time>2016-08-06T16:31:37Z</time></trkpt>
<trkpt lat="46.28063" lon="7.53299"><ele>524.4</ele><time>2016-08-06T16:31:38Z</time></trkpt>
<trkpt lat="46.2806" lon="7.53282"><ele>524.4</ele><time>2016-08-06T16:31:40Z</time></trkpt>
<trkpt lat="46.28059" lon="7.53273"><ele>524.4</ele><time>2016-08-06T16:31:41Z</time></trkpt>
<trkpt lat="46.28054" lon="7.53247"><ele>524.4</ele><time>2016-08-06T16:31:44Z</time></trkpt>
<trkpt lat="46.28053" lon="7.53238"><ele>524.4</ele><time>2016-08-06T16:31:45Z</time></trkpt>
<trkpt lat="46.2805" lon="7.5322"><ele>524.2</ele><time>2016-08-06T16:31:47Z</time></trkpt>
<trkpt lat="46.28046" lon="7.53193"><ele>524.2</ele><time>2016-08-06T16:31:50Z</time></trkpt>
<trkpt lat="46.28043" lon="7.53175"><ele>524.2</ele><time>2016-08-06T16:31:52Z</time></trkpt>
<trkpt lat="46.28041" lon="7.53166"><ele>524.2</ele><time>2016-08-06T16:31:53Z</time></trkpt>
<trkpt lat="46.28036" lon="7.53138"><ele>524</ele><time>2016-08-06T16:31:56Z</time></trkpt>
<trkpt lat="46.28033" lon="7.53119"><ele>524</ele><time>2016-08-06T16:31:58Z</time></trkpt>
<trkpt lat="46.28032" lon="7.5311"><ele>524</ele><time>2016-08-06T16:31:59Z</time></trkpt>
<trkpt lat="46.28027" lon="7.53082"><ele>524</ele><time>2016-08-06T16:32:02Z</time></trkpt>
<trkpt lat="46.28024" lon="7.53064"><ele>524</ele><time>2016-08-06T16:32:04Z</time></trkpt>
<trkpt lat="46.28021" lon="7.53045"><ele>524</ele><time>2016-08-06T16:32:06Z</time></trkpt>
<trkpt lat="46.28018" lon="7.53026"><ele>523.8</ele><time>2016-08-06T16:32:08Z</time></trkpt>
<trkpt lat="46.28015" lon="7.53008"><ele>523.8</ele><time>2016-08-06T16:32:10Z</time></trkpt>
<trkpt lat="46.28014" lon="7.52998"><ele>523.8</ele><time>2016-08-06T16:32:11Z</time></trkpt>
<trkpt lat="46.28011" lon="7.5298"><ele>523.8</ele><time>2016-08-06T16:32:13Z</time></trkpt>
<trkpt lat="46.28009" lon="7.52971"><ele>523.8</ele><time>2016-08-06T16:32:14Z</time></trkpt>
<trkpt lat="46.28006" lon="7.52953"><ele>523.8</ele><time>2016-08-06T16:32:16Z</time></trkpt>
<trkpt lat="46.28003" lon="7.52936"><ele>523.6</ele><time>2016-08-06T16:32:18Z</time></trkpt>
<trkpt lat="46.28001" lon="7.52918"><ele>523.6</ele><time>2016-08-06T16:32:20Z</time></trkpt>
<trkpt lat="46.27999" lon="7.5291"><ele>523.6</ele><time>2016-08-06T16:32:21Z</time></trkpt>
<trkpt lat="46.27998" lon="7.52901"><ele>523.6</ele><time>2016-08-06T16:32:22Z</time></trkpt>
<trkpt lat="46.27996" lon="7.52893"><ele>523.6</ele><time>2016-08-06T16:32:23Z</time></trkpt>
<trkpt lat="46.27992" lon="7.52867"><ele>523.6</ele><time>2016-08-06T16:32:26Z</time></trkpt>
<trkpt lat="46.27989" lon="7.5285"><ele>523.4</ele><time>2016-08-06T16:32:28Z</time></trkpt>
<trkpt lat="46.27988" lon="7.52842"><ele>523.4</ele><time>2016-08-06T16:32:29Z</time></trkpt>
<trkpt lat="46.27987" lon="7.52834"><ele>523.4</ele><time>2016-08-06T16:32:30Z</time></trkpt>
<trkpt lat="46.27984" lon="7.52817"><ele>523.4</ele><time>2016-08-06T16:32:32Z</time></trkpt>
<trkpt lat="46.27981" lon="7.528"><ele>523.4</ele><time>2016-08-06T16:32:34Z</time></trkpt>
<trkpt lat="46.27979" lon="7.52791"><ele>523.4</ele><time>2016-08-06T16:32:35Z</time></trkpt>
<trkpt lat="46.27977" lon="7.52774"><ele>523.2</ele><time>2016-08-06T16:32:37Z</time></trkpt>
<trkpt lat="46.27975" lon="7.52766"><ele>523.2</ele><time>2016-08-06T16:32:38Z</time></trkpt>
<trkpt lat="46.27974" lon="7.52757"><ele>523.2</ele><time>2016-08-06T16:32:39Z</time></trkpt>
<trkpt lat="46.27971" lon="7.5274"><ele>523.2</ele><time>2016-08-06T16:32:41Z</time></trkpt>
<trkpt lat="46.27966" lon="7.52715"><ele>523.2</ele><time>2016-08-06T16:32:44Z</time></trkpt>
<trkpt lat="46.27965" lon="7.52706"><ele>523.2</ele><time>2016-08-06T16:32:45Z</time></trkpt>
<trkpt lat="46.27963" lon="7.52697"><ele>523.2</ele><time>2016-08-06T16:32:46Z</time></trkpt>
<trkpt lat="46.27962" lon="7.52689"><ele>523</ele><time>2016-08-06T16:32:47Z</time></trkpt>
<trkpt lat="46.27958" lon="7.52662"><ele>523</ele><time>2016-08-06T16:32:50Z</time></trkpt>
<trkpt lat="46.27956" lon="7.52653"><ele>523</ele><time>2016-08-06T16:32:51Z</time></trkpt>
<trkpt lat="46.27955" lon="7.52644"><ele>523</ele><time>2016-08-06T16:32:52Z</time></trkpt>
<trkpt lat="46.27953" lon="7.52635"><ele>523</ele><time>2016-08-06T16:32:53Z</time></trkpt>
<trkpt lat="46.27949" lon="7.52609"><ele>523</ele><time>2016-08-06T16:32:56Z</time></trkpt>
<trkpt lat="46.27945" lon="7.52592"><ele>522.8</ele><time>2016-08-06T16:32:58Z</time></trkpt>
<trkpt lat="46.27944" lon="7.52583"><ele>522.8</ele><time>2016-08-06T16:32:59Z</time></trkpt>
<trkpt lat="46.27941" lon="7.52566"><ele>522.8</ele><time>2016-08-06T16:33:01Z</time></trkpt>
<trkpt lat="46.27939" lon="7.52557"><ele>522.8</ele><time>2016-08-06T16:33:02Z</time></trkpt>
<trkpt lat="46.27936" lon="7.5254"><ele>522.8</ele><time>2016-08-06T16:33:04Z</time></trkpt>
<trkpt lat="46.27935" lon="7.52531"><ele>522.8</ele><time>2016-08-06T16:33:05Z</time></trkpt>
<trkpt lat="46.2793" lon="7.52504"><ele>522.6</ele><time>2016-08-06T16:33:08Z</time></trkpt>
<trkpt lat="46.27928" lon="7.52496"><ele>522.6</ele><time>2016-08-06T16:33:09Z</time></trkpt>
<trkpt lat="46.27927" lon="7.52487"><ele>522.6</ele><time>2016-08-06T16:33:10Z</time></trkpt>
<trkpt lat="46.27926" lon="7.52479"><ele>522.6</ele><time>2016-08-06T16:33:11Z</time></trkpt>
<trkpt lat="46.27921" lon="7.52454"><ele>522.6</ele><time>2016-08-06T16:33:14Z</time></trkpt>
<trkpt lat="46.27918" lon="7.52437"><ele>522.6</ele><time>2016-08-06T16:33:16Z</time></trkpt>
<trkpt lat="46.27917" lon="7.52428"><ele>522.4</ele><time>2016-08-06T16:33:17Z</time></trkpt>
<trkpt lat="46.27915" lon="7.5242"><ele>522.4</ele><time>2016-08-06T16:33:18Z</time></trkpt>
<trkpt lat="46.27914" lon="7.52411"><ele>522.4</ele><time>2016-08-06T16:33:19Z</time></trkpt>
<trkpt lat="46.27911" lon="7.52393"><ele>522.4</ele><time>2016-08-06T16:33:21Z</time></trkpt>
<trkpt lat="46.27908" lon="7.52375"><ele>522.4</ele><time>2016-08-06T16:33:23Z</time></trkpt>
<trkpt lat="46.27904" lon="7.52357"><ele>522.4</ele><time>2016-08-06T16:33:25Z</time></trkpt>
<trkpt lat="46.27903" lon="7.52349"><ele>522.4</ele><time>2016-08-06T16:33:26Z</time></trkpt>
<trkpt lat="46.279" lon="7.52331"><ele>522.4</ele><time>2016-08-06T16:33:28Z</time></trkpt>
<trkpt lat="46.27898" lon="7.52322"><ele>522.4</ele><time>2016-08-06T16:33:29Z</time></trkpt>
<trkpt lat="46.27894" lon="7.52296"><ele>522.4</ele><time>2016-08-06T16:33:32Z</time></trkpt>
<trkpt lat="46.27892" lon="7.52287"><ele>522.4</ele><time>2016-08-06T16:33:33Z</time></trkpt>
<trkpt lat="46.2789" lon="7.52278"><ele>522.6</ele><time>2016-08-06T16:33:34Z</time></trkpt>
<trkpt lat="46.27889" lon="7.52268"><ele>522.6</ele><time>2016-08-06T16:33:35Z</time></trkpt>
<trkpt lat="46.27884" lon="7.5224"><ele>522.6</ele><time>2016-08-06T16:33:38Z</time></trkpt>
<trkpt lat="46.27881" lon="7.52222"><ele>522.6</ele><time>2016-08-06T16:33:40Z</time></trkpt>
<trkpt lat="46.27879" lon="7.52213"><ele>522.6</ele><time>2016-08-06T16:33:41Z</time></trkpt>
<trkpt lat="46.27875" lon="7.52187"><ele>522.8</ele><time>2016-08-06T16:33:44Z</time></trkpt>
<trkpt lat="46.27872" lon="7.5217"><ele>522.8</ele><time>2016-08-06T16:33:46Z</time></trkpt>
<trkpt lat="46.2787" lon="7.52161"><ele>522.8</ele><time>2016-08-06T16:33:47Z</time></trkpt>
<trkpt lat="46.27868" lon="7.52152"><ele>522.8</ele><time>2016-08-06T16:33:48Z</time></trkpt>
<trkpt lat="46.27865" lon="7.52134"><ele>523</ele><time>2016-08-06T16:33:50Z</time></trkpt>
<trkpt lat="46.27862" lon="7.52116"><ele>523</ele><time>2016-08-06T16:33:52Z</time></trkpt>
<trkpt lat="46.2786" lon="7.52107"><ele>523</ele><time>2016-08-06T16:33:53Z</time></trkpt>
<trkpt lat="46.27857" lon="7.52089"><ele>523</ele><time>2016-08-06T16:33:55Z</time></trkpt>
<trkpt lat="46.27856" lon="7.52081"><ele>523</ele><time>2016-08-06T16:33:56Z</time></trkpt>
<trkpt lat="46.27853" lon="7.52065"><ele>523.2</ele><time>2016-08-06T16:33:58Z</time></trkpt>
<trkpt lat="46.27852" lon="7.52058"><ele>523.2</ele><time>2016-08-06T16:33:59Z</time></trkpt>
<trkpt lat="46.27848" lon="7.52034"><ele>523.2</ele><time>2016-08-06T16:34:02Z</time></trkpt>
<trkpt lat="46.27846" lon="7.52026"><ele>523.2</ele><time>2016-08-06T16:34:03Z</time></trkpt>
<trkpt lat="46.27845" lon="7.52017"><ele>523.2</ele><time>2016-08-06T16:34:04Z</time></trkpt>
<trkpt lat="46.27841" lon="7.51999"><ele>523.4</ele><time>2016-08-06T16:34:06Z</time></trkpt>
<trkpt lat="46.27838" lon="7.51981"><ele>523.4</ele><time>2016-08-06T16:34:08Z</time></trkpt>
<trkpt lat="46.27835" lon="7.51963"><ele>523.4</ele><time>2016-08-06T16:34:10Z</time></trkpt>
<trkpt lat="46.27834" lon="7.51955"><ele>523.4</ele><time>2016-08-06T16:34:11Z</time></trkpt>
<trkpt lat="46.27831" lon="7.51939"><ele>523.4</ele><time>2016-08-06T16:34:13Z</time></trkpt>
<trkpt lat="46.27829" lon="7.5193"><ele>523</ele><time>2016-08-06T16:34:14Z</time></trkpt>
<trkpt lat="46.27828" lon="7.51922"><ele>522.6</ele><time>2016-08-06T16:34:15Z</time></trkpt>
<trkpt lat="46.27824" lon="7.51898"><ele>521.4</ele><time>2016-08-06T16:34:18Z</time></trkpt>
<trkpt lat="46.27822" lon="7.5189"><ele>521</ele><time>2016-08-06T16:34:19Z</time></trkpt>
<trkpt lat="46.27821" lon="7.51882"><ele>521</ele><time>2016-08-06T16:34:20Z</time></trkpt>
<trkpt lat="46.27819" lon="7.51874"><ele>520.8</ele><time>2016-08-06T16:34:21Z</time></trkpt>
<trkpt lat="46.27818" lon="7.51866"><ele>520.8</ele><time>2016-08-06T16:34:22Z</time></trkpt>
<trkpt lat="46.27816" lon="7.51859"><ele>520.6</ele><time>2016-08-06T16:34:23Z</time></trkpt>
<trkpt lat="46.27812" lon="7.51835"><ele>520.4</ele><time>2016-08-06T16:34:26Z</time></trkpt>
<trkpt lat="46.27809" lon="7.5182"><ele>520.2</ele><time>2016-08-06T16:34:28Z</time></trkpt>
<trkpt lat="46.27808" lon="7.51812"><ele>520</ele><time>2016-08-06T16:34:29Z</time></trkpt>
<trkpt lat="46.27807" lon="7.51804"><ele>520</ele><time>2016-08-06T16:34:30Z</time></trkpt>
<trkpt lat="46.27803" lon="7.51786"><ele>519.8</ele><time>2016-08-06T16:34:32Z</time></trkpt>
<trkpt lat="46.278" lon="7.51768"><ele>519.6</ele><time>2016-08-06T16:34:34Z</time></trkpt>
<trkpt lat="46.27799" lon="7.5176"><ele>519.6</ele><time>2016-08-06T16:34:35Z</time></trkpt>
<trkpt lat="46.27794" lon="7.51733"><ele>520.4</ele><time>2016-08-06T16:34:38Z</time></trkpt>
<trkpt lat="46.27791" lon="7.51716"><ele>520.8</ele><time>2016-08-06T16:34:40Z</time></trkpt>
<trkpt lat="46.27789" lon="7.51707"><ele>521</ele><time>2016-08-06T16:34:41Z</time></trkpt>
<trkpt lat="46.27788" lon="7.51699"><ele>521</ele><time>2016-08-06T16:34:42Z</time></trkpt>
<trkpt lat="46.27785" lon="7.51682"><ele>521</ele><time>2016-08-06T16:34:44Z</time></trkpt>
<trkpt lat="46.27781" lon="7.51664"><ele>521</ele><time>2016-08-06T16:34:46Z</time></trkpt>
<trkpt lat="46.27779" lon="7.51655"><ele>521</ele><time>2016-08-06T16:34:47Z</time></trkpt>
<trkpt lat="46.27774" lon="7.51626"><ele>521</ele><time>2016-08-06T16:34:50Z</time></trkpt>
<trkpt lat="46.2777" lon="7.51606"><ele>521</ele><time>2016-08-06T16:34:52Z</time></trkpt>
<trkpt lat="46.27768" lon="7.51597"><ele>521</ele><time>2016-08-06T16:34:53Z</time></trkpt>
<trkpt lat="46.27763" lon="7.51568"><ele>521</ele><time>2016-08-06T16:34:56Z</time></trkpt>
<trkpt lat="46.27761" lon="7.51559"><ele>521</ele><time>2016-08-06T16:34:57Z</time></trkpt>
<trkpt lat="46.27757" lon="7.51552"><ele>521</ele><time>2016-08-06T16:34:58Z</time></trkpt>
<trkpt lat="46.27755" lon="7.51537"><ele>521</ele><time>2016-08-06T16:35:00Z</time></trkpt>
<trkpt lat="46.27754" lon="7.5153"><ele>521</ele><time>2016-08-06T16:35:01Z</time></trkpt>
<trkpt lat="46.27752" lon="7.51515"><ele>521</ele><time>2016-08-06T16:35:03Z</time></trkpt>
<trkpt lat="46.27751" lon="7.515"><ele>521</ele><time>2016-08-06T16:35:05Z</time></trkpt>
<trkpt lat="46.27749" lon="7.51485"><ele>521</ele><time>2016-08-06T16:35:07Z</time></trkpt>
<trkpt lat="46.27747" lon="7.51477"><ele>521</ele><time>2016-08-06T16:35:08Z</time></trkpt>
<trkpt lat="46.27744" lon="7.5146"><ele>521</ele><time>2016-08-06T16:35:10Z</time></trkpt>
<trkpt lat="46.27743" lon="7.51452"><ele>521</ele><time>2016-08-06T16:35:11Z</time></trkpt>
<trkpt lat="46.27739" lon="7.51428"><ele>521</ele><time>2016-08-06T16:35:14Z</time></trkpt>
<trkpt lat="46.27738" lon="7.5142"><ele>521</ele><time>2016-08-06T16:35:15Z</time></trkpt>
<trkpt lat="46.27736" lon="7.51411"><ele>521</ele><time>2016-08-06T16:35:16Z</time></trkpt>
<trkpt lat="46.27735" lon="7.51403"><ele>521</ele><time>2016-08-06T16:35:17Z</time></trkpt>
<trkpt lat="46.2773" lon="7.51378"><ele>521</ele><time>2016-08-06T16:35:20Z</time></trkpt>
<trkpt lat="46.27728" lon="7.51361"><ele>520.6</ele><time>2016-08-06T16:35:22Z</time></trkpt>
<trkpt lat="46.27726" lon="7.51353"><ele>520.4</ele><time>2016-08-06T16:35:23Z</time></trkpt>
<trkpt lat="46.27723" lon="7.51336"><ele>520</ele><time>2016-08-06T16:35:25Z</time></trkpt>
<trkpt lat="46.27722" lon="7.51328"><ele>520</ele><time>2016-08-06T16:35:26Z</time></trkpt>
<trkpt lat="46.27719" lon="7.51311"><ele>520</ele><time>2016-08-06T16:35:28Z</time></trkpt>
<trkpt lat="46.27716" lon="7.51294"><ele>519.8</ele><time>2016-08-06T16:35:30Z</time></trkpt>
<trkpt lat="46.27715" lon="7.51286"><ele>519.8</ele><time>2016-08-06T16:35:31Z</time></trkpt>
<trkpt lat="46.27713" lon="7.51277"><ele>519.8</ele><time>2016-08-06T16:35:32Z</time></trkpt>
<trkpt lat="46.2771" lon="7.5126"><ele>519.8</ele><time>2016-08-06T16:35:34Z</time></trkpt>
<trkpt lat="46.27709" lon="7.51252"><ele>519.8</ele><time>2016-08-06T16:35:35Z</time></trkpt>
<trkpt lat="46.27705" lon="7.51227"><ele>519.6</ele><time>2016-08-06T16:35:38Z</time></trkpt>
<trkpt lat="46.27703" lon="7.51218"><ele>519.6</ele><time>2016-08-06T16:35:39Z</time></trkpt>
<trkpt lat="46.27702" lon="7.5121"><ele>519.6</ele><time>2016-08-06T16:35:40Z</time></trkpt>
<trkpt lat="46.27699" lon="7.51194"><ele>519.6</ele><time>2016-08-06T16:35:42Z</time></trkpt>
<trkpt lat="46.27696" lon="7.51177"><ele>519.4</ele><time>2016-08-06T16:35:44Z</time></trkpt>
<trkpt lat="46.27693" lon="7.51161"><ele>519.4</ele><time>2016-08-06T16:35:46Z</time></trkpt>
<trkpt lat="46.27692" lon="7.51153"><ele>519.4</ele><time>2016-08-06T16:35:47Z</time></trkpt>
<trkpt lat="46.27688" lon="7.51128"><ele>519.4</ele><time>2016-08-06T16:35:50Z</time></trkpt>
<trkpt lat="46.27685" lon="7.51111"><ele>519.2</ele><time>2016-08-06T16:35:52Z</time></trkpt>
<trkpt lat="46.27683" lon="7.51103"><ele>519.2</ele><time>2016-08-06T16:35:53Z</time></trkpt>
<trkpt lat="46.27681" lon="7.51087"><ele>519.2</ele><time>2016-08-06T16:35:55Z</time></trkpt>
<trkpt lat="46.27679" lon="7.51079"><ele>519.2</ele><time>2016-08-06T16:35:56Z</time></trkpt>
<trkpt lat="46.27676" lon="7.51063"><ele>519</ele><time>2016-08-06T16:35:58Z</time></trkpt>
<trkpt lat="46.27675" lon="7.51055"><ele>519</ele><time>2016-08-06T16:35:59Z</time></trkpt>
<trkpt lat="46.27671" lon="7.51031"><ele>519</ele><time>2016-08-06T16:36:02Z</time></trkpt>
<trkpt lat="46.27669" lon="7.51023"><ele>519</ele><time>2016-08-06T16:36:03Z</time></trkpt>
<trkpt lat="46.27668" lon="7.51015"><ele>519</ele><time>2016-08-06T16:36:04Z</time></trkpt>
<trkpt lat="46.27666" lon="7.51007"><ele>518.8</ele><time>2016-08-06T16:36:05Z</time></trkpt>
<trkpt lat="46.27662" lon="7.50982"><ele>518.8</ele><time>2016-08-06T16:36:08Z</time></trkpt>
<trkpt lat="46.27659" lon="7.50966"><ele>518.8</ele><time>2016-08-06T16:36:10Z</time></trkpt>
<trkpt lat="46.27657" lon="7.50958"><ele>518.8</ele><time>2016-08-06T16:36:11Z</time></trkpt>
<trkpt lat="46.27655" lon="7.50952"><ele>518.8</ele><time>2016-08-06T16:36:12Z</time></trkpt>
<trkpt lat="46.27651" lon="7.5094"><ele>518.6</ele><time>2016-08-06T16:36:14Z</time></trkpt>
<trkpt lat="46.27648" lon="7.50928"><ele>518.6</ele><time>2016-08-06T16:36:16Z</time></trkpt>
<trkpt lat="46.27646" lon="7.50922"><ele>518.6</ele><time>2016-08-06T16:36:17Z</time></trkpt>
<trkpt lat="46.2764" lon="7.50904"><ele>518.4</ele><time>2016-08-06T16:36:20Z</time></trkpt>
<trkpt lat="46.27638" lon="7.50898"><ele>518.4</ele><time>2016-08-06T16:36:21Z</time></trkpt>
<trkpt lat="46.27637" lon="7.50895"><ele>518.4</ele><time>2016-08-06T16:36:22Z</time></trkpt>
<trkpt lat="46.27636" lon="7.50892"><ele>518.4</ele><time>2016-08-06T16:36:23Z</time></trkpt>
<trkpt lat="46.27632" lon="7.50883"><ele>518.4</ele><time>2016-08-06T16:36:26Z</time></trkpt>
<trkpt lat="46.2763" lon="7.50877"><ele>518.2</ele><time>2016-08-06T16:36:28Z</time></trkpt>
<trkpt lat="46.27629" lon="7.50872"><ele>518.2</ele><time>2016-08-06T16:36:29Z</time></trkpt>
<trkpt lat="46.27633" lon="7.50843"><ele>518.2</ele><time>2016-08-06T16:36:32Z</time></trkpt>
<trkpt lat="46.27635" lon="7.50824"><ele>518.2</ele><time>2016-08-06T16:36:34Z</time></trkpt>
<trkpt lat="46.27633" lon="7.50809"><ele>518</ele><time>2016-08-06T16:36:36Z</time></trkpt>
<trkpt lat="46.2763" lon="7.50794"><ele>518</ele><time>2016-08-06T16:36:38Z</time></trkpt>
<trkpt lat="46.27628" lon="7.50779"><ele>518</ele><time>2016-08-06T16:36:40Z</time></trkpt>
<trkpt lat="46.27626" lon="7.50772"><ele>518</ele><time>2016-08-06T16:36:41Z</time></trkpt>
<trkpt lat="46.27624" lon="7.50757"><ele>517.8</ele><time>2016-08-06T16:36:43Z</time></trkpt>
<trkpt lat="46.27622" lon="7.50748"><ele>517.8</ele><time>2016-08-06T16:36:44Z</time></trkpt>
<trkpt lat="46.27619" lon="7.50731"><ele>517.8</ele><time>2016-08-06T16:36:46Z</time></trkpt>
<trkpt lat="46.27618" lon="7.50723"><ele>517.8</ele><time>2016-08-06T16:36:47Z</time></trkpt>
<trkpt lat="46.27614" lon="7.50697"><ele>517.6</ele><time>2016-08-06T16:36:50Z</time></trkpt>
<trkpt lat="46.27612" lon="7.50688"><ele>517.6</ele><time>2016-08-06T16:36:51Z</time></trkpt>
<trkpt lat="46.27611" lon="7.5068"><ele>517.6</ele><time>2016-08-06T16:36:52Z</time></trkpt>
<trkpt lat="46.27608" lon="7.50664"><ele>517.6</ele><time>2016-08-06T16:36:54Z</time></trkpt>
<trkpt lat="46.27605" lon="7.50647"><ele>517.4</ele><time>2016-08-06T16:36:56Z</time></trkpt>
<trkpt lat="46.27602" lon="7.50631"><ele>517.4</ele><time>2016-08-06T16:36:58Z</time></trkpt>
<trkpt lat="46.27601" lon="7.50623"><ele>517.4</ele><time>2016-08-06T16:36:59Z</time></trkpt>
<trkpt lat="46.27597" lon="7.50599"><ele>517.4</ele><time>2016-08-06T16:37:02Z</time></trkpt>
<trkpt lat="46.27594" lon="7.50582"><ele>517.2</ele><time>2016-08-06T16:37:04Z</time></trkpt>
<trkpt lat="46.27593" lon="7.50574"><ele>517.2</ele><time>2016-08-06T16:37:05Z</time></trkpt>
<trkpt lat="46.2759" lon="7.50558"><ele>517.2</ele><time>2016-08-06T16:37:07Z</time></trkpt>
<trkpt lat="46.27588" lon="7.5055"><ele>517.2</ele><time>2016-08-06T16:37:08Z</time></trkpt>
<trkpt lat="46.27586" lon="7.50533"><ele>517.2</ele><time>2016-08-06T16:37:10Z</time></trkpt>
<trkpt lat="46.27584" lon="7.50525"><ele>517</ele><time>2016-08-06T16:37:11Z</time></trkpt>
<trkpt lat="46.2758" lon="7.505"><ele>517</ele><time>2016-08-06T16:37:14Z</time></trkpt>
<trkpt lat="46.27579" lon="7.50492"><ele>517</ele><time>2016-08-06T16:37:15Z</time></trkpt>
<trkpt lat="46.27577" lon="7.50483"><ele>517</ele><time>2016-08-06T16:37:16Z</time></trkpt>
<trkpt lat="46.27574" lon="7.50466"><ele>516.8</ele><time>2016-08-06T16:37:18Z</time></trkpt>
<trkpt lat="46.27573" lon="7.50457"><ele>516.8</ele><time>2016-08-06T16:37:19Z</time></trkpt>
<trkpt lat="46.27569" lon="7.50431"><ele>516.8</ele><time>2016-08-06T16:37:22Z</time></trkpt>
<trkpt lat="46.27567" lon="7.50423"><ele>516.8</ele><time>2016-08-06T16:37:23Z</time></trkpt>
<trkpt lat="46.27566" lon="7.50414"><ele>516.6</ele><time>2016-08-06T16:37:24Z</time></trkpt>
<trkpt lat="46.27563" lon="7.50397"><ele>516.6</ele><time>2016-08-06T16:37:26Z</time></trkpt>
<trkpt lat="46.2756" lon="7.5038"><ele>516.6</ele><time>2016-08-06T16:37:28Z</time></trkpt>
<trkpt lat="46.27557" lon="7.50363"><ele>516.4</ele><time>2016-08-06T16:37:30Z</time></trkpt>
<trkpt lat="46.27555" lon="7.50355"><ele>516.4</ele><time>2016-08-06T16:37:31Z</time></trkpt>
<trkpt lat="46.27554" lon="7.50346"><ele>516.4</ele><time>2016-08-06T16:37:32Z</time></trkpt>
<trkpt lat="46.2755" lon="7.50329"><ele>516.4</ele><time>2016-08-06T16:37:34Z</time></trkpt>
<trkpt lat="46.27549" lon="7.50321"><ele>516.4</ele><time>2016-08-06T16:37:35Z</time></trkpt>
<trkpt lat="46.27544" lon="7.50295"><ele>516.2</ele><time>2016-08-06T16:37:38Z</time></trkpt>
<trkpt lat="46.27542" lon="7.50287"><ele>516.2</ele><time>2016-08-06T16:37:39Z</time></trkpt>
<trkpt lat="46.2754" lon="7.50278"><ele>516.2</ele><time>2016-08-06T16:37:40Z</time></trkpt>
<trkpt lat="46.27536" lon="7.5026"><ele>516</ele><time>2016-08-06T16:37:42Z</time></trkpt>
<trkpt lat="46.27532" lon="7.50242"><ele>516</ele><time>2016-08-06T16:37:44Z</time></trkpt>
<trkpt lat="46.27528" lon="7.50224"><ele>516</ele><time>2016-08-06T16:37:46Z</time></trkpt>
<trkpt lat="46.27527" lon="7.50215"><ele>516</ele><time>2016-08-06T16:37:47Z</time></trkpt>
<trkpt lat="46.27521" lon="7.50187"><ele>515.8</ele><time>2016-08-06T16:37:50Z</time></trkpt>
<trkpt lat="46.27517" lon="7.50169"><ele>515.8</ele><time>2016-08-06T16:37:52Z</time></trkpt>
<trkpt lat="46.27515" lon="7.5016"><ele>515.8</ele><time>2016-08-06T16:37:53Z</time></trkpt>
<trkpt lat="46.27509" lon="7.50134"><ele>515.6</ele><time>2016-08-06T16:37:56Z</time></trkpt>
<trkpt lat="46.27506" lon="7.50117"><ele>515.6</ele><time>2016-08-06T16:37:58Z</time></trkpt>
<trkpt lat="46.27502" lon="7.50099"><ele>515.4</ele><time>2016-08-06T16:38:00Z</time></trkpt>
<trkpt lat="46.275" lon="7.5009"><ele>515.4</ele><time>2016-08-06T16:38:01Z</time></trkpt>
<trkpt lat="46.27498" lon="7.50081"><ele>515.4</ele><time>2016-08-06T16:38:02Z</time></trkpt>
<trkpt lat="46.27494" lon="7.50063"><ele>515.4</ele><time>2016-08-06T16:38:04Z</time></trkpt>
<trkpt lat="46.2749" lon="7.50045"><ele>515.2</ele><time>2016-08-06T16:38:06Z</time></trkpt>
<trkpt lat="46.27487" lon="7.50028"><ele>515.2</ele><time>2016-08-06T16:38:08Z</time></trkpt>
<trkpt lat="46.27483" lon="7.50011"><ele>515.2</ele><time>2016-08-06T16:38:10Z</time></trkpt>
<trkpt lat="46.27479" lon="7.49994"><ele>515</ele><time>2016-08-06T16:38:12Z</time></trkpt>
<trkpt lat="46.27476" lon="7.49976"><ele>515</ele><time>2016-08-06T16:38:14Z</time></trkpt>
<trkpt lat="46.27472" lon="7.49959"><ele>515</ele><time>2016-08-06T16:38:16Z</time></trkpt>
<trkpt lat="46.27468" lon="7.4994"><ele>514.8</ele><time>2016-08-06T16:38:18Z</time></trkpt>
<trkpt lat="46.27464" lon="7.4992"><ele>514.8</ele><time>2016-08-06T16:38:20Z</time></trkpt>
<trkpt lat="46.27461" lon="7.499"><ele>514.8</ele><time>2016-08-06T16:38:22Z</time></trkpt>
<trkpt lat="46.27459" lon="7.49891"><ele>514.8</ele><time>2016-08-06T16:38:23Z</time></trkpt>
<trkpt lat="46.27454" lon="7.49863"><ele>514.6</ele><time>2016-08-06T16:38:26Z</time></trkpt>
<trkpt lat="46.27451" lon="7.49844"><ele>514.6</ele><time>2016-08-06T16:38:28Z</time></trkpt>
<trkpt lat="46.27449" lon="7.49835"><ele>514.6</ele><time>2016-08-06T16:38:29Z</time></trkpt>
<trkpt lat="46.27448" lon="7.49826"><ele>514.4</ele><time>2016-08-06T16:38:30Z</time></trkpt>
<trkpt lat="46.27445" lon="7.49809"><ele>514.4</ele><time>2016-08-06T16:38:32Z</time></trkpt>
<trkpt lat="46.27442" lon="7.49792"><ele>514.4</ele><time>2016-08-06T16:38:34Z</time></trkpt>
<trkpt lat="46.27439" lon="7.49776"><ele>514.2</ele><time>2016-08-06T16:38:36Z</time></trkpt>
<trkpt lat="46.27436" lon="7.49759"><ele>514.2</ele><time>2016-08-06T16:38:38Z</time></trkpt>
<trkpt lat="46.27434" lon="7.49743"><ele>514.2</ele><time>2016-08-06T16:38:40Z</time></trkpt>
<trkpt lat="46.27432" lon="7.49735"><ele>514.2</ele><time>2016-08-06T16:38:41Z</time></trkpt>
<trkpt lat="46.27429" lon="7.49711"><ele>514</ele><time>2016-08-06T16:38:44Z</time></trkpt>
<trkpt lat="46.27426" lon="7.49695"><ele>514</ele><time>2016-08-06T16:38:46Z</time></trkpt>
<trkpt lat="46.27423" lon="7.49678"><ele>513.8</ele><time>2016-08-06T16:38:48Z</time></trkpt>
<trkpt lat="46.2742" lon="7.49662"><ele>513.8</ele><time>2016-08-06T16:38:50Z</time></trkpt>
<trkpt lat="46.27418" lon="7.49645"><ele>513.8</ele><time>2016-08-06T16:38:52Z</time></trkpt>
<trkpt lat="46.27416" lon="7.49637"><ele>513.8</ele><time>2016-08-06T16:38:53Z</time></trkpt>
<trkpt lat="46.27415" lon="7.49628"><ele>513.6</ele><time>2016-08-06T16:38:54Z</time></trkpt>
<trkpt lat="46.27412" lon="7.49612"><ele>513.6</ele><time>2016-08-06T16:38:56Z</time></trkpt>
<trkpt lat="46.27409" lon="7.49595"><ele>513.6</ele><time>2016-08-06T16:38:58Z</time></trkpt>
<trkpt lat="46.27407" lon="7.49578"><ele>513.4</ele><time>2016-08-06T16:39:00Z</time></trkpt>
<trkpt lat="46.27404" lon="7.49562"><ele>513.4</ele><time>2016-08-06T16:39:02Z</time></trkpt>
<trkpt lat="46.27401" lon="7.49544"><ele>513.4</ele><time>2016-08-06T16:39:04Z</time></trkpt>
<trkpt lat="46.274" lon="7.49535"><ele>513.4</ele><time>2016-08-06T16:39:05Z</time></trkpt>
<trkpt lat="46.27397" lon="7.49518"><ele>513.2</ele><time>2016-08-06T16:39:07Z</time></trkpt>
<trkpt lat="46.27393" lon="7.49492"><ele>513.2</ele><time>2016-08-06T16:39:10Z</time></trkpt>
<trkpt lat="46.27391" lon="7.49483"><ele>513.2</ele><time>2016-08-06T16:39:11Z</time></trkpt>
<trkpt lat="46.27387" lon="7.49457"><ele>513</ele><time>2016-08-06T16:39:14Z</time></trkpt>
<trkpt lat="46.27385" lon="7.4944"><ele>513</ele><time>2016-08-06T16:39:16Z</time></trkpt>
<trkpt lat="46.27383" lon="7.49431"><ele>513</ele><time>2016-08-06T16:39:17Z</time></trkpt>
<trkpt lat="46.27382" lon="7.49423"><ele>512.8</ele><time>2016-08-06T16:39:18Z</time></trkpt>
<trkpt lat="46.2738" lon="7.49407"><ele>512.8</ele><time>2016-08-06T16:39:20Z</time></trkpt>
<trkpt lat="46.27379" lon="7.49399"><ele>512.8</ele><time>2016-08-06T16:39:21Z</time></trkpt>
<trkpt lat="46.27377" lon="7.4939"><ele>512.8</ele><time>2016-08-06T16:39:22Z</time></trkpt>
<trkpt lat="46.27376" lon="7.49382"><ele>512.8</ele><time>2016-08-06T16:39:23Z</time></trkpt>
<trkpt lat="46.27373" lon="7.49358"><ele>512.8</ele><time>2016-08-06T16:39:26Z</time></trkpt>
<trkpt lat="46.2737" lon="7.49341"><ele>513</ele><time>2016-08-06T16:39:28Z</time></trkpt>
<trkpt lat="46.27369" lon="7.49332"><ele>513</ele><time>2016-08-06T16:39:29Z</time></trkpt>
<trkpt lat="46.27365" lon="7.49306"><ele>513</ele><time>2016-08-06T16:39:32Z</time></trkpt>
<trkpt lat="46.27363" lon="7.49289"><ele>513</ele><time>2016-08-06T16:39:34Z</time></trkpt>
<trkpt lat="46.27361" lon="7.49282"><ele>513</ele><time>2016-08-06T16:39:35Z</time></trkpt>
<trkpt lat="46.27357" lon="7.49259"><ele>512.8</ele><time>2016-08-06T16:39:38Z</time></trkpt>
<trkpt lat="46.27354" lon="7.49244"><ele>512.8</ele><time>2016-08-06T16:39:40Z</time></trkpt>
<trkpt lat="46.27352" lon="7.49236"><ele>512.8</ele><time>2016-08-06T16:39:41Z</time></trkpt>
<trkpt lat="46.27349" lon="7.49221"><ele>512.8</ele><time>2016-08-06T16:39:43Z</time></trkpt>
<trkpt lat="46.27347" lon="7.49213"><ele>512.8</ele><time>2016-08-06T16:39:44Z</time></trkpt>
<trkpt lat="46.27344" lon="7.49197"><ele>512.8</ele><time>2016-08-06T16:39:46Z</time></trkpt>
<trkpt lat="46.27342" lon="7.49189"><ele>512.8</ele><time>2016-08-06T16:39:47Z</time></trkpt>
<trkpt lat="46.27337" lon="7.49165"><ele>512.6</ele><time>2016-08-06T16:39:50Z</time></trkpt>
<trkpt lat="46.27335" lon="7.49157"><ele>512.6</ele><time>2016-08-06T16:39:51Z</time></trkpt>
<trkpt lat="46.27333" lon="7.4915"><ele>512.6</ele><time>2016-08-06T16:39:52Z</time></trkpt>
<trkpt lat="46.27331" lon="7.49143"><ele>512.6</ele><time>2016-08-06T16:39:53Z</time></trkpt>
<trkpt lat="46.27326" lon="7.49122"><ele>512.6</ele><time>2016-08-06T16:39:56Z</time></trkpt>
<trkpt lat="46.27322" lon="7.49108"><ele>512.6</ele><time>2016-08-06T16:39:58Z</time></trkpt>
<trkpt lat="46.2732" lon="7.49101"><ele>512.4</ele><time>2016-08-06T16:39:59Z</time></trkpt>
<trkpt lat="46.27318" lon="7.49094"><ele>512.4</ele><time>2016-08-06T16:40:00Z</time></trkpt>
<trkpt lat="46.27314" lon="7.49078"><ele>512.4</ele><time>2016-08-06T16:40:02Z</time></trkpt>
<trkpt lat="46.2731" lon="7.49063"><ele>512.4</ele><time>2016-08-06T16:40:04Z</time></trkpt>
<trkpt lat="46.27308" lon="7.49055"><ele>512.4</ele><time>2016-08-06T16:40:05Z</time></trkpt>
<trkpt lat="46.27302" lon="7.49032"><ele>512.4</ele><time>2016-08-06T16:40:08Z</time></trkpt>
<trkpt lat="46.27297" lon="7.49017"><ele>512.2</ele><time>2016-08-06T16:40:10Z</time></trkpt>
<trkpt lat="46.27294" lon="7.49009"><ele>512.2</ele><time>2016-08-06T16:40:11Z</time></trkpt>
<trkpt lat="46.27288" lon="7.48994"><ele>512.2</ele><time>2016-08-06T16:40:13Z</time></trkpt>
<trkpt lat="46.2728" lon="7.48971"><ele>512.2</ele><time>2016-08-06T16:40:16Z</time></trkpt>
<trkpt lat="46.27277" lon="7.48954"><ele>512.2</ele><time>2016-08-06T16:40:18Z</time></trkpt>
<trkpt lat="46.27275" lon="7.48946"><ele>512.2</ele><time>2016-08-06T16:40:19Z</time></trkpt>
<trkpt lat="46.27273" lon="7.48937"><ele>512.2</ele><time>2016-08-06T16:40:20Z</time></trkpt>
<trkpt lat="46.27268" lon="7.48919"><ele>512</ele><time>2016-08-06T16:40:22Z</time></trkpt>
<trkpt lat="46.27266" lon="7.48911"><ele>512</ele><time>2016-08-06T16:40:23Z</time></trkpt>
<trkpt lat="46.27259" lon="7.48884"><ele>512</ele><time>2016-08-06T16:40:26Z</time></trkpt>
<trkpt lat="46.27254" lon="7.48867"><ele>512</ele><time>2016-08-06T16:40:28Z</time></trkpt>
<trkpt lat="46.2725" lon="7.48849"><ele>512</ele><time>2016-08-06T16:40:30Z</time></trkpt>
<trkpt lat="46.27245" lon="7.48832"><ele>512</ele><time>2016-08-06T16:40:32Z</time></trkpt>
<trkpt lat="46.27242" lon="7.48823"><ele>511.8</ele><time>2016-08-06T16:40:33Z</time></trkpt>
<trkpt lat="46.27239" lon="7.48814"><ele>511.8</ele><time>2016-08-06T16:40:34Z</time></trkpt>
<trkpt lat="46.27234" lon="7.48797"><ele>511.8</ele><time>2016-08-06T16:40:36Z</time></trkpt>
<trkpt lat="46.27228" lon="7.4878"><ele>511.8</ele><time>2016-08-06T16:40:38Z</time></trkpt>
<trkpt lat="46.27223" lon="7.48763"><ele>511.8</ele><time>2016-08-06T16:40:40Z</time></trkpt>
<trkpt lat="46.2722" lon="7.48754"><ele>511.8</ele><time>2016-08-06T16:40:41Z</time></trkpt>
<trkpt lat="46.27213" lon="7.48729"><ele>511.6</ele><time>2016-08-06T16:40:44Z</time></trkpt>
<trkpt lat="46.27208" lon="7.48712"><ele>511.6</ele><time>2016-08-06T16:40:46Z</time></trkpt>
<trkpt lat="46.27206" lon="7.48703"><ele>511.6</ele><time>2016-08-06T16:40:47Z</time></trkpt>
<trkpt lat="46.27199" lon="7.48678"><ele>511.6</ele><time>2016-08-06T16:40:50Z</time></trkpt>
<trkpt lat="46.27196" lon="7.48662"><ele>511.6</ele><time>2016-08-06T16:40:52Z</time></trkpt>
<trkpt lat="46.27196" lon="7.48653"><ele>511.6</ele><time>2016-08-06T16:40:53Z</time></trkpt>
<trkpt lat="46.27194" lon="7.48644"><ele>511.6</ele><time>2016-08-06T16:40:54Z</time></trkpt>
<trkpt lat="46.27189" lon="7.48626"><ele>511.4</ele><time>2016-08-06T16:40:56Z</time></trkpt>
<trkpt lat="46.27185" lon="7.48608"><ele>511.4</ele><time>2016-08-06T16:40:58Z</time></trkpt>
<trkpt lat="46.27183" lon="7.48599"><ele>511.4</ele><time>2016-08-06T16:40:59Z</time></trkpt>
<trkpt lat="46.27181" lon="7.4859"><ele>511.4</ele><time>2016-08-06T16:41:00Z</time></trkpt>
<trkpt lat="46.27178" lon="7.48583"><ele>511.4</ele><time>2016-08-06T16:41:01Z</time></trkpt>
<trkpt lat="46.27174" lon="7.48576"><ele>511.4</ele><time>2016-08-06T16:41:02Z</time></trkpt>
<trkpt lat="46.27167" lon="7.48563"><ele>511.4</ele><time>2016-08-06T16:41:04Z</time></trkpt>
<trkpt lat="46.27163" lon="7.48556"><ele>511.4</ele><time>2016-08-06T16:41:05Z</time></trkpt>
<trkpt lat="46.27152" lon="7.48536"><ele>511.2</ele><time>2016-08-06T16:41:08Z</time></trkpt>
<trkpt lat="46.27148" lon="7.4853"><ele>511.2</ele><time>2016-08-06T16:41:09Z</time></trkpt>
<trkpt lat="46.27144" lon="7.48519"><ele>511.2</ele><time>2016-08-06T16:41:10Z</time></trkpt>
<trkpt lat="46.27139" lon="7.48508"><ele>511.2</ele><time>2016-08-06T16:41:11Z</time></trkpt>
<trkpt lat="46.27127" lon="7.48476"><ele>511.2</ele><time>2016-08-06T16:41:14Z</time></trkpt>
<trkpt lat="46.27123" lon="7.48459"><ele>511.2</ele><time>2016-08-06T16:41:16Z</time></trkpt>
<trkpt lat="46.27121" lon="7.48451"><ele>511</ele><time>2016-08-06T16:41:17Z</time></trkpt>
<trkpt lat="46.27115" lon="7.48427"><ele>511</ele><time>2016-08-06T16:41:20Z</time></trkpt>
<trkpt lat="46.2711" lon="7.4841"><ele>511</ele><time>2016-08-06T16:41:22Z</time></trkpt>
<trkpt lat="46.27105" lon="7.48392"><ele>511</ele><time>2016-08-06T16:41:24Z</time></trkpt>
<trkpt lat="46.27101" lon="7.48373"><ele>511</ele><time>2016-08-06T16:41:26Z</time></trkpt>
<trkpt lat="46.27096" lon="7.48354"><ele>511</ele><time>2016-08-06T16:41:28Z</time></trkpt>
<trkpt lat="46.27093" lon="7.48345"><ele>510.8</ele><time>2016-08-06T16:41:29Z</time></trkpt>
<trkpt lat="46.27085" lon="7.48318"><ele>510.8</ele><time>2016-08-06T16:41:32Z</time></trkpt>
<trkpt lat="46.2708" lon="7.483"><ele>510.8</ele><time>2016-08-06T16:41:34Z</time></trkpt>
<trkpt lat="46.27075" lon="7.48282"><ele>510.8</ele><time>2016-08-06T16:41:36Z</time></trkpt>
<trkpt lat="46.27069" lon="7.48263"><ele>510.8</ele><time>2016-08-06T16:41:38Z</time></trkpt>
<trkpt lat="46.27062" lon="7.48245"><ele>510.6</ele><time>2016-08-06T16:41:40Z</time></trkpt>
<trkpt lat="46.27059" lon="7.48236"><ele>510.6</ele><time>2016-08-06T16:41:41Z</time></trkpt>
<trkpt lat="46.27053" lon="7.48217"><ele>510.6</ele><time>2016-08-06T16:41:43Z</time></trkpt>
<trkpt lat="46.27051" lon="7.48208"><ele>510.6</ele><time>2016-08-06T16:41:44Z</time></trkpt>
<trkpt lat="46.27046" lon="7.48189"><ele>510.6</ele><time>2016-08-06T16:41:46Z</time></trkpt>
<trkpt lat="46.27042" lon="7.48171"><ele>510.6</ele><time>2016-08-06T16:41:48Z</time></trkpt>
<trkpt lat="46.27037" lon="7.48153"><ele>510.6</ele><time>2016-08-06T16:41:50Z</time></trkpt>
<trkpt lat="46.27032" lon="7.48135"><ele>510.4</ele><time>2016-08-06T16:41:52Z</time></trkpt>
<trkpt lat="46.2703" lon="7.48127"><ele>510.4</ele><time>2016-08-06T16:41:53Z</time></trkpt>
<trkpt lat="46.27023" lon="7.48101"><ele>510.4</ele><time>2016-08-06T16:41:56Z</time></trkpt>
<trkpt lat="46.2702" lon="7.48092"><ele>510.4</ele><time>2016-08-06T16:41:57Z</time></trkpt>
<trkpt lat="46.27016" lon="7.48084"><ele>510.4</ele><time>2016-08-06T16:41:58Z</time></trkpt>
<trkpt lat="46.27015" lon="7.48076"><ele>510.4</ele><time>2016-08-06T16:41:59Z</time></trkpt>
<trkpt lat="46.2701" lon="7.48051"><ele>510.2</ele><time>2016-08-06T16:42:02Z</time></trkpt>
<trkpt lat="46.27007" lon="7.48034"><ele>510.2</ele><time>2016-08-06T16:42:04Z</time></trkpt>
<trkpt lat="46.27005" lon="7.48025"><ele>510.2</ele><time>2016-08-06T16:42:05Z</time></trkpt>
<trkpt lat="46.26997" lon="7.47999"><ele>510.2</ele><time>2016-08-06T16:42:08Z</time></trkpt>
<trkpt lat="46.26992" lon="7.47982"><ele>510.2</ele><time>2016-08-06T16:42:10Z</time></trkpt>
<trkpt lat="46.2699" lon="7.47973"><ele>510.2</ele><time>2016-08-06T16:42:11Z</time></trkpt>
<trkpt lat="46.26984" lon="7.47948"><ele>510</ele><time>2016-08-06T16:42:14Z</time></trkpt>
<trkpt lat="46.2698" lon="7.47931"><ele>510</ele><time>2016-08-06T16:42:16Z</time></trkpt>
<trkpt lat="46.26975" lon="7.47915"><ele>510</ele><time>2016-08-06T16:42:18Z</time></trkpt>
<trkpt lat="46.26973" lon="7.47906"><ele>510</ele><time>2016-08-06T16:42:19Z</time></trkpt>
<trkpt lat="46.26971" lon="7.47898"><ele>510</ele><time>2016-08-06T16:42:20Z</time></trkpt>
<trkpt lat="46.26967" lon="7.4788"><ele>510</ele><time>2016-08-06T16:42:22Z</time></trkpt>
<trkpt lat="46.26962" lon="7.47863"><ele>510</ele><time>2016-08-06T16:42:24Z</time></trkpt>
<trkpt lat="46.26957" lon="7.47846"><ele>509.8</ele><time>2016-08-06T16:42:26Z</time></trkpt>
<trkpt lat="46.26955" lon="7.47838"><ele>509.8</ele><time>2016-08-06T16:42:27Z</time></trkpt>
<trkpt lat="46.26953" lon="7.4783"><ele>509.8</ele><time>2016-08-06T16:42:28Z</time></trkpt>
<trkpt lat="46.26951" lon="7.47823"><ele>509.8</ele><time>2016-08-06T16:42:29Z</time></trkpt>
<trkpt lat="46.26945" lon="7.478"><ele>509.8</ele><time>2016-08-06T16:42:32Z</time></trkpt>
<trkpt lat="46.26941" lon="7.47785"><ele>509.8</ele><time>2016-08-06T16:42:34Z</time></trkpt>
<trkpt lat="46.26939" lon="7.47777"><ele>509.8</ele><time>2016-08-06T16:42:35Z</time></trkpt>
<trkpt lat="46.26932" lon="7.47753"><ele>509.6</ele><time>2016-08-06T16:42:38Z</time></trkpt>
<trkpt lat="46.2693" lon="7.47745"><ele>509.6</ele><time>2016-08-06T16:42:39Z</time></trkpt>
<trkpt lat="46.26927" lon="7.47737"><ele>509.6</ele><time>2016-08-06T16:42:40Z</time></trkpt>
<trkpt lat="46.26924" lon="7.47728"><ele>509.6</ele><time>2016-08-06T16:42:41Z</time></trkpt>
<trkpt lat="46.26916" lon="7.47703"><ele>509</ele><time>2016-08-06T16:42:44Z</time></trkpt>
<trkpt lat="46.2691" lon="7.47686"><ele>508.6</ele><time>2016-08-06T16:42:46Z</time></trkpt>
<trkpt lat="46.26907" lon="7.47677"><ele>508.6</ele><time>2016-08-06T16:42:47Z</time></trkpt>
<trkpt lat="46.26896" lon="7.47651"><ele>508.8</ele><time>2016-08-06T16:42:50Z</time></trkpt>
<trkpt lat="46.26889" lon="7.47634"><ele>508.8</ele><time>2016-08-06T16:42:52Z</time></trkpt>
<trkpt lat="46.26886" lon="7.47625"><ele>508.8</ele><time>2016-08-06T16:42:53Z</time></trkpt>
<trkpt lat="46.26885" lon="7.47617"><ele>508.8</ele><time>2016-08-06T16:42:54Z</time></trkpt>
<trkpt lat="46.26881" lon="7.476"><ele>508.6</ele><time>2016-08-06T16:42:56Z</time></trkpt>
<trkpt lat="46.26878" lon="7.47583"><ele>508.6</ele><time>2016-08-06T16:42:58Z</time></trkpt>
<trkpt lat="46.26876" lon="7.47574"><ele>508.4</ele><time>2016-08-06T16:42:59Z</time></trkpt>
<trkpt lat="46.26876" lon="7.47564"><ele>508.4</ele><time>2016-08-06T16:43:00Z</time></trkpt>
<trkpt lat="46.2687" lon="7.47548"><ele>508.4</ele><time>2016-08-06T16:43:02Z</time></trkpt>
<trkpt lat="46.26865" lon="7.47531"><ele>508.2</ele><time>2016-08-06T16:43:04Z</time></trkpt>
<trkpt lat="46.26864" lon="7.47524"><ele>508.2</ele><time>2016-08-06T16:43:05Z</time></trkpt>
<trkpt lat="46.26856" lon="7.47498"><ele>508</ele><time>2016-08-06T16:43:08Z</time></trkpt>
<trkpt lat="46.2685" lon="7.47481"><ele>507.8</ele><time>2016-08-06T16:43:10Z</time></trkpt>
<trkpt lat="46.26847" lon="7.47472"><ele>507.8</ele><time>2016-08-06T16:43:11Z</time></trkpt>
<trkpt lat="46.26844" lon="7.47464"><ele>507.8</ele><time>2016-08-06T16:43:12Z</time></trkpt>
<trkpt lat="46.26839" lon="7.47445"><ele>507.6</ele><time>2016-08-06T16:43:14Z</time></trkpt>
<trkpt lat="46.26833" lon="7.47427"><ele>507.6</ele><time>2016-08-06T16:43:16Z</time></trkpt>
<trkpt lat="46.26831" lon="7.47417"><ele>507.6</ele><time>2016-08-06T16:43:17Z</time></trkpt>
<trkpt lat="46.26825" lon="7.47399"><ele>507.4</ele><time>2016-08-06T16:43:19Z</time></trkpt>
<trkpt lat="46.26823" lon="7.47389"><ele>507.4</ele><time>2016-08-06T16:43:20Z</time></trkpt>
<trkpt lat="46.2682" lon="7.47371"><ele>507.2</ele><time>2016-08-06T16:43:22Z</time></trkpt>
<trkpt lat="46.26817" lon="7.47361"><ele>507.2</ele><time>2016-08-06T16:43:23Z</time></trkpt>
<trkpt lat="46.26809" lon="7.47335"><ele>507</ele><time>2016-08-06T16:43:26Z</time></trkpt>
<trkpt lat="46.26803" lon="7.47318"><ele>507</ele><time>2016-08-06T16:43:28Z</time></trkpt>
<trkpt lat="46.268" lon="7.47309"><ele>506.8</ele><time>2016-08-06T16:43:29Z</time></trkpt>
<trkpt lat="46.26798" lon="7.47301"><ele>506.8</ele><time>2016-08-06T16:43:30Z</time></trkpt>
<trkpt lat="46.26796" lon="7.47286"><ele>506.8</ele><time>2016-08-06T16:43:32Z</time></trkpt>
<trkpt lat="46.26791" lon="7.47268"><ele>506.8</ele><time>2016-08-06T16:43:34Z</time></trkpt>
<trkpt lat="46.26788" lon="7.47259"><ele>506.8</ele><time>2016-08-06T16:43:35Z</time></trkpt>
<trkpt lat="46.2678" lon="7.47233"><ele>507</ele><time>2016-08-06T16:43:38Z</time></trkpt>
<trkpt lat="46.26777" lon="7.47225"><ele>507</ele><time>2016-08-06T16:43:39Z</time></trkpt>
<trkpt lat="46.26775" lon="7.47217"><ele>507</ele><time>2016-08-06T16:43:40Z</time></trkpt>
<trkpt lat="46.26771" lon="7.47202"><ele>507</ele><time>2016-08-06T16:43:42Z</time></trkpt>
<trkpt lat="46.26766" lon="7.47187"><ele>507</ele><time>2016-08-06T16:43:44Z</time></trkpt>
<trkpt lat="46.26762" lon="7.47171"><ele>507</ele><time>2016-08-06T16:43:46Z</time></trkpt>
<trkpt lat="46.2676" lon="7.47164"><ele>507</ele><time>2016-08-06T16:43:47Z</time></trkpt>
<trkpt lat="46.26754" lon="7.47141"><ele>507</ele><time>2016-08-06T16:43:50Z</time></trkpt>
<trkpt lat="46.2675" lon="7.47127"><ele>507</ele><time>2016-08-06T16:43:52Z</time></trkpt>
<trkpt lat="46.26748" lon="7.47119"><ele>507</ele><time>2016-08-06T16:43:53Z</time></trkpt>
<trkpt lat="46.26742" lon="7.47097"><ele>506.8</ele><time>2016-08-06T16:43:56Z</time></trkpt>
<trkpt lat="46.26738" lon="7.47081"><ele>506.8</ele><time>2016-08-06T16:43:58Z</time></trkpt>
<trkpt lat="46.26736" lon="7.47073"><ele>506.8</ele><time>2016-08-06T16:43:59Z</time></trkpt>
<trkpt lat="46.2673" lon="7.4705"><ele>506.8</ele><time>2016-08-06T16:44:02Z</time></trkpt>
<trkpt lat="46.26728" lon="7.47043"><ele>506.8</ele><time>2016-08-06T16:44:03Z</time></trkpt>
<trkpt lat="46.26725" lon="7.47035"><ele>506.8</ele><time>2016-08-06T16:44:04Z</time></trkpt>
<trkpt lat="46.26723" lon="7.47026"><ele>506.8</ele><time>2016-08-06T16:44:05Z</time></trkpt>
<trkpt lat="46.26716" lon="7.47"><ele>506.8</ele><time>2016-08-06T16:44:08Z</time></trkpt>
<trkpt lat="46.26712" lon="7.46983"><ele>506.8</ele><time>2016-08-06T16:44:10Z</time></trkpt>
<trkpt lat="46.26707" lon="7.46965"><ele>506.8</ele><time>2016-08-06T16:44:12Z</time></trkpt>
<trkpt lat="46.26702" lon="7.46946"><ele>506.8</ele><time>2016-08-06T16:44:14Z</time></trkpt>
<trkpt lat="46.26699" lon="7.46937"><ele>506.8</ele><time>2016-08-06T16:44:15Z</time></trkpt>
<trkpt lat="46.26694" lon="7.46919"><ele>506.8</ele><time>2016-08-06T16:44:17Z</time></trkpt>
<trkpt lat="46.26688" lon="7.46892"><ele>506.8</ele><time>2016-08-06T16:44:20Z</time></trkpt>
<trkpt lat="46.26685" lon="7.46874"><ele>506.8</ele><time>2016-08-06T16:44:22Z</time></trkpt>
<trkpt lat="46.26681" lon="7.46856"><ele>506.8</ele><time>2016-08-06T16:44:24Z</time></trkpt>
<trkpt lat="46.26678" lon="7.46847"><ele>506.8</ele><time>2016-08-06T16:44:25Z</time></trkpt>
<trkpt lat="46.26674" lon="7.46829"><ele>506.6</ele><time>2016-08-06T16:44:27Z</time></trkpt>
<trkpt lat="46.26669" lon="7.46811"><ele>506.6</ele><time>2016-08-06T16:44:29Z</time></trkpt>
<trkpt lat="46.26665" lon="7.46794"><ele>506.6</ele><time>2016-08-06T16:44:31Z</time></trkpt>
<trkpt lat="46.26663" lon="7.46784"><ele>506.6</ele><time>2016-08-06T16:44:32Z</time></trkpt>
<trkpt lat="46.2666" lon="7.46775"><ele>506.6</ele><time>2016-08-06T16:44:33Z</time></trkpt>
<trkpt lat="46.26656" lon="7.46757"><ele>506.6</ele><time>2016-08-06T16:44:35Z</time></trkpt>
<trkpt lat="46.26652" lon="7.46738"><ele>506.6</ele><time>2016-08-06T16:44:37Z</time></trkpt>
<trkpt lat="46.2665" lon="7.46729"><ele>506.6</ele><time>2016-08-06T16:44:38Z</time></trkpt>
<trkpt lat="46.26646" lon="7.46711"><ele>506.6</ele><time>2016-08-06T16:44:40Z</time></trkpt>
<trkpt lat="46.26644" lon="7.46702"><ele>506.6</ele><time>2016-08-06T16:44:41Z</time></trkpt>
<trkpt lat="46.26638" lon="7.46674"><ele>506.6</ele><time>2016-08-06T16:44:44Z</time></trkpt>
<trkpt lat="46.26636" lon="7.46665"><ele>506.6</ele><time>2016-08-06T16:44:45Z</time></trkpt>
<trkpt lat="46.26634" lon="7.46656"><ele>506.6</ele><time>2016-08-06T16:44:46Z</time></trkpt>
<trkpt lat="46.26632" lon="7.46646"><ele>506.6</ele><time>2016-08-06T16:44:47Z</time></trkpt>
<trkpt lat="46.26626" lon="7.46618"><ele>506.6</ele><time>2016-08-06T16:44:50Z</time></trkpt>
<trkpt lat="46.26622" lon="7.466"><ele>506.6</ele><time>2016-08-06T16:44:52Z</time></trkpt>
<trkpt lat="46.2662" lon="7.4659"><ele>506.6</ele><time>2016-08-06T16:44:53Z</time></trkpt>
<trkpt lat="46.26613" lon="7.46562"><ele>506.6</ele><time>2016-08-06T16:44:56Z</time></trkpt>
<trkpt lat="46.26609" lon="7.46543"><ele>506.6</ele><time>2016-08-06T16:44:58Z</time></trkpt>
<trkpt lat="46.26607" lon="7.46533"><ele>506.4</ele><time>2016-08-06T16:44:59Z</time></trkpt>
<trkpt lat="46.26602" lon="7.46515"><ele>506.4</ele><time>2016-08-06T16:45:01Z</time></trkpt>
<trkpt lat="46.266" lon="7.46505"><ele>506.4</ele><time>2016-08-06T16:45:02Z</time></trkpt>
<trkpt lat="46.26596" lon="7.46487"><ele>506.4</ele><time>2016-08-06T16:45:04Z</time></trkpt>
<trkpt lat="46.26593" lon="7.46468"><ele>506.4</ele><time>2016-08-06T16:45:06Z</time></trkpt>
<trkpt lat="46.26589" lon="7.46449"><ele>506.4</ele><time>2016-08-06T16:45:08Z</time></trkpt>
<trkpt lat="46.26587" lon="7.4644"><ele>506.4</ele><time>2016-08-06T16:45:09Z</time></trkpt>
<trkpt lat="46.26582" lon="7.46421"><ele>506.4</ele><time>2016-08-06T16:45:11Z</time></trkpt>
<trkpt lat="46.26574" lon="7.46393"><ele>506.4</ele><time>2016-08-06T16:45:14Z</time></trkpt>
<trkpt lat="46.26571" lon="7.46375"><ele>506.4</ele><time>2016-08-06T16:45:16Z</time></trkpt>
<trkpt lat="46.2657" lon="7.46365"><ele>506.4</ele><time>2016-08-06T16:45:17Z</time></trkpt>
<trkpt lat="46.26567" lon="7.46346"><ele>506.4</ele><time>2016-08-06T16:45:19Z</time></trkpt>
<trkpt lat="46.26564" lon="7.46328"><ele>506.4</ele><time>2016-08-06T16:45:21Z</time></trkpt>
<trkpt lat="46.26562" lon="7.46318"><ele>506.4</ele><time>2016-08-06T16:45:22Z</time></trkpt>
<trkpt lat="46.26558" lon="7.46299"><ele>506.4</ele><time>2016-08-06T16:45:24Z</time></trkpt>
<trkpt lat="46.26556" lon="7.4629"><ele>506.4</ele><time>2016-08-06T16:45:25Z</time></trkpt>
<trkpt lat="46.26551" lon="7.46262"><ele>506.4</ele><time>2016-08-06T16:45:28Z</time></trkpt>
<trkpt lat="46.26548" lon="7.46253"><ele>506.4</ele><time>2016-08-06T16:45:29Z</time></trkpt>
<trkpt lat="46.26541" lon="7.46226"><ele>506.2</ele><time>2016-08-06T16:45:32Z</time></trkpt>
<trkpt lat="46.26538" lon="7.46218"><ele>506.2</ele><time>2016-08-06T16:45:33Z</time></trkpt>
<trkpt lat="46.26535" lon="7.46212"><ele>506.2</ele><time>2016-08-06T16:45:34Z</time></trkpt>
<trkpt lat="46.26527" lon="7.462"><ele>506.2</ele><time>2016-08-06T16:45:36Z</time></trkpt>
<trkpt lat="46.26524" lon="7.46193"><ele>506.2</ele><time>2016-08-06T16:45:37Z</time></trkpt>
<trkpt lat="46.26521" lon="7.46183"><ele>506.2</ele><time>2016-08-06T16:45:38Z</time></trkpt>
<trkpt lat="46.26515" lon="7.46162"><ele>506.2</ele><time>2016-08-06T16:45:40Z</time></trkpt>
<trkpt lat="46.26513" lon="7.46142"><ele>506.2</ele><time>2016-08-06T16:45:42Z</time></trkpt>
<trkpt lat="46.26512" lon="7.46133"><ele>506.2</ele><time>2016-08-06T16:45:43Z</time></trkpt>
<trkpt lat="46.2651" lon="7.46123"><ele>506.2</ele><time>2016-08-06T16:45:44Z</time></trkpt>
<trkpt lat="46.26509" lon="7.46114"><ele>506.2</ele><time>2016-08-06T16:45:45Z</time></trkpt>
<trkpt lat="46.26507" lon="7.46105"><ele>506</ele><time>2016-08-06T16:45:46Z</time></trkpt>
<trkpt lat="46.26505" lon="7.46096"><ele>505.8</ele><time>2016-08-06T16:45:47Z</time></trkpt>
<trkpt lat="46.26499" lon="7.46069"><ele>505.2</ele><time>2016-08-06T16:45:50Z</time></trkpt>
<trkpt lat="46.26495" lon="7.4606"><ele>505.2</ele><time>2016-08-06T16:45:51Z</time></trkpt>
<trkpt lat="46.26489" lon="7.46043"><ele>505</ele><time>2016-08-06T16:45:53Z</time></trkpt>
<trkpt lat="46.26479" lon="7.46018"><ele>505</ele><time>2016-08-06T16:45:56Z</time></trkpt>
<trkpt lat="46.26476" lon="7.4601"><ele>505</ele><time>2016-08-06T16:45:57Z</time></trkpt>
<trkpt lat="46.26474" lon="7.46001"><ele>505</ele><time>2016-08-06T16:45:58Z</time></trkpt>
<trkpt lat="46.26471" lon="7.45992"><ele>505</ele><time>2016-08-06T16:45:59Z</time></trkpt>
<trkpt lat="46.26463" lon="7.45966"><ele>504.8</ele><time>2016-08-06T16:46:02Z</time></trkpt>
<trkpt lat="46.26458" lon="7.45949"><ele>504.8</ele><time>2016-08-06T16:46:04Z</time></trkpt>
<trkpt lat="46.26455" lon="7.45941"><ele>504.8</ele><time>2016-08-06T16:46:05Z</time></trkpt>
<trkpt lat="46.26448" lon="7.45924"><ele>504.8</ele><time>2016-08-06T16:46:07Z</time></trkpt>
<trkpt lat="46.26438" lon="7.45899"><ele>504.8</ele><time>2016-08-06T16:46:10Z</time></trkpt>
<trkpt lat="46.26435" lon="7.45891"><ele>504.6</ele><time>2016-08-06T16:46:11Z</time></trkpt>
<trkpt lat="46.26425" lon="7.45867"><ele>504.6</ele><time>2016-08-06T16:46:14Z</time></trkpt>
<trkpt lat="46.26421" lon="7.45859"><ele>504.6</ele><time>2016-08-06T16:46:15Z</time></trkpt>
<trkpt lat="46.26414" lon="7.45843"><ele>504.6</ele><time>2016-08-06T16:46:17Z</time></trkpt>
<trkpt lat="46.26411" lon="7.45835"><ele>504.6</ele><time>2016-08-06T16:46:18Z</time></trkpt>
<trkpt lat="46.26404" lon="7.4582"><ele>504.6</ele><time>2016-08-06T16:46:20Z</time></trkpt>
<trkpt lat="46.26397" lon="7.45805"><ele>504.4</ele><time>2016-08-06T16:46:22Z</time></trkpt>
<trkpt lat="46.26394" lon="7.45798"><ele>504.4</ele><time>2016-08-06T16:46:23Z</time></trkpt>
<trkpt lat="46.26383" lon="7.45775"><ele>504.4</ele><time>2016-08-06T16:46:26Z</time></trkpt>
<trkpt lat="46.2638" lon="7.45768"><ele>504.4</ele><time>2016-08-06T16:46:27Z</time></trkpt>
<trkpt lat="46.26373" lon="7.45752"><ele>504.4</ele><time>2016-08-06T16:46:29Z</time></trkpt>
<trkpt lat="46.26363" lon="7.45729"><ele>504.2</ele><time>2016-08-06T16:46:32Z</time></trkpt>
<trkpt lat="46.26359" lon="7.45721"><ele>504.2</ele><time>2016-08-06T16:46:33Z</time></trkpt>
<trkpt lat="46.26356" lon="7.45714"><ele>504.2</ele><time>2016-08-06T16:46:34Z</time></trkpt>
<trkpt lat="46.26352" lon="7.45707"><ele>504.2</ele><time>2016-08-06T16:46:35Z</time></trkpt>
<trkpt lat="46.26345" lon="7.45692"><ele>504.2</ele><time>2016-08-06T16:46:37Z</time></trkpt>
<trkpt lat="46.26338" lon="7.45678"><ele>504.2</ele><time>2016-08-06T16:46:39Z</time></trkpt>
<trkpt lat="46.2633" lon="7.45663"><ele>504</ele><time>2016-08-06T16:46:41Z</time></trkpt>
<trkpt lat="46.26327" lon="7.45656"><ele>504</ele><time>2016-08-06T16:46:42Z</time></trkpt>
<trkpt lat="46.2632" lon="7.45641"><ele>504</ele><time>2016-08-06T16:46:44Z</time></trkpt>
<trkpt lat="46.26312" lon="7.45626"><ele>504</ele><time>2016-08-06T16:46:46Z</time></trkpt>
<trkpt lat="46.26309" lon="7.45619"><ele>504</ele><time>2016-08-06T16:46:47Z</time></trkpt>
<trkpt lat="46.26298" lon="7.45596"><ele>503.8</ele><time>2016-08-06T16:46:50Z</time></trkpt>
<trkpt lat="46.2629" lon="7.45581"><ele>503.8</ele><time>2016-08-06T16:46:52Z</time></trkpt>
<trkpt lat="46.26286" lon="7.45574"><ele>503.8</ele><time>2016-08-06T16:46:53Z</time></trkpt>
<trkpt lat="46.26278" lon="7.45559"><ele>503.8</ele><time>2016-08-06T16:46:55Z</time></trkpt>
<trkpt lat="46.26271" lon="7.45544"><ele>503.8</ele><time>2016-08-06T16:46:57Z</time></trkpt>
<trkpt lat="46.26267" lon="7.45537"><ele>503.8</ele><time>2016-08-06T16:46:58Z</time></trkpt>
<trkpt lat="46.26263" lon="7.45529"><ele>503.6</ele><time>2016-08-06T16:46:59Z</time></trkpt>
<trkpt lat="46.26251" lon="7.45507"><ele>503.6</ele><time>2016-08-06T16:47:02Z</time></trkpt>
<trkpt lat="46.26248" lon="7.455"><ele>503.6</ele><time>2016-08-06T16:47:03Z</time></trkpt>
<trkpt lat="46.2624" lon="7.45485"><ele>503.6</ele><time>2016-08-06T16:47:05Z</time></trkpt>
<trkpt lat="46.26232" lon="7.45471"><ele>503.6</ele><time>2016-08-06T16:47:07Z</time></trkpt>
<trkpt lat="46.2622" lon="7.45449"><ele>503.4</ele><time>2016-08-06T16:47:10Z</time></trkpt>
<trkpt lat="46.26216" lon="7.45441"><ele>503.4</ele><time>2016-08-06T16:47:11Z</time></trkpt>
<trkpt lat="46.26208" lon="7.45427"><ele>503.4</ele><time>2016-08-06T16:47:13Z</time></trkpt>
<trkpt lat="46.26203" lon="7.4542"><ele>503.4</ele><time>2016-08-06T16:47:14Z</time></trkpt>
<trkpt lat="46.26194" lon="7.45406"><ele>503.4</ele><time>2016-08-06T16:47:16Z</time></trkpt>
<trkpt lat="46.26189" lon="7.45399"><ele>503.4</ele><time>2016-08-06T16:47:17Z</time></trkpt>
<trkpt lat="46.26176" lon="7.45378"><ele>503.2</ele><time>2016-08-06T16:47:20Z</time></trkpt>
<trkpt lat="46.26171" lon="7.45371"><ele>503.2</ele><time>2016-08-06T16:47:21Z</time></trkpt>
<trkpt lat="46.26158" lon="7.4535"><ele>503.2</ele><time>2016-08-06T16:47:24Z</time></trkpt>
<trkpt lat="46.26153" lon="7.45343"><ele>503.2</ele><time>2016-08-06T16:47:25Z</time></trkpt>
<trkpt lat="46.26144" lon="7.4533"><ele>503.2</ele><time>2016-08-06T16:47:27Z</time></trkpt>
<trkpt lat="46.26139" lon="7.45323"><ele>503</ele><time>2016-08-06T16:47:28Z</time></trkpt>
<trkpt lat="46.2613" lon="7.4531"><ele>503</ele><time>2016-08-06T16:47:30Z</time></trkpt>
<trkpt lat="46.2612" lon="7.45297"><ele>503</ele><time>2016-08-06T16:47:32Z</time></trkpt>
<trkpt lat="46.26111" lon="7.45283"><ele>503</ele><time>2016-08-06T16:47:34Z</time></trkpt>
<trkpt lat="46.26106" lon="7.45276"><ele>503</ele><time>2016-08-06T16:47:35Z</time></trkpt>
<trkpt lat="46.26091" lon="7.45256"><ele>502.8</ele><time>2016-08-06T16:47:38Z</time></trkpt>
<trkpt lat="46.26081" lon="7.45242"><ele>502.8</ele><time>2016-08-06T16:47:40Z</time></trkpt>
<trkpt lat="46.26076" lon="7.45235"><ele>502.8</ele><time>2016-08-06T16:47:41Z</time></trkpt>
<trkpt lat="46.26066" lon="7.4522"><ele>502.8</ele><time>2016-08-06T16:47:43Z</time></trkpt>
<trkpt lat="46.26051" lon="7.45198"><ele>502.8</ele><time>2016-08-06T16:47:46Z</time></trkpt>
<trkpt lat="46.26046" lon="7.45191"><ele>502.8</ele><time>2016-08-06T16:47:47Z</time></trkpt>
<trkpt lat="46.26041" lon="7.45183"><ele>502.6</ele><time>2016-08-06T16:47:48Z</time></trkpt>
<trkpt lat="46.26036" lon="7.45174"><ele>502.6</ele><time>2016-08-06T16:47:49Z</time></trkpt>
<trkpt lat="46.26027" lon="7.45157"><ele>502.6</ele><time>2016-08-06T16:47:51Z</time></trkpt>
<trkpt lat="46.26018" lon="7.45143"><ele>502.6</ele><time>2016-08-06T16:47:53Z</time></trkpt>
<trkpt lat="46.26004" lon="7.45122"><ele>502.6</ele><time>2016-08-06T16:47:56Z</time></trkpt>
<trkpt lat="46.25995" lon="7.45108"><ele>502.4</ele><time>2016-08-06T16:47:58Z</time></trkpt>
<trkpt lat="46.25991" lon="7.45101"><ele>502.4</ele><time>2016-08-06T16:47:59Z</time></trkpt>
<trkpt lat="46.25977" lon="7.45079"><ele>502.4</ele><time>2016-08-06T16:48:02Z</time></trkpt>
<trkpt lat="46.25968" lon="7.45064"><ele>502.4</ele><time>2016-08-06T16:48:04Z</time></trkpt>
<trkpt lat="46.25964" lon="7.45057"><ele>502.4</ele><time>2016-08-06T16:48:05Z</time></trkpt>
<trkpt lat="46.25948" lon="7.45039"><ele>502.2</ele><time>2016-08-06T16:48:08Z</time></trkpt>
<trkpt lat="46.25943" lon="7.45032"><ele>502.2</ele><time>2016-08-06T16:48:09Z</time></trkpt>
<trkpt lat="46.25938" lon="7.45026"><ele>502.2</ele><time>2016-08-06T16:48:10Z</time></trkpt>
<trkpt lat="46.25933" lon="7.45018"><ele>502.2</ele><time>2016-08-06T16:48:11Z</time></trkpt>
<trkpt lat="46.25924" lon="7.45003"><ele>502.2</ele><time>2016-08-06T16:48:13Z</time></trkpt>
<trkpt lat="46.25914" lon="7.44987"><ele>502.2</ele><time>2016-08-06T16:48:15Z</time></trkpt>
<trkpt lat="46.25905" lon="7.44972"><ele>502</ele><time>2016-08-06T16:48:17Z</time></trkpt>
<trkpt lat="46.25892" lon="7.44951"><ele>502</ele><time>2016-08-06T16:48:20Z</time></trkpt>
<trkpt lat="46.25883" lon="7.44937"><ele>502</ele><time>2016-08-06T16:48:22Z</time></trkpt>
<trkpt lat="46.25879" lon="7.4493"><ele>502</ele><time>2016-08-06T16:48:23Z</time></trkpt>
<trkpt lat="46.25875" lon="7.44923"><ele>502</ele><time>2016-08-06T16:48:24Z</time></trkpt>
<trkpt lat="46.25866" lon="7.44911"><ele>501.8</ele><time>2016-08-06T16:48:26Z</time></trkpt>
<trkpt lat="46.25862" lon="7.44904"><ele>501.8</ele><time>2016-08-06T16:48:27Z</time></trkpt>
<trkpt lat="46.25858" lon="7.44897"><ele>501.8</ele><time>2016-08-06T16:48:28Z</time></trkpt>
<trkpt lat="46.25853" lon="7.4489"><ele>501.8</ele><time>2016-08-06T16:48:29Z</time></trkpt>
<trkpt lat="46.2584" lon="7.44869"><ele>501.8</ele><time>2016-08-06T16:48:32Z</time></trkpt>
<trkpt lat="46.25831" lon="7.44855"><ele>501.8</ele><time>2016-08-06T16:48:34Z</time></trkpt>
<trkpt lat="46.25824" lon="7.44841"><ele>501.8</ele><time>2016-08-06T16:48:36Z</time></trkpt>
<trkpt lat="46.25817" lon="7.44827"><ele>501.8</ele><time>2016-08-06T16:48:38Z</time></trkpt>
<trkpt lat="46.25813" lon="7.4482"><ele>501.8</ele><time>2016-08-06T16:48:39Z</time></trkpt>
<trkpt lat="46.25809" lon="7.44813"><ele>501.8</ele><time>2016-08-06T16:48:40Z</time></trkpt>
<trkpt lat="46.25805" lon="7.44807"><ele>501.8</ele><time>2016-08-06T16:48:41Z</time></trkpt>
<trkpt lat="46.25792" lon="7.44789"><ele>501.8</ele><time>2016-08-06T16:48:44Z</time></trkpt>
<trkpt lat="46.25787" lon="7.44783"><ele>501.8</ele><time>2016-08-06T16:48:45Z</time></trkpt>
<trkpt lat="46.25778" lon="7.44771"><ele>501.8</ele><time>2016-08-06T16:48:47Z</time></trkpt>
<trkpt lat="46.25774" lon="7.44765"><ele>501.8</ele><time>2016-08-06T16:48:48Z</time></trkpt>
<trkpt lat="46.25767" lon="7.44755"><ele>501.8</ele><time>2016-08-06T16:48:50Z</time></trkpt>
<trkpt lat="46.25763" lon="7.44751"><ele>501.8</ele><time>2016-08-06T16:48:51Z</time></trkpt>
<trkpt lat="46.25759" lon="7.44746"><ele>501.8</ele><time>2016-08-06T16:48:52Z</time></trkpt>
<trkpt lat="46.25755" lon="7.44741"><ele>501.8</ele><time>2016-08-06T16:48:53Z</time></trkpt>
<trkpt lat="46.25748" lon="7.4473"><ele>501.8</ele><time>2016-08-06T16:48:55Z</time></trkpt>
<trkpt lat="46.25744" lon="7.44724"><ele>501.8</ele><time>2016-08-06T16:48:56Z</time></trkpt>
<trkpt lat="46.25741" lon="7.44718"><ele>501.8</ele><time>2016-08-06T16:48:57Z</time></trkpt>
<trkpt lat="46.2573" lon="7.447"><ele>501.8</ele><time>2016-08-06T16:49:00Z</time></trkpt>
<trkpt lat="46.25722" lon="7.44688"><ele>501.8</ele><time>2016-08-06T16:49:02Z</time></trkpt>
<trkpt lat="46.25712" lon="7.44676"><ele>501.8</ele><time>2016-08-06T16:49:04Z</time></trkpt>
<trkpt lat="46.25703" lon="7.44663"><ele>501.8</ele><time>2016-08-06T16:49:06Z</time></trkpt>
<trkpt lat="46.25693" lon="7.44651"><ele>501.8</ele><time>2016-08-06T16:49:08Z</time></trkpt>
<trkpt lat="46.25689" lon="7.44645"><ele>501.8</ele><time>2016-08-06T16:49:09Z</time></trkpt>
<trkpt lat="46.25684" lon="7.44637"><ele>501.8</ele><time>2016-08-06T16:49:10Z</time></trkpt>
<trkpt lat="46.25676" lon="7.44622"><ele>501.8</ele><time>2016-08-06T16:49:12Z</time></trkpt>
<trkpt lat="46.25667" lon="7.44607"><ele>501.8</ele><time>2016-08-06T16:49:14Z</time></trkpt>
<trkpt lat="46.25659" lon="7.44592"><ele>501.6</ele><time>2016-08-06T16:49:16Z</time></trkpt>
<trkpt lat="46.25654" lon="7.44585"><ele>501.6</ele><time>2016-08-06T16:49:17Z</time></trkpt>
<trkpt lat="46.25645" lon="7.4457"><ele>501.6</ele><time>2016-08-06T16:49:19Z</time></trkpt>
<trkpt lat="46.25632" lon="7.44548"><ele>501.6</ele><time>2016-08-06T16:49:22Z</time></trkpt>
<trkpt lat="46.25628" lon="7.4454"><ele>501.6</ele><time>2016-08-06T16:49:23Z</time></trkpt>
<trkpt lat="46.25624" lon="7.44532"><ele>501.6</ele><time>2016-08-06T16:49:24Z</time></trkpt>
<trkpt lat="46.25616" lon="7.44517"><ele>501.6</ele><time>2016-08-06T16:49:26Z</time></trkpt>
<trkpt lat="46.25611" lon="7.44511"><ele>501.6</ele><time>2016-08-06T16:49:27Z</time></trkpt>
<trkpt lat="46.25601" lon="7.44498"><ele>501.6</ele><time>2016-08-06T16:49:29Z</time></trkpt>
<trkpt lat="46.25585" lon="7.44479"><ele>501.6</ele><time>2016-08-06T16:49:32Z</time></trkpt>
<trkpt lat="46.25581" lon="7.44472"><ele>501.6</ele><time>2016-08-06T16:49:33Z</time></trkpt>
<trkpt lat="46.25576" lon="7.44466"><ele>501.6</ele><time>2016-08-06T16:49:34Z</time></trkpt>
<trkpt lat="46.25572" lon="7.44459"><ele>501.6</ele><time>2016-08-06T16:49:35Z</time></trkpt>
<trkpt lat="46.2556" lon="7.44439"><ele>501.6</ele><time>2016-08-06T16:49:38Z</time></trkpt>
<trkpt lat="46.25551" lon="7.44426"><ele>501.6</ele><time>2016-08-06T16:49:40Z</time></trkpt>
<trkpt lat="46.25547" lon="7.44419"><ele>501.6</ele><time>2016-08-06T16:49:41Z</time></trkpt>
<trkpt lat="46.25531" lon="7.44401"><ele>501.6</ele><time>2016-08-06T16:49:44Z</time></trkpt>
<trkpt lat="46.2552" lon="7.44388"><ele>501.6</ele><time>2016-08-06T16:49:46Z</time></trkpt>
<trkpt lat="46.25516" lon="7.44381"><ele>501.6</ele><time>2016-08-06T16:49:47Z</time></trkpt>
<trkpt lat="46.25504" lon="7.4436"><ele>501.6</ele><time>2016-08-06T16:49:50Z</time></trkpt>
<trkpt lat="46.25495" lon="7.44347"><ele>501.6</ele><time>2016-08-06T16:49:52Z</time></trkpt>
<trkpt lat="46.25491" lon="7.4434"><ele>501.6</ele><time>2016-08-06T16:49:53Z</time></trkpt>
<trkpt lat="46.25476" lon="7.44322"><ele>501.6</ele><time>2016-08-06T16:49:56Z</time></trkpt>
<trkpt lat="46.25466" lon="7.44309"><ele>501.6</ele><time>2016-08-06T16:49:58Z</time></trkpt>
<trkpt lat="46.25461" lon="7.44303"><ele>501.6</ele><time>2016-08-06T16:49:59Z</time></trkpt>
<trkpt lat="46.25456" lon="7.44297"><ele>501.6</ele><time>2016-08-06T16:50:00Z</time></trkpt>
<trkpt lat="46.25448" lon="7.44283"><ele>501.6</ele><time>2016-08-06T16:50:02Z</time></trkpt>
<trkpt lat="46.2544" lon="7.44269"><ele>501.4</ele><time>2016-08-06T16:50:04Z</time></trkpt>
<trkpt lat="46.25432" lon="7.44255"><ele>501.4</ele><time>2016-08-06T16:50:06Z</time></trkpt>
<trkpt lat="46.25428" lon="7.44248"><ele>501.4</ele><time>2016-08-06T16:50:07Z</time></trkpt>
<trkpt lat="46.25423" lon="7.44241"><ele>501.4</ele><time>2016-08-06T16:50:08Z</time></trkpt>
<trkpt lat="46.25413" lon="7.44232"><ele>501.4</ele><time>2016-08-06T16:50:10Z</time></trkpt>
<trkpt lat="46.25408" lon="7.44227"><ele>501.4</ele><time>2016-08-06T16:50:11Z</time></trkpt>
<trkpt lat="46.25404" lon="7.44221"><ele>501.4</ele><time>2016-08-06T16:50:12Z</time></trkpt>
<trkpt lat="46.25396" lon="7.44209"><ele>501.4</ele><time>2016-08-06T16:50:14Z</time></trkpt>
<trkpt lat="46.25388" lon="7.44197"><ele>501.4</ele><time>2016-08-06T16:50:16Z</time></trkpt>
<trkpt lat="46.25385" lon="7.44191"><ele>501.4</ele><time>2016-08-06T16:50:17Z</time></trkpt>
<trkpt lat="46.25373" lon="7.44172"><ele>501.4</ele><time>2016-08-06T16:50:20Z</time></trkpt>
<trkpt lat="46.25369" lon="7.44166"><ele>501.4</ele><time>2016-08-06T16:50:21Z</time></trkpt>
<trkpt lat="46.25365" lon="7.4416"><ele>501.4</ele><time>2016-08-06T16:50:22Z</time></trkpt>
<trkpt lat="46.25361" lon="7.44153"><ele>501.4</ele><time>2016-08-06T16:50:23Z</time></trkpt>
<trkpt lat="46.25348" lon="7.44135"><ele>501.4</ele><time>2016-08-06T16:50:26Z</time></trkpt>
<trkpt lat="46.2534" lon="7.44122"><ele>501.4</ele><time>2016-08-06T16:50:28Z</time></trkpt>
<trkpt lat="46.25336" lon="7.44115"><ele>501.4</ele><time>2016-08-06T16:50:29Z</time></trkpt>
<trkpt lat="46.25323" lon="7.44093"><ele>501.4</ele><time>2016-08-06T16:50:32Z</time></trkpt>
<trkpt lat="46.25315" lon="7.44078"><ele>501.4</ele><time>2016-08-06T16:50:34Z</time></trkpt>
<trkpt lat="46.25306" lon="7.44063"><ele>501.4</ele><time>2016-08-06T16:50:36Z</time></trkpt>
<trkpt lat="46.25297" lon="7.44049"><ele>501.4</ele><time>2016-08-06T16:50:38Z</time></trkpt>
<trkpt lat="46.25288" lon="7.44035"><ele>501.4</ele><time>2016-08-06T16:50:40Z</time></trkpt>
<trkpt lat="46.25284" lon="7.44028"><ele>501.4</ele><time>2016-08-06T16:50:41Z</time></trkpt>
<trkpt lat="46.25275" lon="7.44014"><ele>501.4</ele><time>2016-08-06T16:50:43Z</time></trkpt>
<trkpt lat="46.25269" lon="7.44007"><ele>501.4</ele><time>2016-08-06T16:50:44Z</time></trkpt>
<trkpt lat="46.25257" lon="7.43991"><ele>501.4</ele><time>2016-08-06T16:50:46Z</time></trkpt>
<trkpt lat="46.25251" lon="7.43983"><ele>501.4</ele><time>2016-08-06T16:50:47Z</time></trkpt>
<trkpt lat="46.25239" lon="7.43968"><ele>501.4</ele><time>2016-08-06T16:50:49Z</time></trkpt>
<trkpt lat="46.25235" lon="7.43961"><ele>501.4</ele><time>2016-08-06T16:50:50Z</time></trkpt>
<trkpt lat="46.25225" lon="7.43946"><ele>501.2</ele><time>2016-08-06T16:50:52Z</time></trkpt>
<trkpt lat="46.2522" lon="7.43939"><ele>501.2</ele><time>2016-08-06T16:50:53Z</time></trkpt>
<trkpt lat="46.25206" lon="7.43917"><ele>501.2</ele><time>2016-08-06T16:50:56Z</time></trkpt>
<trkpt lat="46.25196" lon="7.43903"><ele>501.2</ele><time>2016-08-06T16:50:58Z</time></trkpt>
<trkpt lat="46.25192" lon="7.43896"><ele>501.2</ele><time>2016-08-06T16:50:59Z</time></trkpt>
<trkpt lat="46.25178" lon="7.43875"><ele>501.2</ele><time>2016-08-06T16:51:02Z</time></trkpt>
<trkpt lat="46.25173" lon="7.43868"><ele>501.2</ele><time>2016-08-06T16:51:03Z</time></trkpt>
<trkpt lat="46.25162" lon="7.43854"><ele>501.2</ele><time>2016-08-06T16:51:05Z</time></trkpt>
<trkpt lat="46.25147" lon="7.43832"><ele>501.2</ele><time>2016-08-06T16:51:08Z</time></trkpt>
<trkpt lat="46.25136" lon="7.43818"><ele>501.2</ele><time>2016-08-06T16:51:10Z</time></trkpt>
<trkpt lat="46.25132" lon="7.43812"><ele>501.2</ele><time>2016-08-06T16:51:11Z</time></trkpt>
<trkpt lat="46.2512" lon="7.43791"><ele>501.2</ele><time>2016-08-06T16:51:14Z</time></trkpt>
<trkpt lat="46.25111" lon="7.43778"><ele>501.2</ele><time>2016-08-06T16:51:16Z</time></trkpt>
<trkpt lat="46.25107" lon="7.43771"><ele>501.2</ele><time>2016-08-06T16:51:17Z</time></trkpt>
<trkpt lat="46.25103" lon="7.43765"><ele>501.2</ele><time>2016-08-06T16:51:18Z</time></trkpt>
<trkpt lat="46.25098" lon="7.43759"><ele>501.2</ele><time>2016-08-06T16:51:19Z</time></trkpt>
<trkpt lat="46.25084" lon="7.43741"><ele>501.2</ele><time>2016-08-06T16:51:22Z</time></trkpt>
<trkpt lat="46.2508" lon="7.43735"><ele>501.2</ele><time>2016-08-06T16:51:23Z</time></trkpt>
<trkpt lat="46.25066" lon="7.43716"><ele>501.2</ele><time>2016-08-06T16:51:26Z</time></trkpt>
<trkpt lat="46.25056" lon="7.43703"><ele>501.2</ele><time>2016-08-06T16:51:28Z</time></trkpt>
<trkpt lat="46.25054" lon="7.43695"><ele>501.2</ele><time>2016-08-06T16:51:29Z</time></trkpt>
<trkpt lat="46.25042" lon="7.43676"><ele>501.2</ele><time>2016-08-06T16:51:32Z</time></trkpt>
<trkpt lat="46.25034" lon="7.4366"><ele>501.2</ele><time>2016-08-06T16:51:34Z</time></trkpt>
<trkpt lat="46.2503" lon="7.43653"><ele>501.2</ele><time>2016-08-06T16:51:35Z</time></trkpt>
<trkpt lat="46.25022" lon="7.43637"><ele>501.2</ele><time>2016-08-06T16:51:37Z</time></trkpt>
<trkpt lat="46.25009" lon="7.43617"><ele>501</ele><time>2016-08-06T16:51:40Z</time></trkpt>
<trkpt lat="46.25004" lon="7.4361"><ele>501</ele><time>2016-08-06T16:51:41Z</time></trkpt>
<trkpt lat="46.24991" lon="7.43589"><ele>501</ele><time>2016-08-06T16:51:44Z</time></trkpt>
<trkpt lat="46.24987" lon="7.43582"><ele>501</ele><time>2016-08-06T16:51:45Z</time></trkpt>
<trkpt lat="46.24982" lon="7.43575"><ele>501</ele><time>2016-08-06T16:51:46Z</time></trkpt>
<trkpt lat="46.24977" lon="7.43569"><ele>501</ele><time>2016-08-06T16:51:47Z</time></trkpt>
<trkpt lat="46.24963" lon="7.43548"><ele>501</ele><time>2016-08-06T16:51:50Z</time></trkpt>
<trkpt lat="46.24954" lon="7.43535"><ele>501</ele><time>2016-08-06T16:51:52Z</time></trkpt>
<trkpt lat="46.24948" lon="7.43526"><ele>501</ele><time>2016-08-06T16:51:53Z</time></trkpt>
<trkpt lat="46.24932" lon="7.43502"><ele>501</ele><time>2016-08-06T16:51:56Z</time></trkpt>
<trkpt lat="46.24922" lon="7.43485"><ele>501</ele><time>2016-08-06T16:51:58Z</time></trkpt>
<trkpt lat="46.24917" lon="7.43478"><ele>501</ele><time>2016-08-06T16:51:59Z</time></trkpt>
<trkpt lat="46.24903" lon="7.43455"><ele>501</ele><time>2016-08-06T16:52:02Z</time></trkpt>
<trkpt lat="46.24894" lon="7.4344"><ele>501</ele><time>2016-08-06T16:52:04Z</time></trkpt>
<trkpt lat="46.24889" lon="7.43431"><ele>501</ele><time>2016-08-06T16:52:05Z</time></trkpt>
<trkpt lat="46.24878" lon="7.43414"><ele>501</ele><time>2016-08-06T16:52:07Z</time></trkpt>
<trkpt lat="46.24868" lon="7.43397"><ele>501</ele><time>2016-08-06T16:52:09Z</time></trkpt>
<trkpt lat="46.24863" lon="7.43388"><ele>501</ele><time>2016-08-06T16:52:10Z</time></trkpt>
<trkpt lat="46.24857" lon="7.4338"><ele>501</ele><time>2016-08-06T16:52:11Z</time></trkpt>
<trkpt lat="46.24841" lon="7.43355"><ele>501</ele><time>2016-08-06T16:52:14Z</time></trkpt>
<trkpt lat="46.24835" lon="7.43347"><ele>501</ele><time>2016-08-06T16:52:15Z</time></trkpt>
<trkpt lat="46.2483" lon="7.43339"><ele>501</ele><time>2016-08-06T16:52:16Z</time></trkpt>
<trkpt lat="46.24824" lon="7.43331"><ele>501</ele><time>2016-08-06T16:52:17Z</time></trkpt>
<trkpt lat="46.24807" lon="7.43306"><ele>501</ele><time>2016-08-06T16:52:20Z</time></trkpt>
<trkpt lat="46.24802" lon="7.43298"><ele>501</ele><time>2016-08-06T16:52:21Z</time></trkpt>
<trkpt lat="46.24796" lon="7.4329"><ele>501</ele><time>2016-08-06T16:52:22Z</time></trkpt>
<trkpt lat="46.2479" lon="7.43282"><ele>501</ele><time>2016-08-06T16:52:23Z</time></trkpt>
<trkpt lat="46.24774" lon="7.43259"><ele>500.8</ele><time>2016-08-06T16:52:26Z</time></trkpt>
<trkpt lat="46.24763" lon="7.43244"><ele>500.8</ele><time>2016-08-06T16:52:28Z</time></trkpt>
<trkpt lat="46.24758" lon="7.43236"><ele>500.8</ele><time>2016-08-06T16:52:29Z</time></trkpt>
<trkpt lat="46.24743" lon="7.43212"><ele>500.8</ele><time>2016-08-06T16:52:32Z</time></trkpt>
<trkpt lat="46.24733" lon="7.43197"><ele>500.8</ele><time>2016-08-06T16:52:34Z</time></trkpt>
<trkpt lat="46.24728" lon="7.43189"><ele>500.8</ele><time>2016-08-06T16:52:35Z</time></trkpt>
<trkpt lat="46.24723" lon="7.43181"><ele>500.8</ele><time>2016-08-06T16:52:36Z</time></trkpt>
<trkpt lat="46.24714" lon="7.43166"><ele>500.8</ele><time>2016-08-06T16:52:38Z</time></trkpt>
<trkpt lat="46.24704" lon="7.43151"><ele>500.8</ele><time>2016-08-06T16:52:40Z</time></trkpt>
<trkpt lat="46.24699" lon="7.43143"><ele>500.8</ele><time>2016-08-06T16:52:41Z</time></trkpt>
<trkpt lat="46.24689" lon="7.43128"><ele>501</ele><time>2016-08-06T16:52:43Z</time></trkpt>
<trkpt lat="46.24684" lon="7.43121"><ele>501</ele><time>2016-08-06T16:52:44Z</time></trkpt>
<trkpt lat="46.24674" lon="7.43106"><ele>501</ele><time>2016-08-06T16:52:46Z</time></trkpt>
<trkpt lat="46.24669" lon="7.43099"><ele>501</ele><time>2016-08-06T16:52:47Z</time></trkpt>
<trkpt lat="46.24655" lon="7.43077"><ele>500.8</ele><time>2016-08-06T16:52:50Z</time></trkpt>
<trkpt lat="46.24649" lon="7.43069"><ele>500.8</ele><time>2016-08-06T16:52:51Z</time></trkpt>
<trkpt lat="46.24639" lon="7.43054"><ele>500.8</ele><time>2016-08-06T16:52:53Z</time></trkpt>
<trkpt lat="46.24629" lon="7.43038"><ele>500.6</ele><time>2016-08-06T16:52:55Z</time></trkpt>
<trkpt lat="46.2462" lon="7.43023"><ele>500.6</ele><time>2016-08-06T16:52:57Z</time></trkpt>
<trkpt lat="46.24611" lon="7.43008"><ele>500.6</ele><time>2016-08-06T16:52:59Z</time></trkpt>
<trkpt lat="46.24602" lon="7.42993"><ele>500.4</ele><time>2016-08-06T16:53:01Z</time></trkpt>
<trkpt lat="46.24597" lon="7.42988"><ele>500.4</ele><time>2016-08-06T16:53:02Z</time></trkpt>
<trkpt lat="46.24592" lon="7.42983"><ele>500.4</ele><time>2016-08-06T16:53:03Z</time></trkpt>
<trkpt lat="46.24584" lon="7.42969"><ele>500.4</ele><time>2016-08-06T16:53:05Z</time></trkpt>
<trkpt lat="46.24571" lon="7.42948"><ele>500.2</ele><time>2016-08-06T16:53:08Z</time></trkpt>
<trkpt lat="46.24567" lon="7.4294"><ele>500.2</ele><time>2016-08-06T16:53:09Z</time></trkpt>
<trkpt lat="46.24562" lon="7.42933"><ele>500.2</ele><time>2016-08-06T16:53:10Z</time></trkpt>
<trkpt lat="46.24558" lon="7.42926"><ele>500.2</ele><time>2016-08-06T16:53:11Z</time></trkpt>
<trkpt lat="46.24544" lon="7.42904"><ele>500</ele><time>2016-08-06T16:53:14Z</time></trkpt>
<trkpt lat="46.24535" lon="7.42889"><ele>500</ele><time>2016-08-06T16:53:16Z</time></trkpt>
<trkpt lat="46.24531" lon="7.42882"><ele>499.8</ele><time>2016-08-06T16:53:17Z</time></trkpt>
<trkpt lat="46.24526" lon="7.42876"><ele>499.8</ele><time>2016-08-06T16:53:18Z</time></trkpt>
<trkpt lat="46.24516" lon="7.42863"><ele>499.8</ele><time>2016-08-06T16:53:20Z</time></trkpt>
<trkpt lat="46.24506" lon="7.4285"><ele>499.8</ele><time>2016-08-06T16:53:22Z</time></trkpt>
<trkpt lat="46.24502" lon="7.42844"><ele>499.6</ele><time>2016-08-06T16:53:23Z</time></trkpt>
<trkpt lat="46.24497" lon="7.42837"><ele>499.6</ele><time>2016-08-06T16:53:24Z</time></trkpt>
<trkpt lat="46.24488" lon="7.42823"><ele>499.6</ele><time>2016-08-06T16:53:26Z</time></trkpt>
<trkpt lat="46.24484" lon="7.42816"><ele>499.6</ele><time>2016-08-06T16:53:27Z</time></trkpt>
<trkpt lat="46.24475" lon="7.42802"><ele>499.4</ele><time>2016-08-06T16:53:29Z</time></trkpt>
<trkpt lat="46.24466" lon="7.42787"><ele>499.4</ele><time>2016-08-06T16:53:31Z</time></trkpt>
<trkpt lat="46.24462" lon="7.4278"><ele>499.4</ele><time>2016-08-06T16:53:32Z</time></trkpt>
<trkpt lat="46.24453" lon="7.42765"><ele>499.2</ele><time>2016-08-06T16:53:34Z</time></trkpt>
<trkpt lat="46.24448" lon="7.42758"><ele>499.2</ele><time>2016-08-06T16:53:35Z</time></trkpt>
<trkpt lat="46.24434" lon="7.42736"><ele>499.2</ele><time>2016-08-06T16:53:38Z</time></trkpt>
<trkpt lat="46.24425" lon="7.42722"><ele>499</ele><time>2016-08-06T16:53:40Z</time></trkpt>
<trkpt lat="46.24415" lon="7.42708"><ele>499</ele><time>2016-08-06T16:53:42Z</time></trkpt>
<trkpt lat="46.24406" lon="7.42694"><ele>499</ele><time>2016-08-06T16:53:44Z</time></trkpt>
<trkpt lat="46.24401" lon="7.42687"><ele>498.8</ele><time>2016-08-06T16:53:45Z</time></trkpt>
<trkpt lat="46.24396" lon="7.42681"><ele>498.8</ele><time>2016-08-06T16:53:46Z</time></trkpt>
<trkpt lat="46.24392" lon="7.42675"><ele>498.8</ele><time>2016-08-06T16:53:47Z</time></trkpt>
<trkpt lat="46.24379" lon="7.42657"><ele>498.6</ele><time>2016-08-06T16:53:50Z</time></trkpt>
<trkpt lat="46.2437" lon="7.42645"><ele>498.6</ele><time>2016-08-06T16:53:52Z</time></trkpt>
<trkpt lat="46.24366" lon="7.42639"><ele>498.6</ele><time>2016-08-06T16:53:53Z</time></trkpt>
<trkpt lat="46.24361" lon="7.42633"><ele>498.6</ele><time>2016-08-06T16:53:54Z</time></trkpt>
<trkpt lat="46.24353" lon="7.4262"><ele>498.4</ele><time>2016-08-06T16:53:56Z</time></trkpt>
<trkpt lat="46.24344" lon="7.42607"><ele>498.4</ele><time>2016-08-06T16:53:58Z</time></trkpt>
<trkpt lat="46.2434" lon="7.426"><ele>498.4</ele><time>2016-08-06T16:53:59Z</time></trkpt>
<trkpt lat="46.24331" lon="7.42587"><ele>498.2</ele><time>2016-08-06T16:54:01Z</time></trkpt>
<trkpt lat="46.24318" lon="7.42567"><ele>498.2</ele><time>2016-08-06T16:54:04Z</time></trkpt>
<trkpt lat="46.24314" lon="7.4256"><ele>498.2</ele><time>2016-08-06T16:54:05Z</time></trkpt>
<trkpt lat="46.24301" lon="7.4254"><ele>498</ele><time>2016-08-06T16:54:08Z</time></trkpt>
<trkpt lat="46.24297" lon="7.42533"><ele>498</ele><time>2016-08-06T16:54:09Z</time></trkpt>
<trkpt lat="46.24283" lon="7.42513"><ele>497.8</ele><time>2016-08-06T16:54:12Z</time></trkpt>
<trkpt lat="46.24274" lon="7.42499"><ele>497.8</ele><time>2016-08-06T16:54:14Z</time></trkpt>
<trkpt lat="46.24265" lon="7.42486"><ele>497.8</ele><time>2016-08-06T16:54:16Z</time></trkpt>
<trkpt lat="46.2426" lon="7.42479"><ele>497.8</ele><time>2016-08-06T16:54:17Z</time></trkpt>
<trkpt lat="46.24251" lon="7.42464"><ele>497.6</ele><time>2016-08-06T16:54:19Z</time></trkpt>
<trkpt lat="46.24247" lon="7.42457"><ele>497.6</ele><time>2016-08-06T16:54:20Z</time></trkpt>
<trkpt lat="46.24242" lon="7.4245"><ele>497.6</ele><time>2016-08-06T16:54:21Z</time></trkpt>
<trkpt lat="46.24233" lon="7.42435"><ele>497.8</ele><time>2016-08-06T16:54:23Z</time></trkpt>
<trkpt lat="46.24229" lon="7.42429"><ele>497.8</ele><time>2016-08-06T16:54:24Z</time></trkpt>
<trkpt lat="46.24225" lon="7.42422"><ele>497.8</ele><time>2016-08-06T16:54:25Z</time></trkpt>
<trkpt lat="46.24212" lon="7.42402"><ele>497.4</ele><time>2016-08-06T16:54:28Z</time></trkpt>
<trkpt lat="46.24207" lon="7.42396"><ele>497.4</ele><time>2016-08-06T16:54:29Z</time></trkpt>
<trkpt lat="46.24199" lon="7.42383"><ele>497</ele><time>2016-08-06T16:54:31Z</time></trkpt>
<trkpt lat="46.2419" lon="7.4237"><ele>496.8</ele><time>2016-08-06T16:54:33Z</time></trkpt>
<trkpt lat="46.24182" lon="7.42358"><ele>496.6</ele><time>2016-08-06T16:54:35Z</time></trkpt>
<trkpt lat="46.24173" lon="7.42345"><ele>496.4</ele><time>2016-08-06T16:54:37Z</time></trkpt>
<trkpt lat="46.24165" lon="7.42333"><ele>496.2</ele><time>2016-08-06T16:54:39Z</time></trkpt>
<trkpt lat="46.2416" lon="7.42321"><ele>496</ele><time>2016-08-06T16:54:41Z</time></trkpt>
<trkpt lat="46.24152" lon="7.42304"><ele>495.6</ele><time>2016-08-06T16:54:44Z</time></trkpt>
<trkpt lat="46.24146" lon="7.42292"><ele>495.4</ele><time>2016-08-06T16:54:46Z</time></trkpt>
<trkpt lat="46.24143" lon="7.42286"><ele>495.4</ele><time>2016-08-06T16:54:47Z</time></trkpt>
<trkpt lat="46.24141" lon="7.42281"><ele>495.2</ele><time>2016-08-06T16:54:48Z</time></trkpt>
<trkpt lat="46.24138" lon="7.42275"><ele>495.4</ele><time>2016-08-06T16:54:49Z</time></trkpt>
<trkpt lat="46.24132" lon="7.42265"><ele>495.6</ele><time>2016-08-06T16:54:51Z</time></trkpt>
<trkpt lat="46.24126" lon="7.42256"><ele>495.8</ele><time>2016-08-06T16:54:53Z</time></trkpt>
<trkpt lat="46.24119" lon="7.42246"><ele>496</ele><time>2016-08-06T16:54:55Z</time></trkpt>
<trkpt lat="46.24113" lon="7.42237"><ele>496.4</ele><time>2016-08-06T16:54:57Z</time></trkpt>
<trkpt lat="46.24107" lon="7.42226"><ele>496.6</ele><time>2016-08-06T16:54:59Z</time></trkpt>
<trkpt lat="46.24096" lon="7.42206"><ele>496.6</ele><time>2016-08-06T16:55:02Z</time></trkpt>
<trkpt lat="46.24093" lon="7.422"><ele>496.6</ele><time>2016-08-06T16:55:03Z</time></trkpt>
<trkpt lat="46.24086" lon="7.42188"><ele>496.6</ele><time>2016-08-06T16:55:05Z</time></trkpt>
<trkpt lat="46.24076" lon="7.4217"><ele>496.8</ele><time>2016-08-06T16:55:08Z</time></trkpt>
<trkpt lat="46.24072" lon="7.42164"><ele>496.8</ele><time>2016-08-06T16:55:09Z</time></trkpt>
<trkpt lat="46.24062" lon="7.42146"><ele>496.8</ele><time>2016-08-06T16:55:12Z</time></trkpt>
<trkpt lat="46.24055" lon="7.42132"><ele>496.8</ele><time>2016-08-06T16:55:14Z</time></trkpt>
<trkpt lat="46.24047" lon="7.42118"><ele>497</ele><time>2016-08-06T16:55:16Z</time></trkpt>
<trkpt lat="46.24044" lon="7.42111"><ele>497</ele><time>2016-08-06T16:55:17Z</time></trkpt>
<trkpt lat="46.24037" lon="7.42097"><ele>497</ele><time>2016-08-06T16:55:19Z</time></trkpt>
<trkpt lat="46.24033" lon="7.4209"><ele>497</ele><time>2016-08-06T16:55:20Z</time></trkpt>
<trkpt lat="46.2403" lon="7.42081"><ele>497</ele><time>2016-08-06T16:55:21Z</time></trkpt>
<trkpt lat="46.24024" lon="7.42065"><ele>497</ele><time>2016-08-06T16:55:23Z</time></trkpt>
<trkpt lat="46.24015" lon="7.4204"><ele>497.2</ele><time>2016-08-06T16:55:26Z</time></trkpt>
<trkpt lat="46.24012" lon="7.42032"><ele>497.2</ele><time>2016-08-06T16:55:27Z</time></trkpt>
<trkpt lat="46.24006" lon="7.42014"><ele>497.2</ele><time>2016-08-06T16:55:29Z</time></trkpt>
<trkpt lat="46.23999" lon="7.41988"><ele>497.2</ele><time>2016-08-06T16:55:32Z</time></trkpt>
<trkpt lat="46.23996" lon="7.4198"><ele>497.2</ele><time>2016-08-06T16:55:33Z</time></trkpt>
<trkpt lat="46.23993" lon="7.41971"><ele>497.2</ele><time>2016-08-06T16:55:34Z</time></trkpt>
<trkpt lat="46.23991" lon="7.41962"><ele>497.4</ele><time>2016-08-06T16:55:35Z</time></trkpt>
<trkpt lat="46.23985" lon="7.41935"><ele>497.4</ele><time>2016-08-06T16:55:38Z</time></trkpt>
<trkpt lat="46.23981" lon="7.41917"><ele>497.4</ele><time>2016-08-06T16:55:40Z</time></trkpt>
<trkpt lat="46.23979" lon="7.41908"><ele>497.4</ele><time>2016-08-06T16:55:41Z</time></trkpt>
<trkpt lat="46.23976" lon="7.41891"><ele>497.4</ele><time>2016-08-06T16:55:43Z</time></trkpt>
<trkpt lat="46.23972" lon="7.41865"><ele>497.2</ele><time>2016-08-06T16:55:46Z</time></trkpt>
<trkpt lat="46.2397" lon="7.41856"><ele>497</ele><time>2016-08-06T16:55:47Z</time></trkpt>
<trkpt lat="46.23967" lon="7.41839"><ele>496.8</ele><time>2016-08-06T16:55:49Z</time></trkpt>
<trkpt lat="46.23965" lon="7.4182"><ele>496.6</ele><time>2016-08-06T16:55:51Z</time></trkpt>
<trkpt lat="46.23962" lon="7.41802"><ele>496.4</ele><time>2016-08-06T16:55:53Z</time></trkpt>
<trkpt lat="46.23957" lon="7.41774"><ele>496.2</ele><time>2016-08-06T16:55:56Z</time></trkpt>
<trkpt lat="46.23955" lon="7.41755"><ele>496</ele><time>2016-08-06T16:55:58Z</time></trkpt>
<trkpt lat="46.23954" lon="7.41745"><ele>496</ele><time>2016-08-06T16:55:59Z</time></trkpt>
<trkpt lat="46.23953" lon="7.41736"><ele>496</ele><time>2016-08-06T16:56:00Z</time></trkpt>
<trkpt lat="46.23951" lon="7.41717"><ele>496.2</ele><time>2016-08-06T16:56:02Z</time></trkpt>
<trkpt lat="46.2395" lon="7.41708"><ele>496.4</ele><time>2016-08-06T16:56:03Z</time></trkpt>
<trkpt lat="46.23949" lon="7.41697"><ele>496.6</ele><time>2016-08-06T16:56:04Z</time></trkpt>
<trkpt lat="46.23949" lon="7.41687"><ele>496.6</ele><time>2016-08-06T16:56:05Z</time></trkpt>
<trkpt lat="46.23948" lon="7.41657"><ele>496.6</ele><time>2016-08-06T16:56:08Z</time></trkpt>
<trkpt lat="46.23948" lon="7.41647"><ele>496.4</ele><time>2016-08-06T16:56:09Z</time></trkpt>
<trkpt lat="46.23948" lon="7.41637"><ele>496.4</ele><time>2016-08-06T16:56:10Z</time></trkpt>
<trkpt lat="46.23949" lon="7.41627"><ele>496.4</ele><time>2016-08-06T16:56:11Z</time></trkpt>
<trkpt lat="46.23951" lon="7.41597"><ele>496.4</ele><time>2016-08-06T16:56:14Z</time></trkpt>
<trkpt lat="46.23952" lon="7.41587"><ele>496.2</ele><time>2016-08-06T16:56:15Z</time></trkpt>
<trkpt lat="46.23954" lon="7.41568"><ele>496.2</ele><time>2016-08-06T16:56:17Z</time></trkpt>
<trkpt lat="46.23956" lon="7.41547"><ele>496.2</ele><time>2016-08-06T16:56:19Z</time></trkpt>
<trkpt lat="46.23959" lon="7.41516"><ele>496</ele><time>2016-08-06T16:56:22Z</time></trkpt>
<trkpt lat="46.2396" lon="7.41506"><ele>496</ele><time>2016-08-06T16:56:23Z</time></trkpt>
<trkpt lat="46.23961" lon="7.41496"><ele>496</ele><time>2016-08-06T16:56:24Z</time></trkpt>
<trkpt lat="46.23963" lon="7.41487"><ele>496</ele><time>2016-08-06T16:56:25Z</time></trkpt>
<trkpt lat="46.23967" lon="7.41469"><ele>495.8</ele><time>2016-08-06T16:56:27Z</time></trkpt>
<trkpt lat="46.2397" lon="7.4145"><ele>495.8</ele><time>2016-08-06T16:56:29Z</time></trkpt>
<trkpt lat="46.23974" lon="7.41432"><ele>495.8</ele><time>2016-08-06T16:56:31Z</time></trkpt>
<trkpt lat="46.23976" lon="7.41423"><ele>495.8</ele><time>2016-08-06T16:56:32Z</time></trkpt>
<trkpt lat="46.2398" lon="7.41404"><ele>495.6</ele><time>2016-08-06T16:56:34Z</time></trkpt>
<trkpt lat="46.23983" lon="7.41395"><ele>495.6</ele><time>2016-08-06T16:56:35Z</time></trkpt>
<trkpt lat="46.23987" lon="7.41376"><ele>495.6</ele><time>2016-08-06T16:56:37Z</time></trkpt>
<trkpt lat="46.23989" lon="7.41366"><ele>495.6</ele><time>2016-08-06T16:56:38Z</time></trkpt>
<trkpt lat="46.2399" lon="7.41356"><ele>495.4</ele><time>2016-08-06T16:56:39Z</time></trkpt>
<trkpt lat="46.23993" lon="7.41336"><ele>495.4</ele><time>2016-08-06T16:56:41Z</time></trkpt>
<trkpt lat="46.23995" lon="7.41326"><ele>495.4</ele><time>2016-08-06T16:56:42Z</time></trkpt>
<trkpt lat="46.24001" lon="7.41309"><ele>495.4</ele><time>2016-08-06T16:56:44Z</time></trkpt>
<trkpt lat="46.24006" lon="7.41292"><ele>495.2</ele><time>2016-08-06T16:56:46Z</time></trkpt>
<trkpt lat="46.24009" lon="7.41283"><ele>495.2</ele><time>2016-08-06T16:56:47Z</time></trkpt>
<trkpt lat="46.24014" lon="7.41266"><ele>495.2</ele><time>2016-08-06T16:56:49Z</time></trkpt>
<trkpt lat="46.24024" lon="7.41239"><ele>495</ele><time>2016-08-06T16:56:52Z</time></trkpt>
<trkpt lat="46.24027" lon="7.4123"><ele>495</ele><time>2016-08-06T16:56:53Z</time></trkpt>
<trkpt lat="46.24034" lon="7.41211"><ele>495</ele><time>2016-08-06T16:56:55Z</time></trkpt>
<trkpt lat="46.24037" lon="7.41202"><ele>495</ele><time>2016-08-06T16:56:56Z</time></trkpt>
<trkpt lat="46.24042" lon="7.41193"><ele>494.8</ele><time>2016-08-06T16:56:57Z</time></trkpt>
<trkpt lat="46.2405" lon="7.41176"><ele>494.8</ele><time>2016-08-06T16:56:59Z</time></trkpt>
<trkpt lat="46.24063" lon="7.4115"><ele>494.8</ele><time>2016-08-06T16:57:02Z</time></trkpt>
<trkpt lat="46.24068" lon="7.41141"><ele>494.6</ele><time>2016-08-06T16:57:03Z</time></trkpt>
<trkpt lat="46.24076" lon="7.41127"><ele>494.6</ele><time>2016-08-06T16:57:05Z</time></trkpt>
<trkpt lat="46.24088" lon="7.41106"><ele>494.4</ele><time>2016-08-06T16:57:08Z</time></trkpt>
<trkpt lat="46.24096" lon="7.41092"><ele>494.4</ele><time>2016-08-06T16:57:10Z</time></trkpt>
<trkpt lat="46.241" lon="7.41085"><ele>494.4</ele><time>2016-08-06T16:57:11Z</time></trkpt>
<trkpt lat="46.24109" lon="7.41072"><ele>494.4</ele><time>2016-08-06T16:57:13Z</time></trkpt>
<trkpt lat="46.24123" lon="7.41052"><ele>494.2</ele><time>2016-08-06T16:57:16Z</time></trkpt>
<trkpt lat="46.24128" lon="7.41045"><ele>494.2</ele><time>2016-08-06T16:57:17Z</time></trkpt>
<trkpt lat="46.24132" lon="7.41038"><ele>494.2</ele><time>2016-08-06T16:57:18Z</time></trkpt>
<trkpt lat="46.24136" lon="7.41031"><ele>494.2</ele><time>2016-08-06T16:57:19Z</time></trkpt>
<trkpt lat="46.24143" lon="7.41017"><ele>494</ele><time>2016-08-06T16:57:21Z</time></trkpt>
<trkpt lat="46.24151" lon="7.41002"><ele>494</ele><time>2016-08-06T16:57:23Z</time></trkpt>
<trkpt lat="46.24162" lon="7.40982"><ele>493.8</ele><time>2016-08-06T16:57:26Z</time></trkpt>
<trkpt lat="46.24165" lon="7.40978"><ele>493.8</ele><time>2016-08-06T16:57:27Z</time></trkpt>
<trkpt lat="46.24171" lon="7.40963"><ele>493.8</ele><time>2016-08-06T16:57:29Z</time></trkpt>
<trkpt lat="46.2418" lon="7.40939"><ele>493.6</ele><time>2016-08-06T16:57:32Z</time></trkpt>
<trkpt lat="46.24186" lon="7.40924"><ele>493.6</ele><time>2016-08-06T16:57:34Z</time></trkpt>
<trkpt lat="46.2419" lon="7.40916"><ele>493.6</ele><time>2016-08-06T16:57:35Z</time></trkpt>
<trkpt lat="46.24203" lon="7.40891"><ele>493.4</ele><time>2016-08-06T16:57:38Z</time></trkpt>
<trkpt lat="46.24212" lon="7.40875"><ele>493.4</ele><time>2016-08-06T16:57:40Z</time></trkpt>
<trkpt lat="46.24215" lon="7.40867"><ele>493.4</ele><time>2016-08-06T16:57:41Z</time></trkpt>
<trkpt lat="46.24222" lon="7.40852"><ele>493.4</ele><time>2016-08-06T16:57:43Z</time></trkpt>
<trkpt lat="46.24228" lon="7.40847"><ele>493.2</ele><time>2016-08-06T16:57:44Z</time></trkpt>
<trkpt lat="46.24234" lon="7.4084"><ele>493.2</ele><time>2016-08-06T16:57:45Z</time></trkpt>
<trkpt lat="46.24238" lon="7.40833"><ele>493.2</ele><time>2016-08-06T16:57:46Z</time></trkpt>
<trkpt lat="46.24247" lon="7.40817"><ele>493.4</ele><time>2016-08-06T16:57:48Z</time></trkpt>
<trkpt lat="46.24251" lon="7.40809"><ele>493.4</ele><time>2016-08-06T16:57:49Z</time></trkpt>
<trkpt lat="46.24255" lon="7.408"><ele>493.6</ele><time>2016-08-06T16:57:50Z</time></trkpt>
<trkpt lat="46.24263" lon="7.40782"><ele>493.6</ele><time>2016-08-06T16:57:52Z</time></trkpt>
<trkpt lat="46.24267" lon="7.40773"><ele>493.8</ele><time>2016-08-06T16:57:53Z</time></trkpt>
<trkpt lat="46.24279" lon="7.40746"><ele>494</ele><time>2016-08-06T16:57:56Z</time></trkpt>
<trkpt lat="46.24285" lon="7.40736"><ele>494</ele><time>2016-08-06T16:57:57Z</time></trkpt>
<trkpt lat="46.243" lon="7.40706"><ele>494.2</ele><time>2016-08-06T16:58:00Z</time></trkpt>
<trkpt lat="46.2431" lon="7.40687"><ele>494.4</ele><time>2016-08-06T16:58:02Z</time></trkpt>
<trkpt lat="46.24319" lon="7.4067"><ele>494.6</ele><time>2016-08-06T16:58:04Z</time></trkpt>
<trkpt lat="46.24329" lon="7.40652"><ele>494.8</ele><time>2016-08-06T16:58:06Z</time></trkpt>
<trkpt lat="46.24338" lon="7.40635"><ele>494.8</ele><time>2016-08-06T16:58:08Z</time></trkpt>
<trkpt lat="46.24341" lon="7.40627"><ele>495</ele><time>2016-08-06T16:58:09Z</time></trkpt>
<trkpt lat="46.24349" lon="7.40611"><ele>495</ele><time>2016-08-06T16:58:11Z</time></trkpt>
<trkpt lat="46.24359" lon="7.40588"><ele>495.2</ele><time>2016-08-06T16:58:14Z</time></trkpt>
<trkpt lat="46.24362" lon="7.4058"><ele>495.4</ele><time>2016-08-06T16:58:15Z</time></trkpt>
<trkpt lat="46.24364" lon="7.40571"><ele>495.4</ele><time>2016-08-06T16:58:16Z</time></trkpt>
<trkpt lat="46.24366" lon="7.40563"><ele>495.4</ele><time>2016-08-06T16:58:17Z</time></trkpt>
<trkpt lat="46.2437" lon="7.40546"><ele>495.6</ele><time>2016-08-06T16:58:19Z</time></trkpt>
<trkpt lat="46.24373" lon="7.40529"><ele>495.8</ele><time>2016-08-06T16:58:21Z</time></trkpt>
<trkpt lat="46.24377" lon="7.40512"><ele>496</ele><time>2016-08-06T16:58:23Z</time></trkpt>
<trkpt lat="46.24379" lon="7.40495"><ele>496</ele><time>2016-08-06T16:58:25Z</time></trkpt>
<trkpt lat="46.2438" lon="7.40486"><ele>496.2</ele><time>2016-08-06T16:58:26Z</time></trkpt>
<trkpt lat="46.24382" lon="7.40468"><ele>496</ele><time>2016-08-06T16:58:28Z</time></trkpt>
<trkpt lat="46.24383" lon="7.40459"><ele>495.8</ele><time>2016-08-06T16:58:29Z</time></trkpt>
<trkpt lat="46.24385" lon="7.40442"><ele>495.8</ele><time>2016-08-06T16:58:31Z</time></trkpt>
<trkpt lat="46.24386" lon="7.40433"><ele>495.6</ele><time>2016-08-06T16:58:32Z</time></trkpt>
<trkpt lat="46.24389" lon="7.40415"><ele>495.4</ele><time>2016-08-06T16:58:34Z</time></trkpt>
<trkpt lat="46.2439" lon="7.40406"><ele>495.4</ele><time>2016-08-06T16:58:35Z</time></trkpt>
<trkpt lat="46.24393" lon="7.40389"><ele>495.2</ele><time>2016-08-06T16:58:37Z</time></trkpt>
<trkpt lat="46.24394" lon="7.4038"><ele>495.2</ele><time>2016-08-06T16:58:38Z</time></trkpt>
<trkpt lat="46.24396" lon="7.40371"><ele>495.2</ele><time>2016-08-06T16:58:39Z</time></trkpt>
<trkpt lat="46.24397" lon="7.40353"><ele>495</ele><time>2016-08-06T16:58:41Z</time></trkpt>
<trkpt lat="46.244" lon="7.40326"><ele>494.8</ele><time>2016-08-06T16:58:44Z</time></trkpt>
<trkpt lat="46.24401" lon="7.40317"><ele>494.8</ele><time>2016-08-06T16:58:45Z</time></trkpt>
<trkpt lat="46.24402" lon="7.40299"><ele>494.8</ele><time>2016-08-06T16:58:47Z</time></trkpt>
<trkpt lat="46.24404" lon="7.40272"><ele>494.6</ele><time>2016-08-06T16:58:50Z</time></trkpt>
<trkpt lat="46.24405" lon="7.40254"><ele>494.4</ele><time>2016-08-06T16:58:52Z</time></trkpt>
<trkpt lat="46.24406" lon="7.40245"><ele>494.4</ele><time>2016-08-06T16:58:53Z</time></trkpt>
<trkpt lat="46.24407" lon="7.40227"><ele>494.4</ele><time>2016-08-06T16:58:55Z</time></trkpt>
<trkpt lat="46.24407" lon="7.40219"><ele>494.2</ele><time>2016-08-06T16:58:56Z</time></trkpt>
<trkpt lat="46.24408" lon="7.40201"><ele>494.2</ele><time>2016-08-06T16:58:58Z</time></trkpt>
<trkpt lat="46.24409" lon="7.40192"><ele>494.2</ele><time>2016-08-06T16:58:59Z</time></trkpt>
<trkpt lat="46.2441" lon="7.40166"><ele>494</ele><time>2016-08-06T16:59:02Z</time></trkpt>
<trkpt lat="46.24411" lon="7.40157"><ele>494</ele><time>2016-08-06T16:59:03Z</time></trkpt>
<trkpt lat="46.24412" lon="7.40139"><ele>493.8</ele><time>2016-08-06T16:59:05Z</time></trkpt>
<trkpt lat="46.24413" lon="7.40112"><ele>493.8</ele><time>2016-08-06T16:59:08Z</time></trkpt>
<trkpt lat="46.24414" lon="7.40094"><ele>493.6</ele><time>2016-08-06T16:59:10Z</time></trkpt>
<trkpt lat="46.24414" lon="7.40085"><ele>493.6</ele><time>2016-08-06T16:59:11Z</time></trkpt>
<trkpt lat="46.24415" lon="7.40075"><ele>493.6</ele><time>2016-08-06T16:59:12Z</time></trkpt>
<trkpt lat="46.24416" lon="7.40057"><ele>493.4</ele><time>2016-08-06T16:59:14Z</time></trkpt>
<trkpt lat="46.24417" lon="7.40038"><ele>493.4</ele><time>2016-08-06T16:59:16Z</time></trkpt>
<trkpt lat="46.24418" lon="7.40019"><ele>493.2</ele><time>2016-08-06T16:59:18Z</time></trkpt>
<trkpt lat="46.24418" lon="7.4"><ele>493.2</ele><time>2016-08-06T16:59:20Z</time></trkpt>
<trkpt lat="46.24419" lon="7.39981"><ele>493</ele><time>2016-08-06T16:59:22Z</time></trkpt>
<trkpt lat="46.2442" lon="7.39972"><ele>493</ele><time>2016-08-06T16:59:23Z</time></trkpt>
<trkpt lat="46.24421" lon="7.39953"><ele>492.8</ele><time>2016-08-06T16:59:25Z</time></trkpt>
<trkpt lat="46.24421" lon="7.39944"><ele>492.8</ele><time>2016-08-06T16:59:26Z</time></trkpt>
<trkpt lat="46.24423" lon="7.39925"><ele>492.8</ele><time>2016-08-06T16:59:28Z</time></trkpt>
<trkpt lat="46.24424" lon="7.39916"><ele>492.6</ele><time>2016-08-06T16:59:29Z</time></trkpt>
<trkpt lat="46.24427" lon="7.39888"><ele>492.6</ele><time>2016-08-06T16:59:32Z</time></trkpt>
<trkpt lat="46.24428" lon="7.39868"><ele>492.4</ele><time>2016-08-06T16:59:34Z</time></trkpt>
<trkpt lat="46.24429" lon="7.39859"><ele>492.4</ele><time>2016-08-06T16:59:35Z</time></trkpt>
<trkpt lat="46.24431" lon="7.39829"><ele>492.2</ele><time>2016-08-06T16:59:38Z</time></trkpt>
<trkpt lat="46.24432" lon="7.39819"><ele>492.2</ele><time>2016-08-06T16:59:39Z</time></trkpt>
<trkpt lat="46.24431" lon="7.3981"><ele>492.2</ele><time>2016-08-06T16:59:40Z</time></trkpt>
<trkpt lat="46.24431" lon="7.39791"><ele>492</ele><time>2016-08-06T16:59:42Z</time></trkpt>
<trkpt lat="46.2443" lon="7.39773"><ele>492</ele><time>2016-08-06T16:59:44Z</time></trkpt>
<trkpt lat="46.2443" lon="7.39755"><ele>491.8</ele><time>2016-08-06T16:59:46Z</time></trkpt>
<trkpt lat="46.2443" lon="7.3974"><ele>491.8</ele><time>2016-08-06T16:59:48Z</time></trkpt>
<trkpt lat="46.2443" lon="7.39733"><ele>491.8</ele><time>2016-08-06T16:59:49Z</time></trkpt>
<trkpt lat="46.2443" lon="7.39726"><ele>491.8</ele><time>2016-08-06T16:59:50Z</time></trkpt>
<trkpt lat="46.2443" lon="7.39711"><ele>491.6</ele><time>2016-08-06T16:59:52Z</time></trkpt>
<trkpt lat="46.2443" lon="7.39697"><ele>491.6</ele><time>2016-08-06T16:59:54Z</time></trkpt>
<trkpt lat="46.2443" lon="7.3969"><ele>491.6</ele><time>2016-08-06T16:59:55Z</time></trkpt>
<trkpt lat="46.2443" lon="7.39682"><ele>491.6</ele><time>2016-08-06T16:59:56Z</time></trkpt>
<trkpt lat="46.2443" lon="7.39669"><ele>491.6</ele><time>2016-08-06T16:59:58Z</time></trkpt>
<trkpt lat="46.2443" lon="7.39663"><ele>491.6</ele><time>2016-08-06T16:59:59Z</time></trkpt>
<trkpt lat="46.2443" lon="7.39649"><ele>491.6</ele><time>2016-08-06T17:00:01Z</time></trkpt>
<trkpt lat="46.2443" lon="7.39636"><ele>491.6</ele><time>2016-08-06T17:00:03Z</time></trkpt>
<trkpt lat="46.2443" lon="7.39623"><ele>491.6</ele><time>2016-08-06T17:00:05Z</time></trkpt>
<trkpt lat="46.2443" lon="7.39615"><ele>491.6</ele><time>2016-08-06T17:00:06Z</time></trkpt>
<trkpt lat="46.2443" lon="7.39607"><ele>491.6</ele><time>2016-08-06T17:00:07Z</time></trkpt>
<trkpt lat="46.2443" lon="7.3959"><ele>491.6</ele><time>2016-08-06T17:00:09Z</time></trkpt>
<trkpt lat="46.2443" lon="7.39574"><ele>491.4</ele><time>2016-08-06T17:00:11Z</time></trkpt>
<trkpt lat="46.24431" lon="7.39557"><ele>491.4</ele><time>2016-08-06T17:00:13Z</time></trkpt>
<trkpt lat="46.24431" lon="7.39548"><ele>491.4</ele><time>2016-08-06T17:00:14Z</time></trkpt>
<trkpt lat="46.24431" lon="7.39539"><ele>491.4</ele><time>2016-08-06T17:00:15Z</time></trkpt>
<trkpt lat="46.2443" lon="7.39519"><ele>491.4</ele><time>2016-08-06T17:00:17Z</time></trkpt>
<trkpt lat="46.2443" lon="7.395"><ele>491.4</ele><time>2016-08-06T17:00:19Z</time></trkpt>
<trkpt lat="46.2443" lon="7.39481"><ele>491.4</ele><time>2016-08-06T17:00:21Z</time></trkpt>
<trkpt lat="46.24431" lon="7.39463"><ele>491.4</ele><time>2016-08-06T17:00:23Z</time></trkpt>
<trkpt lat="46.24431" lon="7.39445"><ele>491.4</ele><time>2016-08-06T17:00:25Z</time></trkpt>
<trkpt lat="46.24431" lon="7.39427"><ele>491.4</ele><time>2016-08-06T17:00:27Z</time></trkpt>
<trkpt lat="46.24432" lon="7.39408"><ele>491.4</ele><time>2016-08-06T17:00:29Z</time></trkpt>
<trkpt lat="46.24432" lon="7.3939"><ele>491.2</ele><time>2016-08-06T17:00:31Z</time></trkpt>
<trkpt lat="46.24432" lon="7.39372"><ele>491.2</ele><time>2016-08-06T17:00:33Z</time></trkpt>
<trkpt lat="46.24432" lon="7.39354"><ele>491.2</ele><time>2016-08-06T17:00:35Z</time></trkpt>
<trkpt lat="46.24432" lon="7.39335"><ele>491.2</ele><time>2016-08-06T17:00:37Z</time></trkpt>
<trkpt lat="46.24433" lon="7.39316"><ele>491.2</ele><time>2016-08-06T17:00:39Z</time></trkpt>
<trkpt lat="46.24434" lon="7.39298"><ele>491.2</ele><time>2016-08-06T17:00:41Z</time></trkpt>
<trkpt lat="46.24435" lon="7.39279"><ele>491.2</ele><time>2016-08-06T17:00:43Z</time></trkpt>
<trkpt lat="46.24435" lon="7.3927"><ele>491.2</ele><time>2016-08-06T17:00:44Z</time></trkpt>
<trkpt lat="46.24436" lon="7.39261"><ele>491.2</ele><time>2016-08-06T17:00:45Z</time></trkpt>
<trkpt lat="46.24438" lon="7.39243"><ele>491.2</ele><time>2016-08-06T17:00:47Z</time></trkpt>
<trkpt lat="46.2444" lon="7.39225"><ele>491.2</ele><time>2016-08-06T17:00:49Z</time></trkpt>
<trkpt lat="46.24442" lon="7.39207"><ele>491.2</ele><time>2016-08-06T17:00:51Z</time></trkpt>
<trkpt lat="46.24443" lon="7.39198"><ele>491</ele><time>2016-08-06T17:00:52Z</time></trkpt>
<trkpt lat="46.24443" lon="7.39188"><ele>491</ele><time>2016-08-06T17:00:53Z</time></trkpt>
<trkpt lat="46.24444" lon="7.3917"><ele>491</ele><time>2016-08-06T17:00:55Z</time></trkpt>
<trkpt lat="46.24444" lon="7.39143"><ele>491</ele><time>2016-08-06T17:00:58Z</time></trkpt>
<trkpt lat="46.24445" lon="7.39134"><ele>491</ele><time>2016-08-06T17:00:59Z</time></trkpt>
<trkpt lat="46.24445" lon="7.39125"><ele>491</ele><time>2016-08-06T17:01:00Z</time></trkpt>
<trkpt lat="46.24446" lon="7.39109"><ele>491</ele><time>2016-08-06T17:01:02Z</time></trkpt>
<trkpt lat="46.24447" lon="7.39092"><ele>491</ele><time>2016-08-06T17:01:04Z</time></trkpt>
<trkpt lat="46.24447" lon="7.39084"><ele>491</ele><time>2016-08-06T17:01:05Z</time></trkpt>
<trkpt lat="46.24449" lon="7.3906"><ele>491</ele><time>2016-08-06T17:01:08Z</time></trkpt>
<trkpt lat="46.24449" lon="7.39053"><ele>491</ele><time>2016-08-06T17:01:09Z</time></trkpt>
<trkpt lat="46.2445" lon="7.39039"><ele>491</ele><time>2016-08-06T17:01:11Z</time></trkpt>
<trkpt lat="46.24451" lon="7.39017"><ele>490.8</ele><time>2016-08-06T17:01:14Z</time></trkpt>
<trkpt lat="46.24452" lon="7.39003"><ele>490.8</ele><time>2016-08-06T17:01:16Z</time></trkpt>
<trkpt lat="46.24453" lon="7.38996"><ele>490.8</ele><time>2016-08-06T17:01:17Z</time></trkpt>
<trkpt lat="46.24453" lon="7.38989"><ele>490.8</ele><time>2016-08-06T17:01:18Z</time></trkpt>
<trkpt lat="46.24454" lon="7.3897"><ele>490.8</ele><time>2016-08-06T17:01:20Z</time></trkpt>
<trkpt lat="46.24454" lon="7.38952"><ele>490.8</ele><time>2016-08-06T17:01:22Z</time></trkpt>
<trkpt lat="46.24455" lon="7.38942"><ele>490.8</ele><time>2016-08-06T17:01:23Z</time></trkpt>
<trkpt lat="46.24455" lon="7.38924"><ele>490.8</ele><time>2016-08-06T17:01:25Z</time></trkpt>
<trkpt lat="46.24455" lon="7.38917"><ele>490.8</ele><time>2016-08-06T17:01:26Z</time></trkpt>
<trkpt lat="46.24455" lon="7.38909"><ele>490.8</ele><time>2016-08-06T17:01:27Z</time></trkpt>
<trkpt lat="46.24456" lon="7.38894"><ele>490.8</ele><time>2016-08-06T17:01:29Z</time></trkpt>
<trkpt lat="46.24456" lon="7.38872"><ele>490.6</ele><time>2016-08-06T17:01:32Z</time></trkpt>
<trkpt lat="46.24456" lon="7.38864"><ele>490.6</ele><time>2016-08-06T17:01:33Z</time></trkpt>
<trkpt lat="46.24456" lon="7.38856"><ele>490.6</ele><time>2016-08-06T17:01:34Z</time></trkpt>
<trkpt lat="46.24456" lon="7.38848"><ele>490.6</ele><time>2016-08-06T17:01:35Z</time></trkpt>
<trkpt lat="46.24455" lon="7.38824"><ele>490.6</ele><time>2016-08-06T17:01:38Z</time></trkpt>
<trkpt lat="46.24455" lon="7.38808"><ele>490.6</ele><time>2016-08-06T17:01:40Z</time></trkpt>
<trkpt lat="46.24454" lon="7.388"><ele>490.6</ele><time>2016-08-06T17:01:41Z</time></trkpt>
<trkpt lat="46.24454" lon="7.38784"><ele>490.6</ele><time>2016-08-06T17:01:43Z</time></trkpt>
<trkpt lat="46.24453" lon="7.38775"><ele>490.6</ele><time>2016-08-06T17:01:44Z</time></trkpt>
<trkpt lat="46.24452" lon="7.38759"><ele>490.6</ele><time>2016-08-06T17:01:46Z</time></trkpt>
<trkpt lat="46.24451" lon="7.38751"><ele>490.6</ele><time>2016-08-06T17:01:47Z</time></trkpt>
<trkpt lat="46.2445" lon="7.38727"><ele>490.6</ele><time>2016-08-06T17:01:50Z</time></trkpt>
<trkpt lat="46.24449" lon="7.38719"><ele>490.6</ele><time>2016-08-06T17:01:51Z</time></trkpt>
<trkpt lat="46.24448" lon="7.38711"><ele>490.6</ele><time>2016-08-06T17:01:52Z</time></trkpt>
<trkpt lat="46.24446" lon="7.38702"><ele>490.4</ele><time>2016-08-06T17:01:53Z</time></trkpt>
<trkpt lat="46.24444" lon="7.38686"><ele>490.4</ele><time>2016-08-06T17:01:55Z</time></trkpt>
<trkpt lat="46.24441" lon="7.38662"><ele>490.4</ele><time>2016-08-06T17:01:58Z</time></trkpt>
<trkpt lat="46.2444" lon="7.38653"><ele>490.4</ele><time>2016-08-06T17:01:59Z</time></trkpt>
<trkpt lat="46.24439" lon="7.38644"><ele>490.4</ele><time>2016-08-06T17:02:00Z</time></trkpt>
<trkpt lat="46.24437" lon="7.38626"><ele>490.4</ele><time>2016-08-06T17:02:02Z</time></trkpt>
<trkpt lat="46.24436" lon="7.38608"><ele>490.4</ele><time>2016-08-06T17:02:04Z</time></trkpt>
<trkpt lat="46.24435" lon="7.38599"><ele>490.4</ele><time>2016-08-06T17:02:05Z</time></trkpt>
<trkpt lat="46.24434" lon="7.38581"><ele>490.4</ele><time>2016-08-06T17:02:07Z</time></trkpt>
<trkpt lat="46.24432" lon="7.38553"><ele>490.4</ele><time>2016-08-06T17:02:10Z</time></trkpt>
<trkpt lat="46.24432" lon="7.38544"><ele>490.4</ele><time>2016-08-06T17:02:11Z</time></trkpt>
<trkpt lat="46.24431" lon="7.38525"><ele>490.2</ele><time>2016-08-06T17:02:13Z</time></trkpt>
<trkpt lat="46.2443" lon="7.38507"><ele>490.2</ele><time>2016-08-06T17:02:15Z</time></trkpt>
<trkpt lat="46.24429" lon="7.38499"><ele>490.2</ele><time>2016-08-06T17:02:16Z</time></trkpt>
<trkpt lat="46.24428" lon="7.38492"><ele>490.2</ele><time>2016-08-06T17:02:17Z</time></trkpt>
<trkpt lat="46.24424" lon="7.38468"><ele>490.2</ele><time>2016-08-06T17:02:20Z</time></trkpt>
<trkpt lat="46.24423" lon="7.38461"><ele>490.2</ele><time>2016-08-06T17:02:21Z</time></trkpt>
<trkpt lat="46.24421" lon="7.38445"><ele>490.2</ele><time>2016-08-06T17:02:23Z</time></trkpt>
<trkpt lat="46.2442" lon="7.38437"><ele>490.2</ele><time>2016-08-06T17:02:24Z</time></trkpt>
<trkpt lat="46.24416" lon="7.38421"><ele>490.2</ele><time>2016-08-06T17:02:26Z</time></trkpt>
<trkpt lat="46.24413" lon="7.38405"><ele>490.2</ele><time>2016-08-06T17:02:28Z</time></trkpt>
<trkpt lat="46.24411" lon="7.38397"><ele>490.2</ele><time>2016-08-06T17:02:29Z</time></trkpt>
<trkpt lat="46.24405" lon="7.38373"><ele>490.2</ele><time>2016-08-06T17:02:32Z</time></trkpt>
<trkpt lat="46.24401" lon="7.38357"><ele>490</ele><time>2016-08-06T17:02:34Z</time></trkpt>
<trkpt lat="46.24399" lon="7.38348"><ele>490</ele><time>2016-08-06T17:02:35Z</time></trkpt>
<trkpt lat="46.24395" lon="7.38332"><ele>490</ele><time>2016-08-06T17:02:37Z</time></trkpt>
<trkpt lat="46.24392" lon="7.38324"><ele>490</ele><time>2016-08-06T17:02:38Z</time></trkpt>
<trkpt lat="46.2438" lon="7.38313"><ele>490</ele><time>2016-08-06T17:02:40Z</time></trkpt>
<trkpt lat="46.24375" lon="7.3831"><ele>490</ele><time>2016-08-06T17:02:41Z</time></trkpt>
<trkpt lat="46.2437" lon="7.38306"><ele>490</ele><time>2016-08-06T17:02:42Z</time></trkpt>
<trkpt lat="46.24364" lon="7.38291"><ele>490</ele><time>2016-08-06T17:02:44Z</time></trkpt>
<trkpt lat="46.24365" lon="7.38282"><ele>490</ele><time>2016-08-06T17:02:45Z</time></trkpt>
<trkpt lat="46.24365" lon="7.38265"><ele>490</ele><time>2016-08-06T17:02:47Z</time></trkpt>
<trkpt lat="46.24364" lon="7.38239"><ele>490</ele><time>2016-08-06T17:02:50Z</time></trkpt>
<trkpt lat="46.24357" lon="7.38222"><ele>490</ele><time>2016-08-06T17:02:52Z</time></trkpt>
<trkpt lat="46.24354" lon="7.38214"><ele>490</ele><time>2016-08-06T17:02:53Z</time></trkpt>
<trkpt lat="46.24344" lon="7.38189"><ele>489.8</ele><time>2016-08-06T17:02:56Z</time></trkpt>
<trkpt lat="46.24341" lon="7.38181"><ele>489.8</ele><time>2016-08-06T17:02:57Z</time></trkpt>
<trkpt lat="46.24337" lon="7.38173"><ele>489.8</ele><time>2016-08-06T17:02:58Z</time></trkpt>
<trkpt lat="46.24333" lon="7.38166"><ele>489.8</ele><time>2016-08-06T17:02:59Z</time></trkpt>
<trkpt lat="46.24322" lon="7.38143"><ele>489.8</ele><time>2016-08-06T17:03:02Z</time></trkpt>
<trkpt lat="46.24314" lon="7.38128"><ele>489.8</ele><time>2016-08-06T17:03:04Z</time></trkpt>
<trkpt lat="46.2431" lon="7.38121"><ele>489.8</ele><time>2016-08-06T17:03:05Z</time></trkpt>
<trkpt lat="46.24299" lon="7.38097"><ele>489.8</ele><time>2016-08-06T17:03:08Z</time></trkpt>
<trkpt lat="46.24295" lon="7.3809"><ele>489.8</ele><time>2016-08-06T17:03:09Z</time></trkpt>
<trkpt lat="46.24287" lon="7.38074"><ele>489.8</ele><time>2016-08-06T17:03:11Z</time></trkpt>
<trkpt lat="46.24273" lon="7.38052"><ele>489.6</ele><time>2016-08-06T17:03:14Z</time></trkpt>
<trkpt lat="46.24264" lon="7.38038"><ele>489.6</ele><time>2016-08-06T17:03:16Z</time></trkpt>
<trkpt lat="46.24254" lon="7.38024"><ele>489.6</ele><time>2016-08-06T17:03:18Z</time></trkpt>
<trkpt lat="46.24244" lon="7.3801"><ele>489.6</ele><time>2016-08-06T17:03:20Z</time></trkpt>
<trkpt lat="46.24234" lon="7.37996"><ele>489.6</ele><time>2016-08-06T17:03:22Z</time></trkpt>
<trkpt lat="46.24229" lon="7.3799"><ele>489.6</ele><time>2016-08-06T17:03:23Z</time></trkpt>
<trkpt lat="46.24218" lon="7.37976"><ele>489.6</ele><time>2016-08-06T17:03:25Z</time></trkpt>
<trkpt lat="46.24201" lon="7.37955"><ele>489.6</ele><time>2016-08-06T17:03:28Z</time></trkpt>
<trkpt lat="46.24196" lon="7.37948"><ele>489.6</ele><time>2016-08-06T17:03:29Z</time></trkpt>
<trkpt lat="46.24179" lon="7.37928"><ele>489.6</ele><time>2016-08-06T17:03:32Z</time></trkpt>
<trkpt lat="46.24174" lon="7.37922"><ele>489.6</ele><time>2016-08-06T17:03:33Z</time></trkpt>
<trkpt lat="46.24163" lon="7.37912"><ele>489.4</ele><time>2016-08-06T17:03:35Z</time></trkpt>
<trkpt lat="46.24147" lon="7.37895"><ele>489.4</ele><time>2016-08-06T17:03:38Z</time></trkpt>
<trkpt lat="46.24142" lon="7.3789"><ele>489.4</ele><time>2016-08-06T17:03:39Z</time></trkpt>
<trkpt lat="46.24138" lon="7.37885"><ele>489.4</ele><time>2016-08-06T17:03:40Z</time></trkpt>
<trkpt lat="46.24133" lon="7.3788"><ele>489.4</ele><time>2016-08-06T17:03:41Z</time></trkpt>
<trkpt lat="46.24119" lon="7.37865"><ele>489.4</ele><time>2016-08-06T17:03:44Z</time></trkpt>
<trkpt lat="46.24109" lon="7.37855"><ele>489.4</ele><time>2016-08-06T17:03:46Z</time></trkpt>
<trkpt lat="46.24104" lon="7.3785"><ele>489.4</ele><time>2016-08-06T17:03:47Z</time></trkpt>
<trkpt lat="46.24099" lon="7.37845"><ele>489.4</ele><time>2016-08-06T17:03:48Z</time></trkpt>
<trkpt lat="46.24089" lon="7.37835"><ele>489.4</ele><time>2016-08-06T17:03:50Z</time></trkpt>
<trkpt lat="46.24079" lon="7.37825"><ele>489.4</ele><time>2016-08-06T17:03:52Z</time></trkpt>
<trkpt lat="46.24074" lon="7.3782"><ele>489.4</ele><time>2016-08-06T17:03:53Z</time></trkpt>
<trkpt lat="46.24064" lon="7.37811"><ele>489.2</ele><time>2016-08-06T17:03:55Z</time></trkpt>
<trkpt lat="46.24059" lon="7.37805"><ele>489.2</ele><time>2016-08-06T17:03:56Z</time></trkpt>
<trkpt lat="46.24054" lon="7.37799"><ele>489.2</ele><time>2016-08-06T17:03:57Z</time></trkpt>
<trkpt lat="46.24043" lon="7.37788"><ele>489.2</ele><time>2016-08-06T17:03:59Z</time></trkpt>
<trkpt lat="46.24027" lon="7.37771"><ele>489.2</ele><time>2016-08-06T17:04:02Z</time></trkpt>
<trkpt lat="46.24017" lon="7.37761"><ele>489.2</ele><time>2016-08-06T17:04:04Z</time></trkpt>
<trkpt lat="46.24012" lon="7.37756"><ele>489.2</ele><time>2016-08-06T17:04:05Z</time></trkpt>
<trkpt lat="46.23998" lon="7.37741"><ele>489.2</ele><time>2016-08-06T17:04:08Z</time></trkpt>
<trkpt lat="46.23988" lon="7.37731"><ele>489.2</ele><time>2016-08-06T17:04:10Z</time></trkpt>
<trkpt lat="46.23984" lon="7.37726"><ele>489.2</ele><time>2016-08-06T17:04:11Z</time></trkpt>
<trkpt lat="46.23971" lon="7.37713"><ele>489.2</ele><time>2016-08-06T17:04:14Z</time></trkpt>
<trkpt lat="46.23962" lon="7.37704"><ele>489</ele><time>2016-08-06T17:04:16Z</time></trkpt>
<trkpt lat="46.23958" lon="7.377"><ele>489</ele><time>2016-08-06T17:04:17Z</time></trkpt>
<trkpt lat="46.2395" lon="7.37691"><ele>489</ele><time>2016-08-06T17:04:19Z</time></trkpt>
<trkpt lat="46.23946" lon="7.37687"><ele>489</ele><time>2016-08-06T17:04:20Z</time></trkpt>
<trkpt lat="46.23942" lon="7.37684"><ele>489</ele><time>2016-08-06T17:04:21Z</time></trkpt>
<trkpt lat="46.23935" lon="7.37676"><ele>489</ele><time>2016-08-06T17:04:23Z</time></trkpt>
<trkpt lat="46.23924" lon="7.37665"><ele>489</ele><time>2016-08-06T17:04:26Z</time></trkpt>
<trkpt lat="46.23916" lon="7.37658"><ele>489</ele><time>2016-08-06T17:04:28Z</time></trkpt>
<trkpt lat="46.23913" lon="7.37654"><ele>489</ele><time>2016-08-06T17:04:29Z</time></trkpt>
<trkpt lat="46.2391" lon="7.37651"><ele>489</ele><time>2016-08-06T17:04:30Z</time></trkpt>
<trkpt lat="46.23904" lon="7.37645"><ele>489</ele><time>2016-08-06T17:04:32Z</time></trkpt>
<trkpt lat="46.23901" lon="7.37642"><ele>488.8</ele><time>2016-08-06T17:04:33Z</time></trkpt>
<trkpt lat="46.23896" lon="7.37635"><ele>488.8</ele><time>2016-08-06T17:04:35Z</time></trkpt>
<trkpt lat="46.2389" lon="7.37629"><ele>488.8</ele><time>2016-08-06T17:04:37Z</time></trkpt>
<trkpt lat="46.23884" lon="7.37623"><ele>488.4</ele><time>2016-08-06T17:04:39Z</time></trkpt>
<trkpt lat="46.23879" lon="7.37617"><ele>487.8</ele><time>2016-08-06T17:04:41Z</time></trkpt>
<trkpt lat="46.23876" lon="7.37613"><ele>487.6</ele><time>2016-08-06T17:04:42Z</time></trkpt>
<trkpt lat="46.23873" lon="7.37609"><ele>487.6</ele><time>2016-08-06T17:04:43Z</time></trkpt>
<trkpt lat="46.23869" lon="7.37606"><ele>487.8</ele><time>2016-08-06T17:04:44Z</time></trkpt>
<trkpt lat="46.23866" lon="7.37602"><ele>488.2</ele><time>2016-08-06T17:04:45Z</time></trkpt>
<trkpt lat="46.2386" lon="7.37594"><ele>488.8</ele><time>2016-08-06T17:04:47Z</time></trkpt>
<trkpt lat="46.23853" lon="7.37586"><ele>489.2</ele><time>2016-08-06T17:04:49Z</time></trkpt>
<trkpt lat="46.2385" lon="7.37582"><ele>489.4</ele><time>2016-08-06T17:04:50Z</time></trkpt>
<trkpt lat="46.23847" lon="7.37579"><ele>489.4</ele><time>2016-08-06T17:04:51Z</time></trkpt>
<trkpt lat="46.23844" lon="7.37575"><ele>489.4</ele><time>2016-08-06T17:04:52Z</time></trkpt>
<trkpt lat="46.2384" lon="7.37571"><ele>489.6</ele><time>2016-08-06T17:04:53Z</time></trkpt>
<trkpt lat="46.23836" lon="7.37566"><ele>489.6</ele><time>2016-08-06T17:04:54Z</time></trkpt>
<trkpt lat="46.23827" lon="7.37556"><ele>489.8</ele><time>2016-08-06T17:04:56Z</time></trkpt>
<trkpt lat="46.23818" lon="7.37546"><ele>489.8</ele><time>2016-08-06T17:04:58Z</time></trkpt>
<trkpt lat="46.23814" lon="7.37541"><ele>489.8</ele><time>2016-08-06T17:04:59Z</time></trkpt>
<trkpt lat="46.23801" lon="7.37527"><ele>490</ele><time>2016-08-06T17:05:02Z</time></trkpt>
<trkpt lat="46.23791" lon="7.37515"><ele>490.2</ele><time>2016-08-06T17:05:04Z</time></trkpt>
<trkpt lat="46.23785" lon="7.3751"><ele>490.2</ele><time>2016-08-06T17:05:05Z</time></trkpt>
<trkpt lat="46.23781" lon="7.37499"><ele>490.2</ele><time>2016-08-06T17:05:06Z</time></trkpt>
<trkpt lat="46.23779" lon="7.37484"><ele>490.2</ele><time>2016-08-06T17:05:07Z</time></trkpt>
<trkpt lat="46.23775" lon="7.37488"><ele>490.2</ele><time>2016-08-06T17:05:08Z</time></trkpt>
<trkpt lat="46.23772" lon="7.37491"><ele>490</ele><time>2016-08-06T17:05:09Z</time></trkpt>
<trkpt lat="46.23769" lon="7.37491"><ele>490</ele><time>2016-08-06T17:05:10Z</time></trkpt>
<trkpt lat="46.23767" lon="7.37488"><ele>490.2</ele><time>2016-08-06T17:05:11Z</time></trkpt>
<trkpt lat="46.23763" lon="7.37479"><ele>491.8</ele><time>2016-08-06T17:05:14Z</time></trkpt>
<trkpt lat="46.2376" lon="7.37472"><ele>492.6</ele><time>2016-08-06T17:05:16Z</time></trkpt>
<trkpt lat="46.23758" lon="7.37469"><ele>492</ele><time>2016-08-06T17:05:17Z</time></trkpt>
<trkpt lat="46.23754" lon="7.37459"><ele>490</ele><time>2016-08-06T17:05:20Z</time></trkpt>
<trkpt lat="46.23751" lon="7.37453"><ele>489</ele><time>2016-08-06T17:05:22Z</time></trkpt>
<trkpt lat="46.23734" lon="7.37435"><ele>489</ele><time>2016-08-06T17:05:24Z</time></trkpt>
<trkpt lat="46.23697" lon="7.37401"><ele>489</ele><time>2016-08-06T17:05:25Z</time></trkpt>
<trkpt lat="46.23692" lon="7.37395"><ele>489</ele><time>2016-08-06T17:05:26Z</time></trkpt>
<trkpt lat="46.23687" lon="7.37389"><ele>489</ele><time>2016-08-06T17:05:27Z</time></trkpt>
<trkpt lat="46.23678" lon="7.37376"><ele>489.2</ele><time>2016-08-06T17:05:29Z</time></trkpt>
<trkpt lat="46.23663" lon="7.37358"><ele>489.2</ele><time>2016-08-06T17:05:32Z</time></trkpt>
<trkpt lat="46.23658" lon="7.37352"><ele>489.2</ele><time>2016-08-06T17:05:33Z</time></trkpt>
<trkpt lat="46.23654" lon="7.37346"><ele>489.2</ele><time>2016-08-06T17:05:34Z</time></trkpt>
<trkpt lat="46.2365" lon="7.3734"><ele>489.2</ele><time>2016-08-06T17:05:35Z</time></trkpt>
<trkpt lat="46.23641" lon="7.37328"><ele>489.2</ele><time>2016-08-06T17:05:37Z</time></trkpt>
<trkpt lat="46.23637" lon="7.37322"><ele>489.2</ele><time>2016-08-06T17:05:38Z</time></trkpt>
<trkpt lat="46.23632" lon="7.37316"><ele>489.2</ele><time>2016-08-06T17:05:39Z</time></trkpt>
<trkpt lat="46.23625" lon="7.37315"><ele>489.2</ele><time>2016-08-06T17:05:40Z</time></trkpt>
<trkpt lat="46.23614" lon="7.3732"><ele>489.2</ele><time>2016-08-06T17:05:41Z</time></trkpt>
<trkpt lat="46.23605" lon="7.37308"><ele>489</ele><time>2016-08-06T17:05:43Z</time></trkpt>
<trkpt lat="46.236" lon="7.37302"><ele>489</ele><time>2016-08-06T17:05:44Z</time></trkpt>
<trkpt lat="46.2359" lon="7.37289"><ele>489.2</ele><time>2016-08-06T17:05:46Z</time></trkpt>
<trkpt lat="46.23581" lon="7.37278"><ele>489.2</ele><time>2016-08-06T17:05:48Z</time></trkpt>
<trkpt lat="46.23572" lon="7.3727"><ele>489.4</ele><time>2016-08-06T17:05:50Z</time></trkpt>
<trkpt lat="46.23563" lon="7.37262"><ele>489.6</ele><time>2016-08-06T17:05:52Z</time></trkpt>
<trkpt lat="46.23559" lon="7.37258"><ele>489.6</ele><time>2016-08-06T17:05:53Z</time></trkpt>
<trkpt lat="46.2355" lon="7.3725"><ele>489.6</ele><time>2016-08-06T17:05:55Z</time></trkpt>
<trkpt lat="46.23542" lon="7.37242"><ele>489.8</ele><time>2016-08-06T17:05:57Z</time></trkpt>
<trkpt lat="46.23535" lon="7.37237"><ele>489.8</ele><time>2016-08-06T17:05:59Z</time></trkpt>
<trkpt lat="46.23525" lon="7.37229"><ele>490</ele><time>2016-08-06T17:06:02Z</time></trkpt>
<trkpt lat="46.23518" lon="7.37223"><ele>490.2</ele><time>2016-08-06T17:06:04Z</time></trkpt>
<trkpt lat="46.23511" lon="7.37218"><ele>490.2</ele><time>2016-08-06T17:06:06Z</time></trkpt>
<trkpt lat="46.23504" lon="7.37213"><ele>490.4</ele><time>2016-08-06T17:06:08Z</time></trkpt>
<trkpt lat="46.235" lon="7.3721"><ele>490.4</ele><time>2016-08-06T17:06:09Z</time></trkpt>
<trkpt lat="46.23495" lon="7.37207"><ele>490.4</ele><time>2016-08-06T17:06:10Z</time></trkpt>
<trkpt lat="46.23491" lon="7.37204"><ele>490.6</ele><time>2016-08-06T17:06:11Z</time></trkpt>
<trkpt lat="46.23478" lon="7.37196"><ele>490.8</ele><time>2016-08-06T17:06:14Z</time></trkpt>
<trkpt lat="46.23469" lon="7.3719"><ele>490.8</ele><time>2016-08-06T17:06:16Z</time></trkpt>
<trkpt lat="46.23465" lon="7.37187"><ele>490.8</ele><time>2016-08-06T17:06:17Z</time></trkpt>
<trkpt lat="46.23456" lon="7.37181"><ele>491</ele><time>2016-08-06T17:06:19Z</time></trkpt>
<trkpt lat="46.23451" lon="7.37179"><ele>491</ele><time>2016-08-06T17:06:20Z</time></trkpt>
<trkpt lat="46.23441" lon="7.37175"><ele>491.2</ele><time>2016-08-06T17:06:22Z</time></trkpt>
<trkpt lat="46.23436" lon="7.37173"><ele>491.2</ele><time>2016-08-06T17:06:23Z</time></trkpt>
<trkpt lat="46.23425" lon="7.37168"><ele>491.4</ele><time>2016-08-06T17:06:25Z</time></trkpt>
<trkpt lat="46.2341" lon="7.37163"><ele>491.4</ele><time>2016-08-06T17:06:27Z</time></trkpt>
<trkpt lat="46.23405" lon="7.3716"><ele>491.4</ele><time>2016-08-06T17:06:28Z</time></trkpt>
<trkpt lat="46.234" lon="7.37158"><ele>491.6</ele><time>2016-08-06T17:06:29Z</time></trkpt>
<trkpt lat="46.23386" lon="7.37149"><ele>491.6</ele><time>2016-08-06T17:06:32Z</time></trkpt>
<trkpt lat="46.23381" lon="7.37146"><ele>491.4</ele><time>2016-08-06T17:06:33Z</time></trkpt>
<trkpt lat="46.23372" lon="7.3714"><ele>490.8</ele><time>2016-08-06T17:06:35Z</time></trkpt>
<trkpt lat="46.23367" lon="7.37138"><ele>490.6</ele><time>2016-08-06T17:06:36Z</time></trkpt>
<trkpt lat="46.2336" lon="7.37135"><ele>490</ele><time>2016-08-06T17:06:38Z</time></trkpt>
<trkpt lat="46.23354" lon="7.37132"><ele>489.6</ele><time>2016-08-06T17:06:40Z</time></trkpt>
<trkpt lat="46.23347" lon="7.37129"><ele>489</ele><time>2016-08-06T17:06:42Z</time></trkpt>
<trkpt lat="46.2334" lon="7.37127"><ele>488.6</ele><time>2016-08-06T17:06:44Z</time></trkpt>
<trkpt lat="46.23334" lon="7.37124"><ele>488.2</ele><time>2016-08-06T17:06:46Z</time></trkpt>
<trkpt lat="46.2333" lon="7.37122"><ele>488</ele><time>2016-08-06T17:06:47Z</time></trkpt>
<trkpt lat="46.23324" lon="7.3712"><ele>487.6</ele><time>2016-08-06T17:06:49Z</time></trkpt>
<trkpt lat="46.2332" lon="7.37118"><ele>487.4</ele><time>2016-08-06T17:06:50Z</time></trkpt>
<trkpt lat="46.23313" lon="7.37115"><ele>486.8</ele><time>2016-08-06T17:06:52Z</time></trkpt>
<trkpt lat="46.23309" lon="7.37114"><ele>486.6</ele><time>2016-08-06T17:06:53Z</time></trkpt>
<trkpt lat="46.23298" lon="7.3711"><ele>486.6</ele><time>2016-08-06T17:06:56Z</time></trkpt>
<trkpt lat="46.23295" lon="7.37108"><ele>486.6</ele><time>2016-08-06T17:06:57Z</time></trkpt>
<trkpt lat="46.23287" lon="7.37105"><ele>486.6</ele><time>2016-08-06T17:06:59Z</time></trkpt>
<trkpt lat="46.23276" lon="7.37101"><ele>486.6</ele><time>2016-08-06T17:07:02Z</time></trkpt>
<trkpt lat="46.23269" lon="7.371"><ele>486.6</ele><time>2016-08-06T17:07:04Z</time></trkpt>
<trkpt lat="46.23265" lon="7.37099"><ele>486.6</ele><time>2016-08-06T17:07:05Z</time></trkpt>
<trkpt lat="46.23254" lon="7.37097"><ele>486.6</ele><time>2016-08-06T17:07:08Z</time></trkpt>
<trkpt lat="46.2325" lon="7.37096"><ele>486.8</ele><time>2016-08-06T17:07:09Z</time></trkpt>
<trkpt lat="46.23247" lon="7.37095"><ele>486.8</ele><time>2016-08-06T17:07:10Z</time></trkpt>
<trkpt lat="46.23243" lon="7.37094"><ele>486.8</ele><time>2016-08-06T17:07:11Z</time></trkpt>
<trkpt lat="46.23232" lon="7.37092"><ele>486.8</ele><time>2016-08-06T17:07:14Z</time></trkpt>
<trkpt lat="46.23228" lon="7.37091"><ele>486.8</ele><time>2016-08-06T17:07:15Z</time></trkpt>
<trkpt lat="46.23222" lon="7.37091"><ele>486.8</ele><time>2016-08-06T17:07:16Z</time></trkpt>
<trkpt lat="46.23217" lon="7.37092"><ele>486.8</ele><time>2016-08-06T17:07:17Z</time></trkpt>
<trkpt lat="46.23205" lon="7.37092"><ele>486.8</ele><time>2016-08-06T17:07:19Z</time></trkpt>
<trkpt lat="46.23194" lon="7.37093"><ele>486.8</ele><time>2016-08-06T17:07:21Z</time></trkpt>
<trkpt lat="46.23177" lon="7.37094"><ele>486.8</ele><time>2016-08-06T17:07:24Z</time></trkpt>
<trkpt lat="46.23167" lon="7.37095"><ele>486.8</ele><time>2016-08-06T17:07:26Z</time></trkpt>
<trkpt lat="46.23157" lon="7.37095"><ele>486.8</ele><time>2016-08-06T17:07:28Z</time></trkpt>
<trkpt lat="46.23146" lon="7.37096"><ele>486.8</ele><time>2016-08-06T17:07:30Z</time></trkpt>
<trkpt lat="46.23136" lon="7.37096"><ele>486.8</ele><time>2016-08-06T17:07:32Z</time></trkpt>
<trkpt lat="46.23131" lon="7.37096"><ele>486.8</ele><time>2016-08-06T17:07:33Z</time></trkpt>
<trkpt lat="46.23116" lon="7.37096"><ele>487</ele><time>2016-08-06T17:07:36Z</time></trkpt>
<trkpt lat="46.23106" lon="7.37095"><ele>487</ele><time>2016-08-06T17:07:38Z</time></trkpt>
<trkpt lat="46.23096" lon="7.37095"><ele>487</ele><time>2016-08-06T17:07:40Z</time></trkpt>
<trkpt lat="46.23091" lon="7.37095"><ele>487</ele><time>2016-08-06T17:07:41Z</time></trkpt>
<trkpt lat="46.23081" lon="7.37094"><ele>487</ele><time>2016-08-06T17:07:43Z</time></trkpt>
<trkpt lat="46.23074" lon="7.37093"><ele>487</ele><time>2016-08-06T17:07:45Z</time></trkpt>
<trkpt lat="46.23066" lon="7.37092"><ele>487</ele><time>2016-08-06T17:07:47Z</time></trkpt>
<trkpt lat="46.23059" lon="7.3709"><ele>487</ele><time>2016-08-06T17:07:49Z</time></trkpt>
<trkpt lat="46.23051" lon="7.37089"><ele>487</ele><time>2016-08-06T17:07:51Z</time></trkpt>
<trkpt lat="46.23044" lon="7.37088"><ele>487</ele><time>2016-08-06T17:07:53Z</time></trkpt>
<trkpt lat="46.23036" lon="7.37087"><ele>487</ele><time>2016-08-06T17:07:55Z</time></trkpt>
<trkpt lat="46.23028" lon="7.37088"><ele>487</ele><time>2016-08-06T17:07:57Z</time></trkpt>
<trkpt lat="46.23021" lon="7.37088"><ele>487</ele><time>2016-08-06T17:07:59Z</time></trkpt>
<trkpt lat="46.23009" lon="7.37089"><ele>487.2</ele><time>2016-08-06T17:08:02Z</time></trkpt>
<trkpt lat="46.23005" lon="7.37089"><ele>487.2</ele><time>2016-08-06T17:08:03Z</time></trkpt>
<trkpt lat="46.22998" lon="7.3709"><ele>487.2</ele><time>2016-08-06T17:08:05Z</time></trkpt>
<trkpt lat="46.2299" lon="7.3709"><ele>487.2</ele><time>2016-08-06T17:08:07Z</time></trkpt>
<trkpt lat="46.22986" lon="7.37091"><ele>487.2</ele><time>2016-08-06T17:08:08Z</time></trkpt>
<trkpt lat="46.22979" lon="7.37091"><ele>487.2</ele><time>2016-08-06T17:08:10Z</time></trkpt>
<trkpt lat="46.22972" lon="7.37092"><ele>487.2</ele><time>2016-08-06T17:08:12Z</time></trkpt>
<trkpt lat="46.22965" lon="7.37093"><ele>487.2</ele><time>2016-08-06T17:08:14Z</time></trkpt>
<trkpt lat="46.22961" lon="7.37092"><ele>487.2</ele><time>2016-08-06T17:08:15Z</time></trkpt>
<trkpt lat="46.22956" lon="7.3709"><ele>487.2</ele><time>2016-08-06T17:08:16Z</time></trkpt>
<trkpt lat="46.22946" lon="7.37086"><ele>487.2</ele><time>2016-08-06T17:08:18Z</time></trkpt>
<trkpt lat="46.22936" lon="7.37083"><ele>487.2</ele><time>2016-08-06T17:08:20Z</time></trkpt>
<trkpt lat="46.22931" lon="7.37081"><ele>487.2</ele><time>2016-08-06T17:08:21Z</time></trkpt>
<trkpt lat="46.22926" lon="7.37078"><ele>487.2</ele><time>2016-08-06T17:08:22Z</time></trkpt>
<trkpt lat="46.22916" lon="7.37073"><ele>487.2</ele><time>2016-08-06T17:08:24Z</time></trkpt>
<trkpt lat="46.22912" lon="7.3707"><ele>487.2</ele><time>2016-08-06T17:08:25Z</time></trkpt>
<trkpt lat="46.22902" lon="7.37064"><ele>487.4</ele><time>2016-08-06T17:08:27Z</time></trkpt>
<trkpt lat="46.22893" lon="7.37059"><ele>487.4</ele><time>2016-08-06T17:08:29Z</time></trkpt>
<trkpt lat="46.22884" lon="7.37053"><ele>487.4</ele><time>2016-08-06T17:08:31Z</time></trkpt>
<trkpt lat="46.22876" lon="7.37051"><ele>487.4</ele><time>2016-08-06T17:08:33Z</time></trkpt>
<trkpt lat="46.22868" lon="7.37049"><ele>487.4</ele><time>2016-08-06T17:08:35Z</time></trkpt>
<trkpt lat="46.2286" lon="7.37048"><ele>487.4</ele><time>2016-08-06T17:08:37Z</time></trkpt>
<trkpt lat="46.22852" lon="7.37046"><ele>487.4</ele><time>2016-08-06T17:08:39Z</time></trkpt>
<trkpt lat="46.22845" lon="7.37044"><ele>487.4</ele><time>2016-08-06T17:08:41Z</time></trkpt>
<trkpt lat="46.22837" lon="7.37042"><ele>487.4</ele><time>2016-08-06T17:08:43Z</time></trkpt>
<trkpt lat="46.22835" lon="7.37039"><ele>487.4</ele><time>2016-08-06T17:08:44Z</time></trkpt>
<trkpt lat="46.22833" lon="7.37035"><ele>487.4</ele><time>2016-08-06T17:08:45Z</time></trkpt>
<trkpt lat="46.22831" lon="7.37039"><ele>487.4</ele><time>2016-08-06T17:08:47Z</time></trkpt>
<trkpt lat="46.22831" lon="7.37038"><ele>487.4</ele><time>2016-08-06T17:08:48Z</time></trkpt>
<trkpt lat="46.22831" lon="7.37032"><ele>487.4</ele><time>2016-08-06T17:08:49Z</time></trkpt>
<trkpt lat="46.22831" lon="7.37026"><ele>487.4</ele><time>2016-08-06T17:08:50Z</time></trkpt>
<trkpt lat="46.22834" lon="7.37018"><ele>487.6</ele><time>2016-08-06T17:08:51Z</time></trkpt>
<trkpt lat="46.2284" lon="7.37004"><ele>487.6</ele><time>2016-08-06T17:08:53Z</time></trkpt>
<trkpt lat="46.22846" lon="7.3699"><ele>487.6</ele><time>2016-08-06T17:08:55Z</time></trkpt>
<trkpt lat="46.22852" lon="7.36975"><ele>487.6</ele><time>2016-08-06T17:08:57Z</time></trkpt>
<trkpt lat="46.22855" lon="7.36968"><ele>487.6</ele><time>2016-08-06T17:08:58Z</time></trkpt>
<trkpt lat="46.22857" lon="7.36961"><ele>487.6</ele><time>2016-08-06T17:08:59Z</time></trkpt>
<trkpt lat="46.22863" lon="7.36946"><ele>487.6</ele><time>2016-08-06T17:09:01Z</time></trkpt>
<trkpt lat="46.22868" lon="7.36932"><ele>487.6</ele><time>2016-08-06T17:09:03Z</time></trkpt>
<trkpt lat="46.22873" lon="7.36917"><ele>487.6</ele><time>2016-08-06T17:09:05Z</time></trkpt>
<trkpt lat="46.22878" lon="7.36902"><ele>487.6</ele><time>2016-08-06T17:09:07Z</time></trkpt>
<trkpt lat="46.22883" lon="7.36892"><ele>487.6</ele><time>2016-08-06T17:09:08Z</time></trkpt>
<trkpt lat="46.2289" lon="7.36877"><ele>487.6</ele><time>2016-08-06T17:09:09Z</time></trkpt>
<trkpt lat="46.22887" lon="7.36868"><ele>487.6</ele><time>2016-08-06T17:09:10Z</time></trkpt>
<trkpt lat="46.22883" lon="7.36866"><ele>487.6</ele><time>2016-08-06T17:09:11Z</time></trkpt>
<trkpt lat="46.2288" lon="7.36865"><ele>487.6</ele><time>2016-08-06T17:09:12Z</time></trkpt>
<trkpt lat="46.22879" lon="7.36867"><ele>487.6</ele><time>2016-08-06T17:09:13Z</time></trkpt>
<trkpt lat="46.22874" lon="7.3687"><ele>487.6</ele><time>2016-08-06T17:09:14Z</time></trkpt>
<trkpt lat="46.22863" lon="7.36871"><ele>487.6</ele><time>2016-08-06T17:09:15Z</time></trkpt>
<trkpt lat="46.22848" lon="7.36861"><ele>487.8</ele><time>2016-08-06T17:09:17Z</time></trkpt>
<trkpt lat="46.22834" lon="7.36852"><ele>487.8</ele><time>2016-08-06T17:09:19Z</time></trkpt>
<trkpt lat="46.22816" lon="7.36846"><ele>487.8</ele><time>2016-08-06T17:09:21Z</time></trkpt>
<trkpt lat="46.22787" lon="7.36855"><ele>487.8</ele><time>2016-08-06T17:09:23Z</time></trkpt>
<trkpt lat="46.22785" lon="7.36855"><ele>487.8</ele><time>2016-08-06T17:09:24Z</time></trkpt>
<trkpt lat="46.22782" lon="7.36854"><ele>487.8</ele><time>2016-08-06T17:09:26Z</time></trkpt>
<trkpt lat="46.2278" lon="7.36853"><ele>487.8</ele><time>2016-08-06T17:09:27Z</time></trkpt>
<trkpt lat="46.22777" lon="7.36852"><ele>487.8</ele><time>2016-08-06T17:09:29Z</time></trkpt>
<trkpt lat="46.22771" lon="7.36851"><ele>487.8</ele><time>2016-08-06T17:09:32Z</time></trkpt>
<trkpt lat="46.22769" lon="7.36849"><ele>487.8</ele><time>2016-08-06T17:09:33Z</time></trkpt>
<trkpt lat="46.22753" lon="7.36831"><ele>487.8</ele><time>2016-08-06T17:09:36Z</time></trkpt>
<trkpt lat="46.22747" lon="7.36825"><ele>487.8</ele><time>2016-08-06T17:09:37Z</time></trkpt>
<trkpt lat="46.22736" lon="7.36813"><ele>487.8</ele><time>2016-08-06T17:09:39Z</time></trkpt>
<trkpt lat="46.22731" lon="7.36808"><ele>487.8</ele><time>2016-08-06T17:09:40Z</time></trkpt>
<trkpt lat="46.22726" lon="7.36802"><ele>487.8</ele><time>2016-08-06T17:09:41Z</time></trkpt>
<trkpt lat="46.22712" lon="7.36786"><ele>488</ele><time>2016-08-06T17:09:44Z</time></trkpt>
<trkpt lat="46.22707" lon="7.3678"><ele>488</ele><time>2016-08-06T17:09:45Z</time></trkpt>
<trkpt lat="46.22697" lon="7.3677"><ele>488</ele><time>2016-08-06T17:09:47Z</time></trkpt>
<trkpt lat="46.22693" lon="7.36764"><ele>488</ele><time>2016-08-06T17:09:48Z</time></trkpt>
<trkpt lat="46.22688" lon="7.36758"><ele>488</ele><time>2016-08-06T17:09:49Z</time></trkpt>
<trkpt lat="46.22678" lon="7.36747"><ele>488</ele><time>2016-08-06T17:09:51Z</time></trkpt>
<trkpt lat="46.22668" lon="7.36735"><ele>488</ele><time>2016-08-06T17:09:53Z</time></trkpt>
<trkpt lat="46.22658" lon="7.36724"><ele>488</ele><time>2016-08-06T17:09:55Z</time></trkpt>
<trkpt lat="46.22653" lon="7.36718"><ele>488</ele><time>2016-08-06T17:09:56Z</time></trkpt>
<trkpt lat="46.22644" lon="7.36708"><ele>488</ele><time>2016-08-06T17:09:58Z</time></trkpt>
<trkpt lat="46.2264" lon="7.36703"><ele>488</ele><time>2016-08-06T17:09:59Z</time></trkpt>
<trkpt lat="46.22626" lon="7.36687"><ele>488</ele><time>2016-08-06T17:10:02Z</time></trkpt>
<trkpt lat="46.22622" lon="7.36681"><ele>488</ele><time>2016-08-06T17:10:03Z</time></trkpt>
<trkpt lat="46.22617" lon="7.36675"><ele>488</ele><time>2016-08-06T17:10:04Z</time></trkpt>
<trkpt lat="46.22607" lon="7.36663"><ele>488</ele><time>2016-08-06T17:10:06Z</time></trkpt>
<trkpt lat="46.22597" lon="7.3665"><ele>488.2</ele><time>2016-08-06T17:10:08Z</time></trkpt>
<trkpt lat="46.22587" lon="7.36638"><ele>488.2</ele><time>2016-08-06T17:10:10Z</time></trkpt>
<trkpt lat="46.22577" lon="7.36626"><ele>488.2</ele><time>2016-08-06T17:10:12Z</time></trkpt>
<trkpt lat="46.22567" lon="7.36613"><ele>488.2</ele><time>2016-08-06T17:10:14Z</time></trkpt>
<trkpt lat="46.22557" lon="7.36601"><ele>488.2</ele><time>2016-08-06T17:10:16Z</time></trkpt>
<trkpt lat="46.22553" lon="7.36595"><ele>488.2</ele><time>2016-08-06T17:10:17Z</time></trkpt>
<trkpt lat="46.22539" lon="7.36575"><ele>488.2</ele><time>2016-08-06T17:10:20Z</time></trkpt>
<trkpt lat="46.2253" lon="7.36562"><ele>488.2</ele><time>2016-08-06T17:10:22Z</time></trkpt>
<trkpt lat="46.22526" lon="7.36555"><ele>488.2</ele><time>2016-08-06T17:10:23Z</time></trkpt>
<trkpt lat="46.22517" lon="7.36542"><ele>488.2</ele><time>2016-08-06T17:10:25Z</time></trkpt>
<trkpt lat="46.22512" lon="7.36535"><ele>488.2</ele><time>2016-08-06T17:10:26Z</time></trkpt>
<trkpt lat="46.22504" lon="7.36522"><ele>488.2</ele><time>2016-08-06T17:10:28Z</time></trkpt>
<trkpt lat="46.22495" lon="7.36509"><ele>488.2</ele><time>2016-08-06T17:10:30Z</time></trkpt>
<trkpt lat="46.22486" lon="7.36496"><ele>488.2</ele><time>2016-08-06T17:10:32Z</time></trkpt>
<trkpt lat="46.22482" lon="7.3649"><ele>488.4</ele><time>2016-08-06T17:10:33Z</time></trkpt>
<trkpt lat="46.22473" lon="7.36477"><ele>488.4</ele><time>2016-08-06T17:10:35Z</time></trkpt>
<trkpt lat="46.22461" lon="7.36459"><ele>488.4</ele><time>2016-08-06T17:10:38Z</time></trkpt>
<trkpt lat="46.22456" lon="7.36453"><ele>488.4</ele><time>2016-08-06T17:10:39Z</time></trkpt>
<trkpt lat="46.22452" lon="7.36447"><ele>488.4</ele><time>2016-08-06T17:10:40Z</time></trkpt>
<trkpt lat="46.22443" lon="7.36434"><ele>488.4</ele><time>2016-08-06T17:10:42Z</time></trkpt>
<trkpt lat="46.22434" lon="7.36421"><ele>488.4</ele><time>2016-08-06T17:10:44Z</time></trkpt>
<trkpt lat="46.22424" lon="7.36409"><ele>488.4</ele><time>2016-08-06T17:10:46Z</time></trkpt>
<trkpt lat="46.22415" lon="7.36396"><ele>488.4</ele><time>2016-08-06T17:10:48Z</time></trkpt>
<trkpt lat="46.22405" lon="7.36382"><ele>488.4</ele><time>2016-08-06T17:10:50Z</time></trkpt>
<trkpt lat="46.224" lon="7.36375"><ele>488.4</ele><time>2016-08-06T17:10:51Z</time></trkpt>
<trkpt lat="46.22391" lon="7.36362"><ele>488.4</ele><time>2016-08-06T17:10:53Z</time></trkpt>
<trkpt lat="46.22381" lon="7.3635"><ele>488.4</ele><time>2016-08-06T17:10:55Z</time></trkpt>
<trkpt lat="46.22377" lon="7.36343"><ele>488.4</ele><time>2016-08-06T17:10:57Z</time></trkpt>
<trkpt lat="46.22373" lon="7.36337"><ele>488.6</ele><time>2016-08-06T17:10:59Z</time></trkpt>
<trkpt lat="46.22367" lon="7.36328"><ele>488.6</ele><time>2016-08-06T17:11:02Z</time></trkpt>
<trkpt lat="46.22362" lon="7.36322"><ele>488.6</ele><time>2016-08-06T17:11:04Z</time></trkpt>
<trkpt lat="46.22358" lon="7.36316"><ele>488.6</ele><time>2016-08-06T17:11:06Z</time></trkpt>
<trkpt lat="46.22354" lon="7.3631"><ele>488.6</ele><time>2016-08-06T17:11:08Z</time></trkpt>
<trkpt lat="46.22348" lon="7.36301"><ele>488.6</ele><time>2016-08-06T17:11:10Z</time></trkpt>
<trkpt lat="46.22328" lon="7.36272"><ele>488.6</ele><time>2016-08-06T17:11:12Z</time></trkpt>
<trkpt lat="46.22308" lon="7.36244"><ele>488.6</ele><time>2016-08-06T17:11:14Z</time></trkpt>
<trkpt lat="46.223" lon="7.36232"><ele>488.4</ele><time>2016-08-06T17:11:15Z</time></trkpt>
<trkpt lat="46.22296" lon="7.36227"><ele>488</ele><time>2016-08-06T17:11:16Z</time></trkpt>
<trkpt lat="46.22289" lon="7.36217"><ele>487.6</ele><time>2016-08-06T17:11:18Z</time></trkpt>
<trkpt lat="46.22285" lon="7.36212"><ele>487.4</ele><time>2016-08-06T17:11:19Z</time></trkpt>
<trkpt lat="46.22281" lon="7.36208"><ele>487.2</ele><time>2016-08-06T17:11:20Z</time></trkpt>
<trkpt lat="46.22274" lon="7.36198"><ele>486.8</ele><time>2016-08-06T17:11:22Z</time></trkpt>
<trkpt lat="46.2227" lon="7.36193"><ele>486.6</ele><time>2016-08-06T17:11:23Z</time></trkpt>
<trkpt lat="46.22266" lon="7.36189"><ele>486.4</ele><time>2016-08-06T17:11:24Z</time></trkpt>
<trkpt lat="46.22259" lon="7.3619"><ele>486.2</ele><time>2016-08-06T17:11:26Z</time></trkpt>
<trkpt lat="46.22251" lon="7.3619"><ele>485.8</ele><time>2016-08-06T17:11:28Z</time></trkpt>
<trkpt lat="46.22241" lon="7.36181"><ele>485.4</ele><time>2016-08-06T17:11:30Z</time></trkpt>
<trkpt lat="46.22236" lon="7.36176"><ele>485.2</ele><time>2016-08-06T17:11:31Z</time></trkpt>
<trkpt lat="46.22231" lon="7.36172"><ele>485.2</ele><time>2016-08-06T17:11:32Z</time></trkpt>
<trkpt lat="46.22222" lon="7.36163"><ele>485.2</ele><time>2016-08-06T17:11:34Z</time></trkpt>
<trkpt lat="46.22217" lon="7.36158"><ele>485</ele><time>2016-08-06T17:11:35Z</time></trkpt>
<trkpt lat="46.22212" lon="7.36154"><ele>485</ele><time>2016-08-06T17:11:36Z</time></trkpt>
<trkpt lat="46.22204" lon="7.36142"><ele>485</ele><time>2016-08-06T17:11:38Z</time></trkpt>
<trkpt lat="46.22195" lon="7.36131"><ele>484.8</ele><time>2016-08-06T17:11:40Z</time></trkpt>
<trkpt lat="46.22191" lon="7.36125"><ele>484.8</ele><time>2016-08-06T17:11:41Z</time></trkpt>
<trkpt lat="46.22187" lon="7.36119"><ele>485</ele><time>2016-08-06T17:11:42Z</time></trkpt>
<trkpt lat="46.22179" lon="7.36108"><ele>486.2</ele><time>2016-08-06T17:11:44Z</time></trkpt>
<trkpt lat="46.22174" lon="7.36103"><ele>486.8</ele><time>2016-08-06T17:11:45Z</time></trkpt>
<trkpt lat="46.22166" lon="7.36093"><ele>487.8</ele><time>2016-08-06T17:11:47Z</time></trkpt>
<trkpt lat="46.22158" lon="7.36083"><ele>487</ele><time>2016-08-06T17:11:49Z</time></trkpt>
<trkpt lat="46.22145" lon="7.36068"><ele>486</ele><time>2016-08-06T17:11:52Z</time></trkpt>
<trkpt lat="46.22141" lon="7.36063"><ele>485.8</ele><time>2016-08-06T17:11:53Z</time></trkpt>
<trkpt lat="46.2213" lon="7.36049"><ele>485.6</ele><time>2016-08-06T17:11:56Z</time></trkpt>
<trkpt lat="46.22127" lon="7.36044"><ele>485.4</ele><time>2016-08-06T17:11:57Z</time></trkpt>
<trkpt lat="46.2212" lon="7.36035"><ele>485.2</ele><time>2016-08-06T17:11:59Z</time></trkpt>
<trkpt lat="46.22109" lon="7.36021"><ele>485</ele><time>2016-08-06T17:12:02Z</time></trkpt>
<trkpt lat="46.22105" lon="7.36016"><ele>485</ele><time>2016-08-06T17:12:03Z</time></trkpt>
<trkpt lat="46.22102" lon="7.36011"><ele>484.8</ele><time>2016-08-06T17:12:04Z</time></trkpt>
<trkpt lat="46.22098" lon="7.36006"><ele>484.8</ele><time>2016-08-06T17:12:05Z</time></trkpt>
<trkpt lat="46.22087" lon="7.35992"><ele>484.6</ele><time>2016-08-06T17:12:08Z</time></trkpt>
<trkpt lat="46.2208" lon="7.35982"><ele>484.4</ele><time>2016-08-06T17:12:10Z</time></trkpt>
<trkpt lat="46.22076" lon="7.35977"><ele>484.4</ele><time>2016-08-06T17:12:11Z</time></trkpt>
<trkpt lat="46.22072" lon="7.35971"><ele>484.2</ele><time>2016-08-06T17:12:12Z</time></trkpt>
<trkpt lat="46.22065" lon="7.35957"><ele>484.2</ele><time>2016-08-06T17:12:14Z</time></trkpt>
<trkpt lat="46.22058" lon="7.35943"><ele>484</ele><time>2016-08-06T17:12:16Z</time></trkpt>
<trkpt lat="46.22054" lon="7.35936"><ele>483.8</ele><time>2016-08-06T17:12:17Z</time></trkpt>
<trkpt lat="46.22042" lon="7.35919"><ele>483.6</ele><time>2016-08-06T17:12:20Z</time></trkpt>
<trkpt lat="46.22034" lon="7.35908"><ele>483.6</ele><time>2016-08-06T17:12:22Z</time></trkpt>
<trkpt lat="46.22031" lon="7.35903"><ele>483.4</ele><time>2016-08-06T17:12:23Z</time></trkpt>
<trkpt lat="46.22023" lon="7.35892"><ele>483.2</ele><time>2016-08-06T17:12:25Z</time></trkpt>
<trkpt lat="46.22019" lon="7.35886"><ele>483.2</ele><time>2016-08-06T17:12:26Z</time></trkpt>
<trkpt lat="46.22013" lon="7.35872"><ele>483</ele><time>2016-08-06T17:12:28Z</time></trkpt>
<trkpt lat="46.22009" lon="7.35865"><ele>483</ele><time>2016-08-06T17:12:29Z</time></trkpt>
<trkpt lat="46.22" lon="7.35845"><ele>482.8</ele><time>2016-08-06T17:12:32Z</time></trkpt>
<trkpt lat="46.21997" lon="7.35838"><ele>482.6</ele><time>2016-08-06T17:12:33Z</time></trkpt>
<trkpt lat="46.21991" lon="7.35824"><ele>482.6</ele><time>2016-08-06T17:12:35Z</time></trkpt>
<trkpt lat="46.21981" lon="7.35802"><ele>482.2</ele><time>2016-08-06T17:12:38Z</time></trkpt>
<trkpt lat="46.21976" lon="7.35788"><ele>482.2</ele><time>2016-08-06T17:12:40Z</time></trkpt>
<trkpt lat="46.21976" lon="7.35782"><ele>482</ele><time>2016-08-06T17:12:41Z</time></trkpt>
<trkpt lat="46.21976" lon="7.35763"><ele>481.8</ele><time>2016-08-06T17:12:44Z</time></trkpt>
<trkpt lat="46.21974" lon="7.35757"><ele>481.8</ele><time>2016-08-06T17:12:45Z</time></trkpt>
<trkpt lat="46.21973" lon="7.35751"><ele>481.8</ele><time>2016-08-06T17:12:46Z</time></trkpt>
<trkpt lat="46.21971" lon="7.35745"><ele>481.8</ele><time>2016-08-06T17:12:47Z</time></trkpt>
<trkpt lat="46.21969" lon="7.35739"><ele>482</ele><time>2016-08-06T17:12:48Z</time></trkpt>
<trkpt lat="46.21967" lon="7.35732"><ele>482</ele><time>2016-08-06T17:12:49Z</time></trkpt>
<trkpt lat="46.2196" lon="7.35711"><ele>482.2</ele><time>2016-08-06T17:12:52Z</time></trkpt>
<trkpt lat="46.21957" lon="7.35704"><ele>482.2</ele><time>2016-08-06T17:12:53Z</time></trkpt>
<trkpt lat="46.21952" lon="7.35691"><ele>482.4</ele><time>2016-08-06T17:12:55Z</time></trkpt>
<trkpt lat="46.21948" lon="7.35677"><ele>482.6</ele><time>2016-08-06T17:12:57Z</time></trkpt>
<trkpt lat="46.21945" lon="7.35665"><ele>482.6</ele><time>2016-08-06T17:12:59Z</time></trkpt>
<trkpt lat="46.2194" lon="7.35647"><ele>482.8</ele><time>2016-08-06T17:13:02Z</time></trkpt>
<trkpt lat="46.21939" lon="7.35641"><ele>482.8</ele><time>2016-08-06T17:13:03Z</time></trkpt>
<trkpt lat="46.21936" lon="7.35629"><ele>483</ele><time>2016-08-06T17:13:05Z</time></trkpt>
<trkpt lat="46.21934" lon="7.35623"><ele>483</ele><time>2016-08-06T17:13:06Z</time></trkpt>
<trkpt lat="46.21929" lon="7.35611"><ele>483</ele><time>2016-08-06T17:13:08Z</time></trkpt>
<trkpt lat="46.21925" lon="7.356"><ele>483</ele><time>2016-08-06T17:13:10Z</time></trkpt>
<trkpt lat="46.21923" lon="7.35594"><ele>483</ele><time>2016-08-06T17:13:11Z</time></trkpt>
<trkpt lat="46.21918" lon="7.35583"><ele>483</ele><time>2016-08-06T17:13:13Z</time></trkpt>
<trkpt lat="46.21912" lon="7.35567"><ele>483</ele><time>2016-08-06T17:13:16Z</time></trkpt>
<trkpt lat="46.21912" lon="7.35565"><ele>483.2</ele><time>2016-08-06T17:13:17Z</time></trkpt>
<trkpt lat="46.21912" lon="7.35562"><ele>483.2</ele><time>2016-08-06T17:13:19Z</time></trkpt>
<trkpt lat="46.21912" lon="7.35559"><ele>483.2</ele><time>2016-08-06T17:13:21Z</time></trkpt>
<trkpt lat="46.21913" lon="7.35558"><ele>483.2</ele><time>2016-08-06T17:13:22Z</time></trkpt>
<trkpt lat="46.21915" lon="7.35557"><ele>483.2</ele><time>2016-08-06T17:13:24Z</time></trkpt>
<trkpt lat="46.21916" lon="7.35556"><ele>483.2</ele><time>2016-08-06T17:13:26Z</time></trkpt>
<trkpt lat="46.21917" lon="7.35556"><ele>483.2</ele><time>2016-08-06T17:13:27Z</time></trkpt>
<trkpt lat="46.21919" lon="7.35556"><ele>483.4</ele><time>2016-08-06T17:13:29Z</time></trkpt>
<trkpt lat="46.21922" lon="7.35554"><ele>483.4</ele><time>2016-08-06T17:13:32Z</time></trkpt>
<trkpt lat="46.21919" lon="7.35545"><ele>483.4</ele><time>2016-08-06T17:13:34Z</time></trkpt>
<trkpt lat="46.21918" lon="7.35541"><ele>483.4</ele><time>2016-08-06T17:13:35Z</time></trkpt>
<trkpt lat="46.21915" lon="7.35532"><ele>483.4</ele><time>2016-08-06T17:13:37Z</time></trkpt>
<trkpt lat="46.21911" lon="7.35519"><ele>483.4</ele><time>2016-08-06T17:13:40Z</time></trkpt>
<trkpt lat="46.2191" lon="7.35515"><ele>483.4</ele><time>2016-08-06T17:13:41Z</time></trkpt>
<trkpt lat="46.21906" lon="7.35502"><ele>483.6</ele><time>2016-08-06T17:13:44Z</time></trkpt>
<trkpt lat="46.21905" lon="7.35498"><ele>483.6</ele><time>2016-08-06T17:13:45Z</time></trkpt>
<trkpt lat="46.21904" lon="7.35494"><ele>483.6</ele><time>2016-08-06T17:13:46Z</time></trkpt>
<trkpt lat="46.21904" lon="7.35489"><ele>483.8</ele><time>2016-08-06T17:13:47Z</time></trkpt>
<trkpt lat="46.21904" lon="7.35483"><ele>483.8</ele><time>2016-08-06T17:13:48Z</time></trkpt>
<trkpt lat="46.21901" lon="7.35476"><ele>484</ele><time>2016-08-06T17:13:49Z</time></trkpt>
<trkpt lat="46.21898" lon="7.35469"><ele>484</ele><time>2016-08-06T17:13:50Z</time></trkpt>
<trkpt lat="46.21896" lon="7.35462"><ele>484.2</ele><time>2016-08-06T17:13:51Z</time></trkpt>
<trkpt lat="46.21893" lon="7.35445"><ele>484.6</ele><time>2016-08-06T17:13:53Z</time></trkpt>
<trkpt lat="46.21897" lon="7.35433"><ele>484.8</ele><time>2016-08-06T17:13:54Z</time></trkpt>
<trkpt lat="46.21892" lon="7.3542"><ele>485.2</ele><time>2016-08-06T17:13:56Z</time></trkpt>
<trkpt lat="46.21887" lon="7.35407"><ele>484.8</ele><time>2016-08-06T17:13:58Z</time></trkpt>
<trkpt lat="46.21885" lon="7.35401"><ele>484.8</ele><time>2016-08-06T17:13:59Z</time></trkpt>
<trkpt lat="46.2188" lon="7.35387"><ele>484.4</ele><time>2016-08-06T17:14:01Z</time></trkpt>
<trkpt lat="46.21877" lon="7.35381"><ele>484.4</ele><time>2016-08-06T17:14:02Z</time></trkpt>
<trkpt lat="46.21875" lon="7.35375"><ele>484.4</ele><time>2016-08-06T17:14:03Z</time></trkpt>
<trkpt lat="46.21869" lon="7.35358"><ele>484.2</ele><time>2016-08-06T17:14:06Z</time></trkpt>
<trkpt lat="46.21865" lon="7.35347"><ele>484.2</ele><time>2016-08-06T17:14:08Z</time></trkpt>
<trkpt lat="46.21861" lon="7.35337"><ele>484</ele><time>2016-08-06T17:14:10Z</time></trkpt>
<trkpt lat="46.21857" lon="7.35326"><ele>484</ele><time>2016-08-06T17:14:12Z</time></trkpt>
<trkpt lat="46.21855" lon="7.3532"><ele>483.8</ele><time>2016-08-06T17:14:13Z</time></trkpt>
<trkpt lat="46.21853" lon="7.35315"><ele>483.8</ele><time>2016-08-06T17:14:14Z</time></trkpt>
<trkpt lat="46.2185" lon="7.35309"><ele>483.8</ele><time>2016-08-06T17:14:15Z</time></trkpt>
<trkpt lat="46.21846" lon="7.35298"><ele>483.6</ele><time>2016-08-06T17:14:17Z</time></trkpt>
<trkpt lat="46.21842" lon="7.35286"><ele>483.6</ele><time>2016-08-06T17:14:19Z</time></trkpt>
<trkpt lat="46.21838" lon="7.35275"><ele>483.4</ele><time>2016-08-06T17:14:21Z</time></trkpt>
<trkpt lat="46.21834" lon="7.35264"><ele>483.4</ele><time>2016-08-06T17:14:23Z</time></trkpt>
<trkpt lat="46.21829" lon="7.35252"><ele>483.2</ele><time>2016-08-06T17:14:25Z</time></trkpt>
<trkpt lat="46.21824" lon="7.35238"><ele>483.2</ele><time>2016-08-06T17:14:27Z</time></trkpt>
<trkpt lat="46.21819" lon="7.35224"><ele>483</ele><time>2016-08-06T17:14:29Z</time></trkpt>
<trkpt lat="46.21814" lon="7.3521"><ele>483</ele><time>2016-08-06T17:14:31Z</time></trkpt>
<trkpt lat="46.21809" lon="7.35196"><ele>482.8</ele><time>2016-08-06T17:14:33Z</time></trkpt>
<trkpt lat="46.21807" lon="7.35189"><ele>482.8</ele><time>2016-08-06T17:14:34Z</time></trkpt>
<trkpt lat="46.21804" lon="7.3518"><ele>482.8</ele><time>2016-08-06T17:14:35Z</time></trkpt>
<trkpt lat="46.21798" lon="7.35162"><ele>482.6</ele><time>2016-08-06T17:14:37Z</time></trkpt>
<trkpt lat="46.21792" lon="7.35144"><ele>482.6</ele><time>2016-08-06T17:14:39Z</time></trkpt>
<trkpt lat="46.21786" lon="7.35126"><ele>482.4</ele><time>2016-08-06T17:14:41Z</time></trkpt>
<trkpt lat="46.21781" lon="7.35112"><ele>482.4</ele><time>2016-08-06T17:14:43Z</time></trkpt>
<trkpt lat="46.21777" lon="7.35098"><ele>482.2</ele><time>2016-08-06T17:14:45Z</time></trkpt>
<trkpt lat="46.21772" lon="7.35084"><ele>482.4</ele><time>2016-08-06T17:14:47Z</time></trkpt>
<trkpt lat="46.21767" lon="7.35069"><ele>482.4</ele><time>2016-08-06T17:14:49Z</time></trkpt>
<trkpt lat="46.21765" lon="7.35062"><ele>482.4</ele><time>2016-08-06T17:14:50Z</time></trkpt>
<trkpt lat="46.21763" lon="7.35055"><ele>482.4</ele><time>2016-08-06T17:14:51Z</time></trkpt>
<trkpt lat="46.21759" lon="7.35042"><ele>482.6</ele><time>2016-08-06T17:14:53Z</time></trkpt>
<trkpt lat="46.21754" lon="7.35028"><ele>482.8</ele><time>2016-08-06T17:14:55Z</time></trkpt>
<trkpt lat="46.2175" lon="7.35015"><ele>483</ele><time>2016-08-06T17:14:57Z</time></trkpt>
<trkpt lat="46.21746" lon="7.35001"><ele>483.2</ele><time>2016-08-06T17:14:59Z</time></trkpt>
<trkpt lat="46.21741" lon="7.34986"><ele>483.4</ele><time>2016-08-06T17:15:01Z</time></trkpt>
<trkpt lat="46.21736" lon="7.34971"><ele>483.8</ele><time>2016-08-06T17:15:03Z</time></trkpt>
<trkpt lat="46.21731" lon="7.34956"><ele>484</ele><time>2016-08-06T17:15:05Z</time></trkpt>
<trkpt lat="46.21726" lon="7.34941"><ele>484.2</ele><time>2016-08-06T17:15:07Z</time></trkpt>
<trkpt lat="46.21721" lon="7.34923"><ele>484.2</ele><time>2016-08-06T17:15:09Z</time></trkpt>
<trkpt lat="46.21716" lon="7.34906"><ele>484.2</ele><time>2016-08-06T17:15:11Z</time></trkpt>
<trkpt lat="46.2171" lon="7.34888"><ele>484.2</ele><time>2016-08-06T17:15:13Z</time></trkpt>
<trkpt lat="46.21708" lon="7.34881"><ele>484.2</ele><time>2016-08-06T17:15:14Z</time></trkpt>
<trkpt lat="46.21707" lon="7.34875"><ele>484.2</ele><time>2016-08-06T17:15:15Z</time></trkpt>
<trkpt lat="46.21705" lon="7.34864"><ele>484.2</ele><time>2016-08-06T17:15:17Z</time></trkpt>
<trkpt lat="46.21702" lon="7.34848"><ele>484.2</ele><time>2016-08-06T17:15:20Z</time></trkpt>
<trkpt lat="46.21702" lon="7.34843"><ele>484.2</ele><time>2016-08-06T17:15:21Z</time></trkpt>
<trkpt lat="46.21702" lon="7.3484"><ele>484.2</ele><time>2016-08-06T17:15:22Z</time></trkpt>
<trkpt lat="46.21702" lon="7.34838"><ele>484</ele><time>2016-08-06T17:15:23Z</time></trkpt>
<trkpt lat="46.21703" lon="7.34832"><ele>484</ele><time>2016-08-06T17:15:25Z</time></trkpt>
<trkpt lat="46.21703" lon="7.34827"><ele>484</ele><time>2016-08-06T17:15:27Z</time></trkpt>
<trkpt lat="46.21701" lon="7.3482"><ele>484</ele><time>2016-08-06T17:15:28Z</time></trkpt>
<trkpt lat="46.2169" lon="7.34799"><ele>484</ele><time>2016-08-06T17:15:29Z</time></trkpt>
<trkpt lat="46.21661" lon="7.34739"><ele>484</ele><time>2016-08-06T17:15:32Z</time></trkpt>
<trkpt lat="46.21655" lon="7.34723"><ele>483.8</ele><time>2016-08-06T17:15:34Z</time></trkpt>
<trkpt lat="46.21653" lon="7.34715"><ele>483.8</ele><time>2016-08-06T17:15:35Z</time></trkpt>
<trkpt lat="46.21645" lon="7.34691"><ele>483.8</ele><time>2016-08-06T17:15:38Z</time></trkpt>
<trkpt lat="46.21642" lon="7.34683"><ele>483.8</ele><time>2016-08-06T17:15:39Z</time></trkpt>
<trkpt lat="46.21639" lon="7.34675"><ele>483.8</ele><time>2016-08-06T17:15:40Z</time></trkpt>
<trkpt lat="46.21637" lon="7.34667"><ele>483.8</ele><time>2016-08-06T17:15:41Z</time></trkpt>
<trkpt lat="46.21644" lon="7.34644"><ele>483.6</ele><time>2016-08-06T17:15:44Z</time></trkpt>
<trkpt lat="46.21648" lon="7.34629"><ele>483.6</ele><time>2016-08-06T17:15:46Z</time></trkpt>
<trkpt lat="46.21649" lon="7.34622"><ele>483.6</ele><time>2016-08-06T17:15:47Z</time></trkpt>
<trkpt lat="46.21646" lon="7.34607"><ele>483.6</ele><time>2016-08-06T17:15:49Z</time></trkpt>
<trkpt lat="46.21644" lon="7.346"><ele>483.6</ele><time>2016-08-06T17:15:50Z</time></trkpt>
<trkpt lat="46.2164" lon="7.34595"><ele>483.6</ele><time>2016-08-06T17:15:51Z</time></trkpt>
<trkpt lat="46.21632" lon="7.34585"><ele>483.6</ele><time>2016-08-06T17:15:53Z</time></trkpt>
<trkpt lat="46.21619" lon="7.34582"><ele>483.4</ele><time>2016-08-06T17:15:55Z</time></trkpt>
<trkpt lat="46.21614" lon="7.34579"><ele>483.4</ele><time>2016-08-06T17:15:56Z</time></trkpt>
<trkpt lat="46.2161" lon="7.34573"><ele>483.4</ele><time>2016-08-06T17:15:57Z</time></trkpt>
<trkpt lat="46.21602" lon="7.34562"><ele>483.4</ele><time>2016-08-06T17:15:59Z</time></trkpt>
<trkpt lat="46.21594" lon="7.34539"><ele>483.4</ele><time>2016-08-06T17:16:02Z</time></trkpt>
<trkpt lat="46.21589" lon="7.34524"><ele>483.4</ele><time>2016-08-06T17:16:04Z</time></trkpt>
<trkpt lat="46.21586" lon="7.34517"><ele>483.2</ele><time>2016-08-06T17:16:05Z</time></trkpt>
<trkpt lat="46.21581" lon="7.34501"><ele>483.2</ele><time>2016-08-06T17:16:07Z</time></trkpt>
<trkpt lat="46.21572" lon="7.34478"><ele>483.2</ele><time>2016-08-06T17:16:10Z</time></trkpt>
<trkpt lat="46.2157" lon="7.3447"><ele>483.2</ele><time>2016-08-06T17:16:11Z</time></trkpt>
<trkpt lat="46.21561" lon="7.34446"><ele>483.2</ele><time>2016-08-06T17:16:14Z</time></trkpt>
<trkpt lat="46.21558" lon="7.34438"><ele>483.2</ele><time>2016-08-06T17:16:15Z</time></trkpt>
<trkpt lat="46.21555" lon="7.3443"><ele>483</ele><time>2016-08-06T17:16:16Z</time></trkpt>
<trkpt lat="46.21552" lon="7.34421"><ele>483</ele><time>2016-08-06T17:16:17Z</time></trkpt>
<trkpt lat="46.21542" lon="7.34396"><ele>483</ele><time>2016-08-06T17:16:20Z</time></trkpt>
<trkpt lat="46.21535" lon="7.3438"><ele>483</ele><time>2016-08-06T17:16:22Z</time></trkpt>
<trkpt lat="46.21533" lon="7.34372"><ele>483</ele><time>2016-08-06T17:16:23Z</time></trkpt>
<trkpt lat="46.21527" lon="7.34356"><ele>483</ele><time>2016-08-06T17:16:25Z</time></trkpt>
<trkpt lat="46.21521" lon="7.3434"><ele>482.8</ele><time>2016-08-06T17:16:27Z</time></trkpt>
<trkpt lat="46.21516" lon="7.34325"><ele>482.8</ele><time>2016-08-06T17:16:29Z</time></trkpt>
<trkpt lat="46.21513" lon="7.34317"><ele>482.8</ele><time>2016-08-06T17:16:30Z</time></trkpt>
<trkpt lat="46.21507" lon="7.34301"><ele>482.8</ele><time>2016-08-06T17:16:32Z</time></trkpt>
<trkpt lat="46.215" lon="7.34286"><ele>482.8</ele><time>2016-08-06T17:16:34Z</time></trkpt>
<trkpt lat="46.21497" lon="7.34278"><ele>482.8</ele><time>2016-08-06T17:16:35Z</time></trkpt>
<trkpt lat="46.21487" lon="7.34255"><ele>482.6</ele><time>2016-08-06T17:16:38Z</time></trkpt>
<trkpt lat="46.21481" lon="7.34239"><ele>482.6</ele><time>2016-08-06T17:16:40Z</time></trkpt>
<trkpt lat="46.21478" lon="7.34231"><ele>482.6</ele><time>2016-08-06T17:16:41Z</time></trkpt>
<trkpt lat="46.21472" lon="7.34214"><ele>482.6</ele><time>2016-08-06T17:16:43Z</time></trkpt>
<trkpt lat="46.21465" lon="7.34198"><ele>482.6</ele><time>2016-08-06T17:16:45Z</time></trkpt>
<trkpt lat="46.21463" lon="7.34191"><ele>482.6</ele><time>2016-08-06T17:16:46Z</time></trkpt>
<trkpt lat="46.2146" lon="7.34184"><ele>482.4</ele><time>2016-08-06T17:16:47Z</time></trkpt>
<trkpt lat="46.21452" lon="7.34162"><ele>482.4</ele><time>2016-08-06T17:16:50Z</time></trkpt>
<trkpt lat="46.21446" lon="7.34148"><ele>482.4</ele><time>2016-08-06T17:16:52Z</time></trkpt>
<trkpt lat="46.21443" lon="7.34141"><ele>482.4</ele><time>2016-08-06T17:16:53Z</time></trkpt>
<trkpt lat="46.21435" lon="7.34117"><ele>482.4</ele><time>2016-08-06T17:16:56Z</time></trkpt>
<trkpt lat="46.21429" lon="7.34102"><ele>482.2</ele><time>2016-08-06T17:16:58Z</time></trkpt>
<trkpt lat="46.21427" lon="7.34094"><ele>482.2</ele><time>2016-08-06T17:16:59Z</time></trkpt>
<trkpt lat="46.21421" lon="7.34079"><ele>482.2</ele><time>2016-08-06T17:17:01Z</time></trkpt>
<trkpt lat="46.21418" lon="7.34073"><ele>482.2</ele><time>2016-08-06T17:17:02Z</time></trkpt>
<trkpt lat="46.21412" lon="7.3406"><ele>482.2</ele><time>2016-08-06T17:17:04Z</time></trkpt>
<trkpt lat="46.2141" lon="7.34054"><ele>482.2</ele><time>2016-08-06T17:17:05Z</time></trkpt>
<trkpt lat="46.21404" lon="7.34042"><ele>482.2</ele><time>2016-08-06T17:17:07Z</time></trkpt>
<trkpt lat="46.21395" lon="7.34022"><ele>482</ele><time>2016-08-06T17:17:10Z</time></trkpt>
<trkpt lat="46.21391" lon="7.34011"><ele>482</ele><time>2016-08-06T17:17:11Z</time></trkpt>
<trkpt lat="46.21381" lon="7.33988"><ele>482</ele><time>2016-08-06T17:17:13Z</time></trkpt>
<trkpt lat="46.21372" lon="7.33966"><ele>482</ele><time>2016-08-06T17:17:15Z</time></trkpt>
<trkpt lat="46.21369" lon="7.33957"><ele>482</ele><time>2016-08-06T17:17:16Z</time></trkpt>
<trkpt lat="46.21365" lon="7.33949"><ele>482</ele><time>2016-08-06T17:17:17Z</time></trkpt>
<trkpt lat="46.21355" lon="7.33925"><ele>481.8</ele><time>2016-08-06T17:17:20Z</time></trkpt>
<trkpt lat="46.21347" lon="7.33907"><ele>481.8</ele><time>2016-08-06T17:17:22Z</time></trkpt>
<trkpt lat="46.21343" lon="7.33892"><ele>481.8</ele><time>2016-08-06T17:17:23Z</time></trkpt>
<trkpt lat="46.21339" lon="7.33881"><ele>481.8</ele><time>2016-08-06T17:17:24Z</time></trkpt>
<trkpt lat="46.21337" lon="7.3388"><ele>481.8</ele><time>2016-08-06T17:17:26Z</time></trkpt>
<trkpt lat="46.21335" lon="7.33878"><ele>481.8</ele><time>2016-08-06T17:17:28Z</time></trkpt>
<trkpt lat="46.21333" lon="7.33876"><ele>481.6</ele><time>2016-08-06T17:17:30Z</time></trkpt>
<trkpt lat="46.21331" lon="7.33875"><ele>481.6</ele><time>2016-08-06T17:17:32Z</time></trkpt>
<trkpt lat="46.21328" lon="7.33868"><ele>481.6</ele><time>2016-08-06T17:17:33Z</time></trkpt>
<trkpt lat="46.21314" lon="7.33829"><ele>481.6</ele><time>2016-08-06T17:17:35Z</time></trkpt>
<trkpt lat="46.21293" lon="7.33773"><ele>481.6</ele><time>2016-08-06T17:17:38Z</time></trkpt>
<trkpt lat="46.2129" lon="7.33765"><ele>481.6</ele><time>2016-08-06T17:17:39Z</time></trkpt>
<trkpt lat="46.21284" lon="7.33749"><ele>481.4</ele><time>2016-08-06T17:17:41Z</time></trkpt>
<trkpt lat="46.21277" lon="7.33733"><ele>481.4</ele><time>2016-08-06T17:17:43Z</time></trkpt>
<trkpt lat="46.21267" lon="7.3371"><ele>481.4</ele><time>2016-08-06T17:17:46Z</time></trkpt>
<trkpt lat="46.21263" lon="7.33702"><ele>481.4</ele><time>2016-08-06T17:17:47Z</time></trkpt>
<trkpt lat="46.2126" lon="7.33694"><ele>481.4</ele><time>2016-08-06T17:17:48Z</time></trkpt>
<trkpt lat="46.21253" lon="7.33678"><ele>481.2</ele><time>2016-08-06T17:17:50Z</time></trkpt>
<trkpt lat="46.21246" lon="7.33662"><ele>481.2</ele><time>2016-08-06T17:17:52Z</time></trkpt>
<trkpt lat="46.21242" lon="7.33655"><ele>481.2</ele><time>2016-08-06T17:17:53Z</time></trkpt>
<trkpt lat="46.21239" lon="7.33647"><ele>481.2</ele><time>2016-08-06T17:17:54Z</time></trkpt>
<trkpt lat="46.21236" lon="7.3364"><ele>481</ele><time>2016-08-06T17:17:55Z</time></trkpt>
<trkpt lat="46.21234" lon="7.33633"><ele>480.6</ele><time>2016-08-06T17:17:58Z</time></trkpt>
<trkpt lat="46.21233" lon="7.33631"><ele>480.6</ele><time>2016-08-06T17:17:59Z</time></trkpt>
<trkpt lat="46.2123" lon="7.33624"><ele>480.2</ele><time>2016-08-06T17:18:02Z</time></trkpt>
<trkpt lat="46.21229" lon="7.33621"><ele>480</ele><time>2016-08-06T17:18:03Z</time></trkpt>
<trkpt lat="46.21227" lon="7.33617"><ele>479.8</ele><time>2016-08-06T17:18:05Z</time></trkpt>
<trkpt lat="46.21224" lon="7.33609"><ele>479.4</ele><time>2016-08-06T17:18:08Z</time></trkpt>
<trkpt lat="46.21224" lon="7.33607"><ele>479.4</ele><time>2016-08-06T17:18:09Z</time></trkpt>
<trkpt lat="46.21222" lon="7.33602"><ele>479.2</ele><time>2016-08-06T17:18:11Z</time></trkpt>
<trkpt lat="46.21221" lon="7.33601"><ele>479.2</ele><time>2016-08-06T17:18:12Z</time></trkpt>
<trkpt lat="46.21225" lon="7.33607"><ele>479.2</ele><time>2016-08-06T17:18:14Z</time></trkpt>
<trkpt lat="46.21228" lon="7.33613"><ele>479</ele><time>2016-08-06T17:18:16Z</time></trkpt>
<trkpt lat="46.21229" lon="7.33616"><ele>478.8</ele><time>2016-08-06T17:18:17Z</time></trkpt>
<trkpt lat="46.21232" lon="7.33622"><ele>478.6</ele><time>2016-08-06T17:18:19Z</time></trkpt>
<trkpt lat="46.21237" lon="7.33631"><ele>478.2</ele><time>2016-08-06T17:18:22Z</time></trkpt>
<trkpt lat="46.2124" lon="7.33637"><ele>478</ele><time>2016-08-06T17:18:24Z</time></trkpt>
<trkpt lat="46.21243" lon="7.33643"><ele>477.8</ele><time>2016-08-06T17:18:26Z</time></trkpt>
<trkpt lat="46.21246" lon="7.33648"><ele>477.6</ele><time>2016-08-06T17:18:28Z</time></trkpt>
<trkpt lat="46.21249" lon="7.33645"><ele>477.4</ele><time>2016-08-06T17:18:29Z</time></trkpt>
<trkpt lat="46.21252" lon="7.33641"><ele>477.4</ele><time>2016-08-06T17:18:30Z</time></trkpt>
<trkpt lat="46.21256" lon="7.33636"><ele>477.2</ele><time>2016-08-06T17:18:31Z</time></trkpt>
<trkpt lat="46.2126" lon="7.33631"><ele>477.2</ele><time>2016-08-06T17:18:32Z</time></trkpt>
<trkpt lat="46.21269" lon="7.3363"><ele>477</ele><time>2016-08-06T17:18:34Z</time></trkpt>
<trkpt lat="46.21274" lon="7.33629"><ele>476.8</ele><time>2016-08-06T17:18:35Z</time></trkpt>
<trkpt lat="46.21279" lon="7.33629"><ele>476.8</ele><time>2016-08-06T17:18:36Z</time></trkpt>
<trkpt lat="46.21283" lon="7.33627"><ele>477</ele><time>2016-08-06T17:18:37Z</time></trkpt>
<trkpt lat="46.21288" lon="7.33624"><ele>477</ele><time>2016-08-06T17:18:38Z</time></trkpt>
<trkpt lat="46.21296" lon="7.33616"><ele>477.4</ele><time>2016-08-06T17:18:40Z</time></trkpt>
<trkpt lat="46.213" lon="7.33613"><ele>477.4</ele><time>2016-08-06T17:18:41Z</time></trkpt>
<trkpt lat="46.21305" lon="7.33609"><ele>477.4</ele><time>2016-08-06T17:18:42Z</time></trkpt>
<trkpt lat="46.21309" lon="7.33606"><ele>477.4</ele><time>2016-08-06T17:18:43Z</time></trkpt>
<trkpt lat="46.21317" lon="7.336"><ele>477.2</ele><time>2016-08-06T17:18:45Z</time></trkpt>
<trkpt lat="46.21325" lon="7.33594"><ele>477</ele><time>2016-08-06T17:18:47Z</time></trkpt>
<trkpt lat="46.21337" lon="7.33585"><ele>476.8</ele><time>2016-08-06T17:18:50Z</time></trkpt>
<trkpt lat="46.21345" lon="7.33579"><ele>476.8</ele><time>2016-08-06T17:18:52Z</time></trkpt>
<trkpt lat="46.21348" lon="7.33575"><ele>476.6</ele><time>2016-08-06T17:18:53Z</time></trkpt>
<trkpt lat="46.2135" lon="7.33569"><ele>476.6</ele><time>2016-08-06T17:18:54Z</time></trkpt>
<trkpt lat="46.21353" lon="7.33564"><ele>476.6</ele><time>2016-08-06T17:18:55Z</time></trkpt>
<trkpt lat="46.21363" lon="7.33551"><ele>476.4</ele><time>2016-08-06T17:18:58Z</time></trkpt>
<trkpt lat="46.21363" lon="7.33547"><ele>476.2</ele><time>2016-08-06T17:18:59Z</time></trkpt>
<trkpt lat="46.21363" lon="7.33542"><ele>476.2</ele><time>2016-08-06T17:19:00Z</time></trkpt>
<trkpt lat="46.21359" lon="7.33533"><ele>476</ele><time>2016-08-06T17:19:02Z</time></trkpt>
<trkpt lat="46.21355" lon="7.33523"><ele>476</ele><time>2016-08-06T17:19:04Z</time></trkpt>
<trkpt lat="46.21353" lon="7.33518"><ele>475.8</ele><time>2016-08-06T17:19:05Z</time></trkpt>
<trkpt lat="46.21349" lon="7.33509"><ele>475.8</ele><time>2016-08-06T17:19:07Z</time></trkpt>
<trkpt lat="46.21343" lon="7.33494"><ele>475.6</ele><time>2016-08-06T17:19:10Z</time></trkpt>
<trkpt lat="46.21341" lon="7.3349"><ele>475.4</ele><time>2016-08-06T17:19:11Z</time></trkpt>
<trkpt lat="46.21339" lon="7.33485"><ele>475.4</ele><time>2016-08-06T17:19:12Z</time></trkpt>
<trkpt lat="46.21336" lon="7.33473"><ele>475.2</ele><time>2016-08-06T17:19:14Z</time></trkpt>
<trkpt lat="46.21333" lon="7.33461"><ele>475.2</ele><time>2016-08-06T17:19:16Z</time></trkpt>
<trkpt lat="46.21331" lon="7.33455"><ele>475</ele><time>2016-08-06T17:19:17Z</time></trkpt>
<trkpt lat="46.21326" lon="7.33438"><ele>474.8</ele><time>2016-08-06T17:19:20Z</time></trkpt>
<trkpt lat="46.21325" lon="7.33433"><ele>474.8</ele><time>2016-08-06T17:19:21Z</time></trkpt>
<trkpt lat="46.21326" lon="7.33431"><ele>474.8</ele><time>2016-08-06T17:19:22Z</time></trkpt>
<trkpt lat="46.21326" lon="7.33428"><ele>474.6</ele><time>2016-08-06T17:19:23Z</time></trkpt>
<trkpt lat="46.21323" lon="7.33418"><ele>474.6</ele><time>2016-08-06T17:19:25Z</time></trkpt>
<trkpt lat="46.21317" lon="7.33402"><ele>474.4</ele><time>2016-08-06T17:19:28Z</time></trkpt>
<trkpt lat="46.21316" lon="7.33397"><ele>474.2</ele><time>2016-08-06T17:19:29Z</time></trkpt>
<trkpt lat="46.21319" lon="7.3338"><ele>474</ele><time>2016-08-06T17:19:32Z</time></trkpt>
<trkpt lat="46.21327" lon="7.33374"><ele>474</ele><time>2016-08-06T17:19:34Z</time></trkpt>
<trkpt lat="46.21331" lon="7.33371"><ele>473.8</ele><time>2016-08-06T17:19:35Z</time></trkpt>
<trkpt lat="46.21343" lon="7.33362"><ele>473.6</ele><time>2016-08-06T17:19:38Z</time></trkpt>
<trkpt lat="46.21347" lon="7.33359"><ele>473.6</ele><time>2016-08-06T17:19:39Z</time></trkpt>
<trkpt lat="46.21354" lon="7.33352"><ele>473.4</ele><time>2016-08-06T17:19:41Z</time></trkpt>
<trkpt lat="46.21357" lon="7.33348"><ele>473.4</ele><time>2016-08-06T17:19:42Z</time></trkpt>
<trkpt lat="46.21363" lon="7.3334"><ele>473.8</ele><time>2016-08-06T17:19:44Z</time></trkpt>
<trkpt lat="46.21368" lon="7.33332"><ele>474</ele><time>2016-08-06T17:19:46Z</time></trkpt>
<trkpt lat="46.21371" lon="7.33328"><ele>474.2</ele><time>2016-08-06T17:19:47Z</time></trkpt>
<trkpt lat="46.21374" lon="7.33324"><ele>474.2</ele><time>2016-08-06T17:19:48Z</time></trkpt>
<trkpt lat="46.21379" lon="7.33316"><ele>474.4</ele><time>2016-08-06T17:19:50Z</time></trkpt>
<trkpt lat="46.21382" lon="7.33312"><ele>474.4</ele><time>2016-08-06T17:19:51Z</time></trkpt>
<trkpt lat="46.21387" lon="7.33304"><ele>474.6</ele><time>2016-08-06T17:19:53Z</time></trkpt>
<trkpt lat="46.21392" lon="7.3329"><ele>474.8</ele><time>2016-08-06T17:19:56Z</time></trkpt>
<trkpt lat="46.21395" lon="7.33281"><ele>475</ele><time>2016-08-06T17:19:58Z</time></trkpt>
<trkpt lat="46.21396" lon="7.33277"><ele>475</ele><time>2016-08-06T17:19:59Z</time></trkpt>
<trkpt lat="46.21393" lon="7.33261"><ele>475.6</ele><time>2016-08-06T17:20:02Z</time></trkpt>
<trkpt lat="46.21391" lon="7.33256"><ele>475.8</ele><time>2016-08-06T17:20:03Z</time></trkpt>
<trkpt lat="46.21389" lon="7.33245"><ele>476.2</ele><time>2016-08-06T17:20:05Z</time></trkpt>
<trkpt lat="46.21387" lon="7.33234"><ele>476.6</ele><time>2016-08-06T17:20:07Z</time></trkpt>
<trkpt lat="46.21383" lon="7.33219"><ele>477</ele><time>2016-08-06T17:20:10Z</time></trkpt>
<trkpt lat="46.21382" lon="7.33213"><ele>477.2</ele><time>2016-08-06T17:20:11Z</time></trkpt>
<trkpt lat="46.2138" lon="7.33197"><ele>477</ele><time>2016-08-06T17:20:14Z</time></trkpt>
<trkpt lat="46.21379" lon="7.33186"><ele>477</ele><time>2016-08-06T17:20:16Z</time></trkpt>
<trkpt lat="46.21378" lon="7.33181"><ele>477</ele><time>2016-08-06T17:20:17Z</time></trkpt>
<trkpt lat="46.21377" lon="7.3317"><ele>476.8</ele><time>2016-08-06T17:20:19Z</time></trkpt>
<trkpt lat="46.21376" lon="7.33159"><ele>476.6</ele><time>2016-08-06T17:20:21Z</time></trkpt>
<trkpt lat="46.21377" lon="7.33154"><ele>476.6</ele><time>2016-08-06T17:20:22Z</time></trkpt>
<trkpt lat="46.21379" lon="7.33148"><ele>476.6</ele><time>2016-08-06T17:20:23Z</time></trkpt>
<trkpt lat="46.21383" lon="7.3313"><ele>476.2</ele><time>2016-08-06T17:20:26Z</time></trkpt>
<trkpt lat="46.21384" lon="7.33125"><ele>476.2</ele><time>2016-08-06T17:20:27Z</time></trkpt>
<trkpt lat="46.21387" lon="7.33113"><ele>476</ele><time>2016-08-06T17:20:29Z</time></trkpt>
<trkpt lat="46.21392" lon="7.33095"><ele>475.8</ele><time>2016-08-06T17:20:32Z</time></trkpt>
<trkpt lat="46.21395" lon="7.33081"><ele>475.6</ele><time>2016-08-06T17:20:34Z</time></trkpt>
<trkpt lat="46.21397" lon="7.33074"><ele>475.4</ele><time>2016-08-06T17:20:35Z</time></trkpt>
<trkpt lat="46.21398" lon="7.33067"><ele>475.4</ele><time>2016-08-06T17:20:36Z</time></trkpt>
<trkpt lat="46.21397" lon="7.33061"><ele>475.4</ele><time>2016-08-06T17:20:37Z</time></trkpt>
<trkpt lat="46.21395" lon="7.33054"><ele>475.2</ele><time>2016-08-06T17:20:38Z</time></trkpt>
<trkpt lat="46.21393" lon="7.3304"><ele>475.2</ele><time>2016-08-06T17:20:40Z</time></trkpt>
<trkpt lat="46.21394" lon="7.33027"><ele>475.4</ele><time>2016-08-06T17:20:42Z</time></trkpt>
<trkpt lat="46.21394" lon="7.3302"><ele>475.4</ele><time>2016-08-06T17:20:43Z</time></trkpt>
<trkpt lat="46.21395" lon="7.33014"><ele>475.4</ele><time>2016-08-06T17:20:44Z</time></trkpt>
<trkpt lat="46.21395" lon="7.33001"><ele>475.4</ele><time>2016-08-06T17:20:46Z</time></trkpt>
<trkpt lat="46.21396" lon="7.32988"><ele>475.4</ele><time>2016-08-06T17:20:48Z</time></trkpt>
<trkpt lat="46.21396" lon="7.32982"><ele>475.4</ele><time>2016-08-06T17:20:49Z</time></trkpt>
<trkpt lat="46.21397" lon="7.32969"><ele>475.4</ele><time>2016-08-06T17:20:51Z</time></trkpt>
<trkpt lat="46.21396" lon="7.32962"><ele>475.4</ele><time>2016-08-06T17:20:52Z</time></trkpt>
<trkpt lat="46.21395" lon="7.32949"><ele>475.6</ele><time>2016-08-06T17:20:54Z</time></trkpt>
<trkpt lat="46.21394" lon="7.32942"><ele>475.6</ele><time>2016-08-06T17:20:55Z</time></trkpt>
<trkpt lat="46.21392" lon="7.32922"><ele>475.6</ele><time>2016-08-06T17:20:58Z</time></trkpt>
<trkpt lat="46.21391" lon="7.32915"><ele>475.6</ele><time>2016-08-06T17:20:59Z</time></trkpt>
<trkpt lat="46.21389" lon="7.32902"><ele>475.6</ele><time>2016-08-06T17:21:01Z</time></trkpt>
<trkpt lat="46.21387" lon="7.32897"><ele>475.6</ele><time>2016-08-06T17:21:02Z</time></trkpt>
<trkpt lat="46.21382" lon="7.32885"><ele>475.6</ele><time>2016-08-06T17:21:04Z</time></trkpt>
<trkpt lat="46.2138" lon="7.3288"><ele>475.6</ele><time>2016-08-06T17:21:05Z</time></trkpt>
<trkpt lat="46.21372" lon="7.32863"><ele>475.8</ele><time>2016-08-06T17:21:08Z</time></trkpt>
<trkpt lat="46.21368" lon="7.32851"><ele>475.8</ele><time>2016-08-06T17:21:10Z</time></trkpt>
<trkpt lat="46.21366" lon="7.32845"><ele>475.8</ele><time>2016-08-06T17:21:11Z</time></trkpt>
<trkpt lat="46.21365" lon="7.32839"><ele>475.8</ele><time>2016-08-06T17:21:12Z</time></trkpt>
<trkpt lat="46.21363" lon="7.32832"><ele>475.8</ele><time>2016-08-06T17:21:13Z</time></trkpt>
<trkpt lat="46.2136" lon="7.32813"><ele>475.8</ele><time>2016-08-06T17:21:16Z</time></trkpt>
<trkpt lat="46.21361" lon="7.32806"><ele>475.8</ele><time>2016-08-06T17:21:17Z</time></trkpt>
<trkpt lat="46.21363" lon="7.32787"><ele>476</ele><time>2016-08-06T17:21:20Z</time></trkpt>
<trkpt lat="46.21364" lon="7.32781"><ele>476</ele><time>2016-08-06T17:21:21Z</time></trkpt>
<trkpt lat="46.21365" lon="7.32769"><ele>476</ele><time>2016-08-06T17:21:23Z</time></trkpt>
<trkpt lat="46.21366" lon="7.32756"><ele>476</ele><time>2016-08-06T17:21:25Z</time></trkpt>
<trkpt lat="46.21367" lon="7.3275"><ele>476</ele><time>2016-08-06T17:21:26Z</time></trkpt>
<trkpt lat="46.21366" lon="7.32739"><ele>476</ele><time>2016-08-06T17:21:28Z</time></trkpt>
<trkpt lat="46.21366" lon="7.32733"><ele>476</ele><time>2016-08-06T17:21:29Z</time></trkpt>
<trkpt lat="46.21365" lon="7.32716"><ele>476.2</ele><time>2016-08-06T17:21:32Z</time></trkpt>
<trkpt lat="46.21364" lon="7.32705"><ele>476.2</ele><time>2016-08-06T17:21:34Z</time></trkpt>
<trkpt lat="46.21363" lon="7.32701"><ele>476.2</ele><time>2016-08-06T17:21:35Z</time></trkpt>
<trkpt lat="46.21358" lon="7.32698"><ele>476.2</ele><time>2016-08-06T17:21:37Z</time></trkpt>
<trkpt lat="46.21353" lon="7.32695"><ele>476.2</ele><time>2016-08-06T17:21:39Z</time></trkpt>
<trkpt lat="46.21348" lon="7.32692"><ele>476.2</ele><time>2016-08-06T17:21:41Z</time></trkpt>
<trkpt lat="46.21341" lon="7.32687"><ele>476.4</ele><time>2016-08-06T17:21:44Z</time></trkpt>
<trkpt lat="46.2134" lon="7.32686"><ele>476.4</ele><time>2016-08-06T17:21:45Z</time></trkpt>
<trkpt lat="46.21344" lon="7.32681"><ele>476.4</ele><time>2016-08-06T17:21:47Z</time></trkpt>
<trkpt lat="46.21351" lon="7.32674"><ele>476.4</ele><time>2016-08-06T17:21:50Z</time></trkpt>
<trkpt lat="46.21356" lon="7.3267"><ele>476.4</ele><time>2016-08-06T17:21:52Z</time></trkpt>
<trkpt lat="46.21359" lon="7.32667"><ele>476.4</ele><time>2016-08-06T17:21:53Z</time></trkpt>
<trkpt lat="46.21366" lon="7.32661"><ele>476.4</ele><time>2016-08-06T17:21:56Z</time></trkpt>
<trkpt lat="46.2137" lon="7.32656"><ele>476.6</ele><time>2016-08-06T17:21:58Z</time></trkpt>
<trkpt lat="46.21373" lon="7.32654"><ele>476.6</ele><time>2016-08-06T17:21:59Z</time></trkpt>
<trkpt lat="46.21377" lon="7.32649"><ele>476.6</ele><time>2016-08-06T17:22:01Z</time></trkpt>
<trkpt lat="46.21377" lon="7.32644"><ele>476.6</ele><time>2016-08-06T17:22:02Z</time></trkpt>
<trkpt lat="46.21376" lon="7.32635"><ele>476.6</ele><time>2016-08-06T17:22:04Z</time></trkpt>
<trkpt lat="46.21375" lon="7.32626"><ele>476.6</ele><time>2016-08-06T17:22:06Z</time></trkpt>
<trkpt lat="46.21375" lon="7.32617"><ele>476.6</ele><time>2016-08-06T17:22:08Z</time></trkpt>
<trkpt lat="46.21374" lon="7.32612"><ele>476.8</ele><time>2016-08-06T17:22:09Z</time></trkpt>
<trkpt lat="46.21374" lon="7.32603"><ele>476.8</ele><time>2016-08-06T17:22:11Z</time></trkpt>
<trkpt lat="46.21373" lon="7.3259"><ele>476.8</ele><time>2016-08-06T17:22:14Z</time></trkpt>
<trkpt lat="46.21372" lon="7.3258"><ele>476.8</ele><time>2016-08-06T17:22:16Z</time></trkpt>
<trkpt lat="46.21372" lon="7.32575"><ele>476.8</ele><time>2016-08-06T17:22:17Z</time></trkpt>
<trkpt lat="46.2137" lon="7.3256"><ele>476.8</ele><time>2016-08-06T17:22:20Z</time></trkpt>
<trkpt lat="46.2137" lon="7.32555"><ele>476.8</ele><time>2016-08-06T17:22:21Z</time></trkpt>
<trkpt lat="46.21369" lon="7.32545"><ele>477</ele><time>2016-08-06T17:22:23Z</time></trkpt>
<trkpt lat="46.21368" lon="7.32535"><ele>477</ele><time>2016-08-06T17:22:25Z</time></trkpt>
<trkpt lat="46.21367" lon="7.32525"><ele>477</ele><time>2016-08-06T17:22:27Z</time></trkpt>
<trkpt lat="46.21366" lon="7.32515"><ele>477</ele><time>2016-08-06T17:22:29Z</time></trkpt>
<trkpt lat="46.21364" lon="7.32507"><ele>477</ele><time>2016-08-06T17:22:32Z</time></trkpt>
<trkpt lat="46.21363" lon="7.32504"><ele>477</ele><time>2016-08-06T17:22:33Z</time></trkpt>
<trkpt lat="46.21362" lon="7.32498"><ele>477.2</ele><time>2016-08-06T17:22:35Z</time></trkpt>
<trkpt lat="46.2136" lon="7.32489"><ele>477.2</ele><time>2016-08-06T17:22:38Z</time></trkpt>
<trkpt lat="46.21358" lon="7.32483"><ele>477.2</ele><time>2016-08-06T17:22:40Z</time></trkpt>
<trkpt lat="46.21357" lon="7.3248"><ele>477.2</ele><time>2016-08-06T17:22:41Z</time></trkpt>
<trkpt lat="46.21356" lon="7.32478"><ele>477.2</ele><time>2016-08-06T17:22:42Z</time></trkpt>
<trkpt lat="46.21354" lon="7.32478"><ele>477.2</ele><time>2016-08-06T17:22:43Z</time></trkpt>
<trkpt lat="46.21349" lon="7.32479"><ele>477.2</ele><time>2016-08-06T17:22:46Z</time></trkpt>
<trkpt lat="46.21347" lon="7.3248"><ele>477.2</ele><time>2016-08-06T17:22:47Z</time></trkpt>
<trkpt lat="46.21345" lon="7.32479"><ele>477.4</ele><time>2016-08-06T17:22:48Z</time></trkpt>
<trkpt lat="46.21342" lon="7.32474"><ele>477.4</ele><time>2016-08-06T17:22:50Z</time></trkpt>
<trkpt lat="46.21339" lon="7.32469"><ele>477.4</ele><time>2016-08-06T17:22:52Z</time></trkpt>
<trkpt lat="46.21338" lon="7.32466"><ele>477.4</ele><time>2016-08-06T17:22:53Z</time></trkpt>
<trkpt lat="46.21335" lon="7.3246"><ele>477.4</ele><time>2016-08-06T17:22:55Z</time></trkpt>
<trkpt lat="46.21333" lon="7.32448"><ele>477.4</ele><time>2016-08-06T17:22:58Z</time></trkpt>
<trkpt lat="46.21332" lon="7.32444"><ele>477.4</ele><time>2016-08-06T17:22:59Z</time></trkpt>
<trkpt lat="46.2133" lon="7.32431"><ele>477.6</ele><time>2016-08-06T17:23:02Z</time></trkpt>
<trkpt lat="46.21328" lon="7.32422"><ele>477.6</ele><time>2016-08-06T17:23:04Z</time></trkpt>
<trkpt lat="46.21327" lon="7.32418"><ele>477.6</ele><time>2016-08-06T17:23:05Z</time></trkpt>
<trkpt lat="46.21325" lon="7.32405"><ele>477.6</ele><time>2016-08-06T17:23:08Z</time></trkpt>
<trkpt lat="46.21323" lon="7.32397"><ele>477.6</ele><time>2016-08-06T17:23:10Z</time></trkpt>
<trkpt lat="46.21322" lon="7.32392"><ele>477.6</ele><time>2016-08-06T17:23:11Z</time></trkpt>
<trkpt lat="46.21318" lon="7.32376"><ele>477.8</ele><time>2016-08-06T17:23:14Z</time></trkpt>
<trkpt lat="46.21316" lon="7.32371"><ele>477.8</ele><time>2016-08-06T17:23:15Z</time></trkpt>
<trkpt lat="46.21312" lon="7.32354"><ele>477.8</ele><time>2016-08-06T17:23:18Z</time></trkpt>
<trkpt lat="46.21309" lon="7.32343"><ele>477.8</ele><time>2016-08-06T17:23:20Z</time></trkpt>
<trkpt lat="46.21308" lon="7.32338"><ele>477.8</ele><time>2016-08-06T17:23:21Z</time></trkpt>
<trkpt lat="46.21305" lon="7.32327"><ele>477.8</ele><time>2016-08-06T17:23:23Z</time></trkpt>
<trkpt lat="46.21303" lon="7.32315"><ele>477.8</ele><time>2016-08-06T17:23:25Z</time></trkpt>
<trkpt lat="46.21301" lon="7.32304"><ele>478</ele><time>2016-08-06T17:23:27Z</time></trkpt>
<trkpt lat="46.21299" lon="7.32292"><ele>478</ele><time>2016-08-06T17:23:29Z</time></trkpt>
<trkpt lat="46.21296" lon="7.32275"><ele>478</ele><time>2016-08-06T17:23:32Z</time></trkpt>
<trkpt lat="46.21295" lon="7.32269"><ele>478</ele><time>2016-08-06T17:23:33Z</time></trkpt>
<trkpt lat="46.21294" lon="7.32263"><ele>478</ele><time>2016-08-06T17:23:34Z</time></trkpt>
<trkpt lat="46.21292" lon="7.32258"><ele>478</ele><time>2016-08-06T17:23:35Z</time></trkpt>
<trkpt lat="46.21288" lon="7.32248"><ele>478</ele><time>2016-08-06T17:23:37Z</time></trkpt>
<trkpt lat="46.21285" lon="7.32244"><ele>478.2</ele><time>2016-08-06T17:23:38Z</time></trkpt>
<trkpt lat="46.2128" lon="7.32237"><ele>478.2</ele><time>2016-08-06T17:23:40Z</time></trkpt>
<trkpt lat="46.21274" lon="7.3223"><ele>478.2</ele><time>2016-08-06T17:23:42Z</time></trkpt>
<trkpt lat="46.21269" lon="7.32223"><ele>478.2</ele><time>2016-08-06T17:23:44Z</time></trkpt>
<trkpt lat="46.21263" lon="7.32216"><ele>478.2</ele><time>2016-08-06T17:23:46Z</time></trkpt>
<trkpt lat="46.21261" lon="7.32212"><ele>478.2</ele><time>2016-08-06T17:23:47Z</time></trkpt>
<trkpt lat="46.21252" lon="7.32202"><ele>478.2</ele><time>2016-08-06T17:23:50Z</time></trkpt>
<trkpt lat="46.21246" lon="7.32199"><ele>478.4</ele><time>2016-08-06T17:23:52Z</time></trkpt>
<trkpt lat="46.21242" lon="7.32197"><ele>478.4</ele><time>2016-08-06T17:23:53Z</time></trkpt>
<trkpt lat="46.21233" lon="7.32191"><ele>478.4</ele><time>2016-08-06T17:23:56Z</time></trkpt>
<trkpt lat="46.2123" lon="7.32189"><ele>478.4</ele><time>2016-08-06T17:23:57Z</time></trkpt>
<trkpt lat="46.21223" lon="7.32186"><ele>478.4</ele><time>2016-08-06T17:23:59Z</time></trkpt>
<trkpt lat="46.21213" lon="7.3218"><ele>478.4</ele><time>2016-08-06T17:24:02Z</time></trkpt>
<trkpt lat="46.2121" lon="7.32179"><ele>478.4</ele><time>2016-08-06T17:24:03Z</time></trkpt>
<trkpt lat="46.21207" lon="7.32177"><ele>478.6</ele><time>2016-08-06T17:24:04Z</time></trkpt>
<trkpt lat="46.21203" lon="7.32176"><ele>478.6</ele><time>2016-08-06T17:24:05Z</time></trkpt>
<trkpt lat="46.21196" lon="7.32174"><ele>478.6</ele><time>2016-08-06T17:24:07Z</time></trkpt>
<trkpt lat="46.21189" lon="7.32172"><ele>478.6</ele><time>2016-08-06T17:24:09Z</time></trkpt>
<trkpt lat="46.21182" lon="7.32169"><ele>478.6</ele><time>2016-08-06T17:24:11Z</time></trkpt>
<trkpt lat="46.21172" lon="7.32166"><ele>478.6</ele><time>2016-08-06T17:24:14Z</time></trkpt>
<trkpt lat="46.21165" lon="7.32164"><ele>478.6</ele><time>2016-08-06T17:24:16Z</time></trkpt>
<trkpt lat="46.21161" lon="7.32164"><ele>478.8</ele><time>2016-08-06T17:24:17Z</time></trkpt>
<trkpt lat="46.2115" lon="7.32164"><ele>478.8</ele><time>2016-08-06T17:24:20Z</time></trkpt>
<trkpt lat="46.21143" lon="7.32163"><ele>478.8</ele><time>2016-08-06T17:24:22Z</time></trkpt>
<trkpt lat="46.21139" lon="7.32164"><ele>478.8</ele><time>2016-08-06T17:24:23Z</time></trkpt>
<trkpt lat="46.21133" lon="7.32171"><ele>478.8</ele><time>2016-08-06T17:24:25Z</time></trkpt>
<trkpt lat="46.21124" lon="7.32182"><ele>478.8</ele><time>2016-08-06T17:24:28Z</time></trkpt>
<trkpt lat="46.21122" lon="7.32186"><ele>479</ele><time>2016-08-06T17:24:29Z</time></trkpt>
<trkpt lat="46.21113" lon="7.32196"><ele>479</ele><time>2016-08-06T17:24:32Z</time></trkpt>
<trkpt lat="46.2111" lon="7.322"><ele>479</ele><time>2016-08-06T17:24:33Z</time></trkpt>
<trkpt lat="46.21104" lon="7.32206"><ele>479</ele><time>2016-08-06T17:24:35Z</time></trkpt>
<trkpt lat="46.21098" lon="7.32209"><ele>479</ele><time>2016-08-06T17:24:38Z</time></trkpt>
<trkpt lat="46.21096" lon="7.32209"><ele>479</ele><time>2016-08-06T17:24:39Z</time></trkpt>
<trkpt lat="46.21094" lon="7.32201"><ele>479</ele><time>2016-08-06T17:24:41Z</time></trkpt>
<trkpt lat="46.21093" lon="7.32196"><ele>479.2</ele><time>2016-08-06T17:24:42Z</time></trkpt>
<trkpt lat="46.21093" lon="7.32184"><ele>479.2</ele><time>2016-08-06T17:24:44Z</time></trkpt>
<trkpt lat="46.21094" lon="7.32172"><ele>479.2</ele><time>2016-08-06T17:24:46Z</time></trkpt>
<trkpt lat="46.21094" lon="7.32166"><ele>479.2</ele><time>2016-08-06T17:24:47Z</time></trkpt>
<trkpt lat="46.21095" lon="7.32148"><ele>479.2</ele><time>2016-08-06T17:24:50Z</time></trkpt>
<trkpt lat="46.21095" lon="7.32136"><ele>479.2</ele><time>2016-08-06T17:24:52Z</time></trkpt>
<trkpt lat="46.21096" lon="7.3213"><ele>479.2</ele><time>2016-08-06T17:24:53Z</time></trkpt>
<trkpt lat="46.21098" lon="7.32113"><ele>479.4</ele><time>2016-08-06T17:24:56Z</time></trkpt>
<trkpt lat="46.21104" lon="7.32103"><ele>479.4</ele><time>2016-08-06T17:24:58Z</time></trkpt>
<trkpt lat="46.21106" lon="7.32098"><ele>479.4</ele><time>2016-08-06T17:24:59Z</time></trkpt>
<trkpt lat="46.21108" lon="7.32093"><ele>479.4</ele><time>2016-08-06T17:25:00Z</time></trkpt>
<trkpt lat="46.21108" lon="7.32084"><ele>479.4</ele><time>2016-08-06T17:25:02Z</time></trkpt>
<trkpt lat="46.21104" lon="7.32077"><ele>479.4</ele><time>2016-08-06T17:25:04Z</time></trkpt>
<trkpt lat="46.21102" lon="7.32074"><ele>479.4</ele><time>2016-08-06T17:25:05Z</time></trkpt>
<trkpt lat="46.21095" lon="7.32064"><ele>479.6</ele><time>2016-08-06T17:25:08Z</time></trkpt>
<trkpt lat="46.21091" lon="7.32058"><ele>479.6</ele><time>2016-08-06T17:25:10Z</time></trkpt>
<trkpt lat="46.21089" lon="7.32055"><ele>479.6</ele><time>2016-08-06T17:25:11Z</time></trkpt>
<trkpt lat="46.21087" lon="7.32051"><ele>479.6</ele><time>2016-08-06T17:25:12Z</time></trkpt>
<trkpt lat="46.21086" lon="7.32038"><ele>479.6</ele><time>2016-08-06T17:25:14Z</time></trkpt>
<trkpt lat="46.21085" lon="7.32032"><ele>479.6</ele><time>2016-08-06T17:25:15Z</time></trkpt>
<trkpt lat="46.21084" lon="7.32013"><ele>479.6</ele><time>2016-08-06T17:25:18Z</time></trkpt>
<trkpt lat="46.21084" lon="7.32007"><ele>479.6</ele><time>2016-08-06T17:25:19Z</time></trkpt>
<trkpt lat="46.21083" lon="7.31995"><ele>479.6</ele><time>2016-08-06T17:25:21Z</time></trkpt>
<trkpt lat="46.21082" lon="7.31982"><ele>479.6</ele><time>2016-08-06T17:25:23Z</time></trkpt>
<trkpt lat="46.21082" lon="7.31967"><ele>479.6</ele><time>2016-08-06T17:25:25Z</time></trkpt>
<trkpt lat="46.2108" lon="7.3196"><ele>479.6</ele><time>2016-08-06T17:25:26Z</time></trkpt>
<trkpt lat="46.21074" lon="7.31952"><ele>479.6</ele><time>2016-08-06T17:25:27Z</time></trkpt>
<trkpt lat="46.21073" lon="7.31936"><ele>479.6</ele><time>2016-08-06T17:25:29Z</time></trkpt>
<trkpt lat="46.21073" lon="7.31911"><ele>479.6</ele><time>2016-08-06T17:25:32Z</time></trkpt>
<trkpt lat="46.21072" lon="7.31903"><ele>479.8</ele><time>2016-08-06T17:25:33Z</time></trkpt>
<trkpt lat="46.21072" lon="7.31887"><ele>479.8</ele><time>2016-08-06T17:25:35Z</time></trkpt>
<trkpt lat="46.21071" lon="7.3187"><ele>479.8</ele><time>2016-08-06T17:25:37Z</time></trkpt>
<trkpt lat="46.2107" lon="7.31853"><ele>479.8</ele><time>2016-08-06T17:25:39Z</time></trkpt>
<trkpt lat="46.2107" lon="7.31836"><ele>479.8</ele><time>2016-08-06T17:25:41Z</time></trkpt>
<trkpt lat="46.21069" lon="7.3182"><ele>479.8</ele><time>2016-08-06T17:25:43Z</time></trkpt>
<trkpt lat="46.2107" lon="7.31812"><ele>479.8</ele><time>2016-08-06T17:25:44Z</time></trkpt>
<trkpt lat="46.21072" lon="7.31803"><ele>479.8</ele><time>2016-08-06T17:25:45Z</time></trkpt>
<trkpt lat="46.21072" lon="7.31786"><ele>479.8</ele><time>2016-08-06T17:25:47Z</time></trkpt>
<trkpt lat="46.21071" lon="7.31761"><ele>479.8</ele><time>2016-08-06T17:25:50Z</time></trkpt>
<trkpt lat="46.2107" lon="7.31753"><ele>479.8</ele><time>2016-08-06T17:25:51Z</time></trkpt>
<trkpt lat="46.21067" lon="7.31744"><ele>479.8</ele><time>2016-08-06T17:25:52Z</time></trkpt>
<trkpt lat="46.21067" lon="7.31727"><ele>479.8</ele><time>2016-08-06T17:25:54Z</time></trkpt>
<trkpt lat="46.21067" lon="7.31718"><ele>479.8</ele><time>2016-08-06T17:25:55Z</time></trkpt>
<trkpt lat="46.21066" lon="7.31692"><ele>479.8</ele><time>2016-08-06T17:25:58Z</time></trkpt>
<trkpt lat="46.21066" lon="7.31683"><ele>479.8</ele><time>2016-08-06T17:25:59Z</time></trkpt>
<trkpt lat="46.21066" lon="7.31674"><ele>479.8</ele><time>2016-08-06T17:26:00Z</time></trkpt>
<trkpt lat="46.21066" lon="7.31658"><ele>479.8</ele><time>2016-08-06T17:26:02Z</time></trkpt>
<trkpt lat="46.21066" lon="7.31641"><ele>479.8</ele><time>2016-08-06T17:26:04Z</time></trkpt>
<trkpt lat="46.21066" lon="7.31633"><ele>479.8</ele><time>2016-08-06T17:26:05Z</time></trkpt>
<trkpt lat="46.21065" lon="7.31607"><ele>479.8</ele><time>2016-08-06T17:26:08Z</time></trkpt>
<trkpt lat="46.21065" lon="7.31589"><ele>479.8</ele><time>2016-08-06T17:26:10Z</time></trkpt>
<trkpt lat="46.21065" lon="7.3158"><ele>479.8</ele><time>2016-08-06T17:26:11Z</time></trkpt>
<trkpt lat="46.21064" lon="7.31553"><ele>479.8</ele><time>2016-08-06T17:26:14Z</time></trkpt>
<trkpt lat="46.21064" lon="7.31536"><ele>479.8</ele><time>2016-08-06T17:26:16Z</time></trkpt>
<trkpt lat="46.21064" lon="7.31518"><ele>479.8</ele><time>2016-08-06T17:26:18Z</time></trkpt>
<trkpt lat="46.21063" lon="7.315"><ele>479.8</ele><time>2016-08-06T17:26:20Z</time></trkpt>
<trkpt lat="46.21063" lon="7.31483"><ele>479.8</ele><time>2016-08-06T17:26:22Z</time></trkpt>
<trkpt lat="46.21062" lon="7.31466"><ele>479.8</ele><time>2016-08-06T17:26:24Z</time></trkpt>
<trkpt lat="46.21062" lon="7.31455"><ele>479.8</ele><time>2016-08-06T17:26:26Z</time></trkpt>
<trkpt lat="46.21061" lon="7.31444"><ele>479.8</ele><time>2016-08-06T17:26:28Z</time></trkpt>
<trkpt lat="46.21061" lon="7.31439"><ele>479.8</ele><time>2016-08-06T17:26:29Z</time></trkpt>
<trkpt lat="46.2106" lon="7.31422"><ele>479.8</ele><time>2016-08-06T17:26:32Z</time></trkpt>
<trkpt lat="46.2106" lon="7.31411"><ele>479.8</ele><time>2016-08-06T17:26:34Z</time></trkpt>
<trkpt lat="46.2106" lon="7.31406"><ele>479.8</ele><time>2016-08-06T17:26:35Z</time></trkpt>
<trkpt lat="46.21059" lon="7.314"><ele>479.8</ele><time>2016-08-06T17:26:36Z</time></trkpt>
<trkpt lat="46.21058" lon="7.31387"><ele>479.8</ele><time>2016-08-06T17:26:38Z</time></trkpt>
<trkpt lat="46.21056" lon="7.31374"><ele>479.8</ele><time>2016-08-06T17:26:40Z</time></trkpt>
<trkpt lat="46.21056" lon="7.31367"><ele>479.8</ele><time>2016-08-06T17:26:41Z</time></trkpt>
<trkpt lat="46.21053" lon="7.31348"><ele>479.8</ele><time>2016-08-06T17:26:44Z</time></trkpt>
<trkpt lat="46.21052" lon="7.31334"><ele>479.8</ele><time>2016-08-06T17:26:46Z</time></trkpt>
<trkpt lat="46.21051" lon="7.31325"><ele>479.8</ele><time>2016-08-06T17:26:47Z</time></trkpt>
<trkpt lat="46.21049" lon="7.31306"><ele>479.8</ele><time>2016-08-06T17:26:49Z</time></trkpt>
<trkpt lat="46.21046" lon="7.31279"><ele>479.8</ele><time>2016-08-06T17:26:52Z</time></trkpt>
<trkpt lat="46.21045" lon="7.3127"><ele>479.8</ele><time>2016-08-06T17:26:53Z</time></trkpt>
<trkpt lat="46.21044" lon="7.31261"><ele>479.8</ele><time>2016-08-06T17:26:54Z</time></trkpt>
<trkpt lat="46.2104" lon="7.31242"><ele>479.8</ele><time>2016-08-06T17:26:56Z</time></trkpt>
<trkpt lat="46.21037" lon="7.31232"><ele>479.8</ele><time>2016-08-06T17:26:57Z</time></trkpt>
<trkpt lat="46.21033" lon="7.31213"><ele>479.8</ele><time>2016-08-06T17:26:59Z</time></trkpt>
<trkpt lat="46.21028" lon="7.31194"><ele>479.8</ele><time>2016-08-06T17:27:01Z</time></trkpt>
<trkpt lat="46.21025" lon="7.31185"><ele>479.8</ele><time>2016-08-06T17:27:02Z</time></trkpt>
<trkpt lat="46.21022" lon="7.31176"><ele>479.8</ele><time>2016-08-06T17:27:03Z</time></trkpt>
<trkpt lat="46.21015" lon="7.31157"><ele>479.8</ele><time>2016-08-06T17:27:05Z</time></trkpt>
<trkpt lat="46.21005" lon="7.31129"><ele>479.8</ele><time>2016-08-06T17:27:08Z</time></trkpt>
<trkpt lat="46.21002" lon="7.3112"><ele>479.8</ele><time>2016-08-06T17:27:09Z</time></trkpt>
<trkpt lat="46.20992" lon="7.31094"><ele>479.8</ele><time>2016-08-06T17:27:12Z</time></trkpt>
<trkpt lat="46.20988" lon="7.31085"><ele>479.8</ele><time>2016-08-06T17:27:13Z</time></trkpt>
<trkpt lat="46.20981" lon="7.31067"><ele>479.8</ele><time>2016-08-06T17:27:15Z</time></trkpt>
<trkpt lat="46.20977" lon="7.31059"><ele>479.8</ele><time>2016-08-06T17:27:16Z</time></trkpt>
<trkpt lat="46.20974" lon="7.3105"><ele>479.8</ele><time>2016-08-06T17:27:17Z</time></trkpt>
<trkpt lat="46.20966" lon="7.31034"><ele>479.8</ele><time>2016-08-06T17:27:19Z</time></trkpt>
<trkpt lat="46.20959" lon="7.31017"><ele>479.8</ele><time>2016-08-06T17:27:21Z</time></trkpt>
<trkpt lat="46.20955" lon="7.31009"><ele>479.8</ele><time>2016-08-06T17:27:22Z</time></trkpt>
<trkpt lat="46.20947" lon="7.30994"><ele>479.8</ele><time>2016-08-06T17:27:24Z</time></trkpt>
<trkpt lat="46.20944" lon="7.30986"><ele>479.8</ele><time>2016-08-06T17:27:25Z</time></trkpt>
<trkpt lat="46.20933" lon="7.30964"><ele>479.8</ele><time>2016-08-06T17:27:28Z</time></trkpt>
<trkpt lat="46.20929" lon="7.30957"><ele>479.8</ele><time>2016-08-06T17:27:29Z</time></trkpt>
<trkpt lat="46.20926" lon="7.3095"><ele>479.8</ele><time>2016-08-06T17:27:30Z</time></trkpt>
<trkpt lat="46.20923" lon="7.30944"><ele>479.8</ele><time>2016-08-06T17:27:31Z</time></trkpt>
<trkpt lat="46.20918" lon="7.30932"><ele>479.8</ele><time>2016-08-06T17:27:33Z</time></trkpt>
<trkpt lat="46.20912" lon="7.3092"><ele>479.8</ele><time>2016-08-06T17:27:35Z</time></trkpt>
<trkpt lat="46.20907" lon="7.30909"><ele>479.8</ele><time>2016-08-06T17:27:37Z</time></trkpt>
<trkpt lat="46.20905" lon="7.30902"><ele>479.8</ele><time>2016-08-06T17:27:38Z</time></trkpt>
<trkpt lat="46.20906" lon="7.30894"><ele>479.8</ele><time>2016-08-06T17:27:39Z</time></trkpt>
<trkpt lat="46.20906" lon="7.30879"><ele>479.8</ele><time>2016-08-06T17:27:41Z</time></trkpt>
<trkpt lat="46.20896" lon="7.30871"><ele>479.8</ele><time>2016-08-06T17:27:43Z</time></trkpt>
<trkpt lat="46.20887" lon="7.30862"><ele>479.8</ele><time>2016-08-06T17:27:45Z</time></trkpt>
<trkpt lat="46.20878" lon="7.30854"><ele>479.8</ele><time>2016-08-06T17:27:47Z</time></trkpt>
<trkpt lat="46.20869" lon="7.30846"><ele>479.8</ele><time>2016-08-06T17:27:49Z</time></trkpt>
<trkpt lat="46.20864" lon="7.30841"><ele>479.8</ele><time>2016-08-06T17:27:50Z</time></trkpt>
<trkpt lat="46.20859" lon="7.30835"><ele>479.8</ele><time>2016-08-06T17:27:51Z</time></trkpt>
<trkpt lat="46.2085" lon="7.30823"><ele>479.8</ele><time>2016-08-06T17:27:53Z</time></trkpt>
<trkpt lat="46.20841" lon="7.30811"><ele>479.8</ele><time>2016-08-06T17:27:55Z</time></trkpt>
<trkpt lat="46.20832" lon="7.30799"><ele>479.8</ele><time>2016-08-06T17:27:57Z</time></trkpt>
<trkpt lat="46.20828" lon="7.30793"><ele>479.8</ele><time>2016-08-06T17:27:58Z</time></trkpt>
<trkpt lat="46.20823" lon="7.30786"><ele>479.8</ele><time>2016-08-06T17:27:59Z</time></trkpt>
<trkpt lat="46.20815" lon="7.30773"><ele>479.8</ele><time>2016-08-06T17:28:01Z</time></trkpt>
<trkpt lat="46.20806" lon="7.30761"><ele>479.8</ele><time>2016-08-06T17:28:03Z</time></trkpt>
<trkpt lat="46.20798" lon="7.30748"><ele>479.8</ele><time>2016-08-06T17:28:05Z</time></trkpt>
<trkpt lat="46.20793" lon="7.30741"><ele>479.8</ele><time>2016-08-06T17:28:06Z</time></trkpt>
<trkpt lat="46.2079" lon="7.30736"><ele>479.8</ele><time>2016-08-06T17:28:07Z</time></trkpt>
<trkpt lat="46.20782" lon="7.30724"><ele>479.8</ele><time>2016-08-06T17:28:09Z</time></trkpt>
<trkpt lat="46.20771" lon="7.30707"><ele>479.8</ele><time>2016-08-06T17:28:12Z</time></trkpt>
<trkpt lat="46.20767" lon="7.30701"><ele>479.8</ele><time>2016-08-06T17:28:13Z</time></trkpt>
<trkpt lat="46.2076" lon="7.30689"><ele>479.8</ele><time>2016-08-06T17:28:15Z</time></trkpt>
<trkpt lat="46.20751" lon="7.30676"><ele>479.8</ele><time>2016-08-06T17:28:17Z</time></trkpt>
<trkpt lat="46.20744" lon="7.30661"><ele>479.8</ele><time>2016-08-06T17:28:19Z</time></trkpt>
<trkpt lat="46.20741" lon="7.30651"><ele>479.8</ele><time>2016-08-06T17:28:20Z</time></trkpt>
<trkpt lat="46.20732" lon="7.30636"><ele>479.8</ele><time>2016-08-06T17:28:22Z</time></trkpt>
<trkpt lat="46.20723" lon="7.30621"><ele>479.8</ele><time>2016-08-06T17:28:24Z</time></trkpt>
<trkpt lat="46.20713" lon="7.30607"><ele>479.8</ele><time>2016-08-06T17:28:26Z</time></trkpt>
<trkpt lat="46.20709" lon="7.30599"><ele>479.8</ele><time>2016-08-06T17:28:27Z</time></trkpt>
<trkpt lat="46.20704" lon="7.30592"><ele>479.8</ele><time>2016-08-06T17:28:28Z</time></trkpt>
<trkpt lat="46.20698" lon="7.30586"><ele>479.8</ele><time>2016-08-06T17:28:29Z</time></trkpt>
<trkpt lat="46.2069" lon="7.30582"><ele>479.8</ele><time>2016-08-06T17:28:30Z</time></trkpt>
<trkpt lat="46.20681" lon="7.30568"><ele>479.8</ele><time>2016-08-06T17:28:32Z</time></trkpt>
<trkpt lat="46.20676" lon="7.3056"><ele>479.8</ele><time>2016-08-06T17:28:33Z</time></trkpt>
<trkpt lat="46.20662" lon="7.30539"><ele>479.8</ele><time>2016-08-06T17:28:36Z</time></trkpt>
<trkpt lat="46.20658" lon="7.30532"><ele>479.8</ele><time>2016-08-06T17:28:37Z</time></trkpt>
<trkpt lat="46.20649" lon="7.30518"><ele>479.8</ele><time>2016-08-06T17:28:39Z</time></trkpt>
<trkpt lat="46.2064" lon="7.30504"><ele>479.6</ele><time>2016-08-06T17:28:41Z</time></trkpt>
<trkpt lat="46.20631" lon="7.30489"><ele>479.6</ele><time>2016-08-06T17:28:43Z</time></trkpt>
<trkpt lat="46.20626" lon="7.30482"><ele>479.6</ele><time>2016-08-06T17:28:44Z</time></trkpt>
<trkpt lat="46.20617" lon="7.30468"><ele>479.4</ele><time>2016-08-06T17:28:46Z</time></trkpt>
<trkpt lat="46.20613" lon="7.30461"><ele>479.4</ele><time>2016-08-06T17:28:47Z</time></trkpt>
<trkpt lat="46.20604" lon="7.30447"><ele>479.2</ele><time>2016-08-06T17:28:49Z</time></trkpt>
<trkpt lat="46.20595" lon="7.30433"><ele>479.2</ele><time>2016-08-06T17:28:51Z</time></trkpt>
<trkpt lat="46.20586" lon="7.30418"><ele>479</ele><time>2016-08-06T17:28:53Z</time></trkpt>
<trkpt lat="46.20572" lon="7.30397"><ele>478.8</ele><time>2016-08-06T17:28:56Z</time></trkpt>
<trkpt lat="46.20563" lon="7.30382"><ele>478.6</ele><time>2016-08-06T17:28:58Z</time></trkpt>
<trkpt lat="46.20559" lon="7.30375"><ele>478.6</ele><time>2016-08-06T17:28:59Z</time></trkpt>
<trkpt lat="46.20546" lon="7.30353"><ele>478.4</ele><time>2016-08-06T17:29:02Z</time></trkpt>
<trkpt lat="46.20537" lon="7.30339"><ele>478.4</ele><time>2016-08-06T17:29:04Z</time></trkpt>
<trkpt lat="46.20533" lon="7.30332"><ele>478.2</ele><time>2016-08-06T17:29:05Z</time></trkpt>
<trkpt lat="46.20524" lon="7.30317"><ele>478.2</ele><time>2016-08-06T17:29:07Z</time></trkpt>
<trkpt lat="46.20512" lon="7.30296"><ele>478</ele><time>2016-08-06T17:29:10Z</time></trkpt>
<trkpt lat="46.20508" lon="7.30289"><ele>478</ele><time>2016-08-06T17:29:11Z</time></trkpt>
<trkpt lat="46.20503" lon="7.30281"><ele>477.8</ele><time>2016-08-06T17:29:12Z</time></trkpt>
<trkpt lat="46.20499" lon="7.30274"><ele>477.8</ele><time>2016-08-06T17:29:13Z</time></trkpt>
<trkpt lat="46.20487" lon="7.30251"><ele>477.6</ele><time>2016-08-06T17:29:16Z</time></trkpt>
<trkpt lat="46.20479" lon="7.30236"><ele>477.6</ele><time>2016-08-06T17:29:18Z</time></trkpt>
<trkpt lat="46.20475" lon="7.30228"><ele>477.4</ele><time>2016-08-06T17:29:19Z</time></trkpt>
<trkpt lat="46.20471" lon="7.3022"><ele>477.4</ele><time>2016-08-06T17:29:20Z</time></trkpt>
<trkpt lat="46.20464" lon="7.30204"><ele>477.2</ele><time>2016-08-06T17:29:22Z</time></trkpt>
<trkpt lat="46.20456" lon="7.30188"><ele>477.2</ele><time>2016-08-06T17:29:24Z</time></trkpt>
<trkpt lat="46.20448" lon="7.30172"><ele>477</ele><time>2016-08-06T17:29:26Z</time></trkpt>
<trkpt lat="46.20441" lon="7.30156"><ele>477</ele><time>2016-08-06T17:29:28Z</time></trkpt>
<trkpt lat="46.20438" lon="7.30149"><ele>476.8</ele><time>2016-08-06T17:29:29Z</time></trkpt>
<trkpt lat="46.20427" lon="7.30126"><ele>476.6</ele><time>2016-08-06T17:29:32Z</time></trkpt>
<trkpt lat="46.20423" lon="7.30118"><ele>476.6</ele><time>2016-08-06T17:29:33Z</time></trkpt>
<trkpt lat="46.20419" lon="7.3011"><ele>476.6</ele><time>2016-08-06T17:29:34Z</time></trkpt>
<trkpt lat="46.20415" lon="7.30101"><ele>476.6</ele><time>2016-08-06T17:29:35Z</time></trkpt>
<trkpt lat="46.20408" lon="7.30085"><ele>476.4</ele><time>2016-08-06T17:29:37Z</time></trkpt>
<trkpt lat="46.20396" lon="7.3006"><ele>476.4</ele><time>2016-08-06T17:29:40Z</time></trkpt>
<trkpt lat="46.20392" lon="7.30051"><ele>476.4</ele><time>2016-08-06T17:29:41Z</time></trkpt>
<trkpt lat="46.2038" lon="7.30026"><ele>476.4</ele><time>2016-08-06T17:29:44Z</time></trkpt>
<trkpt lat="46.20373" lon="7.30009"><ele>476.4</ele><time>2016-08-06T17:29:46Z</time></trkpt>
<trkpt lat="46.20369" lon="7.3"><ele>476.4</ele><time>2016-08-06T17:29:47Z</time></trkpt>
<trkpt lat="46.20365" lon="7.29992"><ele>476.4</ele><time>2016-08-06T17:29:48Z</time></trkpt>
<trkpt lat="46.20357" lon="7.29975"><ele>476.4</ele><time>2016-08-06T17:29:50Z</time></trkpt>
<trkpt lat="46.2035" lon="7.29958"><ele>476.2</ele><time>2016-08-06T17:29:52Z</time></trkpt>
<trkpt lat="46.20346" lon="7.29949"><ele>476.2</ele><time>2016-08-06T17:29:53Z</time></trkpt>
<trkpt lat="46.20342" lon="7.29941"><ele>476.2</ele><time>2016-08-06T17:29:54Z</time></trkpt>
<trkpt lat="46.20335" lon="7.29924"><ele>476.2</ele><time>2016-08-06T17:29:56Z</time></trkpt>
<trkpt lat="46.20328" lon="7.29908"><ele>476.2</ele><time>2016-08-06T17:29:58Z</time></trkpt>
<trkpt lat="46.20324" lon="7.299"><ele>476.2</ele><time>2016-08-06T17:29:59Z</time></trkpt>
<trkpt lat="46.20317" lon="7.29883"><ele>476.2</ele><time>2016-08-06T17:30:01Z</time></trkpt>
<trkpt lat="46.20313" lon="7.29875"><ele>476.2</ele><time>2016-08-06T17:30:02Z</time></trkpt>
<trkpt lat="46.2031" lon="7.29866"><ele>476.2</ele><time>2016-08-06T17:30:03Z</time></trkpt>
<trkpt lat="46.20302" lon="7.29849"><ele>476</ele><time>2016-08-06T17:30:05Z</time></trkpt>
<trkpt lat="46.203" lon="7.2984"><ele>476</ele><time>2016-08-06T17:30:06Z</time></trkpt>
<trkpt lat="46.20299" lon="7.29829"><ele>476</ele><time>2016-08-06T17:30:07Z</time></trkpt>
<trkpt lat="46.20296" lon="7.29821"><ele>476</ele><time>2016-08-06T17:30:08Z</time></trkpt>
<trkpt lat="46.20289" lon="7.29804"><ele>476</ele><time>2016-08-06T17:30:10Z</time></trkpt>
<trkpt lat="46.20286" lon="7.29796"><ele>476</ele><time>2016-08-06T17:30:11Z</time></trkpt>
<trkpt lat="46.20276" lon="7.29771"><ele>476</ele><time>2016-08-06T17:30:14Z</time></trkpt>
<trkpt lat="46.20268" lon="7.29754"><ele>476</ele><time>2016-08-06T17:30:16Z</time></trkpt>
<trkpt lat="46.20264" lon="7.29746"><ele>476</ele><time>2016-08-06T17:30:17Z</time></trkpt>
<trkpt lat="46.20252" lon="7.29721"><ele>475.8</ele><time>2016-08-06T17:30:20Z</time></trkpt>
<trkpt lat="46.20248" lon="7.29712"><ele>475.8</ele><time>2016-08-06T17:30:21Z</time></trkpt>
<trkpt lat="46.20245" lon="7.29704"><ele>475.8</ele><time>2016-08-06T17:30:22Z</time></trkpt>
<trkpt lat="46.20241" lon="7.29695"><ele>475.8</ele><time>2016-08-06T17:30:23Z</time></trkpt>
<trkpt lat="46.20237" lon="7.29687"><ele>475.8</ele><time>2016-08-06T17:30:24Z</time></trkpt>
<trkpt lat="46.20231" lon="7.29679"><ele>475.8</ele><time>2016-08-06T17:30:25Z</time></trkpt>
<trkpt lat="46.20229" lon="7.2967"><ele>475.8</ele><time>2016-08-06T17:30:26Z</time></trkpt>
<trkpt lat="46.20226" lon="7.29661"><ele>475.8</ele><time>2016-08-06T17:30:27Z</time></trkpt>
<trkpt lat="46.2022" lon="7.29643"><ele>475.8</ele><time>2016-08-06T17:30:29Z</time></trkpt>
<trkpt lat="46.20211" lon="7.29615"><ele>475.8</ele><time>2016-08-06T17:30:32Z</time></trkpt>
<trkpt lat="46.20208" lon="7.29606"><ele>475.6</ele><time>2016-08-06T17:30:33Z</time></trkpt>
<trkpt lat="46.202" lon="7.29588"><ele>475.6</ele><time>2016-08-06T17:30:35Z</time></trkpt>
<trkpt lat="46.20197" lon="7.29579"><ele>475.6</ele><time>2016-08-06T17:30:36Z</time></trkpt>
<trkpt lat="46.20193" lon="7.29561"><ele>475.6</ele><time>2016-08-06T17:30:38Z</time></trkpt>
<trkpt lat="46.2019" lon="7.29543"><ele>475.6</ele><time>2016-08-06T17:30:40Z</time></trkpt>
<trkpt lat="46.20188" lon="7.29534"><ele>475.6</ele><time>2016-08-06T17:30:41Z</time></trkpt>
<trkpt lat="46.20184" lon="7.29516"><ele>475.6</ele><time>2016-08-06T17:30:43Z</time></trkpt>
<trkpt lat="46.20178" lon="7.29489"><ele>475.6</ele><time>2016-08-06T17:30:46Z</time></trkpt>
<trkpt lat="46.20176" lon="7.2948"><ele>475.4</ele><time>2016-08-06T17:30:47Z</time></trkpt>
<trkpt lat="46.20169" lon="7.29454"><ele>475.4</ele><time>2016-08-06T17:30:50Z</time></trkpt>
<trkpt lat="46.20168" lon="7.29445"><ele>475.4</ele><time>2016-08-06T17:30:51Z</time></trkpt>
<trkpt lat="46.20165" lon="7.29427"><ele>475.4</ele><time>2016-08-06T17:30:53Z</time></trkpt>
<trkpt lat="46.2016" lon="7.29401"><ele>475.4</ele><time>2016-08-06T17:30:56Z</time></trkpt>
<trkpt lat="46.20159" lon="7.29392"><ele>475.4</ele><time>2016-08-06T17:30:57Z</time></trkpt>
<trkpt lat="46.20157" lon="7.29383"><ele>475.4</ele><time>2016-08-06T17:30:58Z</time></trkpt>
<trkpt lat="46.20154" lon="7.29366"><ele>475.4</ele><time>2016-08-06T17:31:00Z</time></trkpt>
<trkpt lat="46.2015" lon="7.29348"><ele>475.2</ele><time>2016-08-06T17:31:02Z</time></trkpt>
<trkpt lat="46.20147" lon="7.29331"><ele>475.2</ele><time>2016-08-06T17:31:04Z</time></trkpt>
<trkpt lat="46.20143" lon="7.29313"><ele>475.2</ele><time>2016-08-06T17:31:06Z</time></trkpt>
<trkpt lat="46.20141" lon="7.29295"><ele>475.2</ele><time>2016-08-06T17:31:08Z</time></trkpt>
<trkpt lat="46.2014" lon="7.29286"><ele>475.2</ele><time>2016-08-06T17:31:09Z</time></trkpt>
<trkpt lat="46.20137" lon="7.29268"><ele>475.2</ele><time>2016-08-06T17:31:11Z</time></trkpt>
<trkpt lat="46.20135" lon="7.2925"><ele>475.2</ele><time>2016-08-06T17:31:13Z</time></trkpt>
<trkpt lat="46.20134" lon="7.29241"><ele>475.2</ele><time>2016-08-06T17:31:14Z</time></trkpt>
<trkpt lat="46.20132" lon="7.29232"><ele>475</ele><time>2016-08-06T17:31:15Z</time></trkpt>
<trkpt lat="46.2013" lon="7.29215"><ele>475</ele><time>2016-08-06T17:31:17Z</time></trkpt>
<trkpt lat="46.20127" lon="7.29189"><ele>475</ele><time>2016-08-06T17:31:20Z</time></trkpt>
<trkpt lat="46.20126" lon="7.2918"><ele>475</ele><time>2016-08-06T17:31:21Z</time></trkpt>
<trkpt lat="46.20124" lon="7.29171"><ele>475</ele><time>2016-08-06T17:31:22Z</time></trkpt>
<trkpt lat="46.20123" lon="7.29162"><ele>475</ele><time>2016-08-06T17:31:23Z</time></trkpt>
<trkpt lat="46.20119" lon="7.29136"><ele>475</ele><time>2016-08-06T17:31:26Z</time></trkpt>
<trkpt lat="46.20118" lon="7.29127"><ele>475</ele><time>2016-08-06T17:31:27Z</time></trkpt>
<trkpt lat="46.20116" lon="7.29109"><ele>474.8</ele><time>2016-08-06T17:31:29Z</time></trkpt>
<trkpt lat="46.20111" lon="7.29083"><ele>474.8</ele><time>2016-08-06T17:31:32Z</time></trkpt>
<trkpt lat="46.20108" lon="7.29065"><ele>474.8</ele><time>2016-08-06T17:31:34Z</time></trkpt>
<trkpt lat="46.20106" lon="7.29057"><ele>474.8</ele><time>2016-08-06T17:31:35Z</time></trkpt>
<trkpt lat="46.20103" lon="7.29039"><ele>474.8</ele><time>2016-08-06T17:31:37Z</time></trkpt>
<trkpt lat="46.20101" lon="7.29031"><ele>474.8</ele><time>2016-08-06T17:31:38Z</time></trkpt>
<trkpt lat="46.20099" lon="7.29022"><ele>474.8</ele><time>2016-08-06T17:31:39Z</time></trkpt>
<trkpt lat="46.20093" lon="7.28996"><ele>474.8</ele><time>2016-08-06T17:31:42Z</time></trkpt>
<trkpt lat="46.2009" lon="7.28979"><ele>474.6</ele><time>2016-08-06T17:31:44Z</time></trkpt>
<trkpt lat="46.20088" lon="7.2897"><ele>474.6</ele><time>2016-08-06T17:31:45Z</time></trkpt>
<trkpt lat="46.20085" lon="7.28954"><ele>474.6</ele><time>2016-08-06T17:31:47Z</time></trkpt>
<trkpt lat="46.2008" lon="7.28929"><ele>474.6</ele><time>2016-08-06T17:31:50Z</time></trkpt>
<trkpt lat="46.20077" lon="7.28912"><ele>474.6</ele><time>2016-08-06T17:31:52Z</time></trkpt>
<trkpt lat="46.20076" lon="7.28904"><ele>474.6</ele><time>2016-08-06T17:31:53Z</time></trkpt>
<trkpt lat="46.20073" lon="7.28879"><ele>474.6</ele><time>2016-08-06T17:31:56Z</time></trkpt>
<trkpt lat="46.20071" lon="7.28862"><ele>474.4</ele><time>2016-08-06T17:31:58Z</time></trkpt>
<trkpt lat="46.2007" lon="7.28854"><ele>474.4</ele><time>2016-08-06T17:31:59Z</time></trkpt>
<trkpt lat="46.20068" lon="7.28837"><ele>474.4</ele><time>2016-08-06T17:32:01Z</time></trkpt>
<trkpt lat="46.20067" lon="7.2883"><ele>474.4</ele><time>2016-08-06T17:32:02Z</time></trkpt>
<trkpt lat="46.20065" lon="7.28816"><ele>474.4</ele><time>2016-08-06T17:32:04Z</time></trkpt>
<trkpt lat="46.20064" lon="7.28809"><ele>474.4</ele><time>2016-08-06T17:32:05Z</time></trkpt>
<trkpt lat="46.2006" lon="7.28788"><ele>474.4</ele><time>2016-08-06T17:32:08Z</time></trkpt>
<trkpt lat="46.20059" lon="7.28781"><ele>474.4</ele><time>2016-08-06T17:32:09Z</time></trkpt>
<trkpt lat="46.20058" lon="7.28774"><ele>474.4</ele><time>2016-08-06T17:32:10Z</time></trkpt>
<trkpt lat="46.20057" lon="7.28766"><ele>474.2</ele><time>2016-08-06T17:32:11Z</time></trkpt>
<trkpt lat="46.20052" lon="7.28745"><ele>474.2</ele><time>2016-08-06T17:32:14Z</time></trkpt>
<trkpt lat="46.2005" lon="7.2873"><ele>474.2</ele><time>2016-08-06T17:32:16Z</time></trkpt>
<trkpt lat="46.20048" lon="7.28723"><ele>474.2</ele><time>2016-08-06T17:32:17Z</time></trkpt>
<trkpt lat="46.20045" lon="7.28708"><ele>474.2</ele><time>2016-08-06T17:32:19Z</time></trkpt>
<trkpt lat="46.20044" lon="7.287"><ele>474.2</ele><time>2016-08-06T17:32:20Z</time></trkpt>
<trkpt lat="46.20041" lon="7.28682"><ele>474.2</ele><time>2016-08-06T17:32:22Z</time></trkpt>
<trkpt lat="46.20039" lon="7.28674"><ele>474.2</ele><time>2016-08-06T17:32:23Z</time></trkpt>
<trkpt lat="46.20038" lon="7.28665"><ele>474.2</ele><time>2016-08-06T17:32:24Z</time></trkpt>
<trkpt lat="46.20036" lon="7.28651"><ele>474</ele><time>2016-08-06T17:32:26Z</time></trkpt>
<trkpt lat="46.20035" lon="7.28643"><ele>474</ele><time>2016-08-06T17:32:27Z</time></trkpt>
<trkpt lat="46.20033" lon="7.28628"><ele>474</ele><time>2016-08-06T17:32:29Z</time></trkpt>
<trkpt lat="46.2003" lon="7.28606"><ele>474</ele><time>2016-08-06T17:32:32Z</time></trkpt>
<trkpt lat="46.20028" lon="7.28599"><ele>474</ele><time>2016-08-06T17:32:33Z</time></trkpt>
<trkpt lat="46.20027" lon="7.28591"><ele>474</ele><time>2016-08-06T17:32:34Z</time></trkpt>
<trkpt lat="46.20026" lon="7.28583"><ele>474</ele><time>2016-08-06T17:32:35Z</time></trkpt>
<trkpt lat="46.20024" lon="7.28567"><ele>474</ele><time>2016-08-06T17:32:37Z</time></trkpt>
<trkpt lat="46.2002" lon="7.28544"><ele>473.8</ele><time>2016-08-06T17:32:40Z</time></trkpt>
<trkpt lat="46.20019" lon="7.28536"><ele>473.8</ele><time>2016-08-06T17:32:41Z</time></trkpt>
<trkpt lat="46.20018" lon="7.28528"><ele>473.8</ele><time>2016-08-06T17:32:42Z</time></trkpt>
<trkpt lat="46.20015" lon="7.28512"><ele>473.8</ele><time>2016-08-06T17:32:44Z</time></trkpt>
<trkpt lat="46.20013" lon="7.28496"><ele>473.8</ele><time>2016-08-06T17:32:46Z</time></trkpt>
<trkpt lat="46.20011" lon="7.28488"><ele>473.8</ele><time>2016-08-06T17:32:47Z</time></trkpt>
<trkpt lat="46.20007" lon="7.28463"><ele>473.8</ele><time>2016-08-06T17:32:50Z</time></trkpt>
<trkpt lat="46.20005" lon="7.28446"><ele>473.8</ele><time>2016-08-06T17:32:52Z</time></trkpt>
<trkpt lat="46.20003" lon="7.28438"><ele>473.6</ele><time>2016-08-06T17:32:53Z</time></trkpt>
<trkpt lat="46.20002" lon="7.2843"><ele>473.8</ele><time>2016-08-06T17:32:54Z</time></trkpt>
<trkpt lat="46.19999" lon="7.28413"><ele>473.8</ele><time>2016-08-06T17:32:56Z</time></trkpt>
<trkpt lat="46.19998" lon="7.28404"><ele>474</ele><time>2016-08-06T17:32:57Z</time></trkpt>
<trkpt lat="46.19996" lon="7.28396"><ele>474</ele><time>2016-08-06T17:32:58Z</time></trkpt>
<trkpt lat="46.19995" lon="7.28387"><ele>474.2</ele><time>2016-08-06T17:32:59Z</time></trkpt>
<trkpt lat="46.19991" lon="7.28362"><ele>474</ele><time>2016-08-06T17:33:02Z</time></trkpt>
<trkpt lat="46.19989" lon="7.28353"><ele>473.8</ele><time>2016-08-06T17:33:03Z</time></trkpt>
<trkpt lat="46.19987" lon="7.28336"><ele>473.8</ele><time>2016-08-06T17:33:05Z</time></trkpt>
<trkpt lat="46.19985" lon="7.28327"><ele>473.6</ele><time>2016-08-06T17:33:06Z</time></trkpt>
<trkpt lat="46.19984" lon="7.28319"><ele>473.6</ele><time>2016-08-06T17:33:07Z</time></trkpt>
<trkpt lat="46.1998" lon="7.28302"><ele>473.4</ele><time>2016-08-06T17:33:09Z</time></trkpt>
<trkpt lat="46.19977" lon="7.28285"><ele>473.4</ele><time>2016-08-06T17:33:11Z</time></trkpt>
<trkpt lat="46.19972" lon="7.2826"><ele>473.2</ele><time>2016-08-06T17:33:14Z</time></trkpt>
<trkpt lat="46.19968" lon="7.28243"><ele>473</ele><time>2016-08-06T17:33:16Z</time></trkpt>
<trkpt lat="46.19964" lon="7.28227"><ele>472.8</ele><time>2016-08-06T17:33:18Z</time></trkpt>
<trkpt lat="46.1996" lon="7.2821"><ele>472.8</ele><time>2016-08-06T17:33:20Z</time></trkpt>
<trkpt lat="46.19955" lon="7.28194"><ele>472.6</ele><time>2016-08-06T17:33:22Z</time></trkpt>
<trkpt lat="46.19953" lon="7.28186"><ele>472.6</ele><time>2016-08-06T17:33:23Z</time></trkpt>
<trkpt lat="46.19946" lon="7.28163"><ele>472.4</ele><time>2016-08-06T17:33:26Z</time></trkpt>
<trkpt lat="46.19943" lon="7.28155"><ele>472.2</ele><time>2016-08-06T17:33:27Z</time></trkpt>
<trkpt lat="46.19939" lon="7.2814"><ele>472.2</ele><time>2016-08-06T17:33:29Z</time></trkpt>
<trkpt lat="46.19936" lon="7.28133"><ele>472</ele><time>2016-08-06T17:33:30Z</time></trkpt>
<trkpt lat="46.19931" lon="7.2812"><ele>472</ele><time>2016-08-06T17:33:32Z</time></trkpt>
<trkpt lat="46.19926" lon="7.28108"><ele>471.8</ele><time>2016-08-06T17:33:34Z</time></trkpt>
<trkpt lat="46.19923" lon="7.28101"><ele>471.8</ele><time>2016-08-06T17:33:35Z</time></trkpt>
<trkpt lat="46.19918" lon="7.28089"><ele>471.6</ele><time>2016-08-06T17:33:37Z</time></trkpt>
<trkpt lat="46.19913" lon="7.28076"><ele>471.6</ele><time>2016-08-06T17:33:39Z</time></trkpt>
<trkpt lat="46.19911" lon="7.2807"><ele>471.6</ele><time>2016-08-06T17:33:40Z</time></trkpt>
<trkpt lat="46.19908" lon="7.28064"><ele>471.4</ele><time>2016-08-06T17:33:41Z</time></trkpt>
<trkpt lat="46.19903" lon="7.28051"><ele>471.4</ele><time>2016-08-06T17:33:43Z</time></trkpt>
<trkpt lat="46.19897" lon="7.28038"><ele>471.4</ele><time>2016-08-06T17:33:45Z</time></trkpt>
<trkpt lat="46.19892" lon="7.28026"><ele>471.4</ele><time>2016-08-06T17:33:47Z</time></trkpt>
<trkpt lat="46.19886" lon="7.28013"><ele>471.4</ele><time>2016-08-06T17:33:49Z</time></trkpt>
<trkpt lat="46.19883" lon="7.28005"><ele>471.4</ele><time>2016-08-06T17:33:50Z</time></trkpt>
<trkpt lat="46.19877" lon="7.27991"><ele>471.4</ele><time>2016-08-06T17:33:52Z</time></trkpt>
<trkpt lat="46.19874" lon="7.27983"><ele>471.4</ele><time>2016-08-06T17:33:53Z</time></trkpt>
<trkpt lat="46.19865" lon="7.27962"><ele>471.4</ele><time>2016-08-06T17:33:56Z</time></trkpt>
<trkpt lat="46.19862" lon="7.27954"><ele>471.4</ele><time>2016-08-06T17:33:57Z</time></trkpt>
<trkpt lat="46.19859" lon="7.27947"><ele>471.4</ele><time>2016-08-06T17:33:58Z</time></trkpt>
<trkpt lat="46.19855" lon="7.27939"><ele>471.6</ele><time>2016-08-06T17:33:59Z</time></trkpt>
<trkpt lat="46.19849" lon="7.27924"><ele>471.6</ele><time>2016-08-06T17:34:01Z</time></trkpt>
<trkpt lat="46.19839" lon="7.27901"><ele>471.6</ele><time>2016-08-06T17:34:04Z</time></trkpt>
<trkpt lat="46.19836" lon="7.27894"><ele>471.6</ele><time>2016-08-06T17:34:05Z</time></trkpt>
<trkpt lat="46.1983" lon="7.2788"><ele>471.6</ele><time>2016-08-06T17:34:07Z</time></trkpt>
<trkpt lat="46.19823" lon="7.27866"><ele>471.6</ele><time>2016-08-06T17:34:09Z</time></trkpt>
<trkpt lat="46.19817" lon="7.27851"><ele>471.6</ele><time>2016-08-06T17:34:11Z</time></trkpt>
<trkpt lat="46.1981" lon="7.27837"><ele>471.6</ele><time>2016-08-06T17:34:13Z</time></trkpt>
<trkpt lat="46.19807" lon="7.2783"><ele>471.6</ele><time>2016-08-06T17:34:14Z</time></trkpt>
<trkpt lat="46.19801" lon="7.27816"><ele>471.6</ele><time>2016-08-06T17:34:16Z</time></trkpt>
<trkpt lat="46.19798" lon="7.27809"><ele>471.6</ele><time>2016-08-06T17:34:17Z</time></trkpt>
<trkpt lat="46.19789" lon="7.27789"><ele>471.6</ele><time>2016-08-06T17:34:20Z</time></trkpt>
<trkpt lat="46.19786" lon="7.27782"><ele>471.6</ele><time>2016-08-06T17:34:21Z</time></trkpt>
<trkpt lat="46.19778" lon="7.27767"><ele>471.6</ele><time>2016-08-06T17:34:23Z</time></trkpt>
<trkpt lat="46.19771" lon="7.27753"><ele>471.6</ele><time>2016-08-06T17:34:25Z</time></trkpt>
<trkpt lat="46.19768" lon="7.27745"><ele>471.6</ele><time>2016-08-06T17:34:26Z</time></trkpt>
<trkpt lat="46.19768" lon="7.27736"><ele>471.6</ele><time>2016-08-06T17:34:27Z</time></trkpt>
<trkpt lat="46.19765" lon="7.27728"><ele>471.6</ele><time>2016-08-06T17:34:28Z</time></trkpt>
<trkpt lat="46.19762" lon="7.2772"><ele>471.6</ele><time>2016-08-06T17:34:29Z</time></trkpt>
<trkpt lat="46.19756" lon="7.27705"><ele>471.6</ele><time>2016-08-06T17:34:31Z</time></trkpt>
<trkpt lat="46.1975" lon="7.27689"><ele>471.6</ele><time>2016-08-06T17:34:33Z</time></trkpt>
<trkpt lat="46.19744" lon="7.27673"><ele>471.6</ele><time>2016-08-06T17:34:35Z</time></trkpt>
<trkpt lat="46.19735" lon="7.27651"><ele>471.6</ele><time>2016-08-06T17:34:38Z</time></trkpt>
<trkpt lat="46.19732" lon="7.27643"><ele>471.6</ele><time>2016-08-06T17:34:39Z</time></trkpt>
<trkpt lat="46.19726" lon="7.27629"><ele>471.6</ele><time>2016-08-06T17:34:41Z</time></trkpt>
<trkpt lat="46.1972" lon="7.27614"><ele>471.6</ele><time>2016-08-06T17:34:43Z</time></trkpt>
<trkpt lat="46.19716" lon="7.27606"><ele>471.6</ele><time>2016-08-06T17:34:44Z</time></trkpt>
<trkpt lat="46.19709" lon="7.2759"><ele>471.6</ele><time>2016-08-06T17:34:46Z</time></trkpt>
<trkpt lat="46.19706" lon="7.27583"><ele>471.6</ele><time>2016-08-06T17:34:47Z</time></trkpt>
<trkpt lat="46.19699" lon="7.27567"><ele>471.6</ele><time>2016-08-06T17:34:49Z</time></trkpt>
<trkpt lat="46.19692" lon="7.27552"><ele>471.8</ele><time>2016-08-06T17:34:51Z</time></trkpt>
<trkpt lat="46.19682" lon="7.27528"><ele>471.8</ele><time>2016-08-06T17:34:54Z</time></trkpt>
<trkpt lat="46.19679" lon="7.2752"><ele>471.8</ele><time>2016-08-06T17:34:55Z</time></trkpt>
<trkpt lat="46.19672" lon="7.27503"><ele>471.8</ele><time>2016-08-06T17:34:57Z</time></trkpt>
<trkpt lat="46.19669" lon="7.27495"><ele>471.8</ele><time>2016-08-06T17:34:58Z</time></trkpt>
<trkpt lat="46.19666" lon="7.27487"><ele>471.8</ele><time>2016-08-06T17:34:59Z</time></trkpt>
<trkpt lat="46.19659" lon="7.27471"><ele>471.8</ele><time>2016-08-06T17:35:01Z</time></trkpt>
<trkpt lat="46.19648" lon="7.27447"><ele>471.8</ele><time>2016-08-06T17:35:04Z</time></trkpt>
<trkpt lat="46.19645" lon="7.27439"><ele>471.8</ele><time>2016-08-06T17:35:05Z</time></trkpt>
<trkpt lat="46.19635" lon="7.27414"><ele>471.8</ele><time>2016-08-06T17:35:08Z</time></trkpt>
<trkpt lat="46.19631" lon="7.27406"><ele>471.8</ele><time>2016-08-06T17:35:09Z</time></trkpt>
<trkpt lat="46.19625" lon="7.2739"><ele>471.8</ele><time>2016-08-06T17:35:11Z</time></trkpt>
<trkpt lat="46.19622" lon="7.27382"><ele>471.8</ele><time>2016-08-06T17:35:12Z</time></trkpt>
<trkpt lat="46.19614" lon="7.27368"><ele>471.8</ele><time>2016-08-06T17:35:14Z</time></trkpt>
<trkpt lat="46.19607" lon="7.27354"><ele>471.8</ele><time>2016-08-06T17:35:16Z</time></trkpt>
<trkpt lat="46.19605" lon="7.27346"><ele>471.8</ele><time>2016-08-06T17:35:17Z</time></trkpt>
<trkpt lat="46.196" lon="7.27329"><ele>471.8</ele><time>2016-08-06T17:35:19Z</time></trkpt>
<trkpt lat="46.19597" lon="7.27321"><ele>471.8</ele><time>2016-08-06T17:35:20Z</time></trkpt>
<trkpt lat="46.19594" lon="7.27313"><ele>471.8</ele><time>2016-08-06T17:35:21Z</time></trkpt>
<trkpt lat="46.19588" lon="7.27297"><ele>471.8</ele><time>2016-08-06T17:35:23Z</time></trkpt>
<trkpt lat="46.19581" lon="7.27282"><ele>471.8</ele><time>2016-08-06T17:35:25Z</time></trkpt>
<trkpt lat="46.19575" lon="7.27267"><ele>471.8</ele><time>2016-08-06T17:35:27Z</time></trkpt>
<trkpt lat="46.19572" lon="7.27259"><ele>471.8</ele><time>2016-08-06T17:35:28Z</time></trkpt>
<trkpt lat="46.19568" lon="7.27251"><ele>471.8</ele><time>2016-08-06T17:35:29Z</time></trkpt>
<trkpt lat="46.19558" lon="7.27226"><ele>471.8</ele><time>2016-08-06T17:35:32Z</time></trkpt>
<trkpt lat="46.19551" lon="7.2721"><ele>471.8</ele><time>2016-08-06T17:35:34Z</time></trkpt>
<trkpt lat="46.19548" lon="7.27202"><ele>471.8</ele><time>2016-08-06T17:35:35Z</time></trkpt>
<trkpt lat="46.19544" lon="7.27194"><ele>471.8</ele><time>2016-08-06T17:35:36Z</time></trkpt>
<trkpt lat="46.19541" lon="7.27186"><ele>471.8</ele><time>2016-08-06T17:35:37Z</time></trkpt>
<trkpt lat="46.19531" lon="7.27161"><ele>471.8</ele><time>2016-08-06T17:35:40Z</time></trkpt>
<trkpt lat="46.19525" lon="7.27145"><ele>471.8</ele><time>2016-08-06T17:35:42Z</time></trkpt>
<trkpt lat="46.19518" lon="7.2713"><ele>472</ele><time>2016-08-06T17:35:44Z</time></trkpt>
<trkpt lat="46.19512" lon="7.27116"><ele>472</ele><time>2016-08-06T17:35:46Z</time></trkpt>
<trkpt lat="46.19505" lon="7.27101"><ele>472</ele><time>2016-08-06T17:35:48Z</time></trkpt>
<trkpt lat="46.19499" lon="7.27086"><ele>472</ele><time>2016-08-06T17:35:50Z</time></trkpt>
<trkpt lat="46.19493" lon="7.27073"><ele>472</ele><time>2016-08-06T17:35:52Z</time></trkpt>
<trkpt lat="46.19491" lon="7.27066"><ele>472</ele><time>2016-08-06T17:35:53Z</time></trkpt>
<trkpt lat="46.19485" lon="7.27052"><ele>472</ele><time>2016-08-06T17:35:55Z</time></trkpt>
<trkpt lat="46.19477" lon="7.27032"><ele>472</ele><time>2016-08-06T17:35:58Z</time></trkpt>
<trkpt lat="46.19474" lon="7.27025"><ele>472</ele><time>2016-08-06T17:35:59Z</time></trkpt>
<trkpt lat="46.19468" lon="7.2701"><ele>472</ele><time>2016-08-06T17:36:01Z</time></trkpt>
<trkpt lat="46.19463" lon="7.26994"><ele>472</ele><time>2016-08-06T17:36:03Z</time></trkpt>
<trkpt lat="46.19457" lon="7.26979"><ele>472</ele><time>2016-08-06T17:36:05Z</time></trkpt>
<trkpt lat="46.19451" lon="7.26964"><ele>472</ele><time>2016-08-06T17:36:07Z</time></trkpt>
<trkpt lat="46.19448" lon="7.26956"><ele>472</ele><time>2016-08-06T17:36:08Z</time></trkpt>
<trkpt lat="46.19445" lon="7.26948"><ele>472</ele><time>2016-08-06T17:36:09Z</time></trkpt>
<trkpt lat="46.19439" lon="7.26932"><ele>472</ele><time>2016-08-06T17:36:11Z</time></trkpt>
<trkpt lat="46.1943" lon="7.26909"><ele>472</ele><time>2016-08-06T17:36:14Z</time></trkpt>
<trkpt lat="46.19427" lon="7.26901"><ele>472</ele><time>2016-08-06T17:36:15Z</time></trkpt>
<trkpt lat="46.19423" lon="7.26892"><ele>472</ele><time>2016-08-06T17:36:16Z</time></trkpt>
<trkpt lat="46.1942" lon="7.26884"><ele>472</ele><time>2016-08-06T17:36:17Z</time></trkpt>
<trkpt lat="46.19409" lon="7.26859"><ele>472</ele><time>2016-08-06T17:36:20Z</time></trkpt>
<trkpt lat="46.19403" lon="7.26843"><ele>472</ele><time>2016-08-06T17:36:22Z</time></trkpt>
<trkpt lat="46.19399" lon="7.26835"><ele>472</ele><time>2016-08-06T17:36:23Z</time></trkpt>
<trkpt lat="46.19389" lon="7.26813"><ele>472</ele><time>2016-08-06T17:36:26Z</time></trkpt>
<trkpt lat="46.19382" lon="7.26798"><ele>472</ele><time>2016-08-06T17:36:28Z</time></trkpt>
<trkpt lat="46.19378" lon="7.2679"><ele>472</ele><time>2016-08-06T17:36:29Z</time></trkpt>
<trkpt lat="46.19375" lon="7.26783"><ele>472</ele><time>2016-08-06T17:36:30Z</time></trkpt>
<trkpt lat="46.19372" lon="7.26775"><ele>472</ele><time>2016-08-06T17:36:31Z</time></trkpt>
<trkpt lat="46.19365" lon="7.26759"><ele>472</ele><time>2016-08-06T17:36:33Z</time></trkpt>
<trkpt lat="46.19358" lon="7.26743"><ele>472</ele><time>2016-08-06T17:36:35Z</time></trkpt>
<trkpt lat="46.19348" lon="7.26719"><ele>472.2</ele><time>2016-08-06T17:36:38Z</time></trkpt>
<trkpt lat="46.19345" lon="7.26712"><ele>472.2</ele><time>2016-08-06T17:36:39Z</time></trkpt>
<trkpt lat="46.19335" lon="7.26688"><ele>472.2</ele><time>2016-08-06T17:36:42Z</time></trkpt>
<trkpt lat="46.19328" lon="7.26673"><ele>472.2</ele><time>2016-08-06T17:36:44Z</time></trkpt>
<trkpt lat="46.19322" lon="7.26657"><ele>472.2</ele><time>2016-08-06T17:36:46Z</time></trkpt>
<trkpt lat="46.19319" lon="7.2665"><ele>472.2</ele><time>2016-08-06T17:36:47Z</time></trkpt>
<trkpt lat="46.1931" lon="7.26627"><ele>472.2</ele><time>2016-08-06T17:36:50Z</time></trkpt>
<trkpt lat="46.19307" lon="7.26619"><ele>472.2</ele><time>2016-08-06T17:36:51Z</time></trkpt>
<trkpt lat="46.19301" lon="7.26604"><ele>472.2</ele><time>2016-08-06T17:36:53Z</time></trkpt>
<trkpt lat="46.19298" lon="7.26596"><ele>472.2</ele><time>2016-08-06T17:36:54Z</time></trkpt>
<trkpt lat="46.19291" lon="7.26581"><ele>472.2</ele><time>2016-08-06T17:36:56Z</time></trkpt>
<trkpt lat="46.19288" lon="7.26574"><ele>472.2</ele><time>2016-08-06T17:36:57Z</time></trkpt>
<trkpt lat="46.19282" lon="7.26559"><ele>472.2</ele><time>2016-08-06T17:36:59Z</time></trkpt>
<trkpt lat="46.19273" lon="7.26536"><ele>472.2</ele><time>2016-08-06T17:37:02Z</time></trkpt>
<trkpt lat="46.19267" lon="7.26522"><ele>472.2</ele><time>2016-08-06T17:37:04Z</time></trkpt>
<trkpt lat="46.19264" lon="7.26514"><ele>472.2</ele><time>2016-08-06T17:37:05Z</time></trkpt>
<trkpt lat="46.19255" lon="7.26492"><ele>472.2</ele><time>2016-08-06T17:37:08Z</time></trkpt>
<trkpt lat="46.19252" lon="7.26484"><ele>472.2</ele><time>2016-08-06T17:37:09Z</time></trkpt>
<trkpt lat="46.19249" lon="7.26477"><ele>472.2</ele><time>2016-08-06T17:37:10Z</time></trkpt>
<trkpt lat="46.19242" lon="7.26462"><ele>472.2</ele><time>2016-08-06T17:37:12Z</time></trkpt>
<trkpt lat="46.19238" lon="7.26454"><ele>472.2</ele><time>2016-08-06T17:37:13Z</time></trkpt>
<trkpt lat="46.19228" lon="7.26431"><ele>472.2</ele><time>2016-08-06T17:37:16Z</time></trkpt>
<trkpt lat="46.19225" lon="7.26423"><ele>472.2</ele><time>2016-08-06T17:37:17Z</time></trkpt>
<trkpt lat="46.19221" lon="7.26416"><ele>472.2</ele><time>2016-08-06T17:37:18Z</time></trkpt>
<trkpt lat="46.19216" lon="7.26403"><ele>472.2</ele><time>2016-08-06T17:37:20Z</time></trkpt>
<trkpt lat="46.19213" lon="7.26397"><ele>472.2</ele><time>2016-08-06T17:37:21Z</time></trkpt>
<trkpt lat="46.19205" lon="7.26377"><ele>472.2</ele><time>2016-08-06T17:37:24Z</time></trkpt>
<trkpt lat="46.19199" lon="7.26364"><ele>472.2</ele><time>2016-08-06T17:37:26Z</time></trkpt>
<trkpt lat="46.19196" lon="7.26358"><ele>472.2</ele><time>2016-08-06T17:37:27Z</time></trkpt>
<trkpt lat="46.19193" lon="7.26351"><ele>472.4</ele><time>2016-08-06T17:37:28Z</time></trkpt>
<trkpt lat="46.19187" lon="7.26337"><ele>472.4</ele><time>2016-08-06T17:37:30Z</time></trkpt>
<trkpt lat="46.1918" lon="7.26324"><ele>472.4</ele><time>2016-08-06T17:37:32Z</time></trkpt>
<trkpt lat="46.19175" lon="7.2631"><ele>472.4</ele><time>2016-08-06T17:37:34Z</time></trkpt>
<trkpt lat="46.19172" lon="7.26301"><ele>472.4</ele><time>2016-08-06T17:37:35Z</time></trkpt>
<trkpt lat="46.19165" lon="7.26288"><ele>472.4</ele><time>2016-08-06T17:37:37Z</time></trkpt>
<trkpt lat="46.19158" lon="7.26275"><ele>472.4</ele><time>2016-08-06T17:37:39Z</time></trkpt>
<trkpt lat="46.19151" lon="7.26262"><ele>472.4</ele><time>2016-08-06T17:37:41Z</time></trkpt>
<trkpt lat="46.19144" lon="7.26248"><ele>472.4</ele><time>2016-08-06T17:37:43Z</time></trkpt>
<trkpt lat="46.19139" lon="7.26241"><ele>472.4</ele><time>2016-08-06T17:37:44Z</time></trkpt>
<trkpt lat="46.19131" lon="7.26226"><ele>472.4</ele><time>2016-08-06T17:37:46Z</time></trkpt>
<trkpt lat="46.19126" lon="7.26219"><ele>472.4</ele><time>2016-08-06T17:37:47Z</time></trkpt>
<trkpt lat="46.19118" lon="7.26204"><ele>472.4</ele><time>2016-08-06T17:37:49Z</time></trkpt>
<trkpt lat="46.19113" lon="7.26196"><ele>472.4</ele><time>2016-08-06T17:37:50Z</time></trkpt>
<trkpt lat="46.19105" lon="7.26183"><ele>472.4</ele><time>2016-08-06T17:37:52Z</time></trkpt>
<trkpt lat="46.191" lon="7.26176"><ele>472.4</ele><time>2016-08-06T17:37:53Z</time></trkpt>
<trkpt lat="46.19087" lon="7.26156"><ele>472.4</ele><time>2016-08-06T17:37:56Z</time></trkpt>
<trkpt lat="46.19083" lon="7.26149"><ele>472.4</ele><time>2016-08-06T17:37:57Z</time></trkpt>
<trkpt lat="46.19079" lon="7.26142"><ele>472.4</ele><time>2016-08-06T17:37:58Z</time></trkpt>
<trkpt lat="46.19075" lon="7.26135"><ele>472.4</ele><time>2016-08-06T17:37:59Z</time></trkpt>
<trkpt lat="46.19066" lon="7.26122"><ele>472.4</ele><time>2016-08-06T17:38:01Z</time></trkpt>
<trkpt lat="46.19053" lon="7.26102"><ele>472.4</ele><time>2016-08-06T17:38:04Z</time></trkpt>
<trkpt lat="46.19044" lon="7.26088"><ele>472.4</ele><time>2016-08-06T17:38:06Z</time></trkpt>
<trkpt lat="46.19035" lon="7.26075"><ele>472.4</ele><time>2016-08-06T17:38:08Z</time></trkpt>
<trkpt lat="46.19026" lon="7.26061"><ele>472.4</ele><time>2016-08-06T17:38:10Z</time></trkpt>
<trkpt lat="46.19022" lon="7.26054"><ele>472.4</ele><time>2016-08-06T17:38:11Z</time></trkpt>
<trkpt lat="46.19013" lon="7.2604"><ele>472.4</ele><time>2016-08-06T17:38:13Z</time></trkpt>
<trkpt lat="46.19008" lon="7.26033"><ele>472.4</ele><time>2016-08-06T17:38:14Z</time></trkpt>
<trkpt lat="46.18999" lon="7.26019"><ele>472.4</ele><time>2016-08-06T17:38:16Z</time></trkpt>
<trkpt lat="46.18994" lon="7.26012"><ele>472.4</ele><time>2016-08-06T17:38:17Z</time></trkpt>
<trkpt lat="46.18985" lon="7.25998"><ele>472.4</ele><time>2016-08-06T17:38:19Z</time></trkpt>
<trkpt lat="46.1898" lon="7.25991"><ele>472.4</ele><time>2016-08-06T17:38:20Z</time></trkpt>
<trkpt lat="46.18975" lon="7.25985"><ele>472.6</ele><time>2016-08-06T17:38:21Z</time></trkpt>
<trkpt lat="46.18965" lon="7.25972"><ele>472.6</ele><time>2016-08-06T17:38:23Z</time></trkpt>
<trkpt lat="46.18951" lon="7.25952"><ele>472.6</ele><time>2016-08-06T17:38:26Z</time></trkpt>
<trkpt lat="46.18946" lon="7.25945"><ele>472.6</ele><time>2016-08-06T17:38:27Z</time></trkpt>
<trkpt lat="46.18937" lon="7.25933"><ele>472.6</ele><time>2016-08-06T17:38:29Z</time></trkpt>
<trkpt lat="46.18927" lon="7.2592"><ele>472.6</ele><time>2016-08-06T17:38:31Z</time></trkpt>
<trkpt lat="46.18918" lon="7.25907"><ele>472.6</ele><time>2016-08-06T17:38:33Z</time></trkpt>
<trkpt lat="46.18913" lon="7.25901"><ele>472.6</ele><time>2016-08-06T17:38:34Z</time></trkpt>
<trkpt lat="46.18908" lon="7.25894"><ele>472.6</ele><time>2016-08-06T17:38:35Z</time></trkpt>
<trkpt lat="46.18894" lon="7.25875"><ele>472.6</ele><time>2016-08-06T17:38:38Z</time></trkpt>
<trkpt lat="46.1889" lon="7.25869"><ele>472.6</ele><time>2016-08-06T17:38:39Z</time></trkpt>
<trkpt lat="46.1888" lon="7.25856"><ele>472.6</ele><time>2016-08-06T17:38:41Z</time></trkpt>
<trkpt lat="46.18865" lon="7.25836"><ele>472.6</ele><time>2016-08-06T17:38:44Z</time></trkpt>
<trkpt lat="46.1886" lon="7.2583"><ele>472.6</ele><time>2016-08-06T17:38:45Z</time></trkpt>
<trkpt lat="46.1885" lon="7.25817"><ele>472.6</ele><time>2016-08-06T17:38:47Z</time></trkpt>
<trkpt lat="46.18845" lon="7.2581"><ele>472.6</ele><time>2016-08-06T17:38:48Z</time></trkpt>
<trkpt lat="46.1884" lon="7.25804"><ele>472.6</ele><time>2016-08-06T17:38:49Z</time></trkpt>
<trkpt lat="46.18825" lon="7.25786"><ele>472.6</ele><time>2016-08-06T17:38:52Z</time></trkpt>
<trkpt lat="46.1882" lon="7.2578"><ele>472.6</ele><time>2016-08-06T17:38:53Z</time></trkpt>
<trkpt lat="46.18809" lon="7.25768"><ele>472.6</ele><time>2016-08-06T17:38:55Z</time></trkpt>
<trkpt lat="46.18793" lon="7.25749"><ele>472.6</ele><time>2016-08-06T17:38:58Z</time></trkpt>
<trkpt lat="46.18788" lon="7.25742"><ele>472.6</ele><time>2016-08-06T17:38:59Z</time></trkpt>
<trkpt lat="46.18776" lon="7.2573"><ele>472.6</ele><time>2016-08-06T17:39:01Z</time></trkpt>
<trkpt lat="46.1876" lon="7.25711"><ele>472.6</ele><time>2016-08-06T17:39:04Z</time></trkpt>
<trkpt lat="46.18754" lon="7.25705"><ele>472.6</ele><time>2016-08-06T17:39:05Z</time></trkpt>
<trkpt lat="46.1875" lon="7.25698"><ele>472.6</ele><time>2016-08-06T17:39:06Z</time></trkpt>
<trkpt lat="46.1874" lon="7.25684"><ele>472.6</ele><time>2016-08-06T17:39:08Z</time></trkpt>
<trkpt lat="46.18731" lon="7.25671"><ele>472.6</ele><time>2016-08-06T17:39:10Z</time></trkpt>
<trkpt lat="46.18722" lon="7.25657"><ele>472.6</ele><time>2016-08-06T17:39:12Z</time></trkpt>
<trkpt lat="46.18713" lon="7.25643"><ele>472.8</ele><time>2016-08-06T17:39:14Z</time></trkpt>
<trkpt lat="46.18708" lon="7.25637"><ele>472.8</ele><time>2016-08-06T17:39:15Z</time></trkpt>
<trkpt lat="46.18695" lon="7.25616"><ele>472.8</ele><time>2016-08-06T17:39:18Z</time></trkpt>
<trkpt lat="46.1869" lon="7.25609"><ele>472.8</ele><time>2016-08-06T17:39:19Z</time></trkpt>
<trkpt lat="46.18686" lon="7.25602"><ele>472.8</ele><time>2016-08-06T17:39:20Z</time></trkpt>
<trkpt lat="46.18678" lon="7.25587"><ele>472.8</ele><time>2016-08-06T17:39:22Z</time></trkpt>
<trkpt lat="46.18669" lon="7.25573"><ele>472.8</ele><time>2016-08-06T17:39:24Z</time></trkpt>
<trkpt lat="46.18661" lon="7.25559"><ele>472.8</ele><time>2016-08-06T17:39:26Z</time></trkpt>
<trkpt lat="46.18653" lon="7.25544"><ele>472.8</ele><time>2016-08-06T17:39:28Z</time></trkpt>
<trkpt lat="46.18645" lon="7.25529"><ele>472.8</ele><time>2016-08-06T17:39:30Z</time></trkpt>
<trkpt lat="46.18637" lon="7.25515"><ele>472.8</ele><time>2016-08-06T17:39:32Z</time></trkpt>
<trkpt lat="46.18633" lon="7.25507"><ele>472.8</ele><time>2016-08-06T17:39:33Z</time></trkpt>
<trkpt lat="46.18628" lon="7.25499"><ele>472.8</ele><time>2016-08-06T17:39:34Z</time></trkpt>
<trkpt lat="46.1862" lon="7.25483"><ele>472.8</ele><time>2016-08-06T17:39:36Z</time></trkpt>
<trkpt lat="46.18615" lon="7.25475"><ele>472.8</ele><time>2016-08-06T17:39:37Z</time></trkpt>
<trkpt lat="46.18607" lon="7.25459"><ele>472.8</ele><time>2016-08-06T17:39:39Z</time></trkpt>
<trkpt lat="46.18602" lon="7.25451"><ele>472.8</ele><time>2016-08-06T17:39:40Z</time></trkpt>
<trkpt lat="46.18599" lon="7.25443"><ele>472.8</ele><time>2016-08-06T17:39:41Z</time></trkpt>
<trkpt lat="46.18588" lon="7.25421"><ele>472.8</ele><time>2016-08-06T17:39:44Z</time></trkpt>
<trkpt lat="46.18581" lon="7.25405"><ele>472.8</ele><time>2016-08-06T17:39:46Z</time></trkpt>
<trkpt lat="46.18577" lon="7.25398"><ele>472.8</ele><time>2016-08-06T17:39:47Z</time></trkpt>
<trkpt lat="46.18574" lon="7.2539"><ele>472.8</ele><time>2016-08-06T17:39:48Z</time></trkpt>
<trkpt lat="46.18567" lon="7.25376"><ele>472.8</ele><time>2016-08-06T17:39:50Z</time></trkpt>
<trkpt lat="46.1856" lon="7.25362"><ele>472.8</ele><time>2016-08-06T17:39:52Z</time></trkpt>
<trkpt lat="46.18557" lon="7.25355"><ele>472.8</ele><time>2016-08-06T17:39:53Z</time></trkpt>
<trkpt lat="46.18547" lon="7.25334"><ele>472.8</ele><time>2016-08-06T17:39:56Z</time></trkpt>
<trkpt lat="46.18544" lon="7.25327"><ele>472.8</ele><time>2016-08-06T17:39:57Z</time></trkpt>
<trkpt lat="46.18537" lon="7.25313"><ele>472.8</ele><time>2016-08-06T17:39:59Z</time></trkpt>
<trkpt lat="46.18534" lon="7.25306"><ele>472.8</ele><time>2016-08-06T17:40:00Z</time></trkpt>
<trkpt lat="46.18531" lon="7.25298"><ele>472.8</ele><time>2016-08-06T17:40:01Z</time></trkpt>
<trkpt lat="46.18521" lon="7.25277"><ele>472.8</ele><time>2016-08-06T17:40:04Z</time></trkpt>
<trkpt lat="46.18518" lon="7.25269"><ele>472.8</ele><time>2016-08-06T17:40:05Z</time></trkpt>
<trkpt lat="46.18512" lon="7.25255"><ele>473</ele><time>2016-08-06T17:40:07Z</time></trkpt>
<trkpt lat="46.18509" lon="7.25248"><ele>473</ele><time>2016-08-06T17:40:08Z</time></trkpt>
<trkpt lat="46.18506" lon="7.25241"><ele>473</ele><time>2016-08-06T17:40:09Z</time></trkpt>
<trkpt lat="46.18501" lon="7.25227"><ele>473</ele><time>2016-08-06T17:40:11Z</time></trkpt>
<trkpt lat="46.18494" lon="7.25206"><ele>473</ele><time>2016-08-06T17:40:14Z</time></trkpt>
<trkpt lat="46.18489" lon="7.25192"><ele>473</ele><time>2016-08-06T17:40:16Z</time></trkpt>
<trkpt lat="46.18487" lon="7.25185"><ele>473</ele><time>2016-08-06T17:40:17Z</time></trkpt>
<trkpt lat="46.18482" lon="7.25171"><ele>473</ele><time>2016-08-06T17:40:19Z</time></trkpt>
<trkpt lat="46.18474" lon="7.25151"><ele>473</ele><time>2016-08-06T17:40:22Z</time></trkpt>
<trkpt lat="46.18472" lon="7.25144"><ele>473</ele><time>2016-08-06T17:40:23Z</time></trkpt>
<trkpt lat="46.18467" lon="7.2513"><ele>473</ele><time>2016-08-06T17:40:25Z</time></trkpt>
<trkpt lat="46.18464" lon="7.25123"><ele>473</ele><time>2016-08-06T17:40:26Z</time></trkpt>
<trkpt lat="46.18459" lon="7.25107"><ele>473</ele><time>2016-08-06T17:40:28Z</time></trkpt>
<trkpt lat="46.18457" lon="7.25098"><ele>473</ele><time>2016-08-06T17:40:29Z</time></trkpt>
<trkpt lat="46.18452" lon="7.25082"><ele>473</ele><time>2016-08-06T17:40:31Z</time></trkpt>
<trkpt lat="46.18447" lon="7.25065"><ele>473</ele><time>2016-08-06T17:40:33Z</time></trkpt>
<trkpt lat="46.18444" lon="7.25057"><ele>473</ele><time>2016-08-06T17:40:34Z</time></trkpt>
<trkpt lat="46.18442" lon="7.25048"><ele>473</ele><time>2016-08-06T17:40:35Z</time></trkpt>
<trkpt lat="46.18439" lon="7.2503"><ele>473</ele><time>2016-08-06T17:40:37Z</time></trkpt>
<trkpt lat="46.18433" lon="7.25004"><ele>473</ele><time>2016-08-06T17:40:40Z</time></trkpt>
<trkpt lat="46.18431" lon="7.24995"><ele>473</ele><time>2016-08-06T17:40:41Z</time></trkpt>
<trkpt lat="46.18428" lon="7.24978"><ele>473</ele><time>2016-08-06T17:40:43Z</time></trkpt>
<trkpt lat="46.18425" lon="7.2496"><ele>473</ele><time>2016-08-06T17:40:45Z</time></trkpt>
<trkpt lat="46.18422" lon="7.24943"><ele>473</ele><time>2016-08-06T17:40:47Z</time></trkpt>
<trkpt lat="46.18419" lon="7.24925"><ele>473</ele><time>2016-08-06T17:40:49Z</time></trkpt>
<trkpt lat="46.18415" lon="7.2491"><ele>473</ele><time>2016-08-06T17:40:51Z</time></trkpt>
<trkpt lat="46.18411" lon="7.24895"><ele>473</ele><time>2016-08-06T17:40:53Z</time></trkpt>
<trkpt lat="46.18406" lon="7.24871"><ele>473</ele><time>2016-08-06T17:40:56Z</time></trkpt>
<trkpt lat="46.18404" lon="7.24864"><ele>473</ele><time>2016-08-06T17:40:57Z</time></trkpt>
<trkpt lat="46.18402" lon="7.24856"><ele>473.2</ele><time>2016-08-06T17:40:58Z</time></trkpt>
<trkpt lat="46.184" lon="7.24848"><ele>472.8</ele><time>2016-08-06T17:40:59Z</time></trkpt>
<trkpt lat="46.18398" lon="7.2484"><ele>472</ele><time>2016-08-06T17:41:00Z</time></trkpt>
<trkpt lat="46.18396" lon="7.24833"><ele>471</ele><time>2016-08-06T17:41:01Z</time></trkpt>
<trkpt lat="46.1839" lon="7.24819"><ele>469.4</ele><time>2016-08-06T17:41:03Z</time></trkpt>
<trkpt lat="46.18388" lon="7.24813"><ele>468.8</ele><time>2016-08-06T17:41:04Z</time></trkpt>
<trkpt lat="46.18383" lon="7.24799"><ele>469</ele><time>2016-08-06T17:41:06Z</time></trkpt>
<trkpt lat="46.18381" lon="7.24792"><ele>469.2</ele><time>2016-08-06T17:41:07Z</time></trkpt>
<trkpt lat="46.18378" lon="7.24777"><ele>469.4</ele><time>2016-08-06T17:41:09Z</time></trkpt>
<trkpt lat="46.18376" lon="7.24769"><ele>469.4</ele><time>2016-08-06T17:41:10Z</time></trkpt>
<trkpt lat="46.18375" lon="7.24762"><ele>469.4</ele><time>2016-08-06T17:41:11Z</time></trkpt>
<trkpt lat="46.18372" lon="7.24747"><ele>469.4</ele><time>2016-08-06T17:41:13Z</time></trkpt>
<trkpt lat="46.18368" lon="7.24732"><ele>469.4</ele><time>2016-08-06T17:41:15Z</time></trkpt>
<trkpt lat="46.18364" lon="7.24718"><ele>469.2</ele><time>2016-08-06T17:41:17Z</time></trkpt>
<trkpt lat="46.18361" lon="7.24704"><ele>468.8</ele><time>2016-08-06T17:41:19Z</time></trkpt>
<trkpt lat="46.18359" lon="7.24697"><ele>468.8</ele><time>2016-08-06T17:41:20Z</time></trkpt>
<trkpt lat="46.18357" lon="7.24689"><ele>468.6</ele><time>2016-08-06T17:41:21Z</time></trkpt>
<trkpt lat="46.18353" lon="7.24675"><ele>468.6</ele><time>2016-08-06T17:41:23Z</time></trkpt>
<trkpt lat="46.18351" lon="7.24668"><ele>468.4</ele><time>2016-08-06T17:41:24Z</time></trkpt>
<trkpt lat="46.18349" lon="7.24659"><ele>468.4</ele><time>2016-08-06T17:41:25Z</time></trkpt>
<trkpt lat="46.18348" lon="7.24651"><ele>468.4</ele><time>2016-08-06T17:41:26Z</time></trkpt>
<trkpt lat="46.18346" lon="7.24642"><ele>468.4</ele><time>2016-08-06T17:41:27Z</time></trkpt>
<trkpt lat="46.18343" lon="7.24625"><ele>468.4</ele><time>2016-08-06T17:41:29Z</time></trkpt>
<trkpt lat="46.1834" lon="7.24608"><ele>468.2</ele><time>2016-08-06T17:41:31Z</time></trkpt>
<trkpt lat="46.18338" lon="7.246"><ele>468.2</ele><time>2016-08-06T17:41:32Z</time></trkpt>
<trkpt lat="46.18336" lon="7.24591"><ele>468.2</ele><time>2016-08-06T17:41:33Z</time></trkpt>
<trkpt lat="46.18332" lon="7.24574"><ele>468.2</ele><time>2016-08-06T17:41:35Z</time></trkpt>
<trkpt lat="46.18328" lon="7.24557"><ele>468.2</ele><time>2016-08-06T17:41:37Z</time></trkpt>
<trkpt lat="46.18324" lon="7.2454"><ele>468.2</ele><time>2016-08-06T17:41:39Z</time></trkpt>
<trkpt lat="46.18322" lon="7.24532"><ele>468.2</ele><time>2016-08-06T17:41:40Z</time></trkpt>
<trkpt lat="46.18321" lon="7.24523"><ele>468.2</ele><time>2016-08-06T17:41:41Z</time></trkpt>
<trkpt lat="46.18318" lon="7.24505"><ele>468.2</ele><time>2016-08-06T17:41:43Z</time></trkpt>
<trkpt lat="46.18315" lon="7.24487"><ele>468</ele><time>2016-08-06T17:41:45Z</time></trkpt>
<trkpt lat="46.18313" lon="7.24469"><ele>468</ele><time>2016-08-06T17:41:47Z</time></trkpt>
<trkpt lat="46.18311" lon="7.24461"><ele>468</ele><time>2016-08-06T17:41:48Z</time></trkpt>
<trkpt lat="46.1831" lon="7.24452"><ele>468</ele><time>2016-08-06T17:41:49Z</time></trkpt>
<trkpt lat="46.18307" lon="7.24434"><ele>468</ele><time>2016-08-06T17:41:51Z</time></trkpt>
<trkpt lat="46.18304" lon="7.24417"><ele>468</ele><time>2016-08-06T17:41:53Z</time></trkpt>
<trkpt lat="46.18301" lon="7.24399"><ele>468</ele><time>2016-08-06T17:41:55Z</time></trkpt>
<trkpt lat="46.183" lon="7.2439"><ele>468</ele><time>2016-08-06T17:41:56Z</time></trkpt>
<trkpt lat="46.18298" lon="7.24382"><ele>468</ele><time>2016-08-06T17:41:57Z</time></trkpt>
<trkpt lat="46.18294" lon="7.24365"><ele>467.8</ele><time>2016-08-06T17:41:59Z</time></trkpt>
<trkpt lat="46.18292" lon="7.24356"><ele>467.8</ele><time>2016-08-06T17:42:00Z</time></trkpt>
<trkpt lat="46.18291" lon="7.24348"><ele>467.8</ele><time>2016-08-06T17:42:01Z</time></trkpt>
<trkpt lat="46.18288" lon="7.24331"><ele>467.8</ele><time>2016-08-06T17:42:03Z</time></trkpt>
<trkpt lat="46.18285" lon="7.24315"><ele>467.8</ele><time>2016-08-06T17:42:05Z</time></trkpt>
<trkpt lat="46.18284" lon="7.24307"><ele>467.8</ele><time>2016-08-06T17:42:06Z</time></trkpt>
<trkpt lat="46.18283" lon="7.24298"><ele>467.8</ele><time>2016-08-06T17:42:07Z</time></trkpt>
<trkpt lat="46.18281" lon="7.24281"><ele>467.8</ele><time>2016-08-06T17:42:09Z</time></trkpt>
<trkpt lat="46.1828" lon="7.24264"><ele>467.8</ele><time>2016-08-06T17:42:11Z</time></trkpt>
<trkpt lat="46.18278" lon="7.24247"><ele>467.8</ele><time>2016-08-06T17:42:13Z</time></trkpt>
<trkpt lat="46.18277" lon="7.24238"><ele>467.6</ele><time>2016-08-06T17:42:14Z</time></trkpt>
<trkpt lat="46.18275" lon="7.2423"><ele>467.6</ele><time>2016-08-06T17:42:15Z</time></trkpt>
<trkpt lat="46.18272" lon="7.24213"><ele>467.6</ele><time>2016-08-06T17:42:17Z</time></trkpt>
<trkpt lat="46.18269" lon="7.24196"><ele>467.6</ele><time>2016-08-06T17:42:19Z</time></trkpt>
<trkpt lat="46.18264" lon="7.2417"><ele>467.6</ele><time>2016-08-06T17:42:22Z</time></trkpt>
<trkpt lat="46.18262" lon="7.24154"><ele>467.6</ele><time>2016-08-06T17:42:24Z</time></trkpt>
<trkpt lat="46.18259" lon="7.24138"><ele>467.6</ele><time>2016-08-06T17:42:26Z</time></trkpt>
<trkpt lat="46.18257" lon="7.24122"><ele>467.4</ele><time>2016-08-06T17:42:28Z</time></trkpt>
<trkpt lat="46.18254" lon="7.24106"><ele>467.4</ele><time>2016-08-06T17:42:30Z</time></trkpt>
<trkpt lat="46.18251" lon="7.24087"><ele>467.4</ele><time>2016-08-06T17:42:32Z</time></trkpt>
<trkpt lat="46.18249" lon="7.24068"><ele>467.4</ele><time>2016-08-06T17:42:34Z</time></trkpt>
<trkpt lat="46.18246" lon="7.2405"><ele>467.4</ele><time>2016-08-06T17:42:36Z</time></trkpt>
<trkpt lat="46.18245" lon="7.2404"><ele>467.4</ele><time>2016-08-06T17:42:37Z</time></trkpt>
<trkpt lat="46.18243" lon="7.2403"><ele>467.4</ele><time>2016-08-06T17:42:38Z</time></trkpt>
<trkpt lat="46.18242" lon="7.24021"><ele>467.4</ele><time>2016-08-06T17:42:39Z</time></trkpt>
<trkpt lat="46.18236" lon="7.23991"><ele>467.4</ele><time>2016-08-06T17:42:42Z</time></trkpt>
<trkpt lat="46.18233" lon="7.23972"><ele>467.2</ele><time>2016-08-06T17:42:44Z</time></trkpt>
<trkpt lat="46.1823" lon="7.23952"><ele>467.2</ele><time>2016-08-06T17:42:46Z</time></trkpt>
<trkpt lat="46.18227" lon="7.23933"><ele>467.2</ele><time>2016-08-06T17:42:48Z</time></trkpt>
<trkpt lat="46.18224" lon="7.23914"><ele>467.2</ele><time>2016-08-06T17:42:50Z</time></trkpt>
<trkpt lat="46.18222" lon="7.23905"><ele>467.2</ele><time>2016-08-06T17:42:51Z</time></trkpt>
<trkpt lat="46.1822" lon="7.23895"><ele>467.2</ele><time>2016-08-06T17:42:52Z</time></trkpt>
<trkpt lat="46.18216" lon="7.23876"><ele>467.2</ele><time>2016-08-06T17:42:54Z</time></trkpt>
<trkpt lat="46.18213" lon="7.23858"><ele>467.2</ele><time>2016-08-06T17:42:56Z</time></trkpt>
<trkpt lat="46.18211" lon="7.23848"><ele>467.2</ele><time>2016-08-06T17:42:57Z</time></trkpt>
<trkpt lat="46.18209" lon="7.23839"><ele>467</ele><time>2016-08-06T17:42:58Z</time></trkpt>
<trkpt lat="46.18207" lon="7.23829"><ele>467</ele><time>2016-08-06T17:42:59Z</time></trkpt>
<trkpt lat="46.18204" lon="7.2381"><ele>467</ele><time>2016-08-06T17:43:01Z</time></trkpt>
<trkpt lat="46.18202" lon="7.23801"><ele>467</ele><time>2016-08-06T17:43:02Z</time></trkpt>
<trkpt lat="46.18201" lon="7.23791"><ele>467</ele><time>2016-08-06T17:43:03Z</time></trkpt>
<trkpt lat="46.18199" lon="7.23771"><ele>467</ele><time>2016-08-06T17:43:05Z</time></trkpt>
<trkpt lat="46.18196" lon="7.23741"><ele>467</ele><time>2016-08-06T17:43:08Z</time></trkpt>
<trkpt lat="46.18194" lon="7.23731"><ele>467</ele><time>2016-08-06T17:43:09Z</time></trkpt>
<trkpt lat="46.18191" lon="7.23712"><ele>467</ele><time>2016-08-06T17:43:11Z</time></trkpt>
<trkpt lat="46.18187" lon="7.23683"><ele>466.8</ele><time>2016-08-06T17:43:14Z</time></trkpt>
<trkpt lat="46.18184" lon="7.23665"><ele>466.8</ele><time>2016-08-06T17:43:16Z</time></trkpt>
<trkpt lat="46.18182" lon="7.23656"><ele>466.8</ele><time>2016-08-06T17:43:17Z</time></trkpt>
<trkpt lat="46.18176" lon="7.23629"><ele>466.8</ele><time>2016-08-06T17:43:20Z</time></trkpt>
<trkpt lat="46.18172" lon="7.23611"><ele>466.8</ele><time>2016-08-06T17:43:22Z</time></trkpt>
<trkpt lat="46.18171" lon="7.23602"><ele>466.8</ele><time>2016-08-06T17:43:23Z</time></trkpt>
<trkpt lat="46.18163" lon="7.23576"><ele>466.8</ele><time>2016-08-06T17:43:26Z</time></trkpt>
<trkpt lat="46.18161" lon="7.23568"><ele>466.6</ele><time>2016-08-06T17:43:27Z</time></trkpt>
<trkpt lat="46.18156" lon="7.23551"><ele>466.6</ele><time>2016-08-06T17:43:29Z</time></trkpt>
<trkpt lat="46.18151" lon="7.23534"><ele>466.6</ele><time>2016-08-06T17:43:31Z</time></trkpt>
<trkpt lat="46.18142" lon="7.2351"><ele>466.6</ele><time>2016-08-06T17:43:34Z</time></trkpt>
<trkpt lat="46.18139" lon="7.23502"><ele>466.6</ele><time>2016-08-06T17:43:35Z</time></trkpt>
<trkpt lat="46.1813" lon="7.23478"><ele>466.6</ele><time>2016-08-06T17:43:38Z</time></trkpt>
<trkpt lat="46.18126" lon="7.23471"><ele>466.6</ele><time>2016-08-06T17:43:39Z</time></trkpt>
<trkpt lat="46.1812" lon="7.23458"><ele>466.6</ele><time>2016-08-06T17:43:41Z</time></trkpt>
<trkpt lat="46.18109" lon="7.23438"><ele>466.4</ele><time>2016-08-06T17:43:44Z</time></trkpt>
<trkpt lat="46.18103" lon="7.23425"><ele>466.4</ele><time>2016-08-06T17:43:46Z</time></trkpt>
<trkpt lat="46.18099" lon="7.23418"><ele>466.4</ele><time>2016-08-06T17:43:47Z</time></trkpt>
<trkpt lat="46.1809" lon="7.23405"><ele>466.4</ele><time>2016-08-06T17:43:49Z</time></trkpt>
<trkpt lat="46.18076" lon="7.23385"><ele>466.4</ele><time>2016-08-06T17:43:52Z</time></trkpt>
<trkpt lat="46.18072" lon="7.23378"><ele>466.4</ele><time>2016-08-06T17:43:53Z</time></trkpt>
<trkpt lat="46.18067" lon="7.23372"><ele>466.4</ele><time>2016-08-06T17:43:54Z</time></trkpt>
<trkpt lat="46.18059" lon="7.23363"><ele>466.2</ele><time>2016-08-06T17:43:56Z</time></trkpt>
<trkpt lat="46.1805" lon="7.23353"><ele>466.2</ele><time>2016-08-06T17:43:58Z</time></trkpt>
<trkpt lat="46.18046" lon="7.23348"><ele>466.2</ele><time>2016-08-06T17:43:59Z</time></trkpt>
<trkpt lat="46.18037" lon="7.23338"><ele>466.2</ele><time>2016-08-06T17:44:01Z</time></trkpt>
<trkpt lat="46.18029" lon="7.23329"><ele>466.2</ele><time>2016-08-06T17:44:03Z</time></trkpt>
<trkpt lat="46.18025" lon="7.23326"><ele>466.2</ele><time>2016-08-06T17:44:04Z</time></trkpt>
<trkpt lat="46.18016" lon="7.23319"><ele>466.2</ele><time>2016-08-06T17:44:06Z</time></trkpt>
<trkpt lat="46.18008" lon="7.23313"><ele>466.2</ele><time>2016-08-06T17:44:08Z</time></trkpt>
<trkpt lat="46.18" lon="7.23306"><ele>466.2</ele><time>2016-08-06T17:44:10Z</time></trkpt>
<trkpt lat="46.17995" lon="7.23288"><ele>465</ele><time>2016-08-06T17:44:11Z</time></trkpt>
<trkpt lat="46.17995" lon="7.23288"><ele>465</ele><time>2016-08-06T17:45:13Z</time></trkpt>
<trkpt lat="46.17993" lon="7.23273"><ele>464</ele><time>2016-08-06T17:45:14Z</time></trkpt>
<trkpt lat="46.17991" lon="7.23266"><ele>463.8</ele><time>2016-08-06T17:45:15Z</time></trkpt>
<trkpt lat="46.17987" lon="7.23259"><ele>463.6</ele><time>2016-08-06T17:45:16Z</time></trkpt>
<trkpt lat="46.17982" lon="7.23254"><ele>463.6</ele><time>2016-08-06T17:45:17Z</time></trkpt>
<trkpt lat="46.17966" lon="7.23238"><ele>463</ele><time>2016-08-06T17:45:20Z</time></trkpt>
<trkpt lat="46.17955" lon="7.23227"><ele>462.6</ele><time>2016-08-06T17:45:22Z</time></trkpt>
<trkpt lat="46.1795" lon="7.23222"><ele>462.6</ele><time>2016-08-06T17:45:23Z</time></trkpt>
<trkpt lat="46.17942" lon="7.23209"><ele>463</ele><time>2016-08-06T17:45:25Z</time></trkpt>
<trkpt lat="46.17931" lon="7.23191"><ele>463.8</ele><time>2016-08-06T17:45:28Z</time></trkpt>
<trkpt lat="46.17927" lon="7.23185"><ele>464</ele><time>2016-08-06T17:45:29Z</time></trkpt>
<trkpt lat="46.17919" lon="7.23172"><ele>464</ele><time>2016-08-06T17:45:31Z</time></trkpt>
<trkpt lat="46.17908" lon="7.23153"><ele>464.2</ele><time>2016-08-06T17:45:34Z</time></trkpt>
<trkpt lat="46.17904" lon="7.23147"><ele>464.4</ele><time>2016-08-06T17:45:35Z</time></trkpt>
<trkpt lat="46.17897" lon="7.23135"><ele>464.6</ele><time>2016-08-06T17:45:37Z</time></trkpt>
<trkpt lat="46.1789" lon="7.23122"><ele>464.6</ele><time>2016-08-06T17:45:39Z</time></trkpt>
<trkpt lat="46.17883" lon="7.23109"><ele>464.8</ele><time>2016-08-06T17:45:41Z</time></trkpt>
<trkpt lat="46.17873" lon="7.23091"><ele>465</ele><time>2016-08-06T17:45:44Z</time></trkpt>
<trkpt lat="46.17869" lon="7.23084"><ele>465</ele><time>2016-08-06T17:45:45Z</time></trkpt>
<trkpt lat="46.17863" lon="7.23072"><ele>465.2</ele><time>2016-08-06T17:45:47Z</time></trkpt>
<trkpt lat="46.17859" lon="7.23066"><ele>465.4</ele><time>2016-08-06T17:45:48Z</time></trkpt>
<trkpt lat="46.17856" lon="7.2306"><ele>465.4</ele><time>2016-08-06T17:45:49Z</time></trkpt>
<trkpt lat="46.1785" lon="7.23048"><ele>465.6</ele><time>2016-08-06T17:45:51Z</time></trkpt>
<trkpt lat="46.17843" lon="7.23036"><ele>465.6</ele><time>2016-08-06T17:45:53Z</time></trkpt>
<trkpt lat="46.17834" lon="7.23018"><ele>466</ele><time>2016-08-06T17:45:56Z</time></trkpt>
<trkpt lat="46.17831" lon="7.23012"><ele>466</ele><time>2016-08-06T17:45:57Z</time></trkpt>
<trkpt lat="46.17826" lon="7.23001"><ele>466.2</ele><time>2016-08-06T17:45:59Z</time></trkpt>
<trkpt lat="46.17821" lon="7.22989"><ele>466.2</ele><time>2016-08-06T17:46:01Z</time></trkpt>
<trkpt lat="46.17816" lon="7.22977"><ele>466.4</ele><time>2016-08-06T17:46:03Z</time></trkpt>
<trkpt lat="46.17814" lon="7.22971"><ele>466</ele><time>2016-08-06T17:46:04Z</time></trkpt>
<trkpt lat="46.17812" lon="7.22966"><ele>465.8</ele><time>2016-08-06T17:46:05Z</time></trkpt>
<trkpt lat="46.1781" lon="7.22959"><ele>465.6</ele><time>2016-08-06T17:46:06Z</time></trkpt>
<trkpt lat="46.1781" lon="7.22952"><ele>465.2</ele><time>2016-08-06T17:46:07Z</time></trkpt>
<trkpt lat="46.1781" lon="7.22937"><ele>464.8</ele><time>2016-08-06T17:46:09Z</time></trkpt>
<trkpt lat="46.1781" lon="7.2293"><ele>464.8</ele><time>2016-08-06T17:46:10Z</time></trkpt>
<trkpt lat="46.1781" lon="7.22923"><ele>464.8</ele><time>2016-08-06T17:46:11Z</time></trkpt>
<trkpt lat="46.17811" lon="7.22901"><ele>464.8</ele><time>2016-08-06T17:46:14Z</time></trkpt>
<trkpt lat="46.17811" lon="7.22894"><ele>464.8</ele><time>2016-08-06T17:46:15Z</time></trkpt>
<trkpt lat="46.17812" lon="7.22885"><ele>464.8</ele><time>2016-08-06T17:46:17Z</time></trkpt>
<trkpt lat="46.17813" lon="7.22875"><ele>464.8</ele><time>2016-08-06T17:46:19Z</time></trkpt>
<trkpt lat="46.17814" lon="7.22866"><ele>465</ele><time>2016-08-06T17:46:21Z</time></trkpt>
<trkpt lat="46.17815" lon="7.22857"><ele>465</ele><time>2016-08-06T17:46:23Z</time></trkpt>
<trkpt lat="46.17815" lon="7.22852"><ele>465</ele><time>2016-08-06T17:46:24Z</time></trkpt>
<trkpt lat="46.17809" lon="7.22846"><ele>465</ele><time>2016-08-06T17:46:26Z</time></trkpt>
<trkpt lat="46.17803" lon="7.2284"><ele>465</ele><time>2016-08-06T17:46:28Z</time></trkpt>
<trkpt lat="46.178" lon="7.22836"><ele>465</ele><time>2016-08-06T17:46:29Z</time></trkpt>
<trkpt lat="46.17794" lon="7.2283"><ele>465</ele><time>2016-08-06T17:46:31Z</time></trkpt>
<trkpt lat="46.17785" lon="7.2282"><ele>465</ele><time>2016-08-06T17:46:34Z</time></trkpt>
<trkpt lat="46.17783" lon="7.22817"><ele>465</ele><time>2016-08-06T17:46:35Z</time></trkpt>
<trkpt lat="46.17777" lon="7.22811"><ele>465</ele><time>2016-08-06T17:46:37Z</time></trkpt>
<trkpt lat="46.17776" lon="7.22806"><ele>465</ele><time>2016-08-06T17:46:38Z</time></trkpt>
<trkpt lat="46.17774" lon="7.22801"><ele>465</ele><time>2016-08-06T17:46:39Z</time></trkpt>
<trkpt lat="46.17773" lon="7.22796"><ele>465</ele><time>2016-08-06T17:46:40Z</time></trkpt>
<trkpt lat="46.17775" lon="7.22791"><ele>465</ele><time>2016-08-06T17:46:41Z</time></trkpt>
<trkpt lat="46.17781" lon="7.22777"><ele>465</ele><time>2016-08-06T17:46:44Z</time></trkpt>
<trkpt lat="46.17785" lon="7.22768"><ele>465</ele><time>2016-08-06T17:46:46Z</time></trkpt>
<trkpt lat="46.17787" lon="7.22763"><ele>465</ele><time>2016-08-06T17:46:47Z</time></trkpt>
<trkpt lat="46.1779" lon="7.22753"><ele>465</ele><time>2016-08-06T17:46:49Z</time></trkpt>
<trkpt lat="46.17794" lon="7.22744"><ele>465</ele><time>2016-08-06T17:46:51Z</time></trkpt>
<trkpt lat="46.17796" lon="7.22739"><ele>465</ele><time>2016-08-06T17:46:52Z</time></trkpt>
<trkpt lat="46.17798" lon="7.22735"><ele>465</ele><time>2016-08-06T17:46:53Z</time></trkpt>
<trkpt lat="46.17801" lon="7.22726"><ele>465</ele><time>2016-08-06T17:46:55Z</time></trkpt>
<trkpt lat="46.17804" lon="7.22717"><ele>465</ele><time>2016-08-06T17:46:57Z</time></trkpt>
<trkpt lat="46.17809" lon="7.22703"><ele>465.2</ele><time>2016-08-06T17:47:00Z</time></trkpt>
<trkpt lat="46.17811" lon="7.22699"><ele>465.2</ele><time>2016-08-06T17:47:01Z</time></trkpt>
<trkpt lat="46.17814" lon="7.2269"><ele>465.2</ele><time>2016-08-06T17:47:03Z</time></trkpt>
<trkpt lat="46.17817" lon="7.2268"><ele>465.2</ele><time>2016-08-06T17:47:05Z</time></trkpt>
<trkpt lat="46.17821" lon="7.22669"><ele>465.2</ele><time>2016-08-06T17:47:07Z</time></trkpt>
<trkpt lat="46.17828" lon="7.22652"><ele>465.2</ele><time>2016-08-06T17:47:10Z</time></trkpt>
<trkpt lat="46.17832" lon="7.2264"><ele>465.2</ele><time>2016-08-06T17:47:12Z</time></trkpt>
<trkpt lat="46.17836" lon="7.22628"><ele>465.2</ele><time>2016-08-06T17:47:14Z</time></trkpt>
<trkpt lat="46.17835" lon="7.22611"><ele>465.2</ele><time>2016-08-06T17:47:16Z</time></trkpt>
<trkpt lat="46.17835" lon="7.22602"><ele>465.2</ele><time>2016-08-06T17:47:17Z</time></trkpt>
<trkpt lat="46.17836" lon="7.22584"><ele>465.2</ele><time>2016-08-06T17:47:19Z</time></trkpt>
<trkpt lat="46.17844" lon="7.22556"><ele>465.2</ele><time>2016-08-06T17:47:22Z</time></trkpt>
<trkpt lat="46.17853" lon="7.22548"><ele>465.2</ele><time>2016-08-06T17:47:24Z</time></trkpt>
<trkpt lat="46.17857" lon="7.22544"><ele>465.2</ele><time>2016-08-06T17:47:25Z</time></trkpt>
<trkpt lat="46.17862" lon="7.22534"><ele>465.2</ele><time>2016-08-06T17:47:27Z</time></trkpt>
<trkpt lat="46.17867" lon="7.22523"><ele>465.2</ele><time>2016-08-06T17:47:29Z</time></trkpt>
<trkpt lat="46.17871" lon="7.22513"><ele>465.2</ele><time>2016-08-06T17:47:31Z</time></trkpt>
<trkpt lat="46.17876" lon="7.22503"><ele>465.2</ele><time>2016-08-06T17:47:33Z</time></trkpt>
<trkpt lat="46.17883" lon="7.22488"><ele>465.4</ele><time>2016-08-06T17:47:36Z</time></trkpt>
<trkpt lat="46.17886" lon="7.22475"><ele>465.4</ele><time>2016-08-06T17:47:38Z</time></trkpt>
<trkpt lat="46.17888" lon="7.22462"><ele>465.4</ele><time>2016-08-06T17:47:40Z</time></trkpt>
<trkpt lat="46.17887" lon="7.22449"><ele>465.4</ele><time>2016-08-06T17:47:42Z</time></trkpt>
<trkpt lat="46.17886" lon="7.22442"><ele>465.4</ele><time>2016-08-06T17:47:43Z</time></trkpt>
<trkpt lat="46.17886" lon="7.22428"><ele>465.4</ele><time>2016-08-06T17:47:45Z</time></trkpt>
<trkpt lat="46.17888" lon="7.22415"><ele>465.4</ele><time>2016-08-06T17:47:47Z</time></trkpt>
<trkpt lat="46.17891" lon="7.22395"><ele>465.4</ele><time>2016-08-06T17:47:50Z</time></trkpt>
<trkpt lat="46.17892" lon="7.22388"><ele>465.4</ele><time>2016-08-06T17:47:51Z</time></trkpt>
<trkpt lat="46.17894" lon="7.22375"><ele>465.4</ele><time>2016-08-06T17:47:53Z</time></trkpt>
<trkpt lat="46.17892" lon="7.22361"><ele>465.4</ele><time>2016-08-06T17:47:55Z</time></trkpt>
<trkpt lat="46.17891" lon="7.22347"><ele>465.4</ele><time>2016-08-06T17:47:57Z</time></trkpt>
<trkpt lat="46.17892" lon="7.22334"><ele>465.4</ele><time>2016-08-06T17:47:59Z</time></trkpt>
<trkpt lat="46.17893" lon="7.22321"><ele>465.4</ele><time>2016-08-06T17:48:01Z</time></trkpt>
<trkpt lat="46.17895" lon="7.22301"><ele>465.4</ele><time>2016-08-06T17:48:04Z</time></trkpt>
<trkpt lat="46.17896" lon="7.22295"><ele>465.4</ele><time>2016-08-06T17:48:05Z</time></trkpt>
<trkpt lat="46.17897" lon="7.22282"><ele>465.4</ele><time>2016-08-06T17:48:07Z</time></trkpt>
<trkpt lat="46.17897" lon="7.22263"><ele>465.4</ele><time>2016-08-06T17:48:10Z</time></trkpt>
<trkpt lat="46.17896" lon="7.22256"><ele>465.4</ele><time>2016-08-06T17:48:11Z</time></trkpt>
<trkpt lat="46.17896" lon="7.22243"><ele>465.6</ele><time>2016-08-06T17:48:13Z</time></trkpt>
<trkpt lat="46.17896" lon="7.22231"><ele>465.6</ele><time>2016-08-06T17:48:15Z</time></trkpt>
<trkpt lat="46.17895" lon="7.22218"><ele>465.6</ele><time>2016-08-06T17:48:17Z</time></trkpt>
<trkpt lat="46.17895" lon="7.22212"><ele>465.6</ele><time>2016-08-06T17:48:18Z</time></trkpt>
<trkpt lat="46.17896" lon="7.22202"><ele>465.6</ele><time>2016-08-06T17:48:20Z</time></trkpt>
<trkpt lat="46.17894" lon="7.22196"><ele>465.6</ele><time>2016-08-06T17:48:21Z</time></trkpt>
<trkpt lat="46.17893" lon="7.22184"><ele>465.6</ele><time>2016-08-06T17:48:23Z</time></trkpt>
<trkpt lat="46.17892" lon="7.22165"><ele>465.6</ele><time>2016-08-06T17:48:26Z</time></trkpt>
<trkpt lat="46.17891" lon="7.22159"><ele>465.6</ele><time>2016-08-06T17:48:27Z</time></trkpt>
<trkpt lat="46.17891" lon="7.22147"><ele>465.6</ele><time>2016-08-06T17:48:29Z</time></trkpt>
<trkpt lat="46.1789" lon="7.22135"><ele>465.6</ele><time>2016-08-06T17:48:31Z</time></trkpt>
<trkpt lat="46.1789" lon="7.22129"><ele>465.6</ele><time>2016-08-06T17:48:32Z</time></trkpt>
<trkpt lat="46.17889" lon="7.22123"><ele>465.6</ele><time>2016-08-06T17:48:33Z</time></trkpt>
<trkpt lat="46.17889" lon="7.22109"><ele>465.6</ele><time>2016-08-06T17:48:35Z</time></trkpt>
<trkpt lat="46.17888" lon="7.22096"><ele>465.6</ele><time>2016-08-06T17:48:37Z</time></trkpt>
<trkpt lat="46.17887" lon="7.22083"><ele>465.6</ele><time>2016-08-06T17:48:39Z</time></trkpt>
<trkpt lat="46.17886" lon="7.2207"><ele>465.6</ele><time>2016-08-06T17:48:41Z</time></trkpt>
<trkpt lat="46.17886" lon="7.22063"><ele>465.6</ele><time>2016-08-06T17:48:42Z</time></trkpt>
<trkpt lat="46.17885" lon="7.22047"><ele>465.6</ele><time>2016-08-06T17:48:44Z</time></trkpt>
<trkpt lat="46.17885" lon="7.22031"><ele>465.6</ele><time>2016-08-06T17:48:46Z</time></trkpt>
<trkpt lat="46.17884" lon="7.22023"><ele>465.6</ele><time>2016-08-06T17:48:47Z</time></trkpt>
<trkpt lat="46.17884" lon="7.22007"><ele>465.6</ele><time>2016-08-06T17:48:49Z</time></trkpt>
<trkpt lat="46.17883" lon="7.2199"><ele>465.8</ele><time>2016-08-06T17:48:51Z</time></trkpt>
<trkpt lat="46.17883" lon="7.21981"><ele>465.8</ele><time>2016-08-06T17:48:52Z</time></trkpt>
<trkpt lat="46.17882" lon="7.21972"><ele>465.8</ele><time>2016-08-06T17:48:53Z</time></trkpt>
<trkpt lat="46.17881" lon="7.21955"><ele>465.8</ele><time>2016-08-06T17:48:55Z</time></trkpt>
<trkpt lat="46.1788" lon="7.21928"><ele>465.8</ele><time>2016-08-06T17:48:58Z</time></trkpt>
<trkpt lat="46.1788" lon="7.21919"><ele>465.8</ele><time>2016-08-06T17:48:59Z</time></trkpt>
<trkpt lat="46.1788" lon="7.21902"><ele>465.8</ele><time>2016-08-06T17:49:01Z</time></trkpt>
<trkpt lat="46.1788" lon="7.21886"><ele>465.8</ele><time>2016-08-06T17:49:03Z</time></trkpt>
<trkpt lat="46.17879" lon="7.21877"><ele>465.8</ele><time>2016-08-06T17:49:04Z</time></trkpt>
<trkpt lat="46.17879" lon="7.2187"><ele>465.8</ele><time>2016-08-06T17:49:05Z</time></trkpt>
<trkpt lat="46.17878" lon="7.21854"><ele>465.8</ele><time>2016-08-06T17:49:07Z</time></trkpt>
<trkpt lat="46.17877" lon="7.21838"><ele>465.8</ele><time>2016-08-06T17:49:09Z</time></trkpt>
<trkpt lat="46.17877" lon="7.21831"><ele>465.8</ele><time>2016-08-06T17:49:10Z</time></trkpt>
<trkpt lat="46.17878" lon="7.21825"><ele>465.8</ele><time>2016-08-06T17:49:11Z</time></trkpt>
<trkpt lat="46.1788" lon="7.21807"><ele>465.8</ele><time>2016-08-06T17:49:14Z</time></trkpt>
<trkpt lat="46.17881" lon="7.21795"><ele>465.8</ele><time>2016-08-06T17:49:16Z</time></trkpt>
<trkpt lat="46.17881" lon="7.21789"><ele>465.8</ele><time>2016-08-06T17:49:17Z</time></trkpt>
<trkpt lat="46.17879" lon="7.21776"><ele>465.8</ele><time>2016-08-06T17:49:19Z</time></trkpt>
<trkpt lat="46.17875" lon="7.21755"><ele>465.8</ele><time>2016-08-06T17:49:22Z</time></trkpt>
<trkpt lat="46.17874" lon="7.21749"><ele>465.8</ele><time>2016-08-06T17:49:23Z</time></trkpt>
<trkpt lat="46.1787" lon="7.21728"><ele>465.8</ele><time>2016-08-06T17:49:26Z</time></trkpt>
<trkpt lat="46.1787" lon="7.21718"><ele>465.8</ele><time>2016-08-06T17:49:27Z</time></trkpt>
<trkpt lat="46.17869" lon="7.21699"><ele>466</ele><time>2016-08-06T17:49:29Z</time></trkpt>
<trkpt lat="46.17868" lon="7.2168"><ele>466</ele><time>2016-08-06T17:49:31Z</time></trkpt>
<trkpt lat="46.17868" lon="7.21661"><ele>466</ele><time>2016-08-06T17:49:33Z</time></trkpt>
<trkpt lat="46.17866" lon="7.21643"><ele>466</ele><time>2016-08-06T17:49:35Z</time></trkpt>
<trkpt lat="46.17864" lon="7.21616"><ele>466</ele><time>2016-08-06T17:49:38Z</time></trkpt>
<trkpt lat="46.17864" lon="7.21607"><ele>466</ele><time>2016-08-06T17:49:39Z</time></trkpt>
<trkpt lat="46.17863" lon="7.21589"><ele>466</ele><time>2016-08-06T17:49:41Z</time></trkpt>
<trkpt lat="46.17863" lon="7.21571"><ele>466</ele><time>2016-08-06T17:49:43Z</time></trkpt>
<trkpt lat="46.17863" lon="7.21545"><ele>466</ele><time>2016-08-06T17:49:46Z</time></trkpt>
<trkpt lat="46.17864" lon="7.21536"><ele>466</ele><time>2016-08-06T17:49:47Z</time></trkpt>
<trkpt lat="46.17867" lon="7.21505"><ele>466</ele><time>2016-08-06T17:49:50Z</time></trkpt>
<trkpt lat="46.17868" lon="7.21494"><ele>466</ele><time>2016-08-06T17:49:51Z</time></trkpt>
<trkpt lat="46.1787" lon="7.21473"><ele>466</ele><time>2016-08-06T17:49:53Z</time></trkpt>
<trkpt lat="46.1787" lon="7.21463"><ele>466</ele><time>2016-08-06T17:49:54Z</time></trkpt>
<trkpt lat="46.17867" lon="7.21442"><ele>466</ele><time>2016-08-06T17:49:56Z</time></trkpt>
<trkpt lat="46.17866" lon="7.21432"><ele>466</ele><time>2016-08-06T17:49:57Z</time></trkpt>
<trkpt lat="46.17863" lon="7.21411"><ele>466</ele><time>2016-08-06T17:49:59Z</time></trkpt>
<trkpt lat="46.1786" lon="7.21391"><ele>466</ele><time>2016-08-06T17:50:01Z</time></trkpt>
<trkpt lat="46.17855" lon="7.21366"><ele>466</ele><time>2016-08-06T17:50:04Z</time></trkpt>
<trkpt lat="46.17854" lon="7.21357"><ele>466</ele><time>2016-08-06T17:50:05Z</time></trkpt>
<trkpt lat="46.17853" lon="7.21341"><ele>466.2</ele><time>2016-08-06T17:50:07Z</time></trkpt>
<trkpt lat="46.17853" lon="7.21324"><ele>466.2</ele><time>2016-08-06T17:50:09Z</time></trkpt>
<trkpt lat="46.17852" lon="7.21307"><ele>466.2</ele><time>2016-08-06T17:50:11Z</time></trkpt>
<trkpt lat="46.17852" lon="7.21291"><ele>466.2</ele><time>2016-08-06T17:50:13Z</time></trkpt>
<trkpt lat="46.17851" lon="7.21272"><ele>466.2</ele><time>2016-08-06T17:50:15Z</time></trkpt>
<trkpt lat="46.17851" lon="7.21254"><ele>466.2</ele><time>2016-08-06T17:50:17Z</time></trkpt>
<trkpt lat="46.17851" lon="7.21235"><ele>466</ele><time>2016-08-06T17:50:19Z</time></trkpt>
<trkpt lat="46.1785" lon="7.21217"><ele>466</ele><time>2016-08-06T17:50:21Z</time></trkpt>
<trkpt lat="46.1785" lon="7.21208"><ele>465.8</ele><time>2016-08-06T17:50:22Z</time></trkpt>
<trkpt lat="46.17849" lon="7.21199"><ele>465.8</ele><time>2016-08-06T17:50:23Z</time></trkpt>
<trkpt lat="46.17849" lon="7.21181"><ele>465.8</ele><time>2016-08-06T17:50:25Z</time></trkpt>
<trkpt lat="46.17848" lon="7.21163"><ele>465.8</ele><time>2016-08-06T17:50:27Z</time></trkpt>
<trkpt lat="46.17847" lon="7.21144"><ele>465.6</ele><time>2016-08-06T17:50:29Z</time></trkpt>
<trkpt lat="46.17847" lon="7.21126"><ele>465.6</ele><time>2016-08-06T17:50:31Z</time></trkpt>
<trkpt lat="46.17846" lon="7.21098"><ele>465.4</ele><time>2016-08-06T17:50:34Z</time></trkpt>
<trkpt lat="46.17846" lon="7.21088"><ele>465.4</ele><time>2016-08-06T17:50:35Z</time></trkpt>
<trkpt lat="46.17845" lon="7.21079"><ele>465.4</ele><time>2016-08-06T17:50:36Z</time></trkpt>
<trkpt lat="46.17845" lon="7.2107"><ele>465.4</ele><time>2016-08-06T17:50:37Z</time></trkpt>
<trkpt lat="46.17844" lon="7.21051"><ele>465.4</ele><time>2016-08-06T17:50:39Z</time></trkpt>
<trkpt lat="46.17844" lon="7.21032"><ele>465.2</ele><time>2016-08-06T17:50:41Z</time></trkpt>
<trkpt lat="46.17843" lon="7.21014"><ele>465.2</ele><time>2016-08-06T17:50:43Z</time></trkpt>
<trkpt lat="46.17842" lon="7.21004"><ele>465.2</ele><time>2016-08-06T17:50:44Z</time></trkpt>
<trkpt lat="46.17842" lon="7.20995"><ele>465.2</ele><time>2016-08-06T17:50:45Z</time></trkpt>
<trkpt lat="46.1784" lon="7.20977"><ele>465</ele><time>2016-08-06T17:50:47Z</time></trkpt>
<trkpt lat="46.17838" lon="7.2095"><ele>465</ele><time>2016-08-06T17:50:50Z</time></trkpt>
<trkpt lat="46.17837" lon="7.20941"><ele>465</ele><time>2016-08-06T17:50:51Z</time></trkpt>
<trkpt lat="46.17836" lon="7.20932"><ele>464.8</ele><time>2016-08-06T17:50:52Z</time></trkpt>
<trkpt lat="46.17834" lon="7.20914"><ele>464.8</ele><time>2016-08-06T17:50:54Z</time></trkpt>
<trkpt lat="46.17831" lon="7.20896"><ele>464.8</ele><time>2016-08-06T17:50:56Z</time></trkpt>
<trkpt lat="46.17828" lon="7.20878"><ele>464.8</ele><time>2016-08-06T17:50:58Z</time></trkpt>
<trkpt lat="46.17827" lon="7.20869"><ele>464.6</ele><time>2016-08-06T17:50:59Z</time></trkpt>
<trkpt lat="46.17825" lon="7.20851"><ele>464.6</ele><time>2016-08-06T17:51:01Z</time></trkpt>
<trkpt lat="46.17822" lon="7.20833"><ele>464.6</ele><time>2016-08-06T17:51:03Z</time></trkpt>
<trkpt lat="46.1782" lon="7.20815"><ele>464.4</ele><time>2016-08-06T17:51:05Z</time></trkpt>
<trkpt lat="46.17818" lon="7.20806"><ele>464.4</ele><time>2016-08-06T17:51:06Z</time></trkpt>
<trkpt lat="46.17815" lon="7.20789"><ele>464.4</ele><time>2016-08-06T17:51:08Z</time></trkpt>
<trkpt lat="46.17814" lon="7.2078"><ele>464.4</ele><time>2016-08-06T17:51:09Z</time></trkpt>
<trkpt lat="46.17811" lon="7.20763"><ele>464.2</ele><time>2016-08-06T17:51:11Z</time></trkpt>
<trkpt lat="46.17808" lon="7.20745"><ele>464.2</ele><time>2016-08-06T17:51:13Z</time></trkpt>
<trkpt lat="46.17806" lon="7.20737"><ele>464.2</ele><time>2016-08-06T17:51:14Z</time></trkpt>
<trkpt lat="46.17802" lon="7.2072"><ele>464.2</ele><time>2016-08-06T17:51:16Z</time></trkpt>
<trkpt lat="46.178" lon="7.20711"><ele>464</ele><time>2016-08-06T17:51:17Z</time></trkpt>
<trkpt lat="46.17796" lon="7.20694"><ele>464</ele><time>2016-08-06T17:51:19Z</time></trkpt>
<trkpt lat="46.17789" lon="7.20669"><ele>464</ele><time>2016-08-06T17:51:22Z</time></trkpt>
<trkpt lat="46.17786" lon="7.2066"><ele>463.8</ele><time>2016-08-06T17:51:23Z</time></trkpt>
<trkpt lat="46.1778" lon="7.20642"><ele>463.8</ele><time>2016-08-06T17:51:25Z</time></trkpt>
<trkpt lat="46.17774" lon="7.20625"><ele>463.8</ele><time>2016-08-06T17:51:27Z</time></trkpt>
<trkpt lat="46.17767" lon="7.20607"><ele>463.6</ele><time>2016-08-06T17:51:29Z</time></trkpt>
<trkpt lat="46.1776" lon="7.2059"><ele>463.6</ele><time>2016-08-06T17:51:31Z</time></trkpt>
<trkpt lat="46.17752" lon="7.20565"><ele>463.6</ele><time>2016-08-06T17:51:34Z</time></trkpt>
<trkpt lat="46.17747" lon="7.20548"><ele>463.4</ele><time>2016-08-06T17:51:36Z</time></trkpt>
<trkpt lat="46.17742" lon="7.20532"><ele>463.4</ele><time>2016-08-06T17:51:38Z</time></trkpt>
<trkpt lat="46.1774" lon="7.20524"><ele>463.4</ele><time>2016-08-06T17:51:39Z</time></trkpt>
<trkpt lat="46.17737" lon="7.20516"><ele>463.4</ele><time>2016-08-06T17:51:40Z</time></trkpt>
<trkpt lat="46.17734" lon="7.20507"><ele>463.4</ele><time>2016-08-06T17:51:41Z</time></trkpt>
<trkpt lat="46.17731" lon="7.205"><ele>463.2</ele><time>2016-08-06T17:51:42Z</time></trkpt>
<trkpt lat="46.17723" lon="7.20484"><ele>463.2</ele><time>2016-08-06T17:51:44Z</time></trkpt>
<trkpt lat="46.17719" lon="7.20476"><ele>463.2</ele><time>2016-08-06T17:51:45Z</time></trkpt>
<trkpt lat="46.1771" lon="7.2046"><ele>463.2</ele><time>2016-08-06T17:51:47Z</time></trkpt>
<trkpt lat="46.17702" lon="7.20445"><ele>463</ele><time>2016-08-06T17:51:49Z</time></trkpt>
<trkpt lat="46.17698" lon="7.20437"><ele>463</ele><time>2016-08-06T17:51:50Z</time></trkpt>
<trkpt lat="46.17691" lon="7.20422"><ele>463</ele><time>2016-08-06T17:51:52Z</time></trkpt>
<trkpt lat="46.17683" lon="7.20406"><ele>462.8</ele><time>2016-08-06T17:51:54Z</time></trkpt>
<trkpt lat="46.17676" lon="7.20391"><ele>462.8</ele><time>2016-08-06T17:51:56Z</time></trkpt>
<trkpt lat="46.17672" lon="7.20385"><ele>462.8</ele><time>2016-08-06T17:51:57Z</time></trkpt>
<trkpt lat="46.17664" lon="7.20372"><ele>462.8</ele><time>2016-08-06T17:51:59Z</time></trkpt>
<trkpt lat="46.1766" lon="7.20365"><ele>462.6</ele><time>2016-08-06T17:52:00Z</time></trkpt>
<trkpt lat="46.17656" lon="7.20359"><ele>462.6</ele><time>2016-08-06T17:52:01Z</time></trkpt>
<trkpt lat="46.17649" lon="7.20345"><ele>462.4</ele><time>2016-08-06T17:52:03Z</time></trkpt>
<trkpt lat="46.17644" lon="7.20339"><ele>462.4</ele><time>2016-08-06T17:52:04Z</time></trkpt>
<trkpt lat="46.1764" lon="7.20331"><ele>462.4</ele><time>2016-08-06T17:52:05Z</time></trkpt>
<trkpt lat="46.17631" lon="7.20317"><ele>462.2</ele><time>2016-08-06T17:52:07Z</time></trkpt>
<trkpt lat="46.17622" lon="7.20303"><ele>462.2</ele><time>2016-08-06T17:52:09Z</time></trkpt>
<trkpt lat="46.17614" lon="7.20288"><ele>462</ele><time>2016-08-06T17:52:11Z</time></trkpt>
<trkpt lat="46.17605" lon="7.20275"><ele>461.8</ele><time>2016-08-06T17:52:13Z</time></trkpt>
<trkpt lat="46.17596" lon="7.20262"><ele>461.8</ele><time>2016-08-06T17:52:15Z</time></trkpt>
<trkpt lat="46.17587" lon="7.20248"><ele>461.6</ele><time>2016-08-06T17:52:17Z</time></trkpt>
<trkpt lat="46.17578" lon="7.20235"><ele>461.6</ele><time>2016-08-06T17:52:19Z</time></trkpt>
<trkpt lat="46.17571" lon="7.20223"><ele>461.4</ele><time>2016-08-06T17:52:21Z</time></trkpt>
<trkpt lat="46.17564" lon="7.20211"><ele>461.2</ele><time>2016-08-06T17:52:23Z</time></trkpt>
<trkpt lat="46.17557" lon="7.20199"><ele>461.2</ele><time>2016-08-06T17:52:25Z</time></trkpt>
<trkpt lat="46.1755" lon="7.20188"><ele>461</ele><time>2016-08-06T17:52:27Z</time></trkpt>
<trkpt lat="46.17546" lon="7.20182"><ele>461</ele><time>2016-08-06T17:52:28Z</time></trkpt>
<trkpt lat="46.17543" lon="7.20177"><ele>460.8</ele><time>2016-08-06T17:52:29Z</time></trkpt>
<trkpt lat="46.17536" lon="7.20167"><ele>460.8</ele><time>2016-08-06T17:52:31Z</time></trkpt>
<trkpt lat="46.17528" lon="7.20158"><ele>460.6</ele><time>2016-08-06T17:52:33Z</time></trkpt>
<trkpt lat="46.17523" lon="7.20148"><ele>460.6</ele><time>2016-08-06T17:52:35Z</time></trkpt>
<trkpt lat="46.17526" lon="7.20136"><ele>460.4</ele><time>2016-08-06T17:52:37Z</time></trkpt>
<trkpt lat="46.17536" lon="7.2013"><ele>460.2</ele><time>2016-08-06T17:52:39Z</time></trkpt>
<trkpt lat="46.17546" lon="7.20123"><ele>460.2</ele><time>2016-08-06T17:52:41Z</time></trkpt>
<trkpt lat="46.17551" lon="7.20119"><ele>460</ele><time>2016-08-06T17:52:42Z</time></trkpt>
<trkpt lat="46.17554" lon="7.20112"><ele>460</ele><time>2016-08-06T17:52:43Z</time></trkpt>
<trkpt lat="46.17555" lon="7.20105"><ele>460</ele><time>2016-08-06T17:52:44Z</time></trkpt>
<trkpt lat="46.17554" lon="7.20097"><ele>459.8</ele><time>2016-08-06T17:52:45Z</time></trkpt>
<trkpt lat="46.17552" lon="7.20081"><ele>459.8</ele><time>2016-08-06T17:52:47Z</time></trkpt>
<trkpt lat="46.17546" lon="7.20067"><ele>460</ele><time>2016-08-06T17:52:49Z</time></trkpt>
<trkpt lat="46.17541" lon="7.20053"><ele>460.2</ele><time>2016-08-06T17:52:51Z</time></trkpt>
<trkpt lat="46.17536" lon="7.20039"><ele>460.4</ele><time>2016-08-06T17:52:53Z</time></trkpt>
<trkpt lat="46.17531" lon="7.20025"><ele>460.6</ele><time>2016-08-06T17:52:55Z</time></trkpt>
<trkpt lat="46.17528" lon="7.20019"><ele>460.6</ele><time>2016-08-06T17:52:56Z</time></trkpt>
<trkpt lat="46.17525" lon="7.20011"><ele>460.6</ele><time>2016-08-06T17:52:57Z</time></trkpt>
<trkpt lat="46.17523" lon="7.20004"><ele>460.8</ele><time>2016-08-06T17:52:58Z</time></trkpt>
<trkpt lat="46.1752" lon="7.19997"><ele>460.6</ele><time>2016-08-06T17:52:59Z</time></trkpt>
<trkpt lat="46.17515" lon="7.19983"><ele>460.6</ele><time>2016-08-06T17:53:01Z</time></trkpt>
<trkpt lat="46.1751" lon="7.19969"><ele>460.6</ele><time>2016-08-06T17:53:03Z</time></trkpt>
<trkpt lat="46.17505" lon="7.19955"><ele>460.6</ele><time>2016-08-06T17:53:05Z</time></trkpt>
<trkpt lat="46.17499" lon="7.19939"><ele>460.4</ele><time>2016-08-06T17:53:07Z</time></trkpt>
<trkpt lat="46.17494" lon="7.19923"><ele>460.4</ele><time>2016-08-06T17:53:09Z</time></trkpt>
<trkpt lat="46.17488" lon="7.19907"><ele>460.4</ele><time>2016-08-06T17:53:11Z</time></trkpt>
<trkpt lat="46.17482" lon="7.19891"><ele>460.2</ele><time>2016-08-06T17:53:13Z</time></trkpt>
<trkpt lat="46.17475" lon="7.19877"><ele>460.2</ele><time>2016-08-06T17:53:15Z</time></trkpt>
<trkpt lat="46.17468" lon="7.19862"><ele>460.2</ele><time>2016-08-06T17:53:17Z</time></trkpt>
<trkpt lat="46.17461" lon="7.19847"><ele>460</ele><time>2016-08-06T17:53:19Z</time></trkpt>
<trkpt lat="46.17454" lon="7.19832"><ele>460</ele><time>2016-08-06T17:53:21Z</time></trkpt>
<trkpt lat="46.17442" lon="7.19821"><ele>460</ele><time>2016-08-06T17:53:23Z</time></trkpt>
<trkpt lat="46.17431" lon="7.19809"><ele>460</ele><time>2016-08-06T17:53:25Z</time></trkpt>
<trkpt lat="46.1742" lon="7.19797"><ele>459.8</ele><time>2016-08-06T17:53:27Z</time></trkpt>
<trkpt lat="46.17415" lon="7.19792"><ele>459.8</ele><time>2016-08-06T17:53:28Z</time></trkpt>
<trkpt lat="46.17409" lon="7.19787"><ele>459.8</ele><time>2016-08-06T17:53:29Z</time></trkpt>
<trkpt lat="46.17399" lon="7.19778"><ele>459.8</ele><time>2016-08-06T17:53:31Z</time></trkpt>
<trkpt lat="46.17388" lon="7.19769"><ele>459.6</ele><time>2016-08-06T17:53:33Z</time></trkpt>
<trkpt lat="46.17378" lon="7.1976"><ele>459.6</ele><time>2016-08-06T17:53:35Z</time></trkpt>
<trkpt lat="46.17372" lon="7.19755"><ele>459.6</ele><time>2016-08-06T17:53:36Z</time></trkpt>
<trkpt lat="46.17367" lon="7.1975"><ele>459.6</ele><time>2016-08-06T17:53:37Z</time></trkpt>
<trkpt lat="46.17357" lon="7.19741"><ele>459.4</ele><time>2016-08-06T17:53:39Z</time></trkpt>
<trkpt lat="46.17347" lon="7.19731"><ele>459.4</ele><time>2016-08-06T17:53:41Z</time></trkpt>
<trkpt lat="46.17336" lon="7.19721"><ele>459.4</ele><time>2016-08-06T17:53:43Z</time></trkpt>
<trkpt lat="46.17331" lon="7.19717"><ele>459.4</ele><time>2016-08-06T17:53:44Z</time></trkpt>
<trkpt lat="46.17325" lon="7.19712"><ele>459.4</ele><time>2016-08-06T17:53:45Z</time></trkpt>
<trkpt lat="46.17314" lon="7.19703"><ele>459.2</ele><time>2016-08-06T17:53:47Z</time></trkpt>
<trkpt lat="46.17303" lon="7.19693"><ele>459.2</ele><time>2016-08-06T17:53:49Z</time></trkpt>
<trkpt lat="46.17293" lon="7.19684"><ele>459.2</ele><time>2016-08-06T17:53:51Z</time></trkpt>
<trkpt lat="46.17287" lon="7.19679"><ele>459.2</ele><time>2016-08-06T17:53:52Z</time></trkpt>
<trkpt lat="46.17282" lon="7.19674"><ele>459</ele><time>2016-08-06T17:53:53Z</time></trkpt>
<trkpt lat="46.17272" lon="7.19664"><ele>459</ele><time>2016-08-06T17:53:55Z</time></trkpt>
<trkpt lat="46.17261" lon="7.19655"><ele>459</ele><time>2016-08-06T17:53:57Z</time></trkpt>
<trkpt lat="46.17251" lon="7.19645"><ele>458.8</ele><time>2016-08-06T17:53:59Z</time></trkpt>
<trkpt lat="46.17246" lon="7.1964"><ele>458.8</ele><time>2016-08-06T17:54:00Z</time></trkpt>
<trkpt lat="46.17241" lon="7.19636"><ele>458.8</ele><time>2016-08-06T17:54:01Z</time></trkpt>
<trkpt lat="46.17231" lon="7.19628"><ele>458.8</ele><time>2016-08-06T17:54:03Z</time></trkpt>
<trkpt lat="46.17222" lon="7.1962"><ele>458.8</ele><time>2016-08-06T17:54:05Z</time></trkpt>
<trkpt lat="46.17212" lon="7.19612"><ele>458.6</ele><time>2016-08-06T17:54:07Z</time></trkpt>
<trkpt lat="46.17202" lon="7.19604"><ele>458.6</ele><time>2016-08-06T17:54:09Z</time></trkpt>
<trkpt lat="46.17191" lon="7.19594"><ele>458.6</ele><time>2016-08-06T17:54:11Z</time></trkpt>
<trkpt lat="46.1718" lon="7.19585"><ele>458.4</ele><time>2016-08-06T17:54:13Z</time></trkpt>
<trkpt lat="46.17169" lon="7.19575"><ele>458.4</ele><time>2016-08-06T17:54:15Z</time></trkpt>
<trkpt lat="46.17163" lon="7.19571"><ele>458.4</ele><time>2016-08-06T17:54:16Z</time></trkpt>
<trkpt lat="46.17157" lon="7.19565"><ele>458.4</ele><time>2016-08-06T17:54:17Z</time></trkpt>
<trkpt lat="46.1714" lon="7.1955"><ele>458.2</ele><time>2016-08-06T17:54:20Z</time></trkpt>
<trkpt lat="46.17135" lon="7.19545"><ele>458.2</ele><time>2016-08-06T17:54:21Z</time></trkpt>
<trkpt lat="46.17124" lon="7.19534"><ele>458.2</ele><time>2016-08-06T17:54:23Z</time></trkpt>
<trkpt lat="46.17115" lon="7.19526"><ele>458.2</ele><time>2016-08-06T17:54:25Z</time></trkpt>
<trkpt lat="46.17106" lon="7.19517"><ele>458</ele><time>2016-08-06T17:54:27Z</time></trkpt>
<trkpt lat="46.17097" lon="7.19508"><ele>458</ele><time>2016-08-06T17:54:29Z</time></trkpt>
<trkpt lat="46.17093" lon="7.19503"><ele>458</ele><time>2016-08-06T17:54:30Z</time></trkpt>
<trkpt lat="46.17091" lon="7.19496"><ele>458</ele><time>2016-08-06T17:54:31Z</time></trkpt>
<trkpt lat="46.17085" lon="7.19478"><ele>457.8</ele><time>2016-08-06T17:54:34Z</time></trkpt>
<trkpt lat="46.17075" lon="7.1947"><ele>457.8</ele><time>2016-08-06T17:54:36Z</time></trkpt>
<trkpt lat="46.1707" lon="7.19466"><ele>457.8</ele><time>2016-08-06T17:54:37Z</time></trkpt>
<trkpt lat="46.17061" lon="7.19458"><ele>457.6</ele><time>2016-08-06T17:54:39Z</time></trkpt>
<trkpt lat="46.17051" lon="7.1945"><ele>457.6</ele><time>2016-08-06T17:54:41Z</time></trkpt>
<trkpt lat="46.17042" lon="7.19442"><ele>457.6</ele><time>2016-08-06T17:54:43Z</time></trkpt>
<trkpt lat="46.17032" lon="7.19434"><ele>457.6</ele><time>2016-08-06T17:54:45Z</time></trkpt>
<trkpt lat="46.17023" lon="7.19426"><ele>457.4</ele><time>2016-08-06T17:54:47Z</time></trkpt>
<trkpt lat="46.17014" lon="7.19419"><ele>457.4</ele><time>2016-08-06T17:54:49Z</time></trkpt>
<trkpt lat="46.17005" lon="7.19411"><ele>457.2</ele><time>2016-08-06T17:54:51Z</time></trkpt>
<trkpt lat="46.17001" lon="7.19407"><ele>457</ele><time>2016-08-06T17:54:52Z</time></trkpt>
<trkpt lat="46.16997" lon="7.19403"><ele>457</ele><time>2016-08-06T17:54:53Z</time></trkpt>
<trkpt lat="46.16989" lon="7.19395"><ele>456.8</ele><time>2016-08-06T17:54:55Z</time></trkpt>
<trkpt lat="46.16985" lon="7.19391"><ele>456.8</ele><time>2016-08-06T17:54:56Z</time></trkpt>
<trkpt lat="46.16982" lon="7.19387"><ele>456.6</ele><time>2016-08-06T17:54:57Z</time></trkpt>
<trkpt lat="46.16981" lon="7.19376"><ele>456.6</ele><time>2016-08-06T17:54:59Z</time></trkpt>
<trkpt lat="46.16984" lon="7.1937"><ele>456.6</ele><time>2016-08-06T17:55:00Z</time></trkpt>
<trkpt lat="46.16986" lon="7.19365"><ele>456.6</ele><time>2016-08-06T17:55:01Z</time></trkpt>
<trkpt lat="46.16989" lon="7.19359"><ele>456.6</ele><time>2016-08-06T17:55:02Z</time></trkpt>
<trkpt lat="46.16995" lon="7.19348"><ele>456.6</ele><time>2016-08-06T17:55:04Z</time></trkpt>
<trkpt lat="46.17001" lon="7.19337"><ele>456.6</ele><time>2016-08-06T17:55:06Z</time></trkpt>
<trkpt lat="46.17006" lon="7.19326"><ele>456.6</ele><time>2016-08-06T17:55:08Z</time></trkpt>
<trkpt lat="46.17009" lon="7.19321"><ele>456.6</ele><time>2016-08-06T17:55:09Z</time></trkpt>
<trkpt lat="46.17012" lon="7.19316"><ele>456.6</ele><time>2016-08-06T17:55:10Z</time></trkpt>
<trkpt lat="46.17017" lon="7.19306"><ele>456.6</ele><time>2016-08-06T17:55:12Z</time></trkpt>
<trkpt lat="46.17022" lon="7.19297"><ele>456.6</ele><time>2016-08-06T17:55:14Z</time></trkpt>
<trkpt lat="46.17027" lon="7.19287"><ele>456.6</ele><time>2016-08-06T17:55:16Z</time></trkpt>
<trkpt lat="46.1703" lon="7.19282"><ele>456.6</ele><time>2016-08-06T17:55:17Z</time></trkpt>
<trkpt lat="46.17035" lon="7.19273"><ele>456.6</ele><time>2016-08-06T17:55:19Z</time></trkpt>
<trkpt lat="46.17037" lon="7.19268"><ele>456.6</ele><time>2016-08-06T17:55:20Z</time></trkpt>
<trkpt lat="46.17039" lon="7.19264"><ele>456.6</ele><time>2016-08-06T17:55:21Z</time></trkpt>
<trkpt lat="46.17044" lon="7.19253"><ele>456.6</ele><time>2016-08-06T17:55:24Z</time></trkpt>
<trkpt lat="46.17045" lon="7.19249"><ele>456.6</ele><time>2016-08-06T17:55:25Z</time></trkpt>
<trkpt lat="46.1705" lon="7.19238"><ele>456.6</ele><time>2016-08-06T17:55:28Z</time></trkpt>
<trkpt lat="46.17052" lon="7.19234"><ele>456.6</ele><time>2016-08-06T17:55:29Z</time></trkpt>
<trkpt lat="46.17055" lon="7.19227"><ele>456.6</ele><time>2016-08-06T17:55:31Z</time></trkpt>
<trkpt lat="46.17056" lon="7.19223"><ele>456.6</ele><time>2016-08-06T17:55:32Z</time></trkpt>
<trkpt lat="46.17055" lon="7.19222"><ele>456.4</ele><time>2016-08-06T17:55:33Z</time></trkpt>
<trkpt lat="46.17051" lon="7.19216"><ele>456.4</ele><time>2016-08-06T17:55:36Z</time></trkpt>
<trkpt lat="46.17049" lon="7.19214"><ele>456.4</ele><time>2016-08-06T17:55:37Z</time></trkpt>
<trkpt lat="46.17036" lon="7.19185"><ele>456.2</ele><time>2016-08-06T17:55:39Z</time></trkpt>
<trkpt lat="46.17036" lon="7.19185"><ele>456.2</ele><time>2016-08-06T17:58:49Z</time></trkpt>
<trkpt lat="46.17026" lon="7.1916"><ele>456</ele><time>2016-08-06T17:58:51Z</time></trkpt>
<trkpt lat="46.17026" lon="7.1916"><ele>456</ele><time>2016-08-06T17:58:52Z</time></trkpt>
<trkpt lat="46.17025" lon="7.19161"><ele>456</ele><time>2016-08-06T17:58:53Z</time></trkpt>
<trkpt lat="46.17024" lon="7.19163"><ele>456</ele><time>2016-08-06T17:58:55Z</time></trkpt>
<trkpt lat="46.17023" lon="7.19165"><ele>456</ele><time>2016-08-06T17:58:57Z</time></trkpt>
<trkpt lat="46.17021" lon="7.19168"><ele>456</ele><time>2016-08-06T17:59:00Z</time></trkpt>
<trkpt lat="46.17021" lon="7.1917"><ele>456</ele><time>2016-08-06T17:59:01Z</time></trkpt>
<trkpt lat="46.1702" lon="7.19175"><ele>456</ele><time>2016-08-06T17:59:02Z</time></trkpt>
<trkpt lat="46.17019" lon="7.19193"><ele>456</ele><time>2016-08-06T17:59:03Z</time></trkpt>
<trkpt lat="46.17019" lon="7.19233"><ele>456</ele><time>2016-08-06T17:59:04Z</time></trkpt>
<trkpt lat="46.17019" lon="7.19241"><ele>456</ele><time>2016-08-06T17:59:06Z</time></trkpt>
<trkpt lat="46.17034" lon="7.19251"><ele>456</ele><time>2016-08-06T17:59:07Z</time></trkpt>
<trkpt lat="46.17034" lon="7.19249"><ele>456</ele><time>2016-08-06T17:59:08Z</time></trkpt>
<trkpt lat="46.17036" lon="7.19245"><ele>456</ele><time>2016-08-06T17:59:11Z</time></trkpt>
<trkpt lat="46.17038" lon="7.1924"><ele>456</ele><time>2016-08-06T17:59:14Z</time></trkpt>
<trkpt lat="46.17038" lon="7.19239"><ele>456</ele><time>2016-08-06T17:59:15Z</time></trkpt>
<trkpt lat="46.17039" lon="7.19238"><ele>456</ele><time>2016-08-06T17:59:16Z</time></trkpt>
<trkpt lat="46.1704" lon="7.19237"><ele>456</ele><time>2016-08-06T17:59:17Z</time></trkpt>
<trkpt lat="46.17041" lon="7.19235"><ele>455.8</ele><time>2016-08-06T17:59:19Z</time></trkpt>
<trkpt lat="46.17043" lon="7.19231"><ele>455.8</ele><time>2016-08-06T17:59:22Z</time></trkpt>
<trkpt lat="46.1704" lon="7.19229"><ele>455.8</ele><time>2016-08-06T17:59:24Z</time></trkpt>
<trkpt lat="46.17037" lon="7.19228"><ele>455.8</ele><time>2016-08-06T17:59:26Z</time></trkpt>
<trkpt lat="46.17036" lon="7.19227"><ele>455.8</ele><time>2016-08-06T17:59:27Z</time></trkpt>
<trkpt lat="46.17033" lon="7.19225"><ele>455.8</ele><time>2016-08-06T17:59:29Z</time></trkpt>
<trkpt lat="46.1703" lon="7.19223"><ele>455.8</ele><time>2016-08-06T17:59:31Z</time></trkpt>
<trkpt lat="46.17032" lon="7.19226"><ele>455.8</ele><time>2016-08-06T17:59:32Z</time></trkpt>
<trkpt lat="46.17041" lon="7.19239"><ele>455.8</ele><time>2016-08-06T17:59:33Z</time></trkpt>
<trkpt lat="46.17048" lon="7.19239"><ele>455.8</ele><time>2016-08-06T17:59:34Z</time></trkpt>
<trkpt lat="46.17046" lon="7.19219"><ele>455.8</ele><time>2016-08-06T17:59:35Z</time></trkpt>
<trkpt lat="46.17043" lon="7.1922"><ele>455.8</ele><time>2016-08-06T17:59:37Z</time></trkpt>
<trkpt lat="46.17054" lon="7.19239"><ele>455.8</ele><time>2016-08-06T17:59:40Z</time></trkpt>
<trkpt lat="46.17058" lon="7.19246"><ele>455.8</ele><time>2016-08-06T17:59:41Z</time></trkpt>
<trkpt lat="46.17058" lon="7.19246"><ele>455.8</ele><time>2016-08-06T18:00:28Z</time></trkpt>
<trkpt lat="46.17059" lon="7.19248"><ele>455.8</ele><time>2016-08-06T18:00:30Z</time></trkpt>
<trkpt lat="46.1706" lon="7.19248"><ele>455.8</ele><time>2016-08-06T18:00:31Z</time></trkpt>
<trkpt lat="46.17061" lon="7.19248"><ele>455.8</ele><time>2016-08-06T18:00:33Z</time></trkpt>
<trkpt lat="46.17062" lon="7.19249"><ele>455.6</ele><time>2016-08-06T18:00:35Z</time></trkpt>
<trkpt lat="46.17062" lon="7.19247"><ele>455.6</ele><time>2016-08-06T18:00:36Z</time></trkpt>
<trkpt lat="46.1706" lon="7.19243"><ele>455.6</ele><time>2016-08-06T18:00:37Z</time></trkpt>
<trkpt lat="46.17055" lon="7.19235"><ele>455.6</ele><time>2016-08-06T18:00:39Z</time></trkpt>
<trkpt lat="46.1705" lon="7.19226"><ele>455.6</ele><time>2016-08-06T18:00:41Z</time></trkpt>
<trkpt lat="46.17045" lon="7.19217"><ele>455.6</ele><time>2016-08-06T18:00:43Z</time></trkpt>
<trkpt lat="46.1704" lon="7.19209"><ele>455.6</ele><time>2016-08-06T18:00:45Z</time></trkpt>
<trkpt lat="46.17036" lon="7.192"><ele>455.6</ele><time>2016-08-06T18:00:47Z</time></trkpt>
<trkpt lat="46.17034" lon="7.19196"><ele>455.6</ele><time>2016-08-06T18:00:48Z</time></trkpt>
<trkpt lat="46.17035" lon="7.19193"><ele>455.6</ele><time>2016-08-06T18:00:49Z</time></trkpt>
<trkpt lat="46.17036" lon="7.19187"><ele>455.6</ele><time>2016-08-06T18:00:51Z</time></trkpt>
<trkpt lat="46.17037" lon="7.19181"><ele>455.6</ele><time>2016-08-06T18:00:53Z</time></trkpt>
<trkpt lat="46.17034" lon="7.19168"><ele>455.6</ele><time>2016-08-06T18:00:56Z</time></trkpt>
<trkpt lat="46.17033" lon="7.19163"><ele>455.6</ele><time>2016-08-06T18:00:57Z</time></trkpt>
<trkpt lat="46.1703" lon="7.19154"><ele>455.6</ele><time>2016-08-06T18:00:59Z</time></trkpt>
<trkpt lat="46.17028" lon="7.19145"><ele>455.6</ele><time>2016-08-06T18:01:01Z</time></trkpt>
<trkpt lat="46.17024" lon="7.19132"><ele>455.6</ele><time>2016-08-06T18:01:04Z</time></trkpt>
<trkpt lat="46.17023" lon="7.19127"><ele>455.6</ele><time>2016-08-06T18:01:05Z</time></trkpt>
<trkpt lat="46.17021" lon="7.1912"><ele>455.6</ele><time>2016-08-06T18:01:07Z</time></trkpt>
<trkpt lat="46.17021" lon="7.19123"><ele>455.6</ele><time>2016-08-06T18:01:08Z</time></trkpt>
<trkpt lat="46.17021" lon="7.19129"><ele>455.6</ele><time>2016-08-06T18:01:10Z</time></trkpt>
<trkpt lat="46.17021" lon="7.19131"><ele>455.6</ele><time>2016-08-06T18:01:11Z</time></trkpt>
<trkpt lat="46.17021" lon="7.19133"><ele>455.6</ele><time>2016-08-06T18:01:12Z</time></trkpt>
<trkpt lat="46.17022" lon="7.19134"><ele>455.6</ele><time>2016-08-06T18:01:14Z</time></trkpt>
<trkpt lat="46.17023" lon="7.19134"><ele>455.6</ele><time>2016-08-06T18:01:16Z</time></trkpt>
<trkpt lat="46.17023" lon="7.19137"><ele>455.6</ele><time>2016-08-06T18:01:17Z</time></trkpt>
<trkpt lat="46.17019" lon="7.19152"><ele>455.6</ele><time>2016-08-06T18:01:19Z</time></trkpt>
<trkpt lat="46.17016" lon="7.19168"><ele>455.6</ele><time>2016-08-06T18:01:21Z</time></trkpt>
<trkpt lat="46.17012" lon="7.19184"><ele>455.6</ele><time>2016-08-06T18:01:23Z</time></trkpt>
<trkpt lat="46.17011" lon="7.19191"><ele>455.6</ele><time>2016-08-06T18:01:24Z</time></trkpt>
<trkpt lat="46.17011" lon="7.19194"><ele>455.6</ele><time>2016-08-06T18:01:26Z</time></trkpt>
<trkpt lat="46.17011" lon="7.19196"><ele>455.6</ele><time>2016-08-06T18:01:27Z</time></trkpt>
<trkpt lat="46.17011" lon="7.19199"><ele>455.6</ele><time>2016-08-06T18:01:29Z</time></trkpt>
<trkpt lat="46.17012" lon="7.19203"><ele>455.6</ele><time>2016-08-06T18:01:31Z</time></trkpt>
<trkpt lat="46.17012" lon="7.19208"><ele>455.6</ele><time>2016-08-06T18:01:34Z</time></trkpt>
<trkpt lat="46.17012" lon="7.1921"><ele>455.6</ele><time>2016-08-06T18:01:35Z</time></trkpt>
<trkpt lat="46.17013" lon="7.19215"><ele>455.6</ele><time>2016-08-06T18:01:38Z</time></trkpt>
<trkpt lat="46.17013" lon="7.19216"><ele>455.6</ele><time>2016-08-06T18:01:39Z</time></trkpt>
<trkpt lat="46.17013" lon="7.1922"><ele>455.6</ele><time>2016-08-06T18:01:41Z</time></trkpt>
<trkpt lat="46.17014" lon="7.19223"><ele>455.6</ele><time>2016-08-06T18:01:43Z</time></trkpt>
<trkpt lat="46.17014" lon="7.19227"><ele>455.6</ele><time>2016-08-06T18:01:45Z</time></trkpt>
<trkpt lat="46.17014" lon="7.1923"><ele>455.6</ele><time>2016-08-06T18:01:47Z</time></trkpt>
<trkpt lat="46.17015" lon="7.19235"><ele>455.4</ele><time>2016-08-06T18:01:50Z</time></trkpt>
<trkpt lat="46.17015" lon="7.19237"><ele>455.4</ele><time>2016-08-06T18:01:51Z</time></trkpt>
<trkpt lat="46.17016" lon="7.19244"><ele>455.4</ele><time>2016-08-06T18:01:53Z</time></trkpt>
<trkpt lat="46.17018" lon="7.19254"><ele>455.4</ele><time>2016-08-06T18:01:56Z</time></trkpt>
<trkpt lat="46.17018" lon="7.19257"><ele>455.4</ele><time>2016-08-06T18:01:57Z</time></trkpt>
<trkpt lat="46.17019" lon="7.19263"><ele>455.4</ele><time>2016-08-06T18:01:59Z</time></trkpt>
<trkpt lat="46.1702" lon="7.1927"><ele>455.4</ele><time>2016-08-06T18:02:01Z</time></trkpt>
<trkpt lat="46.17022" lon="7.1928"><ele>455.4</ele><time>2016-08-06T18:02:04Z</time></trkpt>
<trkpt lat="46.17022" lon="7.19283"><ele>455.4</ele><time>2016-08-06T18:02:05Z</time></trkpt>
<trkpt lat="46.17024" lon="7.19288"><ele>455.4</ele><time>2016-08-06T18:02:07Z</time></trkpt>
<trkpt lat="46.17027" lon="7.19285"><ele>455.4</ele><time>2016-08-06T18:02:08Z</time></trkpt>
<trkpt lat="46.1703" lon="7.19283"><ele>455.4</ele><time>2016-08-06T18:02:09Z</time></trkpt>
<trkpt lat="46.17039" lon="7.19277"><ele>455.4</ele><time>2016-08-06T18:02:12Z</time></trkpt>
<trkpt lat="46.17042" lon="7.19267"><ele>455.4</ele><time>2016-08-06T18:02:14Z</time></trkpt>
<trkpt lat="46.17033" lon="7.19232"><ele>455.4</ele><time>2016-08-06T18:02:16Z</time></trkpt>
<trkpt lat="46.17037" lon="7.19231"><ele>455.4</ele><time>2016-08-06T18:02:17Z</time></trkpt>
<trkpt lat="46.17044" lon="7.19229"><ele>455.4</ele><time>2016-08-06T18:02:19Z</time></trkpt>
<trkpt lat="46.1705" lon="7.19231"><ele>455.4</ele><time>2016-08-06T18:02:22Z</time></trkpt>
<trkpt lat="46.17052" lon="7.19232"><ele>455.4</ele><time>2016-08-06T18:02:23Z</time></trkpt>
<trkpt lat="46.17056" lon="7.19233"><ele>455.4</ele><time>2016-08-06T18:02:25Z</time></trkpt>
<trkpt lat="46.1706" lon="7.19235"><ele>455.4</ele><time>2016-08-06T18:02:27Z</time></trkpt>
<trkpt lat="46.17064" lon="7.19236"><ele>455.4</ele><time>2016-08-06T18:02:29Z</time></trkpt>
<trkpt lat="46.17068" lon="7.19238"><ele>455.4</ele><time>2016-08-06T18:02:31Z</time></trkpt>
<trkpt lat="46.17072" lon="7.19239"><ele>455.4</ele><time>2016-08-06T18:02:33Z</time></trkpt>
<trkpt lat="46.17077" lon="7.19241"><ele>455.4</ele><time>2016-08-06T18:02:35Z</time></trkpt>
<trkpt lat="46.17074" lon="7.19239"><ele>455.4</ele><time>2016-08-06T18:02:37Z</time></trkpt>
<trkpt lat="46.17052" lon="7.19228"><ele>455.4</ele><time>2016-08-06T18:02:38Z</time></trkpt>
<trkpt lat="46.17031" lon="7.1922"><ele>455.4</ele><time>2016-08-06T18:02:39Z</time></trkpt>
<trkpt lat="46.1703" lon="7.19223"><ele>455.4</ele><time>2016-08-06T18:02:41Z</time></trkpt>
<trkpt lat="46.17029" lon="7.19227"><ele>455.4</ele><time>2016-08-06T18:02:44Z</time></trkpt>
<trkpt lat="46.17029" lon="7.19228"><ele>455.4</ele><time>2016-08-06T18:02:45Z</time></trkpt>
<trkpt lat="46.17028" lon="7.19231"><ele>455.4</ele><time>2016-08-06T18:02:47Z</time></trkpt>
<trkpt lat="46.17027" lon="7.19235"><ele>455.4</ele><time>2016-08-06T18:02:50Z</time></trkpt>
<trkpt lat="46.17026" lon="7.19236"><ele>455.4</ele><time>2016-08-06T18:02:51Z</time></trkpt>
<trkpt lat="46.17025" lon="7.1924"><ele>455.4</ele><time>2016-08-06T18:02:54Z</time></trkpt>
<trkpt lat="46.17024" lon="7.19241"><ele>455.4</ele><time>2016-08-06T18:02:55Z</time></trkpt>
<trkpt lat="46.17023" lon="7.19244"><ele>455.4</ele><time>2016-08-06T18:02:57Z</time></trkpt>
<trkpt lat="46.17023" lon="7.19247"><ele>455.4</ele><time>2016-08-06T18:02:59Z</time></trkpt>
<trkpt lat="46.17022" lon="7.19247"><ele>455.4</ele><time>2016-08-06T18:03:00Z</time></trkpt>
<trkpt lat="46.17022" lon="7.19246"><ele>455.4</ele><time>2016-08-06T18:03:01Z</time></trkpt>
<trkpt lat="46.1702" lon="7.19244"><ele>455.4</ele><time>2016-08-06T18:03:03Z</time></trkpt>
<trkpt lat="46.17019" lon="7.19241"><ele>455.2</ele><time>2016-08-06T18:03:05Z</time></trkpt>
<trkpt lat="46.17018" lon="7.19239"><ele>455.2</ele><time>2016-08-06T18:03:07Z</time></trkpt>
<trkpt lat="46.17018" lon="7.19238"><ele>455.2</ele><time>2016-08-06T18:03:08Z</time></trkpt>
<trkpt lat="46.1702" lon="7.19238"><ele>455.2</ele><time>2016-08-06T18:03:09Z</time></trkpt>
<trkpt lat="46.17023" lon="7.19238"><ele>455.2</ele><time>2016-08-06T18:03:11Z</time></trkpt>
<trkpt lat="46.17029" lon="7.19238"><ele>455.2</ele><time>2016-08-06T18:03:14Z</time></trkpt>
<trkpt lat="46.17031" lon="7.19237"><ele>455.2</ele><time>2016-08-06T18:03:16Z</time></trkpt>
<trkpt lat="46.17029" lon="7.19237"><ele>455.2</ele><time>2016-08-06T18:03:17Z</time></trkpt>
<trkpt lat="46.17026" lon="7.19236"><ele>455.2</ele><time>2016-08-06T18:03:19Z</time></trkpt>
<trkpt lat="46.17022" lon="7.19234"><ele>455.2</ele><time>2016-08-06T18:03:21Z</time></trkpt>
<trkpt lat="46.17019" lon="7.19233"><ele>455.2</ele><time>2016-08-06T18:03:23Z</time></trkpt>
<trkpt lat="46.17016" lon="7.19232"><ele>455.2</ele><time>2016-08-06T18:03:25Z</time></trkpt>
<trkpt lat="46.17016" lon="7.19232"><ele>455.2</ele><time>2016-08-06T18:03:27Z</time></trkpt>
<trkpt lat="46.17019" lon="7.19228"><ele>455.2</ele><time>2016-08-06T18:03:29Z</time></trkpt>
<trkpt lat="46.17019" lon="7.19228"><ele>455.2</ele><time>2016-08-06T18:05:02Z</time></trkpt>
<trkpt lat="46.17022" lon="7.19225"><ele>455</ele><time>2016-08-06T18:05:03Z</time></trkpt>
<trkpt lat="46.17022" lon="7.19225"><ele>455</ele><time>2016-08-06T18:05:05Z</time></trkpt>
<trkpt lat="46.17026" lon="7.19221"><ele>454.8</ele><time>2016-08-06T18:05:10Z</time></trkpt>
<trkpt lat="46.17026" lon="7.19221"><ele>454.8</ele><time>2016-08-06T18:07:50Z</time></trkpt>
<trkpt lat="46.17029" lon="7.19218"><ele>454.6</ele><time>2016-08-06T18:07:52Z</time></trkpt>
<trkpt lat="46.17029" lon="7.19218"><ele>454.6</ele><time>2016-08-06T18:07:53Z</time></trkpt>
<trkpt lat="46.17029" lon="7.19217"><ele>454.6</ele><time>2016-08-06T18:07:54Z</time></trkpt>
<trkpt lat="46.17029" lon="7.19215"><ele>454.6</ele><time>2016-08-06T18:07:55Z</time></trkpt>
<trkpt lat="46.17028" lon="7.19208"><ele>454.6</ele><time>2016-08-06T18:07:58Z</time></trkpt>
<trkpt lat="46.17028" lon="7.19205"><ele>454.6</ele><time>2016-08-06T18:07:59Z</time></trkpt>
<trkpt lat="46.17028" lon="7.19201"><ele>454.6</ele><time>2016-08-06T18:08:01Z</time></trkpt>
<trkpt lat="46.17028" lon="7.19201"><ele>454.6</ele><time>2016-08-06T18:08:04Z</time></trkpt>
<trkpt lat="46.17028" lon="7.19201"><ele>454.4</ele><time>2016-08-06T18:08:05Z</time></trkpt>
<trkpt lat="46.17028" lon="7.19201"><ele>454.2</ele><time>2016-08-06T18:08:07Z</time></trkpt>
<trkpt lat="46.17028" lon="7.19201"><ele>454.2</ele><time>2016-08-06T18:08:09Z</time></trkpt>
<trkpt lat="46.17021" lon="7.192"><ele>432.8</ele><time>2016-08-06T18:11:57Z</time></trkpt>
<trkpt lat="46.17021" lon="7.192"><ele>432.8</ele><time>2016-08-06T18:12:01Z</time></trkpt>
<trkpt lat="46.17021" lon="7.192"><ele>432.8</ele><time>2016-08-06T18:12:03Z</time></trkpt>
<trkpt lat="46.17022" lon="7.192"><ele>433</ele><time>2016-08-06T18:12:05Z</time></trkpt>
<trkpt lat="46.17022" lon="7.192"><ele>433</ele><time>2016-08-06T18:12:07Z</time></trkpt>
<trkpt lat="46.17022" lon="7.192"><ele>433</ele><time>2016-08-06T18:12:09Z</time></trkpt>
<trkpt lat="46.17022" lon="7.192"><ele>433.2</ele><time>2016-08-06T18:12:11Z</time></trkpt>
<trkpt lat="46.17022" lon="7.192"><ele>433.2</ele><time>2016-08-06T18:12:13Z</time></trkpt>
<trkpt lat="46.17023" lon="7.19201"><ele>433.2</ele><time>2016-08-06T18:12:14Z</time></trkpt>
<trkpt lat="46.17023" lon="7.19203"><ele>433.2</ele><time>2016-08-06T18:12:15Z</time></trkpt>
<trkpt lat="46.17024" lon="7.19207"><ele>433.4</ele><time>2016-08-06T18:12:17Z</time></trkpt>
<trkpt lat="46.17024" lon="7.19208"><ele>433.4</ele><time>2016-08-06T18:12:18Z</time></trkpt>
<trkpt lat="46.17021" lon="7.19202"><ele>433.4</ele><time>2016-08-06T18:12:20Z</time></trkpt>
<trkpt lat="46.17017" lon="7.19194"><ele>433.6</ele><time>2016-08-06T18:12:23Z</time></trkpt>
<trkpt lat="46.17015" lon="7.19192"><ele>433.6</ele><time>2016-08-06T18:12:24Z</time></trkpt>
<trkpt lat="46.17012" lon="7.19186"><ele>433.6</ele><time>2016-08-06T18:12:26Z</time></trkpt>
<trkpt lat="46.17009" lon="7.19181"><ele>433.6</ele><time>2016-08-06T18:12:28Z</time></trkpt>
<trkpt lat="46.17006" lon="7.19175"><ele>433.8</ele><time>2016-08-06T18:12:30Z</time></trkpt>
<trkpt lat="46.17003" lon="7.1917"><ele>433.8</ele><time>2016-08-06T18:12:32Z</time></trkpt>
<trkpt lat="46.17" lon="7.19164"><ele>433.8</ele><time>2016-08-06T18:12:34Z</time></trkpt>
<trkpt lat="46.16997" lon="7.19159"><ele>434</ele><time>2016-08-06T18:12:36Z</time></trkpt>
<trkpt lat="46.16995" lon="7.19156"><ele>434</ele><time>2016-08-06T18:12:37Z</time></trkpt>
<trkpt lat="46.16992" lon="7.19153"><ele>434</ele><time>2016-08-06T18:12:38Z</time></trkpt>
<trkpt lat="46.16986" lon="7.19148"><ele>434</ele><time>2016-08-06T18:12:40Z</time></trkpt>
<trkpt lat="46.1698" lon="7.19143"><ele>434.2</ele><time>2016-08-06T18:12:42Z</time></trkpt>
<trkpt lat="46.16974" lon="7.19137"><ele>434.2</ele><time>2016-08-06T18:12:44Z</time></trkpt>
<trkpt lat="46.16968" lon="7.19132"><ele>434.2</ele><time>2016-08-06T18:12:46Z</time></trkpt>
<trkpt lat="46.16962" lon="7.19127"><ele>434.4</ele><time>2016-08-06T18:12:48Z</time></trkpt>
<trkpt lat="46.16956" lon="7.19122"><ele>434.4</ele><time>2016-08-06T18:12:50Z</time></trkpt>
<trkpt lat="46.16951" lon="7.19124"><ele>434.4</ele><time>2016-08-06T18:12:52Z</time></trkpt>
<trkpt lat="46.16948" lon="7.19125"><ele>434.4</ele><time>2016-08-06T18:12:53Z</time></trkpt>
<trkpt lat="46.16945" lon="7.1913"><ele>434.6</ele><time>2016-08-06T18:12:54Z</time></trkpt>
<trkpt lat="46.16939" lon="7.19141"><ele>434.6</ele><time>2016-08-06T18:12:56Z</time></trkpt>
<trkpt lat="46.16933" lon="7.19152"><ele>434.6</ele><time>2016-08-06T18:12:58Z</time></trkpt>
<trkpt lat="46.16927" lon="7.19163"><ele>434.6</ele><time>2016-08-06T18:13:00Z</time></trkpt>
<trkpt lat="46.1692" lon="7.19174"><ele>434.8</ele><time>2016-08-06T18:13:02Z</time></trkpt>
<trkpt lat="46.16917" lon="7.19179"><ele>434.8</ele><time>2016-08-06T18:13:03Z</time></trkpt>
<trkpt lat="46.16915" lon="7.19184"><ele>434.8</ele><time>2016-08-06T18:13:04Z</time></trkpt>
<trkpt lat="46.16911" lon="7.19194"><ele>434.8</ele><time>2016-08-06T18:13:06Z</time></trkpt>
<trkpt lat="46.16906" lon="7.19204"><ele>435</ele><time>2016-08-06T18:13:08Z</time></trkpt>
<trkpt lat="46.16902" lon="7.19214"><ele>435</ele><time>2016-08-06T18:13:10Z</time></trkpt>
<trkpt lat="46.16897" lon="7.19224"><ele>435</ele><time>2016-08-06T18:13:12Z</time></trkpt>
<trkpt lat="46.16892" lon="7.19232"><ele>435.2</ele><time>2016-08-06T18:13:14Z</time></trkpt>
<trkpt lat="46.16887" lon="7.19241"><ele>435.2</ele><time>2016-08-06T18:13:16Z</time></trkpt>
<trkpt lat="46.16883" lon="7.1925"><ele>435.2</ele><time>2016-08-06T18:13:18Z</time></trkpt>
<trkpt lat="46.16878" lon="7.19259"><ele>435.4</ele><time>2016-08-06T18:13:20Z</time></trkpt>
<trkpt lat="46.16873" lon="7.19268"><ele>435.4</ele><time>2016-08-06T18:13:22Z</time></trkpt>
<trkpt lat="46.16868" lon="7.19275"><ele>435.4</ele><time>2016-08-06T18:13:24Z</time></trkpt>
<trkpt lat="46.16861" lon="7.19276"><ele>435.6</ele><time>2016-08-06T18:13:26Z</time></trkpt>
<trkpt lat="46.16857" lon="7.19275"><ele>435.6</ele><time>2016-08-06T18:13:27Z</time></trkpt>
<trkpt lat="46.16854" lon="7.19272"><ele>435.6</ele><time>2016-08-06T18:13:28Z</time></trkpt>
<trkpt lat="46.1685" lon="7.19268"><ele>435.6</ele><time>2016-08-06T18:13:29Z</time></trkpt>
<trkpt lat="46.16847" lon="7.19262"><ele>435.6</ele><time>2016-08-06T18:13:30Z</time></trkpt>
<trkpt lat="46.16839" lon="7.19251"><ele>435.8</ele><time>2016-08-06T18:13:32Z</time></trkpt>
<trkpt lat="46.16832" lon="7.19239"><ele>435.8</ele><time>2016-08-06T18:13:34Z</time></trkpt>
<trkpt lat="46.16824" lon="7.19228"><ele>435.8</ele><time>2016-08-06T18:13:36Z</time></trkpt>
<trkpt lat="46.16817" lon="7.19217"><ele>436</ele><time>2016-08-06T18:13:38Z</time></trkpt>
<trkpt lat="46.16811" lon="7.19204"><ele>436</ele><time>2016-08-06T18:13:40Z</time></trkpt>
<trkpt lat="46.16805" lon="7.19192"><ele>436</ele><time>2016-08-06T18:13:42Z</time></trkpt>
<trkpt lat="46.16799" lon="7.1918"><ele>435.8</ele><time>2016-08-06T18:13:44Z</time></trkpt>
<trkpt lat="46.16794" lon="7.19168"><ele>435.4</ele><time>2016-08-06T18:13:46Z</time></trkpt>
<trkpt lat="46.16791" lon="7.19163"><ele>435.2</ele><time>2016-08-06T18:13:47Z</time></trkpt>
<trkpt lat="46.16788" lon="7.19158"><ele>435.2</ele><time>2016-08-06T18:13:48Z</time></trkpt>
<trkpt lat="46.16784" lon="7.19149"><ele>434.8</ele><time>2016-08-06T18:13:50Z</time></trkpt>
<trkpt lat="46.16779" lon="7.1914"><ele>434.6</ele><time>2016-08-06T18:13:52Z</time></trkpt>
<trkpt lat="46.16777" lon="7.19135"><ele>434.4</ele><time>2016-08-06T18:13:53Z</time></trkpt>
<trkpt lat="46.16773" lon="7.19138"><ele>434.2</ele><time>2016-08-06T18:13:54Z</time></trkpt>
<trkpt lat="46.16765" lon="7.19144"><ele>434</ele><time>2016-08-06T18:13:56Z</time></trkpt>
<trkpt lat="46.16757" lon="7.19151"><ele>433.8</ele><time>2016-08-06T18:13:58Z</time></trkpt>
<trkpt lat="46.16754" lon="7.19154"><ele>433.6</ele><time>2016-08-06T18:13:59Z</time></trkpt>
<trkpt lat="46.1675" lon="7.19157"><ele>433.6</ele><time>2016-08-06T18:14:00Z</time></trkpt>
<trkpt lat="46.16746" lon="7.19161"><ele>433.6</ele><time>2016-08-06T18:14:01Z</time></trkpt>
<trkpt lat="46.16742" lon="7.19167"><ele>433.6</ele><time>2016-08-06T18:14:02Z</time></trkpt>
<trkpt lat="46.16738" lon="7.19172"><ele>433.6</ele><time>2016-08-06T18:14:03Z</time></trkpt>
<trkpt lat="46.16733" lon="7.19177"><ele>433.4</ele><time>2016-08-06T18:14:04Z</time></trkpt>
<trkpt lat="46.16728" lon="7.19182"><ele>433.4</ele><time>2016-08-06T18:14:05Z</time></trkpt>
<trkpt lat="46.16723" lon="7.19187"><ele>433.6</ele><time>2016-08-06T18:14:06Z</time></trkpt>
<trkpt lat="46.16709" lon="7.19201"><ele>433.8</ele><time>2016-08-06T18:14:09Z</time></trkpt>
<trkpt lat="46.16699" lon="7.19211"><ele>433.8</ele><time>2016-08-06T18:14:11Z</time></trkpt>
<trkpt lat="46.1669" lon="7.19221"><ele>434</ele><time>2016-08-06T18:14:13Z</time></trkpt>
<trkpt lat="46.16681" lon="7.19232"><ele>434</ele><time>2016-08-06T18:14:15Z</time></trkpt>
<trkpt lat="46.16672" lon="7.19242"><ele>434.2</ele><time>2016-08-06T18:14:17Z</time></trkpt>
<trkpt lat="46.16663" lon="7.19252"><ele>434.2</ele><time>2016-08-06T18:14:19Z</time></trkpt>
<trkpt lat="46.16658" lon="7.19257"><ele>434.4</ele><time>2016-08-06T18:14:20Z</time></trkpt>
<trkpt lat="46.16643" lon="7.19273"><ele>434.6</ele><time>2016-08-06T18:14:23Z</time></trkpt>
<trkpt lat="46.16633" lon="7.19283"><ele>434.6</ele><time>2016-08-06T18:14:25Z</time></trkpt>
<trkpt lat="46.16623" lon="7.19293"><ele>434.8</ele><time>2016-08-06T18:14:27Z</time></trkpt>
<trkpt lat="46.16614" lon="7.19303"><ele>434.8</ele><time>2016-08-06T18:14:29Z</time></trkpt>
<trkpt lat="46.16605" lon="7.19314"><ele>435</ele><time>2016-08-06T18:14:31Z</time></trkpt>
<trkpt lat="46.16596" lon="7.19324"><ele>435</ele><time>2016-08-06T18:14:33Z</time></trkpt>
<trkpt lat="46.16586" lon="7.19335"><ele>435.2</ele><time>2016-08-06T18:14:35Z</time></trkpt>
<trkpt lat="46.16577" lon="7.19346"><ele>435.4</ele><time>2016-08-06T18:14:37Z</time></trkpt>
<trkpt lat="46.16568" lon="7.19357"><ele>435.4</ele><time>2016-08-06T18:14:39Z</time></trkpt>
<trkpt lat="46.16558" lon="7.19368"><ele>435.6</ele><time>2016-08-06T18:14:41Z</time></trkpt>
<trkpt lat="46.16549" lon="7.1938"><ele>435.6</ele><time>2016-08-06T18:14:43Z</time></trkpt>
<trkpt lat="46.16539" lon="7.1939"><ele>435.8</ele><time>2016-08-06T18:14:45Z</time></trkpt>
<trkpt lat="46.1653" lon="7.194"><ele>435.8</ele><time>2016-08-06T18:14:47Z</time></trkpt>
<trkpt lat="46.1652" lon="7.1941"><ele>436</ele><time>2016-08-06T18:14:49Z</time></trkpt>
<trkpt lat="46.16515" lon="7.19415"><ele>436</ele><time>2016-08-06T18:14:50Z</time></trkpt>
<trkpt lat="46.1651" lon="7.1942"><ele>436.2</ele><time>2016-08-06T18:14:51Z</time></trkpt>
<trkpt lat="46.16501" lon="7.1943"><ele>436.2</ele><time>2016-08-06T18:14:53Z</time></trkpt>
<trkpt lat="46.16497" lon="7.19435"><ele>436.4</ele><time>2016-08-06T18:14:54Z</time></trkpt>
<trkpt lat="46.16484" lon="7.1945"><ele>436.4</ele><time>2016-08-06T18:14:57Z</time></trkpt>
<trkpt lat="46.16479" lon="7.19455"><ele>436.6</ele><time>2016-08-06T18:14:58Z</time></trkpt>
<trkpt lat="46.16474" lon="7.19459"><ele>436.6</ele><time>2016-08-06T18:14:59Z</time></trkpt>
<trkpt lat="46.16469" lon="7.19458"><ele>436.6</ele><time>2016-08-06T18:15:00Z</time></trkpt>
<trkpt lat="46.16464" lon="7.19456"><ele>436.8</ele><time>2016-08-06T18:15:01Z</time></trkpt>
<trkpt lat="46.16461" lon="7.1945"><ele>436.8</ele><time>2016-08-06T18:15:02Z</time></trkpt>
<trkpt lat="46.16457" lon="7.19444"><ele>436.8</ele><time>2016-08-06T18:15:03Z</time></trkpt>
<trkpt lat="46.16454" lon="7.1943"><ele>437</ele><time>2016-08-06T18:15:05Z</time></trkpt>
<trkpt lat="46.16451" lon="7.19415"><ele>436.8</ele><time>2016-08-06T18:15:07Z</time></trkpt>
<trkpt lat="46.16449" lon="7.19408"><ele>436.8</ele><time>2016-08-06T18:15:08Z</time></trkpt>
<trkpt lat="46.16443" lon="7.19393"><ele>436.8</ele><time>2016-08-06T18:15:10Z</time></trkpt>
<trkpt lat="46.1644" lon="7.19385"><ele>436.8</ele><time>2016-08-06T18:15:11Z</time></trkpt>
<trkpt lat="46.16435" lon="7.19371"><ele>436.6</ele><time>2016-08-06T18:15:13Z</time></trkpt>
<trkpt lat="46.16432" lon="7.19363"><ele>436.6</ele><time>2016-08-06T18:15:14Z</time></trkpt>
<trkpt lat="46.16427" lon="7.19349"><ele>436.6</ele><time>2016-08-06T18:15:16Z</time></trkpt>
<trkpt lat="46.16425" lon="7.19341"><ele>436.4</ele><time>2016-08-06T18:15:17Z</time></trkpt>
<trkpt lat="46.16422" lon="7.19334"><ele>436.4</ele><time>2016-08-06T18:15:18Z</time></trkpt>
<trkpt lat="46.16418" lon="7.19319"><ele>436.4</ele><time>2016-08-06T18:15:20Z</time></trkpt>
<trkpt lat="46.16411" lon="7.19297"><ele>436.2</ele><time>2016-08-06T18:15:23Z</time></trkpt>
<trkpt lat="46.16408" lon="7.1929"><ele>436.2</ele><time>2016-08-06T18:15:24Z</time></trkpt>
<trkpt lat="46.16406" lon="7.19282"><ele>436.2</ele><time>2016-08-06T18:15:25Z</time></trkpt>
<trkpt lat="46.16401" lon="7.19267"><ele>436</ele><time>2016-08-06T18:15:27Z</time></trkpt>
<trkpt lat="46.16397" lon="7.19253"><ele>436</ele><time>2016-08-06T18:15:29Z</time></trkpt>
<trkpt lat="46.16392" lon="7.19238"><ele>435.8</ele><time>2016-08-06T18:15:31Z</time></trkpt>
<trkpt lat="46.16389" lon="7.1923"><ele>435.8</ele><time>2016-08-06T18:15:32Z</time></trkpt>
<trkpt lat="46.16387" lon="7.19222"><ele>435.8</ele><time>2016-08-06T18:15:33Z</time></trkpt>
<trkpt lat="46.16382" lon="7.19206"><ele>435.6</ele><time>2016-08-06T18:15:35Z</time></trkpt>
<trkpt lat="46.16377" lon="7.1919"><ele>435.6</ele><time>2016-08-06T18:15:37Z</time></trkpt>
<trkpt lat="46.16372" lon="7.19174"><ele>435.4</ele><time>2016-08-06T18:15:39Z</time></trkpt>
<trkpt lat="46.16369" lon="7.19166"><ele>435.4</ele><time>2016-08-06T18:15:40Z</time></trkpt>
<trkpt lat="46.16367" lon="7.19158"><ele>435.4</ele><time>2016-08-06T18:15:41Z</time></trkpt>
<trkpt lat="46.16362" lon="7.19142"><ele>435.4</ele><time>2016-08-06T18:15:43Z</time></trkpt>
<trkpt lat="46.16358" lon="7.19127"><ele>435.2</ele><time>2016-08-06T18:15:45Z</time></trkpt>
<trkpt lat="46.16353" lon="7.19111"><ele>435.2</ele><time>2016-08-06T18:15:47Z</time></trkpt>
<trkpt lat="46.16351" lon="7.19103"><ele>435</ele><time>2016-08-06T18:15:48Z</time></trkpt>
<trkpt lat="46.16348" lon="7.19096"><ele>435</ele><time>2016-08-06T18:15:49Z</time></trkpt>
<trkpt lat="46.16344" lon="7.1908"><ele>435</ele><time>2016-08-06T18:15:51Z</time></trkpt>
<trkpt lat="46.16339" lon="7.19065"><ele>434.8</ele><time>2016-08-06T18:15:53Z</time></trkpt>
<trkpt lat="46.16334" lon="7.19049"><ele>434.8</ele><time>2016-08-06T18:15:55Z</time></trkpt>
<trkpt lat="46.16332" lon="7.19042"><ele>434.8</ele><time>2016-08-06T18:15:56Z</time></trkpt>
<trkpt lat="46.16312" lon="7.18979"><ele>434.4</ele><time>2016-08-06T18:16:04Z</time></trkpt>
<trkpt lat="46.16292" lon="7.18917"><ele>434</ele><time>2016-08-06T18:16:12Z</time></trkpt>
<trkpt lat="46.16281" lon="7.18891"><ele>433.8</ele><time>2016-08-06T18:16:16Z</time></trkpt>
<trkpt lat="46.16279" lon="7.18884"><ele>433.8</ele><time>2016-08-06T18:16:17Z</time></trkpt>
<trkpt lat="46.16277" lon="7.18878"><ele>433.8</ele><time>2016-08-06T18:16:18Z</time></trkpt>
<trkpt lat="46.16275" lon="7.18872"><ele>433.8</ele><time>2016-08-06T18:16:19Z</time></trkpt>
<trkpt lat="46.16274" lon="7.18865"><ele>433.8</ele><time>2016-08-06T18:16:20Z</time></trkpt>
<trkpt lat="46.16268" lon="7.18846"><ele>434</ele><time>2016-08-06T18:16:23Z</time></trkpt>
<trkpt lat="46.16266" lon="7.1884"><ele>434</ele><time>2016-08-06T18:16:24Z</time></trkpt>
<trkpt lat="46.16262" lon="7.18828"><ele>434</ele><time>2016-08-06T18:16:26Z</time></trkpt>
<trkpt lat="46.16258" lon="7.18816"><ele>434.2</ele><time>2016-08-06T18:16:28Z</time></trkpt>
<trkpt lat="46.16255" lon="7.18803"><ele>434.2</ele><time>2016-08-06T18:16:30Z</time></trkpt>
<trkpt lat="46.16251" lon="7.18791"><ele>434.4</ele><time>2016-08-06T18:16:32Z</time></trkpt>
<trkpt lat="46.16247" lon="7.18779"><ele>434.4</ele><time>2016-08-06T18:16:34Z</time></trkpt>
<trkpt lat="46.16243" lon="7.18769"><ele>434.4</ele><time>2016-08-06T18:16:36Z</time></trkpt>
<trkpt lat="46.16241" lon="7.18766"><ele>434.6</ele><time>2016-08-06T18:16:38Z</time></trkpt>
<trkpt lat="46.16238" lon="7.18763"><ele>434.6</ele><time>2016-08-06T18:16:40Z</time></trkpt>
<trkpt lat="46.16236" lon="7.18762"><ele>434.6</ele><time>2016-08-06T18:16:41Z</time></trkpt>
<trkpt lat="46.16233" lon="7.18766"><ele>434.8</ele><time>2016-08-06T18:16:42Z</time></trkpt>
<trkpt lat="46.16225" lon="7.18773"><ele>434.8</ele><time>2016-08-06T18:16:44Z</time></trkpt>
<trkpt lat="46.16218" lon="7.18781"><ele>434.8</ele><time>2016-08-06T18:16:46Z</time></trkpt>
<trkpt lat="46.1621" lon="7.18788"><ele>435</ele><time>2016-08-06T18:16:48Z</time></trkpt>
<trkpt lat="46.16203" lon="7.18795"><ele>435</ele><time>2016-08-06T18:16:50Z</time></trkpt>
<trkpt lat="46.16195" lon="7.18803"><ele>435.2</ele><time>2016-08-06T18:16:52Z</time></trkpt>
<trkpt lat="46.16186" lon="7.18813"><ele>435.2</ele><time>2016-08-06T18:16:54Z</time></trkpt>
<trkpt lat="46.16176" lon="7.18824"><ele>435.4</ele><time>2016-08-06T18:16:56Z</time></trkpt>
<trkpt lat="46.16167" lon="7.18834"><ele>435.4</ele><time>2016-08-06T18:16:58Z</time></trkpt>
<trkpt lat="46.16158" lon="7.18844"><ele>435.4</ele><time>2016-08-06T18:17:00Z</time></trkpt>
<trkpt lat="46.16149" lon="7.18854"><ele>435.6</ele><time>2016-08-06T18:17:02Z</time></trkpt>
<trkpt lat="46.1614" lon="7.18864"><ele>435.6</ele><time>2016-08-06T18:17:04Z</time></trkpt>
<trkpt lat="46.16131" lon="7.18874"><ele>435.8</ele><time>2016-08-06T18:17:06Z</time></trkpt>
<trkpt lat="46.16122" lon="7.18883"><ele>435.8</ele><time>2016-08-06T18:17:08Z</time></trkpt>
<trkpt lat="46.16118" lon="7.18888"><ele>436</ele><time>2016-08-06T18:17:09Z</time></trkpt>
<trkpt lat="46.16114" lon="7.18892"><ele>436.2</ele><time>2016-08-06T18:17:10Z</time></trkpt>
<trkpt lat="46.16107" lon="7.189"><ele>436.6</ele><time>2016-08-06T18:17:12Z</time></trkpt>
<trkpt lat="46.16099" lon="7.18908"><ele>437.2</ele><time>2016-08-06T18:17:14Z</time></trkpt>
<trkpt lat="46.16091" lon="7.18917"><ele>437.6</ele><time>2016-08-06T18:17:16Z</time></trkpt>
<trkpt lat="46.16084" lon="7.18925"><ele>438</ele><time>2016-08-06T18:17:18Z</time></trkpt>
<trkpt lat="46.1608" lon="7.18928"><ele>438.4</ele><time>2016-08-06T18:17:19Z</time></trkpt>
<trkpt lat="46.16076" lon="7.18931"><ele>438.6</ele><time>2016-08-06T18:17:20Z</time></trkpt>
<trkpt lat="46.16073" lon="7.18933"><ele>438.8</ele><time>2016-08-06T18:17:21Z</time></trkpt>
<trkpt lat="46.16066" lon="7.18927"><ele>439.2</ele><time>2016-08-06T18:17:23Z</time></trkpt>
<trkpt lat="46.16063" lon="7.18912"><ele>439.8</ele><time>2016-08-06T18:17:25Z</time></trkpt>
<trkpt lat="46.16062" lon="7.18904"><ele>440</ele><time>2016-08-06T18:17:26Z</time></trkpt>
<trkpt lat="46.1606" lon="7.18897"><ele>439.8</ele><time>2016-08-06T18:17:27Z</time></trkpt>
<trkpt lat="46.16057" lon="7.18882"><ele>439.8</ele><time>2016-08-06T18:17:29Z</time></trkpt>
<trkpt lat="46.16054" lon="7.18867"><ele>439.8</ele><time>2016-08-06T18:17:31Z</time></trkpt>
<trkpt lat="46.16052" lon="7.18859"><ele>439.6</ele><time>2016-08-06T18:17:32Z</time></trkpt>
<trkpt lat="46.1605" lon="7.18851"><ele>439.6</ele><time>2016-08-06T18:17:33Z</time></trkpt>
<trkpt lat="46.16046" lon="7.18835"><ele>439.6</ele><time>2016-08-06T18:17:35Z</time></trkpt>
<trkpt lat="46.16042" lon="7.1882"><ele>439.4</ele><time>2016-08-06T18:17:37Z</time></trkpt>
<trkpt lat="46.16038" lon="7.18804"><ele>439.4</ele><time>2016-08-06T18:17:39Z</time></trkpt>
<trkpt lat="46.16036" lon="7.18796"><ele>439.4</ele><time>2016-08-06T18:17:40Z</time></trkpt>
<trkpt lat="46.16034" lon="7.18788"><ele>439.4</ele><time>2016-08-06T18:17:41Z</time></trkpt>
<trkpt lat="46.16032" lon="7.1878"><ele>439.4</ele><time>2016-08-06T18:17:42Z</time></trkpt>
<trkpt lat="46.16027" lon="7.18755"><ele>439.4</ele><time>2016-08-06T18:17:45Z</time></trkpt>
<trkpt lat="46.16024" lon="7.18739"><ele>439.4</ele><time>2016-08-06T18:17:47Z</time></trkpt>
<trkpt lat="46.16022" lon="7.18731"><ele>439.4</ele><time>2016-08-06T18:17:48Z</time></trkpt>
<trkpt lat="46.1602" lon="7.18723"><ele>439.4</ele><time>2016-08-06T18:17:49Z</time></trkpt>
<trkpt lat="46.16018" lon="7.18715"><ele>439.4</ele><time>2016-08-06T18:17:50Z</time></trkpt>
<trkpt lat="46.16013" lon="7.1869"><ele>439.2</ele><time>2016-08-06T18:17:53Z</time></trkpt>
<trkpt lat="46.16009" lon="7.18674"><ele>439.2</ele><time>2016-08-06T18:17:55Z</time></trkpt>
<trkpt lat="46.16007" lon="7.18666"><ele>439.2</ele><time>2016-08-06T18:17:56Z</time></trkpt>
<trkpt lat="46.16005" lon="7.18658"><ele>439.2</ele><time>2016-08-06T18:17:57Z</time></trkpt>
<trkpt lat="46.16003" lon="7.18649"><ele>439.2</ele><time>2016-08-06T18:17:58Z</time></trkpt>
<trkpt lat="46.15997" lon="7.18625"><ele>439.2</ele><time>2016-08-06T18:18:01Z</time></trkpt>
<trkpt lat="46.15994" lon="7.18608"><ele>439.2</ele><time>2016-08-06T18:18:03Z</time></trkpt>
<trkpt lat="46.15992" lon="7.186"><ele>439.2</ele><time>2016-08-06T18:18:04Z</time></trkpt>
<trkpt lat="46.1599" lon="7.18591"><ele>439.2</ele><time>2016-08-06T18:18:05Z</time></trkpt>
<trkpt lat="46.15987" lon="7.18573"><ele>439.2</ele><time>2016-08-06T18:18:07Z</time></trkpt>
<trkpt lat="46.15983" lon="7.18556"><ele>439</ele><time>2016-08-06T18:18:09Z</time></trkpt>
<trkpt lat="46.1598" lon="7.18538"><ele>439</ele><time>2016-08-06T18:18:11Z</time></trkpt>
<trkpt lat="46.15978" lon="7.18529"><ele>439</ele><time>2016-08-06T18:18:12Z</time></trkpt>
<trkpt lat="46.15976" lon="7.1852"><ele>439</ele><time>2016-08-06T18:18:13Z</time></trkpt>
<trkpt lat="46.15975" lon="7.18511"><ele>439</ele><time>2016-08-06T18:18:14Z</time></trkpt>
<trkpt lat="46.1597" lon="7.18484"><ele>439</ele><time>2016-08-06T18:18:17Z</time></trkpt>
<trkpt lat="46.15967" lon="7.18466"><ele>439</ele><time>2016-08-06T18:18:19Z</time></trkpt>
<trkpt lat="46.15965" lon="7.18457"><ele>439</ele><time>2016-08-06T18:18:20Z</time></trkpt>
<trkpt lat="46.15961" lon="7.1844"><ele>439</ele><time>2016-08-06T18:18:22Z</time></trkpt>
<trkpt lat="46.1596" lon="7.18431"><ele>439</ele><time>2016-08-06T18:18:23Z</time></trkpt>
<trkpt lat="46.15957" lon="7.18413"><ele>438.8</ele><time>2016-08-06T18:18:25Z</time></trkpt>
<trkpt lat="46.15954" lon="7.18395"><ele>438.8</ele><time>2016-08-06T18:18:27Z</time></trkpt>
<trkpt lat="46.15951" lon="7.18377"><ele>438.8</ele><time>2016-08-06T18:18:29Z</time></trkpt>
<trkpt lat="46.15948" lon="7.18359"><ele>438.8</ele><time>2016-08-06T18:18:31Z</time></trkpt>
<trkpt lat="46.15944" lon="7.18341"><ele>438.8</ele><time>2016-08-06T18:18:33Z</time></trkpt>
<trkpt lat="46.1594" lon="7.18322"><ele>438.8</ele><time>2016-08-06T18:18:35Z</time></trkpt>
<trkpt lat="46.15938" lon="7.18313"><ele>438.8</ele><time>2016-08-06T18:18:36Z</time></trkpt>
<trkpt lat="46.15937" lon="7.18304"><ele>438.8</ele><time>2016-08-06T18:18:37Z</time></trkpt>
<trkpt lat="46.15936" lon="7.18295"><ele>438.8</ele><time>2016-08-06T18:18:38Z</time></trkpt>
<trkpt lat="46.15935" lon="7.18286"><ele>438.8</ele><time>2016-08-06T18:18:39Z</time></trkpt>
<trkpt lat="46.15932" lon="7.18269"><ele>438.6</ele><time>2016-08-06T18:18:41Z</time></trkpt>
<trkpt lat="46.15929" lon="7.18252"><ele>438.6</ele><time>2016-08-06T18:18:43Z</time></trkpt>
<trkpt lat="46.15926" lon="7.18235"><ele>438.6</ele><time>2016-08-06T18:18:45Z</time></trkpt>
<trkpt lat="46.15923" lon="7.18218"><ele>438.6</ele><time>2016-08-06T18:18:47Z</time></trkpt>
<trkpt lat="46.15922" lon="7.1821"><ele>438.6</ele><time>2016-08-06T18:18:48Z</time></trkpt>
<trkpt lat="46.15919" lon="7.18186"><ele>438.6</ele><time>2016-08-06T18:18:51Z</time></trkpt>
<trkpt lat="46.15917" lon="7.1817"><ele>438.6</ele><time>2016-08-06T18:18:53Z</time></trkpt>
<trkpt lat="46.15915" lon="7.18155"><ele>438.6</ele><time>2016-08-06T18:18:55Z</time></trkpt>
<trkpt lat="46.15914" lon="7.18147"><ele>438.4</ele><time>2016-08-06T18:18:56Z</time></trkpt>
<trkpt lat="46.15913" lon="7.18139"><ele>438.4</ele><time>2016-08-06T18:18:57Z</time></trkpt>
<trkpt lat="46.15911" lon="7.18122"><ele>438.4</ele><time>2016-08-06T18:18:59Z</time></trkpt>
<trkpt lat="46.15908" lon="7.18106"><ele>438.4</ele><time>2016-08-06T18:19:01Z</time></trkpt>
<trkpt lat="46.15906" lon="7.1809"><ele>438.4</ele><time>2016-08-06T18:19:03Z</time></trkpt>
<trkpt lat="46.15905" lon="7.18082"><ele>438.4</ele><time>2016-08-06T18:19:04Z</time></trkpt>
<trkpt lat="46.15904" lon="7.18075"><ele>438.4</ele><time>2016-08-06T18:19:05Z</time></trkpt>
<trkpt lat="46.15902" lon="7.1806"><ele>438.4</ele><time>2016-08-06T18:19:07Z</time></trkpt>
<trkpt lat="46.15903" lon="7.18052"><ele>438.4</ele><time>2016-08-06T18:19:08Z</time></trkpt>
<trkpt lat="46.159" lon="7.18028"><ele>438.4</ele><time>2016-08-06T18:19:11Z</time></trkpt>
<trkpt lat="46.15897" lon="7.18012"><ele>438.2</ele><time>2016-08-06T18:19:13Z</time></trkpt>
<trkpt lat="46.15895" lon="7.17996"><ele>438.2</ele><time>2016-08-06T18:19:15Z</time></trkpt>
<trkpt lat="46.15893" lon="7.17988"><ele>438.2</ele><time>2016-08-06T18:19:16Z</time></trkpt>
<trkpt lat="46.15892" lon="7.17979"><ele>438.2</ele><time>2016-08-06T18:19:17Z</time></trkpt>
<trkpt lat="46.15891" lon="7.17971"><ele>438.2</ele><time>2016-08-06T18:19:18Z</time></trkpt>
<trkpt lat="46.15887" lon="7.17946"><ele>438.2</ele><time>2016-08-06T18:19:21Z</time></trkpt>
<trkpt lat="46.15884" lon="7.1793"><ele>438.2</ele><time>2016-08-06T18:19:23Z</time></trkpt>
<trkpt lat="46.15883" lon="7.17921"><ele>438.2</ele><time>2016-08-06T18:19:24Z</time></trkpt>
<trkpt lat="46.15882" lon="7.17913"><ele>438.2</ele><time>2016-08-06T18:19:25Z</time></trkpt>
<trkpt lat="46.15879" lon="7.17897"><ele>438.2</ele><time>2016-08-06T18:19:27Z</time></trkpt>
<trkpt lat="46.15877" lon="7.17881"><ele>438</ele><time>2016-08-06T18:19:29Z</time></trkpt>
<trkpt lat="46.15875" lon="7.17865"><ele>438</ele><time>2016-08-06T18:19:31Z</time></trkpt>
<trkpt lat="46.15873" lon="7.17857"><ele>438</ele><time>2016-08-06T18:19:32Z</time></trkpt>
<trkpt lat="46.15872" lon="7.17849"><ele>438</ele><time>2016-08-06T18:19:33Z</time></trkpt>
<trkpt lat="46.15869" lon="7.17832"><ele>438</ele><time>2016-08-06T18:19:35Z</time></trkpt>
<trkpt lat="46.15867" lon="7.17815"><ele>438</ele><time>2016-08-06T18:19:37Z</time></trkpt>
<trkpt lat="46.15865" lon="7.17807"><ele>438</ele><time>2016-08-06T18:19:38Z</time></trkpt>
<trkpt lat="46.15861" lon="7.17782"><ele>438</ele><time>2016-08-06T18:19:41Z</time></trkpt>
<trkpt lat="46.1586" lon="7.17773"><ele>438</ele><time>2016-08-06T18:19:42Z</time></trkpt>
<trkpt lat="46.15855" lon="7.17748"><ele>437.8</ele><time>2016-08-06T18:19:45Z</time></trkpt>
<trkpt lat="46.15852" lon="7.17732"><ele>437.8</ele><time>2016-08-06T18:19:47Z</time></trkpt>
<trkpt lat="46.1585" lon="7.17715"><ele>437.8</ele><time>2016-08-06T18:19:49Z</time></trkpt>
<trkpt lat="46.15847" lon="7.17698"><ele>437.8</ele><time>2016-08-06T18:19:51Z</time></trkpt>
<trkpt lat="46.15845" lon="7.17681"><ele>437.8</ele><time>2016-08-06T18:19:53Z</time></trkpt>
<trkpt lat="46.15843" lon="7.17663"><ele>437.8</ele><time>2016-08-06T18:19:55Z</time></trkpt>
<trkpt lat="46.1584" lon="7.17646"><ele>437.8</ele><time>2016-08-06T18:19:57Z</time></trkpt>
<trkpt lat="46.15838" lon="7.1763"><ele>437.8</ele><time>2016-08-06T18:19:59Z</time></trkpt>
<trkpt lat="46.15835" lon="7.17614"><ele>437.6</ele><time>2016-08-06T18:20:01Z</time></trkpt>
<trkpt lat="46.15834" lon="7.17606"><ele>437.6</ele><time>2016-08-06T18:20:02Z</time></trkpt>
<trkpt lat="46.1583" lon="7.17583"><ele>437.6</ele><time>2016-08-06T18:20:05Z</time></trkpt>
<trkpt lat="46.15828" lon="7.17566"><ele>437.6</ele><time>2016-08-06T18:20:07Z</time></trkpt>
<trkpt lat="46.15826" lon="7.1755"><ele>437.6</ele><time>2016-08-06T18:20:09Z</time></trkpt>
<trkpt lat="46.15824" lon="7.17534"><ele>437.6</ele><time>2016-08-06T18:20:11Z</time></trkpt>
<trkpt lat="46.15821" lon="7.17518"><ele>437.6</ele><time>2016-08-06T18:20:13Z</time></trkpt>
<trkpt lat="46.15819" lon="7.17502"><ele>437.6</ele><time>2016-08-06T18:20:15Z</time></trkpt>
<trkpt lat="46.15817" lon="7.17485"><ele>437.4</ele><time>2016-08-06T18:20:17Z</time></trkpt>
<trkpt lat="46.15815" lon="7.17469"><ele>437.4</ele><time>2016-08-06T18:20:19Z</time></trkpt>
<trkpt lat="46.15812" lon="7.17452"><ele>437.4</ele><time>2016-08-06T18:20:21Z</time></trkpt>
<trkpt lat="46.15809" lon="7.17437"><ele>437.4</ele><time>2016-08-06T18:20:23Z</time></trkpt>
<trkpt lat="46.15806" lon="7.17421"><ele>437.4</ele><time>2016-08-06T18:20:25Z</time></trkpt>
<trkpt lat="46.15803" lon="7.17406"><ele>437.4</ele><time>2016-08-06T18:20:27Z</time></trkpt>
<trkpt lat="46.158" lon="7.1739"><ele>437.4</ele><time>2016-08-06T18:20:29Z</time></trkpt>
<trkpt lat="46.15799" lon="7.17382"><ele>437.4</ele><time>2016-08-06T18:20:30Z</time></trkpt>
<trkpt lat="46.15797" lon="7.17374"><ele>437.4</ele><time>2016-08-06T18:20:31Z</time></trkpt>
<trkpt lat="46.15794" lon="7.17358"><ele>437.2</ele><time>2016-08-06T18:20:33Z</time></trkpt>
<trkpt lat="46.15792" lon="7.17351"><ele>437.2</ele><time>2016-08-06T18:20:34Z</time></trkpt>
<trkpt lat="46.1579" lon="7.17343"><ele>437.2</ele><time>2016-08-06T18:20:35Z</time></trkpt>
<trkpt lat="46.15788" lon="7.17328"><ele>437.2</ele><time>2016-08-06T18:20:37Z</time></trkpt>
<trkpt lat="46.15786" lon="7.17321"><ele>437.2</ele><time>2016-08-06T18:20:38Z</time></trkpt>
<trkpt lat="46.15782" lon="7.17298"><ele>437.2</ele><time>2016-08-06T18:20:41Z</time></trkpt>
<trkpt lat="46.15779" lon="7.17284"><ele>437.2</ele><time>2016-08-06T18:20:43Z</time></trkpt>
<trkpt lat="46.15777" lon="7.17276"><ele>437.2</ele><time>2016-08-06T18:20:44Z</time></trkpt>
<trkpt lat="46.15772" lon="7.17253"><ele>437.2</ele><time>2016-08-06T18:20:47Z</time></trkpt>
<trkpt lat="46.15769" lon="7.17238"><ele>437</ele><time>2016-08-06T18:20:49Z</time></trkpt>
<trkpt lat="46.15765" lon="7.17223"><ele>437</ele><time>2016-08-06T18:20:51Z</time></trkpt>
<trkpt lat="46.15763" lon="7.17215"><ele>437</ele><time>2016-08-06T18:20:52Z</time></trkpt>
<trkpt lat="46.15761" lon="7.17208"><ele>437</ele><time>2016-08-06T18:20:53Z</time></trkpt>
<trkpt lat="46.15759" lon="7.17201"><ele>437</ele><time>2016-08-06T18:20:54Z</time></trkpt>
<trkpt lat="46.15754" lon="7.1718"><ele>437</ele><time>2016-08-06T18:20:57Z</time></trkpt>
<trkpt lat="46.1575" lon="7.17166"><ele>437</ele><time>2016-08-06T18:20:59Z</time></trkpt>
<trkpt lat="46.15748" lon="7.17158"><ele>437</ele><time>2016-08-06T18:21:00Z</time></trkpt>
<trkpt lat="46.15746" lon="7.17151"><ele>437</ele><time>2016-08-06T18:21:01Z</time></trkpt>
<trkpt lat="46.15744" lon="7.17143"><ele>437</ele><time>2016-08-06T18:21:02Z</time></trkpt>
<trkpt lat="46.15738" lon="7.17119"><ele>436.8</ele><time>2016-08-06T18:21:05Z</time></trkpt>
<trkpt lat="46.15734" lon="7.17103"><ele>436.8</ele><time>2016-08-06T18:21:07Z</time></trkpt>
<trkpt lat="46.1573" lon="7.17087"><ele>436.8</ele><time>2016-08-06T18:21:09Z</time></trkpt>
<trkpt lat="46.15727" lon="7.17071"><ele>436.8</ele><time>2016-08-06T18:21:11Z</time></trkpt>
<trkpt lat="46.15723" lon="7.17055"><ele>436.8</ele><time>2016-08-06T18:21:13Z</time></trkpt>
<trkpt lat="46.15719" lon="7.17039"><ele>436.8</ele><time>2016-08-06T18:21:15Z</time></trkpt>
<trkpt lat="46.15715" lon="7.17024"><ele>436.8</ele><time>2016-08-06T18:21:17Z</time></trkpt>
<trkpt lat="46.15711" lon="7.17008"><ele>436.6</ele><time>2016-08-06T18:21:19Z</time></trkpt>
<trkpt lat="46.15707" lon="7.16993"><ele>436.6</ele><time>2016-08-06T18:21:21Z</time></trkpt>
<trkpt lat="46.15702" lon="7.16978"><ele>436.6</ele><time>2016-08-06T18:21:23Z</time></trkpt>
<trkpt lat="46.15698" lon="7.16962"><ele>436.6</ele><time>2016-08-06T18:21:25Z</time></trkpt>
<trkpt lat="46.15693" lon="7.16947"><ele>436.6</ele><time>2016-08-06T18:21:27Z</time></trkpt>
<trkpt lat="46.1569" lon="7.16938"><ele>436.6</ele><time>2016-08-06T18:21:28Z</time></trkpt>
<trkpt lat="46.15688" lon="7.1693"><ele>436.6</ele><time>2016-08-06T18:21:29Z</time></trkpt>
<trkpt lat="46.15684" lon="7.16913"><ele>436.6</ele><time>2016-08-06T18:21:31Z</time></trkpt>
<trkpt lat="46.15682" lon="7.16905"><ele>436.6</ele><time>2016-08-06T18:21:32Z</time></trkpt>
<trkpt lat="46.15676" lon="7.16879"><ele>436.4</ele><time>2016-08-06T18:21:35Z</time></trkpt>
<trkpt lat="46.15674" lon="7.16871"><ele>436.4</ele><time>2016-08-06T18:21:36Z</time></trkpt>
<trkpt lat="46.15671" lon="7.16864"><ele>436.4</ele><time>2016-08-06T18:21:37Z</time></trkpt>
<trkpt lat="46.15667" lon="7.16848"><ele>436.4</ele><time>2016-08-06T18:21:39Z</time></trkpt>
<trkpt lat="46.15662" lon="7.16833"><ele>436.4</ele><time>2016-08-06T18:21:41Z</time></trkpt>
<trkpt lat="46.1566" lon="7.16825"><ele>436.4</ele><time>2016-08-06T18:21:42Z</time></trkpt>
<trkpt lat="46.15653" lon="7.16802"><ele>436.4</ele><time>2016-08-06T18:21:45Z</time></trkpt>
<trkpt lat="46.15648" lon="7.16787"><ele>436.4</ele><time>2016-08-06T18:21:47Z</time></trkpt>
<trkpt lat="46.15646" lon="7.16779"><ele>436.4</ele><time>2016-08-06T18:21:48Z</time></trkpt>
<trkpt lat="46.15644" lon="7.16771"><ele>436.4</ele><time>2016-08-06T18:21:49Z</time></trkpt>
<trkpt lat="46.15638" lon="7.16756"><ele>436.2</ele><time>2016-08-06T18:21:51Z</time></trkpt>
<trkpt lat="46.15635" lon="7.16748"><ele>436.2</ele><time>2016-08-06T18:21:52Z</time></trkpt>
<trkpt lat="46.15632" lon="7.1674"><ele>436.2</ele><time>2016-08-06T18:21:53Z</time></trkpt>
<trkpt lat="46.15627" lon="7.16725"><ele>436.2</ele><time>2016-08-06T18:21:55Z</time></trkpt>
<trkpt lat="46.15621" lon="7.1671"><ele>436.2</ele><time>2016-08-06T18:21:57Z</time></trkpt>
<trkpt lat="46.15617" lon="7.16695"><ele>436.2</ele><time>2016-08-06T18:21:59Z</time></trkpt>
<trkpt lat="46.15612" lon="7.1668"><ele>436.2</ele><time>2016-08-06T18:22:01Z</time></trkpt>
<trkpt lat="46.15608" lon="7.16665"><ele>436</ele><time>2016-08-06T18:22:03Z</time></trkpt>
<trkpt lat="46.15603" lon="7.1665"><ele>436</ele><time>2016-08-06T18:22:05Z</time></trkpt>
<trkpt lat="46.15598" lon="7.16635"><ele>436</ele><time>2016-08-06T18:22:07Z</time></trkpt>
<trkpt lat="46.15595" lon="7.16628"><ele>436</ele><time>2016-08-06T18:22:08Z</time></trkpt>
<trkpt lat="46.15587" lon="7.16606"><ele>436</ele><time>2016-08-06T18:22:11Z</time></trkpt>
<trkpt lat="46.15582" lon="7.16591"><ele>436</ele><time>2016-08-06T18:22:13Z</time></trkpt>
<trkpt lat="46.15577" lon="7.16576"><ele>435.8</ele><time>2016-08-06T18:22:15Z</time></trkpt>
<trkpt lat="46.15572" lon="7.16561"><ele>435.8</ele><time>2016-08-06T18:22:17Z</time></trkpt>
<trkpt lat="46.15567" lon="7.16545"><ele>435.8</ele><time>2016-08-06T18:22:19Z</time></trkpt>
<trkpt lat="46.15562" lon="7.1653"><ele>435.8</ele><time>2016-08-06T18:22:21Z</time></trkpt>
<trkpt lat="46.15557" lon="7.16515"><ele>435.8</ele><time>2016-08-06T18:22:23Z</time></trkpt>
<trkpt lat="46.15551" lon="7.165"><ele>435.8</ele><time>2016-08-06T18:22:25Z</time></trkpt>
<trkpt lat="46.15548" lon="7.16492"><ele>435.6</ele><time>2016-08-06T18:22:26Z</time></trkpt>
<trkpt lat="46.15544" lon="7.16486"><ele>435.6</ele><time>2016-08-06T18:22:27Z</time></trkpt>
<trkpt lat="46.15539" lon="7.1647"><ele>435.6</ele><time>2016-08-06T18:22:29Z</time></trkpt>
<trkpt lat="46.15536" lon="7.16461"><ele>435.6</ele><time>2016-08-06T18:22:30Z</time></trkpt>
<trkpt lat="46.15529" lon="7.16437"><ele>435.6</ele><time>2016-08-06T18:22:33Z</time></trkpt>
<trkpt lat="46.15523" lon="7.1642"><ele>435.6</ele><time>2016-08-06T18:22:35Z</time></trkpt>
<trkpt lat="46.15519" lon="7.16405"><ele>435.6</ele><time>2016-08-06T18:22:37Z</time></trkpt>
<trkpt lat="46.15512" lon="7.16392"><ele>435.4</ele><time>2016-08-06T18:22:39Z</time></trkpt>
<trkpt lat="46.15506" lon="7.16379"><ele>435.4</ele><time>2016-08-06T18:22:41Z</time></trkpt>
<trkpt lat="46.15501" lon="7.16362"><ele>435.4</ele><time>2016-08-06T18:22:43Z</time></trkpt>
<trkpt lat="46.15496" lon="7.16345"><ele>435.4</ele><time>2016-08-06T18:22:45Z</time></trkpt>
<trkpt lat="46.15493" lon="7.16337"><ele>435.4</ele><time>2016-08-06T18:22:46Z</time></trkpt>
<trkpt lat="46.1549" lon="7.16329"><ele>435.4</ele><time>2016-08-06T18:22:47Z</time></trkpt>
<trkpt lat="46.15486" lon="7.16322"><ele>435.4</ele><time>2016-08-06T18:22:48Z</time></trkpt>
<trkpt lat="46.15476" lon="7.16298"><ele>435.2</ele><time>2016-08-06T18:22:51Z</time></trkpt>
<trkpt lat="46.15468" lon="7.16283"><ele>435.2</ele><time>2016-08-06T18:22:53Z</time></trkpt>
<trkpt lat="46.15464" lon="7.16275"><ele>435.2</ele><time>2016-08-06T18:22:54Z</time></trkpt>
<trkpt lat="46.15453" lon="7.16251"><ele>435.2</ele><time>2016-08-06T18:22:57Z</time></trkpt>
<trkpt lat="46.15449" lon="7.16243"><ele>435.2</ele><time>2016-08-06T18:22:58Z</time></trkpt>
<trkpt lat="46.15441" lon="7.16228"><ele>435.2</ele><time>2016-08-06T18:23:00Z</time></trkpt>
<trkpt lat="46.15437" lon="7.1622"><ele>435</ele><time>2016-08-06T18:23:01Z</time></trkpt>
<trkpt lat="46.15434" lon="7.16212"><ele>435</ele><time>2016-08-06T18:23:02Z</time></trkpt>
<trkpt lat="46.15423" lon="7.16188"><ele>435</ele><time>2016-08-06T18:23:05Z</time></trkpt>
<trkpt lat="46.15416" lon="7.16172"><ele>435</ele><time>2016-08-06T18:23:07Z</time></trkpt>
<trkpt lat="46.15412" lon="7.16164"><ele>435</ele><time>2016-08-06T18:23:08Z</time></trkpt>
<trkpt lat="46.15403" lon="7.16142"><ele>435</ele><time>2016-08-06T18:23:11Z</time></trkpt>
<trkpt lat="46.15397" lon="7.16128"><ele>434.8</ele><time>2016-08-06T18:23:13Z</time></trkpt>
<trkpt lat="46.15394" lon="7.16121"><ele>434.8</ele><time>2016-08-06T18:23:14Z</time></trkpt>
<trkpt lat="46.15391" lon="7.16113"><ele>434.8</ele><time>2016-08-06T18:23:15Z</time></trkpt>
<trkpt lat="46.15385" lon="7.16099"><ele>434.8</ele><time>2016-08-06T18:23:17Z</time></trkpt>
<trkpt lat="46.15382" lon="7.16091"><ele>434.8</ele><time>2016-08-06T18:23:18Z</time></trkpt>
<trkpt lat="46.15375" lon="7.16077"><ele>434.8</ele><time>2016-08-06T18:23:20Z</time></trkpt>
<trkpt lat="46.15363" lon="7.16055"><ele>434.8</ele><time>2016-08-06T18:23:23Z</time></trkpt>
<trkpt lat="46.15356" lon="7.1604"><ele>434.6</ele><time>2016-08-06T18:23:25Z</time></trkpt>
<trkpt lat="46.15352" lon="7.16033"><ele>434.6</ele><time>2016-08-06T18:23:26Z</time></trkpt>
<trkpt lat="46.15349" lon="7.16025"><ele>434.6</ele><time>2016-08-06T18:23:27Z</time></trkpt>
<trkpt lat="46.15346" lon="7.16017"><ele>434.6</ele><time>2016-08-06T18:23:28Z</time></trkpt>
<trkpt lat="46.15339" lon="7.16002"><ele>434.6</ele><time>2016-08-06T18:23:30Z</time></trkpt>
<trkpt lat="46.15332" lon="7.15987"><ele>434.6</ele><time>2016-08-06T18:23:32Z</time></trkpt>
<trkpt lat="46.15325" lon="7.15972"><ele>434.6</ele><time>2016-08-06T18:23:34Z</time></trkpt>
<trkpt lat="46.15322" lon="7.15964"><ele>434.6</ele><time>2016-08-06T18:23:35Z</time></trkpt>
<trkpt lat="46.15315" lon="7.15949"><ele>434.4</ele><time>2016-08-06T18:23:37Z</time></trkpt>
<trkpt lat="46.15308" lon="7.15934"><ele>434.4</ele><time>2016-08-06T18:23:39Z</time></trkpt>
<trkpt lat="46.15301" lon="7.15919"><ele>434.4</ele><time>2016-08-06T18:23:41Z</time></trkpt>
<trkpt lat="46.15297" lon="7.15911"><ele>434.4</ele><time>2016-08-06T18:23:42Z</time></trkpt>
<trkpt lat="46.1529" lon="7.15896"><ele>434.4</ele><time>2016-08-06T18:23:44Z</time></trkpt>
<trkpt lat="46.15279" lon="7.15874"><ele>434.2</ele><time>2016-08-06T18:23:47Z</time></trkpt>
<trkpt lat="46.15276" lon="7.15867"><ele>434.2</ele><time>2016-08-06T18:23:48Z</time></trkpt>
<trkpt lat="46.15269" lon="7.15852"><ele>434.2</ele><time>2016-08-06T18:23:50Z</time></trkpt>
<trkpt lat="46.15259" lon="7.15829"><ele>434.2</ele><time>2016-08-06T18:23:53Z</time></trkpt>
<trkpt lat="46.15253" lon="7.15814"><ele>434.2</ele><time>2016-08-06T18:23:55Z</time></trkpt>
<trkpt lat="46.15246" lon="7.15799"><ele>434.2</ele><time>2016-08-06T18:23:57Z</time></trkpt>
<trkpt lat="46.15243" lon="7.15791"><ele>434.2</ele><time>2016-08-06T18:23:58Z</time></trkpt>
<trkpt lat="46.15231" lon="7.15768"><ele>434</ele><time>2016-08-06T18:24:01Z</time></trkpt>
<trkpt lat="46.15228" lon="7.1576"><ele>434</ele><time>2016-08-06T18:24:02Z</time></trkpt>
<trkpt lat="46.15216" lon="7.15737"><ele>434</ele><time>2016-08-06T18:24:05Z</time></trkpt>
<trkpt lat="46.15209" lon="7.15721"><ele>434</ele><time>2016-08-06T18:24:07Z</time></trkpt>
<trkpt lat="46.15206" lon="7.15714"><ele>434</ele><time>2016-08-06T18:24:08Z</time></trkpt>
<trkpt lat="46.15195" lon="7.15691"><ele>433.8</ele><time>2016-08-06T18:24:11Z</time></trkpt>
<trkpt lat="46.15189" lon="7.15675"><ele>433.8</ele><time>2016-08-06T18:24:13Z</time></trkpt>
<trkpt lat="46.15185" lon="7.15668"><ele>433.8</ele><time>2016-08-06T18:24:14Z</time></trkpt>
<trkpt lat="46.15176" lon="7.15647"><ele>433.8</ele><time>2016-08-06T18:24:17Z</time></trkpt>
<trkpt lat="46.15173" lon="7.15639"><ele>433.8</ele><time>2016-08-06T18:24:18Z</time></trkpt>
<trkpt lat="46.15164" lon="7.15618"><ele>433.8</ele><time>2016-08-06T18:24:21Z</time></trkpt>
<trkpt lat="46.15158" lon="7.15604"><ele>433.6</ele><time>2016-08-06T18:24:23Z</time></trkpt>
<trkpt lat="46.15152" lon="7.1559"><ele>433.6</ele><time>2016-08-06T18:24:25Z</time></trkpt>
<trkpt lat="46.15146" lon="7.15577"><ele>433.6</ele><time>2016-08-06T18:24:27Z</time></trkpt>
<trkpt lat="46.15143" lon="7.1557"><ele>433.6</ele><time>2016-08-06T18:24:28Z</time></trkpt>
<trkpt lat="46.15137" lon="7.15556"><ele>433.6</ele><time>2016-08-06T18:24:30Z</time></trkpt>
<trkpt lat="46.15128" lon="7.15536"><ele>433.4</ele><time>2016-08-06T18:24:33Z</time></trkpt>
<trkpt lat="46.15122" lon="7.15523"><ele>433.4</ele><time>2016-08-06T18:24:35Z</time></trkpt>
<trkpt lat="46.15116" lon="7.15509"><ele>433.4</ele><time>2016-08-06T18:24:37Z</time></trkpt>
<trkpt lat="46.15112" lon="7.15502"><ele>433.4</ele><time>2016-08-06T18:24:38Z</time></trkpt>
<trkpt lat="46.1511" lon="7.15496"><ele>433.4</ele><time>2016-08-06T18:24:39Z</time></trkpt>
<trkpt lat="46.15104" lon="7.15482"><ele>433.4</ele><time>2016-08-06T18:24:41Z</time></trkpt>
<trkpt lat="46.15099" lon="7.15467"><ele>433.4</ele><time>2016-08-06T18:24:43Z</time></trkpt>
<trkpt lat="46.15093" lon="7.15453"><ele>433.2</ele><time>2016-08-06T18:24:45Z</time></trkpt>
<trkpt lat="46.15088" lon="7.15439"><ele>433.2</ele><time>2016-08-06T18:24:47Z</time></trkpt>
<trkpt lat="46.15085" lon="7.15432"><ele>433.2</ele><time>2016-08-06T18:24:48Z</time></trkpt>
<trkpt lat="46.15074" lon="7.15412"><ele>433.2</ele><time>2016-08-06T18:24:51Z</time></trkpt>
<trkpt lat="46.15066" lon="7.15398"><ele>433.2</ele><time>2016-08-06T18:24:53Z</time></trkpt>
<trkpt lat="46.15059" lon="7.15384"><ele>433.2</ele><time>2016-08-06T18:24:55Z</time></trkpt>
<trkpt lat="46.15055" lon="7.15377"><ele>433</ele><time>2016-08-06T18:24:56Z</time></trkpt>
<trkpt lat="46.15049" lon="7.15371"><ele>433</ele><time>2016-08-06T18:24:57Z</time></trkpt>
<trkpt lat="46.15046" lon="7.15363"><ele>433</ele><time>2016-08-06T18:24:58Z</time></trkpt>
<trkpt lat="46.15039" lon="7.15347"><ele>433</ele><time>2016-08-06T18:25:00Z</time></trkpt>
<trkpt lat="46.15032" lon="7.15332"><ele>433</ele><time>2016-08-06T18:25:02Z</time></trkpt>
<trkpt lat="46.15022" lon="7.15308"><ele>433</ele><time>2016-08-06T18:25:05Z</time></trkpt>
<trkpt lat="46.15014" lon="7.15293"><ele>433</ele><time>2016-08-06T18:25:07Z</time></trkpt>
<trkpt lat="46.1501" lon="7.15285"><ele>432.8</ele><time>2016-08-06T18:25:08Z</time></trkpt>
<trkpt lat="46.14999" lon="7.15262"><ele>432.8</ele><time>2016-08-06T18:25:11Z</time></trkpt>
<trkpt lat="46.14995" lon="7.15254"><ele>432.8</ele><time>2016-08-06T18:25:12Z</time></trkpt>
<trkpt lat="46.14988" lon="7.15239"><ele>432.8</ele><time>2016-08-06T18:25:14Z</time></trkpt>
<trkpt lat="46.14977" lon="7.15216"><ele>432.8</ele><time>2016-08-06T18:25:17Z</time></trkpt>
<trkpt lat="46.14974" lon="7.15208"><ele>432.8</ele><time>2016-08-06T18:25:18Z</time></trkpt>
<trkpt lat="46.1497" lon="7.152"><ele>432.8</ele><time>2016-08-06T18:25:19Z</time></trkpt>
<trkpt lat="46.14966" lon="7.15192"><ele>432.6</ele><time>2016-08-06T18:25:20Z</time></trkpt>
<trkpt lat="46.14955" lon="7.15169"><ele>432.6</ele><time>2016-08-06T18:25:23Z</time></trkpt>
<trkpt lat="46.14951" lon="7.15161"><ele>432.6</ele><time>2016-08-06T18:25:24Z</time></trkpt>
<trkpt lat="46.14948" lon="7.15153"><ele>432.6</ele><time>2016-08-06T18:25:25Z</time></trkpt>
<trkpt lat="46.14941" lon="7.15137"><ele>432.6</ele><time>2016-08-06T18:25:27Z</time></trkpt>
<trkpt lat="46.14938" lon="7.15129"><ele>432.6</ele><time>2016-08-06T18:25:28Z</time></trkpt>
<trkpt lat="46.14928" lon="7.15105"><ele>432.4</ele><time>2016-08-06T18:25:31Z</time></trkpt>
<trkpt lat="46.14925" lon="7.15097"><ele>432.4</ele><time>2016-08-06T18:25:32Z</time></trkpt>
<trkpt lat="46.14921" lon="7.15089"><ele>432.4</ele><time>2016-08-06T18:25:33Z</time></trkpt>
<trkpt lat="46.14913" lon="7.15073"><ele>432.4</ele><time>2016-08-06T18:25:35Z</time></trkpt>
<trkpt lat="46.14906" lon="7.15057"><ele>432.4</ele><time>2016-08-06T18:25:37Z</time></trkpt>
<trkpt lat="46.14902" lon="7.15049"><ele>432.4</ele><time>2016-08-06T18:25:38Z</time></trkpt>
<trkpt lat="46.14898" lon="7.1504"><ele>432.4</ele><time>2016-08-06T18:25:39Z</time></trkpt>
<trkpt lat="46.14893" lon="7.15023"><ele>432.4</ele><time>2016-08-06T18:25:41Z</time></trkpt>
<trkpt lat="46.14887" lon="7.15005"><ele>432.2</ele><time>2016-08-06T18:25:43Z</time></trkpt>
<trkpt lat="46.14884" lon="7.14997"><ele>432.2</ele><time>2016-08-06T18:25:44Z</time></trkpt>
<trkpt lat="46.14878" lon="7.14978"><ele>432.2</ele><time>2016-08-06T18:25:46Z</time></trkpt>
<trkpt lat="46.14874" lon="7.14967"><ele>432.2</ele><time>2016-08-06T18:25:47Z</time></trkpt>
<trkpt lat="46.1487" lon="7.14956"><ele>432.2</ele><time>2016-08-06T18:25:48Z</time></trkpt>
<trkpt lat="46.14857" lon="7.14922"><ele>432.2</ele><time>2016-08-06T18:25:51Z</time></trkpt>
<trkpt lat="46.14854" lon="7.14911"><ele>432.2</ele><time>2016-08-06T18:25:52Z</time></trkpt>
<trkpt lat="46.1485" lon="7.14899"><ele>432.2</ele><time>2016-08-06T18:25:53Z</time></trkpt>
<trkpt lat="46.14843" lon="7.1489"><ele>432.2</ele><time>2016-08-06T18:25:54Z</time></trkpt>
<trkpt lat="46.14839" lon="7.1488"><ele>432.2</ele><time>2016-08-06T18:25:55Z</time></trkpt>
<trkpt lat="46.14831" lon="7.14863"><ele>432.4</ele><time>2016-08-06T18:25:57Z</time></trkpt>
<trkpt lat="46.14827" lon="7.14857"><ele>432.4</ele><time>2016-08-06T18:25:58Z</time></trkpt>
<trkpt lat="46.14816" lon="7.14839"><ele>432.4</ele><time>2016-08-06T18:26:01Z</time></trkpt>
<trkpt lat="46.14812" lon="7.14833"><ele>432.4</ele><time>2016-08-06T18:26:02Z</time></trkpt>
<trkpt lat="46.14808" lon="7.14827"><ele>432.6</ele><time>2016-08-06T18:26:03Z</time></trkpt>
<trkpt lat="46.14801" lon="7.14815"><ele>432.8</ele><time>2016-08-06T18:26:05Z</time></trkpt>
<trkpt lat="46.14794" lon="7.14802"><ele>433</ele><time>2016-08-06T18:26:07Z</time></trkpt>
<trkpt lat="46.14787" lon="7.14789"><ele>433.2</ele><time>2016-08-06T18:26:09Z</time></trkpt>
<trkpt lat="46.1478" lon="7.14776"><ele>433.4</ele><time>2016-08-06T18:26:11Z</time></trkpt>
<trkpt lat="46.14774" lon="7.14763"><ele>433.6</ele><time>2016-08-06T18:26:13Z</time></trkpt>
<trkpt lat="46.1477" lon="7.14756"><ele>433.6</ele><time>2016-08-06T18:26:14Z</time></trkpt>
<trkpt lat="46.14766" lon="7.14749"><ele>433.8</ele><time>2016-08-06T18:26:15Z</time></trkpt>
<trkpt lat="46.14758" lon="7.14735"><ele>434</ele><time>2016-08-06T18:26:17Z</time></trkpt>
<trkpt lat="46.1475" lon="7.14721"><ele>434</ele><time>2016-08-06T18:26:19Z</time></trkpt>
<trkpt lat="46.14747" lon="7.14714"><ele>434</ele><time>2016-08-06T18:26:20Z</time></trkpt>
<trkpt lat="46.14744" lon="7.14707"><ele>434</ele><time>2016-08-06T18:26:21Z</time></trkpt>
<trkpt lat="46.14739" lon="7.14693"><ele>434</ele><time>2016-08-06T18:26:23Z</time></trkpt>
<trkpt lat="46.14737" lon="7.14686"><ele>434</ele><time>2016-08-06T18:26:24Z</time></trkpt>
<trkpt lat="46.14734" lon="7.14679"><ele>433.8</ele><time>2016-08-06T18:26:25Z</time></trkpt>
<trkpt lat="46.14729" lon="7.14665"><ele>433.8</ele><time>2016-08-06T18:26:27Z</time></trkpt>
<trkpt lat="46.14726" lon="7.14658"><ele>433.8</ele><time>2016-08-06T18:26:28Z</time></trkpt>
<trkpt lat="46.14724" lon="7.14651"><ele>433.8</ele><time>2016-08-06T18:26:29Z</time></trkpt>
<trkpt lat="46.1472" lon="7.14644"><ele>433.8</ele><time>2016-08-06T18:26:30Z</time></trkpt>
<trkpt lat="46.1471" lon="7.14623"><ele>433.8</ele><time>2016-08-06T18:26:33Z</time></trkpt>
<trkpt lat="46.14702" lon="7.14608"><ele>433.8</ele><time>2016-08-06T18:26:35Z</time></trkpt>
<trkpt lat="46.14695" lon="7.14594"><ele>433.8</ele><time>2016-08-06T18:26:37Z</time></trkpt>
<trkpt lat="46.14688" lon="7.1458"><ele>433.8</ele><time>2016-08-06T18:26:39Z</time></trkpt>
<trkpt lat="46.14681" lon="7.14566"><ele>433.8</ele><time>2016-08-06T18:26:41Z</time></trkpt>
<trkpt lat="46.14674" lon="7.14551"><ele>433.8</ele><time>2016-08-06T18:26:43Z</time></trkpt>
<trkpt lat="46.14667" lon="7.14537"><ele>433.8</ele><time>2016-08-06T18:26:45Z</time></trkpt>
<trkpt lat="46.1466" lon="7.14521"><ele>433.8</ele><time>2016-08-06T18:26:47Z</time></trkpt>
<trkpt lat="46.14653" lon="7.14506"><ele>433.6</ele><time>2016-08-06T18:26:49Z</time></trkpt>
<trkpt lat="46.14646" lon="7.1449"><ele>433.6</ele><time>2016-08-06T18:26:51Z</time></trkpt>
<trkpt lat="46.14642" lon="7.14482"><ele>433.6</ele><time>2016-08-06T18:26:52Z</time></trkpt>
<trkpt lat="46.14639" lon="7.14475"><ele>433.6</ele><time>2016-08-06T18:26:53Z</time></trkpt>
<trkpt lat="46.14636" lon="7.14468"><ele>433.6</ele><time>2016-08-06T18:26:54Z</time></trkpt>
<trkpt lat="46.14626" lon="7.14446"><ele>433.6</ele><time>2016-08-06T18:26:57Z</time></trkpt>
<trkpt lat="46.14623" lon="7.14439"><ele>433.6</ele><time>2016-08-06T18:26:58Z</time></trkpt>
<trkpt lat="46.14617" lon="7.14424"><ele>433.6</ele><time>2016-08-06T18:27:00Z</time></trkpt>
<trkpt lat="46.14613" lon="7.14417"><ele>433.6</ele><time>2016-08-06T18:27:01Z</time></trkpt>
<trkpt lat="46.1461" lon="7.14409"><ele>433.6</ele><time>2016-08-06T18:27:02Z</time></trkpt>
<trkpt lat="46.146" lon="7.14387"><ele>433.6</ele><time>2016-08-06T18:27:05Z</time></trkpt>
<trkpt lat="46.14593" lon="7.14372"><ele>433.6</ele><time>2016-08-06T18:27:07Z</time></trkpt>
<trkpt lat="46.1459" lon="7.14364"><ele>433.6</ele><time>2016-08-06T18:27:08Z</time></trkpt>
<trkpt lat="46.14586" lon="7.14357"><ele>433.6</ele><time>2016-08-06T18:27:09Z</time></trkpt>
<trkpt lat="46.14579" lon="7.14342"><ele>433.4</ele><time>2016-08-06T18:27:11Z</time></trkpt>
<trkpt lat="46.14572" lon="7.14327"><ele>433.4</ele><time>2016-08-06T18:27:13Z</time></trkpt>
<trkpt lat="46.14564" lon="7.14312"><ele>433.4</ele><time>2016-08-06T18:27:15Z</time></trkpt>
<trkpt lat="46.14561" lon="7.14305"><ele>433.4</ele><time>2016-08-06T18:27:16Z</time></trkpt>
<trkpt lat="46.14558" lon="7.14298"><ele>433.4</ele><time>2016-08-06T18:27:17Z</time></trkpt>
<trkpt lat="46.14552" lon="7.14284"><ele>433.4</ele><time>2016-08-06T18:27:19Z</time></trkpt>
<trkpt lat="46.14545" lon="7.1427"><ele>433.4</ele><time>2016-08-06T18:27:21Z</time></trkpt>
<trkpt lat="46.14539" lon="7.14256"><ele>433.4</ele><time>2016-08-06T18:27:23Z</time></trkpt>
<trkpt lat="46.14536" lon="7.14249"><ele>433.4</ele><time>2016-08-06T18:27:24Z</time></trkpt>
<trkpt lat="46.14527" lon="7.14228"><ele>433.4</ele><time>2016-08-06T18:27:27Z</time></trkpt>
<trkpt lat="46.14523" lon="7.14221"><ele>433.4</ele><time>2016-08-06T18:27:28Z</time></trkpt>
<trkpt lat="46.14514" lon="7.142"><ele>433.4</ele><time>2016-08-06T18:27:31Z</time></trkpt>
<trkpt lat="46.14511" lon="7.14193"><ele>433.4</ele><time>2016-08-06T18:27:32Z</time></trkpt>
<trkpt lat="46.14508" lon="7.14186"><ele>433.4</ele><time>2016-08-06T18:27:33Z</time></trkpt>
<trkpt lat="46.14502" lon="7.14171"><ele>433.2</ele><time>2016-08-06T18:27:35Z</time></trkpt>
<trkpt lat="46.14501" lon="7.14163"><ele>433.2</ele><time>2016-08-06T18:27:36Z</time></trkpt>
<trkpt lat="46.14497" lon="7.14156"><ele>433.2</ele><time>2016-08-06T18:27:37Z</time></trkpt>
<trkpt lat="46.1449" lon="7.14141"><ele>433.2</ele><time>2016-08-06T18:27:39Z</time></trkpt>
<trkpt lat="46.14482" lon="7.14127"><ele>433.2</ele><time>2016-08-06T18:27:41Z</time></trkpt>
<trkpt lat="46.14475" lon="7.14112"><ele>433.2</ele><time>2016-08-06T18:27:43Z</time></trkpt>
<trkpt lat="46.14472" lon="7.14104"><ele>433.2</ele><time>2016-08-06T18:27:44Z</time></trkpt>
<trkpt lat="46.14473" lon="7.14095"><ele>433.2</ele><time>2016-08-06T18:27:45Z</time></trkpt>
<trkpt lat="46.14465" lon="7.14081"><ele>433.2</ele><time>2016-08-06T18:27:47Z</time></trkpt>
<trkpt lat="46.14457" lon="7.14067"><ele>433.2</ele><time>2016-08-06T18:27:49Z</time></trkpt>
<trkpt lat="46.14449" lon="7.14053"><ele>433.2</ele><time>2016-08-06T18:27:51Z</time></trkpt>
<trkpt lat="46.14441" lon="7.1404"><ele>433.2</ele><time>2016-08-06T18:27:53Z</time></trkpt>
<trkpt lat="46.14435" lon="7.14025"><ele>433.2</ele><time>2016-08-06T18:27:55Z</time></trkpt>
<trkpt lat="46.14428" lon="7.14011"><ele>433.2</ele><time>2016-08-06T18:27:57Z</time></trkpt>
<trkpt lat="46.14425" lon="7.14004"><ele>433</ele><time>2016-08-06T18:27:58Z</time></trkpt>
<trkpt lat="46.14415" lon="7.13983"><ele>433</ele><time>2016-08-06T18:28:01Z</time></trkpt>
<trkpt lat="46.14408" lon="7.1397"><ele>433</ele><time>2016-08-06T18:28:03Z</time></trkpt>
<trkpt lat="46.144" lon="7.13957"><ele>433</ele><time>2016-08-06T18:28:05Z</time></trkpt>
<trkpt lat="46.14393" lon="7.13945"><ele>433</ele><time>2016-08-06T18:28:07Z</time></trkpt>
<trkpt lat="46.14385" lon="7.13932"><ele>433</ele><time>2016-08-06T18:28:09Z</time></trkpt>
<trkpt lat="46.14377" lon="7.13917"><ele>433</ele><time>2016-08-06T18:28:11Z</time></trkpt>
<trkpt lat="46.14369" lon="7.13903"><ele>433</ele><time>2016-08-06T18:28:13Z</time></trkpt>
<trkpt lat="46.14361" lon="7.13888"><ele>433</ele><time>2016-08-06T18:28:15Z</time></trkpt>
<trkpt lat="46.14353" lon="7.13874"><ele>433</ele><time>2016-08-06T18:28:17Z</time></trkpt>
<trkpt lat="46.14345" lon="7.1386"><ele>433</ele><time>2016-08-06T18:28:19Z</time></trkpt>
<trkpt lat="46.14337" lon="7.13846"><ele>432.8</ele><time>2016-08-06T18:28:21Z</time></trkpt>
<trkpt lat="46.14328" lon="7.13832"><ele>432.8</ele><time>2016-08-06T18:28:23Z</time></trkpt>
<trkpt lat="46.14321" lon="7.13817"><ele>432.8</ele><time>2016-08-06T18:28:25Z</time></trkpt>
<trkpt lat="46.14317" lon="7.1381"><ele>432.8</ele><time>2016-08-06T18:28:26Z</time></trkpt>
<trkpt lat="46.14311" lon="7.13807"><ele>432.8</ele><time>2016-08-06T18:28:27Z</time></trkpt>
<trkpt lat="46.14307" lon="7.13799"><ele>432.8</ele><time>2016-08-06T18:28:28Z</time></trkpt>
<trkpt lat="46.14299" lon="7.13784"><ele>432.8</ele><time>2016-08-06T18:28:30Z</time></trkpt>
<trkpt lat="46.14291" lon="7.13769"><ele>432.8</ele><time>2016-08-06T18:28:32Z</time></trkpt>
<trkpt lat="46.14283" lon="7.13754"><ele>432.8</ele><time>2016-08-06T18:28:34Z</time></trkpt>
<trkpt lat="46.1428" lon="7.13748"><ele>432.8</ele><time>2016-08-06T18:28:35Z</time></trkpt>
<trkpt lat="46.14273" lon="7.13736"><ele>432.8</ele><time>2016-08-06T18:28:37Z</time></trkpt>
<trkpt lat="46.14266" lon="7.13723"><ele>432.8</ele><time>2016-08-06T18:28:39Z</time></trkpt>
<trkpt lat="46.1426" lon="7.13711"><ele>432.8</ele><time>2016-08-06T18:28:41Z</time></trkpt>
<trkpt lat="46.14253" lon="7.13699"><ele>432.8</ele><time>2016-08-06T18:28:43Z</time></trkpt>
<trkpt lat="46.14249" lon="7.13692"><ele>432.6</ele><time>2016-08-06T18:28:44Z</time></trkpt>
<trkpt lat="46.14236" lon="7.13672"><ele>432.6</ele><time>2016-08-06T18:28:47Z</time></trkpt>
<trkpt lat="46.14228" lon="7.13658"><ele>432.6</ele><time>2016-08-06T18:28:49Z</time></trkpt>
<trkpt lat="46.14224" lon="7.13651"><ele>432.6</ele><time>2016-08-06T18:28:50Z</time></trkpt>
<trkpt lat="46.14221" lon="7.13644"><ele>432.6</ele><time>2016-08-06T18:28:51Z</time></trkpt>
<trkpt lat="46.14217" lon="7.13638"><ele>432.6</ele><time>2016-08-06T18:28:52Z</time></trkpt>
<trkpt lat="46.14211" lon="7.13634"><ele>432.6</ele><time>2016-08-06T18:28:53Z</time></trkpt>
<trkpt lat="46.14206" lon="7.13627"><ele>432.6</ele><time>2016-08-06T18:28:54Z</time></trkpt>
<trkpt lat="46.14193" lon="7.13607"><ele>432.6</ele><time>2016-08-06T18:28:57Z</time></trkpt>
<trkpt lat="46.14183" lon="7.13593"><ele>432.6</ele><time>2016-08-06T18:28:59Z</time></trkpt>
<trkpt lat="46.14179" lon="7.13587"><ele>432.6</ele><time>2016-08-06T18:29:00Z</time></trkpt>
<trkpt lat="46.14176" lon="7.1358"><ele>432.6</ele><time>2016-08-06T18:29:01Z</time></trkpt>
<trkpt lat="46.14176" lon="7.13574"><ele>432.6</ele><time>2016-08-06T18:29:02Z</time></trkpt>
<trkpt lat="46.14172" lon="7.13566"><ele>432.6</ele><time>2016-08-06T18:29:03Z</time></trkpt>
<trkpt lat="46.14165" lon="7.1355"><ele>432.6</ele><time>2016-08-06T18:29:05Z</time></trkpt>
<trkpt lat="46.14156" lon="7.13537"><ele>432.4</ele><time>2016-08-06T18:29:07Z</time></trkpt>
<trkpt lat="46.14147" lon="7.13523"><ele>432.4</ele><time>2016-08-06T18:29:09Z</time></trkpt>
<trkpt lat="46.14138" lon="7.1351"><ele>432.4</ele><time>2016-08-06T18:29:11Z</time></trkpt>
<trkpt lat="46.14134" lon="7.13504"><ele>432.4</ele><time>2016-08-06T18:29:12Z</time></trkpt>
<trkpt lat="46.1413" lon="7.13497"><ele>432.4</ele><time>2016-08-06T18:29:13Z</time></trkpt>
<trkpt lat="46.14122" lon="7.13483"><ele>432.4</ele><time>2016-08-06T18:29:15Z</time></trkpt>
<trkpt lat="46.14121" lon="7.13477"><ele>432.4</ele><time>2016-08-06T18:29:16Z</time></trkpt>
<trkpt lat="46.14117" lon="7.13471"><ele>432.4</ele><time>2016-08-06T18:29:17Z</time></trkpt>
<trkpt lat="46.14109" lon="7.13459"><ele>432.4</ele><time>2016-08-06T18:29:19Z</time></trkpt>
<trkpt lat="46.14101" lon="7.13448"><ele>432.4</ele><time>2016-08-06T18:29:21Z</time></trkpt>
<trkpt lat="46.14097" lon="7.13442"><ele>432.4</ele><time>2016-08-06T18:29:22Z</time></trkpt>
<trkpt lat="46.14089" lon="7.1343"><ele>432.4</ele><time>2016-08-06T18:29:24Z</time></trkpt>
<trkpt lat="46.14082" lon="7.13417"><ele>432.4</ele><time>2016-08-06T18:29:26Z</time></trkpt>
<trkpt lat="46.14075" lon="7.13405"><ele>432.4</ele><time>2016-08-06T18:29:28Z</time></trkpt>
<trkpt lat="46.14067" lon="7.13392"><ele>432.2</ele><time>2016-08-06T18:29:30Z</time></trkpt>
<trkpt lat="46.1406" lon="7.1338"><ele>432.2</ele><time>2016-08-06T18:29:32Z</time></trkpt>
<trkpt lat="46.14057" lon="7.13374"><ele>432.2</ele><time>2016-08-06T18:29:33Z</time></trkpt>
<trkpt lat="46.14053" lon="7.13367"><ele>432.2</ele><time>2016-08-06T18:29:34Z</time></trkpt>
<trkpt lat="46.14045" lon="7.13353"><ele>432.2</ele><time>2016-08-06T18:29:36Z</time></trkpt>
<trkpt lat="46.14038" lon="7.1334"><ele>432.2</ele><time>2016-08-06T18:29:38Z</time></trkpt>
<trkpt lat="46.1403" lon="7.13326"><ele>432.2</ele><time>2016-08-06T18:29:40Z</time></trkpt>
<trkpt lat="46.14026" lon="7.1332"><ele>432.2</ele><time>2016-08-06T18:29:41Z</time></trkpt>
<trkpt lat="46.14022" lon="7.13313"><ele>432.2</ele><time>2016-08-06T18:29:42Z</time></trkpt>
<trkpt lat="46.14013" lon="7.13301"><ele>432.2</ele><time>2016-08-06T18:29:44Z</time></trkpt>
<trkpt lat="46.14004" lon="7.13288"><ele>432.2</ele><time>2016-08-06T18:29:46Z</time></trkpt>
<trkpt lat="46.13995" lon="7.13276"><ele>432.2</ele><time>2016-08-06T18:29:48Z</time></trkpt>
<trkpt lat="46.13991" lon="7.13267"><ele>432.2</ele><time>2016-08-06T18:29:49Z</time></trkpt>
<trkpt lat="46.13991" lon="7.13261"><ele>432.2</ele><time>2016-08-06T18:29:50Z</time></trkpt>
<trkpt lat="46.1398" lon="7.13244"><ele>432</ele><time>2016-08-06T18:29:53Z</time></trkpt>
<trkpt lat="46.13976" lon="7.13239"><ele>432</ele><time>2016-08-06T18:29:54Z</time></trkpt>
<trkpt lat="46.13965" lon="7.13222"><ele>432</ele><time>2016-08-06T18:29:57Z</time></trkpt>
<trkpt lat="46.13958" lon="7.13211"><ele>432</ele><time>2016-08-06T18:29:59Z</time></trkpt>
<trkpt lat="46.13955" lon="7.13204"><ele>432</ele><time>2016-08-06T18:30:00Z</time></trkpt>
<trkpt lat="46.13944" lon="7.13185"><ele>432</ele><time>2016-08-06T18:30:03Z</time></trkpt>
<trkpt lat="46.13936" lon="7.13172"><ele>432</ele><time>2016-08-06T18:30:05Z</time></trkpt>
<trkpt lat="46.13929" lon="7.13159"><ele>432</ele><time>2016-08-06T18:30:07Z</time></trkpt>
<trkpt lat="46.1392" lon="7.13147"><ele>432</ele><time>2016-08-06T18:30:09Z</time></trkpt>
<trkpt lat="46.13912" lon="7.13134"><ele>432</ele><time>2016-08-06T18:30:11Z</time></trkpt>
<trkpt lat="46.13904" lon="7.13122"><ele>432</ele><time>2016-08-06T18:30:13Z</time></trkpt>
<trkpt lat="46.13899" lon="7.13116"><ele>432</ele><time>2016-08-06T18:30:14Z</time></trkpt>
<trkpt lat="46.13893" lon="7.1311"><ele>432</ele><time>2016-08-06T18:30:15Z</time></trkpt>
<trkpt lat="46.13884" lon="7.13097"><ele>431.8</ele><time>2016-08-06T18:30:17Z</time></trkpt>
<trkpt lat="46.13876" lon="7.13084"><ele>431.8</ele><time>2016-08-06T18:30:19Z</time></trkpt>
<trkpt lat="46.13868" lon="7.13069"><ele>431.8</ele><time>2016-08-06T18:30:21Z</time></trkpt>
<trkpt lat="46.1386" lon="7.13055"><ele>431.8</ele><time>2016-08-06T18:30:23Z</time></trkpt>
<trkpt lat="46.13852" lon="7.1304"><ele>431.8</ele><time>2016-08-06T18:30:25Z</time></trkpt>
<trkpt lat="46.13844" lon="7.13026"><ele>431.8</ele><time>2016-08-06T18:30:27Z</time></trkpt>
<trkpt lat="46.13836" lon="7.13011"><ele>431.8</ele><time>2016-08-06T18:30:29Z</time></trkpt>
<trkpt lat="46.13833" lon="7.13004"><ele>431.8</ele><time>2016-08-06T18:30:30Z</time></trkpt>
<trkpt lat="46.13826" lon="7.12981"><ele>431.8</ele><time>2016-08-06T18:30:33Z</time></trkpt>
<trkpt lat="46.1382" lon="7.12968"><ele>431.8</ele><time>2016-08-06T18:30:35Z</time></trkpt>
<trkpt lat="46.13814" lon="7.12955"><ele>431.8</ele><time>2016-08-06T18:30:37Z</time></trkpt>
<trkpt lat="46.13811" lon="7.12948"><ele>431.8</ele><time>2016-08-06T18:30:38Z</time></trkpt>
<trkpt lat="46.13805" lon="7.12935"><ele>431.6</ele><time>2016-08-06T18:30:40Z</time></trkpt>
<trkpt lat="46.13802" lon="7.12927"><ele>431.6</ele><time>2016-08-06T18:30:41Z</time></trkpt>
<trkpt lat="46.138" lon="7.1292"><ele>431.6</ele><time>2016-08-06T18:30:42Z</time></trkpt>
<trkpt lat="46.13793" lon="7.12899"><ele>431.6</ele><time>2016-08-06T18:30:45Z</time></trkpt>
<trkpt lat="46.13788" lon="7.12885"><ele>431.6</ele><time>2016-08-06T18:30:47Z</time></trkpt>
<trkpt lat="46.13785" lon="7.12878"><ele>431.6</ele><time>2016-08-06T18:30:48Z</time></trkpt>
<trkpt lat="46.13783" lon="7.12871"><ele>431.6</ele><time>2016-08-06T18:30:49Z</time></trkpt>
<trkpt lat="46.1378" lon="7.12863"><ele>431.6</ele><time>2016-08-06T18:30:50Z</time></trkpt>
<trkpt lat="46.1377" lon="7.12838"><ele>431.6</ele><time>2016-08-06T18:30:53Z</time></trkpt>
<trkpt lat="46.13767" lon="7.1283"><ele>431.6</ele><time>2016-08-06T18:30:54Z</time></trkpt>
<trkpt lat="46.13764" lon="7.12821"><ele>431.6</ele><time>2016-08-06T18:30:55Z</time></trkpt>
<trkpt lat="46.13759" lon="7.12803"><ele>431.6</ele><time>2016-08-06T18:30:57Z</time></trkpt>
<trkpt lat="46.13756" lon="7.12794"><ele>431.6</ele><time>2016-08-06T18:30:58Z</time></trkpt>
<trkpt lat="46.13747" lon="7.12768"><ele>431.6</ele><time>2016-08-06T18:31:01Z</time></trkpt>
<trkpt lat="46.13744" lon="7.12759"><ele>431.6</ele><time>2016-08-06T18:31:02Z</time></trkpt>
<trkpt lat="46.13736" lon="7.12735"><ele>431.4</ele><time>2016-08-06T18:31:05Z</time></trkpt>
<trkpt lat="46.13731" lon="7.12718"><ele>431.4</ele><time>2016-08-06T18:31:07Z</time></trkpt>
<trkpt lat="46.13728" lon="7.1271"><ele>431.4</ele><time>2016-08-06T18:31:08Z</time></trkpt>
<trkpt lat="46.13723" lon="7.12694"><ele>431.4</ele><time>2016-08-06T18:31:10Z</time></trkpt>
<trkpt lat="46.13721" lon="7.12685"><ele>431.4</ele><time>2016-08-06T18:31:11Z</time></trkpt>
<trkpt lat="46.13718" lon="7.12667"><ele>431.4</ele><time>2016-08-06T18:31:13Z</time></trkpt>
<trkpt lat="46.13715" lon="7.1265"><ele>431.4</ele><time>2016-08-06T18:31:15Z</time></trkpt>
<trkpt lat="46.13711" lon="7.12633"><ele>431.4</ele><time>2016-08-06T18:31:17Z</time></trkpt>
<trkpt lat="46.1371" lon="7.12624"><ele>431.4</ele><time>2016-08-06T18:31:18Z</time></trkpt>
<trkpt lat="46.13702" lon="7.12599"><ele>431.4</ele><time>2016-08-06T18:31:21Z</time></trkpt>
<trkpt lat="46.13696" lon="7.12582"><ele>431.4</ele><time>2016-08-06T18:31:23Z</time></trkpt>
<trkpt lat="46.13691" lon="7.12566"><ele>431.4</ele><time>2016-08-06T18:31:25Z</time></trkpt>
<trkpt lat="46.13688" lon="7.12557"><ele>431.2</ele><time>2016-08-06T18:31:26Z</time></trkpt>
<trkpt lat="46.13686" lon="7.12548"><ele>431.2</ele><time>2016-08-06T18:31:27Z</time></trkpt>
<trkpt lat="46.13683" lon="7.12539"><ele>431.2</ele><time>2016-08-06T18:31:28Z</time></trkpt>
<trkpt lat="46.13676" lon="7.12511"><ele>431.2</ele><time>2016-08-06T18:31:31Z</time></trkpt>
<trkpt lat="46.13671" lon="7.12493"><ele>431.2</ele><time>2016-08-06T18:31:33Z</time></trkpt>
<trkpt lat="46.13666" lon="7.12477"><ele>431.2</ele><time>2016-08-06T18:31:35Z</time></trkpt>
<trkpt lat="46.13661" lon="7.12461"><ele>431.2</ele><time>2016-08-06T18:31:37Z</time></trkpt>
<trkpt lat="46.13656" lon="7.12445"><ele>431.2</ele><time>2016-08-06T18:31:39Z</time></trkpt>
<trkpt lat="46.13653" lon="7.12436"><ele>431.2</ele><time>2016-08-06T18:31:40Z</time></trkpt>
<trkpt lat="46.13649" lon="7.12426"><ele>431.2</ele><time>2016-08-06T18:31:41Z</time></trkpt>
<trkpt lat="46.13648" lon="7.12407"><ele>431.2</ele><time>2016-08-06T18:31:43Z</time></trkpt>
<trkpt lat="46.13643" lon="7.1239"><ele>431.2</ele><time>2016-08-06T18:31:45Z</time></trkpt>
<trkpt lat="46.13638" lon="7.12372"><ele>431.2</ele><time>2016-08-06T18:31:47Z</time></trkpt>
<trkpt lat="46.13636" lon="7.12364"><ele>431.2</ele><time>2016-08-06T18:31:48Z</time></trkpt>
<trkpt lat="46.13628" lon="7.12338"><ele>431</ele><time>2016-08-06T18:31:51Z</time></trkpt>
<trkpt lat="46.13623" lon="7.12321"><ele>431</ele><time>2016-08-06T18:31:53Z</time></trkpt>
<trkpt lat="46.13618" lon="7.12304"><ele>431</ele><time>2016-08-06T18:31:55Z</time></trkpt>
<trkpt lat="46.13613" lon="7.12288"><ele>431</ele><time>2016-08-06T18:31:57Z</time></trkpt>
<trkpt lat="46.1361" lon="7.1228"><ele>431</ele><time>2016-08-06T18:31:58Z</time></trkpt>
<trkpt lat="46.13608" lon="7.12271"><ele>431</ele><time>2016-08-06T18:31:59Z</time></trkpt>
<trkpt lat="46.13604" lon="7.12254"><ele>431</ele><time>2016-08-06T18:32:01Z</time></trkpt>
<trkpt lat="46.136" lon="7.12237"><ele>431</ele><time>2016-08-06T18:32:03Z</time></trkpt>
<trkpt lat="46.13597" lon="7.1222"><ele>431</ele><time>2016-08-06T18:32:05Z</time></trkpt>
<trkpt lat="46.13593" lon="7.12204"><ele>431</ele><time>2016-08-06T18:32:07Z</time></trkpt>
<trkpt lat="46.1359" lon="7.1219"><ele>431</ele><time>2016-08-06T18:32:09Z</time></trkpt>
<trkpt lat="46.13587" lon="7.12177"><ele>431</ele><time>2016-08-06T18:32:11Z</time></trkpt>
<trkpt lat="46.13585" lon="7.1217"><ele>430.8</ele><time>2016-08-06T18:32:12Z</time></trkpt>
<trkpt lat="46.13584" lon="7.12164"><ele>430.8</ele><time>2016-08-06T18:32:13Z</time></trkpt>
<trkpt lat="46.1358" lon="7.12152"><ele>430.8</ele><time>2016-08-06T18:32:15Z</time></trkpt>
<trkpt lat="46.13576" lon="7.12141"><ele>430.8</ele><time>2016-08-06T18:32:17Z</time></trkpt>
<trkpt lat="46.13574" lon="7.12135"><ele>430.8</ele><time>2016-08-06T18:32:18Z</time></trkpt>
<trkpt lat="46.13573" lon="7.1213"><ele>430.8</ele><time>2016-08-06T18:32:19Z</time></trkpt>
<trkpt lat="46.13575" lon="7.12123"><ele>430.8</ele><time>2016-08-06T18:32:21Z</time></trkpt>
<trkpt lat="46.13577" lon="7.1212"><ele>430.8</ele><time>2016-08-06T18:32:22Z</time></trkpt>
<trkpt lat="46.13579" lon="7.12119"><ele>430.8</ele><time>2016-08-06T18:32:23Z</time></trkpt>
<trkpt lat="46.1358" lon="7.12119"><ele>430.8</ele><time>2016-08-06T18:32:24Z</time></trkpt>
<trkpt lat="46.13583" lon="7.12117"><ele>431</ele><time>2016-08-06T18:32:26Z</time></trkpt>
<trkpt lat="46.13582" lon="7.12115"><ele>431</ele><time>2016-08-06T18:32:27Z</time></trkpt>
<trkpt lat="46.13578" lon="7.1211"><ele>431</ele><time>2016-08-06T18:32:29Z</time></trkpt>
<trkpt lat="46.13574" lon="7.12111"><ele>431</ele><time>2016-08-06T18:32:30Z</time></trkpt>
<trkpt lat="46.1357" lon="7.12111"><ele>431</ele><time>2016-08-06T18:32:31Z</time></trkpt>
<trkpt lat="46.13566" lon="7.12106"><ele>431</ele><time>2016-08-06T18:32:32Z</time></trkpt>
<trkpt lat="46.13562" lon="7.12101"><ele>431</ele><time>2016-08-06T18:32:33Z</time></trkpt>
<trkpt lat="46.13558" lon="7.12086"><ele>431</ele><time>2016-08-06T18:32:35Z</time></trkpt>
<trkpt lat="46.13554" lon="7.1207"><ele>431</ele><time>2016-08-06T18:32:37Z</time></trkpt>
<trkpt lat="46.1355" lon="7.12055"><ele>431</ele><time>2016-08-06T18:32:39Z</time></trkpt>
<trkpt lat="46.13545" lon="7.1204"><ele>431</ele><time>2016-08-06T18:32:41Z</time></trkpt>
<trkpt lat="46.13539" lon="7.12023"><ele>431</ele><time>2016-08-06T18:32:43Z</time></trkpt>
<trkpt lat="46.13534" lon="7.12006"><ele>431</ele><time>2016-08-06T18:32:45Z</time></trkpt>
<trkpt lat="46.13528" lon="7.11989"><ele>431</ele><time>2016-08-06T18:32:47Z</time></trkpt>
<trkpt lat="46.13525" lon="7.1198"><ele>431</ele><time>2016-08-06T18:32:48Z</time></trkpt>
<trkpt lat="46.13522" lon="7.11971"><ele>431</ele><time>2016-08-06T18:32:49Z</time></trkpt>
<trkpt lat="46.13517" lon="7.11953"><ele>431</ele><time>2016-08-06T18:32:51Z</time></trkpt>
<trkpt lat="46.13511" lon="7.11936"><ele>431.2</ele><time>2016-08-06T18:32:53Z</time></trkpt>
<trkpt lat="46.13505" lon="7.11919"><ele>431.2</ele><time>2016-08-06T18:32:55Z</time></trkpt>
<trkpt lat="46.13503" lon="7.1191"><ele>431.2</ele><time>2016-08-06T18:32:56Z</time></trkpt>
<trkpt lat="46.13499" lon="7.11901"><ele>431.2</ele><time>2016-08-06T18:32:57Z</time></trkpt>
<trkpt lat="46.13494" lon="7.11882"><ele>431.2</ele><time>2016-08-06T18:32:59Z</time></trkpt>
<trkpt lat="46.13491" lon="7.11873"><ele>431.2</ele><time>2016-08-06T18:33:00Z</time></trkpt>
<trkpt lat="46.13486" lon="7.11855"><ele>431.2</ele><time>2016-08-06T18:33:02Z</time></trkpt>
<trkpt lat="46.13481" lon="7.11836"><ele>431.2</ele><time>2016-08-06T18:33:04Z</time></trkpt>
<trkpt lat="46.13478" lon="7.11826"><ele>431.2</ele><time>2016-08-06T18:33:05Z</time></trkpt>
<trkpt lat="46.13474" lon="7.11808"><ele>431.2</ele><time>2016-08-06T18:33:07Z</time></trkpt>
<trkpt lat="46.13469" lon="7.11789"><ele>431.2</ele><time>2016-08-06T18:33:09Z</time></trkpt>
<trkpt lat="46.13463" lon="7.11771"><ele>431.2</ele><time>2016-08-06T18:33:11Z</time></trkpt>
<trkpt lat="46.13458" lon="7.11753"><ele>431.2</ele><time>2016-08-06T18:33:13Z</time></trkpt>
<trkpt lat="46.13451" lon="7.11735"><ele>431.2</ele><time>2016-08-06T18:33:15Z</time></trkpt>
<trkpt lat="46.13445" lon="7.11718"><ele>431.2</ele><time>2016-08-06T18:33:17Z</time></trkpt>
<trkpt lat="46.13442" lon="7.11709"><ele>431.4</ele><time>2016-08-06T18:33:18Z</time></trkpt>
<trkpt lat="46.13436" lon="7.11692"><ele>431.4</ele><time>2016-08-06T18:33:20Z</time></trkpt>
<trkpt lat="46.13433" lon="7.11683"><ele>431.4</ele><time>2016-08-06T18:33:21Z</time></trkpt>
<trkpt lat="46.13426" lon="7.11664"><ele>431.4</ele><time>2016-08-06T18:33:23Z</time></trkpt>
<trkpt lat="46.1342" lon="7.11646"><ele>431.4</ele><time>2016-08-06T18:33:25Z</time></trkpt>
<trkpt lat="46.13413" lon="7.11628"><ele>431.4</ele><time>2016-08-06T18:33:27Z</time></trkpt>
<trkpt lat="46.13408" lon="7.11608"><ele>431.4</ele><time>2016-08-06T18:33:29Z</time></trkpt>
<trkpt lat="46.13406" lon="7.11598"><ele>431.4</ele><time>2016-08-06T18:33:30Z</time></trkpt>
<trkpt lat="46.13396" lon="7.11571"><ele>431.4</ele><time>2016-08-06T18:33:33Z</time></trkpt>
<trkpt lat="46.1339" lon="7.11553"><ele>431.4</ele><time>2016-08-06T18:33:35Z</time></trkpt>
<trkpt lat="46.13384" lon="7.11535"><ele>431.4</ele><time>2016-08-06T18:33:37Z</time></trkpt>
<trkpt lat="46.13379" lon="7.11517"><ele>431.4</ele><time>2016-08-06T18:33:39Z</time></trkpt>
<trkpt lat="46.13373" lon="7.11498"><ele>431.4</ele><time>2016-08-06T18:33:41Z</time></trkpt>
<trkpt lat="46.13368" lon="7.11489"><ele>431.4</ele><time>2016-08-06T18:33:42Z</time></trkpt>
<trkpt lat="46.13364" lon="7.11481"><ele>431.4</ele><time>2016-08-06T18:33:43Z</time></trkpt>
<trkpt lat="46.13358" lon="7.11462"><ele>431.6</ele><time>2016-08-06T18:33:45Z</time></trkpt>
<trkpt lat="46.13352" lon="7.11443"><ele>431.6</ele><time>2016-08-06T18:33:47Z</time></trkpt>
<trkpt lat="46.13349" lon="7.11434"><ele>431.6</ele><time>2016-08-06T18:33:48Z</time></trkpt>
<trkpt lat="46.13342" lon="7.11416"><ele>431.6</ele><time>2016-08-06T18:33:50Z</time></trkpt>
<trkpt lat="46.13333" lon="7.11389"><ele>431.6</ele><time>2016-08-06T18:33:53Z</time></trkpt>
<trkpt lat="46.13326" lon="7.11371"><ele>431.6</ele><time>2016-08-06T18:33:55Z</time></trkpt>
<trkpt lat="46.13321" lon="7.11362"><ele>431.6</ele><time>2016-08-06T18:33:56Z</time></trkpt>
<trkpt lat="46.13318" lon="7.11352"><ele>431.6</ele><time>2016-08-06T18:33:57Z</time></trkpt>
<trkpt lat="46.13315" lon="7.11343"><ele>431.6</ele><time>2016-08-06T18:33:58Z</time></trkpt>
<trkpt lat="46.13308" lon="7.11325"><ele>431.6</ele><time>2016-08-06T18:34:00Z</time></trkpt>
<trkpt lat="46.13301" lon="7.11307"><ele>431.6</ele><time>2016-08-06T18:34:02Z</time></trkpt>
<trkpt lat="46.13297" lon="7.11298"><ele>431.6</ele><time>2016-08-06T18:34:03Z</time></trkpt>
<trkpt lat="46.13289" lon="7.11281"><ele>431.6</ele><time>2016-08-06T18:34:05Z</time></trkpt>
<trkpt lat="46.13281" lon="7.11264"><ele>431.6</ele><time>2016-08-06T18:34:07Z</time></trkpt>
<trkpt lat="46.13277" lon="7.11256"><ele>431.6</ele><time>2016-08-06T18:34:08Z</time></trkpt>
<trkpt lat="46.13273" lon="7.11247"><ele>431.6</ele><time>2016-08-06T18:34:09Z</time></trkpt>
<trkpt lat="46.13263" lon="7.11229"><ele>431.8</ele><time>2016-08-06T18:34:11Z</time></trkpt>
<trkpt lat="46.13261" lon="7.11219"><ele>431.8</ele><time>2016-08-06T18:34:12Z</time></trkpt>
<trkpt lat="46.13258" lon="7.1121"><ele>431.8</ele><time>2016-08-06T18:34:13Z</time></trkpt>
<trkpt lat="46.13255" lon="7.112"><ele>431.8</ele><time>2016-08-06T18:34:14Z</time></trkpt>
<trkpt lat="46.13244" lon="7.11172"><ele>431.8</ele><time>2016-08-06T18:34:17Z</time></trkpt>
<trkpt lat="46.13237" lon="7.11153"><ele>431.8</ele><time>2016-08-06T18:34:19Z</time></trkpt>
<trkpt lat="46.13229" lon="7.11135"><ele>431.8</ele><time>2016-08-06T18:34:21Z</time></trkpt>
<trkpt lat="46.13222" lon="7.11116"><ele>431.8</ele><time>2016-08-06T18:34:23Z</time></trkpt>
<trkpt lat="46.13214" lon="7.11097"><ele>431.8</ele><time>2016-08-06T18:34:25Z</time></trkpt>
<trkpt lat="46.13206" lon="7.11078"><ele>431.8</ele><time>2016-08-06T18:34:27Z</time></trkpt>
<trkpt lat="46.13202" lon="7.11069"><ele>431.8</ele><time>2016-08-06T18:34:28Z</time></trkpt>
<trkpt lat="46.13195" lon="7.1106"><ele>431.8</ele><time>2016-08-06T18:34:29Z</time></trkpt>
<trkpt lat="46.13192" lon="7.11051"><ele>431.8</ele><time>2016-08-06T18:34:30Z</time></trkpt>
<trkpt lat="46.13183" lon="7.11024"><ele>431.8</ele><time>2016-08-06T18:34:33Z</time></trkpt>
<trkpt lat="46.13177" lon="7.11006"><ele>431.8</ele><time>2016-08-06T18:34:35Z</time></trkpt>
<trkpt lat="46.13174" lon="7.10997"><ele>431.8</ele><time>2016-08-06T18:34:36Z</time></trkpt>
<trkpt lat="46.1317" lon="7.10988"><ele>432</ele><time>2016-08-06T18:34:37Z</time></trkpt>
<trkpt lat="46.13166" lon="7.10979"><ele>432</ele><time>2016-08-06T18:34:38Z</time></trkpt>
<trkpt lat="46.13155" lon="7.10952"><ele>432</ele><time>2016-08-06T18:34:41Z</time></trkpt>
<trkpt lat="46.13147" lon="7.10934"><ele>432</ele><time>2016-08-06T18:34:43Z</time></trkpt>
<trkpt lat="46.13141" lon="7.10915"><ele>432</ele><time>2016-08-06T18:34:45Z</time></trkpt>
<trkpt lat="46.13136" lon="7.10896"><ele>432</ele><time>2016-08-06T18:34:47Z</time></trkpt>
<trkpt lat="46.13134" lon="7.10886"><ele>432</ele><time>2016-08-06T18:34:48Z</time></trkpt>
<trkpt lat="46.13132" lon="7.10876"><ele>432</ele><time>2016-08-06T18:34:49Z</time></trkpt>
<trkpt lat="46.13125" lon="7.10861"><ele>432</ele><time>2016-08-06T18:34:51Z</time></trkpt>
<trkpt lat="46.13121" lon="7.10853"><ele>432</ele><time>2016-08-06T18:34:52Z</time></trkpt>
<trkpt lat="46.13119" lon="7.10844"><ele>432</ele><time>2016-08-06T18:34:53Z</time></trkpt>
<trkpt lat="46.13116" lon="7.10835"><ele>432</ele><time>2016-08-06T18:34:54Z</time></trkpt>
<trkpt lat="46.13111" lon="7.10818"><ele>432</ele><time>2016-08-06T18:34:56Z</time></trkpt>
<trkpt lat="46.13107" lon="7.10809"><ele>432</ele><time>2016-08-06T18:34:57Z</time></trkpt>
<trkpt lat="46.13101" lon="7.10792"><ele>432</ele><time>2016-08-06T18:34:59Z</time></trkpt>
<trkpt lat="46.13094" lon="7.10775"><ele>432</ele><time>2016-08-06T18:35:01Z</time></trkpt>
<trkpt lat="46.13087" lon="7.10758"><ele>432</ele><time>2016-08-06T18:35:03Z</time></trkpt>
<trkpt lat="46.13081" lon="7.10741"><ele>432.2</ele><time>2016-08-06T18:35:05Z</time></trkpt>
<trkpt lat="46.13076" lon="7.10724"><ele>432.2</ele><time>2016-08-06T18:35:07Z</time></trkpt>
<trkpt lat="46.1307" lon="7.10707"><ele>432.2</ele><time>2016-08-06T18:35:09Z</time></trkpt>
<trkpt lat="46.13067" lon="7.10698"><ele>432.2</ele><time>2016-08-06T18:35:10Z</time></trkpt>
<trkpt lat="46.13064" lon="7.1069"><ele>432.2</ele><time>2016-08-06T18:35:11Z</time></trkpt>
<trkpt lat="46.13059" lon="7.10675"><ele>432.2</ele><time>2016-08-06T18:35:13Z</time></trkpt>
<trkpt lat="46.13054" lon="7.10659"><ele>432.2</ele><time>2016-08-06T18:35:15Z</time></trkpt>
<trkpt lat="46.13048" lon="7.10643"><ele>432.2</ele><time>2016-08-06T18:35:17Z</time></trkpt>
<trkpt lat="46.13045" lon="7.10635"><ele>432.2</ele><time>2016-08-06T18:35:18Z</time></trkpt>
<trkpt lat="46.13035" lon="7.10611"><ele>432.2</ele><time>2016-08-06T18:35:21Z</time></trkpt>
<trkpt lat="46.13029" lon="7.10594"><ele>432.2</ele><time>2016-08-06T18:35:23Z</time></trkpt>
<trkpt lat="46.13022" lon="7.10578"><ele>432.2</ele><time>2016-08-06T18:35:25Z</time></trkpt>
<trkpt lat="46.13016" lon="7.10561"><ele>432.2</ele><time>2016-08-06T18:35:27Z</time></trkpt>
<trkpt lat="46.13009" lon="7.10545"><ele>432.2</ele><time>2016-08-06T18:35:29Z</time></trkpt>
<trkpt lat="46.13003" lon="7.10528"><ele>432.4</ele><time>2016-08-06T18:35:31Z</time></trkpt>
<trkpt lat="46.12999" lon="7.10519"><ele>432.4</ele><time>2016-08-06T18:35:32Z</time></trkpt>
<trkpt lat="46.12996" lon="7.1051"><ele>432.4</ele><time>2016-08-06T18:35:33Z</time></trkpt>
<trkpt lat="46.12988" lon="7.10492"><ele>432.4</ele><time>2016-08-06T18:35:35Z</time></trkpt>
<trkpt lat="46.1298" lon="7.10475"><ele>432.4</ele><time>2016-08-06T18:35:37Z</time></trkpt>
<trkpt lat="46.12972" lon="7.10457"><ele>432.4</ele><time>2016-08-06T18:35:39Z</time></trkpt>
<trkpt lat="46.12966" lon="7.10439"><ele>432.4</ele><time>2016-08-06T18:35:41Z</time></trkpt>
<trkpt lat="46.12963" lon="7.1043"><ele>432.4</ele><time>2016-08-06T18:35:42Z</time></trkpt>
<trkpt lat="46.12956" lon="7.10412"><ele>432.4</ele><time>2016-08-06T18:35:44Z</time></trkpt>
<trkpt lat="46.12949" lon="7.10395"><ele>432.4</ele><time>2016-08-06T18:35:46Z</time></trkpt>
<trkpt lat="46.12946" lon="7.10386"><ele>432.4</ele><time>2016-08-06T18:35:47Z</time></trkpt>
<trkpt lat="46.12943" lon="7.10377"><ele>432.4</ele><time>2016-08-06T18:35:48Z</time></trkpt>
<trkpt lat="46.12936" lon="7.10359"><ele>432.4</ele><time>2016-08-06T18:35:50Z</time></trkpt>
<trkpt lat="46.12926" lon="7.10332"><ele>432.4</ele><time>2016-08-06T18:35:53Z</time></trkpt>
<trkpt lat="46.12921" lon="7.10318"><ele>432.4</ele><time>2016-08-06T18:35:55Z</time></trkpt>
<trkpt lat="46.12916" lon="7.10304"><ele>432.6</ele><time>2016-08-06T18:35:57Z</time></trkpt>
<trkpt lat="46.12911" lon="7.1029"><ele>432.6</ele><time>2016-08-06T18:35:59Z</time></trkpt>
<trkpt lat="46.12906" lon="7.10276"><ele>432.6</ele><time>2016-08-06T18:36:01Z</time></trkpt>
<trkpt lat="46.12903" lon="7.10269"><ele>432.6</ele><time>2016-08-06T18:36:02Z</time></trkpt>
<trkpt lat="46.12894" lon="7.10245"><ele>432.6</ele><time>2016-08-06T18:36:05Z</time></trkpt>
<trkpt lat="46.12887" lon="7.10229"><ele>432.6</ele><time>2016-08-06T18:36:07Z</time></trkpt>
<trkpt lat="46.12881" lon="7.10213"><ele>432.6</ele><time>2016-08-06T18:36:09Z</time></trkpt>
<trkpt lat="46.12878" lon="7.10205"><ele>432.6</ele><time>2016-08-06T18:36:10Z</time></trkpt>
<trkpt lat="46.12872" lon="7.10189"><ele>432.6</ele><time>2016-08-06T18:36:12Z</time></trkpt>
<trkpt lat="46.12863" lon="7.10164"><ele>432.6</ele><time>2016-08-06T18:36:15Z</time></trkpt>
<trkpt lat="46.12857" lon="7.10148"><ele>432.6</ele><time>2016-08-06T18:36:17Z</time></trkpt>
<trkpt lat="46.12854" lon="7.1014"><ele>432.6</ele><time>2016-08-06T18:36:18Z</time></trkpt>
<trkpt lat="46.12851" lon="7.10132"><ele>432.6</ele><time>2016-08-06T18:36:19Z</time></trkpt>
<trkpt lat="46.12848" lon="7.10123"><ele>432.6</ele><time>2016-08-06T18:36:20Z</time></trkpt>
<trkpt lat="46.12842" lon="7.10107"><ele>432.6</ele><time>2016-08-06T18:36:22Z</time></trkpt>
<trkpt lat="46.12836" lon="7.1009"><ele>432.8</ele><time>2016-08-06T18:36:24Z</time></trkpt>
<trkpt lat="46.12833" lon="7.10081"><ele>432.8</ele><time>2016-08-06T18:36:25Z</time></trkpt>
<trkpt lat="46.12827" lon="7.10065"><ele>432.8</ele><time>2016-08-06T18:36:27Z</time></trkpt>
<trkpt lat="46.12824" lon="7.10057"><ele>432.8</ele><time>2016-08-06T18:36:28Z</time></trkpt>
<trkpt lat="46.12818" lon="7.1004"><ele>432.8</ele><time>2016-08-06T18:36:30Z</time></trkpt>
<trkpt lat="46.12812" lon="7.10024"><ele>432.8</ele><time>2016-08-06T18:36:32Z</time></trkpt>
<trkpt lat="46.12806" lon="7.10008"><ele>432.8</ele><time>2016-08-06T18:36:34Z</time></trkpt>
<trkpt lat="46.12797" lon="7.09984"><ele>432.8</ele><time>2016-08-06T18:36:37Z</time></trkpt>
<trkpt lat="46.12794" lon="7.09976"><ele>432.8</ele><time>2016-08-06T18:36:38Z</time></trkpt>
<trkpt lat="46.12788" lon="7.0996"><ele>432.8</ele><time>2016-08-06T18:36:40Z</time></trkpt>
<trkpt lat="46.12781" lon="7.09944"><ele>432.8</ele><time>2016-08-06T18:36:42Z</time></trkpt>
<trkpt lat="46.1277" lon="7.09918"><ele>432.8</ele><time>2016-08-06T18:36:45Z</time></trkpt>
<trkpt lat="46.12764" lon="7.09901"><ele>432.8</ele><time>2016-08-06T18:36:47Z</time></trkpt>
<trkpt lat="46.12758" lon="7.09882"><ele>432.8</ele><time>2016-08-06T18:36:49Z</time></trkpt>
<trkpt lat="46.12755" lon="7.09873"><ele>433</ele><time>2016-08-06T18:36:50Z</time></trkpt>
<trkpt lat="46.12748" lon="7.09855"><ele>433</ele><time>2016-08-06T18:36:52Z</time></trkpt>
<trkpt lat="46.12739" lon="7.09829"><ele>433</ele><time>2016-08-06T18:36:55Z</time></trkpt>
<trkpt lat="46.12735" lon="7.09811"><ele>433</ele><time>2016-08-06T18:36:57Z</time></trkpt>
<trkpt lat="46.12732" lon="7.09802"><ele>433</ele><time>2016-08-06T18:36:58Z</time></trkpt>
<trkpt lat="46.12728" lon="7.09785"><ele>433</ele><time>2016-08-06T18:37:00Z</time></trkpt>
<trkpt lat="46.12724" lon="7.09767"><ele>433</ele><time>2016-08-06T18:37:02Z</time></trkpt>
<trkpt lat="46.12721" lon="7.09758"><ele>433</ele><time>2016-08-06T18:37:03Z</time></trkpt>
<trkpt lat="46.12716" lon="7.09739"><ele>433</ele><time>2016-08-06T18:37:05Z</time></trkpt>
<trkpt lat="46.12711" lon="7.0972"><ele>433</ele><time>2016-08-06T18:37:07Z</time></trkpt>
<trkpt lat="46.12708" lon="7.0971"><ele>433</ele><time>2016-08-06T18:37:08Z</time></trkpt>
<trkpt lat="46.12703" lon="7.09691"><ele>433</ele><time>2016-08-06T18:37:10Z</time></trkpt>
<trkpt lat="46.12695" lon="7.09664"><ele>433</ele><time>2016-08-06T18:37:13Z</time></trkpt>
<trkpt lat="46.12693" lon="7.09655"><ele>433</ele><time>2016-08-06T18:37:14Z</time></trkpt>
<trkpt lat="46.12689" lon="7.09647"><ele>433</ele><time>2016-08-06T18:37:15Z</time></trkpt>
<trkpt lat="46.12684" lon="7.09642"><ele>433.2</ele><time>2016-08-06T18:37:16Z</time></trkpt>
<trkpt lat="46.12682" lon="7.09634"><ele>433.2</ele><time>2016-08-06T18:37:17Z</time></trkpt>
<trkpt lat="46.1268" lon="7.09626"><ele>433.2</ele><time>2016-08-06T18:37:18Z</time></trkpt>
<trkpt lat="46.12676" lon="7.09609"><ele>433.2</ele><time>2016-08-06T18:37:20Z</time></trkpt>
<trkpt lat="46.1267" lon="7.09585"><ele>433.2</ele><time>2016-08-06T18:37:23Z</time></trkpt>
<trkpt lat="46.12668" lon="7.09577"><ele>433.2</ele><time>2016-08-06T18:37:24Z</time></trkpt>
<trkpt lat="46.12662" lon="7.09549"><ele>433.2</ele><time>2016-08-06T18:37:27Z</time></trkpt>
<trkpt lat="46.12658" lon="7.09531"><ele>433.2</ele><time>2016-08-06T18:37:29Z</time></trkpt>
<trkpt lat="46.12654" lon="7.09513"><ele>433.2</ele><time>2016-08-06T18:37:31Z</time></trkpt>
<trkpt lat="46.1265" lon="7.09495"><ele>433.2</ele><time>2016-08-06T18:37:33Z</time></trkpt>
<trkpt lat="46.12646" lon="7.09478"><ele>433.2</ele><time>2016-08-06T18:37:35Z</time></trkpt>
<trkpt lat="46.12643" lon="7.0946"><ele>433.2</ele><time>2016-08-06T18:37:37Z</time></trkpt>
<trkpt lat="46.12641" lon="7.09451"><ele>432.6</ele><time>2016-08-06T18:37:38Z</time></trkpt>
<trkpt lat="46.12635" lon="7.09424"><ele>430.8</ele><time>2016-08-06T18:37:41Z</time></trkpt>
<trkpt lat="46.12633" lon="7.09416"><ele>430.4</ele><time>2016-08-06T18:37:42Z</time></trkpt>
<trkpt lat="46.12631" lon="7.09407"><ele>430.4</ele><time>2016-08-06T18:37:43Z</time></trkpt>
<trkpt lat="46.12629" lon="7.09398"><ele>430.4</ele><time>2016-08-06T18:37:44Z</time></trkpt>
<trkpt lat="46.12625" lon="7.0938"><ele>430.2</ele><time>2016-08-06T18:37:46Z</time></trkpt>
<trkpt lat="46.12623" lon="7.09371"><ele>430.2</ele><time>2016-08-06T18:37:47Z</time></trkpt>
<trkpt lat="46.12621" lon="7.09361"><ele>430.2</ele><time>2016-08-06T18:37:48Z</time></trkpt>
<trkpt lat="46.12616" lon="7.09342"><ele>430</ele><time>2016-08-06T18:37:50Z</time></trkpt>
<trkpt lat="46.12612" lon="7.09324"><ele>430</ele><time>2016-08-06T18:37:52Z</time></trkpt>
<trkpt lat="46.1261" lon="7.09314"><ele>430</ele><time>2016-08-06T18:37:53Z</time></trkpt>
<trkpt lat="46.12608" lon="7.09305"><ele>430</ele><time>2016-08-06T18:37:54Z</time></trkpt>
<trkpt lat="46.12602" lon="7.09278"><ele>429.8</ele><time>2016-08-06T18:37:57Z</time></trkpt>
<trkpt lat="46.126" lon="7.09269"><ele>429.8</ele><time>2016-08-06T18:37:58Z</time></trkpt>
<trkpt lat="46.12596" lon="7.09251"><ele>429.6</ele><time>2016-08-06T18:38:00Z</time></trkpt>
<trkpt lat="46.12594" lon="7.09242"><ele>429.6</ele><time>2016-08-06T18:38:01Z</time></trkpt>
<trkpt lat="46.12592" lon="7.09234"><ele>429.6</ele><time>2016-08-06T18:38:02Z</time></trkpt>
<trkpt lat="46.12589" lon="7.09218"><ele>429.4</ele><time>2016-08-06T18:38:04Z</time></trkpt>
<trkpt lat="46.12583" lon="7.09193"><ele>429.4</ele><time>2016-08-06T18:38:07Z</time></trkpt>
<trkpt lat="46.12581" lon="7.09184"><ele>429.2</ele><time>2016-08-06T18:38:08Z</time></trkpt>
<trkpt lat="46.12577" lon="7.09167"><ele>429.2</ele><time>2016-08-06T18:38:10Z</time></trkpt>
<trkpt lat="46.12571" lon="7.09141"><ele>429</ele><time>2016-08-06T18:38:13Z</time></trkpt>
<trkpt lat="46.12567" lon="7.09124"><ele>429</ele><time>2016-08-06T18:38:15Z</time></trkpt>
<trkpt lat="46.12566" lon="7.09115"><ele>429</ele><time>2016-08-06T18:38:16Z</time></trkpt>
<trkpt lat="46.12564" lon="7.09106"><ele>428.8</ele><time>2016-08-06T18:38:17Z</time></trkpt>
<trkpt lat="46.12562" lon="7.09098"><ele>428.8</ele><time>2016-08-06T18:38:18Z</time></trkpt>
<trkpt lat="46.12556" lon="7.09071"><ele>428.6</ele><time>2016-08-06T18:38:21Z</time></trkpt>
<trkpt lat="46.12554" lon="7.09063"><ele>428.6</ele><time>2016-08-06T18:38:22Z</time></trkpt>
<trkpt lat="46.1255" lon="7.09046"><ele>428.6</ele><time>2016-08-06T18:38:24Z</time></trkpt>
<trkpt lat="46.12548" lon="7.09038"><ele>428.4</ele><time>2016-08-06T18:38:25Z</time></trkpt>
<trkpt lat="46.12544" lon="7.09022"><ele>428.4</ele><time>2016-08-06T18:38:27Z</time></trkpt>
<trkpt lat="46.12543" lon="7.09014"><ele>428.4</ele><time>2016-08-06T18:38:28Z</time></trkpt>
<trkpt lat="46.12539" lon="7.08999"><ele>428.2</ele><time>2016-08-06T18:38:30Z</time></trkpt>
<trkpt lat="46.12536" lon="7.08983"><ele>428.2</ele><time>2016-08-06T18:38:32Z</time></trkpt>
<trkpt lat="46.12534" lon="7.08975"><ele>428.2</ele><time>2016-08-06T18:38:33Z</time></trkpt>
<trkpt lat="46.12532" lon="7.08967"><ele>428</ele><time>2016-08-06T18:38:34Z</time></trkpt>
<trkpt lat="46.12526" lon="7.08943"><ele>428</ele><time>2016-08-06T18:38:37Z</time></trkpt>
<trkpt lat="46.12524" lon="7.08935"><ele>427.8</ele><time>2016-08-06T18:38:38Z</time></trkpt>
<trkpt lat="46.1252" lon="7.08919"><ele>427.8</ele><time>2016-08-06T18:38:40Z</time></trkpt>
<trkpt lat="46.12515" lon="7.08896"><ele>427.6</ele><time>2016-08-06T18:38:43Z</time></trkpt>
<trkpt lat="46.12513" lon="7.08889"><ele>427.6</ele><time>2016-08-06T18:38:44Z</time></trkpt>
<trkpt lat="46.12507" lon="7.08866"><ele>427.4</ele><time>2016-08-06T18:38:47Z</time></trkpt>
<trkpt lat="46.12503" lon="7.08851"><ele>427.4</ele><time>2016-08-06T18:38:49Z</time></trkpt>
<trkpt lat="46.12501" lon="7.08843"><ele>427.4</ele><time>2016-08-06T18:38:50Z</time></trkpt>
<trkpt lat="46.12499" lon="7.08835"><ele>427.2</ele><time>2016-08-06T18:38:51Z</time></trkpt>
<trkpt lat="46.12497" lon="7.08827"><ele>427</ele><time>2016-08-06T18:38:52Z</time></trkpt>
<trkpt lat="46.12493" lon="7.0881"><ele>426.8</ele><time>2016-08-06T18:38:54Z</time></trkpt>
<trkpt lat="46.12486" lon="7.08786"><ele>426.4</ele><time>2016-08-06T18:38:57Z</time></trkpt>
<trkpt lat="46.12484" lon="7.08778"><ele>426.2</ele><time>2016-08-06T18:38:58Z</time></trkpt>
<trkpt lat="46.12478" lon="7.08753"><ele>426</ele><time>2016-08-06T18:39:01Z</time></trkpt>
<trkpt lat="46.12476" lon="7.08745"><ele>426.2</ele><time>2016-08-06T18:39:02Z</time></trkpt>
<trkpt lat="46.12472" lon="7.08729"><ele>426.6</ele><time>2016-08-06T18:39:04Z</time></trkpt>
<trkpt lat="46.1247" lon="7.0872"><ele>426.8</ele><time>2016-08-06T18:39:05Z</time></trkpt>
<trkpt lat="46.12469" lon="7.08712"><ele>427</ele><time>2016-08-06T18:39:06Z</time></trkpt>
<trkpt lat="46.1247" lon="7.08704"><ele>427.2</ele><time>2016-08-06T18:39:07Z</time></trkpt>
<trkpt lat="46.12468" lon="7.08697"><ele>427.4</ele><time>2016-08-06T18:39:08Z</time></trkpt>
<trkpt lat="46.12464" lon="7.08682"><ele>427.8</ele><time>2016-08-06T18:39:10Z</time></trkpt>
<trkpt lat="46.12458" lon="7.0866"><ele>428.2</ele><time>2016-08-06T18:39:13Z</time></trkpt>
<trkpt lat="46.12455" lon="7.08653"><ele>427</ele><time>2016-08-06T18:39:14Z</time></trkpt>
<trkpt lat="46.12451" lon="7.08647"><ele>426</ele><time>2016-08-06T18:39:15Z</time></trkpt>
<trkpt lat="46.12449" lon="7.08634"><ele>424</ele><time>2016-08-06T18:39:17Z</time></trkpt>
<trkpt lat="46.12448" lon="7.08628"><ele>423.2</ele><time>2016-08-06T18:39:18Z</time></trkpt>
<trkpt lat="46.12447" lon="7.08621"><ele>423.2</ele><time>2016-08-06T18:39:19Z</time></trkpt>
<trkpt lat="46.12446" lon="7.08615"><ele>423.2</ele><time>2016-08-06T18:39:20Z</time></trkpt>
<trkpt lat="46.12445" lon="7.08602"><ele>423.2</ele><time>2016-08-06T18:39:22Z</time></trkpt>
<trkpt lat="46.12442" lon="7.08583"><ele>423</ele><time>2016-08-06T18:39:25Z</time></trkpt>
<trkpt lat="46.12444" lon="7.08575"><ele>423</ele><time>2016-08-06T18:39:27Z</time></trkpt>
<trkpt lat="46.12445" lon="7.0857"><ele>423</ele><time>2016-08-06T18:39:28Z</time></trkpt>
<trkpt lat="46.12446" lon="7.08562"><ele>423</ele><time>2016-08-06T18:39:30Z</time></trkpt>
<trkpt lat="46.12448" lon="7.08554"><ele>423</ele><time>2016-08-06T18:39:32Z</time></trkpt>
<trkpt lat="46.12449" lon="7.08551"><ele>423</ele><time>2016-08-06T18:39:33Z</time></trkpt>
<trkpt lat="46.12449" lon="7.08547"><ele>423</ele><time>2016-08-06T18:39:34Z</time></trkpt>
<trkpt lat="46.12445" lon="7.08541"><ele>423</ele><time>2016-08-06T18:39:35Z</time></trkpt>
<trkpt lat="46.12435" lon="7.08529"><ele>423</ele><time>2016-08-06T18:39:37Z</time></trkpt>
<trkpt lat="46.12431" lon="7.08522"><ele>423</ele><time>2016-08-06T18:39:38Z</time></trkpt>
<trkpt lat="46.12422" lon="7.0851"><ele>423</ele><time>2016-08-06T18:39:40Z</time></trkpt>
<trkpt lat="46.12415" lon="7.08487"><ele>423</ele><time>2016-08-06T18:39:43Z</time></trkpt>
<trkpt lat="46.1241" lon="7.08471"><ele>423</ele><time>2016-08-06T18:39:45Z</time></trkpt>
<trkpt lat="46.12405" lon="7.08456"><ele>423.2</ele><time>2016-08-06T18:39:47Z</time></trkpt>
<trkpt lat="46.12402" lon="7.08449"><ele>423.2</ele><time>2016-08-06T18:39:48Z</time></trkpt>
<trkpt lat="46.12395" lon="7.08426"><ele>423.2</ele><time>2016-08-06T18:39:51Z</time></trkpt>
<trkpt lat="46.12393" lon="7.08418"><ele>423.4</ele><time>2016-08-06T18:39:52Z</time></trkpt>
<trkpt lat="46.12388" lon="7.08403"><ele>423.4</ele><time>2016-08-06T18:39:54Z</time></trkpt>
<trkpt lat="46.12383" lon="7.08388"><ele>423.4</ele><time>2016-08-06T18:39:56Z</time></trkpt>
<trkpt lat="46.12379" lon="7.0838"><ele>423.4</ele><time>2016-08-06T18:39:57Z</time></trkpt>
<trkpt lat="46.12376" lon="7.08373"><ele>423.6</ele><time>2016-08-06T18:39:58Z</time></trkpt>
<trkpt lat="46.12365" lon="7.0835"><ele>423.6</ele><time>2016-08-06T18:40:01Z</time></trkpt>
<trkpt lat="46.12362" lon="7.08343"><ele>423.6</ele><time>2016-08-06T18:40:02Z</time></trkpt>
<trkpt lat="46.12355" lon="7.08327"><ele>423.6</ele><time>2016-08-06T18:40:04Z</time></trkpt>
<trkpt lat="46.12344" lon="7.08303"><ele>423.8</ele><time>2016-08-06T18:40:07Z</time></trkpt>
<trkpt lat="46.12337" lon="7.08288"><ele>423.8</ele><time>2016-08-06T18:40:09Z</time></trkpt>
<trkpt lat="46.12334" lon="7.0828"><ele>423.8</ele><time>2016-08-06T18:40:10Z</time></trkpt>
<trkpt lat="46.12331" lon="7.08272"><ele>424</ele><time>2016-08-06T18:40:11Z</time></trkpt>
<trkpt lat="46.12325" lon="7.08258"><ele>424</ele><time>2016-08-06T18:40:13Z</time></trkpt>
<trkpt lat="46.12319" lon="7.08244"><ele>424</ele><time>2016-08-06T18:40:15Z</time></trkpt>
<trkpt lat="46.12313" lon="7.0823"><ele>424.2</ele><time>2016-08-06T18:40:17Z</time></trkpt>
<trkpt lat="46.1231" lon="7.08223"><ele>424.2</ele><time>2016-08-06T18:40:18Z</time></trkpt>
<trkpt lat="46.12308" lon="7.08215"><ele>424.2</ele><time>2016-08-06T18:40:19Z</time></trkpt>
<trkpt lat="46.12303" lon="7.08199"><ele>424.2</ele><time>2016-08-06T18:40:21Z</time></trkpt>
<trkpt lat="46.12301" lon="7.0819"><ele>424.2</ele><time>2016-08-06T18:40:22Z</time></trkpt>
<trkpt lat="46.12294" lon="7.08165"><ele>424.4</ele><time>2016-08-06T18:40:25Z</time></trkpt>
<trkpt lat="46.1229" lon="7.08149"><ele>424.4</ele><time>2016-08-06T18:40:27Z</time></trkpt>
<trkpt lat="46.12288" lon="7.0814"><ele>424.4</ele><time>2016-08-06T18:40:28Z</time></trkpt>
<trkpt lat="46.12285" lon="7.08124"><ele>424.6</ele><time>2016-08-06T18:40:30Z</time></trkpt>
<trkpt lat="46.1228" lon="7.08099"><ele>424.6</ele><time>2016-08-06T18:40:33Z</time></trkpt>
<trkpt lat="46.12277" lon="7.08082"><ele>424.6</ele><time>2016-08-06T18:40:35Z</time></trkpt>
<trkpt lat="46.12273" lon="7.08064"><ele>424.8</ele><time>2016-08-06T18:40:37Z</time></trkpt>
<trkpt lat="46.12272" lon="7.08055"><ele>424.8</ele><time>2016-08-06T18:40:38Z</time></trkpt>
<trkpt lat="46.12268" lon="7.08038"><ele>424.8</ele><time>2016-08-06T18:40:40Z</time></trkpt>
<trkpt lat="46.12265" lon="7.0802"><ele>424.8</ele><time>2016-08-06T18:40:42Z</time></trkpt>
<trkpt lat="46.12263" lon="7.08011"><ele>425</ele><time>2016-08-06T18:40:43Z</time></trkpt>
<trkpt lat="46.12262" lon="7.08001"><ele>425</ele><time>2016-08-06T18:40:44Z</time></trkpt>
<trkpt lat="46.12258" lon="7.07972"><ele>425</ele><time>2016-08-06T18:40:47Z</time></trkpt>
<trkpt lat="46.12257" lon="7.07962"><ele>425</ele><time>2016-08-06T18:40:48Z</time></trkpt>
<trkpt lat="46.12255" lon="7.07943"><ele>425.2</ele><time>2016-08-06T18:40:50Z</time></trkpt>
<trkpt lat="46.12253" lon="7.07933"><ele>425.2</ele><time>2016-08-06T18:40:51Z</time></trkpt>
<trkpt lat="46.12249" lon="7.07914"><ele>425.2</ele><time>2016-08-06T18:40:53Z</time></trkpt>
<trkpt lat="46.12248" lon="7.07905"><ele>425.2</ele><time>2016-08-06T18:40:54Z</time></trkpt>
<trkpt lat="46.12242" lon="7.07876"><ele>425.4</ele><time>2016-08-06T18:40:57Z</time></trkpt>
<trkpt lat="46.1224" lon="7.07866"><ele>425.4</ele><time>2016-08-06T18:40:58Z</time></trkpt>
<trkpt lat="46.12236" lon="7.07847"><ele>425.4</ele><time>2016-08-06T18:41:00Z</time></trkpt>
<trkpt lat="46.12232" lon="7.07827"><ele>425.6</ele><time>2016-08-06T18:41:02Z</time></trkpt>
<trkpt lat="46.12228" lon="7.07807"><ele>425.6</ele><time>2016-08-06T18:41:04Z</time></trkpt>
<trkpt lat="46.12222" lon="7.07778"><ele>425.6</ele><time>2016-08-06T18:41:07Z</time></trkpt>
<trkpt lat="46.1222" lon="7.07768"><ele>425.8</ele><time>2016-08-06T18:41:08Z</time></trkpt>
<trkpt lat="46.12217" lon="7.07749"><ele>425.8</ele><time>2016-08-06T18:41:10Z</time></trkpt>
<trkpt lat="46.12215" lon="7.07739"><ele>425.8</ele><time>2016-08-06T18:41:11Z</time></trkpt>
<trkpt lat="46.12213" lon="7.07729"><ele>425.8</ele><time>2016-08-06T18:41:12Z</time></trkpt>
<trkpt lat="46.12207" lon="7.07698"><ele>426</ele><time>2016-08-06T18:41:15Z</time></trkpt>
<trkpt lat="46.12203" lon="7.07678"><ele>426</ele><time>2016-08-06T18:41:17Z</time></trkpt>
<trkpt lat="46.12201" lon="7.07668"><ele>426</ele><time>2016-08-06T18:41:18Z</time></trkpt>
<trkpt lat="46.12197" lon="7.07649"><ele>426.2</ele><time>2016-08-06T18:41:20Z</time></trkpt>
<trkpt lat="46.12195" lon="7.0764"><ele>426.4</ele><time>2016-08-06T18:41:21Z</time></trkpt>
<trkpt lat="46.12191" lon="7.07621"><ele>426.8</ele><time>2016-08-06T18:41:23Z</time></trkpt>
<trkpt lat="46.12188" lon="7.07603"><ele>427.2</ele><time>2016-08-06T18:41:25Z</time></trkpt>
<trkpt lat="46.12187" lon="7.07595"><ele>427.4</ele><time>2016-08-06T18:41:26Z</time></trkpt>
<trkpt lat="46.12185" lon="7.07587"><ele>427.6</ele><time>2016-08-06T18:41:27Z</time></trkpt>
<trkpt lat="46.12182" lon="7.07578"><ele>427.8</ele><time>2016-08-06T18:41:28Z</time></trkpt>
<trkpt lat="46.1218" lon="7.0757"><ele>428</ele><time>2016-08-06T18:41:29Z</time></trkpt>
<trkpt lat="46.12177" lon="7.07552"><ele>428.4</ele><time>2016-08-06T18:41:31Z</time></trkpt>
<trkpt lat="46.12175" lon="7.07534"><ele>427.8</ele><time>2016-08-06T18:41:33Z</time></trkpt>
<trkpt lat="46.12172" lon="7.07516"><ele>427.2</ele><time>2016-08-06T18:41:35Z</time></trkpt>
<trkpt lat="46.12169" lon="7.07499"><ele>427</ele><time>2016-08-06T18:41:37Z</time></trkpt>
<trkpt lat="46.12167" lon="7.0749"><ele>427.2</ele><time>2016-08-06T18:41:38Z</time></trkpt>
<trkpt lat="46.12163" lon="7.07473"><ele>428</ele><time>2016-08-06T18:41:40Z</time></trkpt>
<trkpt lat="46.1216" lon="7.07456"><ele>428.8</ele><time>2016-08-06T18:41:42Z</time></trkpt>
<trkpt lat="46.12158" lon="7.07447"><ele>429</ele><time>2016-08-06T18:41:43Z</time></trkpt>
<trkpt lat="46.12154" lon="7.07431"><ele>428.4</ele><time>2016-08-06T18:41:45Z</time></trkpt>
<trkpt lat="46.12151" lon="7.07416"><ele>428</ele><time>2016-08-06T18:41:47Z</time></trkpt>
<trkpt lat="46.12149" lon="7.07409"><ele>427.8</ele><time>2016-08-06T18:41:48Z</time></trkpt>
<trkpt lat="46.12144" lon="7.07387"><ele>427.4</ele><time>2016-08-06T18:41:51Z</time></trkpt>
<trkpt lat="46.12142" lon="7.0738"><ele>427.4</ele><time>2016-08-06T18:41:52Z</time></trkpt>
<trkpt lat="46.12139" lon="7.07365"><ele>427</ele><time>2016-08-06T18:41:54Z</time></trkpt>
<trkpt lat="46.12134" lon="7.07341"><ele>426.6</ele><time>2016-08-06T18:41:57Z</time></trkpt>
<trkpt lat="46.12132" lon="7.07332"><ele>426.4</ele><time>2016-08-06T18:41:58Z</time></trkpt>
<trkpt lat="46.12127" lon="7.07308"><ele>426</ele><time>2016-08-06T18:42:01Z</time></trkpt>
<trkpt lat="46.12125" lon="7.073"><ele>425.8</ele><time>2016-08-06T18:42:02Z</time></trkpt>
<trkpt lat="46.12124" lon="7.07292"><ele>425.8</ele><time>2016-08-06T18:42:03Z</time></trkpt>
<trkpt lat="46.12122" lon="7.07285"><ele>425.6</ele><time>2016-08-06T18:42:04Z</time></trkpt>
<trkpt lat="46.12118" lon="7.07263"><ele>426</ele><time>2016-08-06T18:42:07Z</time></trkpt>
<trkpt lat="46.12115" lon="7.07248"><ele>426.4</ele><time>2016-08-06T18:42:09Z</time></trkpt>
<trkpt lat="46.12113" lon="7.0724"><ele>426.4</ele><time>2016-08-06T18:42:10Z</time></trkpt>
<trkpt lat="46.12112" lon="7.07233"><ele>426.6</ele><time>2016-08-06T18:42:11Z</time></trkpt>
<trkpt lat="46.12109" lon="7.07217"><ele>427</ele><time>2016-08-06T18:42:13Z</time></trkpt>
<trkpt lat="46.12107" lon="7.07209"><ele>427.2</ele><time>2016-08-06T18:42:14Z</time></trkpt>
<trkpt lat="46.12103" lon="7.07186"><ele>427.6</ele><time>2016-08-06T18:42:17Z</time></trkpt>
<trkpt lat="46.12101" lon="7.07178"><ele>427.8</ele><time>2016-08-06T18:42:18Z</time></trkpt>
<trkpt lat="46.12098" lon="7.07162"><ele>428.2</ele><time>2016-08-06T18:42:20Z</time></trkpt>
<trkpt lat="46.12096" lon="7.07154"><ele>428.4</ele><time>2016-08-06T18:42:21Z</time></trkpt>
<trkpt lat="46.12095" lon="7.07145"><ele>428.4</ele><time>2016-08-06T18:42:22Z</time></trkpt>
<trkpt lat="46.1209" lon="7.07121"><ele>429</ele><time>2016-08-06T18:42:25Z</time></trkpt>
<trkpt lat="46.12087" lon="7.07104"><ele>429.4</ele><time>2016-08-06T18:42:27Z</time></trkpt>
<trkpt lat="46.12085" lon="7.07096"><ele>429.6</ele><time>2016-08-06T18:42:28Z</time></trkpt>
<trkpt lat="46.12082" lon="7.07071"><ele>430</ele><time>2016-08-06T18:42:31Z</time></trkpt>
<trkpt lat="46.12079" lon="7.07054"><ele>430.4</ele><time>2016-08-06T18:42:33Z</time></trkpt>
<trkpt lat="46.12077" lon="7.07038"><ele>430.6</ele><time>2016-08-06T18:42:35Z</time></trkpt>
<trkpt lat="46.12076" lon="7.0703"><ele>430.8</ele><time>2016-08-06T18:42:36Z</time></trkpt>
<trkpt lat="46.12075" lon="7.07022"><ele>430.8</ele><time>2016-08-06T18:42:37Z</time></trkpt>
<trkpt lat="46.12074" lon="7.07007"><ele>429.6</ele><time>2016-08-06T18:42:39Z</time></trkpt>
<trkpt lat="46.12073" lon="7.06999"><ele>429</ele><time>2016-08-06T18:42:40Z</time></trkpt>
<trkpt lat="46.12072" lon="7.06984"><ele>428</ele><time>2016-08-06T18:42:42Z</time></trkpt>
<trkpt lat="46.12071" lon="7.06962"><ele>427.4</ele><time>2016-08-06T18:42:45Z</time></trkpt>
<trkpt lat="46.12075" lon="7.06947"><ele>426.8</ele><time>2016-08-06T18:42:47Z</time></trkpt>
<trkpt lat="46.12079" lon="7.06933"><ele>426.4</ele><time>2016-08-06T18:42:49Z</time></trkpt>
<trkpt lat="46.12082" lon="7.06927"><ele>426.2</ele><time>2016-08-06T18:42:50Z</time></trkpt>
<trkpt lat="46.1209" lon="7.06915"><ele>425.8</ele><time>2016-08-06T18:42:52Z</time></trkpt>
<trkpt lat="46.12097" lon="7.06904"><ele>425.4</ele><time>2016-08-06T18:42:54Z</time></trkpt>
<trkpt lat="46.12109" lon="7.06887"><ele>424.6</ele><time>2016-08-06T18:42:57Z</time></trkpt>
<trkpt lat="46.12112" lon="7.06881"><ele>424.4</ele><time>2016-08-06T18:42:58Z</time></trkpt>
<trkpt lat="46.12119" lon="7.0687"><ele>424</ele><time>2016-08-06T18:43:00Z</time></trkpt>
<trkpt lat="46.12123" lon="7.06864"><ele>424</ele><time>2016-08-06T18:43:01Z</time></trkpt>
<trkpt lat="46.1213" lon="7.06852"><ele>424.2</ele><time>2016-08-06T18:43:03Z</time></trkpt>
<trkpt lat="46.12133" lon="7.06847"><ele>424.4</ele><time>2016-08-06T18:43:04Z</time></trkpt>
<trkpt lat="46.12137" lon="7.06841"><ele>425</ele><time>2016-08-06T18:43:05Z</time></trkpt>
<trkpt lat="46.12144" lon="7.0683"><ele>428.2</ele><time>2016-08-06T18:43:07Z</time></trkpt>
<trkpt lat="46.12147" lon="7.06825"><ele>429.8</ele><time>2016-08-06T18:43:08Z</time></trkpt>
<trkpt lat="46.12154" lon="7.06816"><ele>432.4</ele><time>2016-08-06T18:43:10Z</time></trkpt>
<trkpt lat="46.12158" lon="7.06811"><ele>431.4</ele><time>2016-08-06T18:43:11Z</time></trkpt>
<trkpt lat="46.12161" lon="7.06807"><ele>430.6</ele><time>2016-08-06T18:43:12Z</time></trkpt>
<trkpt lat="46.12166" lon="7.06805"><ele>429.6</ele><time>2016-08-06T18:43:13Z</time></trkpt>
<trkpt lat="46.1217" lon="7.06803"><ele>428.8</ele><time>2016-08-06T18:43:14Z</time></trkpt>
<trkpt lat="46.12175" lon="7.06802"><ele>428</ele><time>2016-08-06T18:43:15Z</time></trkpt>
<trkpt lat="46.12184" lon="7.06806"><ele>426.6</ele><time>2016-08-06T18:43:17Z</time></trkpt>
<trkpt lat="46.12188" lon="7.06808"><ele>425.8</ele><time>2016-08-06T18:43:18Z</time></trkpt>
<trkpt lat="46.12197" lon="7.06812"><ele>424.4</ele><time>2016-08-06T18:43:20Z</time></trkpt>
<trkpt lat="46.12202" lon="7.06814"><ele>423.8</ele><time>2016-08-06T18:43:21Z</time></trkpt>
<trkpt lat="46.12207" lon="7.06815"><ele>423.2</ele><time>2016-08-06T18:43:22Z</time></trkpt>
<trkpt lat="46.12213" lon="7.06813"><ele>422.8</ele><time>2016-08-06T18:43:23Z</time></trkpt>
<trkpt lat="46.12219" lon="7.06811"><ele>422.2</ele><time>2016-08-06T18:43:24Z</time></trkpt>
<trkpt lat="46.12237" lon="7.06804"><ele>420.8</ele><time>2016-08-06T18:43:27Z</time></trkpt>
<trkpt lat="46.12249" lon="7.06799"><ele>420.4</ele><time>2016-08-06T18:43:29Z</time></trkpt>
<trkpt lat="46.12255" lon="7.06797"><ele>420.2</ele><time>2016-08-06T18:43:30Z</time></trkpt>
<trkpt lat="46.12261" lon="7.06794"><ele>420</ele><time>2016-08-06T18:43:31Z</time></trkpt>
<trkpt lat="46.12272" lon="7.06789"><ele>419.6</ele><time>2016-08-06T18:43:33Z</time></trkpt>
<trkpt lat="46.12283" lon="7.06784"><ele>419.4</ele><time>2016-08-06T18:43:35Z</time></trkpt>
<trkpt lat="46.12294" lon="7.06778"><ele>419.2</ele><time>2016-08-06T18:43:37Z</time></trkpt>
<trkpt lat="46.123" lon="7.06776"><ele>419</ele><time>2016-08-06T18:43:38Z</time></trkpt>
<trkpt lat="46.12304" lon="7.06773"><ele>419</ele><time>2016-08-06T18:43:39Z</time></trkpt>
<trkpt lat="46.12309" lon="7.0677"><ele>418.8</ele><time>2016-08-06T18:43:40Z</time></trkpt>
<trkpt lat="46.12323" lon="7.06763"><ele>418.6</ele><time>2016-08-06T18:43:43Z</time></trkpt>
<trkpt lat="46.12328" lon="7.06762"><ele>418.4</ele><time>2016-08-06T18:43:44Z</time></trkpt>
<trkpt lat="46.12342" lon="7.06759"><ele>418.4</ele><time>2016-08-06T18:43:47Z</time></trkpt>
<trkpt lat="46.12352" lon="7.06757"><ele>418.4</ele><time>2016-08-06T18:43:49Z</time></trkpt>
<trkpt lat="46.12357" lon="7.06756"><ele>418.4</ele><time>2016-08-06T18:43:50Z</time></trkpt>
<trkpt lat="46.12366" lon="7.06754"><ele>418.6</ele><time>2016-08-06T18:43:52Z</time></trkpt>
<trkpt lat="46.12371" lon="7.06753"><ele>418.8</ele><time>2016-08-06T18:43:53Z</time></trkpt>
<trkpt lat="46.12384" lon="7.0675"><ele>418.8</ele><time>2016-08-06T18:43:55Z</time></trkpt>
<trkpt lat="46.12396" lon="7.06747"><ele>419</ele><time>2016-08-06T18:43:57Z</time></trkpt>
<trkpt lat="46.12402" lon="7.06745"><ele>419.2</ele><time>2016-08-06T18:43:58Z</time></trkpt>
<trkpt lat="46.12421" lon="7.06741"><ele>419.4</ele><time>2016-08-06T18:44:01Z</time></trkpt>
<trkpt lat="46.12432" lon="7.06736"><ele>419.6</ele><time>2016-08-06T18:44:03Z</time></trkpt>
<trkpt lat="46.12437" lon="7.06734"><ele>419.8</ele><time>2016-08-06T18:44:04Z</time></trkpt>
<trkpt lat="46.12454" lon="7.06728"><ele>420</ele><time>2016-08-06T18:44:07Z</time></trkpt>
<trkpt lat="46.12459" lon="7.06725"><ele>420.2</ele><time>2016-08-06T18:44:08Z</time></trkpt>
<trkpt lat="46.12464" lon="7.06723"><ele>420.2</ele><time>2016-08-06T18:44:09Z</time></trkpt>
<trkpt lat="46.12469" lon="7.0672"><ele>420.4</ele><time>2016-08-06T18:44:10Z</time></trkpt>
<trkpt lat="46.12479" lon="7.06713"><ele>420.6</ele><time>2016-08-06T18:44:12Z</time></trkpt>
<trkpt lat="46.12494" lon="7.06703"><ele>420.8</ele><time>2016-08-06T18:44:15Z</time></trkpt>
<trkpt lat="46.12504" lon="7.06696"><ele>421</ele><time>2016-08-06T18:44:17Z</time></trkpt>
<trkpt lat="46.12509" lon="7.06693"><ele>421.2</ele><time>2016-08-06T18:44:18Z</time></trkpt>
<trkpt lat="46.12515" lon="7.06689"><ele>421.2</ele><time>2016-08-06T18:44:19Z</time></trkpt>
<trkpt lat="46.12527" lon="7.06681"><ele>421.2</ele><time>2016-08-06T18:44:21Z</time></trkpt>
<trkpt lat="46.12532" lon="7.06678"><ele>421</ele><time>2016-08-06T18:44:22Z</time></trkpt>
<trkpt lat="46.12544" lon="7.0667"><ele>421</ele><time>2016-08-06T18:44:24Z</time></trkpt>
<trkpt lat="46.1255" lon="7.06666"><ele>420.6</ele><time>2016-08-06T18:44:25Z</time></trkpt>
<trkpt lat="46.12555" lon="7.06662"><ele>420.4</ele><time>2016-08-06T18:44:26Z</time></trkpt>
<trkpt lat="46.12561" lon="7.06658"><ele>420</ele><time>2016-08-06T18:44:27Z</time></trkpt>
<trkpt lat="46.12566" lon="7.06653"><ele>419.8</ele><time>2016-08-06T18:44:28Z</time></trkpt>
<trkpt lat="46.12576" lon="7.06644"><ele>419.2</ele><time>2016-08-06T18:44:30Z</time></trkpt>
<trkpt lat="46.12592" lon="7.06631"><ele>418.4</ele><time>2016-08-06T18:44:33Z</time></trkpt>
<trkpt lat="46.12597" lon="7.06627"><ele>418.2</ele><time>2016-08-06T18:44:34Z</time></trkpt>
<trkpt lat="46.12602" lon="7.06623"><ele>418</ele><time>2016-08-06T18:44:35Z</time></trkpt>
<trkpt lat="46.12611" lon="7.06615"><ele>418.2</ele><time>2016-08-06T18:44:37Z</time></trkpt>
<trkpt lat="46.12616" lon="7.06611"><ele>418.2</ele><time>2016-08-06T18:44:38Z</time></trkpt>
<trkpt lat="46.12626" lon="7.06603"><ele>418.4</ele><time>2016-08-06T18:44:40Z</time></trkpt>
<trkpt lat="46.12635" lon="7.06594"><ele>418.4</ele><time>2016-08-06T18:44:42Z</time></trkpt>
<trkpt lat="46.1264" lon="7.0659"><ele>418.6</ele><time>2016-08-06T18:44:43Z</time></trkpt>
<trkpt lat="46.12649" lon="7.06581"><ele>418.8</ele><time>2016-08-06T18:44:45Z</time></trkpt>
<trkpt lat="46.12658" lon="7.06572"><ele>418.8</ele><time>2016-08-06T18:44:47Z</time></trkpt>
<trkpt lat="46.12667" lon="7.06563"><ele>419</ele><time>2016-08-06T18:44:49Z</time></trkpt>
<trkpt lat="46.12672" lon="7.06559"><ele>419</ele><time>2016-08-06T18:44:50Z</time></trkpt>
<trkpt lat="46.12681" lon="7.0655"><ele>419.2</ele><time>2016-08-06T18:44:52Z</time></trkpt>
<trkpt lat="46.12691" lon="7.06538"><ele>419</ele><time>2016-08-06T18:44:54Z</time></trkpt>
<trkpt lat="46.12706" lon="7.06521"><ele>418.8</ele><time>2016-08-06T18:44:57Z</time></trkpt>
<trkpt lat="46.12711" lon="7.06515"><ele>418.6</ele><time>2016-08-06T18:44:58Z</time></trkpt>
<trkpt lat="46.12721" lon="7.06503"><ele>418.4</ele><time>2016-08-06T18:45:00Z</time></trkpt>
<trkpt lat="46.12735" lon="7.06486"><ele>418.2</ele><time>2016-08-06T18:45:03Z</time></trkpt>
<trkpt lat="46.12741" lon="7.06481"><ele>418</ele><time>2016-08-06T18:45:04Z</time></trkpt>
<trkpt lat="46.12755" lon="7.06463"><ele>417.8</ele><time>2016-08-06T18:45:07Z</time></trkpt>
<trkpt lat="46.1276" lon="7.06458"><ele>417.8</ele><time>2016-08-06T18:45:08Z</time></trkpt>
<trkpt lat="46.12769" lon="7.06448"><ele>417.6</ele><time>2016-08-06T18:45:10Z</time></trkpt>
<trkpt lat="46.12782" lon="7.06432"><ele>417.2</ele><time>2016-08-06T18:45:13Z</time></trkpt>
<trkpt lat="46.12787" lon="7.06427"><ele>417.2</ele><time>2016-08-06T18:45:14Z</time></trkpt>
<trkpt lat="46.128" lon="7.06412"><ele>417.6</ele><time>2016-08-06T18:45:17Z</time></trkpt>
<trkpt lat="46.12804" lon="7.06406"><ele>417.6</ele><time>2016-08-06T18:45:18Z</time></trkpt>
<trkpt lat="46.12809" lon="7.06401"><ele>417.8</ele><time>2016-08-06T18:45:19Z</time></trkpt>
<trkpt lat="46.12818" lon="7.0639"><ele>417.6</ele><time>2016-08-06T18:45:21Z</time></trkpt>
<trkpt lat="46.12822" lon="7.06384"><ele>417.6</ele><time>2016-08-06T18:45:22Z</time></trkpt>
<trkpt lat="46.12836" lon="7.06367"><ele>417.4</ele><time>2016-08-06T18:45:25Z</time></trkpt>
<trkpt lat="46.12846" lon="7.06356"><ele>417.4</ele><time>2016-08-06T18:45:27Z</time></trkpt>
<trkpt lat="46.12851" lon="7.0635"><ele>417.4</ele><time>2016-08-06T18:45:28Z</time></trkpt>
<trkpt lat="46.12861" lon="7.06339"><ele>417.4</ele><time>2016-08-06T18:45:30Z</time></trkpt>
<trkpt lat="46.12876" lon="7.06322"><ele>417.2</ele><time>2016-08-06T18:45:33Z</time></trkpt>
<trkpt lat="46.1288" lon="7.06317"><ele>417.2</ele><time>2016-08-06T18:45:34Z</time></trkpt>
<trkpt lat="46.12895" lon="7.063"><ele>417</ele><time>2016-08-06T18:45:37Z</time></trkpt>
<trkpt lat="46.129" lon="7.06295"><ele>417</ele><time>2016-08-06T18:45:38Z</time></trkpt>
<trkpt lat="46.12914" lon="7.06278"><ele>417</ele><time>2016-08-06T18:45:41Z</time></trkpt>
<trkpt lat="46.12925" lon="7.06267"><ele>416.8</ele><time>2016-08-06T18:45:43Z</time></trkpt>
<trkpt lat="46.1293" lon="7.06261"><ele>416.8</ele><time>2016-08-06T18:45:44Z</time></trkpt>
<trkpt lat="46.12945" lon="7.06244"><ele>416.6</ele><time>2016-08-06T18:45:47Z</time></trkpt>
<trkpt lat="46.12955" lon="7.06233"><ele>416.6</ele><time>2016-08-06T18:45:49Z</time></trkpt>
<trkpt lat="46.12964" lon="7.06221"><ele>416.6</ele><time>2016-08-06T18:45:51Z</time></trkpt>
<trkpt lat="46.12969" lon="7.06215"><ele>416.6</ele><time>2016-08-06T18:45:52Z</time></trkpt>
<trkpt lat="46.12979" lon="7.06204"><ele>416.4</ele><time>2016-08-06T18:45:54Z</time></trkpt>
<trkpt lat="46.12993" lon="7.06187"><ele>416.4</ele><time>2016-08-06T18:45:57Z</time></trkpt>
<trkpt lat="46.12997" lon="7.06182"><ele>416.2</ele><time>2016-08-06T18:45:58Z</time></trkpt>
<trkpt lat="46.13009" lon="7.06167"><ele>416.2</ele><time>2016-08-06T18:46:01Z</time></trkpt>
<trkpt lat="46.13013" lon="7.06162"><ele>416.2</ele><time>2016-08-06T18:46:02Z</time></trkpt>
<trkpt lat="46.1302" lon="7.06153"><ele>416</ele><time>2016-08-06T18:46:04Z</time></trkpt>
<trkpt lat="46.13028" lon="7.06143"><ele>416</ele><time>2016-08-06T18:46:06Z</time></trkpt>
<trkpt lat="46.13032" lon="7.06138"><ele>416</ele><time>2016-08-06T18:46:07Z</time></trkpt>
<trkpt lat="46.13037" lon="7.06133"><ele>416</ele><time>2016-08-06T18:46:08Z</time></trkpt>
<trkpt lat="46.13045" lon="7.06122"><ele>415.8</ele><time>2016-08-06T18:46:10Z</time></trkpt>
<trkpt lat="46.13049" lon="7.06117"><ele>415.8</ele><time>2016-08-06T18:46:11Z</time></trkpt>
<trkpt lat="46.13058" lon="7.06106"><ele>415.8</ele><time>2016-08-06T18:46:13Z</time></trkpt>
<trkpt lat="46.13062" lon="7.06101"><ele>415.8</ele><time>2016-08-06T18:46:14Z</time></trkpt>
<trkpt lat="46.13066" lon="7.06096"><ele>416</ele><time>2016-08-06T18:46:15Z</time></trkpt>
<trkpt lat="46.13075" lon="7.06086"><ele>416</ele><time>2016-08-06T18:46:17Z</time></trkpt>
<trkpt lat="46.1308" lon="7.06081"><ele>416</ele><time>2016-08-06T18:46:18Z</time></trkpt>
<trkpt lat="46.13089" lon="7.0607"><ele>416</ele><time>2016-08-06T18:46:20Z</time></trkpt>
<trkpt lat="46.13098" lon="7.0606"><ele>416</ele><time>2016-08-06T18:46:22Z</time></trkpt>
<trkpt lat="46.13103" lon="7.06055"><ele>416</ele><time>2016-08-06T18:46:23Z</time></trkpt>
<trkpt lat="46.13112" lon="7.06045"><ele>416</ele><time>2016-08-06T18:46:25Z</time></trkpt>
<trkpt lat="46.13121" lon="7.06035"><ele>415.8</ele><time>2016-08-06T18:46:27Z</time></trkpt>
<trkpt lat="46.13125" lon="7.06029"><ele>415.8</ele><time>2016-08-06T18:46:28Z</time></trkpt>
<trkpt lat="46.13134" lon="7.06019"><ele>415.8</ele><time>2016-08-06T18:46:30Z</time></trkpt>
<trkpt lat="46.13143" lon="7.06009"><ele>415.8</ele><time>2016-08-06T18:46:32Z</time></trkpt>
<trkpt lat="46.13159" lon="7.05991"><ele>415.6</ele><time>2016-08-06T18:46:35Z</time></trkpt>
<trkpt lat="46.13169" lon="7.05979"><ele>415.6</ele><time>2016-08-06T18:46:37Z</time></trkpt>
<trkpt lat="46.13174" lon="7.05973"><ele>415.6</ele><time>2016-08-06T18:46:38Z</time></trkpt>
<trkpt lat="46.13179" lon="7.05967"><ele>415.4</ele><time>2016-08-06T18:46:39Z</time></trkpt>
<trkpt lat="46.13188" lon="7.05956"><ele>415.4</ele><time>2016-08-06T18:46:41Z</time></trkpt>
<trkpt lat="46.13198" lon="7.05944"><ele>415.4</ele><time>2016-08-06T18:46:43Z</time></trkpt>
<trkpt lat="46.13208" lon="7.05933"><ele>415.2</ele><time>2016-08-06T18:46:45Z</time></trkpt>
<trkpt lat="46.13217" lon="7.05922"><ele>415.2</ele><time>2016-08-06T18:46:47Z</time></trkpt>
<trkpt lat="46.13227" lon="7.0591"><ele>415.2</ele><time>2016-08-06T18:46:49Z</time></trkpt>
<trkpt lat="46.13237" lon="7.05898"><ele>415.2</ele><time>2016-08-06T18:46:51Z</time></trkpt>
<trkpt lat="46.13247" lon="7.05886"><ele>415</ele><time>2016-08-06T18:46:53Z</time></trkpt>
<trkpt lat="46.13257" lon="7.05875"><ele>415</ele><time>2016-08-06T18:46:55Z</time></trkpt>
<trkpt lat="46.13267" lon="7.05862"><ele>415</ele><time>2016-08-06T18:46:57Z</time></trkpt>
<trkpt lat="46.13277" lon="7.05849"><ele>414.8</ele><time>2016-08-06T18:46:59Z</time></trkpt>
<trkpt lat="46.13287" lon="7.05837"><ele>414.8</ele><time>2016-08-06T18:47:01Z</time></trkpt>
<trkpt lat="46.13292" lon="7.05831"><ele>414.8</ele><time>2016-08-06T18:47:02Z</time></trkpt>
<trkpt lat="46.13297" lon="7.05824"><ele>414.8</ele><time>2016-08-06T18:47:03Z</time></trkpt>
<trkpt lat="46.13307" lon="7.05812"><ele>414.6</ele><time>2016-08-06T18:47:05Z</time></trkpt>
<trkpt lat="46.13316" lon="7.058"><ele>414.6</ele><time>2016-08-06T18:47:07Z</time></trkpt>
<trkpt lat="46.13326" lon="7.05788"><ele>414.6</ele><time>2016-08-06T18:47:09Z</time></trkpt>
<trkpt lat="46.13336" lon="7.05775"><ele>414.4</ele><time>2016-08-06T18:47:11Z</time></trkpt>
<trkpt lat="46.13347" lon="7.05762"><ele>414.4</ele><time>2016-08-06T18:47:13Z</time></trkpt>
<trkpt lat="46.13357" lon="7.05748"><ele>414.4</ele><time>2016-08-06T18:47:15Z</time></trkpt>
<trkpt lat="46.13363" lon="7.05742"><ele>414.2</ele><time>2016-08-06T18:47:16Z</time></trkpt>
<trkpt lat="46.13368" lon="7.05736"><ele>414.2</ele><time>2016-08-06T18:47:17Z</time></trkpt>
<trkpt lat="46.13379" lon="7.05724"><ele>414.2</ele><time>2016-08-06T18:47:19Z</time></trkpt>
<trkpt lat="46.1339" lon="7.05712"><ele>414.2</ele><time>2016-08-06T18:47:21Z</time></trkpt>
<trkpt lat="46.13396" lon="7.05709"><ele>414.2</ele><time>2016-08-06T18:47:22Z</time></trkpt>
<trkpt lat="46.134" lon="7.05704"><ele>414</ele><time>2016-08-06T18:47:23Z</time></trkpt>
<trkpt lat="46.13405" lon="7.05699"><ele>414</ele><time>2016-08-06T18:47:24Z</time></trkpt>
<trkpt lat="46.13418" lon="7.05685"><ele>414</ele><time>2016-08-06T18:47:27Z</time></trkpt>
<trkpt lat="46.13422" lon="7.0568"><ele>414</ele><time>2016-08-06T18:47:28Z</time></trkpt>
<trkpt lat="46.1343" lon="7.0567"><ele>413.8</ele><time>2016-08-06T18:47:30Z</time></trkpt>
<trkpt lat="46.13435" lon="7.05666"><ele>413.8</ele><time>2016-08-06T18:47:31Z</time></trkpt>
<trkpt lat="46.13441" lon="7.05658"><ele>413.8</ele><time>2016-08-06T18:47:33Z</time></trkpt>
<trkpt lat="46.13445" lon="7.05654"><ele>413.8</ele><time>2016-08-06T18:47:34Z</time></trkpt>
<trkpt lat="46.13455" lon="7.05642"><ele>413.6</ele><time>2016-08-06T18:47:37Z</time></trkpt>
<trkpt lat="46.13459" lon="7.05638"><ele>413.6</ele><time>2016-08-06T18:47:38Z</time></trkpt>
<trkpt lat="46.13465" lon="7.0563"><ele>413.6</ele><time>2016-08-06T18:47:40Z</time></trkpt>
<trkpt lat="46.13472" lon="7.05622"><ele>413.4</ele><time>2016-08-06T18:47:42Z</time></trkpt>
<trkpt lat="46.13479" lon="7.05615"><ele>413.4</ele><time>2016-08-06T18:47:44Z</time></trkpt>
<trkpt lat="46.13489" lon="7.05604"><ele>413.6</ele><time>2016-08-06T18:47:47Z</time></trkpt>
<trkpt lat="46.13495" lon="7.05596"><ele>413.6</ele><time>2016-08-06T18:47:49Z</time></trkpt>
<trkpt lat="46.13499" lon="7.05593"><ele>413.6</ele><time>2016-08-06T18:47:50Z</time></trkpt>
<trkpt lat="46.13505" lon="7.05585"><ele>413.6</ele><time>2016-08-06T18:47:52Z</time></trkpt>
<trkpt lat="46.13508" lon="7.05582"><ele>413.6</ele><time>2016-08-06T18:47:53Z</time></trkpt>
<trkpt lat="46.13511" lon="7.05579"><ele>413.6</ele><time>2016-08-06T18:47:54Z</time></trkpt>
<trkpt lat="46.1352" lon="7.05569"><ele>413.6</ele><time>2016-08-06T18:47:57Z</time></trkpt>
<trkpt lat="46.13523" lon="7.05566"><ele>413.6</ele><time>2016-08-06T18:47:58Z</time></trkpt>
<trkpt lat="46.13532" lon="7.05557"><ele>413.6</ele><time>2016-08-06T18:48:01Z</time></trkpt>
<trkpt lat="46.13538" lon="7.0555"><ele>413.4</ele><time>2016-08-06T18:48:03Z</time></trkpt>
<trkpt lat="46.13541" lon="7.05547"><ele>413.4</ele><time>2016-08-06T18:48:04Z</time></trkpt>
<trkpt lat="46.13548" lon="7.05541"><ele>413.4</ele><time>2016-08-06T18:48:06Z</time></trkpt>
<trkpt lat="46.13552" lon="7.05536"><ele>413.4</ele><time>2016-08-06T18:48:07Z</time></trkpt>
<trkpt lat="46.13559" lon="7.05527"><ele>413.4</ele><time>2016-08-06T18:48:09Z</time></trkpt>
<trkpt lat="46.13567" lon="7.05517"><ele>413.4</ele><time>2016-08-06T18:48:11Z</time></trkpt>
<trkpt lat="46.13575" lon="7.05508"><ele>413.4</ele><time>2016-08-06T18:48:13Z</time></trkpt>
<trkpt lat="46.13579" lon="7.05503"><ele>413.4</ele><time>2016-08-06T18:48:14Z</time></trkpt>
<trkpt lat="46.13583" lon="7.05499"><ele>413.4</ele><time>2016-08-06T18:48:15Z</time></trkpt>
<trkpt lat="46.13591" lon="7.05489"><ele>413.4</ele><time>2016-08-06T18:48:17Z</time></trkpt>
<trkpt lat="46.136" lon="7.05479"><ele>413.4</ele><time>2016-08-06T18:48:19Z</time></trkpt>
<trkpt lat="46.13604" lon="7.05474"><ele>413.4</ele><time>2016-08-06T18:48:20Z</time></trkpt>
<trkpt lat="46.13613" lon="7.05464"><ele>413.2</ele><time>2016-08-06T18:48:22Z</time></trkpt>
<trkpt lat="46.13621" lon="7.05454"><ele>413.2</ele><time>2016-08-06T18:48:24Z</time></trkpt>
<trkpt lat="46.13635" lon="7.05438"><ele>413.2</ele><time>2016-08-06T18:48:27Z</time></trkpt>
<trkpt lat="46.13639" lon="7.05433"><ele>413.2</ele><time>2016-08-06T18:48:28Z</time></trkpt>
<trkpt lat="46.13648" lon="7.05423"><ele>413.2</ele><time>2016-08-06T18:48:30Z</time></trkpt>
<trkpt lat="46.13658" lon="7.05413"><ele>413.2</ele><time>2016-08-06T18:48:32Z</time></trkpt>
<trkpt lat="46.13667" lon="7.05402"><ele>413.2</ele><time>2016-08-06T18:48:34Z</time></trkpt>
<trkpt lat="46.13682" lon="7.05386"><ele>413.2</ele><time>2016-08-06T18:48:37Z</time></trkpt>
<trkpt lat="46.13686" lon="7.05381"><ele>413.2</ele><time>2016-08-06T18:48:38Z</time></trkpt>
<trkpt lat="46.13696" lon="7.05371"><ele>413.2</ele><time>2016-08-06T18:48:40Z</time></trkpt>
<trkpt lat="46.13701" lon="7.05365"><ele>413</ele><time>2016-08-06T18:48:41Z</time></trkpt>
<trkpt lat="46.13705" lon="7.0536"><ele>413</ele><time>2016-08-06T18:48:42Z</time></trkpt>
<trkpt lat="46.13714" lon="7.0535"><ele>413</ele><time>2016-08-06T18:48:44Z</time></trkpt>
<trkpt lat="46.13728" lon="7.05334"><ele>413</ele><time>2016-08-06T18:48:47Z</time></trkpt>
<trkpt lat="46.13732" lon="7.05328"><ele>413</ele><time>2016-08-06T18:48:48Z</time></trkpt>
<trkpt lat="46.13741" lon="7.05318"><ele>413</ele><time>2016-08-06T18:48:50Z</time></trkpt>
<trkpt lat="46.13754" lon="7.05301"><ele>413</ele><time>2016-08-06T18:48:53Z</time></trkpt>
<trkpt lat="46.13759" lon="7.05296"><ele>413</ele><time>2016-08-06T18:48:54Z</time></trkpt>
<trkpt lat="46.13768" lon="7.05285"><ele>413</ele><time>2016-08-06T18:48:56Z</time></trkpt>
<trkpt lat="46.13772" lon="7.0528"><ele>413</ele><time>2016-08-06T18:48:57Z</time></trkpt>
<trkpt lat="46.13777" lon="7.05274"><ele>413</ele><time>2016-08-06T18:48:58Z</time></trkpt>
<trkpt lat="46.13787" lon="7.05264"><ele>412.8</ele><time>2016-08-06T18:49:00Z</time></trkpt>
<trkpt lat="46.13801" lon="7.05248"><ele>412.8</ele><time>2016-08-06T18:49:03Z</time></trkpt>
<trkpt lat="46.13806" lon="7.05242"><ele>412.8</ele><time>2016-08-06T18:49:04Z</time></trkpt>
<trkpt lat="46.13819" lon="7.05226"><ele>412.8</ele><time>2016-08-06T18:49:07Z</time></trkpt>
<trkpt lat="46.13827" lon="7.05215"><ele>412.8</ele><time>2016-08-06T18:49:09Z</time></trkpt>
<trkpt lat="46.13832" lon="7.05209"><ele>412.8</ele><time>2016-08-06T18:49:10Z</time></trkpt>
<trkpt lat="46.13841" lon="7.05198"><ele>412.8</ele><time>2016-08-06T18:49:12Z</time></trkpt>
<trkpt lat="46.1385" lon="7.05188"><ele>412.8</ele><time>2016-08-06T18:49:14Z</time></trkpt>
<trkpt lat="46.1386" lon="7.05178"><ele>412.8</ele><time>2016-08-06T18:49:16Z</time></trkpt>
<trkpt lat="46.1387" lon="7.05167"><ele>412.8</ele><time>2016-08-06T18:49:18Z</time></trkpt>
<trkpt lat="46.1388" lon="7.05157"><ele>412.6</ele><time>2016-08-06T18:49:20Z</time></trkpt>
<trkpt lat="46.1389" lon="7.05146"><ele>412.6</ele><time>2016-08-06T18:49:22Z</time></trkpt>
<trkpt lat="46.139" lon="7.05135"><ele>412.6</ele><time>2016-08-06T18:49:24Z</time></trkpt>
<trkpt lat="46.13915" lon="7.05118"><ele>412.6</ele><time>2016-08-06T18:49:27Z</time></trkpt>
<trkpt lat="46.13925" lon="7.05106"><ele>412.6</ele><time>2016-08-06T18:49:29Z</time></trkpt>
<trkpt lat="46.1393" lon="7.05101"><ele>412.6</ele><time>2016-08-06T18:49:30Z</time></trkpt>
<trkpt lat="46.13944" lon="7.05084"><ele>412.6</ele><time>2016-08-06T18:49:33Z</time></trkpt>
<trkpt lat="46.13954" lon="7.05072"><ele>412.6</ele><time>2016-08-06T18:49:35Z</time></trkpt>
<trkpt lat="46.13964" lon="7.05061"><ele>412.6</ele><time>2016-08-06T18:49:37Z</time></trkpt>
<trkpt lat="46.13975" lon="7.05049"><ele>412.4</ele><time>2016-08-06T18:49:39Z</time></trkpt>
<trkpt lat="46.13985" lon="7.05038"><ele>412.4</ele><time>2016-08-06T18:49:41Z</time></trkpt>
<trkpt lat="46.1399" lon="7.05032"><ele>412.4</ele><time>2016-08-06T18:49:42Z</time></trkpt>
<trkpt lat="46.13996" lon="7.05026"><ele>412.4</ele><time>2016-08-06T18:49:43Z</time></trkpt>
<trkpt lat="46.14006" lon="7.05014"><ele>412.4</ele><time>2016-08-06T18:49:45Z</time></trkpt>
<trkpt lat="46.14017" lon="7.05001"><ele>412.4</ele><time>2016-08-06T18:49:47Z</time></trkpt>
<trkpt lat="46.14022" lon="7.04995"><ele>412.4</ele><time>2016-08-06T18:49:48Z</time></trkpt>
<trkpt lat="46.14028" lon="7.04989"><ele>412.4</ele><time>2016-08-06T18:49:49Z</time></trkpt>
<trkpt lat="46.14033" lon="7.04983"><ele>412.4</ele><time>2016-08-06T18:49:50Z</time></trkpt>
<trkpt lat="46.14043" lon="7.0497"><ele>412.4</ele><time>2016-08-06T18:49:52Z</time></trkpt>
<trkpt lat="46.14053" lon="7.04958"><ele>412.4</ele><time>2016-08-06T18:49:54Z</time></trkpt>
<trkpt lat="46.14063" lon="7.04945"><ele>412.4</ele><time>2016-08-06T18:49:56Z</time></trkpt>
<trkpt lat="46.14069" lon="7.04939"><ele>412.4</ele><time>2016-08-06T18:49:57Z</time></trkpt>
<trkpt lat="46.14074" lon="7.04932"><ele>412.4</ele><time>2016-08-06T18:49:58Z</time></trkpt>
<trkpt lat="46.1409" lon="7.04913"><ele>412.2</ele><time>2016-08-06T18:50:01Z</time></trkpt>
<trkpt lat="46.14095" lon="7.04906"><ele>412.2</ele><time>2016-08-06T18:50:02Z</time></trkpt>
<trkpt lat="46.141" lon="7.049"><ele>412.2</ele><time>2016-08-06T18:50:03Z</time></trkpt>
<trkpt lat="46.14105" lon="7.04893"><ele>412.2</ele><time>2016-08-06T18:50:04Z</time></trkpt>
<trkpt lat="46.14119" lon="7.04874"><ele>412.2</ele><time>2016-08-06T18:50:07Z</time></trkpt>
<trkpt lat="46.14129" lon="7.04861"><ele>412.2</ele><time>2016-08-06T18:50:09Z</time></trkpt>
<trkpt lat="46.14134" lon="7.04854"><ele>412.2</ele><time>2016-08-06T18:50:10Z</time></trkpt>
<trkpt lat="46.14144" lon="7.04841"><ele>412.2</ele><time>2016-08-06T18:50:12Z</time></trkpt>
<trkpt lat="46.14153" lon="7.04829"><ele>412.2</ele><time>2016-08-06T18:50:14Z</time></trkpt>
<trkpt lat="46.14168" lon="7.04809"><ele>412.2</ele><time>2016-08-06T18:50:17Z</time></trkpt>
<trkpt lat="46.14172" lon="7.04803"><ele>412</ele><time>2016-08-06T18:50:18Z</time></trkpt>
<trkpt lat="46.14185" lon="7.04784"><ele>412</ele><time>2016-08-06T18:50:21Z</time></trkpt>
<trkpt lat="46.1419" lon="7.04778"><ele>412</ele><time>2016-08-06T18:50:22Z</time></trkpt>
<trkpt lat="46.14198" lon="7.04765"><ele>412</ele><time>2016-08-06T18:50:24Z</time></trkpt>
<trkpt lat="46.14203" lon="7.04758"><ele>412</ele><time>2016-08-06T18:50:25Z</time></trkpt>
<trkpt lat="46.14211" lon="7.04745"><ele>412</ele><time>2016-08-06T18:50:27Z</time></trkpt>
<trkpt lat="46.14215" lon="7.04739"><ele>412</ele><time>2016-08-06T18:50:28Z</time></trkpt>
<trkpt lat="46.14223" lon="7.04725"><ele>412</ele><time>2016-08-06T18:50:30Z</time></trkpt>
<trkpt lat="46.14235" lon="7.04706"><ele>412</ele><time>2016-08-06T18:50:33Z</time></trkpt>
<trkpt lat="46.14239" lon="7.04699"><ele>412</ele><time>2016-08-06T18:50:34Z</time></trkpt>
<trkpt lat="46.1425" lon="7.0468"><ele>412</ele><time>2016-08-06T18:50:37Z</time></trkpt>
<trkpt lat="46.14258" lon="7.04667"><ele>411.8</ele><time>2016-08-06T18:50:39Z</time></trkpt>
<trkpt lat="46.14265" lon="7.04654"><ele>411.8</ele><time>2016-08-06T18:50:41Z</time></trkpt>
<trkpt lat="46.14269" lon="7.04647"><ele>411.8</ele><time>2016-08-06T18:50:42Z</time></trkpt>
<trkpt lat="46.14276" lon="7.04634"><ele>411.8</ele><time>2016-08-06T18:50:44Z</time></trkpt>
<trkpt lat="46.14279" lon="7.04628"><ele>411.8</ele><time>2016-08-06T18:50:45Z</time></trkpt>
<trkpt lat="46.14286" lon="7.04619"><ele>411.8</ele><time>2016-08-06T18:50:47Z</time></trkpt>
<trkpt lat="46.14293" lon="7.0461"><ele>411.8</ele><time>2016-08-06T18:50:49Z</time></trkpt>
<trkpt lat="46.14297" lon="7.04606"><ele>411.8</ele><time>2016-08-06T18:50:50Z</time></trkpt>
<trkpt lat="46.14304" lon="7.04597"><ele>411.8</ele><time>2016-08-06T18:50:52Z</time></trkpt>
<trkpt lat="46.14307" lon="7.04593"><ele>411.8</ele><time>2016-08-06T18:50:53Z</time></trkpt>
<trkpt lat="46.14313" lon="7.04588"><ele>411.8</ele><time>2016-08-06T18:50:55Z</time></trkpt>
<trkpt lat="46.14315" lon="7.04585"><ele>411.8</ele><time>2016-08-06T18:50:57Z</time></trkpt>
<trkpt lat="46.14315" lon="7.04583"><ele>411.6</ele><time>2016-08-06T18:50:58Z</time></trkpt>
<trkpt lat="46.14317" lon="7.04577"><ele>411.6</ele><time>2016-08-06T18:51:01Z</time></trkpt>
<trkpt lat="46.14317" lon="7.04575"><ele>411.6</ele><time>2016-08-06T18:51:02Z</time></trkpt>
<trkpt lat="46.14318" lon="7.04574"><ele>411.6</ele><time>2016-08-06T18:51:03Z</time></trkpt>
<trkpt lat="46.14319" lon="7.04572"><ele>411.6</ele><time>2016-08-06T18:51:04Z</time></trkpt>
<trkpt lat="46.1432" lon="7.04566"><ele>411.6</ele><time>2016-08-06T18:51:07Z</time></trkpt>
<trkpt lat="46.14319" lon="7.04561"><ele>411.6</ele><time>2016-08-06T18:51:08Z</time></trkpt>
<trkpt lat="46.14318" lon="7.04552"><ele>411.6</ele><time>2016-08-06T18:51:10Z</time></trkpt>
<trkpt lat="46.14328" lon="7.04533"><ele>411.6</ele><time>2016-08-06T18:51:13Z</time></trkpt>
<trkpt lat="46.14331" lon="7.04527"><ele>411.4</ele><time>2016-08-06T18:51:14Z</time></trkpt>
<trkpt lat="46.14341" lon="7.04508"><ele>411.4</ele><time>2016-08-06T18:51:17Z</time></trkpt>
<trkpt lat="46.14347" lon="7.04495"><ele>411.4</ele><time>2016-08-06T18:51:19Z</time></trkpt>
<trkpt lat="46.14353" lon="7.04483"><ele>411.4</ele><time>2016-08-06T18:51:21Z</time></trkpt>
<trkpt lat="46.14356" lon="7.04477"><ele>411.4</ele><time>2016-08-06T18:51:22Z</time></trkpt>
<trkpt lat="46.14362" lon="7.04465"><ele>411.4</ele><time>2016-08-06T18:51:24Z</time></trkpt>
<trkpt lat="46.14371" lon="7.04447"><ele>411.2</ele><time>2016-08-06T18:51:27Z</time></trkpt>
<trkpt lat="46.14374" lon="7.04441"><ele>411.2</ele><time>2016-08-06T18:51:28Z</time></trkpt>
<trkpt lat="46.14378" lon="7.04431"><ele>411.2</ele><time>2016-08-06T18:51:30Z</time></trkpt>
<trkpt lat="46.14379" lon="7.04426"><ele>411.2</ele><time>2016-08-06T18:51:31Z</time></trkpt>
<trkpt lat="46.14378" lon="7.04422"><ele>411.2</ele><time>2016-08-06T18:51:32Z</time></trkpt>
<trkpt lat="46.14375" lon="7.04419"><ele>411.2</ele><time>2016-08-06T18:51:33Z</time></trkpt>
<trkpt lat="46.14372" lon="7.04416"><ele>411.2</ele><time>2016-08-06T18:51:34Z</time></trkpt>
<trkpt lat="46.14362" lon="7.04407"><ele>411.2</ele><time>2016-08-06T18:51:37Z</time></trkpt>
<trkpt lat="46.14359" lon="7.04403"><ele>411.2</ele><time>2016-08-06T18:51:38Z</time></trkpt>
<trkpt lat="46.14352" lon="7.04397"><ele>411</ele><time>2016-08-06T18:51:40Z</time></trkpt>
<trkpt lat="46.14346" lon="7.04391"><ele>411</ele><time>2016-08-06T18:51:42Z</time></trkpt>
<trkpt lat="46.14339" lon="7.04384"><ele>411</ele><time>2016-08-06T18:51:44Z</time></trkpt>
<trkpt lat="46.14329" lon="7.04375"><ele>411</ele><time>2016-08-06T18:51:47Z</time></trkpt>
<trkpt lat="46.14325" lon="7.04372"><ele>411</ele><time>2016-08-06T18:51:48Z</time></trkpt>
<trkpt lat="46.14318" lon="7.04366"><ele>411</ele><time>2016-08-06T18:51:50Z</time></trkpt>
<trkpt lat="46.14311" lon="7.0436"><ele>410.8</ele><time>2016-08-06T18:51:52Z</time></trkpt>
<trkpt lat="46.14304" lon="7.04353"><ele>410.8</ele><time>2016-08-06T18:51:54Z</time></trkpt>
<trkpt lat="46.14301" lon="7.0435"><ele>410.8</ele><time>2016-08-06T18:51:55Z</time></trkpt>
<trkpt lat="46.143" lon="7.04339"><ele>410.8</ele><time>2016-08-06T18:51:57Z</time></trkpt>
<trkpt lat="46.14301" lon="7.04334"><ele>410.8</ele><time>2016-08-06T18:51:58Z</time></trkpt>
<trkpt lat="46.14307" lon="7.0432"><ele>410.8</ele><time>2016-08-06T18:52:00Z</time></trkpt>
<trkpt lat="46.14314" lon="7.04306"><ele>410.8</ele><time>2016-08-06T18:52:02Z</time></trkpt>
<trkpt lat="46.14324" lon="7.04285"><ele>410.6</ele><time>2016-08-06T18:52:05Z</time></trkpt>
<trkpt lat="46.14327" lon="7.04279"><ele>410.6</ele><time>2016-08-06T18:52:06Z</time></trkpt>
<trkpt lat="46.14331" lon="7.04272"><ele>410.6</ele><time>2016-08-06T18:52:07Z</time></trkpt>
<trkpt lat="46.14334" lon="7.04265"><ele>410.6</ele><time>2016-08-06T18:52:08Z</time></trkpt>
<trkpt lat="46.1434" lon="7.04251"><ele>410.6</ele><time>2016-08-06T18:52:10Z</time></trkpt>
<trkpt lat="46.1435" lon="7.0423"><ele>410.6</ele><time>2016-08-06T18:52:13Z</time></trkpt>
<trkpt lat="46.14353" lon="7.04223"><ele>410.6</ele><time>2016-08-06T18:52:14Z</time></trkpt>
<trkpt lat="46.14364" lon="7.04201"><ele>410.4</ele><time>2016-08-06T18:52:17Z</time></trkpt>
<trkpt lat="46.14368" lon="7.04193"><ele>410.4</ele><time>2016-08-06T18:52:18Z</time></trkpt>
<trkpt lat="46.14379" lon="7.04171"><ele>410.4</ele><time>2016-08-06T18:52:21Z</time></trkpt>
<trkpt lat="46.14383" lon="7.04164"><ele>410.4</ele><time>2016-08-06T18:52:22Z</time></trkpt>
<trkpt lat="46.1439" lon="7.04149"><ele>410.4</ele><time>2016-08-06T18:52:24Z</time></trkpt>
<trkpt lat="46.14401" lon="7.04127"><ele>410.4</ele><time>2016-08-06T18:52:27Z</time></trkpt>
<trkpt lat="46.14404" lon="7.0412"><ele>410.4</ele><time>2016-08-06T18:52:28Z</time></trkpt>
<trkpt lat="46.14412" lon="7.04105"><ele>410.2</ele><time>2016-08-06T18:52:30Z</time></trkpt>
<trkpt lat="46.14418" lon="7.0409"><ele>410.2</ele><time>2016-08-06T18:52:32Z</time></trkpt>
<trkpt lat="46.14425" lon="7.04076"><ele>410.2</ele><time>2016-08-06T18:52:34Z</time></trkpt>
<trkpt lat="46.14435" lon="7.04055"><ele>410.2</ele><time>2016-08-06T18:52:37Z</time></trkpt>
<trkpt lat="46.14438" lon="7.04047"><ele>410.2</ele><time>2016-08-06T18:52:38Z</time></trkpt>
<trkpt lat="46.14445" lon="7.04032"><ele>410.2</ele><time>2016-08-06T18:52:40Z</time></trkpt>
<trkpt lat="46.14457" lon="7.04009"><ele>410</ele><time>2016-08-06T18:52:43Z</time></trkpt>
<trkpt lat="46.1446" lon="7.04002"><ele>410</ele><time>2016-08-06T18:52:44Z</time></trkpt>
<trkpt lat="46.14464" lon="7.03994"><ele>410</ele><time>2016-08-06T18:52:45Z</time></trkpt>
<trkpt lat="46.14471" lon="7.03979"><ele>410</ele><time>2016-08-06T18:52:47Z</time></trkpt>
<trkpt lat="46.14474" lon="7.03971"><ele>410</ele><time>2016-08-06T18:52:48Z</time></trkpt>
<trkpt lat="46.14485" lon="7.03948"><ele>410</ele><time>2016-08-06T18:52:51Z</time></trkpt>
<trkpt lat="46.14488" lon="7.03941"><ele>410</ele><time>2016-08-06T18:52:52Z</time></trkpt>
<trkpt lat="46.14492" lon="7.03933"><ele>410</ele><time>2016-08-06T18:52:53Z</time></trkpt>
<trkpt lat="46.14496" lon="7.03925"><ele>409.8</ele><time>2016-08-06T18:52:54Z</time></trkpt>
<trkpt lat="46.14506" lon="7.03903"><ele>409.8</ele><time>2016-08-06T18:52:57Z</time></trkpt>
<trkpt lat="46.1451" lon="7.03895"><ele>409.8</ele><time>2016-08-06T18:52:58Z</time></trkpt>
<trkpt lat="46.14517" lon="7.0388"><ele>409.8</ele><time>2016-08-06T18:53:00Z</time></trkpt>
<trkpt lat="46.14521" lon="7.03872"><ele>409.8</ele><time>2016-08-06T18:53:01Z</time></trkpt>
<trkpt lat="46.14524" lon="7.03864"><ele>409.8</ele><time>2016-08-06T18:53:02Z</time></trkpt>
<trkpt lat="46.14531" lon="7.03848"><ele>409.8</ele><time>2016-08-06T18:53:04Z</time></trkpt>
<trkpt lat="46.14541" lon="7.03825"><ele>409.6</ele><time>2016-08-06T18:53:07Z</time></trkpt>
<trkpt lat="46.14545" lon="7.03817"><ele>409.6</ele><time>2016-08-06T18:53:08Z</time></trkpt>
<trkpt lat="46.14549" lon="7.03809"><ele>409.6</ele><time>2016-08-06T18:53:09Z</time></trkpt>
<trkpt lat="46.14553" lon="7.03801"><ele>409.6</ele><time>2016-08-06T18:53:10Z</time></trkpt>
<trkpt lat="46.14565" lon="7.03777"><ele>409.6</ele><time>2016-08-06T18:53:13Z</time></trkpt>
<trkpt lat="46.14569" lon="7.03769"><ele>409.6</ele><time>2016-08-06T18:53:14Z</time></trkpt>
<trkpt lat="46.14573" lon="7.03761"><ele>409.6</ele><time>2016-08-06T18:53:15Z</time></trkpt>
<trkpt lat="46.14581" lon="7.03744"><ele>409.6</ele><time>2016-08-06T18:53:17Z</time></trkpt>
<trkpt lat="46.14586" lon="7.03736"><ele>409.6</ele><time>2016-08-06T18:53:18Z</time></trkpt>
<trkpt lat="46.14598" lon="7.03711"><ele>409.4</ele><time>2016-08-06T18:53:21Z</time></trkpt>
<trkpt lat="46.14602" lon="7.03702"><ele>409.4</ele><time>2016-08-06T18:53:22Z</time></trkpt>
<trkpt lat="46.14614" lon="7.03678"><ele>409.4</ele><time>2016-08-06T18:53:25Z</time></trkpt>
<trkpt lat="46.14622" lon="7.03662"><ele>409.4</ele><time>2016-08-06T18:53:27Z</time></trkpt>
<trkpt lat="46.14626" lon="7.03654"><ele>409.4</ele><time>2016-08-06T18:53:28Z</time></trkpt>
<trkpt lat="46.1463" lon="7.03646"><ele>409.4</ele><time>2016-08-06T18:53:29Z</time></trkpt>
<trkpt lat="46.14637" lon="7.03633"><ele>409.4</ele><time>2016-08-06T18:53:31Z</time></trkpt>
<trkpt lat="46.14644" lon="7.03619"><ele>409.2</ele><time>2016-08-06T18:53:33Z</time></trkpt>
<trkpt lat="46.14647" lon="7.03612"><ele>409.2</ele><time>2016-08-06T18:53:34Z</time></trkpt>
<trkpt lat="46.14658" lon="7.03592"><ele>409.2</ele><time>2016-08-06T18:53:37Z</time></trkpt>
<trkpt lat="46.14666" lon="7.03579"><ele>409.2</ele><time>2016-08-06T18:53:39Z</time></trkpt>
<trkpt lat="46.14675" lon="7.03567"><ele>409.2</ele><time>2016-08-06T18:53:41Z</time></trkpt>
<trkpt lat="46.14683" lon="7.03554"><ele>409.2</ele><time>2016-08-06T18:53:43Z</time></trkpt>
<trkpt lat="46.14687" lon="7.03548"><ele>409.2</ele><time>2016-08-06T18:53:44Z</time></trkpt>
<trkpt lat="46.14691" lon="7.03542"><ele>409</ele><time>2016-08-06T18:53:45Z</time></trkpt>
<trkpt lat="46.147" lon="7.0353"><ele>409</ele><time>2016-08-06T18:53:47Z</time></trkpt>
<trkpt lat="46.14705" lon="7.03524"><ele>409</ele><time>2016-08-06T18:53:48Z</time></trkpt>
<trkpt lat="46.14718" lon="7.03506"><ele>409</ele><time>2016-08-06T18:53:51Z</time></trkpt>
<trkpt lat="46.14723" lon="7.035"><ele>409</ele><time>2016-08-06T18:53:52Z</time></trkpt>
<trkpt lat="46.14727" lon="7.03494"><ele>409</ele><time>2016-08-06T18:53:53Z</time></trkpt>
<trkpt lat="46.14732" lon="7.03489"><ele>409</ele><time>2016-08-06T18:53:54Z</time></trkpt>
<trkpt lat="46.14745" lon="7.03474"><ele>408.8</ele><time>2016-08-06T18:53:57Z</time></trkpt>
<trkpt lat="46.14749" lon="7.03469"><ele>408.8</ele><time>2016-08-06T18:53:58Z</time></trkpt>
<trkpt lat="46.14758" lon="7.03459"><ele>408.8</ele><time>2016-08-06T18:54:00Z</time></trkpt>
<trkpt lat="46.14762" lon="7.03454"><ele>408.8</ele><time>2016-08-06T18:54:01Z</time></trkpt>
<trkpt lat="46.14767" lon="7.03448"><ele>408.8</ele><time>2016-08-06T18:54:02Z</time></trkpt>
<trkpt lat="46.14777" lon="7.03437"><ele>408.8</ele><time>2016-08-06T18:54:04Z</time></trkpt>
<trkpt lat="46.14792" lon="7.03421"><ele>408.8</ele><time>2016-08-06T18:54:07Z</time></trkpt>
<trkpt lat="46.14796" lon="7.03415"><ele>408.8</ele><time>2016-08-06T18:54:08Z</time></trkpt>
<trkpt lat="46.14801" lon="7.0341"><ele>408.8</ele><time>2016-08-06T18:54:09Z</time></trkpt>
<trkpt lat="46.14807" lon="7.03405"><ele>408.6</ele><time>2016-08-06T18:54:10Z</time></trkpt>
<trkpt lat="46.14823" lon="7.0339"><ele>408.6</ele><time>2016-08-06T18:54:13Z</time></trkpt>
<trkpt lat="46.14828" lon="7.03385"><ele>408.6</ele><time>2016-08-06T18:54:14Z</time></trkpt>
<trkpt lat="46.14845" lon="7.03371"><ele>408.6</ele><time>2016-08-06T18:54:17Z</time></trkpt>
<trkpt lat="46.1485" lon="7.03366"><ele>408.6</ele><time>2016-08-06T18:54:18Z</time></trkpt>
<trkpt lat="46.14866" lon="7.03351"><ele>408.6</ele><time>2016-08-06T18:54:21Z</time></trkpt>
<trkpt lat="46.14872" lon="7.03346"><ele>408.4</ele><time>2016-08-06T18:54:22Z</time></trkpt>
<trkpt lat="46.14883" lon="7.03336"><ele>408.4</ele><time>2016-08-06T18:54:24Z</time></trkpt>
<trkpt lat="46.14888" lon="7.03331"><ele>408.4</ele><time>2016-08-06T18:54:25Z</time></trkpt>
<trkpt lat="46.14894" lon="7.03327"><ele>408.4</ele><time>2016-08-06T18:54:26Z</time></trkpt>
<trkpt lat="46.149" lon="7.03323"><ele>408.4</ele><time>2016-08-06T18:54:27Z</time></trkpt>
<trkpt lat="46.14906" lon="7.03319"><ele>408.4</ele><time>2016-08-06T18:54:28Z</time></trkpt>
<trkpt lat="46.14924" lon="7.03307"><ele>408.4</ele><time>2016-08-06T18:54:31Z</time></trkpt>
<trkpt lat="46.1493" lon="7.03304"><ele>408.4</ele><time>2016-08-06T18:54:32Z</time></trkpt>
<trkpt lat="46.14943" lon="7.03299"><ele>408.2</ele><time>2016-08-06T18:54:34Z</time></trkpt>
<trkpt lat="46.14962" lon="7.03291"><ele>408.2</ele><time>2016-08-06T18:54:37Z</time></trkpt>
<trkpt lat="46.14968" lon="7.03289"><ele>408.2</ele><time>2016-08-06T18:54:38Z</time></trkpt>
<trkpt lat="46.14975" lon="7.03286"><ele>408.2</ele><time>2016-08-06T18:54:39Z</time></trkpt>
<trkpt lat="46.14981" lon="7.03284"><ele>408.2</ele><time>2016-08-06T18:54:40Z</time></trkpt>
<trkpt lat="46.14995" lon="7.03278"><ele>408</ele><time>2016-08-06T18:54:42Z</time></trkpt>
<trkpt lat="46.15008" lon="7.03273"><ele>408</ele><time>2016-08-06T18:54:44Z</time></trkpt>
<trkpt lat="46.15021" lon="7.03268"><ele>408</ele><time>2016-08-06T18:54:46Z</time></trkpt>
<trkpt lat="46.15028" lon="7.03266"><ele>408</ele><time>2016-08-06T18:54:47Z</time></trkpt>
<trkpt lat="46.15035" lon="7.03264"><ele>408</ele><time>2016-08-06T18:54:48Z</time></trkpt>
<trkpt lat="46.15049" lon="7.03261"><ele>408</ele><time>2016-08-06T18:54:50Z</time></trkpt>
<trkpt lat="46.15063" lon="7.03257"><ele>407.8</ele><time>2016-08-06T18:54:52Z</time></trkpt>
<trkpt lat="46.1507" lon="7.03255"><ele>407.8</ele><time>2016-08-06T18:54:53Z</time></trkpt>
<trkpt lat="46.15076" lon="7.03253"><ele>407.8</ele><time>2016-08-06T18:54:54Z</time></trkpt>
<trkpt lat="46.15094" lon="7.03248"><ele>407.8</ele><time>2016-08-06T18:54:57Z</time></trkpt>
<trkpt lat="46.151" lon="7.03246"><ele>407.8</ele><time>2016-08-06T18:54:58Z</time></trkpt>
<trkpt lat="46.15118" lon="7.03241"><ele>407.6</ele><time>2016-08-06T18:55:01Z</time></trkpt>
<trkpt lat="46.15131" lon="7.03239"><ele>407.6</ele><time>2016-08-06T18:55:03Z</time></trkpt>
<trkpt lat="46.15144" lon="7.03236"><ele>407.6</ele><time>2016-08-06T18:55:05Z</time></trkpt>
<trkpt lat="46.15157" lon="7.03234"><ele>407.6</ele><time>2016-08-06T18:55:07Z</time></trkpt>
<trkpt lat="46.15163" lon="7.03232"><ele>407.6</ele><time>2016-08-06T18:55:08Z</time></trkpt>
<trkpt lat="46.1517" lon="7.03231"><ele>407.6</ele><time>2016-08-06T18:55:09Z</time></trkpt>
<trkpt lat="46.15182" lon="7.03227"><ele>407.4</ele><time>2016-08-06T18:55:11Z</time></trkpt>
<trkpt lat="46.15195" lon="7.03224"><ele>407.4</ele><time>2016-08-06T18:55:13Z</time></trkpt>
<trkpt lat="46.15201" lon="7.03222"><ele>407.4</ele><time>2016-08-06T18:55:14Z</time></trkpt>
<trkpt lat="46.15214" lon="7.03219"><ele>407.4</ele><time>2016-08-06T18:55:16Z</time></trkpt>
<trkpt lat="46.1522" lon="7.03218"><ele>407.4</ele><time>2016-08-06T18:55:17Z</time></trkpt>
<trkpt lat="46.15226" lon="7.03217"><ele>407.4</ele><time>2016-08-06T18:55:18Z</time></trkpt>
<trkpt lat="46.15245" lon="7.03213"><ele>407.2</ele><time>2016-08-06T18:55:21Z</time></trkpt>
<trkpt lat="46.15258" lon="7.0321"><ele>407.2</ele><time>2016-08-06T18:55:23Z</time></trkpt>
<trkpt lat="46.15264" lon="7.03209"><ele>407.2</ele><time>2016-08-06T18:55:24Z</time></trkpt>
<trkpt lat="46.15271" lon="7.03208"><ele>407.2</ele><time>2016-08-06T18:55:25Z</time></trkpt>
<trkpt lat="46.15284" lon="7.03206"><ele>407.2</ele><time>2016-08-06T18:55:27Z</time></trkpt>
<trkpt lat="46.15291" lon="7.03205"><ele>407.2</ele><time>2016-08-06T18:55:28Z</time></trkpt>
<trkpt lat="46.15304" lon="7.03203"><ele>407</ele><time>2016-08-06T18:55:30Z</time></trkpt>
<trkpt lat="46.15311" lon="7.03202"><ele>407</ele><time>2016-08-06T18:55:31Z</time></trkpt>
<trkpt lat="46.15317" lon="7.03202"><ele>407</ele><time>2016-08-06T18:55:32Z</time></trkpt>
<trkpt lat="46.15337" lon="7.03201"><ele>407</ele><time>2016-08-06T18:55:35Z</time></trkpt>
<trkpt lat="46.1535" lon="7.03201"><ele>407</ele><time>2016-08-06T18:55:37Z</time></trkpt>
<trkpt lat="46.15357" lon="7.032"><ele>406.8</ele><time>2016-08-06T18:55:38Z</time></trkpt>
<trkpt lat="46.15368" lon="7.03201"><ele>406.8</ele><time>2016-08-06T18:55:40Z</time></trkpt>
<trkpt lat="46.1538" lon="7.03201"><ele>406.8</ele><time>2016-08-06T18:55:42Z</time></trkpt>
<trkpt lat="46.15397" lon="7.03202"><ele>406.8</ele><time>2016-08-06T18:55:45Z</time></trkpt>
<trkpt lat="46.15403" lon="7.03202"><ele>406.8</ele><time>2016-08-06T18:55:46Z</time></trkpt>
<trkpt lat="46.15409" lon="7.03203"><ele>406.6</ele><time>2016-08-06T18:55:47Z</time></trkpt>
<trkpt lat="46.15415" lon="7.03203"><ele>406.6</ele><time>2016-08-06T18:55:48Z</time></trkpt>
<trkpt lat="46.15426" lon="7.03204"><ele>406.6</ele><time>2016-08-06T18:55:50Z</time></trkpt>
<trkpt lat="46.15437" lon="7.03204"><ele>406.6</ele><time>2016-08-06T18:55:52Z</time></trkpt>
<trkpt lat="46.15449" lon="7.03205"><ele>406.6</ele><time>2016-08-06T18:55:54Z</time></trkpt>
<trkpt lat="46.15462" lon="7.03206"><ele>406.6</ele><time>2016-08-06T18:55:56Z</time></trkpt>
<trkpt lat="46.15475" lon="7.03207"><ele>406.4</ele><time>2016-08-06T18:55:58Z</time></trkpt>
<trkpt lat="46.15488" lon="7.03209"><ele>406.4</ele><time>2016-08-06T18:56:00Z</time></trkpt>
<trkpt lat="46.15501" lon="7.0321"><ele>406.4</ele><time>2016-08-06T18:56:02Z</time></trkpt>
<trkpt lat="46.15515" lon="7.0321"><ele>406.4</ele><time>2016-08-06T18:56:04Z</time></trkpt>
<trkpt lat="46.15529" lon="7.03211"><ele>406.2</ele><time>2016-08-06T18:56:06Z</time></trkpt>
<trkpt lat="46.15543" lon="7.03212"><ele>406.2</ele><time>2016-08-06T18:56:08Z</time></trkpt>
<trkpt lat="46.15549" lon="7.03212"><ele>406.2</ele><time>2016-08-06T18:56:09Z</time></trkpt>
<trkpt lat="46.15556" lon="7.03213"><ele>406.2</ele><time>2016-08-06T18:56:10Z</time></trkpt>
<trkpt lat="46.1557" lon="7.03214"><ele>406.2</ele><time>2016-08-06T18:56:12Z</time></trkpt>
<trkpt lat="46.15583" lon="7.03215"><ele>406.2</ele><time>2016-08-06T18:56:14Z</time></trkpt>
<trkpt lat="46.15597" lon="7.03217"><ele>406</ele><time>2016-08-06T18:56:16Z</time></trkpt>
<trkpt lat="46.15609" lon="7.03218"><ele>406</ele><time>2016-08-06T18:56:18Z</time></trkpt>
<trkpt lat="46.15622" lon="7.03219"><ele>406</ele><time>2016-08-06T18:56:20Z</time></trkpt>
<trkpt lat="46.15635" lon="7.03221"><ele>406</ele><time>2016-08-06T18:56:22Z</time></trkpt>
<trkpt lat="46.15647" lon="7.03222"><ele>406</ele><time>2016-08-06T18:56:24Z</time></trkpt>
<trkpt lat="46.15659" lon="7.03221"><ele>405.8</ele><time>2016-08-06T18:56:26Z</time></trkpt>
<trkpt lat="46.15671" lon="7.03221"><ele>405.8</ele><time>2016-08-06T18:56:28Z</time></trkpt>
<trkpt lat="46.15684" lon="7.03224"><ele>405.8</ele><time>2016-08-06T18:56:30Z</time></trkpt>
<trkpt lat="46.15697" lon="7.03227"><ele>405.8</ele><time>2016-08-06T18:56:32Z</time></trkpt>
<trkpt lat="46.1571" lon="7.03231"><ele>405.6</ele><time>2016-08-06T18:56:34Z</time></trkpt>
<trkpt lat="46.15717" lon="7.03232"><ele>405.6</ele><time>2016-08-06T18:56:35Z</time></trkpt>
<trkpt lat="46.15722" lon="7.03232"><ele>405.6</ele><time>2016-08-06T18:56:36Z</time></trkpt>
<trkpt lat="46.15734" lon="7.03232"><ele>405.6</ele><time>2016-08-06T18:56:38Z</time></trkpt>
<trkpt lat="46.15746" lon="7.03233"><ele>405.6</ele><time>2016-08-06T18:56:40Z</time></trkpt>
<trkpt lat="46.15758" lon="7.03233"><ele>405.6</ele><time>2016-08-06T18:56:42Z</time></trkpt>
<trkpt lat="46.15763" lon="7.03234"><ele>405.6</ele><time>2016-08-06T18:56:43Z</time></trkpt>
<trkpt lat="46.15768" lon="7.03234"><ele>405.4</ele><time>2016-08-06T18:56:44Z</time></trkpt>
<trkpt lat="46.15777" lon="7.03235"><ele>405.4</ele><time>2016-08-06T18:56:46Z</time></trkpt>
<trkpt lat="46.15786" lon="7.03236"><ele>405.4</ele><time>2016-08-06T18:56:48Z</time></trkpt>
<trkpt lat="46.15789" lon="7.03232"><ele>405.4</ele><time>2016-08-06T18:56:49Z</time></trkpt>
<trkpt lat="46.15792" lon="7.03227"><ele>405.4</ele><time>2016-08-06T18:56:50Z</time></trkpt>
<trkpt lat="46.15795" lon="7.03223"><ele>405.4</ele><time>2016-08-06T18:56:51Z</time></trkpt>
<trkpt lat="46.158" lon="7.03214"><ele>405.2</ele><time>2016-08-06T18:56:53Z</time></trkpt>
<trkpt lat="46.15804" lon="7.03212"><ele>405.2</ele><time>2016-08-06T18:56:54Z</time></trkpt>
<trkpt lat="46.15809" lon="7.03214"><ele>405.2</ele><time>2016-08-06T18:56:55Z</time></trkpt>
<trkpt lat="46.15815" lon="7.03216"><ele>405.2</ele><time>2016-08-06T18:56:56Z</time></trkpt>
<trkpt lat="46.15821" lon="7.03218"><ele>405.4</ele><time>2016-08-06T18:56:57Z</time></trkpt>
<trkpt lat="46.15826" lon="7.03221"><ele>405.4</ele><time>2016-08-06T18:56:58Z</time></trkpt>
<trkpt lat="46.15844" lon="7.03227"><ele>405.8</ele><time>2016-08-06T18:57:01Z</time></trkpt>
<trkpt lat="46.15849" lon="7.03229"><ele>406</ele><time>2016-08-06T18:57:02Z</time></trkpt>
<trkpt lat="46.15861" lon="7.03231"><ele>406</ele><time>2016-08-06T18:57:04Z</time></trkpt>
<trkpt lat="46.15879" lon="7.03233"><ele>406</ele><time>2016-08-06T18:57:07Z</time></trkpt>
<trkpt lat="46.15885" lon="7.03233"><ele>406</ele><time>2016-08-06T18:57:08Z</time></trkpt>
<trkpt lat="46.15896" lon="7.03235"><ele>406</ele><time>2016-08-06T18:57:10Z</time></trkpt>
<trkpt lat="46.15915" lon="7.03238"><ele>406</ele><time>2016-08-06T18:57:13Z</time></trkpt>
<trkpt lat="46.15921" lon="7.0324"><ele>406</ele><time>2016-08-06T18:57:14Z</time></trkpt>
<trkpt lat="46.1594" lon="7.03243"><ele>406</ele><time>2016-08-06T18:57:17Z</time></trkpt>
<trkpt lat="46.15946" lon="7.03244"><ele>406</ele><time>2016-08-06T18:57:18Z</time></trkpt>
<trkpt lat="46.15959" lon="7.03247"><ele>406</ele><time>2016-08-06T18:57:20Z</time></trkpt>
<trkpt lat="46.15972" lon="7.0325"><ele>406</ele><time>2016-08-06T18:57:22Z</time></trkpt>
<trkpt lat="46.15978" lon="7.03252"><ele>406</ele><time>2016-08-06T18:57:23Z</time></trkpt>
<trkpt lat="46.15991" lon="7.03255"><ele>406</ele><time>2016-08-06T18:57:25Z</time></trkpt>
<trkpt lat="46.16003" lon="7.03258"><ele>406</ele><time>2016-08-06T18:57:27Z</time></trkpt>
<trkpt lat="46.1601" lon="7.03259"><ele>406</ele><time>2016-08-06T18:57:28Z</time></trkpt>
<trkpt lat="46.16023" lon="7.03257"><ele>406</ele><time>2016-08-06T18:57:30Z</time></trkpt>
<trkpt lat="46.16037" lon="7.03255"><ele>406</ele><time>2016-08-06T18:57:32Z</time></trkpt>
<trkpt lat="46.1605" lon="7.03254"><ele>406</ele><time>2016-08-06T18:57:34Z</time></trkpt>
<trkpt lat="46.16055" lon="7.03255"><ele>406</ele><time>2016-08-06T18:57:35Z</time></trkpt>
<trkpt lat="46.16071" lon="7.03252"><ele>406</ele><time>2016-08-06T18:57:37Z</time></trkpt>
<trkpt lat="46.16079" lon="7.03251"><ele>406</ele><time>2016-08-06T18:57:38Z</time></trkpt>
<trkpt lat="46.16092" lon="7.03248"><ele>406</ele><time>2016-08-06T18:57:40Z</time></trkpt>
<trkpt lat="46.16105" lon="7.03246"><ele>406</ele><time>2016-08-06T18:57:42Z</time></trkpt>
<trkpt lat="46.16118" lon="7.03244"><ele>406</ele><time>2016-08-06T18:57:44Z</time></trkpt>
<trkpt lat="46.16124" lon="7.03243"><ele>406</ele><time>2016-08-06T18:57:45Z</time></trkpt>
<trkpt lat="46.16137" lon="7.03239"><ele>406</ele><time>2016-08-06T18:57:47Z</time></trkpt>
<trkpt lat="46.16143" lon="7.03238"><ele>406</ele><time>2016-08-06T18:57:48Z</time></trkpt>
<trkpt lat="46.16155" lon="7.03234"><ele>406</ele><time>2016-08-06T18:57:50Z</time></trkpt>
<trkpt lat="46.16168" lon="7.03231"><ele>406</ele><time>2016-08-06T18:57:52Z</time></trkpt>
<trkpt lat="46.16179" lon="7.03229"><ele>406</ele><time>2016-08-06T18:57:54Z</time></trkpt>
<trkpt lat="46.16196" lon="7.03226"><ele>406</ele><time>2016-08-06T18:57:57Z</time></trkpt>
<trkpt lat="46.16201" lon="7.03225"><ele>406</ele><time>2016-08-06T18:57:58Z</time></trkpt>
<trkpt lat="46.16218" lon="7.03222"><ele>406</ele><time>2016-08-06T18:58:01Z</time></trkpt>
<trkpt lat="46.16223" lon="7.03221"><ele>406</ele><time>2016-08-06T18:58:02Z</time></trkpt>
<trkpt lat="46.16235" lon="7.03218"><ele>406</ele><time>2016-08-06T18:58:04Z</time></trkpt>
<trkpt lat="46.16252" lon="7.03213"><ele>406.2</ele><time>2016-08-06T18:58:07Z</time></trkpt>
<trkpt lat="46.16257" lon="7.03211"><ele>406.2</ele><time>2016-08-06T18:58:08Z</time></trkpt>
<trkpt lat="46.16263" lon="7.0321"><ele>406.2</ele><time>2016-08-06T18:58:09Z</time></trkpt>
<trkpt lat="46.16269" lon="7.03207"><ele>406.2</ele><time>2016-08-06T18:58:10Z</time></trkpt>
<trkpt lat="46.16286" lon="7.03201"><ele>406.2</ele><time>2016-08-06T18:58:13Z</time></trkpt>
<trkpt lat="46.16292" lon="7.03198"><ele>406.2</ele><time>2016-08-06T18:58:14Z</time></trkpt>
<trkpt lat="46.16309" lon="7.03191"><ele>406.2</ele><time>2016-08-06T18:58:17Z</time></trkpt>
<trkpt lat="46.16315" lon="7.03189"><ele>406.2</ele><time>2016-08-06T18:58:18Z</time></trkpt>
<trkpt lat="46.16325" lon="7.03184"><ele>406.2</ele><time>2016-08-06T18:58:20Z</time></trkpt>
<trkpt lat="46.16336" lon="7.0318"><ele>406.2</ele><time>2016-08-06T18:58:22Z</time></trkpt>
<trkpt lat="46.16346" lon="7.03175"><ele>406.2</ele><time>2016-08-06T18:58:24Z</time></trkpt>
<trkpt lat="46.16357" lon="7.03171"><ele>406.2</ele><time>2016-08-06T18:58:26Z</time></trkpt>
<trkpt lat="46.16363" lon="7.03168"><ele>406.2</ele><time>2016-08-06T18:58:27Z</time></trkpt>
<trkpt lat="46.16374" lon="7.03163"><ele>406.2</ele><time>2016-08-06T18:58:29Z</time></trkpt>
<trkpt lat="46.16379" lon="7.03161"><ele>406.2</ele><time>2016-08-06T18:58:30Z</time></trkpt>
<trkpt lat="46.16396" lon="7.03153"><ele>406.2</ele><time>2016-08-06T18:58:33Z</time></trkpt>
<trkpt lat="46.16402" lon="7.03151"><ele>406.2</ele><time>2016-08-06T18:58:34Z</time></trkpt>
<trkpt lat="46.16419" lon="7.03143"><ele>406.2</ele><time>2016-08-06T18:58:37Z</time></trkpt>
<trkpt lat="46.16424" lon="7.0314"><ele>406.2</ele><time>2016-08-06T18:58:38Z</time></trkpt>
<trkpt lat="46.16436" lon="7.03135"><ele>406.2</ele><time>2016-08-06T18:58:40Z</time></trkpt>
<trkpt lat="46.16447" lon="7.03129"><ele>406.2</ele><time>2016-08-06T18:58:42Z</time></trkpt>
<trkpt lat="46.16463" lon="7.03118"><ele>406.2</ele><time>2016-08-06T18:58:45Z</time></trkpt>
<trkpt lat="46.16474" lon="7.03111"><ele>406.2</ele><time>2016-08-06T18:58:47Z</time></trkpt>
<trkpt lat="46.16484" lon="7.03103"><ele>406.2</ele><time>2016-08-06T18:58:49Z</time></trkpt>
<trkpt lat="46.1649" lon="7.031"><ele>406.2</ele><time>2016-08-06T18:58:50Z</time></trkpt>
<trkpt lat="46.165" lon="7.03094"><ele>406.2</ele><time>2016-08-06T18:58:52Z</time></trkpt>
<trkpt lat="46.16511" lon="7.03088"><ele>406.2</ele><time>2016-08-06T18:58:54Z</time></trkpt>
<trkpt lat="46.16527" lon="7.03078"><ele>406.2</ele><time>2016-08-06T18:58:57Z</time></trkpt>
<trkpt lat="46.16532" lon="7.03075"><ele>406.2</ele><time>2016-08-06T18:58:58Z</time></trkpt>
<trkpt lat="46.1655" lon="7.03064"><ele>406.2</ele><time>2016-08-06T18:59:01Z</time></trkpt>
<trkpt lat="46.16556" lon="7.0306"><ele>406.2</ele><time>2016-08-06T18:59:02Z</time></trkpt>
<trkpt lat="46.16567" lon="7.03053"><ele>406.2</ele><time>2016-08-06T18:59:04Z</time></trkpt>
<trkpt lat="46.16579" lon="7.03045"><ele>406.2</ele><time>2016-08-06T18:59:06Z</time></trkpt>
<trkpt lat="46.16585" lon="7.03042"><ele>406.4</ele><time>2016-08-06T18:59:07Z</time></trkpt>
<trkpt lat="46.16592" lon="7.03039"><ele>406.4</ele><time>2016-08-06T18:59:08Z</time></trkpt>
<trkpt lat="46.16604" lon="7.03033"><ele>406.4</ele><time>2016-08-06T18:59:10Z</time></trkpt>
<trkpt lat="46.16623" lon="7.03025"><ele>406.4</ele><time>2016-08-06T18:59:13Z</time></trkpt>
<trkpt lat="46.16629" lon="7.03023"><ele>406.4</ele><time>2016-08-06T18:59:14Z</time></trkpt>
<trkpt lat="46.16648" lon="7.03016"><ele>406.4</ele><time>2016-08-06T18:59:17Z</time></trkpt>
<trkpt lat="46.16654" lon="7.03015"><ele>406.4</ele><time>2016-08-06T18:59:18Z</time></trkpt>
<trkpt lat="46.16661" lon="7.03015"><ele>406.4</ele><time>2016-08-06T18:59:19Z</time></trkpt>
<trkpt lat="46.16665" lon="7.03012"><ele>406.4</ele><time>2016-08-06T18:59:20Z</time></trkpt>
<trkpt lat="46.16674" lon="7.03007"><ele>406.4</ele><time>2016-08-06T18:59:22Z</time></trkpt>
<trkpt lat="46.16691" lon="7.03"><ele>406.4</ele><time>2016-08-06T18:59:25Z</time></trkpt>
<trkpt lat="46.16702" lon="7.02995"><ele>406.4</ele><time>2016-08-06T18:59:27Z</time></trkpt>
<trkpt lat="46.16708" lon="7.02993"><ele>406.4</ele><time>2016-08-06T18:59:28Z</time></trkpt>
<trkpt lat="46.16719" lon="7.02988"><ele>406.4</ele><time>2016-08-06T18:59:30Z</time></trkpt>
<trkpt lat="46.16726" lon="7.02986"><ele>406.4</ele><time>2016-08-06T18:59:31Z</time></trkpt>
<trkpt lat="46.1674" lon="7.0298"><ele>406.4</ele><time>2016-08-06T18:59:33Z</time></trkpt>
<trkpt lat="46.16747" lon="7.02977"><ele>406.4</ele><time>2016-08-06T18:59:34Z</time></trkpt>
<trkpt lat="46.16767" lon="7.02968"><ele>406.4</ele><time>2016-08-06T18:59:37Z</time></trkpt>
<trkpt lat="46.16773" lon="7.02965"><ele>406.4</ele><time>2016-08-06T18:59:38Z</time></trkpt>
<trkpt lat="46.16784" lon="7.02958"><ele>406.4</ele><time>2016-08-06T18:59:40Z</time></trkpt>
<trkpt lat="46.16796" lon="7.02952"><ele>406.4</ele><time>2016-08-06T18:59:42Z</time></trkpt>
<trkpt lat="46.16801" lon="7.0295"><ele>406.4</ele><time>2016-08-06T18:59:43Z</time></trkpt>
<trkpt lat="46.16807" lon="7.02948"><ele>406.4</ele><time>2016-08-06T18:59:44Z</time></trkpt>
<trkpt lat="46.16824" lon="7.02942"><ele>406.4</ele><time>2016-08-06T18:59:47Z</time></trkpt>
<trkpt lat="46.16836" lon="7.02937"><ele>406.4</ele><time>2016-08-06T18:59:49Z</time></trkpt>
<trkpt lat="46.16841" lon="7.02935"><ele>406.4</ele><time>2016-08-06T18:59:50Z</time></trkpt>
<trkpt lat="46.16845" lon="7.02933"><ele>406.4</ele><time>2016-08-06T18:59:51Z</time></trkpt>
<trkpt lat="46.1685" lon="7.0293"><ele>406.4</ele><time>2016-08-06T18:59:52Z</time></trkpt>
<trkpt lat="46.16859" lon="7.02925"><ele>406.4</ele><time>2016-08-06T18:59:54Z</time></trkpt>
<trkpt lat="46.16872" lon="7.02917"><ele>406.4</ele><time>2016-08-06T18:59:57Z</time></trkpt>
<trkpt lat="46.16876" lon="7.02914"><ele>406.4</ele><time>2016-08-06T18:59:58Z</time></trkpt>
<trkpt lat="46.16884" lon="7.02909"><ele>406.4</ele><time>2016-08-06T19:00:00Z</time></trkpt>
<trkpt lat="46.16887" lon="7.02908"><ele>406.4</ele><time>2016-08-06T19:00:01Z</time></trkpt>
<trkpt lat="46.16889" lon="7.02907"><ele>406.4</ele><time>2016-08-06T19:00:02Z</time></trkpt>
<trkpt lat="46.16894" lon="7.02906"><ele>406.4</ele><time>2016-08-06T19:00:04Z</time></trkpt>
<trkpt lat="46.16901" lon="7.02903"><ele>406.4</ele><time>2016-08-06T19:00:07Z</time></trkpt>
<trkpt lat="46.16903" lon="7.02902"><ele>406.4</ele><time>2016-08-06T19:00:08Z</time></trkpt>
<trkpt lat="46.16908" lon="7.029"><ele>406.6</ele><time>2016-08-06T19:00:10Z</time></trkpt>
<trkpt lat="46.16915" lon="7.02898"><ele>406.6</ele><time>2016-08-06T19:00:13Z</time></trkpt>
<trkpt lat="46.16917" lon="7.02897"><ele>406.6</ele><time>2016-08-06T19:00:14Z</time></trkpt>
<trkpt lat="46.16923" lon="7.02895"><ele>406.6</ele><time>2016-08-06T19:00:16Z</time></trkpt>
<trkpt lat="46.16929" lon="7.02895"><ele>406.6</ele><time>2016-08-06T19:00:17Z</time></trkpt>
<trkpt lat="46.16934" lon="7.02894"><ele>406.6</ele><time>2016-08-06T19:00:18Z</time></trkpt>
<trkpt lat="46.16951" lon="7.02893"><ele>406.6</ele><time>2016-08-06T19:00:21Z</time></trkpt>
<trkpt lat="46.16956" lon="7.02892"><ele>406.6</ele><time>2016-08-06T19:00:22Z</time></trkpt>
<trkpt lat="46.16975" lon="7.02884"><ele>406.6</ele><time>2016-08-06T19:00:25Z</time></trkpt>
<trkpt lat="46.16987" lon="7.02878"><ele>406.6</ele><time>2016-08-06T19:00:27Z</time></trkpt>
<trkpt lat="46.16994" lon="7.02875"><ele>406.6</ele><time>2016-08-06T19:00:28Z</time></trkpt>
<trkpt lat="46.17" lon="7.02873"><ele>406.6</ele><time>2016-08-06T19:00:29Z</time></trkpt>
<trkpt lat="46.17006" lon="7.0287"><ele>406.6</ele><time>2016-08-06T19:00:30Z</time></trkpt>
<trkpt lat="46.17026" lon="7.02863"><ele>406.6</ele><time>2016-08-06T19:00:33Z</time></trkpt>
<trkpt lat="46.17033" lon="7.0286"><ele>406.6</ele><time>2016-08-06T19:00:34Z</time></trkpt>
<trkpt lat="46.17046" lon="7.02855"><ele>406.6</ele><time>2016-08-06T19:00:36Z</time></trkpt>
<trkpt lat="46.17052" lon="7.02852"><ele>406.6</ele><time>2016-08-06T19:00:37Z</time></trkpt>
<trkpt lat="46.17065" lon="7.02845"><ele>406.6</ele><time>2016-08-06T19:00:39Z</time></trkpt>
<trkpt lat="46.17071" lon="7.02842"><ele>406.6</ele><time>2016-08-06T19:00:40Z</time></trkpt>
<trkpt lat="46.17083" lon="7.02835"><ele>406.6</ele><time>2016-08-06T19:00:42Z</time></trkpt>
<trkpt lat="46.17089" lon="7.02832"><ele>406.6</ele><time>2016-08-06T19:00:43Z</time></trkpt>
<trkpt lat="46.17102" lon="7.02826"><ele>406.6</ele><time>2016-08-06T19:00:45Z</time></trkpt>
<trkpt lat="46.17115" lon="7.02821"><ele>406.6</ele><time>2016-08-06T19:00:47Z</time></trkpt>
<trkpt lat="46.17121" lon="7.02818"><ele>406.6</ele><time>2016-08-06T19:00:48Z</time></trkpt>
<trkpt lat="46.17134" lon="7.02813"><ele>406.6</ele><time>2016-08-06T19:00:50Z</time></trkpt>
<trkpt lat="46.17147" lon="7.02807"><ele>406.6</ele><time>2016-08-06T19:00:52Z</time></trkpt>
<trkpt lat="46.17159" lon="7.02801"><ele>406.6</ele><time>2016-08-06T19:00:54Z</time></trkpt>
<trkpt lat="46.17179" lon="7.02792"><ele>406.6</ele><time>2016-08-06T19:00:57Z</time></trkpt>
<trkpt lat="46.17185" lon="7.02789"><ele>406.6</ele><time>2016-08-06T19:00:58Z</time></trkpt>
<trkpt lat="46.17204" lon="7.02779"><ele>406.6</ele><time>2016-08-06T19:01:01Z</time></trkpt>
<trkpt lat="46.17211" lon="7.02776"><ele>406.6</ele><time>2016-08-06T19:01:02Z</time></trkpt>
<trkpt lat="46.17223" lon="7.0277"><ele>406.6</ele><time>2016-08-06T19:01:04Z</time></trkpt>
<trkpt lat="46.17242" lon="7.02762"><ele>406.6</ele><time>2016-08-06T19:01:07Z</time></trkpt>
<trkpt lat="46.17255" lon="7.02756"><ele>406.6</ele><time>2016-08-06T19:01:09Z</time></trkpt>
<trkpt lat="46.17267" lon="7.0275"><ele>406.6</ele><time>2016-08-06T19:01:11Z</time></trkpt>
<trkpt lat="46.17278" lon="7.02745"><ele>406.8</ele><time>2016-08-06T19:01:13Z</time></trkpt>
<trkpt lat="46.17284" lon="7.02742"><ele>406.8</ele><time>2016-08-06T19:01:14Z</time></trkpt>
<trkpt lat="46.173" lon="7.02734"><ele>406.8</ele><time>2016-08-06T19:01:17Z</time></trkpt>
<trkpt lat="46.17306" lon="7.02731"><ele>406.8</ele><time>2016-08-06T19:01:18Z</time></trkpt>
<trkpt lat="46.17311" lon="7.02728"><ele>406.8</ele><time>2016-08-06T19:01:19Z</time></trkpt>
<trkpt lat="46.17321" lon="7.02724"><ele>406.8</ele><time>2016-08-06T19:01:21Z</time></trkpt>
<trkpt lat="46.17332" lon="7.0272"><ele>406.8</ele><time>2016-08-06T19:01:23Z</time></trkpt>
<trkpt lat="46.17337" lon="7.02718"><ele>406.8</ele><time>2016-08-06T19:01:24Z</time></trkpt>
<trkpt lat="46.17352" lon="7.02711"><ele>406.8</ele><time>2016-08-06T19:01:27Z</time></trkpt>
<trkpt lat="46.17358" lon="7.02709"><ele>406.8</ele><time>2016-08-06T19:01:28Z</time></trkpt>
<trkpt lat="46.17369" lon="7.02705"><ele>406.8</ele><time>2016-08-06T19:01:30Z</time></trkpt>
<trkpt lat="46.1738" lon="7.02702"><ele>406.8</ele><time>2016-08-06T19:01:32Z</time></trkpt>
<trkpt lat="46.17391" lon="7.02698"><ele>406.8</ele><time>2016-08-06T19:01:34Z</time></trkpt>
<trkpt lat="46.17407" lon="7.02692"><ele>406.8</ele><time>2016-08-06T19:01:37Z</time></trkpt>
<trkpt lat="46.17414" lon="7.0269"><ele>406.8</ele><time>2016-08-06T19:01:38Z</time></trkpt>
<trkpt lat="46.17427" lon="7.02686"><ele>406.8</ele><time>2016-08-06T19:01:40Z</time></trkpt>
<trkpt lat="46.17439" lon="7.02682"><ele>406.8</ele><time>2016-08-06T19:01:42Z</time></trkpt>
<trkpt lat="46.17452" lon="7.02678"><ele>406.8</ele><time>2016-08-06T19:01:44Z</time></trkpt>
<trkpt lat="46.17459" lon="7.02677"><ele>406.8</ele><time>2016-08-06T19:01:45Z</time></trkpt>
<trkpt lat="46.17472" lon="7.02675"><ele>406.8</ele><time>2016-08-06T19:01:47Z</time></trkpt>
<trkpt lat="46.17479" lon="7.02674"><ele>406.8</ele><time>2016-08-06T19:01:48Z</time></trkpt>
<trkpt lat="46.17493" lon="7.02673"><ele>406.8</ele><time>2016-08-06T19:01:50Z</time></trkpt>
<trkpt lat="46.17499" lon="7.02672"><ele>406.8</ele><time>2016-08-06T19:01:51Z</time></trkpt>
<trkpt lat="46.17505" lon="7.02672"><ele>406.8</ele><time>2016-08-06T19:01:52Z</time></trkpt>
<trkpt lat="46.17523" lon="7.02671"><ele>406.8</ele><time>2016-08-06T19:01:55Z</time></trkpt>
<trkpt lat="46.17535" lon="7.0267"><ele>406.8</ele><time>2016-08-06T19:01:57Z</time></trkpt>
<trkpt lat="46.17541" lon="7.0267"><ele>406.8</ele><time>2016-08-06T19:01:58Z</time></trkpt>
<trkpt lat="46.17547" lon="7.0267"><ele>406.8</ele><time>2016-08-06T19:01:59Z</time></trkpt>
<trkpt lat="46.17554" lon="7.0267"><ele>406.8</ele><time>2016-08-06T19:02:00Z</time></trkpt>
<trkpt lat="46.17566" lon="7.02672"><ele>406.8</ele><time>2016-08-06T19:02:02Z</time></trkpt>
<trkpt lat="46.17579" lon="7.02673"><ele>406.8</ele><time>2016-08-06T19:02:04Z</time></trkpt>
<trkpt lat="46.17597" lon="7.02675"><ele>406.8</ele><time>2016-08-06T19:02:07Z</time></trkpt>
<trkpt lat="46.17605" lon="7.02675"><ele>406.8</ele><time>2016-08-06T19:02:08Z</time></trkpt>
<trkpt lat="46.17619" lon="7.02676"><ele>406.8</ele><time>2016-08-06T19:02:10Z</time></trkpt>
<trkpt lat="46.17634" lon="7.02676"><ele>406.8</ele><time>2016-08-06T19:02:12Z</time></trkpt>
<trkpt lat="46.17648" lon="7.02677"><ele>406.8</ele><time>2016-08-06T19:02:14Z</time></trkpt>
<trkpt lat="46.17667" lon="7.02682"><ele>407</ele><time>2016-08-06T19:02:17Z</time></trkpt>
<trkpt lat="46.17673" lon="7.02684"><ele>407</ele><time>2016-08-06T19:02:18Z</time></trkpt>
<trkpt lat="46.17678" lon="7.02685"><ele>407</ele><time>2016-08-06T19:02:19Z</time></trkpt>
<trkpt lat="46.17681" lon="7.02686"><ele>407</ele><time>2016-08-06T19:02:20Z</time></trkpt>
<trkpt lat="46.17688" lon="7.02686"><ele>407</ele><time>2016-08-06T19:02:22Z</time></trkpt>
<trkpt lat="46.17697" lon="7.02688"><ele>407</ele><time>2016-08-06T19:02:25Z</time></trkpt>
<trkpt lat="46.17703" lon="7.02689"><ele>407</ele><time>2016-08-06T19:02:27Z</time></trkpt>
<trkpt lat="46.17706" lon="7.0269"><ele>407</ele><time>2016-08-06T19:02:28Z</time></trkpt>
<trkpt lat="46.17711" lon="7.02692"><ele>407</ele><time>2016-08-06T19:02:30Z</time></trkpt>
<trkpt lat="46.17717" lon="7.02695"><ele>407</ele><time>2016-08-06T19:02:32Z</time></trkpt>
<trkpt lat="46.17722" lon="7.02698"><ele>407</ele><time>2016-08-06T19:02:34Z</time></trkpt>
<trkpt lat="46.17728" lon="7.02701"><ele>407</ele><time>2016-08-06T19:02:36Z</time></trkpt>
<trkpt lat="46.1773" lon="7.02702"><ele>407.2</ele><time>2016-08-06T19:02:37Z</time></trkpt>
<trkpt lat="46.17733" lon="7.02704"><ele>407.6</ele><time>2016-08-06T19:02:38Z</time></trkpt>
<trkpt lat="46.17741" lon="7.02708"><ele>408.2</ele><time>2016-08-06T19:02:41Z</time></trkpt>
<trkpt lat="46.17747" lon="7.0271"><ele>408.8</ele><time>2016-08-06T19:02:43Z</time></trkpt>
<trkpt lat="46.1775" lon="7.02712"><ele>409</ele><time>2016-08-06T19:02:44Z</time></trkpt>
<trkpt lat="46.17753" lon="7.02713"><ele>409.2</ele><time>2016-08-06T19:02:45Z</time></trkpt>
<trkpt lat="46.17759" lon="7.02716"><ele>409.6</ele><time>2016-08-06T19:02:47Z</time></trkpt>
<trkpt lat="46.17762" lon="7.02717"><ele>410</ele><time>2016-08-06T19:02:48Z</time></trkpt>
<trkpt lat="46.17771" lon="7.02721"><ele>410.6</ele><time>2016-08-06T19:02:51Z</time></trkpt>
<trkpt lat="46.17777" lon="7.02723"><ele>411</ele><time>2016-08-06T19:02:53Z</time></trkpt>
<trkpt lat="46.17783" lon="7.02726"><ele>411.2</ele><time>2016-08-06T19:02:55Z</time></trkpt>
<trkpt lat="46.17789" lon="7.02728"><ele>411.4</ele><time>2016-08-06T19:02:57Z</time></trkpt>
<trkpt lat="46.17792" lon="7.0273"><ele>411.6</ele><time>2016-08-06T19:02:58Z</time></trkpt>
<trkpt lat="46.17795" lon="7.02731"><ele>411.6</ele><time>2016-08-06T19:02:59Z</time></trkpt>
<trkpt lat="46.17801" lon="7.02735"><ele>411.8</ele><time>2016-08-06T19:03:01Z</time></trkpt>
<trkpt lat="46.17805" lon="7.02737"><ele>412</ele><time>2016-08-06T19:03:02Z</time></trkpt>
<trkpt lat="46.17811" lon="7.02742"><ele>412.2</ele><time>2016-08-06T19:03:04Z</time></trkpt>
<trkpt lat="46.17821" lon="7.02748"><ele>412.4</ele><time>2016-08-06T19:03:07Z</time></trkpt>
<trkpt lat="46.17824" lon="7.0275"><ele>412.6</ele><time>2016-08-06T19:03:08Z</time></trkpt>
<trkpt lat="46.17833" lon="7.02756"><ele>412.8</ele><time>2016-08-06T19:03:11Z</time></trkpt>
<trkpt lat="46.1784" lon="7.02761"><ele>413</ele><time>2016-08-06T19:03:13Z</time></trkpt>
<trkpt lat="46.17846" lon="7.02765"><ele>413.2</ele><time>2016-08-06T19:03:14Z</time></trkpt>
<trkpt lat="46.17851" lon="7.02769"><ele>413.2</ele><time>2016-08-06T19:03:15Z</time></trkpt>
<trkpt lat="46.17862" lon="7.02776"><ele>412.6</ele><time>2016-08-06T19:03:17Z</time></trkpt>
<trkpt lat="46.17868" lon="7.0278"><ele>412.4</ele><time>2016-08-06T19:03:18Z</time></trkpt>
<trkpt lat="46.17879" lon="7.02788"><ele>411.8</ele><time>2016-08-06T19:03:20Z</time></trkpt>
<trkpt lat="46.17884" lon="7.02792"><ele>411.6</ele><time>2016-08-06T19:03:21Z</time></trkpt>
<trkpt lat="46.17889" lon="7.02795"><ele>411.4</ele><time>2016-08-06T19:03:22Z</time></trkpt>
<trkpt lat="46.17903" lon="7.02807"><ele>410.6</ele><time>2016-08-06T19:03:25Z</time></trkpt>
<trkpt lat="46.17908" lon="7.0281"><ele>410.4</ele><time>2016-08-06T19:03:26Z</time></trkpt>
<trkpt lat="46.17913" lon="7.02814"><ele>410.2</ele><time>2016-08-06T19:03:27Z</time></trkpt>
<trkpt lat="46.17918" lon="7.02818"><ele>410</ele><time>2016-08-06T19:03:28Z</time></trkpt>
<trkpt lat="46.17927" lon="7.02825"><ele>409.6</ele><time>2016-08-06T19:03:30Z</time></trkpt>
<trkpt lat="46.17943" lon="7.02835"><ele>409</ele><time>2016-08-06T19:03:33Z</time></trkpt>
<trkpt lat="46.17948" lon="7.02838"><ele>408.8</ele><time>2016-08-06T19:03:34Z</time></trkpt>
<trkpt lat="46.17964" lon="7.02848"><ele>408.4</ele><time>2016-08-06T19:03:37Z</time></trkpt>
<trkpt lat="46.17969" lon="7.02851"><ele>408.2</ele><time>2016-08-06T19:03:38Z</time></trkpt>
<trkpt lat="46.17975" lon="7.02855"><ele>408</ele><time>2016-08-06T19:03:39Z</time></trkpt>
<trkpt lat="46.1798" lon="7.02861"><ele>407.8</ele><time>2016-08-06T19:03:40Z</time></trkpt>
<trkpt lat="46.17991" lon="7.02873"><ele>407.4</ele><time>2016-08-06T19:03:42Z</time></trkpt>
<trkpt lat="46.18002" lon="7.02884"><ele>407</ele><time>2016-08-06T19:03:44Z</time></trkpt>
<trkpt lat="46.18013" lon="7.02896"><ele>406.8</ele><time>2016-08-06T19:03:46Z</time></trkpt>
<trkpt lat="46.18018" lon="7.02901"><ele>406.6</ele><time>2016-08-06T19:03:47Z</time></trkpt>
<trkpt lat="46.18023" lon="7.02905"><ele>406.4</ele><time>2016-08-06T19:03:48Z</time></trkpt>
<trkpt lat="46.18026" lon="7.02902"><ele>406</ele><time>2016-08-06T19:03:49Z</time></trkpt>
<trkpt lat="46.18033" lon="7.02897"><ele>404.8</ele><time>2016-08-06T19:03:51Z</time></trkpt>
<trkpt lat="46.18036" lon="7.02895"><ele>404.2</ele><time>2016-08-06T19:03:52Z</time></trkpt>
<trkpt lat="46.18043" lon="7.02891"><ele>403.2</ele><time>2016-08-06T19:03:54Z</time></trkpt>
<trkpt lat="46.18052" lon="7.02894"><ele>403.6</ele><time>2016-08-06T19:03:57Z</time></trkpt>
<trkpt lat="46.18055" lon="7.02896"><ele>403.8</ele><time>2016-08-06T19:03:58Z</time></trkpt>
<trkpt lat="46.18062" lon="7.02898"><ele>404.2</ele><time>2016-08-06T19:04:00Z</time></trkpt>
<trkpt lat="46.18068" lon="7.02901"><ele>404.6</ele><time>2016-08-06T19:04:02Z</time></trkpt>
<trkpt lat="46.18077" lon="7.02904"><ele>405.4</ele><time>2016-08-06T19:04:05Z</time></trkpt>
<trkpt lat="46.1808" lon="7.02905"><ele>405.6</ele><time>2016-08-06T19:04:06Z</time></trkpt>
<trkpt lat="46.18083" lon="7.02907"><ele>405.8</ele><time>2016-08-06T19:04:07Z</time></trkpt>
<trkpt lat="46.18087" lon="7.02908"><ele>406</ele><time>2016-08-06T19:04:08Z</time></trkpt>
<trkpt lat="46.18094" lon="7.0291"><ele>406.6</ele><time>2016-08-06T19:04:10Z</time></trkpt>
<trkpt lat="46.18101" lon="7.02912"><ele>407.2</ele><time>2016-08-06T19:04:12Z</time></trkpt>
<trkpt lat="46.18104" lon="7.02913"><ele>407.2</ele><time>2016-08-06T19:04:13Z</time></trkpt>
<trkpt lat="46.18108" lon="7.02914"><ele>407.4</ele><time>2016-08-06T19:04:14Z</time></trkpt>
<trkpt lat="46.18119" lon="7.02917"><ele>407.6</ele><time>2016-08-06T19:04:17Z</time></trkpt>
<trkpt lat="46.18122" lon="7.02918"><ele>407.8</ele><time>2016-08-06T19:04:18Z</time></trkpt>
<trkpt lat="46.18129" lon="7.0292"><ele>408</ele><time>2016-08-06T19:04:20Z</time></trkpt>
<trkpt lat="46.18133" lon="7.02921"><ele>408</ele><time>2016-08-06T19:04:21Z</time></trkpt>
<trkpt lat="46.18137" lon="7.02923"><ele>408.2</ele><time>2016-08-06T19:04:22Z</time></trkpt>
<trkpt lat="46.18145" lon="7.02925"><ele>408.4</ele><time>2016-08-06T19:04:24Z</time></trkpt>
<trkpt lat="46.18157" lon="7.02929"><ele>408.8</ele><time>2016-08-06T19:04:27Z</time></trkpt>
<trkpt lat="46.18161" lon="7.02931"><ele>408.8</ele><time>2016-08-06T19:04:28Z</time></trkpt>
<trkpt lat="46.18169" lon="7.02933"><ele>409</ele><time>2016-08-06T19:04:30Z</time></trkpt>
<trkpt lat="46.18177" lon="7.02936"><ele>409.2</ele><time>2016-08-06T19:04:32Z</time></trkpt>
<trkpt lat="46.18186" lon="7.02936"><ele>409.4</ele><time>2016-08-06T19:04:34Z</time></trkpt>
<trkpt lat="46.18199" lon="7.02936"><ele>410</ele><time>2016-08-06T19:04:37Z</time></trkpt>
<trkpt lat="46.18203" lon="7.02936"><ele>410.2</ele><time>2016-08-06T19:04:38Z</time></trkpt>
<trkpt lat="46.18212" lon="7.02937"><ele>410.6</ele><time>2016-08-06T19:04:40Z</time></trkpt>
<trkpt lat="46.18221" lon="7.02937"><ele>411</ele><time>2016-08-06T19:04:42Z</time></trkpt>
<trkpt lat="46.18225" lon="7.02937"><ele>411.2</ele><time>2016-08-06T19:04:43Z</time></trkpt>
<trkpt lat="46.18229" lon="7.02936"><ele>411.4</ele><time>2016-08-06T19:04:44Z</time></trkpt>
<trkpt lat="46.18232" lon="7.02936"><ele>411.6</ele><time>2016-08-06T19:04:45Z</time></trkpt>
<trkpt lat="46.18239" lon="7.02936"><ele>412</ele><time>2016-08-06T19:04:47Z</time></trkpt>
<trkpt lat="46.18243" lon="7.02935"><ele>412.2</ele><time>2016-08-06T19:04:48Z</time></trkpt>
<trkpt lat="46.1825" lon="7.02935"><ele>412.4</ele><time>2016-08-06T19:04:50Z</time></trkpt>
<trkpt lat="46.1826" lon="7.02934"><ele>412.8</ele><time>2016-08-06T19:04:53Z</time></trkpt>
<trkpt lat="46.18264" lon="7.02933"><ele>413</ele><time>2016-08-06T19:04:54Z</time></trkpt>
<trkpt lat="46.18271" lon="7.02933"><ele>413.2</ele><time>2016-08-06T19:04:56Z</time></trkpt>
<trkpt lat="46.18275" lon="7.02932"><ele>413.4</ele><time>2016-08-06T19:04:57Z</time></trkpt>
<trkpt lat="46.18278" lon="7.02932"><ele>413.6</ele><time>2016-08-06T19:04:58Z</time></trkpt>
<trkpt lat="46.1829" lon="7.02931"><ele>414</ele><time>2016-08-06T19:05:01Z</time></trkpt>
<trkpt lat="46.18297" lon="7.02931"><ele>414.2</ele><time>2016-08-06T19:05:03Z</time></trkpt>
<trkpt lat="46.18305" lon="7.0293"><ele>414.6</ele><time>2016-08-06T19:05:05Z</time></trkpt>
<trkpt lat="46.18313" lon="7.0293"><ele>414.8</ele><time>2016-08-06T19:05:07Z</time></trkpt>
<trkpt lat="46.18317" lon="7.02929"><ele>415</ele><time>2016-08-06T19:05:08Z</time></trkpt>
<trkpt lat="46.18328" lon="7.02926"><ele>415.8</ele><time>2016-08-06T19:05:11Z</time></trkpt>
<trkpt lat="46.18332" lon="7.02925"><ele>416</ele><time>2016-08-06T19:05:12Z</time></trkpt>
<trkpt lat="46.18336" lon="7.02924"><ele>416.2</ele><time>2016-08-06T19:05:13Z</time></trkpt>
<trkpt lat="46.18343" lon="7.02921"><ele>416.4</ele><time>2016-08-06T19:05:15Z</time></trkpt>
<trkpt lat="46.18351" lon="7.02919"><ele>416.6</ele><time>2016-08-06T19:05:17Z</time></trkpt>
<trkpt lat="46.18355" lon="7.02918"><ele>416.6</ele><time>2016-08-06T19:05:18Z</time></trkpt>
<trkpt lat="46.18363" lon="7.02916"><ele>416.8</ele><time>2016-08-06T19:05:20Z</time></trkpt>
<trkpt lat="46.18366" lon="7.02915"><ele>417</ele><time>2016-08-06T19:05:21Z</time></trkpt>
<trkpt lat="46.18369" lon="7.02914"><ele>417</ele><time>2016-08-06T19:05:22Z</time></trkpt>
<trkpt lat="46.18376" lon="7.02911"><ele>417.4</ele><time>2016-08-06T19:05:24Z</time></trkpt>
<trkpt lat="46.18386" lon="7.02908"><ele>417.8</ele><time>2016-08-06T19:05:27Z</time></trkpt>
<trkpt lat="46.1839" lon="7.02907"><ele>418</ele><time>2016-08-06T19:05:28Z</time></trkpt>
<trkpt lat="46.18393" lon="7.02905"><ele>418</ele><time>2016-08-06T19:05:29Z</time></trkpt>
<trkpt lat="46.18396" lon="7.02904"><ele>418.2</ele><time>2016-08-06T19:05:30Z</time></trkpt>
<trkpt lat="46.18406" lon="7.02901"><ele>418.2</ele><time>2016-08-06T19:05:33Z</time></trkpt>
<trkpt lat="46.1841" lon="7.029"><ele>418.2</ele><time>2016-08-06T19:05:34Z</time></trkpt>
<trkpt lat="46.1842" lon="7.02895"><ele>418.4</ele><time>2016-08-06T19:05:37Z</time></trkpt>
<trkpt lat="46.18424" lon="7.02893"><ele>418.4</ele><time>2016-08-06T19:05:38Z</time></trkpt>
<trkpt lat="46.18431" lon="7.0289"><ele>418.6</ele><time>2016-08-06T19:05:40Z</time></trkpt>
<trkpt lat="46.18438" lon="7.02887"><ele>418.6</ele><time>2016-08-06T19:05:42Z</time></trkpt>
<trkpt lat="46.18445" lon="7.02884"><ele>418.6</ele><time>2016-08-06T19:05:44Z</time></trkpt>
<trkpt lat="46.18455" lon="7.02879"><ele>418.8</ele><time>2016-08-06T19:05:47Z</time></trkpt>
<trkpt lat="46.18459" lon="7.02877"><ele>418.8</ele><time>2016-08-06T19:05:48Z</time></trkpt>
<trkpt lat="46.18466" lon="7.02873"><ele>419</ele><time>2016-08-06T19:05:50Z</time></trkpt>
<trkpt lat="46.18474" lon="7.02869"><ele>419</ele><time>2016-08-06T19:05:52Z</time></trkpt>
<trkpt lat="46.18481" lon="7.02865"><ele>419</ele><time>2016-08-06T19:05:54Z</time></trkpt>
<trkpt lat="46.18493" lon="7.02859"><ele>419.2</ele><time>2016-08-06T19:05:57Z</time></trkpt>
<trkpt lat="46.18497" lon="7.02857"><ele>419.2</ele><time>2016-08-06T19:05:58Z</time></trkpt>
<trkpt lat="46.185" lon="7.02855"><ele>419.2</ele><time>2016-08-06T19:05:59Z</time></trkpt>
<trkpt lat="46.18504" lon="7.02854"><ele>419.4</ele><time>2016-08-06T19:06:00Z</time></trkpt>
<trkpt lat="46.18511" lon="7.02851"><ele>419.4</ele><time>2016-08-06T19:06:02Z</time></trkpt>
<trkpt lat="46.18518" lon="7.02848"><ele>419.4</ele><time>2016-08-06T19:06:04Z</time></trkpt>
<trkpt lat="46.18528" lon="7.02844"><ele>419.6</ele><time>2016-08-06T19:06:07Z</time></trkpt>
<trkpt lat="46.18532" lon="7.02843"><ele>419.6</ele><time>2016-08-06T19:06:08Z</time></trkpt>
<trkpt lat="46.18539" lon="7.0284"><ele>419.6</ele><time>2016-08-06T19:06:10Z</time></trkpt>
<trkpt lat="46.18546" lon="7.02837"><ele>419.8</ele><time>2016-08-06T19:06:12Z</time></trkpt>
<trkpt lat="46.18553" lon="7.02833"><ele>419.8</ele><time>2016-08-06T19:06:14Z</time></trkpt>
<trkpt lat="46.18563" lon="7.02828"><ele>420</ele><time>2016-08-06T19:06:17Z</time></trkpt>
<trkpt lat="46.18566" lon="7.02826"><ele>420</ele><time>2016-08-06T19:06:18Z</time></trkpt>
<trkpt lat="46.18573" lon="7.02822"><ele>420</ele><time>2016-08-06T19:06:20Z</time></trkpt>
<trkpt lat="46.1858" lon="7.02818"><ele>420.2</ele><time>2016-08-06T19:06:22Z</time></trkpt>
<trkpt lat="46.18587" lon="7.02815"><ele>420.2</ele><time>2016-08-06T19:06:24Z</time></trkpt>
<trkpt lat="46.18591" lon="7.02813"><ele>420.2</ele><time>2016-08-06T19:06:25Z</time></trkpt>
<trkpt lat="46.18601" lon="7.02809"><ele>420.4</ele><time>2016-08-06T19:06:27Z</time></trkpt>
<trkpt lat="46.18606" lon="7.02807"><ele>420.4</ele><time>2016-08-06T19:06:28Z</time></trkpt>
<trkpt lat="46.18616" lon="7.02803"><ele>420.4</ele><time>2016-08-06T19:06:30Z</time></trkpt>
<trkpt lat="46.18626" lon="7.02799"><ele>420.6</ele><time>2016-08-06T19:06:32Z</time></trkpt>
<trkpt lat="46.18636" lon="7.02795"><ele>420.6</ele><time>2016-08-06T19:06:34Z</time></trkpt>
<trkpt lat="46.18642" lon="7.02793"><ele>420.6</ele><time>2016-08-06T19:06:35Z</time></trkpt>
<trkpt lat="46.18653" lon="7.02789"><ele>420.8</ele><time>2016-08-06T19:06:37Z</time></trkpt>
<trkpt lat="46.18658" lon="7.02787"><ele>420.8</ele><time>2016-08-06T19:06:38Z</time></trkpt>
<trkpt lat="46.18675" lon="7.02781"><ele>421</ele><time>2016-08-06T19:06:41Z</time></trkpt>
<trkpt lat="46.18681" lon="7.02779"><ele>421</ele><time>2016-08-06T19:06:42Z</time></trkpt>
<trkpt lat="46.18692" lon="7.02777"><ele>421</ele><time>2016-08-06T19:06:44Z</time></trkpt>
<trkpt lat="46.1871" lon="7.02773"><ele>421.2</ele><time>2016-08-06T19:06:47Z</time></trkpt>
<trkpt lat="46.18715" lon="7.02772"><ele>421.2</ele><time>2016-08-06T19:06:48Z</time></trkpt>
<trkpt lat="46.18727" lon="7.02769"><ele>421.2</ele><time>2016-08-06T19:06:50Z</time></trkpt>
<trkpt lat="46.18739" lon="7.02766"><ele>421.4</ele><time>2016-08-06T19:06:52Z</time></trkpt>
<trkpt lat="46.18751" lon="7.02762"><ele>421.4</ele><time>2016-08-06T19:06:54Z</time></trkpt>
<trkpt lat="46.18769" lon="7.02757"><ele>421.6</ele><time>2016-08-06T19:06:57Z</time></trkpt>
<trkpt lat="46.18774" lon="7.02755"><ele>421.6</ele><time>2016-08-06T19:06:58Z</time></trkpt>
<trkpt lat="46.18792" lon="7.02749"><ele>421.4</ele><time>2016-08-06T19:07:01Z</time></trkpt>
<trkpt lat="46.18798" lon="7.02747"><ele>421.4</ele><time>2016-08-06T19:07:02Z</time></trkpt>
<trkpt lat="46.18804" lon="7.02743"><ele>421.4</ele><time>2016-08-06T19:07:03Z</time></trkpt>
<trkpt lat="46.18816" lon="7.02735"><ele>421.2</ele><time>2016-08-06T19:07:05Z</time></trkpt>
<trkpt lat="46.18827" lon="7.02728"><ele>421.2</ele><time>2016-08-06T19:07:07Z</time></trkpt>
<trkpt lat="46.18833" lon="7.02724"><ele>421.2</ele><time>2016-08-06T19:07:08Z</time></trkpt>
<trkpt lat="46.18839" lon="7.0272"><ele>421</ele><time>2016-08-06T19:07:09Z</time></trkpt>
<trkpt lat="46.1885" lon="7.02712"><ele>421</ele><time>2016-08-06T19:07:11Z</time></trkpt>
<trkpt lat="46.18861" lon="7.02704"><ele>421</ele><time>2016-08-06T19:07:13Z</time></trkpt>
<trkpt lat="46.18873" lon="7.02696"><ele>420.8</ele><time>2016-08-06T19:07:15Z</time></trkpt>
<trkpt lat="46.18883" lon="7.02688"><ele>420.8</ele><time>2016-08-06T19:07:17Z</time></trkpt>
<trkpt lat="46.18888" lon="7.02684"><ele>420.6</ele><time>2016-08-06T19:07:18Z</time></trkpt>
<trkpt lat="46.18899" lon="7.02675"><ele>420.6</ele><time>2016-08-06T19:07:20Z</time></trkpt>
<trkpt lat="46.18914" lon="7.02663"><ele>420.4</ele><time>2016-08-06T19:07:23Z</time></trkpt>
<trkpt lat="46.18924" lon="7.02654"><ele>420.4</ele><time>2016-08-06T19:07:25Z</time></trkpt>
<trkpt lat="46.18934" lon="7.02645"><ele>420.2</ele><time>2016-08-06T19:07:27Z</time></trkpt>
<trkpt lat="46.18939" lon="7.02641"><ele>420.2</ele><time>2016-08-06T19:07:28Z</time></trkpt>
<trkpt lat="46.18949" lon="7.02631"><ele>420.2</ele><time>2016-08-06T19:07:30Z</time></trkpt>
<trkpt lat="46.18959" lon="7.02622"><ele>420</ele><time>2016-08-06T19:07:32Z</time></trkpt>
<trkpt lat="46.18964" lon="7.02618"><ele>420</ele><time>2016-08-06T19:07:33Z</time></trkpt>
<trkpt lat="46.18969" lon="7.02614"><ele>420</ele><time>2016-08-06T19:07:34Z</time></trkpt>
<trkpt lat="46.18984" lon="7.02602"><ele>419.8</ele><time>2016-08-06T19:07:37Z</time></trkpt>
<trkpt lat="46.18989" lon="7.02598"><ele>419.8</ele><time>2016-08-06T19:07:38Z</time></trkpt>
<trkpt lat="46.19004" lon="7.02586"><ele>419.6</ele><time>2016-08-06T19:07:41Z</time></trkpt>
<trkpt lat="46.19014" lon="7.02577"><ele>419.6</ele><time>2016-08-06T19:07:43Z</time></trkpt>
<trkpt lat="46.19023" lon="7.02568"><ele>419.4</ele><time>2016-08-06T19:07:45Z</time></trkpt>
<trkpt lat="46.19033" lon="7.02559"><ele>419.4</ele><time>2016-08-06T19:07:47Z</time></trkpt>
<trkpt lat="46.19039" lon="7.02555"><ele>419.4</ele><time>2016-08-06T19:07:48Z</time></trkpt>
<trkpt lat="46.1905" lon="7.02548"><ele>419.2</ele><time>2016-08-06T19:07:50Z</time></trkpt>
<trkpt lat="46.19066" lon="7.02537"><ele>419.2</ele><time>2016-08-06T19:07:53Z</time></trkpt>
<trkpt lat="46.19077" lon="7.0253"><ele>419</ele><time>2016-08-06T19:07:55Z</time></trkpt>
<trkpt lat="46.19089" lon="7.02524"><ele>419</ele><time>2016-08-06T19:07:57Z</time></trkpt>
<trkpt lat="46.19095" lon="7.02521"><ele>418.8</ele><time>2016-08-06T19:07:58Z</time></trkpt>
<trkpt lat="46.19107" lon="7.02514"><ele>418.8</ele><time>2016-08-06T19:08:00Z</time></trkpt>
<trkpt lat="46.19119" lon="7.02508"><ele>418.8</ele><time>2016-08-06T19:08:02Z</time></trkpt>
<trkpt lat="46.19125" lon="7.02505"><ele>418.6</ele><time>2016-08-06T19:08:03Z</time></trkpt>
<trkpt lat="46.19131" lon="7.02501"><ele>418.6</ele><time>2016-08-06T19:08:04Z</time></trkpt>
<trkpt lat="46.1915" lon="7.0249"><ele>418.4</ele><time>2016-08-06T19:08:07Z</time></trkpt>
<trkpt lat="46.19156" lon="7.02486"><ele>418.4</ele><time>2016-08-06T19:08:08Z</time></trkpt>
<trkpt lat="46.19169" lon="7.02479"><ele>418.4</ele><time>2016-08-06T19:08:10Z</time></trkpt>
<trkpt lat="46.19182" lon="7.02472"><ele>418.2</ele><time>2016-08-06T19:08:12Z</time></trkpt>
<trkpt lat="46.19196" lon="7.02464"><ele>418.2</ele><time>2016-08-06T19:08:14Z</time></trkpt>
<trkpt lat="46.19216" lon="7.02453"><ele>418</ele><time>2016-08-06T19:08:17Z</time></trkpt>
<trkpt lat="46.19222" lon="7.0245"><ele>418</ele><time>2016-08-06T19:08:18Z</time></trkpt>
<trkpt lat="46.19235" lon="7.02444"><ele>418</ele><time>2016-08-06T19:08:20Z</time></trkpt>
<trkpt lat="46.19248" lon="7.02437"><ele>417.8</ele><time>2016-08-06T19:08:22Z</time></trkpt>
<trkpt lat="46.19255" lon="7.02434"><ele>417.4</ele><time>2016-08-06T19:08:23Z</time></trkpt>
<trkpt lat="46.19261" lon="7.02431"><ele>417</ele><time>2016-08-06T19:08:24Z</time></trkpt>
<trkpt lat="46.19267" lon="7.02428"><ele>416.6</ele><time>2016-08-06T19:08:25Z</time></trkpt>
<trkpt lat="46.19278" lon="7.02423"><ele>415.8</ele><time>2016-08-06T19:08:27Z</time></trkpt>
<trkpt lat="46.19284" lon="7.0242"><ele>415.6</ele><time>2016-08-06T19:08:28Z</time></trkpt>
<trkpt lat="46.19295" lon="7.02414"><ele>415.6</ele><time>2016-08-06T19:08:30Z</time></trkpt>
<trkpt lat="46.19307" lon="7.02408"><ele>415.8</ele><time>2016-08-06T19:08:32Z</time></trkpt>
<trkpt lat="46.19318" lon="7.02402"><ele>415.8</ele><time>2016-08-06T19:08:34Z</time></trkpt>
<trkpt lat="46.1933" lon="7.02396"><ele>416</ele><time>2016-08-06T19:08:36Z</time></trkpt>
<trkpt lat="46.19342" lon="7.02389"><ele>416</ele><time>2016-08-06T19:08:38Z</time></trkpt>
<trkpt lat="46.19354" lon="7.02382"><ele>416.2</ele><time>2016-08-06T19:08:40Z</time></trkpt>
<trkpt lat="46.19366" lon="7.02375"><ele>416.2</ele><time>2016-08-06T19:08:42Z</time></trkpt>
<trkpt lat="46.19379" lon="7.02367"><ele>416.4</ele><time>2016-08-06T19:08:44Z</time></trkpt>
<trkpt lat="46.19391" lon="7.02359"><ele>416</ele><time>2016-08-06T19:08:46Z</time></trkpt>
<trkpt lat="46.19403" lon="7.02352"><ele>415.8</ele><time>2016-08-06T19:08:48Z</time></trkpt>
<trkpt lat="46.19409" lon="7.02347"><ele>415.6</ele><time>2016-08-06T19:08:49Z</time></trkpt>
<trkpt lat="46.19415" lon="7.02342"><ele>415.4</ele><time>2016-08-06T19:08:50Z</time></trkpt>
<trkpt lat="46.19428" lon="7.02332"><ele>415.2</ele><time>2016-08-06T19:08:52Z</time></trkpt>
<trkpt lat="46.19441" lon="7.02323"><ele>415</ele><time>2016-08-06T19:08:54Z</time></trkpt>
<trkpt lat="46.19454" lon="7.02312"><ele>414.6</ele><time>2016-08-06T19:08:56Z</time></trkpt>
<trkpt lat="46.19469" lon="7.02298"><ele>414.4</ele><time>2016-08-06T19:08:58Z</time></trkpt>
<trkpt lat="46.19483" lon="7.02285"><ele>414</ele><time>2016-08-06T19:09:00Z</time></trkpt>
<trkpt lat="46.19498" lon="7.02271"><ele>413.8</ele><time>2016-08-06T19:09:02Z</time></trkpt>
<trkpt lat="46.19513" lon="7.02256"><ele>413.4</ele><time>2016-08-06T19:09:04Z</time></trkpt>
<trkpt lat="46.19529" lon="7.02242"><ele>413.2</ele><time>2016-08-06T19:09:06Z</time></trkpt>
<trkpt lat="46.19537" lon="7.02237"><ele>413</ele><time>2016-08-06T19:09:07Z</time></trkpt>
<trkpt lat="46.19544" lon="7.02229"><ele>413</ele><time>2016-08-06T19:09:08Z</time></trkpt>
<trkpt lat="46.19559" lon="7.02214"><ele>412.6</ele><time>2016-08-06T19:09:10Z</time></trkpt>
<trkpt lat="46.19573" lon="7.022"><ele>412.4</ele><time>2016-08-06T19:09:12Z</time></trkpt>
<trkpt lat="46.19588" lon="7.02187"><ele>412</ele><time>2016-08-06T19:09:14Z</time></trkpt>
<trkpt lat="46.19603" lon="7.02175"><ele>411.8</ele><time>2016-08-06T19:09:16Z</time></trkpt>
<trkpt lat="46.19618" lon="7.02163"><ele>411.4</ele><time>2016-08-06T19:09:18Z</time></trkpt>
<trkpt lat="46.19633" lon="7.02149"><ele>411.2</ele><time>2016-08-06T19:09:20Z</time></trkpt>
<trkpt lat="46.19648" lon="7.02136"><ele>410.8</ele><time>2016-08-06T19:09:22Z</time></trkpt>
<trkpt lat="46.19663" lon="7.02122"><ele>410.4</ele><time>2016-08-06T19:09:24Z</time></trkpt>
<trkpt lat="46.19678" lon="7.02106"><ele>409.8</ele><time>2016-08-06T19:09:26Z</time></trkpt>
<trkpt lat="46.19692" lon="7.0209"><ele>409.4</ele><time>2016-08-06T19:09:28Z</time></trkpt>
<trkpt lat="46.19699" lon="7.02083"><ele>409</ele><time>2016-08-06T19:09:29Z</time></trkpt>
<trkpt lat="46.19707" lon="7.02076"><ele>408.6</ele><time>2016-08-06T19:09:30Z</time></trkpt>
<trkpt lat="46.1973" lon="7.02057"><ele>407.6</ele><time>2016-08-06T19:09:33Z</time></trkpt>
<trkpt lat="46.19737" lon="7.0205"><ele>407.4</ele><time>2016-08-06T19:09:34Z</time></trkpt>
<trkpt lat="46.19745" lon="7.02044"><ele>407</ele><time>2016-08-06T19:09:35Z</time></trkpt>
<trkpt lat="46.19761" lon="7.02032"><ele>406.4</ele><time>2016-08-06T19:09:37Z</time></trkpt>
<trkpt lat="46.19769" lon="7.02024"><ele>406</ele><time>2016-08-06T19:09:38Z</time></trkpt>
<trkpt lat="46.19783" lon="7.02009"><ele>405.4</ele><time>2016-08-06T19:09:40Z</time></trkpt>
<trkpt lat="46.19791" lon="7.02001"><ele>405</ele><time>2016-08-06T19:09:41Z</time></trkpt>
<trkpt lat="46.19798" lon="7.01994"><ele>404.6</ele><time>2016-08-06T19:09:42Z</time></trkpt>
<trkpt lat="46.19807" lon="7.01985"><ele>404.2</ele><time>2016-08-06T19:09:43Z</time></trkpt>
<trkpt lat="46.19816" lon="7.01977"><ele>403.8</ele><time>2016-08-06T19:09:44Z</time></trkpt>
<trkpt lat="46.19843" lon="7.01952"><ele>402.8</ele><time>2016-08-06T19:09:47Z</time></trkpt>
<trkpt lat="46.19853" lon="7.01944"><ele>402.4</ele><time>2016-08-06T19:09:48Z</time></trkpt>
<trkpt lat="46.19883" lon="7.01919"><ele>401.2</ele><time>2016-08-06T19:09:51Z</time></trkpt>
<trkpt lat="46.19903" lon="7.01902"><ele>399.6</ele><time>2016-08-06T19:09:53Z</time></trkpt>
<trkpt lat="46.19913" lon="7.01894"><ele>399</ele><time>2016-08-06T19:09:54Z</time></trkpt>
<trkpt lat="46.19922" lon="7.01884"><ele>398.2</ele><time>2016-08-06T19:09:55Z</time></trkpt>
<trkpt lat="46.19937" lon="7.01856"><ele>396.6</ele><time>2016-08-06T19:09:57Z</time></trkpt>
<trkpt lat="46.19943" lon="7.01842"><ele>395.6</ele><time>2016-08-06T19:09:58Z</time></trkpt>
<trkpt lat="46.19952" lon="7.01813"><ele>393.8</ele><time>2016-08-06T19:10:00Z</time></trkpt>
<trkpt lat="46.19955" lon="7.01799"><ele>392.8</ele><time>2016-08-06T19:10:01Z</time></trkpt>
<trkpt lat="46.19957" lon="7.01784"><ele>392.2</ele><time>2016-08-06T19:10:02Z</time></trkpt>
<trkpt lat="46.1996" lon="7.0177"><ele>392</ele><time>2016-08-06T19:10:03Z</time></trkpt>
<trkpt lat="46.19965" lon="7.01741"><ele>391.6</ele><time>2016-08-06T19:10:05Z</time></trkpt>
<trkpt lat="46.19971" lon="7.01714"><ele>391.2</ele><time>2016-08-06T19:10:07Z</time></trkpt>
<trkpt lat="46.19974" lon="7.017"><ele>390.8</ele><time>2016-08-06T19:10:08Z</time></trkpt>
<trkpt lat="46.1998" lon="7.01672"><ele>390.4</ele><time>2016-08-06T19:10:10Z</time></trkpt>
<trkpt lat="46.19986" lon="7.01645"><ele>390</ele><time>2016-08-06T19:10:12Z</time></trkpt>
<trkpt lat="46.19992" lon="7.01617"><ele>389.6</ele><time>2016-08-06T19:10:14Z</time></trkpt>
<trkpt lat="46.19995" lon="7.01604"><ele>389.4</ele><time>2016-08-06T19:10:15Z</time></trkpt>
<trkpt lat="46.2" lon="7.01591"><ele>389.2</ele><time>2016-08-06T19:10:16Z</time></trkpt>
<trkpt lat="46.20008" lon="7.01578"><ele>389</ele><time>2016-08-06T19:10:17Z</time></trkpt>
<trkpt lat="46.20011" lon="7.01565"><ele>388.8</ele><time>2016-08-06T19:10:18Z</time></trkpt>
<trkpt lat="46.20011" lon="7.01553"><ele>388.6</ele><time>2016-08-06T19:10:19Z</time></trkpt>
<trkpt lat="46.20014" lon="7.0154"><ele>388.4</ele><time>2016-08-06T19:10:20Z</time></trkpt>
<trkpt lat="46.20019" lon="7.01513"><ele>388</ele><time>2016-08-06T19:10:22Z</time></trkpt>
<trkpt lat="46.20024" lon="7.01487"><ele>387.4</ele><time>2016-08-06T19:10:24Z</time></trkpt>
<trkpt lat="46.20027" lon="7.01474"><ele>387.2</ele><time>2016-08-06T19:10:25Z</time></trkpt>
<trkpt lat="46.20036" lon="7.01449"><ele>386.6</ele><time>2016-08-06T19:10:27Z</time></trkpt>
<trkpt lat="46.2004" lon="7.01437"><ele>386.2</ele><time>2016-08-06T19:10:28Z</time></trkpt>
<trkpt lat="46.20048" lon="7.01413"><ele>385.6</ele><time>2016-08-06T19:10:30Z</time></trkpt>
<trkpt lat="46.20058" lon="7.0139"><ele>385</ele><time>2016-08-06T19:10:32Z</time></trkpt>
<trkpt lat="46.20067" lon="7.01366"><ele>384.4</ele><time>2016-08-06T19:10:34Z</time></trkpt>
<trkpt lat="46.20071" lon="7.01355"><ele>384.2</ele><time>2016-08-06T19:10:35Z</time></trkpt>
<trkpt lat="46.2008" lon="7.01334"><ele>383.6</ele><time>2016-08-06T19:10:37Z</time></trkpt>
<trkpt lat="46.20085" lon="7.01324"><ele>383.2</ele><time>2016-08-06T19:10:38Z</time></trkpt>
<trkpt lat="46.20098" lon="7.01294"><ele>382.2</ele><time>2016-08-06T19:10:41Z</time></trkpt>
<trkpt lat="46.20102" lon="7.01286"><ele>381.6</ele><time>2016-08-06T19:10:42Z</time></trkpt>
<trkpt lat="46.20114" lon="7.01259"><ele>380</ele><time>2016-08-06T19:10:45Z</time></trkpt>
<trkpt lat="46.20122" lon="7.01242"><ele>378.8</ele><time>2016-08-06T19:10:47Z</time></trkpt>
<trkpt lat="46.20126" lon="7.01233"><ele>378.6</ele><time>2016-08-06T19:10:48Z</time></trkpt>
<trkpt lat="46.20137" lon="7.01216"><ele>378</ele><time>2016-08-06T19:10:50Z</time></trkpt>
<trkpt lat="46.20147" lon="7.01198"><ele>377.4</ele><time>2016-08-06T19:10:52Z</time></trkpt>
<trkpt lat="46.20158" lon="7.0118"><ele>376.8</ele><time>2016-08-06T19:10:54Z</time></trkpt>
<trkpt lat="46.20174" lon="7.01153"><ele>376</ele><time>2016-08-06T19:10:57Z</time></trkpt>
<trkpt lat="46.20179" lon="7.01143"><ele>375.8</ele><time>2016-08-06T19:10:58Z</time></trkpt>
<trkpt lat="46.2019" lon="7.01125"><ele>375.6</ele><time>2016-08-06T19:11:00Z</time></trkpt>
<trkpt lat="46.20202" lon="7.01109"><ele>375.4</ele><time>2016-08-06T19:11:02Z</time></trkpt>
<trkpt lat="46.20214" lon="7.01092"><ele>375.4</ele><time>2016-08-06T19:11:04Z</time></trkpt>
<trkpt lat="46.20226" lon="7.01076"><ele>375.2</ele><time>2016-08-06T19:11:06Z</time></trkpt>
<trkpt lat="46.20232" lon="7.01068"><ele>375</ele><time>2016-08-06T19:11:07Z</time></trkpt>
<trkpt lat="46.20239" lon="7.0106"><ele>375</ele><time>2016-08-06T19:11:08Z</time></trkpt>
<trkpt lat="46.20252" lon="7.01045"><ele>374.8</ele><time>2016-08-06T19:11:10Z</time></trkpt>
<trkpt lat="46.20266" lon="7.0103"><ele>374.6</ele><time>2016-08-06T19:11:12Z</time></trkpt>
<trkpt lat="46.20281" lon="7.01015"><ele>374.4</ele><time>2016-08-06T19:11:14Z</time></trkpt>
<trkpt lat="46.20296" lon="7.01"><ele>374.2</ele><time>2016-08-06T19:11:16Z</time></trkpt>
<trkpt lat="46.20303" lon="7.00993"><ele>374</ele><time>2016-08-06T19:11:17Z</time></trkpt>
<trkpt lat="46.20311" lon="7.00987"><ele>373.8</ele><time>2016-08-06T19:11:18Z</time></trkpt>
<trkpt lat="46.20326" lon="7.00975"><ele>373.6</ele><time>2016-08-06T19:11:20Z</time></trkpt>
<trkpt lat="46.20342" lon="7.00963"><ele>373.4</ele><time>2016-08-06T19:11:22Z</time></trkpt>
<trkpt lat="46.20349" lon="7.00957"><ele>373.4</ele><time>2016-08-06T19:11:23Z</time></trkpt>
<trkpt lat="46.20357" lon="7.00951"><ele>373.2</ele><time>2016-08-06T19:11:24Z</time></trkpt>
<trkpt lat="46.20372" lon="7.0094"><ele>373</ele><time>2016-08-06T19:11:26Z</time></trkpt>
<trkpt lat="46.20387" lon="7.00929"><ele>372.8</ele><time>2016-08-06T19:11:28Z</time></trkpt>
<trkpt lat="46.20394" lon="7.00923"><ele>372.8</ele><time>2016-08-06T19:11:29Z</time></trkpt>
<trkpt lat="46.20402" lon="7.00917"><ele>372.6</ele><time>2016-08-06T19:11:30Z</time></trkpt>
<trkpt lat="46.20416" lon="7.00904"><ele>372.4</ele><time>2016-08-06T19:11:32Z</time></trkpt>
<trkpt lat="46.20431" lon="7.00892"><ele>372.2</ele><time>2016-08-06T19:11:34Z</time></trkpt>
<trkpt lat="46.20438" lon="7.00886"><ele>372</ele><time>2016-08-06T19:11:35Z</time></trkpt>
<trkpt lat="46.20445" lon="7.0088"><ele>372</ele><time>2016-08-06T19:11:36Z</time></trkpt>
<trkpt lat="46.20459" lon="7.00868"><ele>371.8</ele><time>2016-08-06T19:11:38Z</time></trkpt>
<trkpt lat="46.20474" lon="7.00857"><ele>371.8</ele><time>2016-08-06T19:11:40Z</time></trkpt>
<trkpt lat="46.2048" lon="7.00851"><ele>371.8</ele><time>2016-08-06T19:11:41Z</time></trkpt>
<trkpt lat="46.20487" lon="7.00845"><ele>371.8</ele><time>2016-08-06T19:11:42Z</time></trkpt>
<trkpt lat="46.205" lon="7.00833"><ele>371.8</ele><time>2016-08-06T19:11:44Z</time></trkpt>
<trkpt lat="46.20514" lon="7.00822"><ele>371.8</ele><time>2016-08-06T19:11:46Z</time></trkpt>
<trkpt lat="46.2052" lon="7.00816"><ele>372</ele><time>2016-08-06T19:11:47Z</time></trkpt>
<trkpt lat="46.20527" lon="7.00812"><ele>372</ele><time>2016-08-06T19:11:48Z</time></trkpt>
<trkpt lat="46.2054" lon="7.00803"><ele>372</ele><time>2016-08-06T19:11:50Z</time></trkpt>
<trkpt lat="46.20554" lon="7.00794"><ele>372</ele><time>2016-08-06T19:11:52Z</time></trkpt>
<trkpt lat="46.20567" lon="7.00785"><ele>372.2</ele><time>2016-08-06T19:11:54Z</time></trkpt>
<trkpt lat="46.20577" lon="7.00776"><ele>372.2</ele><time>2016-08-06T19:11:56Z</time></trkpt>
<trkpt lat="46.20588" lon="7.00767"><ele>372.2</ele><time>2016-08-06T19:11:58Z</time></trkpt>
<trkpt lat="46.20599" lon="7.00758"><ele>372.4</ele><time>2016-08-06T19:12:00Z</time></trkpt>
<trkpt lat="46.20609" lon="7.0075"><ele>372.4</ele><time>2016-08-06T19:12:02Z</time></trkpt>
<trkpt lat="46.20618" lon="7.00743"><ele>372.6</ele><time>2016-08-06T19:12:04Z</time></trkpt>
<trkpt lat="46.20628" lon="7.00736"><ele>372.6</ele><time>2016-08-06T19:12:06Z</time></trkpt>
<trkpt lat="46.20637" lon="7.0073"><ele>372.6</ele><time>2016-08-06T19:12:08Z</time></trkpt>
<trkpt lat="46.20646" lon="7.00723"><ele>372.8</ele><time>2016-08-06T19:12:10Z</time></trkpt>
<trkpt lat="46.20651" lon="7.0072"><ele>372.8</ele><time>2016-08-06T19:12:11Z</time></trkpt>
<trkpt lat="46.20655" lon="7.00716"><ele>372.8</ele><time>2016-08-06T19:12:12Z</time></trkpt>
<trkpt lat="46.20664" lon="7.0071"><ele>372.8</ele><time>2016-08-06T19:12:14Z</time></trkpt>
<trkpt lat="46.20673" lon="7.00703"><ele>373</ele><time>2016-08-06T19:12:16Z</time></trkpt>
<trkpt lat="46.20682" lon="7.00697"><ele>373</ele><time>2016-08-06T19:12:18Z</time></trkpt>
<trkpt lat="46.2069" lon="7.0069"><ele>373</ele><time>2016-08-06T19:12:20Z</time></trkpt>
<trkpt lat="46.20699" lon="7.00684"><ele>373.2</ele><time>2016-08-06T19:12:22Z</time></trkpt>
<trkpt lat="46.20707" lon="7.00678"><ele>373.2</ele><time>2016-08-06T19:12:24Z</time></trkpt>
<trkpt lat="46.20711" lon="7.00674"><ele>373.2</ele><time>2016-08-06T19:12:25Z</time></trkpt>
<trkpt lat="46.20715" lon="7.00671"><ele>373.2</ele><time>2016-08-06T19:12:26Z</time></trkpt>
<trkpt lat="46.20723" lon="7.00665"><ele>373</ele><time>2016-08-06T19:12:28Z</time></trkpt>
<trkpt lat="46.20731" lon="7.00659"><ele>372.8</ele><time>2016-08-06T19:12:30Z</time></trkpt>
<trkpt lat="46.20735" lon="7.00655"><ele>372.8</ele><time>2016-08-06T19:12:31Z</time></trkpt>
<trkpt lat="46.20739" lon="7.00652"><ele>372.8</ele><time>2016-08-06T19:12:32Z</time></trkpt>
<trkpt lat="46.20747" lon="7.00645"><ele>372.6</ele><time>2016-08-06T19:12:34Z</time></trkpt>
<trkpt lat="46.20756" lon="7.00638"><ele>372.6</ele><time>2016-08-06T19:12:36Z</time></trkpt>
<trkpt lat="46.20764" lon="7.00631"><ele>372.6</ele><time>2016-08-06T19:12:38Z</time></trkpt>
<trkpt lat="46.20772" lon="7.00624"><ele>372.4</ele><time>2016-08-06T19:12:40Z</time></trkpt>
<trkpt lat="46.2078" lon="7.00616"><ele>372.4</ele><time>2016-08-06T19:12:42Z</time></trkpt>
<trkpt lat="46.20789" lon="7.00608"><ele>372.4</ele><time>2016-08-06T19:12:44Z</time></trkpt>
<trkpt lat="46.20797" lon="7.00599"><ele>372.2</ele><time>2016-08-06T19:12:46Z</time></trkpt>
<trkpt lat="46.20806" lon="7.00591"><ele>372.2</ele><time>2016-08-06T19:12:48Z</time></trkpt>
<trkpt lat="46.2081" lon="7.00588"><ele>372.2</ele><time>2016-08-06T19:12:49Z</time></trkpt>
<trkpt lat="46.20815" lon="7.00586"><ele>372</ele><time>2016-08-06T19:12:50Z</time></trkpt>
<trkpt lat="46.20824" lon="7.00584"><ele>372</ele><time>2016-08-06T19:12:52Z</time></trkpt>
<trkpt lat="46.20833" lon="7.00582"><ele>372</ele><time>2016-08-06T19:12:54Z</time></trkpt>
<trkpt lat="46.20842" lon="7.00586"><ele>371.8</ele><time>2016-08-06T19:12:56Z</time></trkpt>
<trkpt lat="46.20852" lon="7.00599"><ele>371.8</ele><time>2016-08-06T19:12:58Z</time></trkpt>
<trkpt lat="46.20853" lon="7.00607"><ele>371.8</ele><time>2016-08-06T19:12:59Z</time></trkpt>
<trkpt lat="46.20854" lon="7.00612"><ele>371.8</ele><time>2016-08-06T19:13:00Z</time></trkpt>
<trkpt lat="46.20856" lon="7.00622"><ele>371.6</ele><time>2016-08-06T19:13:02Z</time></trkpt>
<trkpt lat="46.20857" lon="7.00632"><ele>371.6</ele><time>2016-08-06T19:13:04Z</time></trkpt>
<trkpt lat="46.20855" lon="7.00644"><ele>371.4</ele><time>2016-08-06T19:13:06Z</time></trkpt>
<trkpt lat="46.20853" lon="7.00657"><ele>371.4</ele><time>2016-08-06T19:13:08Z</time></trkpt>
<trkpt lat="46.20852" lon="7.00663"><ele>371.4</ele><time>2016-08-06T19:13:09Z</time></trkpt>
<trkpt lat="46.20855" lon="7.00668"><ele>371.4</ele><time>2016-08-06T19:13:10Z</time></trkpt>
<trkpt lat="46.2086" lon="7.00677"><ele>371.2</ele><time>2016-08-06T19:13:12Z</time></trkpt>
<trkpt lat="46.20868" lon="7.00683"><ele>371.2</ele><time>2016-08-06T19:13:14Z</time></trkpt>
<trkpt lat="46.20875" lon="7.00691"><ele>371</ele><time>2016-08-06T19:13:16Z</time></trkpt>
<trkpt lat="46.20883" lon="7.00707"><ele>371</ele><time>2016-08-06T19:13:18Z</time></trkpt>
<trkpt lat="46.20891" lon="7.00724"><ele>371</ele><time>2016-08-06T19:13:20Z</time></trkpt>
<trkpt lat="46.20898" lon="7.00741"><ele>370.8</ele><time>2016-08-06T19:13:22Z</time></trkpt>
<trkpt lat="46.20905" lon="7.00764"><ele>370.8</ele><time>2016-08-06T19:13:24Z</time></trkpt>
<trkpt lat="46.20912" lon="7.00786"><ele>370.8</ele><time>2016-08-06T19:13:26Z</time></trkpt>
<trkpt lat="46.20916" lon="7.00796"><ele>370.6</ele><time>2016-08-06T19:13:27Z</time></trkpt>
<trkpt lat="46.20922" lon="7.00802"><ele>370.6</ele><time>2016-08-06T19:13:28Z</time></trkpt>
<trkpt lat="46.20934" lon="7.00813"><ele>370.6</ele><time>2016-08-06T19:13:30Z</time></trkpt>
<trkpt lat="46.20946" lon="7.00814"><ele>370.4</ele><time>2016-08-06T19:13:32Z</time></trkpt>
<trkpt lat="46.20958" lon="7.00814"><ele>370.4</ele><time>2016-08-06T19:13:34Z</time></trkpt>
<trkpt lat="46.2097" lon="7.00814"><ele>370.4</ele><time>2016-08-06T19:13:36Z</time></trkpt>
<trkpt lat="46.20983" lon="7.00811"><ele>370.2</ele><time>2016-08-06T19:13:38Z</time></trkpt>
<trkpt lat="46.20997" lon="7.00808"><ele>370.2</ele><time>2016-08-06T19:13:40Z</time></trkpt>
<trkpt lat="46.2101" lon="7.00805"><ele>370.2</ele><time>2016-08-06T19:13:42Z</time></trkpt>
<trkpt lat="46.21016" lon="7.00803"><ele>370</ele><time>2016-08-06T19:13:43Z</time></trkpt>
<trkpt lat="46.21024" lon="7.00801"><ele>370</ele><time>2016-08-06T19:13:44Z</time></trkpt>
<trkpt lat="46.21038" lon="7.00797"><ele>370</ele><time>2016-08-06T19:13:46Z</time></trkpt>
<trkpt lat="46.21053" lon="7.00792"><ele>369.8</ele><time>2016-08-06T19:13:48Z</time></trkpt>
<trkpt lat="46.21067" lon="7.00787"><ele>369.8</ele><time>2016-08-06T19:13:50Z</time></trkpt>
<trkpt lat="46.21082" lon="7.00781"><ele>369.8</ele><time>2016-08-06T19:13:52Z</time></trkpt>
<trkpt lat="46.21097" lon="7.00774"><ele>369.6</ele><time>2016-08-06T19:13:54Z</time></trkpt>
<trkpt lat="46.21111" lon="7.00768"><ele>369.2</ele><time>2016-08-06T19:13:56Z</time></trkpt>
<trkpt lat="46.21127" lon="7.00759"><ele>369</ele><time>2016-08-06T19:13:58Z</time></trkpt>
<trkpt lat="46.21142" lon="7.0075"><ele>368.6</ele><time>2016-08-06T19:14:00Z</time></trkpt>
<trkpt lat="46.21157" lon="7.00742"><ele>367.8</ele><time>2016-08-06T19:14:02Z</time></trkpt>
<trkpt lat="46.21173" lon="7.00739"><ele>367.2</ele><time>2016-08-06T19:14:04Z</time></trkpt>
<trkpt lat="46.21188" lon="7.00736"><ele>366.6</ele><time>2016-08-06T19:14:06Z</time></trkpt>
<trkpt lat="46.21204" lon="7.00733"><ele>366</ele><time>2016-08-06T19:14:08Z</time></trkpt>
<trkpt lat="46.2122" lon="7.00731"><ele>365.2</ele><time>2016-08-06T19:14:10Z</time></trkpt>
<trkpt lat="46.21228" lon="7.0073"><ele>365</ele><time>2016-08-06T19:14:11Z</time></trkpt>
<trkpt lat="46.21237" lon="7.00729"><ele>365</ele><time>2016-08-06T19:14:12Z</time></trkpt>
<trkpt lat="46.21245" lon="7.00728"><ele>364.8</ele><time>2016-08-06T19:14:13Z</time></trkpt>
<trkpt lat="46.21252" lon="7.00728"><ele>364.8</ele><time>2016-08-06T19:14:14Z</time></trkpt>
<trkpt lat="46.21268" lon="7.00728"><ele>364.6</ele><time>2016-08-06T19:14:16Z</time></trkpt>
<trkpt lat="46.21275" lon="7.00727"><ele>364.4</ele><time>2016-08-06T19:14:17Z</time></trkpt>
<trkpt lat="46.21283" lon="7.00722"><ele>364.4</ele><time>2016-08-06T19:14:18Z</time></trkpt>
<trkpt lat="46.21289" lon="7.00717"><ele>364.2</ele><time>2016-08-06T19:14:19Z</time></trkpt>
<trkpt lat="46.21292" lon="7.00709"><ele>364.2</ele><time>2016-08-06T19:14:20Z</time></trkpt>
<trkpt lat="46.21293" lon="7.00691"><ele>363.8</ele><time>2016-08-06T19:14:22Z</time></trkpt>
<trkpt lat="46.21293" lon="7.00674"><ele>363.6</ele><time>2016-08-06T19:14:24Z</time></trkpt>
<trkpt lat="46.21294" lon="7.00656"><ele>363.2</ele><time>2016-08-06T19:14:26Z</time></trkpt>
<trkpt lat="46.21294" lon="7.00638"><ele>362.8</ele><time>2016-08-06T19:14:28Z</time></trkpt>
<trkpt lat="46.21296" lon="7.00623"><ele>362.6</ele><time>2016-08-06T19:14:30Z</time></trkpt>
<trkpt lat="46.21298" lon="7.00608"><ele>362.2</ele><time>2016-08-06T19:14:32Z</time></trkpt>
<trkpt lat="46.21301" lon="7.00593"><ele>362</ele><time>2016-08-06T19:14:34Z</time></trkpt>
<trkpt lat="46.21306" lon="7.00586"><ele>362</ele><time>2016-08-06T19:14:35Z</time></trkpt>
<trkpt lat="46.21311" lon="7.00585"><ele>362.2</ele><time>2016-08-06T19:14:36Z</time></trkpt>
<trkpt lat="46.21322" lon="7.00582"><ele>362.4</ele><time>2016-08-06T19:14:38Z</time></trkpt>
<trkpt lat="46.21332" lon="7.00578"><ele>362.6</ele><time>2016-08-06T19:14:40Z</time></trkpt>
<trkpt lat="46.21342" lon="7.00575"><ele>362.8</ele><time>2016-08-06T19:14:42Z</time></trkpt>
<trkpt lat="46.21353" lon="7.00572"><ele>363</ele><time>2016-08-06T19:14:44Z</time></trkpt>
<trkpt lat="46.21365" lon="7.00566"><ele>363.2</ele><time>2016-08-06T19:14:46Z</time></trkpt>
<trkpt lat="46.21378" lon="7.00561"><ele>363.4</ele><time>2016-08-06T19:14:48Z</time></trkpt>
<trkpt lat="46.2139" lon="7.00556"><ele>363.6</ele><time>2016-08-06T19:14:50Z</time></trkpt>
<trkpt lat="46.21396" lon="7.00553"><ele>363.8</ele><time>2016-08-06T19:14:51Z</time></trkpt>
<trkpt lat="46.21401" lon="7.00548"><ele>363.8</ele><time>2016-08-06T19:14:52Z</time></trkpt>
<trkpt lat="46.2141" lon="7.0054"><ele>364</ele><time>2016-08-06T19:14:54Z</time></trkpt>
<trkpt lat="46.2142" lon="7.00532"><ele>364.2</ele><time>2016-08-06T19:14:56Z</time></trkpt>
<trkpt lat="46.21429" lon="7.00523"><ele>364.6</ele><time>2016-08-06T19:14:58Z</time></trkpt>
<trkpt lat="46.21438" lon="7.00515"><ele>364.8</ele><time>2016-08-06T19:15:00Z</time></trkpt>
<trkpt lat="46.21446" lon="7.0051"><ele>365</ele><time>2016-08-06T19:15:02Z</time></trkpt>
<trkpt lat="46.21454" lon="7.00504"><ele>365.2</ele><time>2016-08-06T19:15:04Z</time></trkpt>
<trkpt lat="46.21458" lon="7.00501"><ele>365.2</ele><time>2016-08-06T19:15:05Z</time></trkpt>
<trkpt lat="46.21462" lon="7.00499"><ele>365.4</ele><time>2016-08-06T19:15:06Z</time></trkpt>
<trkpt lat="46.21469" lon="7.00494"><ele>365.4</ele><time>2016-08-06T19:15:08Z</time></trkpt>
<trkpt lat="46.21475" lon="7.00489"><ele>365.6</ele><time>2016-08-06T19:15:10Z</time></trkpt>
<trkpt lat="46.21482" lon="7.00483"><ele>365.6</ele><time>2016-08-06T19:15:12Z</time></trkpt>
<trkpt lat="46.21489" lon="7.00479"><ele>365.8</ele><time>2016-08-06T19:15:14Z</time></trkpt>
<trkpt lat="46.21496" lon="7.00477"><ele>365.8</ele><time>2016-08-06T19:15:16Z</time></trkpt>
<trkpt lat="46.21503" lon="7.00475"><ele>366</ele><time>2016-08-06T19:15:18Z</time></trkpt>
<trkpt lat="46.2151" lon="7.00473"><ele>366</ele><time>2016-08-06T19:15:20Z</time></trkpt>
<trkpt lat="46.21517" lon="7.0047"><ele>366.2</ele><time>2016-08-06T19:15:22Z</time></trkpt>
<trkpt lat="46.21524" lon="7.00468"><ele>366.2</ele><time>2016-08-06T19:15:24Z</time></trkpt>
<trkpt lat="46.21535" lon="7.00465"><ele>366.2</ele><time>2016-08-06T19:15:27Z</time></trkpt>
<trkpt lat="46.21538" lon="7.00464"><ele>366.2</ele><time>2016-08-06T19:15:28Z</time></trkpt>
<trkpt lat="46.21546" lon="7.00463"><ele>366.4</ele><time>2016-08-06T19:15:30Z</time></trkpt>
<trkpt lat="46.21556" lon="7.0046"><ele>366.4</ele><time>2016-08-06T19:15:33Z</time></trkpt>
<trkpt lat="46.2156" lon="7.00459"><ele>366.4</ele><time>2016-08-06T19:15:34Z</time></trkpt>
<trkpt lat="46.2157" lon="7.00456"><ele>366.4</ele><time>2016-08-06T19:15:37Z</time></trkpt>
<trkpt lat="46.21574" lon="7.00456"><ele>366.4</ele><time>2016-08-06T19:15:38Z</time></trkpt>
<trkpt lat="46.21581" lon="7.00454"><ele>366.4</ele><time>2016-08-06T19:15:40Z</time></trkpt>
<trkpt lat="46.21589" lon="7.00453"><ele>366.4</ele><time>2016-08-06T19:15:42Z</time></trkpt>
<trkpt lat="46.21596" lon="7.00452"><ele>366.6</ele><time>2016-08-06T19:15:44Z</time></trkpt>
<trkpt lat="46.21608" lon="7.00451"><ele>366.6</ele><time>2016-08-06T19:15:47Z</time></trkpt>
<trkpt lat="46.21611" lon="7.0045"><ele>366.6</ele><time>2016-08-06T19:15:48Z</time></trkpt>
<trkpt lat="46.21619" lon="7.00449"><ele>366.6</ele><time>2016-08-06T19:15:50Z</time></trkpt>
<trkpt lat="46.21627" lon="7.00448"><ele>366.6</ele><time>2016-08-06T19:15:52Z</time></trkpt>
<trkpt lat="46.2163" lon="7.00448"><ele>366.6</ele><time>2016-08-06T19:15:53Z</time></trkpt>
<trkpt lat="46.21637" lon="7.00446"><ele>366.8</ele><time>2016-08-06T19:15:55Z</time></trkpt>
<trkpt lat="46.21641" lon="7.00445"><ele>366.8</ele><time>2016-08-06T19:15:56Z</time></trkpt>
<trkpt lat="46.21648" lon="7.00444"><ele>366.8</ele><time>2016-08-06T19:15:58Z</time></trkpt>
<trkpt lat="46.21656" lon="7.00442"><ele>366.8</ele><time>2016-08-06T19:16:00Z</time></trkpt>
<trkpt lat="46.21667" lon="7.0044"><ele>366.8</ele><time>2016-08-06T19:16:03Z</time></trkpt>
<trkpt lat="46.21674" lon="7.00439"><ele>366.8</ele><time>2016-08-06T19:16:05Z</time></trkpt>
<trkpt lat="46.2168" lon="7.00438"><ele>366.8</ele><time>2016-08-06T19:16:07Z</time></trkpt>
<trkpt lat="46.21683" lon="7.00437"><ele>367</ele><time>2016-08-06T19:16:08Z</time></trkpt>
<trkpt lat="46.21689" lon="7.00436"><ele>367</ele><time>2016-08-06T19:16:10Z</time></trkpt>
<trkpt lat="46.21695" lon="7.00434"><ele>367</ele><time>2016-08-06T19:16:12Z</time></trkpt>
<trkpt lat="46.21704" lon="7.00433"><ele>367</ele><time>2016-08-06T19:16:15Z</time></trkpt>
<trkpt lat="46.2171" lon="7.00435"><ele>367</ele><time>2016-08-06T19:16:17Z</time></trkpt>
<trkpt lat="46.21713" lon="7.00436"><ele>367</ele><time>2016-08-06T19:16:18Z</time></trkpt>
<trkpt lat="46.21721" lon="7.00439"><ele>367.2</ele><time>2016-08-06T19:16:21Z</time></trkpt>
<trkpt lat="46.21726" lon="7.00441"><ele>367.2</ele><time>2016-08-06T19:16:23Z</time></trkpt>
<trkpt lat="46.21729" lon="7.00443"><ele>367.2</ele><time>2016-08-06T19:16:24Z</time></trkpt>
<trkpt lat="46.21735" lon="7.00445"><ele>367.2</ele><time>2016-08-06T19:16:26Z</time></trkpt>
<trkpt lat="46.2174" lon="7.00447"><ele>367.2</ele><time>2016-08-06T19:16:28Z</time></trkpt>
<trkpt lat="46.21745" lon="7.00449"><ele>367.2</ele><time>2016-08-06T19:16:30Z</time></trkpt>
<trkpt lat="46.21748" lon="7.0045"><ele>367.2</ele><time>2016-08-06T19:16:31Z</time></trkpt>
<trkpt lat="46.21751" lon="7.0045"><ele>367.2</ele><time>2016-08-06T19:16:32Z</time></trkpt>
<trkpt lat="46.21757" lon="7.0045"><ele>367.4</ele><time>2016-08-06T19:16:34Z</time></trkpt>
<trkpt lat="46.21762" lon="7.0045"><ele>367.4</ele><time>2016-08-06T19:16:36Z</time></trkpt>
<trkpt lat="46.21768" lon="7.00449"><ele>367.4</ele><time>2016-08-06T19:16:38Z</time></trkpt>
<trkpt lat="46.21774" lon="7.00449"><ele>367.4</ele><time>2016-08-06T19:16:40Z</time></trkpt>
<trkpt lat="46.21779" lon="7.00449"><ele>367.4</ele><time>2016-08-06T19:16:42Z</time></trkpt>
<trkpt lat="46.21785" lon="7.00449"><ele>367.4</ele><time>2016-08-06T19:16:44Z</time></trkpt>
<trkpt lat="46.21791" lon="7.00449"><ele>367.6</ele><time>2016-08-06T19:16:46Z</time></trkpt>
<trkpt lat="46.21793" lon="7.00449"><ele>367.6</ele><time>2016-08-06T19:16:47Z</time></trkpt>
<trkpt lat="46.21796" lon="7.0045"><ele>367.6</ele><time>2016-08-06T19:16:48Z</time></trkpt>
<trkpt lat="46.21801" lon="7.0045"><ele>367.6</ele><time>2016-08-06T19:16:50Z</time></trkpt>
<trkpt lat="46.21806" lon="7.0045"><ele>367.6</ele><time>2016-08-06T19:16:52Z</time></trkpt>
<trkpt lat="46.21811" lon="7.00451"><ele>367.6</ele><time>2016-08-06T19:16:54Z</time></trkpt>
<trkpt lat="46.21816" lon="7.00451"><ele>367.6</ele><time>2016-08-06T19:16:56Z</time></trkpt>
<trkpt lat="46.21822" lon="7.00451"><ele>367.8</ele><time>2016-08-06T19:16:58Z</time></trkpt>
<trkpt lat="46.21827" lon="7.00452"><ele>367.8</ele><time>2016-08-06T19:17:00Z</time></trkpt>
<trkpt lat="46.21832" lon="7.00452"><ele>367.8</ele><time>2016-08-06T19:17:02Z</time></trkpt>
<trkpt lat="46.21837" lon="7.00453"><ele>367.8</ele><time>2016-08-06T19:17:04Z</time></trkpt>
<trkpt lat="46.2184" lon="7.00453"><ele>367.8</ele><time>2016-08-06T19:17:05Z</time></trkpt>
<trkpt lat="46.21843" lon="7.00453"><ele>367.8</ele><time>2016-08-06T19:17:06Z</time></trkpt>
<trkpt lat="46.21849" lon="7.00453"><ele>367.8</ele><time>2016-08-06T19:17:08Z</time></trkpt>
<trkpt lat="46.21856" lon="7.00453"><ele>367.8</ele><time>2016-08-06T19:17:10Z</time></trkpt>
<trkpt lat="46.21862" lon="7.00453"><ele>368</ele><time>2016-08-06T19:17:12Z</time></trkpt>
<trkpt lat="46.21868" lon="7.00453"><ele>368</ele><time>2016-08-06T19:17:14Z</time></trkpt>
<trkpt lat="46.21875" lon="7.00453"><ele>368</ele><time>2016-08-06T19:17:16Z</time></trkpt>
<trkpt lat="46.21881" lon="7.00453"><ele>368</ele><time>2016-08-06T19:17:18Z</time></trkpt>
<trkpt lat="46.21887" lon="7.00453"><ele>368</ele><time>2016-08-06T19:17:20Z</time></trkpt>
<trkpt lat="46.21896" lon="7.00452"><ele>368</ele><time>2016-08-06T19:17:22Z</time></trkpt>
<trkpt lat="46.21904" lon="7.0045"><ele>368.2</ele><time>2016-08-06T19:17:24Z</time></trkpt>
<trkpt lat="46.21916" lon="7.00448"><ele>368.2</ele><time>2016-08-06T19:17:27Z</time></trkpt>
<trkpt lat="46.2192" lon="7.00448"><ele>368.2</ele><time>2016-08-06T19:17:28Z</time></trkpt>
<trkpt lat="46.21929" lon="7.00446"><ele>368.2</ele><time>2016-08-06T19:17:30Z</time></trkpt>
<trkpt lat="46.21933" lon="7.00446"><ele>368.2</ele><time>2016-08-06T19:17:31Z</time></trkpt>
<trkpt lat="46.21936" lon="7.00446"><ele>368.2</ele><time>2016-08-06T19:17:32Z</time></trkpt>
<trkpt lat="46.21947" lon="7.00447"><ele>368.2</ele><time>2016-08-06T19:17:35Z</time></trkpt>
<trkpt lat="46.21954" lon="7.00448"><ele>368.4</ele><time>2016-08-06T19:17:37Z</time></trkpt>
<trkpt lat="46.21957" lon="7.00448"><ele>368.4</ele><time>2016-08-06T19:17:38Z</time></trkpt>
<trkpt lat="46.21964" lon="7.00449"><ele>368.4</ele><time>2016-08-06T19:17:40Z</time></trkpt>
<trkpt lat="46.21971" lon="7.0045"><ele>368.4</ele><time>2016-08-06T19:17:42Z</time></trkpt>
<trkpt lat="46.21979" lon="7.0045"><ele>368.4</ele><time>2016-08-06T19:17:44Z</time></trkpt>
<trkpt lat="46.21986" lon="7.00452"><ele>368.4</ele><time>2016-08-06T19:17:46Z</time></trkpt>
<trkpt lat="46.2199" lon="7.00455"><ele>368.4</ele><time>2016-08-06T19:17:47Z</time></trkpt>
<trkpt lat="46.21998" lon="7.00459"><ele>368.6</ele><time>2016-08-06T19:17:49Z</time></trkpt>
<trkpt lat="46.22003" lon="7.00458"><ele>368.6</ele><time>2016-08-06T19:17:50Z</time></trkpt>
<trkpt lat="46.22011" lon="7.00459"><ele>368.6</ele><time>2016-08-06T19:17:52Z</time></trkpt>
<trkpt lat="46.22019" lon="7.00459"><ele>368.6</ele><time>2016-08-06T19:17:54Z</time></trkpt>
<trkpt lat="46.22031" lon="7.0046"><ele>368.6</ele><time>2016-08-06T19:17:57Z</time></trkpt>
<trkpt lat="46.22036" lon="7.0046"><ele>368.6</ele><time>2016-08-06T19:17:58Z</time></trkpt>
<trkpt lat="46.22048" lon="7.00461"><ele>368.8</ele><time>2016-08-06T19:18:01Z</time></trkpt>
<trkpt lat="46.22064" lon="7.00456"><ele>368.8</ele><time>2016-08-06T19:18:03Z</time></trkpt>
<trkpt lat="46.22073" lon="7.00453"><ele>368.8</ele><time>2016-08-06T19:18:04Z</time></trkpt>
<trkpt lat="46.22098" lon="7.00444"><ele>368.8</ele><time>2016-08-06T19:18:07Z</time></trkpt>
<trkpt lat="46.22105" lon="7.00444"><ele>368.8</ele><time>2016-08-06T19:18:08Z</time></trkpt>
<trkpt lat="46.22119" lon="7.00442"><ele>368.8</ele><time>2016-08-06T19:18:10Z</time></trkpt>
<trkpt lat="46.22132" lon="7.0044"><ele>368.8</ele><time>2016-08-06T19:18:12Z</time></trkpt>
<trkpt lat="46.22146" lon="7.00438"><ele>369</ele><time>2016-08-06T19:18:14Z</time></trkpt>
<trkpt lat="46.22166" lon="7.00434"><ele>369</ele><time>2016-08-06T19:18:17Z</time></trkpt>
<trkpt lat="46.22173" lon="7.0043"><ele>369</ele><time>2016-08-06T19:18:18Z</time></trkpt>
<trkpt lat="46.22186" lon="7.00422"><ele>369</ele><time>2016-08-06T19:18:20Z</time></trkpt>
<trkpt lat="46.22192" lon="7.00419"><ele>369</ele><time>2016-08-06T19:18:21Z</time></trkpt>
<trkpt lat="46.22197" lon="7.00417"><ele>369</ele><time>2016-08-06T19:18:22Z</time></trkpt>
<trkpt lat="46.22203" lon="7.00416"><ele>369</ele><time>2016-08-06T19:18:23Z</time></trkpt>
<trkpt lat="46.22208" lon="7.00412"><ele>369</ele><time>2016-08-06T19:18:24Z</time></trkpt>
<trkpt lat="46.22224" lon="7.00402"><ele>369.2</ele><time>2016-08-06T19:18:27Z</time></trkpt>
<trkpt lat="46.22229" lon="7.00398"><ele>369.2</ele><time>2016-08-06T19:18:28Z</time></trkpt>
<trkpt lat="46.22245" lon="7.00388"><ele>369.2</ele><time>2016-08-06T19:18:31Z</time></trkpt>
<trkpt lat="46.22256" lon="7.00381"><ele>369.2</ele><time>2016-08-06T19:18:33Z</time></trkpt>
<trkpt lat="46.22266" lon="7.00374"><ele>369.2</ele><time>2016-08-06T19:18:35Z</time></trkpt>
<trkpt lat="46.22276" lon="7.00368"><ele>369.2</ele><time>2016-08-06T19:18:37Z</time></trkpt>
<trkpt lat="46.22281" lon="7.00364"><ele>369.4</ele><time>2016-08-06T19:18:38Z</time></trkpt>
<trkpt lat="46.22291" lon="7.00358"><ele>369.4</ele><time>2016-08-06T19:18:40Z</time></trkpt>
<trkpt lat="46.22295" lon="7.00355"><ele>369.4</ele><time>2016-08-06T19:18:41Z</time></trkpt>
<trkpt lat="46.223" lon="7.00351"><ele>369.6</ele><time>2016-08-06T19:18:42Z</time></trkpt>
<trkpt lat="46.22309" lon="7.00345"><ele>370</ele><time>2016-08-06T19:18:44Z</time></trkpt>
<trkpt lat="46.22317" lon="7.00339"><ele>370.4</ele><time>2016-08-06T19:18:46Z</time></trkpt>
<trkpt lat="46.22322" lon="7.00335"><ele>370.4</ele><time>2016-08-06T19:18:47Z</time></trkpt>
<trkpt lat="46.22326" lon="7.00332"><ele>370.4</ele><time>2016-08-06T19:18:48Z</time></trkpt>
<trkpt lat="46.22335" lon="7.00326"><ele>370.6</ele><time>2016-08-06T19:18:50Z</time></trkpt>
<trkpt lat="46.22343" lon="7.00318"><ele>370.8</ele><time>2016-08-06T19:18:52Z</time></trkpt>
<trkpt lat="46.22356" lon="7.00306"><ele>371</ele><time>2016-08-06T19:18:55Z</time></trkpt>
<trkpt lat="46.2236" lon="7.00302"><ele>371.2</ele><time>2016-08-06T19:18:56Z</time></trkpt>
<trkpt lat="46.22364" lon="7.00297"><ele>371.2</ele><time>2016-08-06T19:18:57Z</time></trkpt>
<trkpt lat="46.22369" lon="7.00292"><ele>371</ele><time>2016-08-06T19:18:58Z</time></trkpt>
<trkpt lat="46.22381" lon="7.00277"><ele>370.6</ele><time>2016-08-06T19:19:01Z</time></trkpt>
<trkpt lat="46.22385" lon="7.00272"><ele>370.4</ele><time>2016-08-06T19:19:02Z</time></trkpt>
<trkpt lat="46.22394" lon="7.00262"><ele>370.2</ele><time>2016-08-06T19:19:04Z</time></trkpt>
<trkpt lat="46.22398" lon="7.00257"><ele>370</ele><time>2016-08-06T19:19:05Z</time></trkpt>
<trkpt lat="46.2241" lon="7.00248"><ele>369.8</ele><time>2016-08-06T19:19:07Z</time></trkpt>
<trkpt lat="46.22415" lon="7.00244"><ele>369.6</ele><time>2016-08-06T19:19:08Z</time></trkpt>
<trkpt lat="46.22427" lon="7.00234"><ele>369.4</ele><time>2016-08-06T19:19:10Z</time></trkpt>
<trkpt lat="46.22438" lon="7.00226"><ele>369</ele><time>2016-08-06T19:19:12Z</time></trkpt>
<trkpt lat="46.22451" lon="7.0022"><ele>368.8</ele><time>2016-08-06T19:19:14Z</time></trkpt>
<trkpt lat="46.22469" lon="7.00213"><ele>368.4</ele><time>2016-08-06T19:19:17Z</time></trkpt>
<trkpt lat="46.22475" lon="7.0021"><ele>368.2</ele><time>2016-08-06T19:19:18Z</time></trkpt>
<trkpt lat="46.22487" lon="7.00204"><ele>368</ele><time>2016-08-06T19:19:20Z</time></trkpt>
<trkpt lat="46.22493" lon="7.00202"><ele>367.8</ele><time>2016-08-06T19:19:21Z</time></trkpt>
<trkpt lat="46.22499" lon="7.00199"><ele>367.8</ele><time>2016-08-06T19:19:22Z</time></trkpt>
<trkpt lat="46.22511" lon="7.00194"><ele>367.6</ele><time>2016-08-06T19:19:24Z</time></trkpt>
<trkpt lat="46.22522" lon="7.00187"><ele>367.4</ele><time>2016-08-06T19:19:26Z</time></trkpt>
<trkpt lat="46.22526" lon="7.00183"><ele>367.2</ele><time>2016-08-06T19:19:27Z</time></trkpt>
<trkpt lat="46.22531" lon="7.00178"><ele>367.2</ele><time>2016-08-06T19:19:28Z</time></trkpt>
<trkpt lat="46.22534" lon="7.00172"><ele>367</ele><time>2016-08-06T19:19:29Z</time></trkpt>
<trkpt lat="46.22538" lon="7.00159"><ele>367</ele><time>2016-08-06T19:19:31Z</time></trkpt>
<trkpt lat="46.22542" lon="7.00153"><ele>366.8</ele><time>2016-08-06T19:19:32Z</time></trkpt>
<trkpt lat="46.22549" lon="7.00141"><ele>366.6</ele><time>2016-08-06T19:19:34Z</time></trkpt>
<trkpt lat="46.22557" lon="7.00129"><ele>366.4</ele><time>2016-08-06T19:19:36Z</time></trkpt>
<trkpt lat="46.22563" lon="7.00125"><ele>366.4</ele><time>2016-08-06T19:19:37Z</time></trkpt>
<trkpt lat="46.22569" lon="7.00122"><ele>366.2</ele><time>2016-08-06T19:19:38Z</time></trkpt>
<trkpt lat="46.22581" lon="7.00123"><ele>366</ele><time>2016-08-06T19:19:40Z</time></trkpt>
<trkpt lat="46.22599" lon="7.00123"><ele>365.8</ele><time>2016-08-06T19:19:43Z</time></trkpt>
<trkpt lat="46.22605" lon="7.00123"><ele>365.6</ele><time>2016-08-06T19:19:44Z</time></trkpt>
<trkpt lat="46.22616" lon="7.00124"><ele>365.6</ele><time>2016-08-06T19:19:46Z</time></trkpt>
<trkpt lat="46.22622" lon="7.00123"><ele>365.6</ele><time>2016-08-06T19:19:47Z</time></trkpt>
<trkpt lat="46.22627" lon="7.00123"><ele>365.6</ele><time>2016-08-06T19:19:48Z</time></trkpt>
<trkpt lat="46.22643" lon="7.00122"><ele>365.6</ele><time>2016-08-06T19:19:51Z</time></trkpt>
<trkpt lat="46.22654" lon="7.00121"><ele>365.4</ele><time>2016-08-06T19:19:53Z</time></trkpt>
<trkpt lat="46.22664" lon="7.0012"><ele>365.4</ele><time>2016-08-06T19:19:55Z</time></trkpt>
<trkpt lat="46.22672" lon="7.00119"><ele>365.4</ele><time>2016-08-06T19:19:57Z</time></trkpt>
<trkpt lat="46.22681" lon="7.00118"><ele>365.4</ele><time>2016-08-06T19:19:59Z</time></trkpt>
<trkpt lat="46.22689" lon="7.00117"><ele>365.4</ele><time>2016-08-06T19:20:01Z</time></trkpt>
<trkpt lat="46.22698" lon="7.00116"><ele>365.4</ele><time>2016-08-06T19:20:03Z</time></trkpt>
<trkpt lat="46.22702" lon="7.00115"><ele>365.2</ele><time>2016-08-06T19:20:04Z</time></trkpt>
<trkpt lat="46.22711" lon="7.00114"><ele>365.2</ele><time>2016-08-06T19:20:06Z</time></trkpt>
<trkpt lat="46.22717" lon="7.00113"><ele>365.2</ele><time>2016-08-06T19:20:07Z</time></trkpt>
<trkpt lat="46.22723" lon="7.00112"><ele>365.2</ele><time>2016-08-06T19:20:08Z</time></trkpt>
<trkpt lat="46.22736" lon="7.0011"><ele>365.2</ele><time>2016-08-06T19:20:10Z</time></trkpt>
<trkpt lat="46.22754" lon="7.00106"><ele>365.2</ele><time>2016-08-06T19:20:13Z</time></trkpt>
<trkpt lat="46.22761" lon="7.00105"><ele>365.2</ele><time>2016-08-06T19:20:14Z</time></trkpt>
<trkpt lat="46.22782" lon="7.001"><ele>365</ele><time>2016-08-06T19:20:17Z</time></trkpt>
<trkpt lat="46.22789" lon="7.00099"><ele>365</ele><time>2016-08-06T19:20:18Z</time></trkpt>
<trkpt lat="46.22803" lon="7.00095"><ele>365</ele><time>2016-08-06T19:20:20Z</time></trkpt>
<trkpt lat="46.2281" lon="7.00093"><ele>365</ele><time>2016-08-06T19:20:21Z</time></trkpt>
<trkpt lat="46.22818" lon="7.00091"><ele>365</ele><time>2016-08-06T19:20:22Z</time></trkpt>
<trkpt lat="46.22833" lon="7.00086"><ele>365</ele><time>2016-08-06T19:20:24Z</time></trkpt>
<trkpt lat="46.22854" lon="7.00077"><ele>364.8</ele><time>2016-08-06T19:20:27Z</time></trkpt>
<trkpt lat="46.22861" lon="7.00072"><ele>364.8</ele><time>2016-08-06T19:20:28Z</time></trkpt>
<trkpt lat="46.22875" lon="7.00062"><ele>364.8</ele><time>2016-08-06T19:20:30Z</time></trkpt>
<trkpt lat="46.22888" lon="7.00052"><ele>364.8</ele><time>2016-08-06T19:20:32Z</time></trkpt>
<trkpt lat="46.22903" lon="7.00042"><ele>364.8</ele><time>2016-08-06T19:20:34Z</time></trkpt>
<trkpt lat="46.22925" lon="7.00028"><ele>364.6</ele><time>2016-08-06T19:20:37Z</time></trkpt>
<trkpt lat="46.22932" lon="7.00023"><ele>364.6</ele><time>2016-08-06T19:20:38Z</time></trkpt>
<trkpt lat="46.22947" lon="7.00012"><ele>364.6</ele><time>2016-08-06T19:20:40Z</time></trkpt>
<trkpt lat="46.22962" lon="7.00001"><ele>364.6</ele><time>2016-08-06T19:20:42Z</time></trkpt>
<trkpt lat="46.22977" lon="6.9999"><ele>364.4</ele><time>2016-08-06T19:20:44Z</time></trkpt>
<trkpt lat="46.23003" lon="6.99968"><ele>363.4</ele><time>2016-08-06T19:20:47Z</time></trkpt>
<trkpt lat="46.23011" lon="6.99961"><ele>363.2</ele><time>2016-08-06T19:20:48Z</time></trkpt>
<trkpt lat="46.2302" lon="6.99954"><ele>362.8</ele><time>2016-08-06T19:20:49Z</time></trkpt>
<trkpt lat="46.23028" lon="6.99946"><ele>362.6</ele><time>2016-08-06T19:20:50Z</time></trkpt>
<trkpt lat="46.23045" lon="6.99931"><ele>362.6</ele><time>2016-08-06T19:20:52Z</time></trkpt>
<trkpt lat="46.23062" lon="6.99915"><ele>362.6</ele><time>2016-08-06T19:20:54Z</time></trkpt>
<trkpt lat="46.23078" lon="6.99897"><ele>362.6</ele><time>2016-08-06T19:20:56Z</time></trkpt>
<trkpt lat="46.23086" lon="6.99888"><ele>362.6</ele><time>2016-08-06T19:20:57Z</time></trkpt>
<trkpt lat="46.23094" lon="6.99879"><ele>362.6</ele><time>2016-08-06T19:20:58Z</time></trkpt>
<trkpt lat="46.23102" lon="6.9987"><ele>362.6</ele><time>2016-08-06T19:20:59Z</time></trkpt>
<trkpt lat="46.23109" lon="6.99862"><ele>362.4</ele><time>2016-08-06T19:21:00Z</time></trkpt>
<trkpt lat="46.23123" lon="6.99846"><ele>362.4</ele><time>2016-08-06T19:21:02Z</time></trkpt>
<trkpt lat="46.23137" lon="6.99829"><ele>362.2</ele><time>2016-08-06T19:21:04Z</time></trkpt>
<trkpt lat="46.23144" lon="6.99821"><ele>362.2</ele><time>2016-08-06T19:21:05Z</time></trkpt>
<trkpt lat="46.23157" lon="6.99806"><ele>362</ele><time>2016-08-06T19:21:07Z</time></trkpt>
<trkpt lat="46.23164" lon="6.99799"><ele>362</ele><time>2016-08-06T19:21:08Z</time></trkpt>
<trkpt lat="46.23177" lon="6.99784"><ele>361.6</ele><time>2016-08-06T19:21:10Z</time></trkpt>
<trkpt lat="46.23184" lon="6.99776"><ele>361.6</ele><time>2016-08-06T19:21:11Z</time></trkpt>
<trkpt lat="46.2319" lon="6.99769"><ele>361.4</ele><time>2016-08-06T19:21:12Z</time></trkpt>
<trkpt lat="46.23202" lon="6.99755"><ele>361.2</ele><time>2016-08-06T19:21:14Z</time></trkpt>
<trkpt lat="46.23219" lon="6.99734"><ele>360.8</ele><time>2016-08-06T19:21:17Z</time></trkpt>
<trkpt lat="46.23225" lon="6.99728"><ele>360.6</ele><time>2016-08-06T19:21:18Z</time></trkpt>
<trkpt lat="46.23235" lon="6.99717"><ele>360.4</ele><time>2016-08-06T19:21:20Z</time></trkpt>
<trkpt lat="46.23246" lon="6.99705"><ele>360.2</ele><time>2016-08-06T19:21:22Z</time></trkpt>
<trkpt lat="46.23256" lon="6.99693"><ele>359.8</ele><time>2016-08-06T19:21:24Z</time></trkpt>
<trkpt lat="46.23267" lon="6.99675"><ele>359.4</ele><time>2016-08-06T19:21:27Z</time></trkpt>
<trkpt lat="46.23271" lon="6.99669"><ele>359.4</ele><time>2016-08-06T19:21:28Z</time></trkpt>
<trkpt lat="46.23278" lon="6.99658"><ele>359</ele><time>2016-08-06T19:21:30Z</time></trkpt>
<trkpt lat="46.23284" lon="6.99648"><ele>359</ele><time>2016-08-06T19:21:32Z</time></trkpt>
<trkpt lat="46.23289" lon="6.99638"><ele>358.8</ele><time>2016-08-06T19:21:34Z</time></trkpt>
<trkpt lat="46.23292" lon="6.99634"><ele>358.8</ele><time>2016-08-06T19:21:35Z</time></trkpt>
<trkpt lat="46.233" lon="6.99629"><ele>358.6</ele><time>2016-08-06T19:21:37Z</time></trkpt>
<trkpt lat="46.23303" lon="6.99627"><ele>358.6</ele><time>2016-08-06T19:21:38Z</time></trkpt>
<trkpt lat="46.23311" lon="6.99622"><ele>358.4</ele><time>2016-08-06T19:21:40Z</time></trkpt>
<trkpt lat="46.23318" lon="6.99617"><ele>358.2</ele><time>2016-08-06T19:21:42Z</time></trkpt>
<trkpt lat="46.23326" lon="6.99611"><ele>358</ele><time>2016-08-06T19:21:44Z</time></trkpt>
<trkpt lat="46.23336" lon="6.99598"><ele>357.8</ele><time>2016-08-06T19:21:47Z</time></trkpt>
<trkpt lat="46.2334" lon="6.99594"><ele>357.8</ele><time>2016-08-06T19:21:48Z</time></trkpt>
<trkpt lat="46.23347" lon="6.99585"><ele>357.6</ele><time>2016-08-06T19:21:50Z</time></trkpt>
<trkpt lat="46.23354" lon="6.99576"><ele>357.6</ele><time>2016-08-06T19:21:52Z</time></trkpt>
<trkpt lat="46.23362" lon="6.99567"><ele>357.4</ele><time>2016-08-06T19:21:54Z</time></trkpt>
<trkpt lat="46.23374" lon="6.99553"><ele>357.2</ele><time>2016-08-06T19:21:57Z</time></trkpt>
<trkpt lat="46.23378" lon="6.99548"><ele>357.2</ele><time>2016-08-06T19:21:58Z</time></trkpt>
<trkpt lat="46.23386" lon="6.99538"><ele>357</ele><time>2016-08-06T19:22:00Z</time></trkpt>
<trkpt lat="46.23395" lon="6.99529"><ele>356.8</ele><time>2016-08-06T19:22:02Z</time></trkpt>
<trkpt lat="46.23399" lon="6.99524"><ele>356.8</ele><time>2016-08-06T19:22:03Z</time></trkpt>
<trkpt lat="46.23401" lon="6.99518"><ele>356.8</ele><time>2016-08-06T19:22:04Z</time></trkpt>
<trkpt lat="46.23404" lon="6.99513"><ele>356.6</ele><time>2016-08-06T19:22:05Z</time></trkpt>
<trkpt lat="46.23413" lon="6.99511"><ele>356.4</ele><time>2016-08-06T19:22:07Z</time></trkpt>
<trkpt lat="46.23418" lon="6.99511"><ele>356.4</ele><time>2016-08-06T19:22:08Z</time></trkpt>
<trkpt lat="46.23427" lon="6.99516"><ele>356.2</ele><time>2016-08-06T19:22:10Z</time></trkpt>
<trkpt lat="46.23431" lon="6.99517"><ele>356.2</ele><time>2016-08-06T19:22:11Z</time></trkpt>
<trkpt lat="46.23437" lon="6.99518"><ele>356.2</ele><time>2016-08-06T19:22:12Z</time></trkpt>
<trkpt lat="46.23447" lon="6.99518"><ele>356</ele><time>2016-08-06T19:22:14Z</time></trkpt>
<trkpt lat="46.23463" lon="6.99519"><ele>355.6</ele><time>2016-08-06T19:22:17Z</time></trkpt>
<trkpt lat="46.23469" lon="6.9952"><ele>355.6</ele><time>2016-08-06T19:22:18Z</time></trkpt>
<trkpt lat="46.23483" lon="6.99535"><ele>355.2</ele><time>2016-08-06T19:22:21Z</time></trkpt>
<trkpt lat="46.23487" lon="6.99541"><ele>355</ele><time>2016-08-06T19:22:22Z</time></trkpt>
<trkpt lat="46.23496" lon="6.99551"><ele>354.8</ele><time>2016-08-06T19:22:24Z</time></trkpt>
<trkpt lat="46.23506" lon="6.99561"><ele>354.6</ele><time>2016-08-06T19:22:26Z</time></trkpt>
<trkpt lat="46.23512" lon="6.99566"><ele>354.4</ele><time>2016-08-06T19:22:27Z</time></trkpt>
<trkpt lat="46.23518" lon="6.99571"><ele>354.2</ele><time>2016-08-06T19:22:28Z</time></trkpt>
<trkpt lat="46.2353" lon="6.99582"><ele>354</ele><time>2016-08-06T19:22:30Z</time></trkpt>
<trkpt lat="46.23542" lon="6.99592"><ele>353.8</ele><time>2016-08-06T19:22:32Z</time></trkpt>
<trkpt lat="46.23548" lon="6.99597"><ele>353.6</ele><time>2016-08-06T19:22:33Z</time></trkpt>
<trkpt lat="46.23554" lon="6.99603"><ele>353.6</ele><time>2016-08-06T19:22:34Z</time></trkpt>
<trkpt lat="46.23564" lon="6.99613"><ele>353.4</ele><time>2016-08-06T19:22:36Z</time></trkpt>
<trkpt lat="46.23569" lon="6.99612"><ele>353.2</ele><time>2016-08-06T19:22:37Z</time></trkpt>
<trkpt lat="46.23574" lon="6.99609"><ele>353</ele><time>2016-08-06T19:22:38Z</time></trkpt>
<trkpt lat="46.23586" lon="6.99588"><ele>352.6</ele><time>2016-08-06T19:22:41Z</time></trkpt>
<trkpt lat="46.23591" lon="6.99582"><ele>352.6</ele><time>2016-08-06T19:22:42Z</time></trkpt>
<trkpt lat="46.23599" lon="6.99568"><ele>352.8</ele><time>2016-08-06T19:22:44Z</time></trkpt>
<trkpt lat="46.23607" lon="6.99554"><ele>353</ele><time>2016-08-06T19:22:46Z</time></trkpt>
<trkpt lat="46.23613" lon="6.99548"><ele>353</ele><time>2016-08-06T19:22:47Z</time></trkpt>
<trkpt lat="46.23619" lon="6.99542"><ele>353</ele><time>2016-08-06T19:22:48Z</time></trkpt>
<trkpt lat="46.23637" lon="6.99526"><ele>353.2</ele><time>2016-08-06T19:22:51Z</time></trkpt>
<trkpt lat="46.23643" lon="6.99523"><ele>353.2</ele><time>2016-08-06T19:22:52Z</time></trkpt>
<trkpt lat="46.23654" lon="6.99518"><ele>353.4</ele><time>2016-08-06T19:22:54Z</time></trkpt>
<trkpt lat="46.23672" lon="6.9951"><ele>353.6</ele><time>2016-08-06T19:22:57Z</time></trkpt>
<trkpt lat="46.23684" lon="6.99504"><ele>353.6</ele><time>2016-08-06T19:22:59Z</time></trkpt>
<trkpt lat="46.2369" lon="6.99501"><ele>353.6</ele><time>2016-08-06T19:23:00Z</time></trkpt>
<trkpt lat="46.23702" lon="6.99494"><ele>353.8</ele><time>2016-08-06T19:23:02Z</time></trkpt>
<trkpt lat="46.23715" lon="6.99487"><ele>353.8</ele><time>2016-08-06T19:23:04Z</time></trkpt>
<trkpt lat="46.23728" lon="6.9948"><ele>354</ele><time>2016-08-06T19:23:06Z</time></trkpt>
<trkpt lat="46.23742" lon="6.99476"><ele>354</ele><time>2016-08-06T19:23:08Z</time></trkpt>
<trkpt lat="46.23757" lon="6.99472"><ele>354.2</ele><time>2016-08-06T19:23:10Z</time></trkpt>
<trkpt lat="46.23772" lon="6.99467"><ele>354.2</ele><time>2016-08-06T19:23:12Z</time></trkpt>
<trkpt lat="46.23779" lon="6.99465"><ele>354.4</ele><time>2016-08-06T19:23:13Z</time></trkpt>
<trkpt lat="46.23788" lon="6.99462"><ele>354.4</ele><time>2016-08-06T19:23:14Z</time></trkpt>
<trkpt lat="46.23805" lon="6.99456"><ele>354.4</ele><time>2016-08-06T19:23:16Z</time></trkpt>
<trkpt lat="46.23822" lon="6.9945"><ele>354.6</ele><time>2016-08-06T19:23:18Z</time></trkpt>
<trkpt lat="46.2383" lon="6.99447"><ele>354.6</ele><time>2016-08-06T19:23:19Z</time></trkpt>
<trkpt lat="46.23837" lon="6.99443"><ele>354.6</ele><time>2016-08-06T19:23:20Z</time></trkpt>
<trkpt lat="46.23852" lon="6.99434"><ele>354.8</ele><time>2016-08-06T19:23:22Z</time></trkpt>
<trkpt lat="46.23867" lon="6.99426"><ele>354.8</ele><time>2016-08-06T19:23:24Z</time></trkpt>
<trkpt lat="46.23874" lon="6.99421"><ele>354.8</ele><time>2016-08-06T19:23:25Z</time></trkpt>
<trkpt lat="46.23881" lon="6.99416"><ele>354.8</ele><time>2016-08-06T19:23:26Z</time></trkpt>
<trkpt lat="46.23895" lon="6.99406"><ele>354.6</ele><time>2016-08-06T19:23:28Z</time></trkpt>
<trkpt lat="46.2391" lon="6.99396"><ele>354.6</ele><time>2016-08-06T19:23:30Z</time></trkpt>
<trkpt lat="46.23917" lon="6.99391"><ele>354.4</ele><time>2016-08-06T19:23:31Z</time></trkpt>
<trkpt lat="46.23924" lon="6.99386"><ele>354.4</ele><time>2016-08-06T19:23:32Z</time></trkpt>
<trkpt lat="46.23937" lon="6.99377"><ele>354.4</ele><time>2016-08-06T19:23:34Z</time></trkpt>
<trkpt lat="46.2395" lon="6.99367"><ele>354.2</ele><time>2016-08-06T19:23:36Z</time></trkpt>
<trkpt lat="46.23957" lon="6.99362"><ele>354.2</ele><time>2016-08-06T19:23:37Z</time></trkpt>
<trkpt lat="46.23963" lon="6.99356"><ele>354.2</ele><time>2016-08-06T19:23:38Z</time></trkpt>
<trkpt lat="46.23976" lon="6.99345"><ele>354.2</ele><time>2016-08-06T19:23:40Z</time></trkpt>
<trkpt lat="46.23988" lon="6.99333"><ele>354</ele><time>2016-08-06T19:23:42Z</time></trkpt>
<trkpt lat="46.24001" lon="6.99322"><ele>354</ele><time>2016-08-06T19:23:44Z</time></trkpt>
<trkpt lat="46.24012" lon="6.99309"><ele>353.8</ele><time>2016-08-06T19:23:46Z</time></trkpt>
<trkpt lat="46.24024" lon="6.99297"><ele>353.8</ele><time>2016-08-06T19:23:48Z</time></trkpt>
<trkpt lat="46.24036" lon="6.99285"><ele>353.6</ele><time>2016-08-06T19:23:50Z</time></trkpt>
<trkpt lat="46.24041" lon="6.99279"><ele>353.6</ele><time>2016-08-06T19:23:51Z</time></trkpt>
<trkpt lat="46.24047" lon="6.99273"><ele>353.6</ele><time>2016-08-06T19:23:52Z</time></trkpt>
<trkpt lat="46.24057" lon="6.9926"><ele>353.6</ele><time>2016-08-06T19:23:54Z</time></trkpt>
<trkpt lat="46.24068" lon="6.99248"><ele>353.4</ele><time>2016-08-06T19:23:56Z</time></trkpt>
<trkpt lat="46.24079" lon="6.99236"><ele>353.4</ele><time>2016-08-06T19:23:58Z</time></trkpt>
<trkpt lat="46.24091" lon="6.99224"><ele>353.2</ele><time>2016-08-06T19:24:00Z</time></trkpt>
<trkpt lat="46.24102" lon="6.99212"><ele>353.2</ele><time>2016-08-06T19:24:02Z</time></trkpt>
<trkpt lat="46.24114" lon="6.992"><ele>353</ele><time>2016-08-06T19:24:04Z</time></trkpt>
<trkpt lat="46.24119" lon="6.99194"><ele>353</ele><time>2016-08-06T19:24:05Z</time></trkpt>
<trkpt lat="46.24125" lon="6.99189"><ele>353</ele><time>2016-08-06T19:24:06Z</time></trkpt>
<trkpt lat="46.24136" lon="6.99179"><ele>353</ele><time>2016-08-06T19:24:08Z</time></trkpt>
<trkpt lat="46.24147" lon="6.99168"><ele>352.8</ele><time>2016-08-06T19:24:10Z</time></trkpt>
<trkpt lat="46.24158" lon="6.99158"><ele>352.8</ele><time>2016-08-06T19:24:12Z</time></trkpt>
<trkpt lat="46.24169" lon="6.99149"><ele>352.6</ele><time>2016-08-06T19:24:14Z</time></trkpt>
<trkpt lat="46.2418" lon="6.9914"><ele>352.6</ele><time>2016-08-06T19:24:16Z</time></trkpt>
<trkpt lat="46.24191" lon="6.99131"><ele>352.4</ele><time>2016-08-06T19:24:18Z</time></trkpt>
<trkpt lat="46.24202" lon="6.99118"><ele>352.4</ele><time>2016-08-06T19:24:20Z</time></trkpt>
<trkpt lat="46.24212" lon="6.99106"><ele>352.4</ele><time>2016-08-06T19:24:22Z</time></trkpt>
<trkpt lat="46.24222" lon="6.99093"><ele>352.2</ele><time>2016-08-06T19:24:24Z</time></trkpt>
<trkpt lat="46.24227" lon="6.99087"><ele>352.2</ele><time>2016-08-06T19:24:25Z</time></trkpt>
<trkpt lat="46.24231" lon="6.99082"><ele>352.2</ele><time>2016-08-06T19:24:26Z</time></trkpt>
<trkpt lat="46.2424" lon="6.99071"><ele>352</ele><time>2016-08-06T19:24:28Z</time></trkpt>
<trkpt lat="46.24248" lon="6.99061"><ele>352</ele><time>2016-08-06T19:24:30Z</time></trkpt>
<trkpt lat="46.24256" lon="6.9905"><ele>351.8</ele><time>2016-08-06T19:24:32Z</time></trkpt>
<trkpt lat="46.24264" lon="6.9904"><ele>351.8</ele><time>2016-08-06T19:24:34Z</time></trkpt>
<trkpt lat="46.2427" lon="6.99033"><ele>351.8</ele><time>2016-08-06T19:24:36Z</time></trkpt>
<trkpt lat="46.24277" lon="6.99025"><ele>351.6</ele><time>2016-08-06T19:24:38Z</time></trkpt>
<trkpt lat="46.24284" lon="6.99018"><ele>351.6</ele><time>2016-08-06T19:24:40Z</time></trkpt>
<trkpt lat="46.24286" lon="6.99016"><ele>351.8</ele><time>2016-08-06T19:24:41Z</time></trkpt>
<trkpt lat="46.24288" lon="6.99019"><ele>351.8</ele><time>2016-08-06T19:24:42Z</time></trkpt>
<trkpt lat="46.24293" lon="6.99026"><ele>351.8</ele><time>2016-08-06T19:24:44Z</time></trkpt>
<trkpt lat="46.24297" lon="6.99032"><ele>351.8</ele><time>2016-08-06T19:24:46Z</time></trkpt>
<trkpt lat="46.24301" lon="6.99039"><ele>352</ele><time>2016-08-06T19:24:48Z</time></trkpt>
<trkpt lat="46.24305" lon="6.99045"><ele>352</ele><time>2016-08-06T19:24:50Z</time></trkpt>
<trkpt lat="46.24309" lon="6.99051"><ele>352</ele><time>2016-08-06T19:24:52Z</time></trkpt>
<trkpt lat="46.24313" lon="6.99058"><ele>352.2</ele><time>2016-08-06T19:24:54Z</time></trkpt>
<trkpt lat="46.24318" lon="6.99065"><ele>352.2</ele><time>2016-08-06T19:24:56Z</time></trkpt>
<trkpt lat="46.24325" lon="6.99077"><ele>352.2</ele><time>2016-08-06T19:24:58Z</time></trkpt>
<trkpt lat="46.24332" lon="6.99089"><ele>352.4</ele><time>2016-08-06T19:25:00Z</time></trkpt>
<trkpt lat="46.24339" lon="6.99101"><ele>352.4</ele><time>2016-08-06T19:25:02Z</time></trkpt>
<trkpt lat="46.24346" lon="6.99113"><ele>352.4</ele><time>2016-08-06T19:25:04Z</time></trkpt>
<trkpt lat="46.24349" lon="6.99119"><ele>352.4</ele><time>2016-08-06T19:25:05Z</time></trkpt>
<trkpt lat="46.24353" lon="6.99125"><ele>352.6</ele><time>2016-08-06T19:25:06Z</time></trkpt>
<trkpt lat="46.2436" lon="6.99137"><ele>352.6</ele><time>2016-08-06T19:25:08Z</time></trkpt>
<trkpt lat="46.24367" lon="6.9915"><ele>352.6</ele><time>2016-08-06T19:25:10Z</time></trkpt>
<trkpt lat="46.24375" lon="6.99162"><ele>352.8</ele><time>2016-08-06T19:25:12Z</time></trkpt>
<trkpt lat="46.24378" lon="6.99169"><ele>352.8</ele><time>2016-08-06T19:25:13Z</time></trkpt>
<trkpt lat="46.24386" lon="6.99184"><ele>352.8</ele><time>2016-08-06T19:25:15Z</time></trkpt>
<trkpt lat="46.24394" lon="6.99198"><ele>352.8</ele><time>2016-08-06T19:25:17Z</time></trkpt>
<trkpt lat="46.24398" lon="6.99205"><ele>353</ele><time>2016-08-06T19:25:18Z</time></trkpt>
<trkpt lat="46.24406" lon="6.9922"><ele>353</ele><time>2016-08-06T19:25:20Z</time></trkpt>
<trkpt lat="46.24409" lon="6.99228"><ele>353</ele><time>2016-08-06T19:25:21Z</time></trkpt>
<trkpt lat="46.24412" lon="6.99237"><ele>353</ele><time>2016-08-06T19:25:22Z</time></trkpt>
<trkpt lat="46.24417" lon="6.99254"><ele>353.2</ele><time>2016-08-06T19:25:24Z</time></trkpt>
<trkpt lat="46.24425" lon="6.99281"><ele>353.2</ele><time>2016-08-06T19:25:27Z</time></trkpt>
<trkpt lat="46.24428" lon="6.99289"><ele>353.2</ele><time>2016-08-06T19:25:28Z</time></trkpt>
<trkpt lat="46.24431" lon="6.99307"><ele>353.4</ele><time>2016-08-06T19:25:30Z</time></trkpt>
<trkpt lat="46.24435" lon="6.99325"><ele>353.4</ele><time>2016-08-06T19:25:32Z</time></trkpt>
<trkpt lat="46.24438" lon="6.99343"><ele>353.4</ele><time>2016-08-06T19:25:34Z</time></trkpt>
<trkpt lat="46.2444" lon="6.99351"><ele>353.4</ele><time>2016-08-06T19:25:35Z</time></trkpt>
<trkpt lat="46.24445" lon="6.99367"><ele>353.6</ele><time>2016-08-06T19:25:37Z</time></trkpt>
<trkpt lat="46.24447" lon="6.99374"><ele>353.6</ele><time>2016-08-06T19:25:38Z</time></trkpt>
<trkpt lat="46.24452" lon="6.99389"><ele>353.6</ele><time>2016-08-06T19:25:40Z</time></trkpt>
<trkpt lat="46.2446" lon="6.99412"><ele>353.8</ele><time>2016-08-06T19:25:43Z</time></trkpt>
<trkpt lat="46.24462" lon="6.9942"><ele>353.8</ele><time>2016-08-06T19:25:44Z</time></trkpt>
<trkpt lat="46.24469" lon="6.99444"><ele>353.8</ele><time>2016-08-06T19:25:47Z</time></trkpt>
<trkpt lat="46.24472" lon="6.99452"><ele>353.8</ele><time>2016-08-06T19:25:48Z</time></trkpt>
<trkpt lat="46.24476" lon="6.99468"><ele>354</ele><time>2016-08-06T19:25:50Z</time></trkpt>
<trkpt lat="46.24478" lon="6.99477"><ele>354</ele><time>2016-08-06T19:25:51Z</time></trkpt>
<trkpt lat="46.24477" lon="6.99486"><ele>354</ele><time>2016-08-06T19:25:52Z</time></trkpt>
<trkpt lat="46.24481" lon="6.99501"><ele>354</ele><time>2016-08-06T19:25:54Z</time></trkpt>
<trkpt lat="46.24487" lon="6.99525"><ele>354.2</ele><time>2016-08-06T19:25:57Z</time></trkpt>
<trkpt lat="46.24489" lon="6.99532"><ele>354.2</ele><time>2016-08-06T19:25:58Z</time></trkpt>
<trkpt lat="46.24492" lon="6.99548"><ele>354.2</ele><time>2016-08-06T19:26:00Z</time></trkpt>
<trkpt lat="46.24495" lon="6.99561"><ele>354.4</ele><time>2016-08-06T19:26:02Z</time></trkpt>
<trkpt lat="46.24499" lon="6.99575"><ele>354.4</ele><time>2016-08-06T19:26:04Z</time></trkpt>
<trkpt lat="46.24503" lon="6.99596"><ele>354.4</ele><time>2016-08-06T19:26:07Z</time></trkpt>
<trkpt lat="46.24505" lon="6.99603"><ele>354.6</ele><time>2016-08-06T19:26:08Z</time></trkpt>
<trkpt lat="46.24507" lon="6.9961"><ele>354.6</ele><time>2016-08-06T19:26:09Z</time></trkpt>
<trkpt lat="46.24508" lon="6.99615"><ele>354.6</ele><time>2016-08-06T19:26:10Z</time></trkpt>
<trkpt lat="46.24511" lon="6.99627"><ele>354.6</ele><time>2016-08-06T19:26:12Z</time></trkpt>
<trkpt lat="46.24514" lon="6.99639"><ele>354.8</ele><time>2016-08-06T19:26:14Z</time></trkpt>
<trkpt lat="46.24518" lon="6.99657"><ele>355</ele><time>2016-08-06T19:26:17Z</time></trkpt>
<trkpt lat="46.2452" lon="6.99663"><ele>355</ele><time>2016-08-06T19:26:18Z</time></trkpt>
<trkpt lat="46.24522" lon="6.99674"><ele>355.2</ele><time>2016-08-06T19:26:20Z</time></trkpt>
<trkpt lat="46.24523" lon="6.99684"><ele>355.2</ele><time>2016-08-06T19:26:22Z</time></trkpt>
<trkpt lat="46.24524" lon="6.99689"><ele>355.4</ele><time>2016-08-06T19:26:23Z</time></trkpt>
<trkpt lat="46.24527" lon="6.99693"><ele>355.4</ele><time>2016-08-06T19:26:24Z</time></trkpt>
<trkpt lat="46.24537" lon="6.99705"><ele>355.6</ele><time>2016-08-06T19:26:27Z</time></trkpt>
<trkpt lat="46.2454" lon="6.9971"><ele>355.6</ele><time>2016-08-06T19:26:28Z</time></trkpt>
<trkpt lat="46.24543" lon="6.99724"><ele>355.8</ele><time>2016-08-06T19:26:30Z</time></trkpt>
<trkpt lat="46.24544" lon="6.99732"><ele>355.8</ele><time>2016-08-06T19:26:31Z</time></trkpt>
<trkpt lat="46.24544" lon="6.99739"><ele>356</ele><time>2016-08-06T19:26:32Z</time></trkpt>
<trkpt lat="46.24545" lon="6.99754"><ele>356</ele><time>2016-08-06T19:26:34Z</time></trkpt>
<trkpt lat="46.24545" lon="6.99776"><ele>356.2</ele><time>2016-08-06T19:26:37Z</time></trkpt>
<trkpt lat="46.24546" lon="6.99783"><ele>356.2</ele><time>2016-08-06T19:26:38Z</time></trkpt>
<trkpt lat="46.24547" lon="6.99798"><ele>356.4</ele><time>2016-08-06T19:26:40Z</time></trkpt>
<trkpt lat="46.2455" lon="6.99812"><ele>356.6</ele><time>2016-08-06T19:26:42Z</time></trkpt>
<trkpt lat="46.24553" lon="6.99827"><ele>356.6</ele><time>2016-08-06T19:26:44Z</time></trkpt>
<trkpt lat="46.24558" lon="6.99849"><ele>356.8</ele><time>2016-08-06T19:26:47Z</time></trkpt>
<trkpt lat="46.24561" lon="6.99863"><ele>357</ele><time>2016-08-06T19:26:49Z</time></trkpt>
<trkpt lat="46.24563" lon="6.99871"><ele>357</ele><time>2016-08-06T19:26:50Z</time></trkpt>
<trkpt lat="46.24565" lon="6.99885"><ele>357.2</ele><time>2016-08-06T19:26:52Z</time></trkpt>
<trkpt lat="46.24568" lon="6.999"><ele>357.2</ele><time>2016-08-06T19:26:54Z</time></trkpt>
<trkpt lat="46.24572" lon="6.99922"><ele>357.4</ele><time>2016-08-06T19:26:57Z</time></trkpt>
<trkpt lat="46.24574" lon="6.99929"><ele>357.6</ele><time>2016-08-06T19:26:58Z</time></trkpt>
<trkpt lat="46.24575" lon="6.99936"><ele>357.6</ele><time>2016-08-06T19:26:59Z</time></trkpt>
<trkpt lat="46.24577" lon="6.99944"><ele>357.6</ele><time>2016-08-06T19:27:00Z</time></trkpt>
<trkpt lat="46.24581" lon="6.99958"><ele>357.8</ele><time>2016-08-06T19:27:02Z</time></trkpt>
<trkpt lat="46.24584" lon="6.99973"><ele>357.8</ele><time>2016-08-06T19:27:04Z</time></trkpt>
<trkpt lat="46.24586" lon="6.9998"><ele>358</ele><time>2016-08-06T19:27:05Z</time></trkpt>
<trkpt lat="46.2459" lon="6.99994"><ele>358</ele><time>2016-08-06T19:27:07Z</time></trkpt>
<trkpt lat="46.24591" lon="7.00001"><ele>358.2</ele><time>2016-08-06T19:27:08Z</time></trkpt>
<trkpt lat="46.24594" lon="7.00015"><ele>358.2</ele><time>2016-08-06T19:27:10Z</time></trkpt>
<trkpt lat="46.24597" lon="7.00029"><ele>358.4</ele><time>2016-08-06T19:27:12Z</time></trkpt>
<trkpt lat="46.246" lon="7.00043"><ele>358.6</ele><time>2016-08-06T19:27:14Z</time></trkpt>
<trkpt lat="46.24603" lon="7.00056"><ele>358.6</ele><time>2016-08-06T19:27:16Z</time></trkpt>
<trkpt lat="46.24605" lon="7.00063"><ele>358.8</ele><time>2016-08-06T19:27:17Z</time></trkpt>
<trkpt lat="46.24606" lon="7.00069"><ele>358.8</ele><time>2016-08-06T19:27:18Z</time></trkpt>
<trkpt lat="46.24611" lon="7.00089"><ele>359</ele><time>2016-08-06T19:27:21Z</time></trkpt>
<trkpt lat="46.24612" lon="7.00095"><ele>359</ele><time>2016-08-06T19:27:22Z</time></trkpt>
<trkpt lat="46.24615" lon="7.00108"><ele>359.2</ele><time>2016-08-06T19:27:24Z</time></trkpt>
<trkpt lat="46.24618" lon="7.00121"><ele>359.2</ele><time>2016-08-06T19:27:26Z</time></trkpt>
<trkpt lat="46.2462" lon="7.00127"><ele>359.4</ele><time>2016-08-06T19:27:27Z</time></trkpt>
<trkpt lat="46.24621" lon="7.00133"><ele>359.4</ele><time>2016-08-06T19:27:28Z</time></trkpt>
<trkpt lat="46.24624" lon="7.00145"><ele>359.6</ele><time>2016-08-06T19:27:30Z</time></trkpt>
<trkpt lat="46.24627" lon="7.00157"><ele>359.6</ele><time>2016-08-06T19:27:32Z</time></trkpt>
<trkpt lat="46.2463" lon="7.00169"><ele>359.8</ele><time>2016-08-06T19:27:34Z</time></trkpt>
<trkpt lat="46.24634" lon="7.00188"><ele>360</ele><time>2016-08-06T19:27:37Z</time></trkpt>
<trkpt lat="46.24636" lon="7.00196"><ele>360</ele><time>2016-08-06T19:27:38Z</time></trkpt>
<trkpt lat="46.2464" lon="7.00212"><ele>360.2</ele><time>2016-08-06T19:27:40Z</time></trkpt>
<trkpt lat="46.24644" lon="7.00228"><ele>360.4</ele><time>2016-08-06T19:27:42Z</time></trkpt>
<trkpt lat="46.24647" lon="7.00244"><ele>360.4</ele><time>2016-08-06T19:27:44Z</time></trkpt>
<trkpt lat="46.24649" lon="7.00251"><ele>360.6</ele><time>2016-08-06T19:27:45Z</time></trkpt>
<trkpt lat="46.24653" lon="7.00263"><ele>360.6</ele><time>2016-08-06T19:27:47Z</time></trkpt>
<trkpt lat="46.24654" lon="7.00269"><ele>360.8</ele><time>2016-08-06T19:27:48Z</time></trkpt>
<trkpt lat="46.24658" lon="7.00281"><ele>360.8</ele><time>2016-08-06T19:27:50Z</time></trkpt>
<trkpt lat="46.24661" lon="7.00293"><ele>361</ele><time>2016-08-06T19:27:52Z</time></trkpt>
<trkpt lat="46.24664" lon="7.00306"><ele>361</ele><time>2016-08-06T19:27:54Z</time></trkpt>
<trkpt lat="46.24666" lon="7.00311"><ele>361.2</ele><time>2016-08-06T19:27:55Z</time></trkpt>
<trkpt lat="46.24669" lon="7.00321"><ele>361.2</ele><time>2016-08-06T19:27:57Z</time></trkpt>
<trkpt lat="46.24671" lon="7.00326"><ele>361.4</ele><time>2016-08-06T19:27:58Z</time></trkpt>
<trkpt lat="46.24674" lon="7.00335"><ele>361.4</ele><time>2016-08-06T19:28:00Z</time></trkpt>
<trkpt lat="46.24676" lon="7.0034"><ele>361.6</ele><time>2016-08-06T19:28:01Z</time></trkpt>
<trkpt lat="46.24677" lon="7.00345"><ele>361.8</ele><time>2016-08-06T19:28:02Z</time></trkpt>
<trkpt lat="46.2468" lon="7.00354"><ele>362.2</ele><time>2016-08-06T19:28:04Z</time></trkpt>
<trkpt lat="46.2468" lon="7.00364"><ele>362.4</ele><time>2016-08-06T19:28:06Z</time></trkpt>
<trkpt lat="46.24679" lon="7.00369"><ele>362.6</ele><time>2016-08-06T19:28:07Z</time></trkpt>
<trkpt lat="46.2468" lon="7.00374"><ele>362.6</ele><time>2016-08-06T19:28:08Z</time></trkpt>
<trkpt lat="46.24685" lon="7.00384"><ele>362.8</ele><time>2016-08-06T19:28:10Z</time></trkpt>
<trkpt lat="46.24693" lon="7.00392"><ele>363</ele><time>2016-08-06T19:28:12Z</time></trkpt>
<trkpt lat="46.24701" lon="7.004"><ele>363.2</ele><time>2016-08-06T19:28:14Z</time></trkpt>
<trkpt lat="46.24709" lon="7.00408"><ele>363.4</ele><time>2016-08-06T19:28:16Z</time></trkpt>
<trkpt lat="46.24712" lon="7.00414"><ele>363.4</ele><time>2016-08-06T19:28:17Z</time></trkpt>
<trkpt lat="46.24717" lon="7.00427"><ele>363.6</ele><time>2016-08-06T19:28:19Z</time></trkpt>
<trkpt lat="46.24719" lon="7.00433"><ele>363.6</ele><time>2016-08-06T19:28:20Z</time></trkpt>
<trkpt lat="46.24724" lon="7.00446"><ele>363.8</ele><time>2016-08-06T19:28:22Z</time></trkpt>
<trkpt lat="46.24727" lon="7.00452"><ele>364</ele><time>2016-08-06T19:28:23Z</time></trkpt>
<trkpt lat="46.24729" lon="7.00458"><ele>364</ele><time>2016-08-06T19:28:24Z</time></trkpt>
<trkpt lat="46.24734" lon="7.00471"><ele>364.2</ele><time>2016-08-06T19:28:26Z</time></trkpt>
<trkpt lat="46.24736" lon="7.00478"><ele>364.2</ele><time>2016-08-06T19:28:27Z</time></trkpt>
<trkpt lat="46.24739" lon="7.00485"><ele>364.2</ele><time>2016-08-06T19:28:28Z</time></trkpt>
<trkpt lat="46.24743" lon="7.00498"><ele>364.4</ele><time>2016-08-06T19:28:30Z</time></trkpt>
<trkpt lat="46.24747" lon="7.00512"><ele>364.4</ele><time>2016-08-06T19:28:32Z</time></trkpt>
<trkpt lat="46.24752" lon="7.00526"><ele>364.6</ele><time>2016-08-06T19:28:34Z</time></trkpt>
<trkpt lat="46.24754" lon="7.00533"><ele>364.6</ele><time>2016-08-06T19:28:35Z</time></trkpt>
<trkpt lat="46.24757" lon="7.00548"><ele>364.8</ele><time>2016-08-06T19:28:37Z</time></trkpt>
<trkpt lat="46.24758" lon="7.00555"><ele>364.8</ele><time>2016-08-06T19:28:38Z</time></trkpt>
<trkpt lat="46.24761" lon="7.00569"><ele>365</ele><time>2016-08-06T19:28:40Z</time></trkpt>
<trkpt lat="46.24764" lon="7.00584"><ele>365</ele><time>2016-08-06T19:28:42Z</time></trkpt>
<trkpt lat="46.24767" lon="7.00598"><ele>365.2</ele><time>2016-08-06T19:28:44Z</time></trkpt>
<trkpt lat="46.24771" lon="7.00619"><ele>365.4</ele><time>2016-08-06T19:28:47Z</time></trkpt>
<trkpt lat="46.24772" lon="7.00626"><ele>365.4</ele><time>2016-08-06T19:28:48Z</time></trkpt>
<trkpt lat="46.24775" lon="7.0064"><ele>365.6</ele><time>2016-08-06T19:28:50Z</time></trkpt>
<trkpt lat="46.24777" lon="7.00654"><ele>365.6</ele><time>2016-08-06T19:28:52Z</time></trkpt>
<trkpt lat="46.24779" lon="7.00661"><ele>365.8</ele><time>2016-08-06T19:28:53Z</time></trkpt>
<trkpt lat="46.2478" lon="7.00668"><ele>365.8</ele><time>2016-08-06T19:28:54Z</time></trkpt>
<trkpt lat="46.24784" lon="7.00688"><ele>366</ele><time>2016-08-06T19:28:57Z</time></trkpt>
<trkpt lat="46.24785" lon="7.00695"><ele>366</ele><time>2016-08-06T19:28:58Z</time></trkpt>
<trkpt lat="46.24788" lon="7.00708"><ele>366.2</ele><time>2016-08-06T19:29:00Z</time></trkpt>
<trkpt lat="46.24791" lon="7.00722"><ele>366.2</ele><time>2016-08-06T19:29:02Z</time></trkpt>
<trkpt lat="46.24794" lon="7.00733"><ele>366.4</ele><time>2016-08-06T19:29:04Z</time></trkpt>
<trkpt lat="46.248" lon="7.00751"><ele>366.6</ele><time>2016-08-06T19:29:07Z</time></trkpt>
<trkpt lat="46.24802" lon="7.00757"><ele>366.6</ele><time>2016-08-06T19:29:08Z</time></trkpt>
<trkpt lat="46.24806" lon="7.00769"><ele>366.8</ele><time>2016-08-06T19:29:10Z</time></trkpt>
<trkpt lat="46.24812" lon="7.0078"><ele>366.8</ele><time>2016-08-06T19:29:12Z</time></trkpt>
<trkpt lat="46.24822" lon="7.00796"><ele>367</ele><time>2016-08-06T19:29:15Z</time></trkpt>
<trkpt lat="46.24828" lon="7.00807"><ele>367.2</ele><time>2016-08-06T19:29:17Z</time></trkpt>
<trkpt lat="46.24831" lon="7.00812"><ele>367.2</ele><time>2016-08-06T19:29:18Z</time></trkpt>
<trkpt lat="46.24834" lon="7.00817"><ele>367.4</ele><time>2016-08-06T19:29:19Z</time></trkpt>
<trkpt lat="46.24837" lon="7.00823"><ele>367.4</ele><time>2016-08-06T19:29:20Z</time></trkpt>
<trkpt lat="46.24843" lon="7.00833"><ele>367.6</ele><time>2016-08-06T19:29:22Z</time></trkpt>
<trkpt lat="46.24852" lon="7.00849"><ele>367.8</ele><time>2016-08-06T19:29:25Z</time></trkpt>
<trkpt lat="46.24858" lon="7.00859"><ele>367.8</ele><time>2016-08-06T19:29:27Z</time></trkpt>
<trkpt lat="46.24861" lon="7.00864"><ele>368</ele><time>2016-08-06T19:29:28Z</time></trkpt>
<trkpt lat="46.24867" lon="7.00875"><ele>368</ele><time>2016-08-06T19:29:30Z</time></trkpt>
<trkpt lat="46.24873" lon="7.00885"><ele>368.2</ele><time>2016-08-06T19:29:32Z</time></trkpt>
<trkpt lat="46.24878" lon="7.00895"><ele>368.4</ele><time>2016-08-06T19:29:34Z</time></trkpt>
<trkpt lat="46.24886" lon="7.0091"><ele>368.6</ele><time>2016-08-06T19:29:37Z</time></trkpt>
<trkpt lat="46.24888" lon="7.00915"><ele>368.6</ele><time>2016-08-06T19:29:38Z</time></trkpt>
<trkpt lat="46.24894" lon="7.00925"><ele>368.8</ele><time>2016-08-06T19:29:40Z</time></trkpt>
<trkpt lat="46.24896" lon="7.0093"><ele>368.8</ele><time>2016-08-06T19:29:41Z</time></trkpt>
<trkpt lat="46.24898" lon="7.00936"><ele>369</ele><time>2016-08-06T19:29:42Z</time></trkpt>
<trkpt lat="46.24902" lon="7.00947"><ele>369</ele><time>2016-08-06T19:29:44Z</time></trkpt>
<trkpt lat="46.24907" lon="7.00963"><ele>369.4</ele><time>2016-08-06T19:29:47Z</time></trkpt>
<trkpt lat="46.24909" lon="7.00969"><ele>369.4</ele><time>2016-08-06T19:29:48Z</time></trkpt>
<trkpt lat="46.24913" lon="7.0098"><ele>369.6</ele><time>2016-08-06T19:29:50Z</time></trkpt>
<trkpt lat="46.24916" lon="7.00991"><ele>369.6</ele><time>2016-08-06T19:29:52Z</time></trkpt>
<trkpt lat="46.24918" lon="7.01003"><ele>369.8</ele><time>2016-08-06T19:29:54Z</time></trkpt>
<trkpt lat="46.2492" lon="7.01022"><ele>370</ele><time>2016-08-06T19:29:57Z</time></trkpt>
<trkpt lat="46.24921" lon="7.01028"><ele>370</ele><time>2016-08-06T19:29:58Z</time></trkpt>
<trkpt lat="46.24923" lon="7.01046"><ele>370.4</ele><time>2016-08-06T19:30:01Z</time></trkpt>
<trkpt lat="46.24924" lon="7.01052"><ele>370.4</ele><time>2016-08-06T19:30:02Z</time></trkpt>
<trkpt lat="46.24925" lon="7.01058"><ele>370.4</ele><time>2016-08-06T19:30:03Z</time></trkpt>
<trkpt lat="46.24926" lon="7.01063"><ele>370.6</ele><time>2016-08-06T19:30:04Z</time></trkpt>
<trkpt lat="46.24931" lon="7.0108"><ele>370.8</ele><time>2016-08-06T19:30:07Z</time></trkpt>
<trkpt lat="46.24932" lon="7.01085"><ele>370.8</ele><time>2016-08-06T19:30:08Z</time></trkpt>
<trkpt lat="46.24935" lon="7.01096"><ele>370.8</ele><time>2016-08-06T19:30:10Z</time></trkpt>
<trkpt lat="46.24938" lon="7.01107"><ele>371</ele><time>2016-08-06T19:30:12Z</time></trkpt>
<trkpt lat="46.24941" lon="7.01118"><ele>371</ele><time>2016-08-06T19:30:14Z</time></trkpt>
<trkpt lat="46.24942" lon="7.01123"><ele>371</ele><time>2016-08-06T19:30:15Z</time></trkpt>
<trkpt lat="46.24946" lon="7.01135"><ele>371</ele><time>2016-08-06T19:30:17Z</time></trkpt>
<trkpt lat="46.24948" lon="7.0114"><ele>371.2</ele><time>2016-08-06T19:30:18Z</time></trkpt>
<trkpt lat="46.24951" lon="7.01151"><ele>371.2</ele><time>2016-08-06T19:30:20Z</time></trkpt>
<trkpt lat="46.24955" lon="7.01163"><ele>371.2</ele><time>2016-08-06T19:30:22Z</time></trkpt>
<trkpt lat="46.24959" lon="7.01174"><ele>371.4</ele><time>2016-08-06T19:30:24Z</time></trkpt>
<trkpt lat="46.24962" lon="7.01185"><ele>371.4</ele><time>2016-08-06T19:30:26Z</time></trkpt>
<trkpt lat="46.24963" lon="7.01191"><ele>371.4</ele><time>2016-08-06T19:30:27Z</time></trkpt>
<trkpt lat="46.24963" lon="7.01196"><ele>371.4</ele><time>2016-08-06T19:30:28Z</time></trkpt>
<trkpt lat="46.24964" lon="7.01207"><ele>371.6</ele><time>2016-08-06T19:30:30Z</time></trkpt>
<trkpt lat="46.24961" lon="7.01215"><ele>371.6</ele><time>2016-08-06T19:30:32Z</time></trkpt>
<trkpt lat="46.24952" lon="7.01217"><ele>371.6</ele><time>2016-08-06T19:30:34Z</time></trkpt>
<trkpt lat="46.2494" lon="7.0122"><ele>371.8</ele><time>2016-08-06T19:30:37Z</time></trkpt>
<trkpt lat="46.24936" lon="7.01222"><ele>371.8</ele><time>2016-08-06T19:30:38Z</time></trkpt>
<trkpt lat="46.24928" lon="7.01224"><ele>372</ele><time>2016-08-06T19:30:40Z</time></trkpt>
<trkpt lat="46.24919" lon="7.01226"><ele>372</ele><time>2016-08-06T19:30:42Z</time></trkpt>
<trkpt lat="46.24915" lon="7.01227"><ele>372</ele><time>2016-08-06T19:30:43Z</time></trkpt>
<trkpt lat="46.24911" lon="7.01228"><ele>372</ele><time>2016-08-06T19:30:44Z</time></trkpt>
<trkpt lat="46.24898" lon="7.01231"><ele>372.2</ele><time>2016-08-06T19:30:47Z</time></trkpt>
<trkpt lat="46.24893" lon="7.01232"><ele>372.2</ele><time>2016-08-06T19:30:48Z</time></trkpt>
<trkpt lat="46.24885" lon="7.01233"><ele>372.2</ele><time>2016-08-06T19:30:50Z</time></trkpt>
<trkpt lat="46.24876" lon="7.01235"><ele>372.4</ele><time>2016-08-06T19:30:52Z</time></trkpt>
<trkpt lat="46.24867" lon="7.01237"><ele>372.4</ele><time>2016-08-06T19:30:54Z</time></trkpt>
<trkpt lat="46.24854" lon="7.0124"><ele>372.6</ele><time>2016-08-06T19:30:57Z</time></trkpt>
<trkpt lat="46.2485" lon="7.01241"><ele>372.6</ele><time>2016-08-06T19:30:58Z</time></trkpt>
<trkpt lat="46.24837" lon="7.01244"><ele>372.6</ele><time>2016-08-06T19:31:01Z</time></trkpt>
<trkpt lat="46.24833" lon="7.01244"><ele>372.6</ele><time>2016-08-06T19:31:02Z</time></trkpt>
<trkpt lat="46.24829" lon="7.01244"><ele>372.8</ele><time>2016-08-06T19:31:03Z</time></trkpt>
<trkpt lat="46.24825" lon="7.01242"><ele>372.8</ele><time>2016-08-06T19:31:04Z</time></trkpt>
<trkpt lat="46.24812" lon="7.01245"><ele>372.8</ele><time>2016-08-06T19:31:07Z</time></trkpt>
<trkpt lat="46.24807" lon="7.01246"><ele>373</ele><time>2016-08-06T19:31:08Z</time></trkpt>
<trkpt lat="46.24798" lon="7.01248"><ele>373</ele><time>2016-08-06T19:31:10Z</time></trkpt>
<trkpt lat="46.24789" lon="7.0125"><ele>373</ele><time>2016-08-06T19:31:12Z</time></trkpt>
<trkpt lat="46.2478" lon="7.01252"><ele>373.2</ele><time>2016-08-06T19:31:14Z</time></trkpt>
<trkpt lat="46.24767" lon="7.01254"><ele>373.2</ele><time>2016-08-06T19:31:17Z</time></trkpt>
<trkpt lat="46.24762" lon="7.01255"><ele>373.2</ele><time>2016-08-06T19:31:18Z</time></trkpt>
<trkpt lat="46.24754" lon="7.01256"><ele>373.4</ele><time>2016-08-06T19:31:20Z</time></trkpt>
<trkpt lat="46.24745" lon="7.01257"><ele>373.4</ele><time>2016-08-06T19:31:22Z</time></trkpt>
<trkpt lat="46.24732" lon="7.01259"><ele>373.6</ele><time>2016-08-06T19:31:25Z</time></trkpt>
<trkpt lat="46.24725" lon="7.01255"><ele>373.6</ele><time>2016-08-06T19:31:27Z</time></trkpt>
<trkpt lat="46.24721" lon="7.01254"><ele>373.6</ele><time>2016-08-06T19:31:28Z</time></trkpt>
<trkpt lat="46.24714" lon="7.01251"><ele>373.6</ele><time>2016-08-06T19:31:30Z</time></trkpt>
<trkpt lat="46.24708" lon="7.01248"><ele>373.8</ele><time>2016-08-06T19:31:32Z</time></trkpt>
<trkpt lat="46.24701" lon="7.01244"><ele>373.8</ele><time>2016-08-06T19:31:34Z</time></trkpt>
<trkpt lat="46.24694" lon="7.01241"><ele>374</ele><time>2016-08-06T19:31:36Z</time></trkpt>
<trkpt lat="46.2469" lon="7.0124"><ele>374</ele><time>2016-08-06T19:31:37Z</time></trkpt>
<trkpt lat="46.24687" lon="7.01238"><ele>374.2</ele><time>2016-08-06T19:31:38Z</time></trkpt>
<trkpt lat="46.24682" lon="7.01232"><ele>374.4</ele><time>2016-08-06T19:31:40Z</time></trkpt>
<trkpt lat="46.24677" lon="7.01225"><ele>374.4</ele><time>2016-08-06T19:31:42Z</time></trkpt>
<trkpt lat="46.24672" lon="7.01219"><ele>374.6</ele><time>2016-08-06T19:31:44Z</time></trkpt>
<trkpt lat="46.24667" lon="7.01213"><ele>374.8</ele><time>2016-08-06T19:31:46Z</time></trkpt>
<trkpt lat="46.24666" lon="7.0121"><ele>375</ele><time>2016-08-06T19:31:47Z</time></trkpt>
<trkpt lat="46.24663" lon="7.01204"><ele>375.2</ele><time>2016-08-06T19:31:49Z</time></trkpt>
<trkpt lat="46.24662" lon="7.012"><ele>375.2</ele><time>2016-08-06T19:31:50Z</time></trkpt>
<trkpt lat="46.24659" lon="7.01194"><ele>375.4</ele><time>2016-08-06T19:31:52Z</time></trkpt>
<trkpt lat="46.24657" lon="7.01187"><ele>375.6</ele><time>2016-08-06T19:31:54Z</time></trkpt>
<trkpt lat="46.24653" lon="7.01178"><ele>376</ele><time>2016-08-06T19:31:57Z</time></trkpt>
<trkpt lat="46.24652" lon="7.01176"><ele>376</ele><time>2016-08-06T19:31:58Z</time></trkpt>
<trkpt lat="46.24649" lon="7.01181"><ele>376.2</ele><time>2016-08-06T19:32:00Z</time></trkpt>
<trkpt lat="46.24645" lon="7.01185"><ele>376.4</ele><time>2016-08-06T19:32:02Z</time></trkpt>
<trkpt lat="46.24642" lon="7.0119"><ele>376.6</ele><time>2016-08-06T19:32:04Z</time></trkpt>
<trkpt lat="46.24637" lon="7.01197"><ele>377</ele><time>2016-08-06T19:32:07Z</time></trkpt>
<trkpt lat="46.24636" lon="7.012"><ele>377</ele><time>2016-08-06T19:32:08Z</time></trkpt>
<trkpt lat="46.24632" lon="7.01205"><ele>377.2</ele><time>2016-08-06T19:32:10Z</time></trkpt>
<trkpt lat="46.24628" lon="7.01212"><ele>377.6</ele><time>2016-08-06T19:32:13Z</time></trkpt>
<trkpt lat="46.24626" lon="7.01214"><ele>377.8</ele><time>2016-08-06T19:32:14Z</time></trkpt>
<trkpt lat="46.24621" lon="7.01221"><ele>378</ele><time>2016-08-06T19:32:17Z</time></trkpt>
<trkpt lat="46.2462" lon="7.01224"><ele>378.2</ele><time>2016-08-06T19:32:18Z</time></trkpt>
<trkpt lat="46.24618" lon="7.0123"><ele>378.4</ele><time>2016-08-06T19:32:20Z</time></trkpt>
<trkpt lat="46.24618" lon="7.01233"><ele>378.6</ele><time>2016-08-06T19:32:21Z</time></trkpt>
<trkpt lat="46.24617" lon="7.01237"><ele>378.6</ele><time>2016-08-06T19:32:22Z</time></trkpt>
<trkpt lat="46.24616" lon="7.01243"><ele>378.8</ele><time>2016-08-06T19:32:24Z</time></trkpt>
<trkpt lat="46.24615" lon="7.01249"><ele>379</ele><time>2016-08-06T19:32:26Z</time></trkpt>
<trkpt lat="46.24616" lon="7.0125"><ele>379</ele><time>2016-08-06T19:32:27Z</time></trkpt>
<trkpt lat="46.24617" lon="7.01251"><ele>379</ele><time>2016-08-06T19:32:28Z</time></trkpt>
<trkpt lat="46.24618" lon="7.01253"><ele>379.2</ele><time>2016-08-06T19:32:30Z</time></trkpt>
<trkpt lat="46.24619" lon="7.01254"><ele>379.2</ele><time>2016-08-06T19:32:31Z</time></trkpt>
<trkpt lat="46.2462" lon="7.01255"><ele>379.2</ele><time>2016-08-06T19:32:32Z</time></trkpt>
<trkpt lat="46.24622" lon="7.01257"><ele>379</ele><time>2016-08-06T19:32:34Z</time></trkpt>
<trkpt lat="46.24621" lon="7.01257"><ele>379</ele><time>2016-08-06T19:32:35Z</time></trkpt>
<trkpt lat="46.24621" lon="7.01257"><ele>379</ele><time>2016-08-06T19:32:37Z</time></trkpt>
<trkpt lat="46.24621" lon="7.01257"><ele>379</ele><time>2016-08-06T19:32:38Z</time></trkpt>
<trkpt lat="46.24621" lon="7.01257"><ele>378.8</ele><time>2016-08-06T19:32:40Z</time></trkpt>
<trkpt lat="46.24621" lon="7.01257"><ele>378.8</ele><time>2016-08-06T19:32:42Z</time></trkpt>
<trkpt lat="46.24621" lon="7.01257"><ele>378.6</ele><time>2016-08-06T19:32:44Z</time></trkpt>
<trkpt lat="46.24621" lon="7.01257"><ele>378.6</ele><time>2016-08-06T19:32:47Z</time></trkpt>
<trkpt lat="46.24621" lon="7.01257"><ele>378.4</ele><time>2016-08-06T19:32:48Z</time></trkpt>
<trkpt lat="46.24621" lon="7.01257"><ele>378.4</ele><time>2016-08-06T19:32:49Z</time></trkpt>
<trkpt lat="46.24621" lon="7.01257"><ele>378.4</ele><time>2016-08-06T19:32:50Z</time></trkpt>
</trkseg></trk></gpx>